<?xml version="1.0" encoding="UTF-8" standalone="no" ?>
<gpx xmlns="http://www.topografix.com/GPX/1/1" xmlns:xsi="http://www.w3.org/2001/XMLSchema-instance" xsi:schemaLocation="http://www.topografix.com/GPX/1/1 http://www.topografix.com/GPX/1/1/gpx.xsd" version="1.1" creator="VisuGPX - https://www.visugpx.com">
  <metadata>
    <name>2018-03-29 Bike ride-Chatillon-Limas</name>
    <desc><![CDATA[2018-03-29 Bike ride-Chatillon-Limas]]></desc>
  </metadata>
  <wpt lat="45.92462" lon="4.73722">
    <ele>174</ele>
    <name><![CDATA[2018-03-29 15:41 (Start)]]></name>
  </wpt>
  <wpt lat="45.92462" lon="4.7371">
    <ele>174</ele>
    <name><![CDATA[2018-03-29 15:41 (End)]]></name>
  </wpt>
  <trk>
    <name><![CDATA[2018-03-29 15:41]]></name>
    <trkseg>
      <trkpt lat="45.92462" lon="4.73722">
        <ele>174</ele>
        <time>2018-03-29T13:41:05.208Z</time>
      </trkpt>
      <trkpt lat="45.92461" lon="4.73719">
        <ele>174</ele>
        <time>2018-03-29T13:41:08Z</time>
      </trkpt>
      <trkpt lat="45.92461" lon="4.73718">
        <ele>174</ele>
        <time>2018-03-29T13:41:09Z</time>
      </trkpt>
      <trkpt lat="45.92462" lon="4.73716">
        <ele>174</ele>
        <time>2018-03-29T13:41:12Z</time>
      </trkpt>
      <trkpt lat="45.92461" lon="4.73715">
        <ele>174</ele>
        <time>2018-03-29T13:41:13Z</time>
      </trkpt>
      <trkpt lat="45.92461" lon="4.73715">
        <ele>174</ele>
        <time>2018-03-29T13:41:14Z</time>
      </trkpt>
      <trkpt lat="45.92462" lon="4.73712">
        <ele>174</ele>
        <time>2018-03-29T13:41:27Z</time>
      </trkpt>
      <trkpt lat="45.92461" lon="4.73712">
        <ele>174</ele>
        <time>2018-03-29T13:41:28Z</time>
      </trkpt>
      <trkpt lat="45.92466" lon="4.73701">
        <ele>174</ele>
        <time>2018-03-29T13:41:40Z</time>
      </trkpt>
      <trkpt lat="45.92466" lon="4.73698">
        <ele>174</ele>
        <time>2018-03-29T13:41:41Z</time>
      </trkpt>
      <trkpt lat="45.92467" lon="4.73687">
        <ele>174</ele>
        <time>2018-03-29T13:41:44Z</time>
      </trkpt>
      <trkpt lat="45.92467" lon="4.73683">
        <ele>174</ele>
        <time>2018-03-29T13:41:45Z</time>
      </trkpt>
      <trkpt lat="45.92468" lon="4.73674">
        <ele>174</ele>
        <time>2018-03-29T13:41:47Z</time>
      </trkpt>
      <trkpt lat="45.92469" lon="4.7367">
        <ele>174</ele>
        <time>2018-03-29T13:41:48Z</time>
      </trkpt>
      <trkpt lat="45.92469" lon="4.73661">
        <ele>174</ele>
        <time>2018-03-29T13:41:50Z</time>
      </trkpt>
      <trkpt lat="45.9247" lon="4.73649">
        <ele>174</ele>
        <time>2018-03-29T13:41:51Z</time>
      </trkpt>
      <trkpt lat="45.92472" lon="4.73638">
        <ele>174</ele>
        <time>2018-03-29T13:41:53Z</time>
      </trkpt>
      <trkpt lat="45.92472" lon="4.73632">
        <ele>174</ele>
        <time>2018-03-29T13:41:54Z</time>
      </trkpt>
      <trkpt lat="45.92472" lon="4.73619">
        <ele>174</ele>
        <time>2018-03-29T13:41:56Z</time>
      </trkpt>
      <trkpt lat="45.92471" lon="4.73613">
        <ele>174</ele>
        <time>2018-03-29T13:41:57Z</time>
      </trkpt>
      <trkpt lat="45.9247" lon="4.736">
        <ele>174</ele>
        <time>2018-03-29T13:41:59Z</time>
      </trkpt>
      <trkpt lat="45.92469" lon="4.73594">
        <ele>174</ele>
        <time>2018-03-29T13:42:00Z</time>
      </trkpt>
      <trkpt lat="45.92468" lon="4.73581">
        <ele>173</ele>
        <time>2018-03-29T13:42:02Z</time>
      </trkpt>
      <trkpt lat="45.92468" lon="4.73576">
        <ele>173</ele>
        <time>2018-03-29T13:42:03Z</time>
      </trkpt>
      <trkpt lat="45.92468" lon="4.73564">
        <ele>173</ele>
        <time>2018-03-29T13:42:05Z</time>
      </trkpt>
      <trkpt lat="45.92468" lon="4.73559">
        <ele>173</ele>
        <time>2018-03-29T13:42:06Z</time>
      </trkpt>
      <trkpt lat="45.92466" lon="4.7355">
        <ele>173</ele>
        <time>2018-03-29T13:42:09Z</time>
      </trkpt>
      <trkpt lat="45.92465" lon="4.73547">
        <ele>173</ele>
        <time>2018-03-29T13:42:10Z</time>
      </trkpt>
      <trkpt lat="45.92462" lon="4.73544">
        <ele>173</ele>
        <time>2018-03-29T13:42:11Z</time>
      </trkpt>
      <trkpt lat="45.92455" lon="4.7354">
        <ele>173</ele>
        <time>2018-03-29T13:42:12Z</time>
      </trkpt>
      <trkpt lat="45.92447" lon="4.73544">
        <ele>174</ele>
        <time>2018-03-29T13:42:14Z</time>
      </trkpt>
      <trkpt lat="45.92443" lon="4.73547">
        <ele>174</ele>
        <time>2018-03-29T13:42:15Z</time>
      </trkpt>
      <trkpt lat="45.92438" lon="4.7355">
        <ele>174</ele>
        <time>2018-03-29T13:42:16Z</time>
      </trkpt>
      <trkpt lat="45.92434" lon="4.73554">
        <ele>174</ele>
        <time>2018-03-29T13:42:17Z</time>
      </trkpt>
      <trkpt lat="45.92425" lon="4.73559">
        <ele>174</ele>
        <time>2018-03-29T13:42:19Z</time>
      </trkpt>
      <trkpt lat="45.9242" lon="4.73562">
        <ele>174</ele>
        <time>2018-03-29T13:42:20Z</time>
      </trkpt>
      <trkpt lat="45.92416" lon="4.73564">
        <ele>173</ele>
        <time>2018-03-29T13:42:21Z</time>
      </trkpt>
      <trkpt lat="45.92412" lon="4.73566">
        <ele>173</ele>
        <time>2018-03-29T13:42:22Z</time>
      </trkpt>
      <trkpt lat="45.92407" lon="4.73568">
        <ele>173</ele>
        <time>2018-03-29T13:42:23Z</time>
      </trkpt>
      <trkpt lat="45.92402" lon="4.73571">
        <ele>173</ele>
        <time>2018-03-29T13:42:24Z</time>
      </trkpt>
      <trkpt lat="45.92398" lon="4.73572">
        <ele>173</ele>
        <time>2018-03-29T13:42:25Z</time>
      </trkpt>
      <trkpt lat="45.92394" lon="4.73574">
        <ele>173</ele>
        <time>2018-03-29T13:42:26Z</time>
      </trkpt>
      <trkpt lat="45.92389" lon="4.73576">
        <ele>173</ele>
        <time>2018-03-29T13:42:27Z</time>
      </trkpt>
      <trkpt lat="45.92384" lon="4.7358">
        <ele>173</ele>
        <time>2018-03-29T13:42:28Z</time>
      </trkpt>
      <trkpt lat="45.92378" lon="4.73583">
        <ele>173</ele>
        <time>2018-03-29T13:42:29Z</time>
      </trkpt>
      <trkpt lat="45.92373" lon="4.73585">
        <ele>173</ele>
        <time>2018-03-29T13:42:30Z</time>
      </trkpt>
      <trkpt lat="45.92367" lon="4.73588">
        <ele>173</ele>
        <time>2018-03-29T13:42:31Z</time>
      </trkpt>
      <trkpt lat="45.92362" lon="4.73589">
        <ele>173</ele>
        <time>2018-03-29T13:42:32Z</time>
      </trkpt>
      <trkpt lat="45.92357" lon="4.73593">
        <ele>173</ele>
        <time>2018-03-29T13:42:33Z</time>
      </trkpt>
      <trkpt lat="45.92351" lon="4.73596">
        <ele>173</ele>
        <time>2018-03-29T13:42:34Z</time>
      </trkpt>
      <trkpt lat="45.92346" lon="4.736">
        <ele>173</ele>
        <time>2018-03-29T13:42:35Z</time>
      </trkpt>
      <trkpt lat="45.92341" lon="4.73602">
        <ele>173</ele>
        <time>2018-03-29T13:42:36Z</time>
      </trkpt>
      <trkpt lat="45.92336" lon="4.73604">
        <ele>173</ele>
        <time>2018-03-29T13:42:37Z</time>
      </trkpt>
      <trkpt lat="45.92332" lon="4.73607">
        <ele>172</ele>
        <time>2018-03-29T13:42:38Z</time>
      </trkpt>
      <trkpt lat="45.92326" lon="4.73611">
        <ele>172</ele>
        <time>2018-03-29T13:42:39Z</time>
      </trkpt>
      <trkpt lat="45.92321" lon="4.73614">
        <ele>172</ele>
        <time>2018-03-29T13:42:40Z</time>
      </trkpt>
      <trkpt lat="45.92316" lon="4.73618">
        <ele>172</ele>
        <time>2018-03-29T13:42:41Z</time>
      </trkpt>
      <trkpt lat="45.9231" lon="4.73621">
        <ele>172</ele>
        <time>2018-03-29T13:42:42Z</time>
      </trkpt>
      <trkpt lat="45.92305" lon="4.73625">
        <ele>172</ele>
        <time>2018-03-29T13:42:43Z</time>
      </trkpt>
      <trkpt lat="45.92299" lon="4.73627">
        <ele>172</ele>
        <time>2018-03-29T13:42:44Z</time>
      </trkpt>
      <trkpt lat="45.92294" lon="4.7363">
        <ele>172</ele>
        <time>2018-03-29T13:42:45Z</time>
      </trkpt>
      <trkpt lat="45.9229" lon="4.73632">
        <ele>172</ele>
        <time>2018-03-29T13:42:46Z</time>
      </trkpt>
      <trkpt lat="45.92284" lon="4.73636">
        <ele>172</ele>
        <time>2018-03-29T13:42:47Z</time>
      </trkpt>
      <trkpt lat="45.92279" lon="4.73639">
        <ele>172</ele>
        <time>2018-03-29T13:42:48Z</time>
      </trkpt>
      <trkpt lat="45.92274" lon="4.73643">
        <ele>172</ele>
        <time>2018-03-29T13:42:49Z</time>
      </trkpt>
      <trkpt lat="45.92269" lon="4.73646">
        <ele>172</ele>
        <time>2018-03-29T13:42:50Z</time>
      </trkpt>
      <trkpt lat="45.92264" lon="4.73649">
        <ele>171</ele>
        <time>2018-03-29T13:42:51Z</time>
      </trkpt>
      <trkpt lat="45.92259" lon="4.73652">
        <ele>171</ele>
        <time>2018-03-29T13:42:52Z</time>
      </trkpt>
      <trkpt lat="45.92254" lon="4.73655">
        <ele>171</ele>
        <time>2018-03-29T13:42:53Z</time>
      </trkpt>
      <trkpt lat="45.9225" lon="4.73659">
        <ele>171</ele>
        <time>2018-03-29T13:42:54Z</time>
      </trkpt>
      <trkpt lat="45.92245" lon="4.73662">
        <ele>171</ele>
        <time>2018-03-29T13:42:55Z</time>
      </trkpt>
      <trkpt lat="45.92239" lon="4.73664">
        <ele>171</ele>
        <time>2018-03-29T13:42:56Z</time>
      </trkpt>
      <trkpt lat="45.92234" lon="4.73666">
        <ele>171</ele>
        <time>2018-03-29T13:42:57Z</time>
      </trkpt>
      <trkpt lat="45.9223" lon="4.73669">
        <ele>171</ele>
        <time>2018-03-29T13:42:58Z</time>
      </trkpt>
      <trkpt lat="45.92225" lon="4.73671">
        <ele>171</ele>
        <time>2018-03-29T13:42:59Z</time>
      </trkpt>
      <trkpt lat="45.9222" lon="4.73674">
        <ele>171</ele>
        <time>2018-03-29T13:43:00Z</time>
      </trkpt>
      <trkpt lat="45.92215" lon="4.73676">
        <ele>171</ele>
        <time>2018-03-29T13:43:01Z</time>
      </trkpt>
      <trkpt lat="45.92209" lon="4.73679">
        <ele>171</ele>
        <time>2018-03-29T13:43:02Z</time>
      </trkpt>
      <trkpt lat="45.92204" lon="4.73682">
        <ele>171</ele>
        <time>2018-03-29T13:43:03Z</time>
      </trkpt>
      <trkpt lat="45.92198" lon="4.73685">
        <ele>171</ele>
        <time>2018-03-29T13:43:04Z</time>
      </trkpt>
      <trkpt lat="45.92193" lon="4.73688">
        <ele>171</ele>
        <time>2018-03-29T13:43:05Z</time>
      </trkpt>
      <trkpt lat="45.92187" lon="4.7369">
        <ele>171</ele>
        <time>2018-03-29T13:43:06Z</time>
      </trkpt>
      <trkpt lat="45.92182" lon="4.73693">
        <ele>171</ele>
        <time>2018-03-29T13:43:07Z</time>
      </trkpt>
      <trkpt lat="45.92177" lon="4.73695">
        <ele>171</ele>
        <time>2018-03-29T13:43:08Z</time>
      </trkpt>
      <trkpt lat="45.92171" lon="4.73698">
        <ele>171</ele>
        <time>2018-03-29T13:43:09Z</time>
      </trkpt>
      <trkpt lat="45.92165" lon="4.737">
        <ele>171</ele>
        <time>2018-03-29T13:43:10Z</time>
      </trkpt>
      <trkpt lat="45.92159" lon="4.73703">
        <ele>171</ele>
        <time>2018-03-29T13:43:11Z</time>
      </trkpt>
      <trkpt lat="45.92154" lon="4.73705">
        <ele>171</ele>
        <time>2018-03-29T13:43:12Z</time>
      </trkpt>
      <trkpt lat="45.92148" lon="4.73707">
        <ele>171</ele>
        <time>2018-03-29T13:43:13Z</time>
      </trkpt>
      <trkpt lat="45.92142" lon="4.73709">
        <ele>171</ele>
        <time>2018-03-29T13:43:14Z</time>
      </trkpt>
      <trkpt lat="45.92137" lon="4.73712">
        <ele>171</ele>
        <time>2018-03-29T13:43:15Z</time>
      </trkpt>
      <trkpt lat="45.92131" lon="4.73714">
        <ele>171</ele>
        <time>2018-03-29T13:43:16Z</time>
      </trkpt>
      <trkpt lat="45.92125" lon="4.73716">
        <ele>171</ele>
        <time>2018-03-29T13:43:17Z</time>
      </trkpt>
      <trkpt lat="45.92119" lon="4.73717">
        <ele>171</ele>
        <time>2018-03-29T13:43:18Z</time>
      </trkpt>
      <trkpt lat="45.92114" lon="4.73719">
        <ele>171</ele>
        <time>2018-03-29T13:43:19Z</time>
      </trkpt>
      <trkpt lat="45.92108" lon="4.7372">
        <ele>171</ele>
        <time>2018-03-29T13:43:20Z</time>
      </trkpt>
      <trkpt lat="45.92102" lon="4.73722">
        <ele>171</ele>
        <time>2018-03-29T13:43:21Z</time>
      </trkpt>
      <trkpt lat="45.92096" lon="4.73723">
        <ele>171</ele>
        <time>2018-03-29T13:43:22Z</time>
      </trkpt>
      <trkpt lat="45.9209" lon="4.73724">
        <ele>171</ele>
        <time>2018-03-29T13:43:23Z</time>
      </trkpt>
      <trkpt lat="45.92085" lon="4.73725">
        <ele>171</ele>
        <time>2018-03-29T13:43:24Z</time>
      </trkpt>
      <trkpt lat="45.92078" lon="4.73725">
        <ele>171</ele>
        <time>2018-03-29T13:43:25Z</time>
      </trkpt>
      <trkpt lat="45.92073" lon="4.73725">
        <ele>171</ele>
        <time>2018-03-29T13:43:26Z</time>
      </trkpt>
      <trkpt lat="45.92067" lon="4.73725">
        <ele>171</ele>
        <time>2018-03-29T13:43:27Z</time>
      </trkpt>
      <trkpt lat="45.9206" lon="4.73725">
        <ele>171</ele>
        <time>2018-03-29T13:43:28Z</time>
      </trkpt>
      <trkpt lat="45.92055" lon="4.73725">
        <ele>171</ele>
        <time>2018-03-29T13:43:29Z</time>
      </trkpt>
      <trkpt lat="45.92049" lon="4.73726">
        <ele>171</ele>
        <time>2018-03-29T13:43:30Z</time>
      </trkpt>
      <trkpt lat="45.92043" lon="4.73726">
        <ele>171</ele>
        <time>2018-03-29T13:43:31Z</time>
      </trkpt>
      <trkpt lat="45.92036" lon="4.73726">
        <ele>171</ele>
        <time>2018-03-29T13:43:32Z</time>
      </trkpt>
      <trkpt lat="45.9203" lon="4.73726">
        <ele>171</ele>
        <time>2018-03-29T13:43:33Z</time>
      </trkpt>
      <trkpt lat="45.92024" lon="4.73726">
        <ele>171</ele>
        <time>2018-03-29T13:43:34Z</time>
      </trkpt>
      <trkpt lat="45.92019" lon="4.73726">
        <ele>171</ele>
        <time>2018-03-29T13:43:35Z</time>
      </trkpt>
      <trkpt lat="45.92013" lon="4.73726">
        <ele>171</ele>
        <time>2018-03-29T13:43:36Z</time>
      </trkpt>
      <trkpt lat="45.92007" lon="4.73727">
        <ele>171</ele>
        <time>2018-03-29T13:43:37Z</time>
      </trkpt>
      <trkpt lat="45.92001" lon="4.73726">
        <ele>171</ele>
        <time>2018-03-29T13:43:38Z</time>
      </trkpt>
      <trkpt lat="45.91995" lon="4.73726">
        <ele>171</ele>
        <time>2018-03-29T13:43:39Z</time>
      </trkpt>
      <trkpt lat="45.91989" lon="4.73725">
        <ele>171</ele>
        <time>2018-03-29T13:43:40Z</time>
      </trkpt>
      <trkpt lat="45.91983" lon="4.73726">
        <ele>171</ele>
        <time>2018-03-29T13:43:41Z</time>
      </trkpt>
      <trkpt lat="45.91978" lon="4.73727">
        <ele>171</ele>
        <time>2018-03-29T13:43:42Z</time>
      </trkpt>
      <trkpt lat="45.91972" lon="4.73727">
        <ele>171</ele>
        <time>2018-03-29T13:43:43Z</time>
      </trkpt>
      <trkpt lat="45.91965" lon="4.73728">
        <ele>171</ele>
        <time>2018-03-29T13:43:44Z</time>
      </trkpt>
      <trkpt lat="45.91959" lon="4.73728">
        <ele>171</ele>
        <time>2018-03-29T13:43:45Z</time>
      </trkpt>
      <trkpt lat="45.91953" lon="4.73727">
        <ele>170</ele>
        <time>2018-03-29T13:43:46Z</time>
      </trkpt>
      <trkpt lat="45.91947" lon="4.73728">
        <ele>170</ele>
        <time>2018-03-29T13:43:47Z</time>
      </trkpt>
      <trkpt lat="45.91941" lon="4.73728">
        <ele>170</ele>
        <time>2018-03-29T13:43:48Z</time>
      </trkpt>
      <trkpt lat="45.91936" lon="4.73728">
        <ele>170</ele>
        <time>2018-03-29T13:43:49Z</time>
      </trkpt>
      <trkpt lat="45.91929" lon="4.73728">
        <ele>170</ele>
        <time>2018-03-29T13:43:50Z</time>
      </trkpt>
      <trkpt lat="45.91923" lon="4.73729">
        <ele>170</ele>
        <time>2018-03-29T13:43:51Z</time>
      </trkpt>
      <trkpt lat="45.91918" lon="4.73729">
        <ele>170</ele>
        <time>2018-03-29T13:43:52Z</time>
      </trkpt>
      <trkpt lat="45.91912" lon="4.73728">
        <ele>171</ele>
        <time>2018-03-29T13:43:53Z</time>
      </trkpt>
      <trkpt lat="45.91906" lon="4.73729">
        <ele>171</ele>
        <time>2018-03-29T13:43:54Z</time>
      </trkpt>
      <trkpt lat="45.91901" lon="4.73729">
        <ele>171</ele>
        <time>2018-03-29T13:43:55Z</time>
      </trkpt>
      <trkpt lat="45.91894" lon="4.73728">
        <ele>171</ele>
        <time>2018-03-29T13:43:56Z</time>
      </trkpt>
      <trkpt lat="45.91889" lon="4.73728">
        <ele>171</ele>
        <time>2018-03-29T13:43:57Z</time>
      </trkpt>
      <trkpt lat="45.91883" lon="4.73728">
        <ele>171</ele>
        <time>2018-03-29T13:43:58Z</time>
      </trkpt>
      <trkpt lat="45.91877" lon="4.73728">
        <ele>171</ele>
        <time>2018-03-29T13:43:59Z</time>
      </trkpt>
      <trkpt lat="45.91871" lon="4.73729">
        <ele>171</ele>
        <time>2018-03-29T13:44:00Z</time>
      </trkpt>
      <trkpt lat="45.91864" lon="4.73728">
        <ele>171</ele>
        <time>2018-03-29T13:44:01Z</time>
      </trkpt>
      <trkpt lat="45.91858" lon="4.73729">
        <ele>171</ele>
        <time>2018-03-29T13:44:02Z</time>
      </trkpt>
      <trkpt lat="45.91852" lon="4.73729">
        <ele>171</ele>
        <time>2018-03-29T13:44:03Z</time>
      </trkpt>
      <trkpt lat="45.91845" lon="4.7373">
        <ele>172</ele>
        <time>2018-03-29T13:44:04Z</time>
      </trkpt>
      <trkpt lat="45.91838" lon="4.73729">
        <ele>172</ele>
        <time>2018-03-29T13:44:05Z</time>
      </trkpt>
      <trkpt lat="45.91832" lon="4.73728">
        <ele>172</ele>
        <time>2018-03-29T13:44:06Z</time>
      </trkpt>
      <trkpt lat="45.91826" lon="4.73728">
        <ele>172</ele>
        <time>2018-03-29T13:44:07Z</time>
      </trkpt>
      <trkpt lat="45.9182" lon="4.73729">
        <ele>172</ele>
        <time>2018-03-29T13:44:08Z</time>
      </trkpt>
      <trkpt lat="45.91813" lon="4.7373">
        <ele>172</ele>
        <time>2018-03-29T13:44:09Z</time>
      </trkpt>
      <trkpt lat="45.91807" lon="4.7373">
        <ele>172</ele>
        <time>2018-03-29T13:44:10Z</time>
      </trkpt>
      <trkpt lat="45.91801" lon="4.7373">
        <ele>172</ele>
        <time>2018-03-29T13:44:11Z</time>
      </trkpt>
      <trkpt lat="45.91796" lon="4.7373">
        <ele>172</ele>
        <time>2018-03-29T13:44:12Z</time>
      </trkpt>
      <trkpt lat="45.9179" lon="4.73731">
        <ele>173</ele>
        <time>2018-03-29T13:44:13Z</time>
      </trkpt>
      <trkpt lat="45.91784" lon="4.73731">
        <ele>173</ele>
        <time>2018-03-29T13:44:14Z</time>
      </trkpt>
      <trkpt lat="45.91779" lon="4.7373">
        <ele>173</ele>
        <time>2018-03-29T13:44:15Z</time>
      </trkpt>
      <trkpt lat="45.91774" lon="4.73731">
        <ele>173</ele>
        <time>2018-03-29T13:44:16Z</time>
      </trkpt>
      <trkpt lat="45.91768" lon="4.7373">
        <ele>173</ele>
        <time>2018-03-29T13:44:17Z</time>
      </trkpt>
      <trkpt lat="45.91762" lon="4.73731">
        <ele>173</ele>
        <time>2018-03-29T13:44:18Z</time>
      </trkpt>
      <trkpt lat="45.91756" lon="4.73731">
        <ele>173</ele>
        <time>2018-03-29T13:44:19Z</time>
      </trkpt>
      <trkpt lat="45.9175" lon="4.73731">
        <ele>173</ele>
        <time>2018-03-29T13:44:20Z</time>
      </trkpt>
      <trkpt lat="45.91744" lon="4.73731">
        <ele>173</ele>
        <time>2018-03-29T13:44:21Z</time>
      </trkpt>
      <trkpt lat="45.91739" lon="4.73731">
        <ele>173</ele>
        <time>2018-03-29T13:44:22Z</time>
      </trkpt>
      <trkpt lat="45.91733" lon="4.73731">
        <ele>173</ele>
        <time>2018-03-29T13:44:23Z</time>
      </trkpt>
      <trkpt lat="45.91727" lon="4.73731">
        <ele>173</ele>
        <time>2018-03-29T13:44:24Z</time>
      </trkpt>
      <trkpt lat="45.91721" lon="4.73731">
        <ele>173</ele>
        <time>2018-03-29T13:44:25Z</time>
      </trkpt>
      <trkpt lat="45.91716" lon="4.73732">
        <ele>173</ele>
        <time>2018-03-29T13:44:26Z</time>
      </trkpt>
      <trkpt lat="45.91711" lon="4.73731">
        <ele>173</ele>
        <time>2018-03-29T13:44:27Z</time>
      </trkpt>
      <trkpt lat="45.91705" lon="4.73731">
        <ele>172</ele>
        <time>2018-03-29T13:44:28Z</time>
      </trkpt>
      <trkpt lat="45.91699" lon="4.7373">
        <ele>172</ele>
        <time>2018-03-29T13:44:29Z</time>
      </trkpt>
      <trkpt lat="45.91694" lon="4.7373">
        <ele>172</ele>
        <time>2018-03-29T13:44:30Z</time>
      </trkpt>
      <trkpt lat="45.91688" lon="4.73731">
        <ele>172</ele>
        <time>2018-03-29T13:44:31Z</time>
      </trkpt>
      <trkpt lat="45.91682" lon="4.73732">
        <ele>172</ele>
        <time>2018-03-29T13:44:32Z</time>
      </trkpt>
      <trkpt lat="45.91676" lon="4.73731">
        <ele>172</ele>
        <time>2018-03-29T13:44:33Z</time>
      </trkpt>
      <trkpt lat="45.9167" lon="4.73731">
        <ele>172</ele>
        <time>2018-03-29T13:44:34Z</time>
      </trkpt>
      <trkpt lat="45.91664" lon="4.73731">
        <ele>172</ele>
        <time>2018-03-29T13:44:35Z</time>
      </trkpt>
      <trkpt lat="45.91657" lon="4.73731">
        <ele>172</ele>
        <time>2018-03-29T13:44:36Z</time>
      </trkpt>
      <trkpt lat="45.91652" lon="4.73732">
        <ele>172</ele>
        <time>2018-03-29T13:44:37Z</time>
      </trkpt>
      <trkpt lat="45.91646" lon="4.73732">
        <ele>172</ele>
        <time>2018-03-29T13:44:38Z</time>
      </trkpt>
      <trkpt lat="45.91641" lon="4.73732">
        <ele>172</ele>
        <time>2018-03-29T13:44:39Z</time>
      </trkpt>
      <trkpt lat="45.91635" lon="4.73733">
        <ele>172</ele>
        <time>2018-03-29T13:44:40Z</time>
      </trkpt>
      <trkpt lat="45.91629" lon="4.73733">
        <ele>172</ele>
        <time>2018-03-29T13:44:41Z</time>
      </trkpt>
      <trkpt lat="45.91622" lon="4.73733">
        <ele>173</ele>
        <time>2018-03-29T13:44:42Z</time>
      </trkpt>
      <trkpt lat="45.91617" lon="4.73733">
        <ele>173</ele>
        <time>2018-03-29T13:44:43Z</time>
      </trkpt>
      <trkpt lat="45.91611" lon="4.73733">
        <ele>173</ele>
        <time>2018-03-29T13:44:44Z</time>
      </trkpt>
      <trkpt lat="45.91604" lon="4.73733">
        <ele>173</ele>
        <time>2018-03-29T13:44:45Z</time>
      </trkpt>
      <trkpt lat="45.91598" lon="4.73733">
        <ele>173</ele>
        <time>2018-03-29T13:44:46Z</time>
      </trkpt>
      <trkpt lat="45.91593" lon="4.73733">
        <ele>173</ele>
        <time>2018-03-29T13:44:47Z</time>
      </trkpt>
      <trkpt lat="45.91586" lon="4.73733">
        <ele>173</ele>
        <time>2018-03-29T13:44:48Z</time>
      </trkpt>
      <trkpt lat="45.9158" lon="4.73733">
        <ele>173</ele>
        <time>2018-03-29T13:44:49Z</time>
      </trkpt>
      <trkpt lat="45.91574" lon="4.73732">
        <ele>173</ele>
        <time>2018-03-29T13:44:50Z</time>
      </trkpt>
      <trkpt lat="45.91568" lon="4.73732">
        <ele>173</ele>
        <time>2018-03-29T13:44:51Z</time>
      </trkpt>
      <trkpt lat="45.91562" lon="4.73732">
        <ele>173</ele>
        <time>2018-03-29T13:44:52Z</time>
      </trkpt>
      <trkpt lat="45.91556" lon="4.73732">
        <ele>174</ele>
        <time>2018-03-29T13:44:53Z</time>
      </trkpt>
      <trkpt lat="45.91551" lon="4.73732">
        <ele>174</ele>
        <time>2018-03-29T13:44:54Z</time>
      </trkpt>
      <trkpt lat="45.91545" lon="4.73732">
        <ele>174</ele>
        <time>2018-03-29T13:44:55Z</time>
      </trkpt>
      <trkpt lat="45.91539" lon="4.73733">
        <ele>174</ele>
        <time>2018-03-29T13:44:56Z</time>
      </trkpt>
      <trkpt lat="45.91533" lon="4.73732">
        <ele>174</ele>
        <time>2018-03-29T13:44:57Z</time>
      </trkpt>
      <trkpt lat="45.91528" lon="4.73732">
        <ele>174</ele>
        <time>2018-03-29T13:44:58Z</time>
      </trkpt>
      <trkpt lat="45.91522" lon="4.73733">
        <ele>174</ele>
        <time>2018-03-29T13:44:59Z</time>
      </trkpt>
      <trkpt lat="45.91516" lon="4.73734">
        <ele>174</ele>
        <time>2018-03-29T13:45:00Z</time>
      </trkpt>
      <trkpt lat="45.91509" lon="4.73733">
        <ele>174</ele>
        <time>2018-03-29T13:45:01Z</time>
      </trkpt>
      <trkpt lat="45.91503" lon="4.73733">
        <ele>174</ele>
        <time>2018-03-29T13:45:02Z</time>
      </trkpt>
      <trkpt lat="45.91497" lon="4.73733">
        <ele>174</ele>
        <time>2018-03-29T13:45:03Z</time>
      </trkpt>
      <trkpt lat="45.91492" lon="4.73733">
        <ele>174</ele>
        <time>2018-03-29T13:45:04Z</time>
      </trkpt>
      <trkpt lat="45.91486" lon="4.73734">
        <ele>174</ele>
        <time>2018-03-29T13:45:05Z</time>
      </trkpt>
      <trkpt lat="45.91481" lon="4.73734">
        <ele>174</ele>
        <time>2018-03-29T13:45:06Z</time>
      </trkpt>
      <trkpt lat="45.91475" lon="4.73735">
        <ele>174</ele>
        <time>2018-03-29T13:45:07Z</time>
      </trkpt>
      <trkpt lat="45.91469" lon="4.73735">
        <ele>174</ele>
        <time>2018-03-29T13:45:08Z</time>
      </trkpt>
      <trkpt lat="45.91464" lon="4.73734">
        <ele>174</ele>
        <time>2018-03-29T13:45:09Z</time>
      </trkpt>
      <trkpt lat="45.91458" lon="4.73735">
        <ele>174</ele>
        <time>2018-03-29T13:45:10Z</time>
      </trkpt>
      <trkpt lat="45.91452" lon="4.73734">
        <ele>173</ele>
        <time>2018-03-29T13:45:11Z</time>
      </trkpt>
      <trkpt lat="45.91445" lon="4.73734">
        <ele>173</ele>
        <time>2018-03-29T13:45:12Z</time>
      </trkpt>
      <trkpt lat="45.91439" lon="4.73735">
        <ele>173</ele>
        <time>2018-03-29T13:45:13Z</time>
      </trkpt>
      <trkpt lat="45.91433" lon="4.73735">
        <ele>173</ele>
        <time>2018-03-29T13:45:14Z</time>
      </trkpt>
      <trkpt lat="45.91427" lon="4.73735">
        <ele>173</ele>
        <time>2018-03-29T13:45:15Z</time>
      </trkpt>
      <trkpt lat="45.9142" lon="4.73735">
        <ele>173</ele>
        <time>2018-03-29T13:45:16Z</time>
      </trkpt>
      <trkpt lat="45.91414" lon="4.73735">
        <ele>173</ele>
        <time>2018-03-29T13:45:17Z</time>
      </trkpt>
      <trkpt lat="45.91408" lon="4.73735">
        <ele>173</ele>
        <time>2018-03-29T13:45:18Z</time>
      </trkpt>
      <trkpt lat="45.91402" lon="4.73735">
        <ele>173</ele>
        <time>2018-03-29T13:45:19Z</time>
      </trkpt>
      <trkpt lat="45.91396" lon="4.73735">
        <ele>173</ele>
        <time>2018-03-29T13:45:20Z</time>
      </trkpt>
      <trkpt lat="45.9139" lon="4.73735">
        <ele>173</ele>
        <time>2018-03-29T13:45:21Z</time>
      </trkpt>
      <trkpt lat="45.91384" lon="4.73736">
        <ele>173</ele>
        <time>2018-03-29T13:45:22Z</time>
      </trkpt>
      <trkpt lat="45.91378" lon="4.73736">
        <ele>173</ele>
        <time>2018-03-29T13:45:23Z</time>
      </trkpt>
      <trkpt lat="45.91372" lon="4.73736">
        <ele>173</ele>
        <time>2018-03-29T13:45:24Z</time>
      </trkpt>
      <trkpt lat="45.91367" lon="4.73736">
        <ele>173</ele>
        <time>2018-03-29T13:45:25Z</time>
      </trkpt>
      <trkpt lat="45.91361" lon="4.73736">
        <ele>173</ele>
        <time>2018-03-29T13:45:26Z</time>
      </trkpt>
      <trkpt lat="45.91355" lon="4.73737">
        <ele>173</ele>
        <time>2018-03-29T13:45:27Z</time>
      </trkpt>
      <trkpt lat="45.91348" lon="4.73737">
        <ele>173</ele>
        <time>2018-03-29T13:45:28Z</time>
      </trkpt>
      <trkpt lat="45.91342" lon="4.73737">
        <ele>173</ele>
        <time>2018-03-29T13:45:29Z</time>
      </trkpt>
      <trkpt lat="45.91336" lon="4.73736">
        <ele>173</ele>
        <time>2018-03-29T13:45:30Z</time>
      </trkpt>
      <trkpt lat="45.9133" lon="4.73737">
        <ele>173</ele>
        <time>2018-03-29T13:45:31Z</time>
      </trkpt>
      <trkpt lat="45.91324" lon="4.73737">
        <ele>174</ele>
        <time>2018-03-29T13:45:32Z</time>
      </trkpt>
      <trkpt lat="45.91318" lon="4.73737">
        <ele>174</ele>
        <time>2018-03-29T13:45:33Z</time>
      </trkpt>
      <trkpt lat="45.91313" lon="4.73737">
        <ele>174</ele>
        <time>2018-03-29T13:45:34Z</time>
      </trkpt>
      <trkpt lat="45.91307" lon="4.73736">
        <ele>174</ele>
        <time>2018-03-29T13:45:35Z</time>
      </trkpt>
      <trkpt lat="45.91301" lon="4.73736">
        <ele>174</ele>
        <time>2018-03-29T13:45:36Z</time>
      </trkpt>
      <trkpt lat="45.91295" lon="4.73736">
        <ele>174</ele>
        <time>2018-03-29T13:45:37Z</time>
      </trkpt>
      <trkpt lat="45.91288" lon="4.73737">
        <ele>174</ele>
        <time>2018-03-29T13:45:38Z</time>
      </trkpt>
      <trkpt lat="45.91282" lon="4.73737">
        <ele>174</ele>
        <time>2018-03-29T13:45:39Z</time>
      </trkpt>
      <trkpt lat="45.91276" lon="4.73736">
        <ele>174</ele>
        <time>2018-03-29T13:45:40Z</time>
      </trkpt>
      <trkpt lat="45.9127" lon="4.73736">
        <ele>174</ele>
        <time>2018-03-29T13:45:41Z</time>
      </trkpt>
      <trkpt lat="45.91263" lon="4.73736">
        <ele>174</ele>
        <time>2018-03-29T13:45:42Z</time>
      </trkpt>
      <trkpt lat="45.91257" lon="4.73737">
        <ele>175</ele>
        <time>2018-03-29T13:45:43Z</time>
      </trkpt>
      <trkpt lat="45.91251" lon="4.73737">
        <ele>175</ele>
        <time>2018-03-29T13:45:44Z</time>
      </trkpt>
      <trkpt lat="45.91245" lon="4.73738">
        <ele>175</ele>
        <time>2018-03-29T13:45:45Z</time>
      </trkpt>
      <trkpt lat="45.91238" lon="4.73737">
        <ele>175</ele>
        <time>2018-03-29T13:45:46Z</time>
      </trkpt>
      <trkpt lat="45.91231" lon="4.73737">
        <ele>175</ele>
        <time>2018-03-29T13:45:47Z</time>
      </trkpt>
      <trkpt lat="45.91225" lon="4.73738">
        <ele>175</ele>
        <time>2018-03-29T13:45:48Z</time>
      </trkpt>
      <trkpt lat="45.91219" lon="4.73738">
        <ele>175</ele>
        <time>2018-03-29T13:45:49Z</time>
      </trkpt>
      <trkpt lat="45.91211" lon="4.73738">
        <ele>175</ele>
        <time>2018-03-29T13:45:50Z</time>
      </trkpt>
      <trkpt lat="45.91205" lon="4.73738">
        <ele>175</ele>
        <time>2018-03-29T13:45:51Z</time>
      </trkpt>
      <trkpt lat="45.912" lon="4.73738">
        <ele>175</ele>
        <time>2018-03-29T13:45:52Z</time>
      </trkpt>
      <trkpt lat="45.91195" lon="4.73738">
        <ele>175</ele>
        <time>2018-03-29T13:45:53Z</time>
      </trkpt>
      <trkpt lat="45.91189" lon="4.73738">
        <ele>175</ele>
        <time>2018-03-29T13:45:54Z</time>
      </trkpt>
      <trkpt lat="45.91183" lon="4.73736">
        <ele>175</ele>
        <time>2018-03-29T13:45:55Z</time>
      </trkpt>
      <trkpt lat="45.91177" lon="4.73733">
        <ele>175</ele>
        <time>2018-03-29T13:45:56Z</time>
      </trkpt>
      <trkpt lat="45.91172" lon="4.73731">
        <ele>175</ele>
        <time>2018-03-29T13:45:57Z</time>
      </trkpt>
      <trkpt lat="45.91166" lon="4.73729">
        <ele>175</ele>
        <time>2018-03-29T13:45:58Z</time>
      </trkpt>
      <trkpt lat="45.9116" lon="4.73728">
        <ele>175</ele>
        <time>2018-03-29T13:45:59Z</time>
      </trkpt>
      <trkpt lat="45.91155" lon="4.73726">
        <ele>175</ele>
        <time>2018-03-29T13:46:00Z</time>
      </trkpt>
      <trkpt lat="45.91151" lon="4.73723">
        <ele>175</ele>
        <time>2018-03-29T13:46:01Z</time>
      </trkpt>
      <trkpt lat="45.91146" lon="4.73718">
        <ele>174</ele>
        <time>2018-03-29T13:46:02Z</time>
      </trkpt>
      <trkpt lat="45.91144" lon="4.73712">
        <ele>174</ele>
        <time>2018-03-29T13:46:03Z</time>
      </trkpt>
      <trkpt lat="45.9114" lon="4.73704">
        <ele>174</ele>
        <time>2018-03-29T13:46:04Z</time>
      </trkpt>
      <trkpt lat="45.91137" lon="4.73698">
        <ele>174</ele>
        <time>2018-03-29T13:46:05Z</time>
      </trkpt>
      <trkpt lat="45.91135" lon="4.73691">
        <ele>174</ele>
        <time>2018-03-29T13:46:06Z</time>
      </trkpt>
      <trkpt lat="45.91132" lon="4.73685">
        <ele>174</ele>
        <time>2018-03-29T13:46:07Z</time>
      </trkpt>
      <trkpt lat="45.91129" lon="4.73678">
        <ele>174</ele>
        <time>2018-03-29T13:46:08Z</time>
      </trkpt>
      <trkpt lat="45.91126" lon="4.73671">
        <ele>174</ele>
        <time>2018-03-29T13:46:09Z</time>
      </trkpt>
      <trkpt lat="45.91124" lon="4.73665">
        <ele>174</ele>
        <time>2018-03-29T13:46:10Z</time>
      </trkpt>
      <trkpt lat="45.9112" lon="4.73659">
        <ele>174</ele>
        <time>2018-03-29T13:46:11Z</time>
      </trkpt>
      <trkpt lat="45.91117" lon="4.73653">
        <ele>174</ele>
        <time>2018-03-29T13:46:12Z</time>
      </trkpt>
      <trkpt lat="45.91113" lon="4.73646">
        <ele>174</ele>
        <time>2018-03-29T13:46:13Z</time>
      </trkpt>
      <trkpt lat="45.9111" lon="4.7364">
        <ele>174</ele>
        <time>2018-03-29T13:46:14Z</time>
      </trkpt>
      <trkpt lat="45.91107" lon="4.73633">
        <ele>174</ele>
        <time>2018-03-29T13:46:15Z</time>
      </trkpt>
      <trkpt lat="45.91104" lon="4.73627">
        <ele>174</ele>
        <time>2018-03-29T13:46:16Z</time>
      </trkpt>
      <trkpt lat="45.91102" lon="4.73621">
        <ele>174</ele>
        <time>2018-03-29T13:46:17Z</time>
      </trkpt>
      <trkpt lat="45.91099" lon="4.73614">
        <ele>174</ele>
        <time>2018-03-29T13:46:18Z</time>
      </trkpt>
      <trkpt lat="45.91096" lon="4.73607">
        <ele>174</ele>
        <time>2018-03-29T13:46:19Z</time>
      </trkpt>
      <trkpt lat="45.91094" lon="4.736">
        <ele>174</ele>
        <time>2018-03-29T13:46:20Z</time>
      </trkpt>
      <trkpt lat="45.91091" lon="4.73594">
        <ele>174</ele>
        <time>2018-03-29T13:46:21Z</time>
      </trkpt>
      <trkpt lat="45.91088" lon="4.73587">
        <ele>174</ele>
        <time>2018-03-29T13:46:22Z</time>
      </trkpt>
      <trkpt lat="45.91085" lon="4.73581">
        <ele>174</ele>
        <time>2018-03-29T13:46:23Z</time>
      </trkpt>
      <trkpt lat="45.91082" lon="4.73574">
        <ele>174</ele>
        <time>2018-03-29T13:46:24Z</time>
      </trkpt>
      <trkpt lat="45.91079" lon="4.73568">
        <ele>174</ele>
        <time>2018-03-29T13:46:25Z</time>
      </trkpt>
      <trkpt lat="45.91076" lon="4.73561">
        <ele>174</ele>
        <time>2018-03-29T13:46:26Z</time>
      </trkpt>
      <trkpt lat="45.91074" lon="4.73554">
        <ele>174</ele>
        <time>2018-03-29T13:46:27Z</time>
      </trkpt>
      <trkpt lat="45.91071" lon="4.73548">
        <ele>174</ele>
        <time>2018-03-29T13:46:28Z</time>
      </trkpt>
      <trkpt lat="45.91067" lon="4.73541">
        <ele>175</ele>
        <time>2018-03-29T13:46:29Z</time>
      </trkpt>
      <trkpt lat="45.91064" lon="4.73535">
        <ele>175</ele>
        <time>2018-03-29T13:46:30Z</time>
      </trkpt>
      <trkpt lat="45.9106" lon="4.73528">
        <ele>175</ele>
        <time>2018-03-29T13:46:31Z</time>
      </trkpt>
      <trkpt lat="45.91056" lon="4.73522">
        <ele>175</ele>
        <time>2018-03-29T13:46:32Z</time>
      </trkpt>
      <trkpt lat="45.91054" lon="4.73515">
        <ele>175</ele>
        <time>2018-03-29T13:46:33Z</time>
      </trkpt>
      <trkpt lat="45.91052" lon="4.73508">
        <ele>175</ele>
        <time>2018-03-29T13:46:34Z</time>
      </trkpt>
      <trkpt lat="45.91049" lon="4.735">
        <ele>175</ele>
        <time>2018-03-29T13:46:35Z</time>
      </trkpt>
      <trkpt lat="45.91046" lon="4.73493">
        <ele>175</ele>
        <time>2018-03-29T13:46:36Z</time>
      </trkpt>
      <trkpt lat="45.91043" lon="4.73486">
        <ele>175</ele>
        <time>2018-03-29T13:46:37Z</time>
      </trkpt>
      <trkpt lat="45.91041" lon="4.7348">
        <ele>175</ele>
        <time>2018-03-29T13:46:38Z</time>
      </trkpt>
      <trkpt lat="45.91038" lon="4.73473">
        <ele>175</ele>
        <time>2018-03-29T13:46:39Z</time>
      </trkpt>
      <trkpt lat="45.91036" lon="4.73468">
        <ele>175</ele>
        <time>2018-03-29T13:46:40Z</time>
      </trkpt>
      <trkpt lat="45.91034" lon="4.73461">
        <ele>175</ele>
        <time>2018-03-29T13:46:41Z</time>
      </trkpt>
      <trkpt lat="45.91032" lon="4.73454">
        <ele>175</ele>
        <time>2018-03-29T13:46:42Z</time>
      </trkpt>
      <trkpt lat="45.91032" lon="4.73447">
        <ele>175</ele>
        <time>2018-03-29T13:46:43Z</time>
      </trkpt>
      <trkpt lat="45.91032" lon="4.73441">
        <ele>175</ele>
        <time>2018-03-29T13:46:44Z</time>
      </trkpt>
      <trkpt lat="45.91031" lon="4.73435">
        <ele>175</ele>
        <time>2018-03-29T13:46:45Z</time>
      </trkpt>
      <trkpt lat="45.9103" lon="4.73428">
        <ele>175</ele>
        <time>2018-03-29T13:46:46Z</time>
      </trkpt>
      <trkpt lat="45.91029" lon="4.73421">
        <ele>175</ele>
        <time>2018-03-29T13:46:47Z</time>
      </trkpt>
      <trkpt lat="45.91026" lon="4.73415">
        <ele>174</ele>
        <time>2018-03-29T13:46:48Z</time>
      </trkpt>
      <trkpt lat="45.91022" lon="4.73411">
        <ele>174</ele>
        <time>2018-03-29T13:46:49Z</time>
      </trkpt>
      <trkpt lat="45.91016" lon="4.73412">
        <ele>175</ele>
        <time>2018-03-29T13:46:50Z</time>
      </trkpt>
      <trkpt lat="45.91011" lon="4.73415">
        <ele>175</ele>
        <time>2018-03-29T13:46:51Z</time>
      </trkpt>
      <trkpt lat="45.91007" lon="4.73419">
        <ele>175</ele>
        <time>2018-03-29T13:46:52Z</time>
      </trkpt>
      <trkpt lat="45.91003" lon="4.73425">
        <ele>175</ele>
        <time>2018-03-29T13:46:53Z</time>
      </trkpt>
      <trkpt lat="45.91" lon="4.7343">
        <ele>175</ele>
        <time>2018-03-29T13:46:54Z</time>
      </trkpt>
      <trkpt lat="45.90996" lon="4.73435">
        <ele>175</ele>
        <time>2018-03-29T13:46:55Z</time>
      </trkpt>
      <trkpt lat="45.9099" lon="4.73439">
        <ele>175</ele>
        <time>2018-03-29T13:46:56Z</time>
      </trkpt>
      <trkpt lat="45.90985" lon="4.73442">
        <ele>175</ele>
        <time>2018-03-29T13:46:57Z</time>
      </trkpt>
      <trkpt lat="45.90979" lon="4.73445">
        <ele>175</ele>
        <time>2018-03-29T13:46:58Z</time>
      </trkpt>
      <trkpt lat="45.90974" lon="4.73448">
        <ele>175</ele>
        <time>2018-03-29T13:46:59Z</time>
      </trkpt>
      <trkpt lat="45.90968" lon="4.73451">
        <ele>175</ele>
        <time>2018-03-29T13:47:00Z</time>
      </trkpt>
      <trkpt lat="45.90963" lon="4.73453">
        <ele>175</ele>
        <time>2018-03-29T13:47:01Z</time>
      </trkpt>
      <trkpt lat="45.90958" lon="4.73455">
        <ele>175</ele>
        <time>2018-03-29T13:47:02Z</time>
      </trkpt>
      <trkpt lat="45.90953" lon="4.73457">
        <ele>175</ele>
        <time>2018-03-29T13:47:03Z</time>
      </trkpt>
      <trkpt lat="45.90947" lon="4.73459">
        <ele>175</ele>
        <time>2018-03-29T13:47:04Z</time>
      </trkpt>
      <trkpt lat="45.90941" lon="4.73462">
        <ele>175</ele>
        <time>2018-03-29T13:47:05Z</time>
      </trkpt>
      <trkpt lat="45.90937" lon="4.73464">
        <ele>175</ele>
        <time>2018-03-29T13:47:06Z</time>
      </trkpt>
      <trkpt lat="45.90931" lon="4.73467">
        <ele>175</ele>
        <time>2018-03-29T13:47:07Z</time>
      </trkpt>
      <trkpt lat="45.90925" lon="4.73469">
        <ele>175</ele>
        <time>2018-03-29T13:47:08Z</time>
      </trkpt>
      <trkpt lat="45.90919" lon="4.73471">
        <ele>175</ele>
        <time>2018-03-29T13:47:09Z</time>
      </trkpt>
      <trkpt lat="45.90913" lon="4.73474">
        <ele>175</ele>
        <time>2018-03-29T13:47:10Z</time>
      </trkpt>
      <trkpt lat="45.90908" lon="4.73476">
        <ele>175</ele>
        <time>2018-03-29T13:47:11Z</time>
      </trkpt>
      <trkpt lat="45.90903" lon="4.73478">
        <ele>175</ele>
        <time>2018-03-29T13:47:12Z</time>
      </trkpt>
      <trkpt lat="45.90898" lon="4.7348">
        <ele>175</ele>
        <time>2018-03-29T13:47:13Z</time>
      </trkpt>
      <trkpt lat="45.90892" lon="4.73482">
        <ele>175</ele>
        <time>2018-03-29T13:47:14Z</time>
      </trkpt>
      <trkpt lat="45.90887" lon="4.73484">
        <ele>175</ele>
        <time>2018-03-29T13:47:15Z</time>
      </trkpt>
      <trkpt lat="45.90881" lon="4.73485">
        <ele>175</ele>
        <time>2018-03-29T13:47:16Z</time>
      </trkpt>
      <trkpt lat="45.90876" lon="4.73488">
        <ele>175</ele>
        <time>2018-03-29T13:47:17Z</time>
      </trkpt>
      <trkpt lat="45.9087" lon="4.73491">
        <ele>175</ele>
        <time>2018-03-29T13:47:18Z</time>
      </trkpt>
      <trkpt lat="45.90864" lon="4.73493">
        <ele>175</ele>
        <time>2018-03-29T13:47:19Z</time>
      </trkpt>
      <trkpt lat="45.90859" lon="4.73496">
        <ele>175</ele>
        <time>2018-03-29T13:47:20Z</time>
      </trkpt>
      <trkpt lat="45.90853" lon="4.73498">
        <ele>174</ele>
        <time>2018-03-29T13:47:21Z</time>
      </trkpt>
      <trkpt lat="45.90847" lon="4.73501">
        <ele>174</ele>
        <time>2018-03-29T13:47:22Z</time>
      </trkpt>
      <trkpt lat="45.90842" lon="4.73503">
        <ele>174</ele>
        <time>2018-03-29T13:47:23Z</time>
      </trkpt>
      <trkpt lat="45.90836" lon="4.73505">
        <ele>174</ele>
        <time>2018-03-29T13:47:24Z</time>
      </trkpt>
      <trkpt lat="45.9083" lon="4.73507">
        <ele>174</ele>
        <time>2018-03-29T13:47:25Z</time>
      </trkpt>
      <trkpt lat="45.90825" lon="4.73509">
        <ele>175</ele>
        <time>2018-03-29T13:47:26Z</time>
      </trkpt>
      <trkpt lat="45.90818" lon="4.73511">
        <ele>175</ele>
        <time>2018-03-29T13:47:27Z</time>
      </trkpt>
      <trkpt lat="45.90813" lon="4.73513">
        <ele>175</ele>
        <time>2018-03-29T13:47:28Z</time>
      </trkpt>
      <trkpt lat="45.90807" lon="4.73516">
        <ele>175</ele>
        <time>2018-03-29T13:47:29Z</time>
      </trkpt>
      <trkpt lat="45.90801" lon="4.73519">
        <ele>175</ele>
        <time>2018-03-29T13:47:30Z</time>
      </trkpt>
      <trkpt lat="45.90795" lon="4.73522">
        <ele>175</ele>
        <time>2018-03-29T13:47:31Z</time>
      </trkpt>
      <trkpt lat="45.9079" lon="4.73525">
        <ele>176</ele>
        <time>2018-03-29T13:47:32Z</time>
      </trkpt>
      <trkpt lat="45.90784" lon="4.73527">
        <ele>176</ele>
        <time>2018-03-29T13:47:33Z</time>
      </trkpt>
      <trkpt lat="45.90779" lon="4.7353">
        <ele>176</ele>
        <time>2018-03-29T13:47:34Z</time>
      </trkpt>
      <trkpt lat="45.90774" lon="4.73532">
        <ele>176</ele>
        <time>2018-03-29T13:47:35Z</time>
      </trkpt>
      <trkpt lat="45.90768" lon="4.73534">
        <ele>176</ele>
        <time>2018-03-29T13:47:36Z</time>
      </trkpt>
      <trkpt lat="45.90763" lon="4.73537">
        <ele>176</ele>
        <time>2018-03-29T13:47:37Z</time>
      </trkpt>
      <trkpt lat="45.90757" lon="4.7354">
        <ele>176</ele>
        <time>2018-03-29T13:47:38Z</time>
      </trkpt>
      <trkpt lat="45.90752" lon="4.73543">
        <ele>176</ele>
        <time>2018-03-29T13:47:39Z</time>
      </trkpt>
      <trkpt lat="45.90748" lon="4.73545">
        <ele>177</ele>
        <time>2018-03-29T13:47:40Z</time>
      </trkpt>
      <trkpt lat="45.90743" lon="4.73547">
        <ele>178</ele>
        <time>2018-03-29T13:47:41Z</time>
      </trkpt>
      <trkpt lat="45.90738" lon="4.73549">
        <ele>178</ele>
        <time>2018-03-29T13:47:42Z</time>
      </trkpt>
      <trkpt lat="45.90733" lon="4.73551">
        <ele>178</ele>
        <time>2018-03-29T13:47:43Z</time>
      </trkpt>
      <trkpt lat="45.90729" lon="4.73554">
        <ele>178</ele>
        <time>2018-03-29T13:47:44Z</time>
      </trkpt>
      <trkpt lat="45.90724" lon="4.73556">
        <ele>178</ele>
        <time>2018-03-29T13:47:45Z</time>
      </trkpt>
      <trkpt lat="45.90719" lon="4.73557">
        <ele>178</ele>
        <time>2018-03-29T13:47:46Z</time>
      </trkpt>
      <trkpt lat="45.90711" lon="4.73559">
        <ele>178</ele>
        <time>2018-03-29T13:47:48Z</time>
      </trkpt>
      <trkpt lat="45.90706" lon="4.73562">
        <ele>178</ele>
        <time>2018-03-29T13:47:49Z</time>
      </trkpt>
      <trkpt lat="45.90701" lon="4.73564">
        <ele>178</ele>
        <time>2018-03-29T13:47:50Z</time>
      </trkpt>
      <trkpt lat="45.90697" lon="4.73565">
        <ele>178</ele>
        <time>2018-03-29T13:47:51Z</time>
      </trkpt>
      <trkpt lat="45.90693" lon="4.73567">
        <ele>178</ele>
        <time>2018-03-29T13:47:52Z</time>
      </trkpt>
      <trkpt lat="45.90687" lon="4.7357">
        <ele>178</ele>
        <time>2018-03-29T13:47:53Z</time>
      </trkpt>
      <trkpt lat="45.90679" lon="4.73573">
        <ele>179</ele>
        <time>2018-03-29T13:47:55Z</time>
      </trkpt>
      <trkpt lat="45.90676" lon="4.73575">
        <ele>179</ele>
        <time>2018-03-29T13:47:56Z</time>
      </trkpt>
      <trkpt lat="45.90671" lon="4.73576">
        <ele>179</ele>
        <time>2018-03-29T13:47:57Z</time>
      </trkpt>
      <trkpt lat="45.90666" lon="4.73578">
        <ele>179</ele>
        <time>2018-03-29T13:47:58Z</time>
      </trkpt>
      <trkpt lat="45.90658" lon="4.73582">
        <ele>179</ele>
        <time>2018-03-29T13:48:00Z</time>
      </trkpt>
      <trkpt lat="45.90654" lon="4.73583">
        <ele>179</ele>
        <time>2018-03-29T13:48:01Z</time>
      </trkpt>
      <trkpt lat="45.90646" lon="4.73586">
        <ele>181</ele>
        <time>2018-03-29T13:48:03Z</time>
      </trkpt>
      <trkpt lat="45.90642" lon="4.73588">
        <ele>181</ele>
        <time>2018-03-29T13:48:04Z</time>
      </trkpt>
      <trkpt lat="45.90633" lon="4.73592">
        <ele>181</ele>
        <time>2018-03-29T13:48:06Z</time>
      </trkpt>
      <trkpt lat="45.90629" lon="4.73594">
        <ele>181</ele>
        <time>2018-03-29T13:48:07Z</time>
      </trkpt>
      <trkpt lat="45.90622" lon="4.73597">
        <ele>181</ele>
        <time>2018-03-29T13:48:09Z</time>
      </trkpt>
      <trkpt lat="45.90618" lon="4.73599">
        <ele>180</ele>
        <time>2018-03-29T13:48:10Z</time>
      </trkpt>
      <trkpt lat="45.9061" lon="4.73602">
        <ele>180</ele>
        <time>2018-03-29T13:48:12Z</time>
      </trkpt>
      <trkpt lat="45.90606" lon="4.73603">
        <ele>180</ele>
        <time>2018-03-29T13:48:13Z</time>
      </trkpt>
      <trkpt lat="45.90599" lon="4.73606">
        <ele>180</ele>
        <time>2018-03-29T13:48:15Z</time>
      </trkpt>
      <trkpt lat="45.90595" lon="4.73608">
        <ele>180</ele>
        <time>2018-03-29T13:48:16Z</time>
      </trkpt>
      <trkpt lat="45.90588" lon="4.73611">
        <ele>180</ele>
        <time>2018-03-29T13:48:18Z</time>
      </trkpt>
      <trkpt lat="45.90584" lon="4.73613">
        <ele>180</ele>
        <time>2018-03-29T13:48:19Z</time>
      </trkpt>
      <trkpt lat="45.90577" lon="4.73616">
        <ele>179</ele>
        <time>2018-03-29T13:48:21Z</time>
      </trkpt>
      <trkpt lat="45.90573" lon="4.73618">
        <ele>179</ele>
        <time>2018-03-29T13:48:22Z</time>
      </trkpt>
      <trkpt lat="45.90564" lon="4.73621">
        <ele>178</ele>
        <time>2018-03-29T13:48:24Z</time>
      </trkpt>
      <trkpt lat="45.9056" lon="4.73623">
        <ele>178</ele>
        <time>2018-03-29T13:48:25Z</time>
      </trkpt>
      <trkpt lat="45.90552" lon="4.73626">
        <ele>178</ele>
        <time>2018-03-29T13:48:27Z</time>
      </trkpt>
      <trkpt lat="45.90548" lon="4.73628">
        <ele>178</ele>
        <time>2018-03-29T13:48:28Z</time>
      </trkpt>
      <trkpt lat="45.9054" lon="4.73631">
        <ele>178</ele>
        <time>2018-03-29T13:48:30Z</time>
      </trkpt>
      <trkpt lat="45.90536" lon="4.73633">
        <ele>178</ele>
        <time>2018-03-29T13:48:31Z</time>
      </trkpt>
      <trkpt lat="45.90528" lon="4.73636">
        <ele>178</ele>
        <time>2018-03-29T13:48:33Z</time>
      </trkpt>
      <trkpt lat="45.90524" lon="4.73638">
        <ele>178</ele>
        <time>2018-03-29T13:48:34Z</time>
      </trkpt>
      <trkpt lat="45.90519" lon="4.7364">
        <ele>178</ele>
        <time>2018-03-29T13:48:35Z</time>
      </trkpt>
      <trkpt lat="45.90514" lon="4.73642">
        <ele>178</ele>
        <time>2018-03-29T13:48:36Z</time>
      </trkpt>
      <trkpt lat="45.90509" lon="4.73644">
        <ele>178</ele>
        <time>2018-03-29T13:48:37Z</time>
      </trkpt>
      <trkpt lat="45.90504" lon="4.73645">
        <ele>178</ele>
        <time>2018-03-29T13:48:38Z</time>
      </trkpt>
      <trkpt lat="45.90499" lon="4.73647">
        <ele>177</ele>
        <time>2018-03-29T13:48:39Z</time>
      </trkpt>
      <trkpt lat="45.90495" lon="4.73649">
        <ele>177</ele>
        <time>2018-03-29T13:48:40Z</time>
      </trkpt>
      <trkpt lat="45.90491" lon="4.73651">
        <ele>177</ele>
        <time>2018-03-29T13:48:41Z</time>
      </trkpt>
      <trkpt lat="45.90486" lon="4.73653">
        <ele>177</ele>
        <time>2018-03-29T13:48:42Z</time>
      </trkpt>
      <trkpt lat="45.90482" lon="4.73655">
        <ele>177</ele>
        <time>2018-03-29T13:48:43Z</time>
      </trkpt>
      <trkpt lat="45.90477" lon="4.73658">
        <ele>177</ele>
        <time>2018-03-29T13:48:44Z</time>
      </trkpt>
      <trkpt lat="45.90472" lon="4.73659">
        <ele>177</ele>
        <time>2018-03-29T13:48:45Z</time>
      </trkpt>
      <trkpt lat="45.90467" lon="4.73662">
        <ele>177</ele>
        <time>2018-03-29T13:48:46Z</time>
      </trkpt>
      <trkpt lat="45.90461" lon="4.73664">
        <ele>177</ele>
        <time>2018-03-29T13:48:47Z</time>
      </trkpt>
      <trkpt lat="45.90455" lon="4.73667">
        <ele>176</ele>
        <time>2018-03-29T13:48:48Z</time>
      </trkpt>
      <trkpt lat="45.90449" lon="4.73671">
        <ele>176</ele>
        <time>2018-03-29T13:48:49Z</time>
      </trkpt>
      <trkpt lat="45.90443" lon="4.73673">
        <ele>176</ele>
        <time>2018-03-29T13:48:50Z</time>
      </trkpt>
      <trkpt lat="45.90437" lon="4.73675">
        <ele>176</ele>
        <time>2018-03-29T13:48:51Z</time>
      </trkpt>
      <trkpt lat="45.9043" lon="4.73678">
        <ele>177</ele>
        <time>2018-03-29T13:48:52Z</time>
      </trkpt>
      <trkpt lat="45.90424" lon="4.73681">
        <ele>177</ele>
        <time>2018-03-29T13:48:53Z</time>
      </trkpt>
      <trkpt lat="45.90417" lon="4.73684">
        <ele>177</ele>
        <time>2018-03-29T13:48:54Z</time>
      </trkpt>
      <trkpt lat="45.90411" lon="4.73686">
        <ele>177</ele>
        <time>2018-03-29T13:48:55Z</time>
      </trkpt>
      <trkpt lat="45.90404" lon="4.73688">
        <ele>177</ele>
        <time>2018-03-29T13:48:56Z</time>
      </trkpt>
      <trkpt lat="45.90397" lon="4.73691">
        <ele>177</ele>
        <time>2018-03-29T13:48:57Z</time>
      </trkpt>
      <trkpt lat="45.90391" lon="4.73693">
        <ele>177</ele>
        <time>2018-03-29T13:48:58Z</time>
      </trkpt>
      <trkpt lat="45.90385" lon="4.73696">
        <ele>177</ele>
        <time>2018-03-29T13:48:59Z</time>
      </trkpt>
      <trkpt lat="45.90378" lon="4.73699">
        <ele>177</ele>
        <time>2018-03-29T13:49:00Z</time>
      </trkpt>
      <trkpt lat="45.90371" lon="4.73702">
        <ele>177</ele>
        <time>2018-03-29T13:49:01Z</time>
      </trkpt>
      <trkpt lat="45.90363" lon="4.73705">
        <ele>177</ele>
        <time>2018-03-29T13:49:02Z</time>
      </trkpt>
      <trkpt lat="45.90356" lon="4.73708">
        <ele>177</ele>
        <time>2018-03-29T13:49:03Z</time>
      </trkpt>
      <trkpt lat="45.90349" lon="4.73711">
        <ele>177</ele>
        <time>2018-03-29T13:49:04Z</time>
      </trkpt>
      <trkpt lat="45.90342" lon="4.73714">
        <ele>177</ele>
        <time>2018-03-29T13:49:05Z</time>
      </trkpt>
      <trkpt lat="45.90334" lon="4.73717">
        <ele>177</ele>
        <time>2018-03-29T13:49:06Z</time>
      </trkpt>
      <trkpt lat="45.90327" lon="4.7372">
        <ele>177</ele>
        <time>2018-03-29T13:49:07Z</time>
      </trkpt>
      <trkpt lat="45.9032" lon="4.73723">
        <ele>177</ele>
        <time>2018-03-29T13:49:08Z</time>
      </trkpt>
      <trkpt lat="45.90312" lon="4.73726">
        <ele>177</ele>
        <time>2018-03-29T13:49:09Z</time>
      </trkpt>
      <trkpt lat="45.90305" lon="4.73729">
        <ele>177</ele>
        <time>2018-03-29T13:49:10Z</time>
      </trkpt>
      <trkpt lat="45.90298" lon="4.73732">
        <ele>177</ele>
        <time>2018-03-29T13:49:11Z</time>
      </trkpt>
      <trkpt lat="45.90291" lon="4.73735">
        <ele>177</ele>
        <time>2018-03-29T13:49:12Z</time>
      </trkpt>
      <trkpt lat="45.90284" lon="4.73739">
        <ele>177</ele>
        <time>2018-03-29T13:49:13Z</time>
      </trkpt>
      <trkpt lat="45.90277" lon="4.73743">
        <ele>177</ele>
        <time>2018-03-29T13:49:14Z</time>
      </trkpt>
      <trkpt lat="45.90271" lon="4.73746">
        <ele>177</ele>
        <time>2018-03-29T13:49:15Z</time>
      </trkpt>
      <trkpt lat="45.90264" lon="4.73748">
        <ele>178</ele>
        <time>2018-03-29T13:49:16Z</time>
      </trkpt>
      <trkpt lat="45.90257" lon="4.73751">
        <ele>178</ele>
        <time>2018-03-29T13:49:17Z</time>
      </trkpt>
      <trkpt lat="45.9025" lon="4.73754">
        <ele>178</ele>
        <time>2018-03-29T13:49:18Z</time>
      </trkpt>
      <trkpt lat="45.90244" lon="4.73756">
        <ele>178</ele>
        <time>2018-03-29T13:49:19Z</time>
      </trkpt>
      <trkpt lat="45.90238" lon="4.73759">
        <ele>178</ele>
        <time>2018-03-29T13:49:20Z</time>
      </trkpt>
      <trkpt lat="45.90232" lon="4.73762">
        <ele>177</ele>
        <time>2018-03-29T13:49:21Z</time>
      </trkpt>
      <trkpt lat="45.90226" lon="4.73764">
        <ele>177</ele>
        <time>2018-03-29T13:49:22Z</time>
      </trkpt>
      <trkpt lat="45.90221" lon="4.73767">
        <ele>177</ele>
        <time>2018-03-29T13:49:23Z</time>
      </trkpt>
      <trkpt lat="45.90215" lon="4.7377">
        <ele>177</ele>
        <time>2018-03-29T13:49:24Z</time>
      </trkpt>
      <trkpt lat="45.90209" lon="4.73772">
        <ele>177</ele>
        <time>2018-03-29T13:49:25Z</time>
      </trkpt>
      <trkpt lat="45.90203" lon="4.73774">
        <ele>177</ele>
        <time>2018-03-29T13:49:26Z</time>
      </trkpt>
      <trkpt lat="45.90196" lon="4.73777">
        <ele>177</ele>
        <time>2018-03-29T13:49:27Z</time>
      </trkpt>
      <trkpt lat="45.9019" lon="4.7378">
        <ele>177</ele>
        <time>2018-03-29T13:49:28Z</time>
      </trkpt>
      <trkpt lat="45.90184" lon="4.73783">
        <ele>177</ele>
        <time>2018-03-29T13:49:29Z</time>
      </trkpt>
      <trkpt lat="45.90178" lon="4.73785">
        <ele>177</ele>
        <time>2018-03-29T13:49:30Z</time>
      </trkpt>
      <trkpt lat="45.90172" lon="4.73787">
        <ele>177</ele>
        <time>2018-03-29T13:49:31Z</time>
      </trkpt>
      <trkpt lat="45.90165" lon="4.7379">
        <ele>176</ele>
        <time>2018-03-29T13:49:32Z</time>
      </trkpt>
      <trkpt lat="45.9016" lon="4.73793">
        <ele>176</ele>
        <time>2018-03-29T13:49:33Z</time>
      </trkpt>
      <trkpt lat="45.90153" lon="4.73795">
        <ele>177</ele>
        <time>2018-03-29T13:49:34Z</time>
      </trkpt>
      <trkpt lat="45.90147" lon="4.73797">
        <ele>177</ele>
        <time>2018-03-29T13:49:35Z</time>
      </trkpt>
      <trkpt lat="45.90141" lon="4.738">
        <ele>177</ele>
        <time>2018-03-29T13:49:36Z</time>
      </trkpt>
      <trkpt lat="45.90135" lon="4.73803">
        <ele>177</ele>
        <time>2018-03-29T13:49:37Z</time>
      </trkpt>
      <trkpt lat="45.90129" lon="4.73807">
        <ele>177</ele>
        <time>2018-03-29T13:49:38Z</time>
      </trkpt>
      <trkpt lat="45.90124" lon="4.7381">
        <ele>177</ele>
        <time>2018-03-29T13:49:39Z</time>
      </trkpt>
      <trkpt lat="45.90118" lon="4.73813">
        <ele>177</ele>
        <time>2018-03-29T13:49:40Z</time>
      </trkpt>
      <trkpt lat="45.90112" lon="4.73816">
        <ele>177</ele>
        <time>2018-03-29T13:49:41Z</time>
      </trkpt>
      <trkpt lat="45.90106" lon="4.73819">
        <ele>177</ele>
        <time>2018-03-29T13:49:42Z</time>
      </trkpt>
      <trkpt lat="45.901" lon="4.73821">
        <ele>177</ele>
        <time>2018-03-29T13:49:43Z</time>
      </trkpt>
      <trkpt lat="45.90094" lon="4.73824">
        <ele>177</ele>
        <time>2018-03-29T13:49:44Z</time>
      </trkpt>
      <trkpt lat="45.90088" lon="4.73827">
        <ele>178</ele>
        <time>2018-03-29T13:49:45Z</time>
      </trkpt>
      <trkpt lat="45.90082" lon="4.73829">
        <ele>178</ele>
        <time>2018-03-29T13:49:46Z</time>
      </trkpt>
      <trkpt lat="45.90076" lon="4.73831">
        <ele>178</ele>
        <time>2018-03-29T13:49:47Z</time>
      </trkpt>
      <trkpt lat="45.9007" lon="4.73835">
        <ele>178</ele>
        <time>2018-03-29T13:49:48Z</time>
      </trkpt>
      <trkpt lat="45.90064" lon="4.73837">
        <ele>178</ele>
        <time>2018-03-29T13:49:49Z</time>
      </trkpt>
      <trkpt lat="45.90058" lon="4.73838">
        <ele>178</ele>
        <time>2018-03-29T13:49:50Z</time>
      </trkpt>
      <trkpt lat="45.90052" lon="4.7384">
        <ele>178</ele>
        <time>2018-03-29T13:49:51Z</time>
      </trkpt>
      <trkpt lat="45.90046" lon="4.73842">
        <ele>178</ele>
        <time>2018-03-29T13:49:52Z</time>
      </trkpt>
      <trkpt lat="45.9004" lon="4.73844">
        <ele>178</ele>
        <time>2018-03-29T13:49:53Z</time>
      </trkpt>
      <trkpt lat="45.90035" lon="4.73846">
        <ele>178</ele>
        <time>2018-03-29T13:49:54Z</time>
      </trkpt>
      <trkpt lat="45.90029" lon="4.7385">
        <ele>178</ele>
        <time>2018-03-29T13:49:55Z</time>
      </trkpt>
      <trkpt lat="45.90024" lon="4.73853">
        <ele>178</ele>
        <time>2018-03-29T13:49:56Z</time>
      </trkpt>
      <trkpt lat="45.90018" lon="4.73855">
        <ele>178</ele>
        <time>2018-03-29T13:49:57Z</time>
      </trkpt>
      <trkpt lat="45.90012" lon="4.73857">
        <ele>178</ele>
        <time>2018-03-29T13:49:58Z</time>
      </trkpt>
      <trkpt lat="45.90006" lon="4.73858">
        <ele>178</ele>
        <time>2018-03-29T13:49:59Z</time>
      </trkpt>
      <trkpt lat="45.89999" lon="4.7386">
        <ele>178</ele>
        <time>2018-03-29T13:50:00Z</time>
      </trkpt>
      <trkpt lat="45.89993" lon="4.73863">
        <ele>178</ele>
        <time>2018-03-29T13:50:01Z</time>
      </trkpt>
      <trkpt lat="45.89987" lon="4.73865">
        <ele>178</ele>
        <time>2018-03-29T13:50:02Z</time>
      </trkpt>
      <trkpt lat="45.89982" lon="4.73868">
        <ele>178</ele>
        <time>2018-03-29T13:50:03Z</time>
      </trkpt>
      <trkpt lat="45.89976" lon="4.7387">
        <ele>178</ele>
        <time>2018-03-29T13:50:04Z</time>
      </trkpt>
      <trkpt lat="45.8997" lon="4.73872">
        <ele>178</ele>
        <time>2018-03-29T13:50:05Z</time>
      </trkpt>
      <trkpt lat="45.89963" lon="4.73874">
        <ele>178</ele>
        <time>2018-03-29T13:50:06Z</time>
      </trkpt>
      <trkpt lat="45.89957" lon="4.73877">
        <ele>178</ele>
        <time>2018-03-29T13:50:07Z</time>
      </trkpt>
      <trkpt lat="45.89951" lon="4.7388">
        <ele>178</ele>
        <time>2018-03-29T13:50:08Z</time>
      </trkpt>
      <trkpt lat="45.89946" lon="4.73882">
        <ele>178</ele>
        <time>2018-03-29T13:50:09Z</time>
      </trkpt>
      <trkpt lat="45.8994" lon="4.73885">
        <ele>178</ele>
        <time>2018-03-29T13:50:10Z</time>
      </trkpt>
      <trkpt lat="45.89934" lon="4.73888">
        <ele>178</ele>
        <time>2018-03-29T13:50:11Z</time>
      </trkpt>
      <trkpt lat="45.89927" lon="4.73891">
        <ele>178</ele>
        <time>2018-03-29T13:50:12Z</time>
      </trkpt>
      <trkpt lat="45.89921" lon="4.73893">
        <ele>178</ele>
        <time>2018-03-29T13:50:13Z</time>
      </trkpt>
      <trkpt lat="45.89914" lon="4.73896">
        <ele>178</ele>
        <time>2018-03-29T13:50:14Z</time>
      </trkpt>
      <trkpt lat="45.89908" lon="4.73899">
        <ele>178</ele>
        <time>2018-03-29T13:50:15Z</time>
      </trkpt>
      <trkpt lat="45.89902" lon="4.73902">
        <ele>178</ele>
        <time>2018-03-29T13:50:16Z</time>
      </trkpt>
      <trkpt lat="45.89897" lon="4.73904">
        <ele>178</ele>
        <time>2018-03-29T13:50:17Z</time>
      </trkpt>
      <trkpt lat="45.89891" lon="4.73906">
        <ele>179</ele>
        <time>2018-03-29T13:50:18Z</time>
      </trkpt>
      <trkpt lat="45.89885" lon="4.73909">
        <ele>179</ele>
        <time>2018-03-29T13:50:19Z</time>
      </trkpt>
      <trkpt lat="45.89881" lon="4.73911">
        <ele>179</ele>
        <time>2018-03-29T13:50:20Z</time>
      </trkpt>
      <trkpt lat="45.89874" lon="4.73913">
        <ele>179</ele>
        <time>2018-03-29T13:50:21Z</time>
      </trkpt>
      <trkpt lat="45.89869" lon="4.73915">
        <ele>179</ele>
        <time>2018-03-29T13:50:22Z</time>
      </trkpt>
      <trkpt lat="45.89864" lon="4.73917">
        <ele>179</ele>
        <time>2018-03-29T13:50:23Z</time>
      </trkpt>
      <trkpt lat="45.89858" lon="4.73919">
        <ele>179</ele>
        <time>2018-03-29T13:50:24Z</time>
      </trkpt>
      <trkpt lat="45.89852" lon="4.73921">
        <ele>179</ele>
        <time>2018-03-29T13:50:25Z</time>
      </trkpt>
      <trkpt lat="45.89847" lon="4.73924">
        <ele>179</ele>
        <time>2018-03-29T13:50:26Z</time>
      </trkpt>
      <trkpt lat="45.89842" lon="4.73927">
        <ele>179</ele>
        <time>2018-03-29T13:50:27Z</time>
      </trkpt>
      <trkpt lat="45.89837" lon="4.7393">
        <ele>179</ele>
        <time>2018-03-29T13:50:28Z</time>
      </trkpt>
      <trkpt lat="45.89832" lon="4.73932">
        <ele>179</ele>
        <time>2018-03-29T13:50:29Z</time>
      </trkpt>
      <trkpt lat="45.89827" lon="4.73933">
        <ele>179</ele>
        <time>2018-03-29T13:50:30Z</time>
      </trkpt>
      <trkpt lat="45.89821" lon="4.73935">
        <ele>179</ele>
        <time>2018-03-29T13:50:31Z</time>
      </trkpt>
      <trkpt lat="45.89816" lon="4.73938">
        <ele>179</ele>
        <time>2018-03-29T13:50:32Z</time>
      </trkpt>
      <trkpt lat="45.8981" lon="4.73941">
        <ele>179</ele>
        <time>2018-03-29T13:50:33Z</time>
      </trkpt>
      <trkpt lat="45.89805" lon="4.73943">
        <ele>179</ele>
        <time>2018-03-29T13:50:34Z</time>
      </trkpt>
      <trkpt lat="45.89799" lon="4.73945">
        <ele>179</ele>
        <time>2018-03-29T13:50:35Z</time>
      </trkpt>
      <trkpt lat="45.89795" lon="4.73948">
        <ele>179</ele>
        <time>2018-03-29T13:50:36Z</time>
      </trkpt>
      <trkpt lat="45.89788" lon="4.7395">
        <ele>179</ele>
        <time>2018-03-29T13:50:37Z</time>
      </trkpt>
      <trkpt lat="45.89783" lon="4.73952">
        <ele>179</ele>
        <time>2018-03-29T13:50:38Z</time>
      </trkpt>
      <trkpt lat="45.89777" lon="4.73953">
        <ele>179</ele>
        <time>2018-03-29T13:50:39Z</time>
      </trkpt>
      <trkpt lat="45.89773" lon="4.73955">
        <ele>179</ele>
        <time>2018-03-29T13:50:40Z</time>
      </trkpt>
      <trkpt lat="45.89768" lon="4.73956">
        <ele>179</ele>
        <time>2018-03-29T13:50:41Z</time>
      </trkpt>
      <trkpt lat="45.89763" lon="4.73957">
        <ele>179</ele>
        <time>2018-03-29T13:50:42Z</time>
      </trkpt>
      <trkpt lat="45.89757" lon="4.7396">
        <ele>178</ele>
        <time>2018-03-29T13:50:43Z</time>
      </trkpt>
      <trkpt lat="45.89752" lon="4.73962">
        <ele>178</ele>
        <time>2018-03-29T13:50:44Z</time>
      </trkpt>
      <trkpt lat="45.89747" lon="4.73965">
        <ele>178</ele>
        <time>2018-03-29T13:50:45Z</time>
      </trkpt>
      <trkpt lat="45.89742" lon="4.73968">
        <ele>178</ele>
        <time>2018-03-29T13:50:46Z</time>
      </trkpt>
      <trkpt lat="45.89736" lon="4.7397">
        <ele>178</ele>
        <time>2018-03-29T13:50:47Z</time>
      </trkpt>
      <trkpt lat="45.89731" lon="4.73973">
        <ele>178</ele>
        <time>2018-03-29T13:50:48Z</time>
      </trkpt>
      <trkpt lat="45.89726" lon="4.73975">
        <ele>178</ele>
        <time>2018-03-29T13:50:49Z</time>
      </trkpt>
      <trkpt lat="45.89721" lon="4.73978">
        <ele>178</ele>
        <time>2018-03-29T13:50:50Z</time>
      </trkpt>
      <trkpt lat="45.89717" lon="4.7398">
        <ele>178</ele>
        <time>2018-03-29T13:50:51Z</time>
      </trkpt>
      <trkpt lat="45.89712" lon="4.73983">
        <ele>178</ele>
        <time>2018-03-29T13:50:52Z</time>
      </trkpt>
      <trkpt lat="45.89706" lon="4.73984">
        <ele>178</ele>
        <time>2018-03-29T13:50:53Z</time>
      </trkpt>
      <trkpt lat="45.89701" lon="4.73986">
        <ele>178</ele>
        <time>2018-03-29T13:50:54Z</time>
      </trkpt>
      <trkpt lat="45.89695" lon="4.73989">
        <ele>178</ele>
        <time>2018-03-29T13:50:55Z</time>
      </trkpt>
      <trkpt lat="45.8969" lon="4.73991">
        <ele>178</ele>
        <time>2018-03-29T13:50:56Z</time>
      </trkpt>
      <trkpt lat="45.89685" lon="4.73994">
        <ele>179</ele>
        <time>2018-03-29T13:50:57Z</time>
      </trkpt>
      <trkpt lat="45.89679" lon="4.73997">
        <ele>179</ele>
        <time>2018-03-29T13:50:58Z</time>
      </trkpt>
      <trkpt lat="45.89674" lon="4.73999">
        <ele>179</ele>
        <time>2018-03-29T13:50:59Z</time>
      </trkpt>
      <trkpt lat="45.89668" lon="4.74001">
        <ele>179</ele>
        <time>2018-03-29T13:51:00Z</time>
      </trkpt>
      <trkpt lat="45.89663" lon="4.74003">
        <ele>179</ele>
        <time>2018-03-29T13:51:01Z</time>
      </trkpt>
      <trkpt lat="45.89657" lon="4.74006">
        <ele>179</ele>
        <time>2018-03-29T13:51:02Z</time>
      </trkpt>
      <trkpt lat="45.89653" lon="4.74008">
        <ele>179</ele>
        <time>2018-03-29T13:51:03Z</time>
      </trkpt>
      <trkpt lat="45.89647" lon="4.74011">
        <ele>180</ele>
        <time>2018-03-29T13:51:04Z</time>
      </trkpt>
      <trkpt lat="45.89642" lon="4.74013">
        <ele>180</ele>
        <time>2018-03-29T13:51:05Z</time>
      </trkpt>
      <trkpt lat="45.89637" lon="4.74015">
        <ele>180</ele>
        <time>2018-03-29T13:51:06Z</time>
      </trkpt>
      <trkpt lat="45.89632" lon="4.74017">
        <ele>180</ele>
        <time>2018-03-29T13:51:07Z</time>
      </trkpt>
      <trkpt lat="45.89627" lon="4.74019">
        <ele>180</ele>
        <time>2018-03-29T13:51:08Z</time>
      </trkpt>
      <trkpt lat="45.89622" lon="4.7402">
        <ele>180</ele>
        <time>2018-03-29T13:51:09Z</time>
      </trkpt>
      <trkpt lat="45.89616" lon="4.74023">
        <ele>180</ele>
        <time>2018-03-29T13:51:10Z</time>
      </trkpt>
      <trkpt lat="45.89611" lon="4.74025">
        <ele>180</ele>
        <time>2018-03-29T13:51:11Z</time>
      </trkpt>
      <trkpt lat="45.89606" lon="4.74027">
        <ele>180</ele>
        <time>2018-03-29T13:51:12Z</time>
      </trkpt>
      <trkpt lat="45.89601" lon="4.7403">
        <ele>180</ele>
        <time>2018-03-29T13:51:13Z</time>
      </trkpt>
      <trkpt lat="45.89596" lon="4.74032">
        <ele>180</ele>
        <time>2018-03-29T13:51:14Z</time>
      </trkpt>
      <trkpt lat="45.89591" lon="4.74034">
        <ele>180</ele>
        <time>2018-03-29T13:51:15Z</time>
      </trkpt>
      <trkpt lat="45.89586" lon="4.74037">
        <ele>180</ele>
        <time>2018-03-29T13:51:16Z</time>
      </trkpt>
      <trkpt lat="45.89581" lon="4.74039">
        <ele>181</ele>
        <time>2018-03-29T13:51:17Z</time>
      </trkpt>
      <trkpt lat="45.89576" lon="4.74041">
        <ele>181</ele>
        <time>2018-03-29T13:51:18Z</time>
      </trkpt>
      <trkpt lat="45.89568" lon="4.74045">
        <ele>181</ele>
        <time>2018-03-29T13:51:20Z</time>
      </trkpt>
      <trkpt lat="45.89564" lon="4.74046">
        <ele>181</ele>
        <time>2018-03-29T13:51:21Z</time>
      </trkpt>
      <trkpt lat="45.89559" lon="4.74049">
        <ele>181</ele>
        <time>2018-03-29T13:51:22Z</time>
      </trkpt>
      <trkpt lat="45.89553" lon="4.74051">
        <ele>181</ele>
        <time>2018-03-29T13:51:23Z</time>
      </trkpt>
      <trkpt lat="45.89548" lon="4.74052">
        <ele>181</ele>
        <time>2018-03-29T13:51:24Z</time>
      </trkpt>
      <trkpt lat="45.89544" lon="4.74055">
        <ele>181</ele>
        <time>2018-03-29T13:51:25Z</time>
      </trkpt>
      <trkpt lat="45.89539" lon="4.74057">
        <ele>181</ele>
        <time>2018-03-29T13:51:26Z</time>
      </trkpt>
      <trkpt lat="45.89534" lon="4.74059">
        <ele>181</ele>
        <time>2018-03-29T13:51:27Z</time>
      </trkpt>
      <trkpt lat="45.89529" lon="4.7406">
        <ele>181</ele>
        <time>2018-03-29T13:51:28Z</time>
      </trkpt>
      <trkpt lat="45.89525" lon="4.74062">
        <ele>181</ele>
        <time>2018-03-29T13:51:29Z</time>
      </trkpt>
      <trkpt lat="45.8952" lon="4.74063">
        <ele>181</ele>
        <time>2018-03-29T13:51:30Z</time>
      </trkpt>
      <trkpt lat="45.89515" lon="4.74065">
        <ele>181</ele>
        <time>2018-03-29T13:51:31Z</time>
      </trkpt>
      <trkpt lat="45.8951" lon="4.74068">
        <ele>181</ele>
        <time>2018-03-29T13:51:32Z</time>
      </trkpt>
      <trkpt lat="45.89505" lon="4.7407">
        <ele>181</ele>
        <time>2018-03-29T13:51:33Z</time>
      </trkpt>
      <trkpt lat="45.895" lon="4.74072">
        <ele>181</ele>
        <time>2018-03-29T13:51:34Z</time>
      </trkpt>
      <trkpt lat="45.89495" lon="4.74075">
        <ele>181</ele>
        <time>2018-03-29T13:51:35Z</time>
      </trkpt>
      <trkpt lat="45.8949" lon="4.74078">
        <ele>181</ele>
        <time>2018-03-29T13:51:36Z</time>
      </trkpt>
      <trkpt lat="45.89485" lon="4.74081">
        <ele>181</ele>
        <time>2018-03-29T13:51:37Z</time>
      </trkpt>
      <trkpt lat="45.89481" lon="4.74083">
        <ele>181</ele>
        <time>2018-03-29T13:51:38Z</time>
      </trkpt>
      <trkpt lat="45.89476" lon="4.74085">
        <ele>182</ele>
        <time>2018-03-29T13:51:39Z</time>
      </trkpt>
      <trkpt lat="45.89471" lon="4.74087">
        <ele>182</ele>
        <time>2018-03-29T13:51:40Z</time>
      </trkpt>
      <trkpt lat="45.89467" lon="4.74088">
        <ele>182</ele>
        <time>2018-03-29T13:51:41Z</time>
      </trkpt>
      <trkpt lat="45.89462" lon="4.7409">
        <ele>182</ele>
        <time>2018-03-29T13:51:42Z</time>
      </trkpt>
      <trkpt lat="45.89457" lon="4.74093">
        <ele>182</ele>
        <time>2018-03-29T13:51:43Z</time>
      </trkpt>
      <trkpt lat="45.89452" lon="4.74095">
        <ele>182</ele>
        <time>2018-03-29T13:51:44Z</time>
      </trkpt>
      <trkpt lat="45.89446" lon="4.74097">
        <ele>182</ele>
        <time>2018-03-29T13:51:45Z</time>
      </trkpt>
      <trkpt lat="45.89442" lon="4.74098">
        <ele>182</ele>
        <time>2018-03-29T13:51:46Z</time>
      </trkpt>
      <trkpt lat="45.89437" lon="4.74101">
        <ele>182</ele>
        <time>2018-03-29T13:51:47Z</time>
      </trkpt>
      <trkpt lat="45.89432" lon="4.74103">
        <ele>182</ele>
        <time>2018-03-29T13:51:48Z</time>
      </trkpt>
      <trkpt lat="45.89426" lon="4.74104">
        <ele>182</ele>
        <time>2018-03-29T13:51:49Z</time>
      </trkpt>
      <trkpt lat="45.89421" lon="4.74106">
        <ele>183</ele>
        <time>2018-03-29T13:51:50Z</time>
      </trkpt>
      <trkpt lat="45.89416" lon="4.74109">
        <ele>183</ele>
        <time>2018-03-29T13:51:51Z</time>
      </trkpt>
      <trkpt lat="45.8941" lon="4.74111">
        <ele>183</ele>
        <time>2018-03-29T13:51:52Z</time>
      </trkpt>
      <trkpt lat="45.89405" lon="4.74114">
        <ele>183</ele>
        <time>2018-03-29T13:51:53Z</time>
      </trkpt>
      <trkpt lat="45.894" lon="4.74116">
        <ele>184</ele>
        <time>2018-03-29T13:51:54Z</time>
      </trkpt>
      <trkpt lat="45.89394" lon="4.74119">
        <ele>184</ele>
        <time>2018-03-29T13:51:55Z</time>
      </trkpt>
      <trkpt lat="45.89389" lon="4.74122">
        <ele>184</ele>
        <time>2018-03-29T13:51:56Z</time>
      </trkpt>
      <trkpt lat="45.89384" lon="4.74124">
        <ele>184</ele>
        <time>2018-03-29T13:51:57Z</time>
      </trkpt>
      <trkpt lat="45.89379" lon="4.74127">
        <ele>184</ele>
        <time>2018-03-29T13:51:58Z</time>
      </trkpt>
      <trkpt lat="45.89374" lon="4.74129">
        <ele>184</ele>
        <time>2018-03-29T13:51:59Z</time>
      </trkpt>
      <trkpt lat="45.89369" lon="4.74131">
        <ele>184</ele>
        <time>2018-03-29T13:52:00Z</time>
      </trkpt>
      <trkpt lat="45.89364" lon="4.74133">
        <ele>184</ele>
        <time>2018-03-29T13:52:01Z</time>
      </trkpt>
      <trkpt lat="45.89359" lon="4.74135">
        <ele>184</ele>
        <time>2018-03-29T13:52:02Z</time>
      </trkpt>
      <trkpt lat="45.89354" lon="4.74138">
        <ele>184</ele>
        <time>2018-03-29T13:52:03Z</time>
      </trkpt>
      <trkpt lat="45.89349" lon="4.74139">
        <ele>185</ele>
        <time>2018-03-29T13:52:04Z</time>
      </trkpt>
      <trkpt lat="45.89344" lon="4.74141">
        <ele>185</ele>
        <time>2018-03-29T13:52:05Z</time>
      </trkpt>
      <trkpt lat="45.89339" lon="4.74142">
        <ele>185</ele>
        <time>2018-03-29T13:52:06Z</time>
      </trkpt>
      <trkpt lat="45.89334" lon="4.74143">
        <ele>185</ele>
        <time>2018-03-29T13:52:07Z</time>
      </trkpt>
      <trkpt lat="45.89328" lon="4.74146">
        <ele>185</ele>
        <time>2018-03-29T13:52:08Z</time>
      </trkpt>
      <trkpt lat="45.89324" lon="4.74148">
        <ele>185</ele>
        <time>2018-03-29T13:52:09Z</time>
      </trkpt>
      <trkpt lat="45.89319" lon="4.74151">
        <ele>185</ele>
        <time>2018-03-29T13:52:10Z</time>
      </trkpt>
      <trkpt lat="45.89314" lon="4.74153">
        <ele>185</ele>
        <time>2018-03-29T13:52:11Z</time>
      </trkpt>
      <trkpt lat="45.89309" lon="4.74155">
        <ele>185</ele>
        <time>2018-03-29T13:52:12Z</time>
      </trkpt>
      <trkpt lat="45.89304" lon="4.74157">
        <ele>185</ele>
        <time>2018-03-29T13:52:13Z</time>
      </trkpt>
      <trkpt lat="45.893" lon="4.74159">
        <ele>185</ele>
        <time>2018-03-29T13:52:14Z</time>
      </trkpt>
      <trkpt lat="45.89295" lon="4.74161">
        <ele>185</ele>
        <time>2018-03-29T13:52:15Z</time>
      </trkpt>
      <trkpt lat="45.8929" lon="4.74164">
        <ele>185</ele>
        <time>2018-03-29T13:52:16Z</time>
      </trkpt>
      <trkpt lat="45.89285" lon="4.74165">
        <ele>185</ele>
        <time>2018-03-29T13:52:17Z</time>
      </trkpt>
      <trkpt lat="45.8928" lon="4.74168">
        <ele>186</ele>
        <time>2018-03-29T13:52:18Z</time>
      </trkpt>
      <trkpt lat="45.89274" lon="4.7417">
        <ele>186</ele>
        <time>2018-03-29T13:52:19Z</time>
      </trkpt>
      <trkpt lat="45.89269" lon="4.74173">
        <ele>186</ele>
        <time>2018-03-29T13:52:20Z</time>
      </trkpt>
      <trkpt lat="45.89264" lon="4.74175">
        <ele>186</ele>
        <time>2018-03-29T13:52:21Z</time>
      </trkpt>
      <trkpt lat="45.89259" lon="4.74177">
        <ele>185</ele>
        <time>2018-03-29T13:52:22Z</time>
      </trkpt>
      <trkpt lat="45.89254" lon="4.74179">
        <ele>185</ele>
        <time>2018-03-29T13:52:23Z</time>
      </trkpt>
      <trkpt lat="45.89248" lon="4.74181">
        <ele>185</ele>
        <time>2018-03-29T13:52:24Z</time>
      </trkpt>
      <trkpt lat="45.89242" lon="4.74184">
        <ele>186</ele>
        <time>2018-03-29T13:52:25Z</time>
      </trkpt>
      <trkpt lat="45.89237" lon="4.74186">
        <ele>186</ele>
        <time>2018-03-29T13:52:26Z</time>
      </trkpt>
      <trkpt lat="45.89232" lon="4.74188">
        <ele>186</ele>
        <time>2018-03-29T13:52:27Z</time>
      </trkpt>
      <trkpt lat="45.89227" lon="4.7419">
        <ele>186</ele>
        <time>2018-03-29T13:52:28Z</time>
      </trkpt>
      <trkpt lat="45.89221" lon="4.74192">
        <ele>186</ele>
        <time>2018-03-29T13:52:29Z</time>
      </trkpt>
      <trkpt lat="45.89215" lon="4.74194">
        <ele>186</ele>
        <time>2018-03-29T13:52:30Z</time>
      </trkpt>
      <trkpt lat="45.8921" lon="4.74194">
        <ele>186</ele>
        <time>2018-03-29T13:52:31Z</time>
      </trkpt>
      <trkpt lat="45.89206" lon="4.74196">
        <ele>186</ele>
        <time>2018-03-29T13:52:32Z</time>
      </trkpt>
      <trkpt lat="45.892" lon="4.74198">
        <ele>186</ele>
        <time>2018-03-29T13:52:33Z</time>
      </trkpt>
      <trkpt lat="45.89195" lon="4.742">
        <ele>186</ele>
        <time>2018-03-29T13:52:34Z</time>
      </trkpt>
      <trkpt lat="45.89189" lon="4.74202">
        <ele>186</ele>
        <time>2018-03-29T13:52:35Z</time>
      </trkpt>
      <trkpt lat="45.89184" lon="4.74204">
        <ele>186</ele>
        <time>2018-03-29T13:52:36Z</time>
      </trkpt>
      <trkpt lat="45.89179" lon="4.74208">
        <ele>186</ele>
        <time>2018-03-29T13:52:37Z</time>
      </trkpt>
      <trkpt lat="45.89173" lon="4.7421">
        <ele>186</ele>
        <time>2018-03-29T13:52:38Z</time>
      </trkpt>
      <trkpt lat="45.89169" lon="4.74211">
        <ele>186</ele>
        <time>2018-03-29T13:52:39Z</time>
      </trkpt>
      <trkpt lat="45.89164" lon="4.74216">
        <ele>186</ele>
        <time>2018-03-29T13:52:40Z</time>
      </trkpt>
      <trkpt lat="45.8916" lon="4.74218">
        <ele>186</ele>
        <time>2018-03-29T13:52:41Z</time>
      </trkpt>
      <trkpt lat="45.89156" lon="4.74222">
        <ele>186</ele>
        <time>2018-03-29T13:52:42Z</time>
      </trkpt>
      <trkpt lat="45.8915" lon="4.74224">
        <ele>186</ele>
        <time>2018-03-29T13:52:43Z</time>
      </trkpt>
      <trkpt lat="45.89146" lon="4.74226">
        <ele>186</ele>
        <time>2018-03-29T13:52:44Z</time>
      </trkpt>
      <trkpt lat="45.8914" lon="4.74229">
        <ele>186</ele>
        <time>2018-03-29T13:52:45Z</time>
      </trkpt>
      <trkpt lat="45.89136" lon="4.74231">
        <ele>186</ele>
        <time>2018-03-29T13:52:46Z</time>
      </trkpt>
      <trkpt lat="45.8913" lon="4.74232">
        <ele>186</ele>
        <time>2018-03-29T13:52:47Z</time>
      </trkpt>
      <trkpt lat="45.89125" lon="4.74234">
        <ele>186</ele>
        <time>2018-03-29T13:52:48Z</time>
      </trkpt>
      <trkpt lat="45.89119" lon="4.74236">
        <ele>186</ele>
        <time>2018-03-29T13:52:49Z</time>
      </trkpt>
      <trkpt lat="45.89114" lon="4.74237">
        <ele>186</ele>
        <time>2018-03-29T13:52:50Z</time>
      </trkpt>
      <trkpt lat="45.89107" lon="4.74239">
        <ele>186</ele>
        <time>2018-03-29T13:52:51Z</time>
      </trkpt>
      <trkpt lat="45.89101" lon="4.7424">
        <ele>186</ele>
        <time>2018-03-29T13:52:52Z</time>
      </trkpt>
      <trkpt lat="45.89096" lon="4.74244">
        <ele>186</ele>
        <time>2018-03-29T13:52:53Z</time>
      </trkpt>
      <trkpt lat="45.89092" lon="4.74246">
        <ele>186</ele>
        <time>2018-03-29T13:52:54Z</time>
      </trkpt>
      <trkpt lat="45.89087" lon="4.74248">
        <ele>186</ele>
        <time>2018-03-29T13:52:55Z</time>
      </trkpt>
      <trkpt lat="45.89082" lon="4.74249">
        <ele>186</ele>
        <time>2018-03-29T13:52:56Z</time>
      </trkpt>
      <trkpt lat="45.89076" lon="4.7425">
        <ele>186</ele>
        <time>2018-03-29T13:52:57Z</time>
      </trkpt>
      <trkpt lat="45.89071" lon="4.74252">
        <ele>186</ele>
        <time>2018-03-29T13:52:58Z</time>
      </trkpt>
      <trkpt lat="45.89067" lon="4.74255">
        <ele>186</ele>
        <time>2018-03-29T13:52:59Z</time>
      </trkpt>
      <trkpt lat="45.89059" lon="4.7426">
        <ele>187</ele>
        <time>2018-03-29T13:53:01Z</time>
      </trkpt>
      <trkpt lat="45.89055" lon="4.74261">
        <ele>187</ele>
        <time>2018-03-29T13:53:02Z</time>
      </trkpt>
      <trkpt lat="45.89046" lon="4.74263">
        <ele>187</ele>
        <time>2018-03-29T13:53:04Z</time>
      </trkpt>
      <trkpt lat="45.89042" lon="4.74264">
        <ele>187</ele>
        <time>2018-03-29T13:53:05Z</time>
      </trkpt>
      <trkpt lat="45.89034" lon="4.74268">
        <ele>187</ele>
        <time>2018-03-29T13:53:07Z</time>
      </trkpt>
      <trkpt lat="45.89029" lon="4.7427">
        <ele>187</ele>
        <time>2018-03-29T13:53:08Z</time>
      </trkpt>
      <trkpt lat="45.89025" lon="4.74271">
        <ele>187</ele>
        <time>2018-03-29T13:53:09Z</time>
      </trkpt>
      <trkpt lat="45.8902" lon="4.74273">
        <ele>187</ele>
        <time>2018-03-29T13:53:10Z</time>
      </trkpt>
      <trkpt lat="45.89015" lon="4.74274">
        <ele>187</ele>
        <time>2018-03-29T13:53:11Z</time>
      </trkpt>
      <trkpt lat="45.8901" lon="4.74275">
        <ele>187</ele>
        <time>2018-03-29T13:53:12Z</time>
      </trkpt>
      <trkpt lat="45.89005" lon="4.74277">
        <ele>187</ele>
        <time>2018-03-29T13:53:13Z</time>
      </trkpt>
      <trkpt lat="45.89" lon="4.74277">
        <ele>187</ele>
        <time>2018-03-29T13:53:14Z</time>
      </trkpt>
      <trkpt lat="45.88996" lon="4.74279">
        <ele>187</ele>
        <time>2018-03-29T13:53:15Z</time>
      </trkpt>
      <trkpt lat="45.88991" lon="4.74281">
        <ele>187</ele>
        <time>2018-03-29T13:53:16Z</time>
      </trkpt>
      <trkpt lat="45.88987" lon="4.74282">
        <ele>187</ele>
        <time>2018-03-29T13:53:17Z</time>
      </trkpt>
      <trkpt lat="45.88982" lon="4.74282">
        <ele>187</ele>
        <time>2018-03-29T13:53:18Z</time>
      </trkpt>
      <trkpt lat="45.88978" lon="4.74282">
        <ele>187</ele>
        <time>2018-03-29T13:53:19Z</time>
      </trkpt>
      <trkpt lat="45.88971" lon="4.74281">
        <ele>187</ele>
        <time>2018-03-29T13:53:20Z</time>
      </trkpt>
      <trkpt lat="45.88963" lon="4.74279">
        <ele>187</ele>
        <time>2018-03-29T13:53:22Z</time>
      </trkpt>
      <trkpt lat="45.88959" lon="4.74277">
        <ele>187</ele>
        <time>2018-03-29T13:53:23Z</time>
      </trkpt>
      <trkpt lat="45.88953" lon="4.74275">
        <ele>187</ele>
        <time>2018-03-29T13:53:25Z</time>
      </trkpt>
      <trkpt lat="45.88948" lon="4.74273">
        <ele>187</ele>
        <time>2018-03-29T13:53:26Z</time>
      </trkpt>
      <trkpt lat="45.88944" lon="4.74272">
        <ele>187</ele>
        <time>2018-03-29T13:53:27Z</time>
      </trkpt>
      <trkpt lat="45.88939" lon="4.74272">
        <ele>187</ele>
        <time>2018-03-29T13:53:28Z</time>
      </trkpt>
      <trkpt lat="45.8893" lon="4.74269">
        <ele>187</ele>
        <time>2018-03-29T13:53:30Z</time>
      </trkpt>
      <trkpt lat="45.88926" lon="4.74268">
        <ele>187</ele>
        <time>2018-03-29T13:53:31Z</time>
      </trkpt>
      <trkpt lat="45.88922" lon="4.74267">
        <ele>187</ele>
        <time>2018-03-29T13:53:33Z</time>
      </trkpt>
      <trkpt lat="45.88916" lon="4.74264">
        <ele>187</ele>
        <time>2018-03-29T13:53:34Z</time>
      </trkpt>
      <trkpt lat="45.88908" lon="4.74258">
        <ele>187</ele>
        <time>2018-03-29T13:53:36Z</time>
      </trkpt>
      <trkpt lat="45.88905" lon="4.74255">
        <ele>187</ele>
        <time>2018-03-29T13:53:37Z</time>
      </trkpt>
      <trkpt lat="45.889" lon="4.74252">
        <ele>187</ele>
        <time>2018-03-29T13:53:39Z</time>
      </trkpt>
      <trkpt lat="45.88896" lon="4.74247">
        <ele>187</ele>
        <time>2018-03-29T13:53:40Z</time>
      </trkpt>
      <trkpt lat="45.88891" lon="4.74242">
        <ele>187</ele>
        <time>2018-03-29T13:53:41Z</time>
      </trkpt>
      <trkpt lat="45.88886" lon="4.7424">
        <ele>187</ele>
        <time>2018-03-29T13:53:42Z</time>
      </trkpt>
      <trkpt lat="45.88882" lon="4.74237">
        <ele>187</ele>
        <time>2018-03-29T13:53:43Z</time>
      </trkpt>
      <trkpt lat="45.88877" lon="4.74234">
        <ele>187</ele>
        <time>2018-03-29T13:53:44Z</time>
      </trkpt>
      <trkpt lat="45.88872" lon="4.74232">
        <ele>187</ele>
        <time>2018-03-29T13:53:45Z</time>
      </trkpt>
      <trkpt lat="45.88867" lon="4.74229">
        <ele>187</ele>
        <time>2018-03-29T13:53:46Z</time>
      </trkpt>
      <trkpt lat="45.88863" lon="4.74225">
        <ele>187</ele>
        <time>2018-03-29T13:53:47Z</time>
      </trkpt>
      <trkpt lat="45.88859" lon="4.74221">
        <ele>187</ele>
        <time>2018-03-29T13:53:48Z</time>
      </trkpt>
      <trkpt lat="45.88853" lon="4.74219">
        <ele>187</ele>
        <time>2018-03-29T13:53:49Z</time>
      </trkpt>
      <trkpt lat="45.88846" lon="4.74213">
        <ele>187</ele>
        <time>2018-03-29T13:53:50Z</time>
      </trkpt>
      <trkpt lat="45.88838" lon="4.74208">
        <ele>187</ele>
        <time>2018-03-29T13:53:52Z</time>
      </trkpt>
      <trkpt lat="45.88834" lon="4.74206">
        <ele>187</ele>
        <time>2018-03-29T13:53:53Z</time>
      </trkpt>
      <trkpt lat="45.88829" lon="4.74204">
        <ele>187</ele>
        <time>2018-03-29T13:53:54Z</time>
      </trkpt>
      <trkpt lat="45.88825" lon="4.74201">
        <ele>187</ele>
        <time>2018-03-29T13:53:55Z</time>
      </trkpt>
      <trkpt lat="45.8882" lon="4.74198">
        <ele>187</ele>
        <time>2018-03-29T13:53:56Z</time>
      </trkpt>
      <trkpt lat="45.88815" lon="4.74194">
        <ele>187</ele>
        <time>2018-03-29T13:53:57Z</time>
      </trkpt>
      <trkpt lat="45.8881" lon="4.74191">
        <ele>187</ele>
        <time>2018-03-29T13:53:58Z</time>
      </trkpt>
      <trkpt lat="45.88805" lon="4.74188">
        <ele>187</ele>
        <time>2018-03-29T13:53:59Z</time>
      </trkpt>
      <trkpt lat="45.88801" lon="4.74186">
        <ele>187</ele>
        <time>2018-03-29T13:54:00Z</time>
      </trkpt>
      <trkpt lat="45.88796" lon="4.74184">
        <ele>187</ele>
        <time>2018-03-29T13:54:01Z</time>
      </trkpt>
      <trkpt lat="45.88792" lon="4.74181">
        <ele>188</ele>
        <time>2018-03-29T13:54:02Z</time>
      </trkpt>
      <trkpt lat="45.88788" lon="4.74179">
        <ele>188</ele>
        <time>2018-03-29T13:54:03Z</time>
      </trkpt>
      <trkpt lat="45.8878" lon="4.74174">
        <ele>188</ele>
        <time>2018-03-29T13:54:05Z</time>
      </trkpt>
      <trkpt lat="45.88776" lon="4.74172">
        <ele>188</ele>
        <time>2018-03-29T13:54:06Z</time>
      </trkpt>
      <trkpt lat="45.88768" lon="4.74168">
        <ele>188</ele>
        <time>2018-03-29T13:54:08Z</time>
      </trkpt>
      <trkpt lat="45.88765" lon="4.74166">
        <ele>187</ele>
        <time>2018-03-29T13:54:09Z</time>
      </trkpt>
      <trkpt lat="45.8876" lon="4.74165">
        <ele>187</ele>
        <time>2018-03-29T13:54:10Z</time>
      </trkpt>
      <trkpt lat="45.88756" lon="4.74161">
        <ele>188</ele>
        <time>2018-03-29T13:54:11Z</time>
      </trkpt>
      <trkpt lat="45.88752" lon="4.74157">
        <ele>188</ele>
        <time>2018-03-29T13:54:12Z</time>
      </trkpt>
      <trkpt lat="45.88748" lon="4.74153">
        <ele>188</ele>
        <time>2018-03-29T13:54:13Z</time>
      </trkpt>
      <trkpt lat="45.88744" lon="4.7415">
        <ele>188</ele>
        <time>2018-03-29T13:54:14Z</time>
      </trkpt>
      <trkpt lat="45.8874" lon="4.74145">
        <ele>188</ele>
        <time>2018-03-29T13:54:15Z</time>
      </trkpt>
      <trkpt lat="45.88736" lon="4.74142">
        <ele>188</ele>
        <time>2018-03-29T13:54:16Z</time>
      </trkpt>
      <trkpt lat="45.88731" lon="4.74138">
        <ele>188</ele>
        <time>2018-03-29T13:54:17Z</time>
      </trkpt>
      <trkpt lat="45.88727" lon="4.74135">
        <ele>188</ele>
        <time>2018-03-29T13:54:18Z</time>
      </trkpt>
      <trkpt lat="45.88722" lon="4.74131">
        <ele>188</ele>
        <time>2018-03-29T13:54:19Z</time>
      </trkpt>
      <trkpt lat="45.88718" lon="4.74127">
        <ele>188</ele>
        <time>2018-03-29T13:54:20Z</time>
      </trkpt>
      <trkpt lat="45.88714" lon="4.74123">
        <ele>188</ele>
        <time>2018-03-29T13:54:21Z</time>
      </trkpt>
      <trkpt lat="45.8871" lon="4.74119">
        <ele>188</ele>
        <time>2018-03-29T13:54:22Z</time>
      </trkpt>
      <trkpt lat="45.88706" lon="4.74115">
        <ele>188</ele>
        <time>2018-03-29T13:54:23Z</time>
      </trkpt>
      <trkpt lat="45.88698" lon="4.7411">
        <ele>188</ele>
        <time>2018-03-29T13:54:25Z</time>
      </trkpt>
      <trkpt lat="45.88693" lon="4.7411">
        <ele>188</ele>
        <time>2018-03-29T13:54:26Z</time>
      </trkpt>
      <trkpt lat="45.88687" lon="4.74111">
        <ele>188</ele>
        <time>2018-03-29T13:54:28Z</time>
      </trkpt>
      <trkpt lat="45.88682" lon="4.74109">
        <ele>188</ele>
        <time>2018-03-29T13:54:29Z</time>
      </trkpt>
      <trkpt lat="45.88676" lon="4.74102">
        <ele>188</ele>
        <time>2018-03-29T13:54:31Z</time>
      </trkpt>
      <trkpt lat="45.88675" lon="4.74097">
        <ele>188</ele>
        <time>2018-03-29T13:54:32Z</time>
      </trkpt>
      <trkpt lat="45.88671" lon="4.74086">
        <ele>188</ele>
        <time>2018-03-29T13:54:34Z</time>
      </trkpt>
      <trkpt lat="45.8867" lon="4.7408">
        <ele>188</ele>
        <time>2018-03-29T13:54:35Z</time>
      </trkpt>
      <trkpt lat="45.88669" lon="4.74074">
        <ele>188</ele>
        <time>2018-03-29T13:54:36Z</time>
      </trkpt>
      <trkpt lat="45.88666" lon="4.74067">
        <ele>188</ele>
        <time>2018-03-29T13:54:37Z</time>
      </trkpt>
      <trkpt lat="45.88665" lon="4.7406">
        <ele>187</ele>
        <time>2018-03-29T13:54:38Z</time>
      </trkpt>
      <trkpt lat="45.88663" lon="4.74053">
        <ele>187</ele>
        <time>2018-03-29T13:54:39Z</time>
      </trkpt>
      <trkpt lat="45.88661" lon="4.74046">
        <ele>187</ele>
        <time>2018-03-29T13:54:40Z</time>
      </trkpt>
      <trkpt lat="45.8866" lon="4.74038">
        <ele>187</ele>
        <time>2018-03-29T13:54:41Z</time>
      </trkpt>
      <trkpt lat="45.88659" lon="4.7403">
        <ele>187</ele>
        <time>2018-03-29T13:54:42Z</time>
      </trkpt>
      <trkpt lat="45.88658" lon="4.74022">
        <ele>187</ele>
        <time>2018-03-29T13:54:43Z</time>
      </trkpt>
      <trkpt lat="45.88657" lon="4.74012">
        <ele>187</ele>
        <time>2018-03-29T13:54:44Z</time>
      </trkpt>
      <trkpt lat="45.88656" lon="4.74004">
        <ele>186</ele>
        <time>2018-03-29T13:54:45Z</time>
      </trkpt>
      <trkpt lat="45.88654" lon="4.73994">
        <ele>186</ele>
        <time>2018-03-29T13:54:46Z</time>
      </trkpt>
      <trkpt lat="45.88653" lon="4.73986">
        <ele>186</ele>
        <time>2018-03-29T13:54:47Z</time>
      </trkpt>
      <trkpt lat="45.88651" lon="4.73978">
        <ele>187</ele>
        <time>2018-03-29T13:54:48Z</time>
      </trkpt>
      <trkpt lat="45.8865" lon="4.73971">
        <ele>187</ele>
        <time>2018-03-29T13:54:49Z</time>
      </trkpt>
      <trkpt lat="45.88648" lon="4.73963">
        <ele>187</ele>
        <time>2018-03-29T13:54:50Z</time>
      </trkpt>
      <trkpt lat="45.88648" lon="4.73954">
        <ele>187</ele>
        <time>2018-03-29T13:54:51Z</time>
      </trkpt>
      <trkpt lat="45.88647" lon="4.73946">
        <ele>187</ele>
        <time>2018-03-29T13:54:52Z</time>
      </trkpt>
      <trkpt lat="45.88646" lon="4.73939">
        <ele>187</ele>
        <time>2018-03-29T13:54:53Z</time>
      </trkpt>
      <trkpt lat="45.88646" lon="4.73931">
        <ele>187</ele>
        <time>2018-03-29T13:54:54Z</time>
      </trkpt>
      <trkpt lat="45.88646" lon="4.73923">
        <ele>187</ele>
        <time>2018-03-29T13:54:55Z</time>
      </trkpt>
      <trkpt lat="45.88645" lon="4.73915">
        <ele>187</ele>
        <time>2018-03-29T13:54:56Z</time>
      </trkpt>
      <trkpt lat="45.88645" lon="4.73907">
        <ele>187</ele>
        <time>2018-03-29T13:54:57Z</time>
      </trkpt>
      <trkpt lat="45.88645" lon="4.73899">
        <ele>187</ele>
        <time>2018-03-29T13:54:58Z</time>
      </trkpt>
      <trkpt lat="45.88645" lon="4.73891">
        <ele>187</ele>
        <time>2018-03-29T13:54:59Z</time>
      </trkpt>
      <trkpt lat="45.88644" lon="4.73883">
        <ele>187</ele>
        <time>2018-03-29T13:55:00Z</time>
      </trkpt>
      <trkpt lat="45.88644" lon="4.73873">
        <ele>187</ele>
        <time>2018-03-29T13:55:01Z</time>
      </trkpt>
      <trkpt lat="45.88645" lon="4.73865">
        <ele>187</ele>
        <time>2018-03-29T13:55:02Z</time>
      </trkpt>
      <trkpt lat="45.88646" lon="4.73858">
        <ele>187</ele>
        <time>2018-03-29T13:55:03Z</time>
      </trkpt>
      <trkpt lat="45.88646" lon="4.73852">
        <ele>187</ele>
        <time>2018-03-29T13:55:04Z</time>
      </trkpt>
      <trkpt lat="45.88645" lon="4.73844">
        <ele>187</ele>
        <time>2018-03-29T13:55:05Z</time>
      </trkpt>
      <trkpt lat="45.88644" lon="4.73832">
        <ele>187</ele>
        <time>2018-03-29T13:55:07Z</time>
      </trkpt>
      <trkpt lat="45.88645" lon="4.73823">
        <ele>187</ele>
        <time>2018-03-29T13:55:08Z</time>
      </trkpt>
      <trkpt lat="45.88645" lon="4.73817">
        <ele>187</ele>
        <time>2018-03-29T13:55:09Z</time>
      </trkpt>
      <trkpt lat="45.88645" lon="4.73809">
        <ele>187</ele>
        <time>2018-03-29T13:55:10Z</time>
      </trkpt>
      <trkpt lat="45.88645" lon="4.73797">
        <ele>187</ele>
        <time>2018-03-29T13:55:12Z</time>
      </trkpt>
      <trkpt lat="45.88645" lon="4.7379">
        <ele>187</ele>
        <time>2018-03-29T13:55:13Z</time>
      </trkpt>
      <trkpt lat="45.88645" lon="4.73778">
        <ele>187</ele>
        <time>2018-03-29T13:55:15Z</time>
      </trkpt>
      <trkpt lat="45.88645" lon="4.73772">
        <ele>187</ele>
        <time>2018-03-29T13:55:16Z</time>
      </trkpt>
      <trkpt lat="45.88645" lon="4.7376">
        <ele>187</ele>
        <time>2018-03-29T13:55:18Z</time>
      </trkpt>
      <trkpt lat="45.88645" lon="4.73754">
        <ele>187</ele>
        <time>2018-03-29T13:55:19Z</time>
      </trkpt>
      <trkpt lat="45.88646" lon="4.73741">
        <ele>187</ele>
        <time>2018-03-29T13:55:21Z</time>
      </trkpt>
      <trkpt lat="45.88646" lon="4.73735">
        <ele>186</ele>
        <time>2018-03-29T13:55:22Z</time>
      </trkpt>
      <trkpt lat="45.88647" lon="4.73723">
        <ele>186</ele>
        <time>2018-03-29T13:55:24Z</time>
      </trkpt>
      <trkpt lat="45.88647" lon="4.73718">
        <ele>186</ele>
        <time>2018-03-29T13:55:25Z</time>
      </trkpt>
      <trkpt lat="45.88647" lon="4.73709">
        <ele>186</ele>
        <time>2018-03-29T13:55:27Z</time>
      </trkpt>
      <trkpt lat="45.88648" lon="4.73701">
        <ele>186</ele>
        <time>2018-03-29T13:55:28Z</time>
      </trkpt>
      <trkpt lat="45.88648" lon="4.7369">
        <ele>186</ele>
        <time>2018-03-29T13:55:30Z</time>
      </trkpt>
      <trkpt lat="45.88648" lon="4.73684">
        <ele>186</ele>
        <time>2018-03-29T13:55:31Z</time>
      </trkpt>
      <trkpt lat="45.88648" lon="4.73673">
        <ele>186</ele>
        <time>2018-03-29T13:55:33Z</time>
      </trkpt>
      <trkpt lat="45.88648" lon="4.73667">
        <ele>186</ele>
        <time>2018-03-29T13:55:34Z</time>
      </trkpt>
      <trkpt lat="45.88648" lon="4.73655">
        <ele>186</ele>
        <time>2018-03-29T13:55:36Z</time>
      </trkpt>
      <trkpt lat="45.88648" lon="4.73649">
        <ele>186</ele>
        <time>2018-03-29T13:55:37Z</time>
      </trkpt>
      <trkpt lat="45.88648" lon="4.73637">
        <ele>186</ele>
        <time>2018-03-29T13:55:39Z</time>
      </trkpt>
      <trkpt lat="45.88648" lon="4.73631">
        <ele>186</ele>
        <time>2018-03-29T13:55:40Z</time>
      </trkpt>
      <trkpt lat="45.88648" lon="4.73623">
        <ele>186</ele>
        <time>2018-03-29T13:55:41Z</time>
      </trkpt>
      <trkpt lat="45.88648" lon="4.73616">
        <ele>186</ele>
        <time>2018-03-29T13:55:42Z</time>
      </trkpt>
      <trkpt lat="45.88648" lon="4.73609">
        <ele>186</ele>
        <time>2018-03-29T13:55:43Z</time>
      </trkpt>
      <trkpt lat="45.88648" lon="4.73602">
        <ele>186</ele>
        <time>2018-03-29T13:55:44Z</time>
      </trkpt>
      <trkpt lat="45.88648" lon="4.73594">
        <ele>185</ele>
        <time>2018-03-29T13:55:45Z</time>
      </trkpt>
      <trkpt lat="45.88649" lon="4.73586">
        <ele>185</ele>
        <time>2018-03-29T13:55:46Z</time>
      </trkpt>
      <trkpt lat="45.88648" lon="4.73577">
        <ele>185</ele>
        <time>2018-03-29T13:55:47Z</time>
      </trkpt>
      <trkpt lat="45.88648" lon="4.73568">
        <ele>185</ele>
        <time>2018-03-29T13:55:48Z</time>
      </trkpt>
      <trkpt lat="45.88648" lon="4.73558">
        <ele>185</ele>
        <time>2018-03-29T13:55:49Z</time>
      </trkpt>
      <trkpt lat="45.88648" lon="4.73548">
        <ele>185</ele>
        <time>2018-03-29T13:55:50Z</time>
      </trkpt>
      <trkpt lat="45.8865" lon="4.73537">
        <ele>185</ele>
        <time>2018-03-29T13:55:51Z</time>
      </trkpt>
      <trkpt lat="45.88651" lon="4.73526">
        <ele>185</ele>
        <time>2018-03-29T13:55:52Z</time>
      </trkpt>
      <trkpt lat="45.88653" lon="4.73517">
        <ele>185</ele>
        <time>2018-03-29T13:55:53Z</time>
      </trkpt>
      <trkpt lat="45.88655" lon="4.73508">
        <ele>184</ele>
        <time>2018-03-29T13:55:54Z</time>
      </trkpt>
      <trkpt lat="45.88656" lon="4.735">
        <ele>184</ele>
        <time>2018-03-29T13:55:55Z</time>
      </trkpt>
      <trkpt lat="45.88657" lon="4.73492">
        <ele>184</ele>
        <time>2018-03-29T13:55:56Z</time>
      </trkpt>
      <trkpt lat="45.88657" lon="4.73485">
        <ele>184</ele>
        <time>2018-03-29T13:55:57Z</time>
      </trkpt>
      <trkpt lat="45.88655" lon="4.73479">
        <ele>184</ele>
        <time>2018-03-29T13:55:58Z</time>
      </trkpt>
      <trkpt lat="45.88649" lon="4.73474">
        <ele>184</ele>
        <time>2018-03-29T13:55:59Z</time>
      </trkpt>
      <trkpt lat="45.88644" lon="4.7347">
        <ele>184</ele>
        <time>2018-03-29T13:56:00Z</time>
      </trkpt>
      <trkpt lat="45.8864" lon="4.73467">
        <ele>184</ele>
        <time>2018-03-29T13:56:01Z</time>
      </trkpt>
      <trkpt lat="45.88637" lon="4.73462">
        <ele>184</ele>
        <time>2018-03-29T13:56:02Z</time>
      </trkpt>
      <trkpt lat="45.88635" lon="4.73455">
        <ele>184</ele>
        <time>2018-03-29T13:56:03Z</time>
      </trkpt>
      <trkpt lat="45.88636" lon="4.73447">
        <ele>184</ele>
        <time>2018-03-29T13:56:04Z</time>
      </trkpt>
      <trkpt lat="45.88638" lon="4.73439">
        <ele>184</ele>
        <time>2018-03-29T13:56:05Z</time>
      </trkpt>
      <trkpt lat="45.88639" lon="4.73431">
        <ele>184</ele>
        <time>2018-03-29T13:56:06Z</time>
      </trkpt>
      <trkpt lat="45.88639" lon="4.73423">
        <ele>184</ele>
        <time>2018-03-29T13:56:07Z</time>
      </trkpt>
      <trkpt lat="45.8864" lon="4.73415">
        <ele>184</ele>
        <time>2018-03-29T13:56:08Z</time>
      </trkpt>
      <trkpt lat="45.88639" lon="4.73406">
        <ele>184</ele>
        <time>2018-03-29T13:56:09Z</time>
      </trkpt>
      <trkpt lat="45.88636" lon="4.73397">
        <ele>184</ele>
        <time>2018-03-29T13:56:10Z</time>
      </trkpt>
      <trkpt lat="45.88632" lon="4.73391">
        <ele>183</ele>
        <time>2018-03-29T13:56:11Z</time>
      </trkpt>
      <trkpt lat="45.88626" lon="4.73387">
        <ele>183</ele>
        <time>2018-03-29T13:56:12Z</time>
      </trkpt>
      <trkpt lat="45.88621" lon="4.73385">
        <ele>183</ele>
        <time>2018-03-29T13:56:13Z</time>
      </trkpt>
      <trkpt lat="45.88616" lon="4.73386">
        <ele>183</ele>
        <time>2018-03-29T13:56:14Z</time>
      </trkpt>
      <trkpt lat="45.8861" lon="4.73386">
        <ele>183</ele>
        <time>2018-03-29T13:56:15Z</time>
      </trkpt>
      <trkpt lat="45.88604" lon="4.73388">
        <ele>183</ele>
        <time>2018-03-29T13:56:16Z</time>
      </trkpt>
      <trkpt lat="45.88598" lon="4.7339">
        <ele>183</ele>
        <time>2018-03-29T13:56:17Z</time>
      </trkpt>
      <trkpt lat="45.88594" lon="4.73392">
        <ele>183</ele>
        <time>2018-03-29T13:56:18Z</time>
      </trkpt>
      <trkpt lat="45.88588" lon="4.73393">
        <ele>183</ele>
        <time>2018-03-29T13:56:19Z</time>
      </trkpt>
      <trkpt lat="45.88582" lon="4.73395">
        <ele>183</ele>
        <time>2018-03-29T13:56:20Z</time>
      </trkpt>
      <trkpt lat="45.88577" lon="4.73397">
        <ele>183</ele>
        <time>2018-03-29T13:56:21Z</time>
      </trkpt>
      <trkpt lat="45.88571" lon="4.73398">
        <ele>183</ele>
        <time>2018-03-29T13:56:22Z</time>
      </trkpt>
      <trkpt lat="45.88567" lon="4.73401">
        <ele>183</ele>
        <time>2018-03-29T13:56:23Z</time>
      </trkpt>
      <trkpt lat="45.88561" lon="4.73402">
        <ele>183</ele>
        <time>2018-03-29T13:56:24Z</time>
      </trkpt>
      <trkpt lat="45.88556" lon="4.73404">
        <ele>183</ele>
        <time>2018-03-29T13:56:25Z</time>
      </trkpt>
      <trkpt lat="45.88551" lon="4.73406">
        <ele>183</ele>
        <time>2018-03-29T13:56:26Z</time>
      </trkpt>
      <trkpt lat="45.88545" lon="4.73407">
        <ele>183</ele>
        <time>2018-03-29T13:56:27Z</time>
      </trkpt>
      <trkpt lat="45.88539" lon="4.73408">
        <ele>183</ele>
        <time>2018-03-29T13:56:28Z</time>
      </trkpt>
      <trkpt lat="45.88533" lon="4.73409">
        <ele>183</ele>
        <time>2018-03-29T13:56:29Z</time>
      </trkpt>
      <trkpt lat="45.88528" lon="4.73412">
        <ele>183</ele>
        <time>2018-03-29T13:56:30Z</time>
      </trkpt>
      <trkpt lat="45.88522" lon="4.73414">
        <ele>183</ele>
        <time>2018-03-29T13:56:31Z</time>
      </trkpt>
      <trkpt lat="45.88517" lon="4.73415">
        <ele>184</ele>
        <time>2018-03-29T13:56:32Z</time>
      </trkpt>
      <trkpt lat="45.88512" lon="4.73418">
        <ele>184</ele>
        <time>2018-03-29T13:56:33Z</time>
      </trkpt>
      <trkpt lat="45.88507" lon="4.73419">
        <ele>184</ele>
        <time>2018-03-29T13:56:34Z</time>
      </trkpt>
      <trkpt lat="45.88502" lon="4.73421">
        <ele>184</ele>
        <time>2018-03-29T13:56:35Z</time>
      </trkpt>
      <trkpt lat="45.88497" lon="4.73422">
        <ele>184</ele>
        <time>2018-03-29T13:56:36Z</time>
      </trkpt>
      <trkpt lat="45.88491" lon="4.73423">
        <ele>184</ele>
        <time>2018-03-29T13:56:37Z</time>
      </trkpt>
      <trkpt lat="45.88486" lon="4.73424">
        <ele>184</ele>
        <time>2018-03-29T13:56:38Z</time>
      </trkpt>
      <trkpt lat="45.8848" lon="4.73426">
        <ele>184</ele>
        <time>2018-03-29T13:56:39Z</time>
      </trkpt>
      <trkpt lat="45.88475" lon="4.73427">
        <ele>184</ele>
        <time>2018-03-29T13:56:40Z</time>
      </trkpt>
      <trkpt lat="45.8847" lon="4.73428">
        <ele>184</ele>
        <time>2018-03-29T13:56:41Z</time>
      </trkpt>
      <trkpt lat="45.88465" lon="4.7343">
        <ele>184</ele>
        <time>2018-03-29T13:56:42Z</time>
      </trkpt>
      <trkpt lat="45.8846" lon="4.73432">
        <ele>184</ele>
        <time>2018-03-29T13:56:43Z</time>
      </trkpt>
      <trkpt lat="45.88455" lon="4.73434">
        <ele>184</ele>
        <time>2018-03-29T13:56:44Z</time>
      </trkpt>
      <trkpt lat="45.8845" lon="4.73435">
        <ele>184</ele>
        <time>2018-03-29T13:56:45Z</time>
      </trkpt>
      <trkpt lat="45.88445" lon="4.73437">
        <ele>184</ele>
        <time>2018-03-29T13:56:46Z</time>
      </trkpt>
      <trkpt lat="45.8844" lon="4.73439">
        <ele>184</ele>
        <time>2018-03-29T13:56:47Z</time>
      </trkpt>
      <trkpt lat="45.88435" lon="4.7344">
        <ele>184</ele>
        <time>2018-03-29T13:56:48Z</time>
      </trkpt>
      <trkpt lat="45.8843" lon="4.73441">
        <ele>184</ele>
        <time>2018-03-29T13:56:49Z</time>
      </trkpt>
      <trkpt lat="45.88425" lon="4.73443">
        <ele>184</ele>
        <time>2018-03-29T13:56:50Z</time>
      </trkpt>
      <trkpt lat="45.8842" lon="4.73444">
        <ele>184</ele>
        <time>2018-03-29T13:56:51Z</time>
      </trkpt>
      <trkpt lat="45.88415" lon="4.73446">
        <ele>184</ele>
        <time>2018-03-29T13:56:52Z</time>
      </trkpt>
      <trkpt lat="45.88409" lon="4.73446">
        <ele>184</ele>
        <time>2018-03-29T13:56:53Z</time>
      </trkpt>
      <trkpt lat="45.88404" lon="4.73449">
        <ele>184</ele>
        <time>2018-03-29T13:56:54Z</time>
      </trkpt>
      <trkpt lat="45.88398" lon="4.7345">
        <ele>184</ele>
        <time>2018-03-29T13:56:55Z</time>
      </trkpt>
      <trkpt lat="45.88393" lon="4.73452">
        <ele>184</ele>
        <time>2018-03-29T13:56:56Z</time>
      </trkpt>
      <trkpt lat="45.88388" lon="4.73453">
        <ele>184</ele>
        <time>2018-03-29T13:56:57Z</time>
      </trkpt>
      <trkpt lat="45.88383" lon="4.73454">
        <ele>184</ele>
        <time>2018-03-29T13:56:58Z</time>
      </trkpt>
      <trkpt lat="45.88378" lon="4.73456">
        <ele>184</ele>
        <time>2018-03-29T13:56:59Z</time>
      </trkpt>
      <trkpt lat="45.88373" lon="4.73458">
        <ele>184</ele>
        <time>2018-03-29T13:57:00Z</time>
      </trkpt>
      <trkpt lat="45.88368" lon="4.73459">
        <ele>184</ele>
        <time>2018-03-29T13:57:01Z</time>
      </trkpt>
      <trkpt lat="45.88363" lon="4.7346">
        <ele>184</ele>
        <time>2018-03-29T13:57:02Z</time>
      </trkpt>
      <trkpt lat="45.88357" lon="4.73463">
        <ele>184</ele>
        <time>2018-03-29T13:57:03Z</time>
      </trkpt>
      <trkpt lat="45.88352" lon="4.73464">
        <ele>184</ele>
        <time>2018-03-29T13:57:04Z</time>
      </trkpt>
      <trkpt lat="45.88347" lon="4.73466">
        <ele>184</ele>
        <time>2018-03-29T13:57:05Z</time>
      </trkpt>
      <trkpt lat="45.88342" lon="4.73468">
        <ele>184</ele>
        <time>2018-03-29T13:57:06Z</time>
      </trkpt>
      <trkpt lat="45.88338" lon="4.73469">
        <ele>184</ele>
        <time>2018-03-29T13:57:07Z</time>
      </trkpt>
      <trkpt lat="45.88332" lon="4.7347">
        <ele>184</ele>
        <time>2018-03-29T13:57:08Z</time>
      </trkpt>
      <trkpt lat="45.88325" lon="4.73472">
        <ele>184</ele>
        <time>2018-03-29T13:57:09Z</time>
      </trkpt>
      <trkpt lat="45.8832" lon="4.73473">
        <ele>184</ele>
        <time>2018-03-29T13:57:10Z</time>
      </trkpt>
      <trkpt lat="45.88316" lon="4.73474">
        <ele>184</ele>
        <time>2018-03-29T13:57:11Z</time>
      </trkpt>
      <trkpt lat="45.88311" lon="4.73476">
        <ele>184</ele>
        <time>2018-03-29T13:57:12Z</time>
      </trkpt>
      <trkpt lat="45.88306" lon="4.73478">
        <ele>184</ele>
        <time>2018-03-29T13:57:13Z</time>
      </trkpt>
      <trkpt lat="45.88301" lon="4.7348">
        <ele>184</ele>
        <time>2018-03-29T13:57:14Z</time>
      </trkpt>
      <trkpt lat="45.88297" lon="4.73482">
        <ele>184</ele>
        <time>2018-03-29T13:57:15Z</time>
      </trkpt>
      <trkpt lat="45.88292" lon="4.73485">
        <ele>184</ele>
        <time>2018-03-29T13:57:16Z</time>
      </trkpt>
      <trkpt lat="45.88288" lon="4.73487">
        <ele>184</ele>
        <time>2018-03-29T13:57:17Z</time>
      </trkpt>
      <trkpt lat="45.88284" lon="4.73489">
        <ele>184</ele>
        <time>2018-03-29T13:57:18Z</time>
      </trkpt>
      <trkpt lat="45.88279" lon="4.73492">
        <ele>184</ele>
        <time>2018-03-29T13:57:19Z</time>
      </trkpt>
      <trkpt lat="45.88274" lon="4.73495">
        <ele>184</ele>
        <time>2018-03-29T13:57:20Z</time>
      </trkpt>
      <trkpt lat="45.8827" lon="4.735">
        <ele>184</ele>
        <time>2018-03-29T13:57:21Z</time>
      </trkpt>
      <trkpt lat="45.88265" lon="4.73503">
        <ele>185</ele>
        <time>2018-03-29T13:57:22Z</time>
      </trkpt>
      <trkpt lat="45.8826" lon="4.73506">
        <ele>185</ele>
        <time>2018-03-29T13:57:23Z</time>
      </trkpt>
      <trkpt lat="45.88255" lon="4.7351">
        <ele>185</ele>
        <time>2018-03-29T13:57:24Z</time>
      </trkpt>
      <trkpt lat="45.88251" lon="4.73514">
        <ele>185</ele>
        <time>2018-03-29T13:57:25Z</time>
      </trkpt>
      <trkpt lat="45.88247" lon="4.73516">
        <ele>185</ele>
        <time>2018-03-29T13:57:26Z</time>
      </trkpt>
      <trkpt lat="45.88241" lon="4.73519">
        <ele>185</ele>
        <time>2018-03-29T13:57:27Z</time>
      </trkpt>
      <trkpt lat="45.88237" lon="4.73522">
        <ele>185</ele>
        <time>2018-03-29T13:57:28Z</time>
      </trkpt>
      <trkpt lat="45.88233" lon="4.73525">
        <ele>185</ele>
        <time>2018-03-29T13:57:29Z</time>
      </trkpt>
      <trkpt lat="45.88228" lon="4.73528">
        <ele>185</ele>
        <time>2018-03-29T13:57:30Z</time>
      </trkpt>
      <trkpt lat="45.88224" lon="4.73532">
        <ele>185</ele>
        <time>2018-03-29T13:57:31Z</time>
      </trkpt>
      <trkpt lat="45.88219" lon="4.73535">
        <ele>185</ele>
        <time>2018-03-29T13:57:32Z</time>
      </trkpt>
      <trkpt lat="45.88215" lon="4.73538">
        <ele>185</ele>
        <time>2018-03-29T13:57:33Z</time>
      </trkpt>
      <trkpt lat="45.88211" lon="4.7354">
        <ele>185</ele>
        <time>2018-03-29T13:57:34Z</time>
      </trkpt>
      <trkpt lat="45.88206" lon="4.73543">
        <ele>186</ele>
        <time>2018-03-29T13:57:35Z</time>
      </trkpt>
      <trkpt lat="45.88202" lon="4.73546">
        <ele>186</ele>
        <time>2018-03-29T13:57:36Z</time>
      </trkpt>
      <trkpt lat="45.88197" lon="4.7355">
        <ele>186</ele>
        <time>2018-03-29T13:57:37Z</time>
      </trkpt>
      <trkpt lat="45.88193" lon="4.73554">
        <ele>186</ele>
        <time>2018-03-29T13:57:38Z</time>
      </trkpt>
      <trkpt lat="45.88188" lon="4.73557">
        <ele>186</ele>
        <time>2018-03-29T13:57:39Z</time>
      </trkpt>
      <trkpt lat="45.88184" lon="4.7356">
        <ele>186</ele>
        <time>2018-03-29T13:57:40Z</time>
      </trkpt>
      <trkpt lat="45.88179" lon="4.73563">
        <ele>186</ele>
        <time>2018-03-29T13:57:41Z</time>
      </trkpt>
      <trkpt lat="45.88175" lon="4.73566">
        <ele>186</ele>
        <time>2018-03-29T13:57:42Z</time>
      </trkpt>
      <trkpt lat="45.8817" lon="4.73569">
        <ele>186</ele>
        <time>2018-03-29T13:57:43Z</time>
      </trkpt>
      <trkpt lat="45.88166" lon="4.73572">
        <ele>186</ele>
        <time>2018-03-29T13:57:44Z</time>
      </trkpt>
      <trkpt lat="45.88161" lon="4.73574">
        <ele>186</ele>
        <time>2018-03-29T13:57:45Z</time>
      </trkpt>
      <trkpt lat="45.88156" lon="4.73576">
        <ele>186</ele>
        <time>2018-03-29T13:57:46Z</time>
      </trkpt>
      <trkpt lat="45.88148" lon="4.73581">
        <ele>186</ele>
        <time>2018-03-29T13:57:48Z</time>
      </trkpt>
      <trkpt lat="45.88143" lon="4.73584">
        <ele>187</ele>
        <time>2018-03-29T13:57:49Z</time>
      </trkpt>
      <trkpt lat="45.88139" lon="4.73587">
        <ele>187</ele>
        <time>2018-03-29T13:57:50Z</time>
      </trkpt>
      <trkpt lat="45.88135" lon="4.7359">
        <ele>187</ele>
        <time>2018-03-29T13:57:51Z</time>
      </trkpt>
      <trkpt lat="45.8813" lon="4.73593">
        <ele>187</ele>
        <time>2018-03-29T13:57:52Z</time>
      </trkpt>
      <trkpt lat="45.88125" lon="4.73597">
        <ele>187</ele>
        <time>2018-03-29T13:57:53Z</time>
      </trkpt>
      <trkpt lat="45.88121" lon="4.736">
        <ele>187</ele>
        <time>2018-03-29T13:57:54Z</time>
      </trkpt>
      <trkpt lat="45.88116" lon="4.73603">
        <ele>188</ele>
        <time>2018-03-29T13:57:55Z</time>
      </trkpt>
      <trkpt lat="45.88112" lon="4.73606">
        <ele>188</ele>
        <time>2018-03-29T13:57:56Z</time>
      </trkpt>
      <trkpt lat="45.88107" lon="4.73609">
        <ele>188</ele>
        <time>2018-03-29T13:57:57Z</time>
      </trkpt>
      <trkpt lat="45.88103" lon="4.73611">
        <ele>188</ele>
        <time>2018-03-29T13:57:58Z</time>
      </trkpt>
      <trkpt lat="45.88098" lon="4.73614">
        <ele>188</ele>
        <time>2018-03-29T13:57:59Z</time>
      </trkpt>
      <trkpt lat="45.88093" lon="4.73617">
        <ele>188</ele>
        <time>2018-03-29T13:58:00Z</time>
      </trkpt>
      <trkpt lat="45.88088" lon="4.73619">
        <ele>188</ele>
        <time>2018-03-29T13:58:01Z</time>
      </trkpt>
      <trkpt lat="45.88084" lon="4.73622">
        <ele>188</ele>
        <time>2018-03-29T13:58:02Z</time>
      </trkpt>
      <trkpt lat="45.88079" lon="4.73625">
        <ele>189</ele>
        <time>2018-03-29T13:58:03Z</time>
      </trkpt>
      <trkpt lat="45.88073" lon="4.73628">
        <ele>189</ele>
        <time>2018-03-29T13:58:04Z</time>
      </trkpt>
      <trkpt lat="45.88069" lon="4.73631">
        <ele>189</ele>
        <time>2018-03-29T13:58:05Z</time>
      </trkpt>
      <trkpt lat="45.88065" lon="4.73634">
        <ele>189</ele>
        <time>2018-03-29T13:58:06Z</time>
      </trkpt>
      <trkpt lat="45.8806" lon="4.73636">
        <ele>189</ele>
        <time>2018-03-29T13:58:07Z</time>
      </trkpt>
      <trkpt lat="45.88055" lon="4.73639">
        <ele>189</ele>
        <time>2018-03-29T13:58:08Z</time>
      </trkpt>
      <trkpt lat="45.88051" lon="4.73642">
        <ele>189</ele>
        <time>2018-03-29T13:58:09Z</time>
      </trkpt>
      <trkpt lat="45.88045" lon="4.73645">
        <ele>189</ele>
        <time>2018-03-29T13:58:10Z</time>
      </trkpt>
      <trkpt lat="45.88041" lon="4.73648">
        <ele>189</ele>
        <time>2018-03-29T13:58:11Z</time>
      </trkpt>
      <trkpt lat="45.88036" lon="4.7365">
        <ele>189</ele>
        <time>2018-03-29T13:58:12Z</time>
      </trkpt>
      <trkpt lat="45.88031" lon="4.73653">
        <ele>189</ele>
        <time>2018-03-29T13:58:13Z</time>
      </trkpt>
      <trkpt lat="45.88025" lon="4.73655">
        <ele>189</ele>
        <time>2018-03-29T13:58:14Z</time>
      </trkpt>
      <trkpt lat="45.8802" lon="4.73656">
        <ele>189</ele>
        <time>2018-03-29T13:58:15Z</time>
      </trkpt>
      <trkpt lat="45.88014" lon="4.73655">
        <ele>189</ele>
        <time>2018-03-29T13:58:16Z</time>
      </trkpt>
      <trkpt lat="45.88009" lon="4.73654">
        <ele>189</ele>
        <time>2018-03-29T13:58:17Z</time>
      </trkpt>
      <trkpt lat="45.88003" lon="4.73652">
        <ele>189</ele>
        <time>2018-03-29T13:58:18Z</time>
      </trkpt>
      <trkpt lat="45.87997" lon="4.73652">
        <ele>190</ele>
        <time>2018-03-29T13:58:19Z</time>
      </trkpt>
      <trkpt lat="45.87992" lon="4.7365">
        <ele>190</ele>
        <time>2018-03-29T13:58:20Z</time>
      </trkpt>
      <trkpt lat="45.87988" lon="4.73648">
        <ele>190</ele>
        <time>2018-03-29T13:58:21Z</time>
      </trkpt>
      <trkpt lat="45.87983" lon="4.73646">
        <ele>190</ele>
        <time>2018-03-29T13:58:22Z</time>
      </trkpt>
      <trkpt lat="45.87978" lon="4.73644">
        <ele>189</ele>
        <time>2018-03-29T13:58:23Z</time>
      </trkpt>
      <trkpt lat="45.87973" lon="4.73642">
        <ele>189</ele>
        <time>2018-03-29T13:58:24Z</time>
      </trkpt>
      <trkpt lat="45.87968" lon="4.7364">
        <ele>189</ele>
        <time>2018-03-29T13:58:25Z</time>
      </trkpt>
      <trkpt lat="45.87963" lon="4.73638">
        <ele>189</ele>
        <time>2018-03-29T13:58:26Z</time>
      </trkpt>
      <trkpt lat="45.87958" lon="4.73636">
        <ele>189</ele>
        <time>2018-03-29T13:58:27Z</time>
      </trkpt>
      <trkpt lat="45.87953" lon="4.73635">
        <ele>189</ele>
        <time>2018-03-29T13:58:28Z</time>
      </trkpt>
      <trkpt lat="45.87947" lon="4.73633">
        <ele>189</ele>
        <time>2018-03-29T13:58:29Z</time>
      </trkpt>
      <trkpt lat="45.87941" lon="4.73633">
        <ele>189</ele>
        <time>2018-03-29T13:58:30Z</time>
      </trkpt>
      <trkpt lat="45.87936" lon="4.73631">
        <ele>189</ele>
        <time>2018-03-29T13:58:31Z</time>
      </trkpt>
      <trkpt lat="45.87931" lon="4.7363">
        <ele>189</ele>
        <time>2018-03-29T13:58:32Z</time>
      </trkpt>
      <trkpt lat="45.87925" lon="4.73628">
        <ele>189</ele>
        <time>2018-03-29T13:58:33Z</time>
      </trkpt>
      <trkpt lat="45.8792" lon="4.73626">
        <ele>189</ele>
        <time>2018-03-29T13:58:34Z</time>
      </trkpt>
      <trkpt lat="45.87914" lon="4.73625">
        <ele>190</ele>
        <time>2018-03-29T13:58:35Z</time>
      </trkpt>
      <trkpt lat="45.87908" lon="4.73624">
        <ele>190</ele>
        <time>2018-03-29T13:58:36Z</time>
      </trkpt>
      <trkpt lat="45.87902" lon="4.73623">
        <ele>190</ele>
        <time>2018-03-29T13:58:37Z</time>
      </trkpt>
      <trkpt lat="45.87897" lon="4.73621">
        <ele>190</ele>
        <time>2018-03-29T13:58:38Z</time>
      </trkpt>
      <trkpt lat="45.87891" lon="4.73619">
        <ele>190</ele>
        <time>2018-03-29T13:58:39Z</time>
      </trkpt>
      <trkpt lat="45.87886" lon="4.73617">
        <ele>190</ele>
        <time>2018-03-29T13:58:40Z</time>
      </trkpt>
      <trkpt lat="45.87882" lon="4.73615">
        <ele>190</ele>
        <time>2018-03-29T13:58:41Z</time>
      </trkpt>
      <trkpt lat="45.87876" lon="4.73614">
        <ele>190</ele>
        <time>2018-03-29T13:58:42Z</time>
      </trkpt>
      <trkpt lat="45.87871" lon="4.73615">
        <ele>190</ele>
        <time>2018-03-29T13:58:43Z</time>
      </trkpt>
      <trkpt lat="45.87863" lon="4.73619">
        <ele>190</ele>
        <time>2018-03-29T13:58:45Z</time>
      </trkpt>
      <trkpt lat="45.87858" lon="4.73623">
        <ele>190</ele>
        <time>2018-03-29T13:58:46Z</time>
      </trkpt>
      <trkpt lat="45.87854" lon="4.73627">
        <ele>190</ele>
        <time>2018-03-29T13:58:47Z</time>
      </trkpt>
      <trkpt lat="45.8785" lon="4.73631">
        <ele>191</ele>
        <time>2018-03-29T13:58:48Z</time>
      </trkpt>
      <trkpt lat="45.87842" lon="4.73633">
        <ele>191</ele>
        <time>2018-03-29T13:58:51Z</time>
      </trkpt>
      <trkpt lat="45.87839" lon="4.73631">
        <ele>191</ele>
        <time>2018-03-29T13:58:52Z</time>
      </trkpt>
      <trkpt lat="45.87832" lon="4.73624">
        <ele>190</ele>
        <time>2018-03-29T13:58:54Z</time>
      </trkpt>
      <trkpt lat="45.8783" lon="4.73619">
        <ele>190</ele>
        <time>2018-03-29T13:58:55Z</time>
      </trkpt>
      <trkpt lat="45.87827" lon="4.73608">
        <ele>190</ele>
        <time>2018-03-29T13:58:57Z</time>
      </trkpt>
      <trkpt lat="45.87825" lon="4.73602">
        <ele>190</ele>
        <time>2018-03-29T13:58:58Z</time>
      </trkpt>
      <trkpt lat="45.87822" lon="4.73597">
        <ele>190</ele>
        <time>2018-03-29T13:58:59Z</time>
      </trkpt>
      <trkpt lat="45.87819" lon="4.7359">
        <ele>190</ele>
        <time>2018-03-29T13:59:00Z</time>
      </trkpt>
      <trkpt lat="45.87816" lon="4.73585">
        <ele>190</ele>
        <time>2018-03-29T13:59:01Z</time>
      </trkpt>
      <trkpt lat="45.87814" lon="4.73579">
        <ele>189</ele>
        <time>2018-03-29T13:59:02Z</time>
      </trkpt>
      <trkpt lat="45.87811" lon="4.73572">
        <ele>189</ele>
        <time>2018-03-29T13:59:03Z</time>
      </trkpt>
      <trkpt lat="45.87807" lon="4.73566">
        <ele>189</ele>
        <time>2018-03-29T13:59:04Z</time>
      </trkpt>
      <trkpt lat="45.87805" lon="4.73558">
        <ele>189</ele>
        <time>2018-03-29T13:59:05Z</time>
      </trkpt>
      <trkpt lat="45.87802" lon="4.73552">
        <ele>189</ele>
        <time>2018-03-29T13:59:06Z</time>
      </trkpt>
      <trkpt lat="45.87799" lon="4.73545">
        <ele>189</ele>
        <time>2018-03-29T13:59:07Z</time>
      </trkpt>
      <trkpt lat="45.87795" lon="4.73538">
        <ele>189</ele>
        <time>2018-03-29T13:59:08Z</time>
      </trkpt>
      <trkpt lat="45.87791" lon="4.73532">
        <ele>189</ele>
        <time>2018-03-29T13:59:09Z</time>
      </trkpt>
      <trkpt lat="45.87787" lon="4.73525">
        <ele>189</ele>
        <time>2018-03-29T13:59:10Z</time>
      </trkpt>
      <trkpt lat="45.87783" lon="4.73519">
        <ele>189</ele>
        <time>2018-03-29T13:59:11Z</time>
      </trkpt>
      <trkpt lat="45.8778" lon="4.7351">
        <ele>189</ele>
        <time>2018-03-29T13:59:12Z</time>
      </trkpt>
      <trkpt lat="45.87777" lon="4.73503">
        <ele>189</ele>
        <time>2018-03-29T13:59:13Z</time>
      </trkpt>
      <trkpt lat="45.87774" lon="4.73496">
        <ele>188</ele>
        <time>2018-03-29T13:59:14Z</time>
      </trkpt>
      <trkpt lat="45.8777" lon="4.7349">
        <ele>189</ele>
        <time>2018-03-29T13:59:15Z</time>
      </trkpt>
      <trkpt lat="45.87766" lon="4.73483">
        <ele>188</ele>
        <time>2018-03-29T13:59:16Z</time>
      </trkpt>
      <trkpt lat="45.87763" lon="4.73476">
        <ele>188</ele>
        <time>2018-03-29T13:59:17Z</time>
      </trkpt>
      <trkpt lat="45.87759" lon="4.73469">
        <ele>188</ele>
        <time>2018-03-29T13:59:18Z</time>
      </trkpt>
      <trkpt lat="45.87755" lon="4.73461">
        <ele>188</ele>
        <time>2018-03-29T13:59:19Z</time>
      </trkpt>
      <trkpt lat="45.87752" lon="4.73454">
        <ele>188</ele>
        <time>2018-03-29T13:59:20Z</time>
      </trkpt>
      <trkpt lat="45.87749" lon="4.73448">
        <ele>189</ele>
        <time>2018-03-29T13:59:21Z</time>
      </trkpt>
      <trkpt lat="45.87746" lon="4.73441">
        <ele>189</ele>
        <time>2018-03-29T13:59:22Z</time>
      </trkpt>
      <trkpt lat="45.87743" lon="4.73434">
        <ele>188</ele>
        <time>2018-03-29T13:59:23Z</time>
      </trkpt>
      <trkpt lat="45.87739" lon="4.73427">
        <ele>188</ele>
        <time>2018-03-29T13:59:24Z</time>
      </trkpt>
      <trkpt lat="45.87736" lon="4.7342">
        <ele>188</ele>
        <time>2018-03-29T13:59:25Z</time>
      </trkpt>
      <trkpt lat="45.87732" lon="4.73412">
        <ele>188</ele>
        <time>2018-03-29T13:59:26Z</time>
      </trkpt>
      <trkpt lat="45.87729" lon="4.73405">
        <ele>188</ele>
        <time>2018-03-29T13:59:27Z</time>
      </trkpt>
      <trkpt lat="45.87726" lon="4.73398">
        <ele>188</ele>
        <time>2018-03-29T13:59:28Z</time>
      </trkpt>
      <trkpt lat="45.87722" lon="4.73391">
        <ele>188</ele>
        <time>2018-03-29T13:59:29Z</time>
      </trkpt>
      <trkpt lat="45.87718" lon="4.73385">
        <ele>188</ele>
        <time>2018-03-29T13:59:30Z</time>
      </trkpt>
      <trkpt lat="45.87714" lon="4.73378">
        <ele>187</ele>
        <time>2018-03-29T13:59:31Z</time>
      </trkpt>
      <trkpt lat="45.87711" lon="4.73371">
        <ele>187</ele>
        <time>2018-03-29T13:59:32Z</time>
      </trkpt>
      <trkpt lat="45.87707" lon="4.73365">
        <ele>187</ele>
        <time>2018-03-29T13:59:33Z</time>
      </trkpt>
      <trkpt lat="45.87704" lon="4.73358">
        <ele>187</ele>
        <time>2018-03-29T13:59:34Z</time>
      </trkpt>
      <trkpt lat="45.877" lon="4.7335">
        <ele>187</ele>
        <time>2018-03-29T13:59:35Z</time>
      </trkpt>
      <trkpt lat="45.87698" lon="4.73342">
        <ele>187</ele>
        <time>2018-03-29T13:59:36Z</time>
      </trkpt>
      <trkpt lat="45.87695" lon="4.73334">
        <ele>188</ele>
        <time>2018-03-29T13:59:37Z</time>
      </trkpt>
      <trkpt lat="45.87691" lon="4.73328">
        <ele>188</ele>
        <time>2018-03-29T13:59:38Z</time>
      </trkpt>
      <trkpt lat="45.87688" lon="4.73322">
        <ele>188</ele>
        <time>2018-03-29T13:59:39Z</time>
      </trkpt>
      <trkpt lat="45.87685" lon="4.73316">
        <ele>188</ele>
        <time>2018-03-29T13:59:40Z</time>
      </trkpt>
      <trkpt lat="45.87681" lon="4.73311">
        <ele>188</ele>
        <time>2018-03-29T13:59:41Z</time>
      </trkpt>
      <trkpt lat="45.87678" lon="4.73306">
        <ele>188</ele>
        <time>2018-03-29T13:59:42Z</time>
      </trkpt>
      <trkpt lat="45.87676" lon="4.733">
        <ele>188</ele>
        <time>2018-03-29T13:59:43Z</time>
      </trkpt>
      <trkpt lat="45.87673" lon="4.73293">
        <ele>188</ele>
        <time>2018-03-29T13:59:44Z</time>
      </trkpt>
      <trkpt lat="45.87669" lon="4.73287">
        <ele>188</ele>
        <time>2018-03-29T13:59:45Z</time>
      </trkpt>
      <trkpt lat="45.87666" lon="4.7328">
        <ele>189</ele>
        <time>2018-03-29T13:59:46Z</time>
      </trkpt>
      <trkpt lat="45.87664" lon="4.73275">
        <ele>189</ele>
        <time>2018-03-29T13:59:47Z</time>
      </trkpt>
      <trkpt lat="45.87661" lon="4.73269">
        <ele>189</ele>
        <time>2018-03-29T13:59:48Z</time>
      </trkpt>
      <trkpt lat="45.87658" lon="4.73262">
        <ele>189</ele>
        <time>2018-03-29T13:59:49Z</time>
      </trkpt>
      <trkpt lat="45.87655" lon="4.73255">
        <ele>189</ele>
        <time>2018-03-29T13:59:50Z</time>
      </trkpt>
      <trkpt lat="45.87652" lon="4.73249">
        <ele>188</ele>
        <time>2018-03-29T13:59:51Z</time>
      </trkpt>
      <trkpt lat="45.87648" lon="4.73243">
        <ele>188</ele>
        <time>2018-03-29T13:59:52Z</time>
      </trkpt>
      <trkpt lat="45.87644" lon="4.73235">
        <ele>188</ele>
        <time>2018-03-29T13:59:53Z</time>
      </trkpt>
      <trkpt lat="45.87641" lon="4.73229">
        <ele>188</ele>
        <time>2018-03-29T13:59:54Z</time>
      </trkpt>
      <trkpt lat="45.87638" lon="4.73222">
        <ele>188</ele>
        <time>2018-03-29T13:59:55Z</time>
      </trkpt>
      <trkpt lat="45.87635" lon="4.73215">
        <ele>188</ele>
        <time>2018-03-29T13:59:56Z</time>
      </trkpt>
      <trkpt lat="45.87632" lon="4.73207">
        <ele>188</ele>
        <time>2018-03-29T13:59:57Z</time>
      </trkpt>
      <trkpt lat="45.87628" lon="4.732">
        <ele>188</ele>
        <time>2018-03-29T13:59:58Z</time>
      </trkpt>
      <trkpt lat="45.87617" lon="4.73179">
        <ele>187</ele>
        <time>2018-03-29T14:00:01Z</time>
      </trkpt>
      <trkpt lat="45.87614" lon="4.73171">
        <ele>187</ele>
        <time>2018-03-29T14:00:02Z</time>
      </trkpt>
      <trkpt lat="45.8761" lon="4.73164">
        <ele>187</ele>
        <time>2018-03-29T14:00:03Z</time>
      </trkpt>
      <trkpt lat="45.87607" lon="4.73158">
        <ele>187</ele>
        <time>2018-03-29T14:00:04Z</time>
      </trkpt>
      <trkpt lat="45.87605" lon="4.7315">
        <ele>187</ele>
        <time>2018-03-29T14:00:05Z</time>
      </trkpt>
      <trkpt lat="45.87601" lon="4.73142">
        <ele>187</ele>
        <time>2018-03-29T14:00:06Z</time>
      </trkpt>
      <trkpt lat="45.87598" lon="4.73135">
        <ele>187</ele>
        <time>2018-03-29T14:00:07Z</time>
      </trkpt>
      <trkpt lat="45.87594" lon="4.73128">
        <ele>187</ele>
        <time>2018-03-29T14:00:08Z</time>
      </trkpt>
      <trkpt lat="45.8759" lon="4.7312">
        <ele>188</ele>
        <time>2018-03-29T14:00:09Z</time>
      </trkpt>
      <trkpt lat="45.87586" lon="4.73112">
        <ele>188</ele>
        <time>2018-03-29T14:00:10Z</time>
      </trkpt>
      <trkpt lat="45.87583" lon="4.73105">
        <ele>188</ele>
        <time>2018-03-29T14:00:11Z</time>
      </trkpt>
      <trkpt lat="45.87579" lon="4.73098">
        <ele>188</ele>
        <time>2018-03-29T14:00:12Z</time>
      </trkpt>
      <trkpt lat="45.87575" lon="4.73091">
        <ele>188</ele>
        <time>2018-03-29T14:00:13Z</time>
      </trkpt>
      <trkpt lat="45.87571" lon="4.73084">
        <ele>188</ele>
        <time>2018-03-29T14:00:14Z</time>
      </trkpt>
      <trkpt lat="45.87568" lon="4.73077">
        <ele>188</ele>
        <time>2018-03-29T14:00:15Z</time>
      </trkpt>
      <trkpt lat="45.87564" lon="4.73069">
        <ele>188</ele>
        <time>2018-03-29T14:00:16Z</time>
      </trkpt>
      <trkpt lat="45.87561" lon="4.73062">
        <ele>188</ele>
        <time>2018-03-29T14:00:17Z</time>
      </trkpt>
      <trkpt lat="45.87558" lon="4.73054">
        <ele>188</ele>
        <time>2018-03-29T14:00:18Z</time>
      </trkpt>
      <trkpt lat="45.87553" lon="4.73047">
        <ele>188</ele>
        <time>2018-03-29T14:00:19Z</time>
      </trkpt>
      <trkpt lat="45.8755" lon="4.73039">
        <ele>188</ele>
        <time>2018-03-29T14:00:20Z</time>
      </trkpt>
      <trkpt lat="45.87547" lon="4.73032">
        <ele>188</ele>
        <time>2018-03-29T14:00:21Z</time>
      </trkpt>
      <trkpt lat="45.87544" lon="4.73023">
        <ele>188</ele>
        <time>2018-03-29T14:00:22Z</time>
      </trkpt>
      <trkpt lat="45.8754" lon="4.73016">
        <ele>187</ele>
        <time>2018-03-29T14:00:23Z</time>
      </trkpt>
      <trkpt lat="45.87537" lon="4.73008">
        <ele>187</ele>
        <time>2018-03-29T14:00:24Z</time>
      </trkpt>
      <trkpt lat="45.87533" lon="4.73002">
        <ele>187</ele>
        <time>2018-03-29T14:00:25Z</time>
      </trkpt>
      <trkpt lat="45.8753" lon="4.72995">
        <ele>187</ele>
        <time>2018-03-29T14:00:26Z</time>
      </trkpt>
      <trkpt lat="45.87527" lon="4.72988">
        <ele>187</ele>
        <time>2018-03-29T14:00:27Z</time>
      </trkpt>
      <trkpt lat="45.87524" lon="4.7298">
        <ele>187</ele>
        <time>2018-03-29T14:00:28Z</time>
      </trkpt>
      <trkpt lat="45.8752" lon="4.72973">
        <ele>187</ele>
        <time>2018-03-29T14:00:29Z</time>
      </trkpt>
      <trkpt lat="45.87516" lon="4.72966">
        <ele>187</ele>
        <time>2018-03-29T14:00:30Z</time>
      </trkpt>
      <trkpt lat="45.87511" lon="4.7296">
        <ele>187</ele>
        <time>2018-03-29T14:00:31Z</time>
      </trkpt>
      <trkpt lat="45.87507" lon="4.72954">
        <ele>187</ele>
        <time>2018-03-29T14:00:32Z</time>
      </trkpt>
      <trkpt lat="45.87503" lon="4.72949">
        <ele>187</ele>
        <time>2018-03-29T14:00:33Z</time>
      </trkpt>
      <trkpt lat="45.87498" lon="4.72944">
        <ele>188</ele>
        <time>2018-03-29T14:00:34Z</time>
      </trkpt>
      <trkpt lat="45.87493" lon="4.7294">
        <ele>188</ele>
        <time>2018-03-29T14:00:35Z</time>
      </trkpt>
      <trkpt lat="45.87488" lon="4.72937">
        <ele>188</ele>
        <time>2018-03-29T14:00:36Z</time>
      </trkpt>
      <trkpt lat="45.87483" lon="4.72934">
        <ele>188</ele>
        <time>2018-03-29T14:00:37Z</time>
      </trkpt>
      <trkpt lat="45.87478" lon="4.7293">
        <ele>188</ele>
        <time>2018-03-29T14:00:38Z</time>
      </trkpt>
      <trkpt lat="45.87474" lon="4.72925">
        <ele>188</ele>
        <time>2018-03-29T14:00:39Z</time>
      </trkpt>
      <trkpt lat="45.87471" lon="4.72919">
        <ele>188</ele>
        <time>2018-03-29T14:00:40Z</time>
      </trkpt>
      <trkpt lat="45.87468" lon="4.72913">
        <ele>188</ele>
        <time>2018-03-29T14:00:41Z</time>
      </trkpt>
      <trkpt lat="45.87465" lon="4.72901">
        <ele>188</ele>
        <time>2018-03-29T14:00:43Z</time>
      </trkpt>
      <trkpt lat="45.87464" lon="4.72894">
        <ele>188</ele>
        <time>2018-03-29T14:00:44Z</time>
      </trkpt>
      <trkpt lat="45.8746" lon="4.72884">
        <ele>188</ele>
        <time>2018-03-29T14:00:46Z</time>
      </trkpt>
      <trkpt lat="45.87459" lon="4.72878">
        <ele>188</ele>
        <time>2018-03-29T14:00:47Z</time>
      </trkpt>
      <trkpt lat="45.87457" lon="4.72871">
        <ele>188</ele>
        <time>2018-03-29T14:00:48Z</time>
      </trkpt>
      <trkpt lat="45.87455" lon="4.72864">
        <ele>188</ele>
        <time>2018-03-29T14:00:49Z</time>
      </trkpt>
      <trkpt lat="45.87452" lon="4.72857">
        <ele>188</ele>
        <time>2018-03-29T14:00:50Z</time>
      </trkpt>
      <trkpt lat="45.8745" lon="4.7285">
        <ele>188</ele>
        <time>2018-03-29T14:00:51Z</time>
      </trkpt>
      <trkpt lat="45.87447" lon="4.72843">
        <ele>188</ele>
        <time>2018-03-29T14:00:52Z</time>
      </trkpt>
      <trkpt lat="45.87443" lon="4.72837">
        <ele>188</ele>
        <time>2018-03-29T14:00:53Z</time>
      </trkpt>
      <trkpt lat="45.87441" lon="4.72831">
        <ele>189</ele>
        <time>2018-03-29T14:00:54Z</time>
      </trkpt>
      <trkpt lat="45.87438" lon="4.72824">
        <ele>189</ele>
        <time>2018-03-29T14:00:55Z</time>
      </trkpt>
      <trkpt lat="45.87434" lon="4.72817">
        <ele>189</ele>
        <time>2018-03-29T14:00:56Z</time>
      </trkpt>
      <trkpt lat="45.87432" lon="4.72811">
        <ele>189</ele>
        <time>2018-03-29T14:00:57Z</time>
      </trkpt>
      <trkpt lat="45.87429" lon="4.72804">
        <ele>189</ele>
        <time>2018-03-29T14:00:58Z</time>
      </trkpt>
      <trkpt lat="45.87426" lon="4.72797">
        <ele>189</ele>
        <time>2018-03-29T14:00:59Z</time>
      </trkpt>
      <trkpt lat="45.87423" lon="4.7279">
        <ele>189</ele>
        <time>2018-03-29T14:01:00Z</time>
      </trkpt>
      <trkpt lat="45.8742" lon="4.72783">
        <ele>189</ele>
        <time>2018-03-29T14:01:01Z</time>
      </trkpt>
      <trkpt lat="45.87416" lon="4.72778">
        <ele>189</ele>
        <time>2018-03-29T14:01:02Z</time>
      </trkpt>
      <trkpt lat="45.87413" lon="4.7277">
        <ele>189</ele>
        <time>2018-03-29T14:01:03Z</time>
      </trkpt>
      <trkpt lat="45.8741" lon="4.72764">
        <ele>189</ele>
        <time>2018-03-29T14:01:04Z</time>
      </trkpt>
      <trkpt lat="45.87407" lon="4.72758">
        <ele>189</ele>
        <time>2018-03-29T14:01:05Z</time>
      </trkpt>
      <trkpt lat="45.87404" lon="4.72752">
        <ele>189</ele>
        <time>2018-03-29T14:01:06Z</time>
      </trkpt>
      <trkpt lat="45.874" lon="4.72746">
        <ele>189</ele>
        <time>2018-03-29T14:01:07Z</time>
      </trkpt>
      <trkpt lat="45.87397" lon="4.72741">
        <ele>189</ele>
        <time>2018-03-29T14:01:08Z</time>
      </trkpt>
      <trkpt lat="45.87392" lon="4.72737">
        <ele>190</ele>
        <time>2018-03-29T14:01:09Z</time>
      </trkpt>
      <trkpt lat="45.87386" lon="4.72728">
        <ele>190</ele>
        <time>2018-03-29T14:01:11Z</time>
      </trkpt>
      <trkpt lat="45.87385" lon="4.7272">
        <ele>190</ele>
        <time>2018-03-29T14:01:12Z</time>
      </trkpt>
      <trkpt lat="45.87383" lon="4.72713">
        <ele>190</ele>
        <time>2018-03-29T14:01:13Z</time>
      </trkpt>
      <trkpt lat="45.87382" lon="4.72706">
        <ele>190</ele>
        <time>2018-03-29T14:01:14Z</time>
      </trkpt>
      <trkpt lat="45.87378" lon="4.72702">
        <ele>190</ele>
        <time>2018-03-29T14:01:15Z</time>
      </trkpt>
      <trkpt lat="45.87373" lon="4.72696">
        <ele>190</ele>
        <time>2018-03-29T14:01:16Z</time>
      </trkpt>
      <trkpt lat="45.8737" lon="4.7269">
        <ele>190</ele>
        <time>2018-03-29T14:01:17Z</time>
      </trkpt>
      <trkpt lat="45.87365" lon="4.72685">
        <ele>190</ele>
        <time>2018-03-29T14:01:18Z</time>
      </trkpt>
      <trkpt lat="45.87361" lon="4.72681">
        <ele>190</ele>
        <time>2018-03-29T14:01:19Z</time>
      </trkpt>
      <trkpt lat="45.87357" lon="4.72676">
        <ele>190</ele>
        <time>2018-03-29T14:01:20Z</time>
      </trkpt>
      <trkpt lat="45.87352" lon="4.72672">
        <ele>190</ele>
        <time>2018-03-29T14:01:21Z</time>
      </trkpt>
      <trkpt lat="45.87346" lon="4.72669">
        <ele>190</ele>
        <time>2018-03-29T14:01:22Z</time>
      </trkpt>
      <trkpt lat="45.87342" lon="4.72665">
        <ele>190</ele>
        <time>2018-03-29T14:01:23Z</time>
      </trkpt>
      <trkpt lat="45.87337" lon="4.72661">
        <ele>190</ele>
        <time>2018-03-29T14:01:24Z</time>
      </trkpt>
      <trkpt lat="45.87332" lon="4.72657">
        <ele>191</ele>
        <time>2018-03-29T14:01:25Z</time>
      </trkpt>
      <trkpt lat="45.87328" lon="4.72651">
        <ele>192</ele>
        <time>2018-03-29T14:01:26Z</time>
      </trkpt>
      <trkpt lat="45.87324" lon="4.72647">
        <ele>192</ele>
        <time>2018-03-29T14:01:27Z</time>
      </trkpt>
      <trkpt lat="45.8732" lon="4.72642">
        <ele>193</ele>
        <time>2018-03-29T14:01:28Z</time>
      </trkpt>
      <trkpt lat="45.87315" lon="4.72637">
        <ele>193</ele>
        <time>2018-03-29T14:01:29Z</time>
      </trkpt>
      <trkpt lat="45.87311" lon="4.72631">
        <ele>193</ele>
        <time>2018-03-29T14:01:30Z</time>
      </trkpt>
      <trkpt lat="45.87307" lon="4.72625">
        <ele>193</ele>
        <time>2018-03-29T14:01:31Z</time>
      </trkpt>
      <trkpt lat="45.87303" lon="4.7262">
        <ele>193</ele>
        <time>2018-03-29T14:01:32Z</time>
      </trkpt>
      <trkpt lat="45.87297" lon="4.72617">
        <ele>194</ele>
        <time>2018-03-29T14:01:33Z</time>
      </trkpt>
      <trkpt lat="45.87292" lon="4.72613">
        <ele>194</ele>
        <time>2018-03-29T14:01:34Z</time>
      </trkpt>
      <trkpt lat="45.87289" lon="4.72608">
        <ele>194</ele>
        <time>2018-03-29T14:01:35Z</time>
      </trkpt>
      <trkpt lat="45.87286" lon="4.72603">
        <ele>194</ele>
        <time>2018-03-29T14:01:36Z</time>
      </trkpt>
      <trkpt lat="45.87283" lon="4.72597">
        <ele>194</ele>
        <time>2018-03-29T14:01:37Z</time>
      </trkpt>
      <trkpt lat="45.87279" lon="4.72592">
        <ele>195</ele>
        <time>2018-03-29T14:01:38Z</time>
      </trkpt>
      <trkpt lat="45.87276" lon="4.72586">
        <ele>195</ele>
        <time>2018-03-29T14:01:39Z</time>
      </trkpt>
      <trkpt lat="45.87272" lon="4.72581">
        <ele>195</ele>
        <time>2018-03-29T14:01:40Z</time>
      </trkpt>
      <trkpt lat="45.87268" lon="4.7257">
        <ele>195</ele>
        <time>2018-03-29T14:01:42Z</time>
      </trkpt>
      <trkpt lat="45.87265" lon="4.72566">
        <ele>195</ele>
        <time>2018-03-29T14:01:43Z</time>
      </trkpt>
      <trkpt lat="45.87261" lon="4.72555">
        <ele>194</ele>
        <time>2018-03-29T14:01:47Z</time>
      </trkpt>
      <trkpt lat="45.87261" lon="4.72552">
        <ele>194</ele>
        <time>2018-03-29T14:01:48Z</time>
      </trkpt>
      <trkpt lat="45.87255" lon="4.72542">
        <ele>194</ele>
        <time>2018-03-29T14:01:52Z</time>
      </trkpt>
      <trkpt lat="45.87254" lon="4.72539">
        <ele>194</ele>
        <time>2018-03-29T14:01:53Z</time>
      </trkpt>
      <trkpt lat="45.87252" lon="4.72532">
        <ele>193</ele>
        <time>2018-03-29T14:01:55Z</time>
      </trkpt>
      <trkpt lat="45.87248" lon="4.72522">
        <ele>196</ele>
        <time>2018-03-29T14:01:56Z</time>
      </trkpt>
      <trkpt lat="45.87243" lon="4.72513">
        <ele>195</ele>
        <time>2018-03-29T14:01:58Z</time>
      </trkpt>
      <trkpt lat="45.8724" lon="4.72509">
        <ele>195</ele>
        <time>2018-03-29T14:01:59Z</time>
      </trkpt>
      <trkpt lat="45.87234" lon="4.725">
        <ele>196</ele>
        <time>2018-03-29T14:02:01Z</time>
      </trkpt>
      <trkpt lat="45.87231" lon="4.72496">
        <ele>194</ele>
        <time>2018-03-29T14:02:02Z</time>
      </trkpt>
      <trkpt lat="45.87224" lon="4.72487">
        <ele>194</ele>
        <time>2018-03-29T14:02:04Z</time>
      </trkpt>
      <trkpt lat="45.87221" lon="4.72483">
        <ele>194</ele>
        <time>2018-03-29T14:02:05Z</time>
      </trkpt>
      <trkpt lat="45.87216" lon="4.72476">
        <ele>194</ele>
        <time>2018-03-29T14:02:07Z</time>
      </trkpt>
      <trkpt lat="45.87213" lon="4.72471">
        <ele>194</ele>
        <time>2018-03-29T14:02:08Z</time>
      </trkpt>
      <trkpt lat="45.87207" lon="4.72462">
        <ele>194</ele>
        <time>2018-03-29T14:02:10Z</time>
      </trkpt>
      <trkpt lat="45.87203" lon="4.72458">
        <ele>194</ele>
        <time>2018-03-29T14:02:11Z</time>
      </trkpt>
      <trkpt lat="45.87198" lon="4.72449">
        <ele>194</ele>
        <time>2018-03-29T14:02:13Z</time>
      </trkpt>
      <trkpt lat="45.87196" lon="4.72445">
        <ele>194</ele>
        <time>2018-03-29T14:02:14Z</time>
      </trkpt>
      <trkpt lat="45.87191" lon="4.72436">
        <ele>194</ele>
        <time>2018-03-29T14:02:16Z</time>
      </trkpt>
      <trkpt lat="45.8719" lon="4.72434">
        <ele>194</ele>
        <time>2018-03-29T14:02:17Z</time>
      </trkpt>
      <trkpt lat="45.87185" lon="4.72427">
        <ele>194</ele>
        <time>2018-03-29T14:02:20Z</time>
      </trkpt>
      <trkpt lat="45.87183" lon="4.72424">
        <ele>194</ele>
        <time>2018-03-29T14:02:21Z</time>
      </trkpt>
      <trkpt lat="45.87176" lon="4.72417">
        <ele>194</ele>
        <time>2018-03-29T14:02:22Z</time>
      </trkpt>
      <trkpt lat="45.87174" lon="4.72413">
        <ele>193</ele>
        <time>2018-03-29T14:02:23Z</time>
      </trkpt>
      <trkpt lat="45.87169" lon="4.72404">
        <ele>192</ele>
        <time>2018-03-29T14:02:25Z</time>
      </trkpt>
      <trkpt lat="45.87167" lon="4.72398">
        <ele>196</ele>
        <time>2018-03-29T14:02:26Z</time>
      </trkpt>
      <trkpt lat="45.87164" lon="4.72392">
        <ele>197</ele>
        <time>2018-03-29T14:02:27Z</time>
      </trkpt>
      <trkpt lat="45.87162" lon="4.72386">
        <ele>197</ele>
        <time>2018-03-29T14:02:28Z</time>
      </trkpt>
      <trkpt lat="45.87159" lon="4.7238">
        <ele>197</ele>
        <time>2018-03-29T14:02:29Z</time>
      </trkpt>
      <trkpt lat="45.87157" lon="4.72373">
        <ele>197</ele>
        <time>2018-03-29T14:02:30Z</time>
      </trkpt>
      <trkpt lat="45.87154" lon="4.72367">
        <ele>197</ele>
        <time>2018-03-29T14:02:31Z</time>
      </trkpt>
      <trkpt lat="45.87151" lon="4.72362">
        <ele>197</ele>
        <time>2018-03-29T14:02:32Z</time>
      </trkpt>
      <trkpt lat="45.87148" lon="4.72355">
        <ele>196</ele>
        <time>2018-03-29T14:02:33Z</time>
      </trkpt>
      <trkpt lat="45.87146" lon="4.72348">
        <ele>196</ele>
        <time>2018-03-29T14:02:34Z</time>
      </trkpt>
      <trkpt lat="45.87143" lon="4.72342">
        <ele>196</ele>
        <time>2018-03-29T14:02:35Z</time>
      </trkpt>
      <trkpt lat="45.87141" lon="4.72336">
        <ele>196</ele>
        <time>2018-03-29T14:02:36Z</time>
      </trkpt>
      <trkpt lat="45.87138" lon="4.72329">
        <ele>195</ele>
        <time>2018-03-29T14:02:37Z</time>
      </trkpt>
      <trkpt lat="45.87135" lon="4.72324">
        <ele>195</ele>
        <time>2018-03-29T14:02:38Z</time>
      </trkpt>
      <trkpt lat="45.87132" lon="4.72317">
        <ele>196</ele>
        <time>2018-03-29T14:02:39Z</time>
      </trkpt>
      <trkpt lat="45.87129" lon="4.72309">
        <ele>196</ele>
        <time>2018-03-29T14:02:40Z</time>
      </trkpt>
      <trkpt lat="45.87125" lon="4.72303">
        <ele>196</ele>
        <time>2018-03-29T14:02:41Z</time>
      </trkpt>
      <trkpt lat="45.87122" lon="4.72298">
        <ele>196</ele>
        <time>2018-03-29T14:02:42Z</time>
      </trkpt>
      <trkpt lat="45.87119" lon="4.72291">
        <ele>197</ele>
        <time>2018-03-29T14:02:43Z</time>
      </trkpt>
      <trkpt lat="45.87115" lon="4.72284">
        <ele>197</ele>
        <time>2018-03-29T14:02:44Z</time>
      </trkpt>
      <trkpt lat="45.87111" lon="4.72279">
        <ele>197</ele>
        <time>2018-03-29T14:02:45Z</time>
      </trkpt>
      <trkpt lat="45.87106" lon="4.72274">
        <ele>197</ele>
        <time>2018-03-29T14:02:46Z</time>
      </trkpt>
      <trkpt lat="45.87102" lon="4.72268">
        <ele>197</ele>
        <time>2018-03-29T14:02:47Z</time>
      </trkpt>
      <trkpt lat="45.87098" lon="4.72262">
        <ele>198</ele>
        <time>2018-03-29T14:02:48Z</time>
      </trkpt>
      <trkpt lat="45.87094" lon="4.72256">
        <ele>198</ele>
        <time>2018-03-29T14:02:49Z</time>
      </trkpt>
      <trkpt lat="45.87089" lon="4.7225">
        <ele>198</ele>
        <time>2018-03-29T14:02:50Z</time>
      </trkpt>
      <trkpt lat="45.87085" lon="4.72245">
        <ele>197</ele>
        <time>2018-03-29T14:02:51Z</time>
      </trkpt>
      <trkpt lat="45.8708" lon="4.7224">
        <ele>200</ele>
        <time>2018-03-29T14:02:52Z</time>
      </trkpt>
      <trkpt lat="45.87075" lon="4.72234">
        <ele>200</ele>
        <time>2018-03-29T14:02:53Z</time>
      </trkpt>
      <trkpt lat="45.8707" lon="4.72227">
        <ele>200</ele>
        <time>2018-03-29T14:02:54Z</time>
      </trkpt>
      <trkpt lat="45.87064" lon="4.72222">
        <ele>200</ele>
        <time>2018-03-29T14:02:55Z</time>
      </trkpt>
      <trkpt lat="45.87058" lon="4.72218">
        <ele>200</ele>
        <time>2018-03-29T14:02:56Z</time>
      </trkpt>
      <trkpt lat="45.87052" lon="4.72213">
        <ele>200</ele>
        <time>2018-03-29T14:02:57Z</time>
      </trkpt>
      <trkpt lat="45.87046" lon="4.72208">
        <ele>200</ele>
        <time>2018-03-29T14:02:58Z</time>
      </trkpt>
      <trkpt lat="45.87039" lon="4.72203">
        <ele>201</ele>
        <time>2018-03-29T14:02:59Z</time>
      </trkpt>
      <trkpt lat="45.87033" lon="4.72199">
        <ele>201</ele>
        <time>2018-03-29T14:03:00Z</time>
      </trkpt>
      <trkpt lat="45.87028" lon="4.72196">
        <ele>201</ele>
        <time>2018-03-29T14:03:01Z</time>
      </trkpt>
      <trkpt lat="45.87022" lon="4.72193">
        <ele>201</ele>
        <time>2018-03-29T14:03:02Z</time>
      </trkpt>
      <trkpt lat="45.87017" lon="4.72189">
        <ele>201</ele>
        <time>2018-03-29T14:03:03Z</time>
      </trkpt>
      <trkpt lat="45.8701" lon="4.72185">
        <ele>201</ele>
        <time>2018-03-29T14:03:04Z</time>
      </trkpt>
      <trkpt lat="45.87005" lon="4.72181">
        <ele>201</ele>
        <time>2018-03-29T14:03:05Z</time>
      </trkpt>
      <trkpt lat="45.86999" lon="4.72178">
        <ele>205</ele>
        <time>2018-03-29T14:03:06Z</time>
      </trkpt>
      <trkpt lat="45.86992" lon="4.72174">
        <ele>205</ele>
        <time>2018-03-29T14:03:07Z</time>
      </trkpt>
      <trkpt lat="45.86987" lon="4.72168">
        <ele>206</ele>
        <time>2018-03-29T14:03:08Z</time>
      </trkpt>
      <trkpt lat="45.86981" lon="4.72164">
        <ele>201</ele>
        <time>2018-03-29T14:03:09Z</time>
      </trkpt>
      <trkpt lat="45.86975" lon="4.72162">
        <ele>201</ele>
        <time>2018-03-29T14:03:10Z</time>
      </trkpt>
      <trkpt lat="45.86969" lon="4.72158">
        <ele>201</ele>
        <time>2018-03-29T14:03:11Z</time>
      </trkpt>
      <trkpt lat="45.86963" lon="4.72154">
        <ele>201</ele>
        <time>2018-03-29T14:03:12Z</time>
      </trkpt>
      <trkpt lat="45.86957" lon="4.7215">
        <ele>201</ele>
        <time>2018-03-29T14:03:13Z</time>
      </trkpt>
      <trkpt lat="45.86951" lon="4.72145">
        <ele>201</ele>
        <time>2018-03-29T14:03:14Z</time>
      </trkpt>
      <trkpt lat="45.86946" lon="4.72141">
        <ele>201</ele>
        <time>2018-03-29T14:03:15Z</time>
      </trkpt>
      <trkpt lat="45.86941" lon="4.72138">
        <ele>201</ele>
        <time>2018-03-29T14:03:16Z</time>
      </trkpt>
      <trkpt lat="45.86936" lon="4.72135">
        <ele>201</ele>
        <time>2018-03-29T14:03:17Z</time>
      </trkpt>
      <trkpt lat="45.86932" lon="4.72132">
        <ele>201</ele>
        <time>2018-03-29T14:03:18Z</time>
      </trkpt>
      <trkpt lat="45.86925" lon="4.72131">
        <ele>201</ele>
        <time>2018-03-29T14:03:19Z</time>
      </trkpt>
      <trkpt lat="45.8692" lon="4.72128">
        <ele>201</ele>
        <time>2018-03-29T14:03:20Z</time>
      </trkpt>
      <trkpt lat="45.86914" lon="4.72126">
        <ele>202</ele>
        <time>2018-03-29T14:03:21Z</time>
      </trkpt>
      <trkpt lat="45.86909" lon="4.72125">
        <ele>202</ele>
        <time>2018-03-29T14:03:22Z</time>
      </trkpt>
      <trkpt lat="45.86903" lon="4.72124">
        <ele>202</ele>
        <time>2018-03-29T14:03:23Z</time>
      </trkpt>
      <trkpt lat="45.86898" lon="4.7212">
        <ele>202</ele>
        <time>2018-03-29T14:03:24Z</time>
      </trkpt>
      <trkpt lat="45.86893" lon="4.72118">
        <ele>201</ele>
        <time>2018-03-29T14:03:25Z</time>
      </trkpt>
      <trkpt lat="45.86887" lon="4.72115">
        <ele>201</ele>
        <time>2018-03-29T14:03:26Z</time>
      </trkpt>
      <trkpt lat="45.86881" lon="4.72113">
        <ele>201</ele>
        <time>2018-03-29T14:03:27Z</time>
      </trkpt>
      <trkpt lat="45.86876" lon="4.72111">
        <ele>201</ele>
        <time>2018-03-29T14:03:28Z</time>
      </trkpt>
      <trkpt lat="45.86869" lon="4.72108">
        <ele>201</ele>
        <time>2018-03-29T14:03:29Z</time>
      </trkpt>
      <trkpt lat="45.86862" lon="4.72105">
        <ele>200</ele>
        <time>2018-03-29T14:03:30Z</time>
      </trkpt>
      <trkpt lat="45.86856" lon="4.72102">
        <ele>200</ele>
        <time>2018-03-29T14:03:31Z</time>
      </trkpt>
      <trkpt lat="45.86851" lon="4.72099">
        <ele>199</ele>
        <time>2018-03-29T14:03:32Z</time>
      </trkpt>
      <trkpt lat="45.86844" lon="4.72096">
        <ele>198</ele>
        <time>2018-03-29T14:03:33Z</time>
      </trkpt>
      <trkpt lat="45.86838" lon="4.72094">
        <ele>197</ele>
        <time>2018-03-29T14:03:34Z</time>
      </trkpt>
      <trkpt lat="45.86832" lon="4.72093">
        <ele>197</ele>
        <time>2018-03-29T14:03:35Z</time>
      </trkpt>
      <trkpt lat="45.86826" lon="4.72091">
        <ele>197</ele>
        <time>2018-03-29T14:03:36Z</time>
      </trkpt>
      <trkpt lat="45.86821" lon="4.72089">
        <ele>198</ele>
        <time>2018-03-29T14:03:37Z</time>
      </trkpt>
      <trkpt lat="45.86815" lon="4.72087">
        <ele>199</ele>
        <time>2018-03-29T14:03:38Z</time>
      </trkpt>
      <trkpt lat="45.86809" lon="4.72084">
        <ele>200</ele>
        <time>2018-03-29T14:03:39Z</time>
      </trkpt>
      <trkpt lat="45.86803" lon="4.72081">
        <ele>194</ele>
        <time>2018-03-29T14:03:40Z</time>
      </trkpt>
      <trkpt lat="45.86796" lon="4.72079">
        <ele>194</ele>
        <time>2018-03-29T14:03:41Z</time>
      </trkpt>
      <trkpt lat="45.8679" lon="4.72076">
        <ele>194</ele>
        <time>2018-03-29T14:03:42Z</time>
      </trkpt>
      <trkpt lat="45.86785" lon="4.72074">
        <ele>194</ele>
        <time>2018-03-29T14:03:43Z</time>
      </trkpt>
      <trkpt lat="45.86779" lon="4.72072">
        <ele>195</ele>
        <time>2018-03-29T14:03:44Z</time>
      </trkpt>
      <trkpt lat="45.86773" lon="4.72069">
        <ele>195</ele>
        <time>2018-03-29T14:03:45Z</time>
      </trkpt>
      <trkpt lat="45.86768" lon="4.72067">
        <ele>195</ele>
        <time>2018-03-29T14:03:46Z</time>
      </trkpt>
      <trkpt lat="45.86762" lon="4.72064">
        <ele>195</ele>
        <time>2018-03-29T14:03:47Z</time>
      </trkpt>
      <trkpt lat="45.86757" lon="4.72061">
        <ele>195</ele>
        <time>2018-03-29T14:03:48Z</time>
      </trkpt>
      <trkpt lat="45.86751" lon="4.72057">
        <ele>195</ele>
        <time>2018-03-29T14:03:49Z</time>
      </trkpt>
      <trkpt lat="45.86745" lon="4.72054">
        <ele>197</ele>
        <time>2018-03-29T14:03:50Z</time>
      </trkpt>
      <trkpt lat="45.8674" lon="4.72052">
        <ele>197</ele>
        <time>2018-03-29T14:03:51Z</time>
      </trkpt>
      <trkpt lat="45.86735" lon="4.72048">
        <ele>197</ele>
        <time>2018-03-29T14:03:52Z</time>
      </trkpt>
      <trkpt lat="45.8673" lon="4.72046">
        <ele>197</ele>
        <time>2018-03-29T14:03:53Z</time>
      </trkpt>
      <trkpt lat="45.86724" lon="4.72043">
        <ele>197</ele>
        <time>2018-03-29T14:03:54Z</time>
      </trkpt>
      <trkpt lat="45.86719" lon="4.72039">
        <ele>197</ele>
        <time>2018-03-29T14:03:55Z</time>
      </trkpt>
      <trkpt lat="45.86714" lon="4.72034">
        <ele>197</ele>
        <time>2018-03-29T14:03:56Z</time>
      </trkpt>
      <trkpt lat="45.86708" lon="4.72031">
        <ele>197</ele>
        <time>2018-03-29T14:03:57Z</time>
      </trkpt>
      <trkpt lat="45.86703" lon="4.72027">
        <ele>197</ele>
        <time>2018-03-29T14:03:58Z</time>
      </trkpt>
      <trkpt lat="45.86698" lon="4.72023">
        <ele>197</ele>
        <time>2018-03-29T14:03:59Z</time>
      </trkpt>
      <trkpt lat="45.86693" lon="4.72019">
        <ele>197</ele>
        <time>2018-03-29T14:04:00Z</time>
      </trkpt>
      <trkpt lat="45.86688" lon="4.72015">
        <ele>196</ele>
        <time>2018-03-29T14:04:01Z</time>
      </trkpt>
      <trkpt lat="45.86683" lon="4.7201">
        <ele>196</ele>
        <time>2018-03-29T14:04:02Z</time>
      </trkpt>
      <trkpt lat="45.86678" lon="4.72005">
        <ele>196</ele>
        <time>2018-03-29T14:04:03Z</time>
      </trkpt>
      <trkpt lat="45.86674" lon="4.72001">
        <ele>196</ele>
        <time>2018-03-29T14:04:04Z</time>
      </trkpt>
      <trkpt lat="45.86668" lon="4.71998">
        <ele>195</ele>
        <time>2018-03-29T14:04:05Z</time>
      </trkpt>
      <trkpt lat="45.86663" lon="4.71995">
        <ele>195</ele>
        <time>2018-03-29T14:04:06Z</time>
      </trkpt>
      <trkpt lat="45.86658" lon="4.71992">
        <ele>195</ele>
        <time>2018-03-29T14:04:07Z</time>
      </trkpt>
      <trkpt lat="45.86654" lon="4.71988">
        <ele>195</ele>
        <time>2018-03-29T14:04:08Z</time>
      </trkpt>
      <trkpt lat="45.86649" lon="4.71983">
        <ele>195</ele>
        <time>2018-03-29T14:04:09Z</time>
      </trkpt>
      <trkpt lat="45.86644" lon="4.71979">
        <ele>195</ele>
        <time>2018-03-29T14:04:10Z</time>
      </trkpt>
      <trkpt lat="45.86639" lon="4.71975">
        <ele>195</ele>
        <time>2018-03-29T14:04:11Z</time>
      </trkpt>
      <trkpt lat="45.86634" lon="4.71971">
        <ele>195</ele>
        <time>2018-03-29T14:04:12Z</time>
      </trkpt>
      <trkpt lat="45.86629" lon="4.71968">
        <ele>195</ele>
        <time>2018-03-29T14:04:13Z</time>
      </trkpt>
      <trkpt lat="45.86624" lon="4.71964">
        <ele>195</ele>
        <time>2018-03-29T14:04:14Z</time>
      </trkpt>
      <trkpt lat="45.86619" lon="4.71961">
        <ele>195</ele>
        <time>2018-03-29T14:04:15Z</time>
      </trkpt>
      <trkpt lat="45.86614" lon="4.71957">
        <ele>194</ele>
        <time>2018-03-29T14:04:16Z</time>
      </trkpt>
      <trkpt lat="45.86608" lon="4.71953">
        <ele>194</ele>
        <time>2018-03-29T14:04:17Z</time>
      </trkpt>
      <trkpt lat="45.86603" lon="4.71949">
        <ele>194</ele>
        <time>2018-03-29T14:04:18Z</time>
      </trkpt>
      <trkpt lat="45.86598" lon="4.71946">
        <ele>194</ele>
        <time>2018-03-29T14:04:19Z</time>
      </trkpt>
      <trkpt lat="45.86593" lon="4.71942">
        <ele>194</ele>
        <time>2018-03-29T14:04:20Z</time>
      </trkpt>
      <trkpt lat="45.86587" lon="4.71938">
        <ele>194</ele>
        <time>2018-03-29T14:04:21Z</time>
      </trkpt>
      <trkpt lat="45.86582" lon="4.71934">
        <ele>195</ele>
        <time>2018-03-29T14:04:22Z</time>
      </trkpt>
      <trkpt lat="45.86578" lon="4.7193">
        <ele>195</ele>
        <time>2018-03-29T14:04:23Z</time>
      </trkpt>
      <trkpt lat="45.86573" lon="4.71925">
        <ele>195</ele>
        <time>2018-03-29T14:04:24Z</time>
      </trkpt>
      <trkpt lat="45.86568" lon="4.71922">
        <ele>195</ele>
        <time>2018-03-29T14:04:25Z</time>
      </trkpt>
      <trkpt lat="45.86564" lon="4.71917">
        <ele>195</ele>
        <time>2018-03-29T14:04:26Z</time>
      </trkpt>
      <trkpt lat="45.86559" lon="4.71913">
        <ele>195</ele>
        <time>2018-03-29T14:04:27Z</time>
      </trkpt>
      <trkpt lat="45.86554" lon="4.71909">
        <ele>195</ele>
        <time>2018-03-29T14:04:28Z</time>
      </trkpt>
      <trkpt lat="45.86549" lon="4.71905">
        <ele>195</ele>
        <time>2018-03-29T14:04:29Z</time>
      </trkpt>
      <trkpt lat="45.86543" lon="4.71902">
        <ele>195</ele>
        <time>2018-03-29T14:04:30Z</time>
      </trkpt>
      <trkpt lat="45.86538" lon="4.71898">
        <ele>195</ele>
        <time>2018-03-29T14:04:31Z</time>
      </trkpt>
      <trkpt lat="45.86533" lon="4.71894">
        <ele>195</ele>
        <time>2018-03-29T14:04:32Z</time>
      </trkpt>
      <trkpt lat="45.86527" lon="4.7189">
        <ele>195</ele>
        <time>2018-03-29T14:04:33Z</time>
      </trkpt>
      <trkpt lat="45.86522" lon="4.71886">
        <ele>195</ele>
        <time>2018-03-29T14:04:34Z</time>
      </trkpt>
      <trkpt lat="45.86517" lon="4.71882">
        <ele>195</ele>
        <time>2018-03-29T14:04:35Z</time>
      </trkpt>
      <trkpt lat="45.86512" lon="4.71878">
        <ele>195</ele>
        <time>2018-03-29T14:04:36Z</time>
      </trkpt>
      <trkpt lat="45.86507" lon="4.71874">
        <ele>195</ele>
        <time>2018-03-29T14:04:37Z</time>
      </trkpt>
      <trkpt lat="45.86502" lon="4.7187">
        <ele>195</ele>
        <time>2018-03-29T14:04:38Z</time>
      </trkpt>
      <trkpt lat="45.86497" lon="4.71867">
        <ele>198</ele>
        <time>2018-03-29T14:04:39Z</time>
      </trkpt>
      <trkpt lat="45.86492" lon="4.71863">
        <ele>198</ele>
        <time>2018-03-29T14:04:40Z</time>
      </trkpt>
      <trkpt lat="45.86488" lon="4.71858">
        <ele>198</ele>
        <time>2018-03-29T14:04:41Z</time>
      </trkpt>
      <trkpt lat="45.86483" lon="4.71854">
        <ele>198</ele>
        <time>2018-03-29T14:04:42Z</time>
      </trkpt>
      <trkpt lat="45.86476" lon="4.71848">
        <ele>198</ele>
        <time>2018-03-29T14:04:44Z</time>
      </trkpt>
      <trkpt lat="45.86471" lon="4.71844">
        <ele>199</ele>
        <time>2018-03-29T14:04:45Z</time>
      </trkpt>
      <trkpt lat="45.86466" lon="4.71841">
        <ele>199</ele>
        <time>2018-03-29T14:04:46Z</time>
      </trkpt>
      <trkpt lat="45.86461" lon="4.71837">
        <ele>199</ele>
        <time>2018-03-29T14:04:47Z</time>
      </trkpt>
      <trkpt lat="45.86457" lon="4.71833">
        <ele>197</ele>
        <time>2018-03-29T14:04:48Z</time>
      </trkpt>
      <trkpt lat="45.86452" lon="4.7183">
        <ele>197</ele>
        <time>2018-03-29T14:04:49Z</time>
      </trkpt>
      <trkpt lat="45.86448" lon="4.71826">
        <ele>197</ele>
        <time>2018-03-29T14:04:50Z</time>
      </trkpt>
      <trkpt lat="45.86444" lon="4.71822">
        <ele>197</ele>
        <time>2018-03-29T14:04:51Z</time>
      </trkpt>
      <trkpt lat="45.86439" lon="4.71819">
        <ele>198</ele>
        <time>2018-03-29T14:04:52Z</time>
      </trkpt>
      <trkpt lat="45.86434" lon="4.71816">
        <ele>198</ele>
        <time>2018-03-29T14:04:53Z</time>
      </trkpt>
      <trkpt lat="45.86429" lon="4.71812">
        <ele>198</ele>
        <time>2018-03-29T14:04:54Z</time>
      </trkpt>
      <trkpt lat="45.86425" lon="4.71809">
        <ele>198</ele>
        <time>2018-03-29T14:04:55Z</time>
      </trkpt>
      <trkpt lat="45.8642" lon="4.71806">
        <ele>197</ele>
        <time>2018-03-29T14:04:56Z</time>
      </trkpt>
      <trkpt lat="45.86416" lon="4.71803">
        <ele>199</ele>
        <time>2018-03-29T14:04:57Z</time>
      </trkpt>
      <trkpt lat="45.86411" lon="4.71799">
        <ele>199</ele>
        <time>2018-03-29T14:04:58Z</time>
      </trkpt>
      <trkpt lat="45.86405" lon="4.71797">
        <ele>199</ele>
        <time>2018-03-29T14:04:59Z</time>
      </trkpt>
      <trkpt lat="45.86397" lon="4.71792">
        <ele>199</ele>
        <time>2018-03-29T14:05:01Z</time>
      </trkpt>
      <trkpt lat="45.86393" lon="4.71788">
        <ele>198</ele>
        <time>2018-03-29T14:05:02Z</time>
      </trkpt>
      <trkpt lat="45.86388" lon="4.71784">
        <ele>198</ele>
        <time>2018-03-29T14:05:03Z</time>
      </trkpt>
      <trkpt lat="45.86384" lon="4.71781">
        <ele>198</ele>
        <time>2018-03-29T14:05:04Z</time>
      </trkpt>
      <trkpt lat="45.8638" lon="4.71776">
        <ele>198</ele>
        <time>2018-03-29T14:05:05Z</time>
      </trkpt>
      <trkpt lat="45.86376" lon="4.71773">
        <ele>198</ele>
        <time>2018-03-29T14:05:06Z</time>
      </trkpt>
      <trkpt lat="45.86371" lon="4.71768">
        <ele>198</ele>
        <time>2018-03-29T14:05:07Z</time>
      </trkpt>
      <trkpt lat="45.86367" lon="4.71764">
        <ele>198</ele>
        <time>2018-03-29T14:05:08Z</time>
      </trkpt>
      <trkpt lat="45.86362" lon="4.71761">
        <ele>198</ele>
        <time>2018-03-29T14:05:09Z</time>
      </trkpt>
      <trkpt lat="45.86358" lon="4.71756">
        <ele>198</ele>
        <time>2018-03-29T14:05:10Z</time>
      </trkpt>
      <trkpt lat="45.86353" lon="4.71753">
        <ele>197</ele>
        <time>2018-03-29T14:05:11Z</time>
      </trkpt>
      <trkpt lat="45.86348" lon="4.7175">
        <ele>197</ele>
        <time>2018-03-29T14:05:12Z</time>
      </trkpt>
      <trkpt lat="45.86343" lon="4.71747">
        <ele>195</ele>
        <time>2018-03-29T14:05:13Z</time>
      </trkpt>
      <trkpt lat="45.86339" lon="4.71744">
        <ele>195</ele>
        <time>2018-03-29T14:05:14Z</time>
      </trkpt>
      <trkpt lat="45.86334" lon="4.71739">
        <ele>195</ele>
        <time>2018-03-29T14:05:15Z</time>
      </trkpt>
      <trkpt lat="45.8633" lon="4.71736">
        <ele>196</ele>
        <time>2018-03-29T14:05:16Z</time>
      </trkpt>
      <trkpt lat="45.86325" lon="4.71731">
        <ele>196</ele>
        <time>2018-03-29T14:05:17Z</time>
      </trkpt>
      <trkpt lat="45.86319" lon="4.71728">
        <ele>196</ele>
        <time>2018-03-29T14:05:18Z</time>
      </trkpt>
      <trkpt lat="45.86315" lon="4.71724">
        <ele>196</ele>
        <time>2018-03-29T14:05:19Z</time>
      </trkpt>
      <trkpt lat="45.8631" lon="4.7172">
        <ele>196</ele>
        <time>2018-03-29T14:05:20Z</time>
      </trkpt>
      <trkpt lat="45.86305" lon="4.71716">
        <ele>196</ele>
        <time>2018-03-29T14:05:21Z</time>
      </trkpt>
      <trkpt lat="45.863" lon="4.71712">
        <ele>195</ele>
        <time>2018-03-29T14:05:22Z</time>
      </trkpt>
      <trkpt lat="45.86295" lon="4.71708">
        <ele>195</ele>
        <time>2018-03-29T14:05:23Z</time>
      </trkpt>
      <trkpt lat="45.8629" lon="4.71704">
        <ele>195</ele>
        <time>2018-03-29T14:05:24Z</time>
      </trkpt>
      <trkpt lat="45.86285" lon="4.717">
        <ele>195</ele>
        <time>2018-03-29T14:05:25Z</time>
      </trkpt>
      <trkpt lat="45.8628" lon="4.71698">
        <ele>195</ele>
        <time>2018-03-29T14:05:26Z</time>
      </trkpt>
      <trkpt lat="45.86276" lon="4.71694">
        <ele>195</ele>
        <time>2018-03-29T14:05:27Z</time>
      </trkpt>
      <trkpt lat="45.8627" lon="4.7169">
        <ele>195</ele>
        <time>2018-03-29T14:05:28Z</time>
      </trkpt>
      <trkpt lat="45.86266" lon="4.71686">
        <ele>195</ele>
        <time>2018-03-29T14:05:29Z</time>
      </trkpt>
      <trkpt lat="45.86261" lon="4.71682">
        <ele>195</ele>
        <time>2018-03-29T14:05:30Z</time>
      </trkpt>
      <trkpt lat="45.86256" lon="4.71678">
        <ele>195</ele>
        <time>2018-03-29T14:05:31Z</time>
      </trkpt>
      <trkpt lat="45.86251" lon="4.71674">
        <ele>195</ele>
        <time>2018-03-29T14:05:32Z</time>
      </trkpt>
      <trkpt lat="45.86247" lon="4.71669">
        <ele>195</ele>
        <time>2018-03-29T14:05:33Z</time>
      </trkpt>
      <trkpt lat="45.86242" lon="4.71665">
        <ele>195</ele>
        <time>2018-03-29T14:05:34Z</time>
      </trkpt>
      <trkpt lat="45.86237" lon="4.71661">
        <ele>195</ele>
        <time>2018-03-29T14:05:35Z</time>
      </trkpt>
      <trkpt lat="45.86232" lon="4.71658">
        <ele>195</ele>
        <time>2018-03-29T14:05:36Z</time>
      </trkpt>
      <trkpt lat="45.86227" lon="4.71654">
        <ele>195</ele>
        <time>2018-03-29T14:05:37Z</time>
      </trkpt>
      <trkpt lat="45.86223" lon="4.7165">
        <ele>195</ele>
        <time>2018-03-29T14:05:38Z</time>
      </trkpt>
      <trkpt lat="45.86219" lon="4.71645">
        <ele>195</ele>
        <time>2018-03-29T14:05:39Z</time>
      </trkpt>
      <trkpt lat="45.86217" lon="4.71639">
        <ele>195</ele>
        <time>2018-03-29T14:05:40Z</time>
      </trkpt>
      <trkpt lat="45.86215" lon="4.71633">
        <ele>195</ele>
        <time>2018-03-29T14:05:41Z</time>
      </trkpt>
      <trkpt lat="45.86213" lon="4.71625">
        <ele>195</ele>
        <time>2018-03-29T14:05:42Z</time>
      </trkpt>
      <trkpt lat="45.86213" lon="4.71618">
        <ele>195</ele>
        <time>2018-03-29T14:05:43Z</time>
      </trkpt>
      <trkpt lat="45.86209" lon="4.71611">
        <ele>195</ele>
        <time>2018-03-29T14:05:44Z</time>
      </trkpt>
      <trkpt lat="45.86206" lon="4.71605">
        <ele>195</ele>
        <time>2018-03-29T14:05:45Z</time>
      </trkpt>
      <trkpt lat="45.86202" lon="4.71601">
        <ele>195</ele>
        <time>2018-03-29T14:05:46Z</time>
      </trkpt>
      <trkpt lat="45.86198" lon="4.71595">
        <ele>195</ele>
        <time>2018-03-29T14:05:47Z</time>
      </trkpt>
      <trkpt lat="45.86195" lon="4.7159">
        <ele>195</ele>
        <time>2018-03-29T14:05:48Z</time>
      </trkpt>
      <trkpt lat="45.86191" lon="4.71585">
        <ele>195</ele>
        <time>2018-03-29T14:05:49Z</time>
      </trkpt>
      <trkpt lat="45.86187" lon="4.71579">
        <ele>195</ele>
        <time>2018-03-29T14:05:50Z</time>
      </trkpt>
      <trkpt lat="45.86184" lon="4.71573">
        <ele>195</ele>
        <time>2018-03-29T14:05:51Z</time>
      </trkpt>
      <trkpt lat="45.86181" lon="4.71566">
        <ele>195</ele>
        <time>2018-03-29T14:05:52Z</time>
      </trkpt>
      <trkpt lat="45.86177" lon="4.7156">
        <ele>195</ele>
        <time>2018-03-29T14:05:53Z</time>
      </trkpt>
      <trkpt lat="45.86172" lon="4.71555">
        <ele>195</ele>
        <time>2018-03-29T14:05:54Z</time>
      </trkpt>
      <trkpt lat="45.86168" lon="4.71549">
        <ele>195</ele>
        <time>2018-03-29T14:05:55Z</time>
      </trkpt>
      <trkpt lat="45.86165" lon="4.71543">
        <ele>196</ele>
        <time>2018-03-29T14:05:56Z</time>
      </trkpt>
      <trkpt lat="45.86161" lon="4.71537">
        <ele>195</ele>
        <time>2018-03-29T14:05:57Z</time>
      </trkpt>
      <trkpt lat="45.86158" lon="4.71531">
        <ele>195</ele>
        <time>2018-03-29T14:05:58Z</time>
      </trkpt>
      <trkpt lat="45.86155" lon="4.71526">
        <ele>195</ele>
        <time>2018-03-29T14:05:59Z</time>
      </trkpt>
      <trkpt lat="45.86151" lon="4.71519">
        <ele>195</ele>
        <time>2018-03-29T14:06:00Z</time>
      </trkpt>
      <trkpt lat="45.86149" lon="4.71514">
        <ele>195</ele>
        <time>2018-03-29T14:06:01Z</time>
      </trkpt>
      <trkpt lat="45.86146" lon="4.71508">
        <ele>195</ele>
        <time>2018-03-29T14:06:02Z</time>
      </trkpt>
      <trkpt lat="45.86143" lon="4.715">
        <ele>195</ele>
        <time>2018-03-29T14:06:03Z</time>
      </trkpt>
      <trkpt lat="45.8614" lon="4.71495">
        <ele>195</ele>
        <time>2018-03-29T14:06:04Z</time>
      </trkpt>
      <trkpt lat="45.86138" lon="4.71489">
        <ele>195</ele>
        <time>2018-03-29T14:06:05Z</time>
      </trkpt>
      <trkpt lat="45.86135" lon="4.71483">
        <ele>195</ele>
        <time>2018-03-29T14:06:06Z</time>
      </trkpt>
      <trkpt lat="45.86133" lon="4.71477">
        <ele>195</ele>
        <time>2018-03-29T14:06:07Z</time>
      </trkpt>
      <trkpt lat="45.8613" lon="4.71472">
        <ele>195</ele>
        <time>2018-03-29T14:06:08Z</time>
      </trkpt>
      <trkpt lat="45.86128" lon="4.71461">
        <ele>195</ele>
        <time>2018-03-29T14:06:10Z</time>
      </trkpt>
      <trkpt lat="45.86126" lon="4.71454">
        <ele>195</ele>
        <time>2018-03-29T14:06:11Z</time>
      </trkpt>
      <trkpt lat="45.86126" lon="4.71446">
        <ele>195</ele>
        <time>2018-03-29T14:06:12Z</time>
      </trkpt>
      <trkpt lat="45.86125" lon="4.71439">
        <ele>195</ele>
        <time>2018-03-29T14:06:13Z</time>
      </trkpt>
      <trkpt lat="45.86124" lon="4.71432">
        <ele>195</ele>
        <time>2018-03-29T14:06:14Z</time>
      </trkpt>
      <trkpt lat="45.86122" lon="4.71424">
        <ele>195</ele>
        <time>2018-03-29T14:06:15Z</time>
      </trkpt>
      <trkpt lat="45.86121" lon="4.71418">
        <ele>195</ele>
        <time>2018-03-29T14:06:16Z</time>
      </trkpt>
      <trkpt lat="45.8612" lon="4.7141">
        <ele>196</ele>
        <time>2018-03-29T14:06:17Z</time>
      </trkpt>
      <trkpt lat="45.86119" lon="4.71404">
        <ele>196</ele>
        <time>2018-03-29T14:06:18Z</time>
      </trkpt>
      <trkpt lat="45.86119" lon="4.71396">
        <ele>196</ele>
        <time>2018-03-29T14:06:19Z</time>
      </trkpt>
      <trkpt lat="45.86119" lon="4.71389">
        <ele>196</ele>
        <time>2018-03-29T14:06:20Z</time>
      </trkpt>
      <trkpt lat="45.86119" lon="4.71382">
        <ele>196</ele>
        <time>2018-03-29T14:06:21Z</time>
      </trkpt>
      <trkpt lat="45.86117" lon="4.71369">
        <ele>196</ele>
        <time>2018-03-29T14:06:23Z</time>
      </trkpt>
      <trkpt lat="45.86116" lon="4.71362">
        <ele>196</ele>
        <time>2018-03-29T14:06:24Z</time>
      </trkpt>
      <trkpt lat="45.86115" lon="4.71355">
        <ele>196</ele>
        <time>2018-03-29T14:06:25Z</time>
      </trkpt>
      <trkpt lat="45.86113" lon="4.71348">
        <ele>196</ele>
        <time>2018-03-29T14:06:26Z</time>
      </trkpt>
      <trkpt lat="45.86111" lon="4.71341">
        <ele>196</ele>
        <time>2018-03-29T14:06:27Z</time>
      </trkpt>
      <trkpt lat="45.86111" lon="4.71333">
        <ele>196</ele>
        <time>2018-03-29T14:06:28Z</time>
      </trkpt>
      <trkpt lat="45.86109" lon="4.71325">
        <ele>196</ele>
        <time>2018-03-29T14:06:29Z</time>
      </trkpt>
      <trkpt lat="45.86107" lon="4.71317">
        <ele>196</ele>
        <time>2018-03-29T14:06:30Z</time>
      </trkpt>
      <trkpt lat="45.86106" lon="4.71309">
        <ele>196</ele>
        <time>2018-03-29T14:06:31Z</time>
      </trkpt>
      <trkpt lat="45.86105" lon="4.71302">
        <ele>196</ele>
        <time>2018-03-29T14:06:32Z</time>
      </trkpt>
      <trkpt lat="45.86104" lon="4.71295">
        <ele>197</ele>
        <time>2018-03-29T14:06:33Z</time>
      </trkpt>
      <trkpt lat="45.86103" lon="4.71288">
        <ele>197</ele>
        <time>2018-03-29T14:06:34Z</time>
      </trkpt>
      <trkpt lat="45.86101" lon="4.71281">
        <ele>197</ele>
        <time>2018-03-29T14:06:35Z</time>
      </trkpt>
      <trkpt lat="45.86099" lon="4.71275">
        <ele>197</ele>
        <time>2018-03-29T14:06:36Z</time>
      </trkpt>
      <trkpt lat="45.86094" lon="4.71265">
        <ele>197</ele>
        <time>2018-03-29T14:06:38Z</time>
      </trkpt>
      <trkpt lat="45.8609" lon="4.71261">
        <ele>197</ele>
        <time>2018-03-29T14:06:39Z</time>
      </trkpt>
      <trkpt lat="45.86085" lon="4.71251">
        <ele>198</ele>
        <time>2018-03-29T14:06:41Z</time>
      </trkpt>
      <trkpt lat="45.86084" lon="4.71245">
        <ele>198</ele>
        <time>2018-03-29T14:06:42Z</time>
      </trkpt>
      <trkpt lat="45.86083" lon="4.71238">
        <ele>198</ele>
        <time>2018-03-29T14:06:43Z</time>
      </trkpt>
      <trkpt lat="45.86083" lon="4.71231">
        <ele>198</ele>
        <time>2018-03-29T14:06:44Z</time>
      </trkpt>
      <trkpt lat="45.86085" lon="4.71223">
        <ele>197</ele>
        <time>2018-03-29T14:06:45Z</time>
      </trkpt>
      <trkpt lat="45.86087" lon="4.71216">
        <ele>197</ele>
        <time>2018-03-29T14:06:46Z</time>
      </trkpt>
      <trkpt lat="45.86089" lon="4.71203">
        <ele>197</ele>
        <time>2018-03-29T14:06:48Z</time>
      </trkpt>
      <trkpt lat="45.86089" lon="4.71197">
        <ele>197</ele>
        <time>2018-03-29T14:06:49Z</time>
      </trkpt>
      <trkpt lat="45.86093" lon="4.7119">
        <ele>197</ele>
        <time>2018-03-29T14:06:50Z</time>
      </trkpt>
      <trkpt lat="45.86094" lon="4.71183">
        <ele>197</ele>
        <time>2018-03-29T14:06:51Z</time>
      </trkpt>
      <trkpt lat="45.86094" lon="4.71175">
        <ele>197</ele>
        <time>2018-03-29T14:06:52Z</time>
      </trkpt>
      <trkpt lat="45.86096" lon="4.71168">
        <ele>197</ele>
        <time>2018-03-29T14:06:53Z</time>
      </trkpt>
      <trkpt lat="45.86097" lon="4.71161">
        <ele>197</ele>
        <time>2018-03-29T14:06:54Z</time>
      </trkpt>
      <trkpt lat="45.86097" lon="4.71155">
        <ele>197</ele>
        <time>2018-03-29T14:06:55Z</time>
      </trkpt>
      <trkpt lat="45.86096" lon="4.71148">
        <ele>197</ele>
        <time>2018-03-29T14:06:56Z</time>
      </trkpt>
      <trkpt lat="45.86094" lon="4.71142">
        <ele>197</ele>
        <time>2018-03-29T14:06:57Z</time>
      </trkpt>
      <trkpt lat="45.86091" lon="4.71138">
        <ele>197</ele>
        <time>2018-03-29T14:06:58Z</time>
      </trkpt>
      <trkpt lat="45.86086" lon="4.71133">
        <ele>197</ele>
        <time>2018-03-29T14:06:59Z</time>
      </trkpt>
      <trkpt lat="45.86081" lon="4.71131">
        <ele>197</ele>
        <time>2018-03-29T14:07:00Z</time>
      </trkpt>
      <trkpt lat="45.86076" lon="4.71129">
        <ele>197</ele>
        <time>2018-03-29T14:07:01Z</time>
      </trkpt>
      <trkpt lat="45.86071" lon="4.71126">
        <ele>197</ele>
        <time>2018-03-29T14:07:02Z</time>
      </trkpt>
      <trkpt lat="45.86067" lon="4.71122">
        <ele>197</ele>
        <time>2018-03-29T14:07:03Z</time>
      </trkpt>
      <trkpt lat="45.86063" lon="4.71116">
        <ele>197</ele>
        <time>2018-03-29T14:07:04Z</time>
      </trkpt>
      <trkpt lat="45.86059" lon="4.71112">
        <ele>197</ele>
        <time>2018-03-29T14:07:05Z</time>
      </trkpt>
      <trkpt lat="45.86056" lon="4.71106">
        <ele>197</ele>
        <time>2018-03-29T14:07:06Z</time>
      </trkpt>
      <trkpt lat="45.86053" lon="4.71099">
        <ele>197</ele>
        <time>2018-03-29T14:07:07Z</time>
      </trkpt>
      <trkpt lat="45.86049" lon="4.71093">
        <ele>197</ele>
        <time>2018-03-29T14:07:08Z</time>
      </trkpt>
      <trkpt lat="45.86046" lon="4.71087">
        <ele>197</ele>
        <time>2018-03-29T14:07:09Z</time>
      </trkpt>
      <trkpt lat="45.86045" lon="4.7108">
        <ele>196</ele>
        <time>2018-03-29T14:07:10Z</time>
      </trkpt>
      <trkpt lat="45.86043" lon="4.71072">
        <ele>196</ele>
        <time>2018-03-29T14:07:11Z</time>
      </trkpt>
      <trkpt lat="45.86042" lon="4.71064">
        <ele>197</ele>
        <time>2018-03-29T14:07:12Z</time>
      </trkpt>
      <trkpt lat="45.86041" lon="4.71055">
        <ele>197</ele>
        <time>2018-03-29T14:07:13Z</time>
      </trkpt>
      <trkpt lat="45.86038" lon="4.71047">
        <ele>197</ele>
        <time>2018-03-29T14:07:14Z</time>
      </trkpt>
      <trkpt lat="45.86037" lon="4.71039">
        <ele>197</ele>
        <time>2018-03-29T14:07:15Z</time>
      </trkpt>
      <trkpt lat="45.86035" lon="4.71032">
        <ele>197</ele>
        <time>2018-03-29T14:07:16Z</time>
      </trkpt>
      <trkpt lat="45.86033" lon="4.71026">
        <ele>197</ele>
        <time>2018-03-29T14:07:17Z</time>
      </trkpt>
      <trkpt lat="45.86029" lon="4.71021">
        <ele>197</ele>
        <time>2018-03-29T14:07:18Z</time>
      </trkpt>
      <trkpt lat="45.86027" lon="4.71015">
        <ele>197</ele>
        <time>2018-03-29T14:07:19Z</time>
      </trkpt>
      <trkpt lat="45.86024" lon="4.7101">
        <ele>197</ele>
        <time>2018-03-29T14:07:20Z</time>
      </trkpt>
      <trkpt lat="45.86018" lon="4.71005">
        <ele>197</ele>
        <time>2018-03-29T14:07:21Z</time>
      </trkpt>
      <trkpt lat="45.86013" lon="4.71001">
        <ele>197</ele>
        <time>2018-03-29T14:07:22Z</time>
      </trkpt>
      <trkpt lat="45.86009" lon="4.70996">
        <ele>197</ele>
        <time>2018-03-29T14:07:23Z</time>
      </trkpt>
      <trkpt lat="45.86004" lon="4.70992">
        <ele>197</ele>
        <time>2018-03-29T14:07:24Z</time>
      </trkpt>
      <trkpt lat="45.85999" lon="4.70987">
        <ele>197</ele>
        <time>2018-03-29T14:07:25Z</time>
      </trkpt>
      <trkpt lat="45.85994" lon="4.70983">
        <ele>197</ele>
        <time>2018-03-29T14:07:26Z</time>
      </trkpt>
      <trkpt lat="45.85989" lon="4.70979">
        <ele>197</ele>
        <time>2018-03-29T14:07:27Z</time>
      </trkpt>
      <trkpt lat="45.85984" lon="4.70976">
        <ele>197</ele>
        <time>2018-03-29T14:07:28Z</time>
      </trkpt>
      <trkpt lat="45.85979" lon="4.70974">
        <ele>197</ele>
        <time>2018-03-29T14:07:29Z</time>
      </trkpt>
      <trkpt lat="45.85974" lon="4.70973">
        <ele>197</ele>
        <time>2018-03-29T14:07:30Z</time>
      </trkpt>
      <trkpt lat="45.85969" lon="4.70971">
        <ele>197</ele>
        <time>2018-03-29T14:07:31Z</time>
      </trkpt>
      <trkpt lat="45.85965" lon="4.70971">
        <ele>197</ele>
        <time>2018-03-29T14:07:32Z</time>
      </trkpt>
      <trkpt lat="45.8596" lon="4.70971">
        <ele>197</ele>
        <time>2018-03-29T14:07:33Z</time>
      </trkpt>
      <trkpt lat="45.85955" lon="4.70971">
        <ele>197</ele>
        <time>2018-03-29T14:07:34Z</time>
      </trkpt>
      <trkpt lat="45.85951" lon="4.70969">
        <ele>197</ele>
        <time>2018-03-29T14:07:35Z</time>
      </trkpt>
      <trkpt lat="45.85943" lon="4.70963">
        <ele>197</ele>
        <time>2018-03-29T14:07:37Z</time>
      </trkpt>
      <trkpt lat="45.85942" lon="4.70957">
        <ele>197</ele>
        <time>2018-03-29T14:07:38Z</time>
      </trkpt>
      <trkpt lat="45.85942" lon="4.7095">
        <ele>197</ele>
        <time>2018-03-29T14:07:39Z</time>
      </trkpt>
      <trkpt lat="45.85942" lon="4.70944">
        <ele>197</ele>
        <time>2018-03-29T14:07:40Z</time>
      </trkpt>
      <trkpt lat="45.85944" lon="4.70938">
        <ele>197</ele>
        <time>2018-03-29T14:07:41Z</time>
      </trkpt>
      <trkpt lat="45.85946" lon="4.70931">
        <ele>197</ele>
        <time>2018-03-29T14:07:42Z</time>
      </trkpt>
      <trkpt lat="45.85948" lon="4.70924">
        <ele>197</ele>
        <time>2018-03-29T14:07:43Z</time>
      </trkpt>
      <trkpt lat="45.8595" lon="4.70917">
        <ele>197</ele>
        <time>2018-03-29T14:07:44Z</time>
      </trkpt>
      <trkpt lat="45.85952" lon="4.7091">
        <ele>197</ele>
        <time>2018-03-29T14:07:45Z</time>
      </trkpt>
      <trkpt lat="45.85953" lon="4.70902">
        <ele>197</ele>
        <time>2018-03-29T14:07:46Z</time>
      </trkpt>
      <trkpt lat="45.85955" lon="4.70895">
        <ele>197</ele>
        <time>2018-03-29T14:07:47Z</time>
      </trkpt>
      <trkpt lat="45.85956" lon="4.70887">
        <ele>197</ele>
        <time>2018-03-29T14:07:48Z</time>
      </trkpt>
      <trkpt lat="45.85958" lon="4.7088">
        <ele>197</ele>
        <time>2018-03-29T14:07:49Z</time>
      </trkpt>
      <trkpt lat="45.8596" lon="4.70873">
        <ele>196</ele>
        <time>2018-03-29T14:07:50Z</time>
      </trkpt>
      <trkpt lat="45.85961" lon="4.70866">
        <ele>196</ele>
        <time>2018-03-29T14:07:51Z</time>
      </trkpt>
      <trkpt lat="45.85963" lon="4.70859">
        <ele>196</ele>
        <time>2018-03-29T14:07:52Z</time>
      </trkpt>
      <trkpt lat="45.85964" lon="4.70851">
        <ele>196</ele>
        <time>2018-03-29T14:07:53Z</time>
      </trkpt>
      <trkpt lat="45.85965" lon="4.70844">
        <ele>196</ele>
        <time>2018-03-29T14:07:54Z</time>
      </trkpt>
      <trkpt lat="45.85964" lon="4.70837">
        <ele>196</ele>
        <time>2018-03-29T14:07:55Z</time>
      </trkpt>
      <trkpt lat="45.85963" lon="4.7083">
        <ele>196</ele>
        <time>2018-03-29T14:07:56Z</time>
      </trkpt>
      <trkpt lat="45.85962" lon="4.70823">
        <ele>195</ele>
        <time>2018-03-29T14:07:57Z</time>
      </trkpt>
      <trkpt lat="45.8596" lon="4.70816">
        <ele>195</ele>
        <time>2018-03-29T14:07:58Z</time>
      </trkpt>
      <trkpt lat="45.85959" lon="4.70808">
        <ele>195</ele>
        <time>2018-03-29T14:07:59Z</time>
      </trkpt>
      <trkpt lat="45.85957" lon="4.70801">
        <ele>195</ele>
        <time>2018-03-29T14:08:00Z</time>
      </trkpt>
      <trkpt lat="45.85958" lon="4.70788">
        <ele>195</ele>
        <time>2018-03-29T14:08:02Z</time>
      </trkpt>
      <trkpt lat="45.85959" lon="4.70779">
        <ele>195</ele>
        <time>2018-03-29T14:08:03Z</time>
      </trkpt>
      <trkpt lat="45.85959" lon="4.7077">
        <ele>195</ele>
        <time>2018-03-29T14:08:04Z</time>
      </trkpt>
      <trkpt lat="45.8596" lon="4.70763">
        <ele>195</ele>
        <time>2018-03-29T14:08:05Z</time>
      </trkpt>
      <trkpt lat="45.8596" lon="4.70754">
        <ele>195</ele>
        <time>2018-03-29T14:08:06Z</time>
      </trkpt>
      <trkpt lat="45.8596" lon="4.70747">
        <ele>194</ele>
        <time>2018-03-29T14:08:07Z</time>
      </trkpt>
      <trkpt lat="45.8596" lon="4.7074">
        <ele>194</ele>
        <time>2018-03-29T14:08:08Z</time>
      </trkpt>
      <trkpt lat="45.8596" lon="4.70732">
        <ele>194</ele>
        <time>2018-03-29T14:08:09Z</time>
      </trkpt>
      <trkpt lat="45.85961" lon="4.70724">
        <ele>194</ele>
        <time>2018-03-29T14:08:10Z</time>
      </trkpt>
      <trkpt lat="45.85961" lon="4.70716">
        <ele>194</ele>
        <time>2018-03-29T14:08:11Z</time>
      </trkpt>
      <trkpt lat="45.85962" lon="4.70708">
        <ele>194</ele>
        <time>2018-03-29T14:08:12Z</time>
      </trkpt>
      <trkpt lat="45.85963" lon="4.707">
        <ele>194</ele>
        <time>2018-03-29T14:08:13Z</time>
      </trkpt>
      <trkpt lat="45.85963" lon="4.70691">
        <ele>194</ele>
        <time>2018-03-29T14:08:14Z</time>
      </trkpt>
      <trkpt lat="45.85961" lon="4.70683">
        <ele>194</ele>
        <time>2018-03-29T14:08:15Z</time>
      </trkpt>
      <trkpt lat="45.85959" lon="4.70675">
        <ele>194</ele>
        <time>2018-03-29T14:08:16Z</time>
      </trkpt>
      <trkpt lat="45.85957" lon="4.70668">
        <ele>194</ele>
        <time>2018-03-29T14:08:17Z</time>
      </trkpt>
      <trkpt lat="45.85953" lon="4.70661">
        <ele>194</ele>
        <time>2018-03-29T14:08:18Z</time>
      </trkpt>
      <trkpt lat="45.8595" lon="4.70655">
        <ele>194</ele>
        <time>2018-03-29T14:08:19Z</time>
      </trkpt>
      <trkpt lat="45.85946" lon="4.70649">
        <ele>194</ele>
        <time>2018-03-29T14:08:20Z</time>
      </trkpt>
      <trkpt lat="45.85942" lon="4.70642">
        <ele>194</ele>
        <time>2018-03-29T14:08:21Z</time>
      </trkpt>
      <trkpt lat="45.85937" lon="4.70637">
        <ele>194</ele>
        <time>2018-03-29T14:08:22Z</time>
      </trkpt>
      <trkpt lat="45.85934" lon="4.70632">
        <ele>194</ele>
        <time>2018-03-29T14:08:23Z</time>
      </trkpt>
      <trkpt lat="45.8593" lon="4.70626">
        <ele>194</ele>
        <time>2018-03-29T14:08:24Z</time>
      </trkpt>
      <trkpt lat="45.85927" lon="4.7062">
        <ele>194</ele>
        <time>2018-03-29T14:08:25Z</time>
      </trkpt>
      <trkpt lat="45.85923" lon="4.70614">
        <ele>194</ele>
        <time>2018-03-29T14:08:26Z</time>
      </trkpt>
      <trkpt lat="45.85919" lon="4.70608">
        <ele>194</ele>
        <time>2018-03-29T14:08:27Z</time>
      </trkpt>
      <trkpt lat="45.85916" lon="4.70601">
        <ele>195</ele>
        <time>2018-03-29T14:08:28Z</time>
      </trkpt>
      <trkpt lat="45.85913" lon="4.70595">
        <ele>195</ele>
        <time>2018-03-29T14:08:29Z</time>
      </trkpt>
      <trkpt lat="45.85908" lon="4.70589">
        <ele>195</ele>
        <time>2018-03-29T14:08:30Z</time>
      </trkpt>
      <trkpt lat="45.85904" lon="4.70584">
        <ele>195</ele>
        <time>2018-03-29T14:08:31Z</time>
      </trkpt>
      <trkpt lat="45.85898" lon="4.7058">
        <ele>195</ele>
        <time>2018-03-29T14:08:32Z</time>
      </trkpt>
      <trkpt lat="45.85893" lon="4.70579">
        <ele>195</ele>
        <time>2018-03-29T14:08:33Z</time>
      </trkpt>
      <trkpt lat="45.85887" lon="4.70578">
        <ele>195</ele>
        <time>2018-03-29T14:08:34Z</time>
      </trkpt>
      <trkpt lat="45.85882" lon="4.70577">
        <ele>195</ele>
        <time>2018-03-29T14:08:35Z</time>
      </trkpt>
      <trkpt lat="45.85877" lon="4.70574">
        <ele>195</ele>
        <time>2018-03-29T14:08:36Z</time>
      </trkpt>
      <trkpt lat="45.85872" lon="4.70573">
        <ele>195</ele>
        <time>2018-03-29T14:08:37Z</time>
      </trkpt>
      <trkpt lat="45.85866" lon="4.70571">
        <ele>195</ele>
        <time>2018-03-29T14:08:38Z</time>
      </trkpt>
      <trkpt lat="45.85862" lon="4.7057">
        <ele>195</ele>
        <time>2018-03-29T14:08:39Z</time>
      </trkpt>
      <trkpt lat="45.85856" lon="4.70568">
        <ele>195</ele>
        <time>2018-03-29T14:08:40Z</time>
      </trkpt>
      <trkpt lat="45.8585" lon="4.70567">
        <ele>195</ele>
        <time>2018-03-29T14:08:41Z</time>
      </trkpt>
      <trkpt lat="45.85843" lon="4.70563">
        <ele>195</ele>
        <time>2018-03-29T14:08:42Z</time>
      </trkpt>
      <trkpt lat="45.85838" lon="4.70561">
        <ele>195</ele>
        <time>2018-03-29T14:08:43Z</time>
      </trkpt>
      <trkpt lat="45.85833" lon="4.70558">
        <ele>195</ele>
        <time>2018-03-29T14:08:44Z</time>
      </trkpt>
      <trkpt lat="45.85828" lon="4.70556">
        <ele>195</ele>
        <time>2018-03-29T14:08:45Z</time>
      </trkpt>
      <trkpt lat="45.85823" lon="4.70554">
        <ele>195</ele>
        <time>2018-03-29T14:08:46Z</time>
      </trkpt>
      <trkpt lat="45.85818" lon="4.70552">
        <ele>195</ele>
        <time>2018-03-29T14:08:47Z</time>
      </trkpt>
      <trkpt lat="45.85813" lon="4.7055">
        <ele>195</ele>
        <time>2018-03-29T14:08:48Z</time>
      </trkpt>
      <trkpt lat="45.85808" lon="4.70548">
        <ele>195</ele>
        <time>2018-03-29T14:08:49Z</time>
      </trkpt>
      <trkpt lat="45.85803" lon="4.70546">
        <ele>195</ele>
        <time>2018-03-29T14:08:50Z</time>
      </trkpt>
      <trkpt lat="45.85798" lon="4.70544">
        <ele>195</ele>
        <time>2018-03-29T14:08:51Z</time>
      </trkpt>
      <trkpt lat="45.85794" lon="4.70541">
        <ele>195</ele>
        <time>2018-03-29T14:08:52Z</time>
      </trkpt>
      <trkpt lat="45.85788" lon="4.70538">
        <ele>196</ele>
        <time>2018-03-29T14:08:53Z</time>
      </trkpt>
      <trkpt lat="45.85784" lon="4.70535">
        <ele>196</ele>
        <time>2018-03-29T14:08:54Z</time>
      </trkpt>
      <trkpt lat="45.8578" lon="4.70532">
        <ele>196</ele>
        <time>2018-03-29T14:08:55Z</time>
      </trkpt>
      <trkpt lat="45.85775" lon="4.70529">
        <ele>196</ele>
        <time>2018-03-29T14:08:56Z</time>
      </trkpt>
      <trkpt lat="45.85771" lon="4.70526">
        <ele>196</ele>
        <time>2018-03-29T14:08:57Z</time>
      </trkpt>
      <trkpt lat="45.85767" lon="4.70522">
        <ele>196</ele>
        <time>2018-03-29T14:08:58Z</time>
      </trkpt>
      <trkpt lat="45.85762" lon="4.70518">
        <ele>196</ele>
        <time>2018-03-29T14:08:59Z</time>
      </trkpt>
      <trkpt lat="45.85758" lon="4.70514">
        <ele>196</ele>
        <time>2018-03-29T14:09:00Z</time>
      </trkpt>
      <trkpt lat="45.85753" lon="4.70511">
        <ele>196</ele>
        <time>2018-03-29T14:09:01Z</time>
      </trkpt>
      <trkpt lat="45.85746" lon="4.70507">
        <ele>196</ele>
        <time>2018-03-29T14:09:02Z</time>
      </trkpt>
      <trkpt lat="45.85743" lon="4.70504">
        <ele>196</ele>
        <time>2018-03-29T14:09:03Z</time>
      </trkpt>
      <trkpt lat="45.85739" lon="4.705">
        <ele>196</ele>
        <time>2018-03-29T14:09:04Z</time>
      </trkpt>
      <trkpt lat="45.85736" lon="4.70495">
        <ele>196</ele>
        <time>2018-03-29T14:09:05Z</time>
      </trkpt>
      <trkpt lat="45.85733" lon="4.7049">
        <ele>196</ele>
        <time>2018-03-29T14:09:06Z</time>
      </trkpt>
      <trkpt lat="45.85731" lon="4.70483">
        <ele>196</ele>
        <time>2018-03-29T14:09:07Z</time>
      </trkpt>
      <trkpt lat="45.85727" lon="4.70477">
        <ele>196</ele>
        <time>2018-03-29T14:09:08Z</time>
      </trkpt>
      <trkpt lat="45.85725" lon="4.7047">
        <ele>196</ele>
        <time>2018-03-29T14:09:09Z</time>
      </trkpt>
      <trkpt lat="45.85723" lon="4.70464">
        <ele>196</ele>
        <time>2018-03-29T14:09:10Z</time>
      </trkpt>
      <trkpt lat="45.85723" lon="4.70457">
        <ele>196</ele>
        <time>2018-03-29T14:09:11Z</time>
      </trkpt>
      <trkpt lat="45.85722" lon="4.70449">
        <ele>196</ele>
        <time>2018-03-29T14:09:12Z</time>
      </trkpt>
      <trkpt lat="45.8572" lon="4.70442">
        <ele>196</ele>
        <time>2018-03-29T14:09:13Z</time>
      </trkpt>
      <trkpt lat="45.8572" lon="4.70434">
        <ele>196</ele>
        <time>2018-03-29T14:09:14Z</time>
      </trkpt>
      <trkpt lat="45.85719" lon="4.70426">
        <ele>196</ele>
        <time>2018-03-29T14:09:15Z</time>
      </trkpt>
      <trkpt lat="45.85718" lon="4.70418">
        <ele>196</ele>
        <time>2018-03-29T14:09:16Z</time>
      </trkpt>
      <trkpt lat="45.85717" lon="4.70409">
        <ele>196</ele>
        <time>2018-03-29T14:09:17Z</time>
      </trkpt>
      <trkpt lat="45.85716" lon="4.70402">
        <ele>196</ele>
        <time>2018-03-29T14:09:18Z</time>
      </trkpt>
      <trkpt lat="45.85715" lon="4.70394">
        <ele>196</ele>
        <time>2018-03-29T14:09:19Z</time>
      </trkpt>
      <trkpt lat="45.85714" lon="4.70386">
        <ele>196</ele>
        <time>2018-03-29T14:09:20Z</time>
      </trkpt>
      <trkpt lat="45.85711" lon="4.70376">
        <ele>196</ele>
        <time>2018-03-29T14:09:21Z</time>
      </trkpt>
      <trkpt lat="45.8571" lon="4.70368">
        <ele>196</ele>
        <time>2018-03-29T14:09:22Z</time>
      </trkpt>
      <trkpt lat="45.8571" lon="4.7036">
        <ele>196</ele>
        <time>2018-03-29T14:09:23Z</time>
      </trkpt>
      <trkpt lat="45.85709" lon="4.70352">
        <ele>196</ele>
        <time>2018-03-29T14:09:24Z</time>
      </trkpt>
      <trkpt lat="45.85708" lon="4.70344">
        <ele>196</ele>
        <time>2018-03-29T14:09:25Z</time>
      </trkpt>
      <trkpt lat="45.85708" lon="4.70336">
        <ele>196</ele>
        <time>2018-03-29T14:09:26Z</time>
      </trkpt>
      <trkpt lat="45.85707" lon="4.70328">
        <ele>197</ele>
        <time>2018-03-29T14:09:27Z</time>
      </trkpt>
      <trkpt lat="45.85707" lon="4.7032">
        <ele>197</ele>
        <time>2018-03-29T14:09:28Z</time>
      </trkpt>
      <trkpt lat="45.85706" lon="4.70311">
        <ele>197</ele>
        <time>2018-03-29T14:09:29Z</time>
      </trkpt>
      <trkpt lat="45.85705" lon="4.70302">
        <ele>197</ele>
        <time>2018-03-29T14:09:30Z</time>
      </trkpt>
      <trkpt lat="45.85704" lon="4.70294">
        <ele>197</ele>
        <time>2018-03-29T14:09:31Z</time>
      </trkpt>
      <trkpt lat="45.85703" lon="4.70286">
        <ele>197</ele>
        <time>2018-03-29T14:09:32Z</time>
      </trkpt>
      <trkpt lat="45.85702" lon="4.70278">
        <ele>197</ele>
        <time>2018-03-29T14:09:33Z</time>
      </trkpt>
      <trkpt lat="45.85701" lon="4.70269">
        <ele>197</ele>
        <time>2018-03-29T14:09:34Z</time>
      </trkpt>
      <trkpt lat="45.857" lon="4.70261">
        <ele>197</ele>
        <time>2018-03-29T14:09:35Z</time>
      </trkpt>
      <trkpt lat="45.85697" lon="4.70254">
        <ele>197</ele>
        <time>2018-03-29T14:09:36Z</time>
      </trkpt>
      <trkpt lat="45.85696" lon="4.70245">
        <ele>197</ele>
        <time>2018-03-29T14:09:37Z</time>
      </trkpt>
      <trkpt lat="45.85696" lon="4.70236">
        <ele>197</ele>
        <time>2018-03-29T14:09:38Z</time>
      </trkpt>
      <trkpt lat="45.85696" lon="4.70228">
        <ele>197</ele>
        <time>2018-03-29T14:09:39Z</time>
      </trkpt>
      <trkpt lat="45.85695" lon="4.70218">
        <ele>197</ele>
        <time>2018-03-29T14:09:40Z</time>
      </trkpt>
      <trkpt lat="45.85694" lon="4.70211">
        <ele>197</ele>
        <time>2018-03-29T14:09:41Z</time>
      </trkpt>
      <trkpt lat="45.85692" lon="4.70203">
        <ele>197</ele>
        <time>2018-03-29T14:09:42Z</time>
      </trkpt>
      <trkpt lat="45.85691" lon="4.70195">
        <ele>197</ele>
        <time>2018-03-29T14:09:43Z</time>
      </trkpt>
      <trkpt lat="45.8569" lon="4.70187">
        <ele>197</ele>
        <time>2018-03-29T14:09:44Z</time>
      </trkpt>
      <trkpt lat="45.85688" lon="4.70179">
        <ele>197</ele>
        <time>2018-03-29T14:09:45Z</time>
      </trkpt>
      <trkpt lat="45.85687" lon="4.70171">
        <ele>197</ele>
        <time>2018-03-29T14:09:46Z</time>
      </trkpt>
      <trkpt lat="45.85685" lon="4.70163">
        <ele>197</ele>
        <time>2018-03-29T14:09:47Z</time>
      </trkpt>
      <trkpt lat="45.85684" lon="4.70156">
        <ele>197</ele>
        <time>2018-03-29T14:09:48Z</time>
      </trkpt>
      <trkpt lat="45.85682" lon="4.70148">
        <ele>197</ele>
        <time>2018-03-29T14:09:49Z</time>
      </trkpt>
      <trkpt lat="45.85681" lon="4.7014">
        <ele>197</ele>
        <time>2018-03-29T14:09:50Z</time>
      </trkpt>
      <trkpt lat="45.85679" lon="4.70133">
        <ele>197</ele>
        <time>2018-03-29T14:09:51Z</time>
      </trkpt>
      <trkpt lat="45.85678" lon="4.70125">
        <ele>197</ele>
        <time>2018-03-29T14:09:52Z</time>
      </trkpt>
      <trkpt lat="45.85678" lon="4.70117">
        <ele>197</ele>
        <time>2018-03-29T14:09:53Z</time>
      </trkpt>
      <trkpt lat="45.85679" lon="4.70108">
        <ele>196</ele>
        <time>2018-03-29T14:09:54Z</time>
      </trkpt>
      <trkpt lat="45.85678" lon="4.70102">
        <ele>196</ele>
        <time>2018-03-29T14:09:55Z</time>
      </trkpt>
      <trkpt lat="45.85679" lon="4.70095">
        <ele>196</ele>
        <time>2018-03-29T14:09:56Z</time>
      </trkpt>
      <trkpt lat="45.85679" lon="4.70088">
        <ele>196</ele>
        <time>2018-03-29T14:09:57Z</time>
      </trkpt>
      <trkpt lat="45.8568" lon="4.70076">
        <ele>196</ele>
        <time>2018-03-29T14:09:59Z</time>
      </trkpt>
      <trkpt lat="45.85681" lon="4.70071">
        <ele>196</ele>
        <time>2018-03-29T14:10:00Z</time>
      </trkpt>
      <trkpt lat="45.85684" lon="4.7006">
        <ele>195</ele>
        <time>2018-03-29T14:10:02Z</time>
      </trkpt>
      <trkpt lat="45.85684" lon="4.70057">
        <ele>195</ele>
        <time>2018-03-29T14:10:03Z</time>
      </trkpt>
      <trkpt lat="45.85686" lon="4.70051">
        <ele>195</ele>
        <time>2018-03-29T14:10:05Z</time>
      </trkpt>
      <trkpt lat="45.85689" lon="4.70042">
        <ele>195</ele>
        <time>2018-03-29T14:10:06Z</time>
      </trkpt>
      <trkpt lat="45.85692" lon="4.70031">
        <ele>195</ele>
        <time>2018-03-29T14:10:08Z</time>
      </trkpt>
      <trkpt lat="45.85693" lon="4.70025">
        <ele>195</ele>
        <time>2018-03-29T14:10:09Z</time>
      </trkpt>
      <trkpt lat="45.85694" lon="4.70019">
        <ele>195</ele>
        <time>2018-03-29T14:10:10Z</time>
      </trkpt>
      <trkpt lat="45.85694" lon="4.70011">
        <ele>195</ele>
        <time>2018-03-29T14:10:11Z</time>
      </trkpt>
      <trkpt lat="45.85694" lon="4.70005">
        <ele>195</ele>
        <time>2018-03-29T14:10:12Z</time>
      </trkpt>
      <trkpt lat="45.85695" lon="4.69998">
        <ele>195</ele>
        <time>2018-03-29T14:10:13Z</time>
      </trkpt>
      <trkpt lat="45.85694" lon="4.69991">
        <ele>195</ele>
        <time>2018-03-29T14:10:14Z</time>
      </trkpt>
      <trkpt lat="45.85694" lon="4.69983">
        <ele>195</ele>
        <time>2018-03-29T14:10:15Z</time>
      </trkpt>
      <trkpt lat="45.85693" lon="4.69975">
        <ele>195</ele>
        <time>2018-03-29T14:10:16Z</time>
      </trkpt>
      <trkpt lat="45.85692" lon="4.69968">
        <ele>195</ele>
        <time>2018-03-29T14:10:17Z</time>
      </trkpt>
      <trkpt lat="45.8569" lon="4.6996">
        <ele>195</ele>
        <time>2018-03-29T14:10:18Z</time>
      </trkpt>
      <trkpt lat="45.85687" lon="4.69953">
        <ele>195</ele>
        <time>2018-03-29T14:10:19Z</time>
      </trkpt>
      <trkpt lat="45.85685" lon="4.69944">
        <ele>195</ele>
        <time>2018-03-29T14:10:20Z</time>
      </trkpt>
      <trkpt lat="45.85683" lon="4.69937">
        <ele>195</ele>
        <time>2018-03-29T14:10:21Z</time>
      </trkpt>
      <trkpt lat="45.8568" lon="4.69929">
        <ele>195</ele>
        <time>2018-03-29T14:10:22Z</time>
      </trkpt>
      <trkpt lat="45.85678" lon="4.69921">
        <ele>195</ele>
        <time>2018-03-29T14:10:23Z</time>
      </trkpt>
      <trkpt lat="45.85676" lon="4.69913">
        <ele>195</ele>
        <time>2018-03-29T14:10:24Z</time>
      </trkpt>
      <trkpt lat="45.85675" lon="4.69904">
        <ele>195</ele>
        <time>2018-03-29T14:10:25Z</time>
      </trkpt>
      <trkpt lat="45.85673" lon="4.69896">
        <ele>195</ele>
        <time>2018-03-29T14:10:26Z</time>
      </trkpt>
      <trkpt lat="45.85672" lon="4.69888">
        <ele>195</ele>
        <time>2018-03-29T14:10:27Z</time>
      </trkpt>
      <trkpt lat="45.85671" lon="4.69881">
        <ele>195</ele>
        <time>2018-03-29T14:10:28Z</time>
      </trkpt>
      <trkpt lat="45.85669" lon="4.69873">
        <ele>195</ele>
        <time>2018-03-29T14:10:29Z</time>
      </trkpt>
      <trkpt lat="45.85669" lon="4.69866">
        <ele>195</ele>
        <time>2018-03-29T14:10:30Z</time>
      </trkpt>
      <trkpt lat="45.85668" lon="4.69859">
        <ele>195</ele>
        <time>2018-03-29T14:10:31Z</time>
      </trkpt>
      <trkpt lat="45.85668" lon="4.69853">
        <ele>195</ele>
        <time>2018-03-29T14:10:32Z</time>
      </trkpt>
      <trkpt lat="45.85667" lon="4.69845">
        <ele>195</ele>
        <time>2018-03-29T14:10:33Z</time>
      </trkpt>
      <trkpt lat="45.85667" lon="4.69838">
        <ele>195</ele>
        <time>2018-03-29T14:10:34Z</time>
      </trkpt>
      <trkpt lat="45.85665" lon="4.69831">
        <ele>195</ele>
        <time>2018-03-29T14:10:35Z</time>
      </trkpt>
      <trkpt lat="45.85664" lon="4.69824">
        <ele>195</ele>
        <time>2018-03-29T14:10:36Z</time>
      </trkpt>
      <trkpt lat="45.85664" lon="4.69816">
        <ele>195</ele>
        <time>2018-03-29T14:10:37Z</time>
      </trkpt>
      <trkpt lat="45.85663" lon="4.69809">
        <ele>195</ele>
        <time>2018-03-29T14:10:38Z</time>
      </trkpt>
      <trkpt lat="45.85659" lon="4.69804">
        <ele>195</ele>
        <time>2018-03-29T14:10:39Z</time>
      </trkpt>
      <trkpt lat="45.85659" lon="4.69796">
        <ele>195</ele>
        <time>2018-03-29T14:10:40Z</time>
      </trkpt>
      <trkpt lat="45.85659" lon="4.69788">
        <ele>195</ele>
        <time>2018-03-29T14:10:41Z</time>
      </trkpt>
      <trkpt lat="45.85658" lon="4.69781">
        <ele>195</ele>
        <time>2018-03-29T14:10:42Z</time>
      </trkpt>
      <trkpt lat="45.85658" lon="4.69773">
        <ele>195</ele>
        <time>2018-03-29T14:10:43Z</time>
      </trkpt>
      <trkpt lat="45.85658" lon="4.69765">
        <ele>195</ele>
        <time>2018-03-29T14:10:44Z</time>
      </trkpt>
      <trkpt lat="45.85657" lon="4.69758">
        <ele>195</ele>
        <time>2018-03-29T14:10:45Z</time>
      </trkpt>
      <trkpt lat="45.85656" lon="4.69751">
        <ele>194</ele>
        <time>2018-03-29T14:10:46Z</time>
      </trkpt>
      <trkpt lat="45.85656" lon="4.69742">
        <ele>195</ele>
        <time>2018-03-29T14:10:47Z</time>
      </trkpt>
      <trkpt lat="45.85655" lon="4.69735">
        <ele>195</ele>
        <time>2018-03-29T14:10:48Z</time>
      </trkpt>
      <trkpt lat="45.85654" lon="4.69727">
        <ele>195</ele>
        <time>2018-03-29T14:10:49Z</time>
      </trkpt>
      <trkpt lat="45.85653" lon="4.6972">
        <ele>196</ele>
        <time>2018-03-29T14:10:50Z</time>
      </trkpt>
      <trkpt lat="45.85653" lon="4.69712">
        <ele>196</ele>
        <time>2018-03-29T14:10:51Z</time>
      </trkpt>
      <trkpt lat="45.85652" lon="4.69704">
        <ele>196</ele>
        <time>2018-03-29T14:10:52Z</time>
      </trkpt>
      <trkpt lat="45.85651" lon="4.69695">
        <ele>196</ele>
        <time>2018-03-29T14:10:53Z</time>
      </trkpt>
      <trkpt lat="45.8565" lon="4.69687">
        <ele>196</ele>
        <time>2018-03-29T14:10:54Z</time>
      </trkpt>
      <trkpt lat="45.85649" lon="4.69679">
        <ele>196</ele>
        <time>2018-03-29T14:10:55Z</time>
      </trkpt>
      <trkpt lat="45.85648" lon="4.69671">
        <ele>196</ele>
        <time>2018-03-29T14:10:56Z</time>
      </trkpt>
      <trkpt lat="45.85647" lon="4.69662">
        <ele>197</ele>
        <time>2018-03-29T14:10:57Z</time>
      </trkpt>
      <trkpt lat="45.85647" lon="4.69653">
        <ele>197</ele>
        <time>2018-03-29T14:10:58Z</time>
      </trkpt>
      <trkpt lat="45.85646" lon="4.69645">
        <ele>197</ele>
        <time>2018-03-29T14:10:59Z</time>
      </trkpt>
      <trkpt lat="45.85646" lon="4.69636">
        <ele>197</ele>
        <time>2018-03-29T14:11:00Z</time>
      </trkpt>
      <trkpt lat="45.85645" lon="4.69628">
        <ele>197</ele>
        <time>2018-03-29T14:11:01Z</time>
      </trkpt>
      <trkpt lat="45.85644" lon="4.6962">
        <ele>197</ele>
        <time>2018-03-29T14:11:02Z</time>
      </trkpt>
      <trkpt lat="45.85643" lon="4.69611">
        <ele>197</ele>
        <time>2018-03-29T14:11:03Z</time>
      </trkpt>
      <trkpt lat="45.85642" lon="4.69603">
        <ele>197</ele>
        <time>2018-03-29T14:11:04Z</time>
      </trkpt>
      <trkpt lat="45.85642" lon="4.69595">
        <ele>197</ele>
        <time>2018-03-29T14:11:05Z</time>
      </trkpt>
      <trkpt lat="45.85642" lon="4.69587">
        <ele>197</ele>
        <time>2018-03-29T14:11:06Z</time>
      </trkpt>
      <trkpt lat="45.85641" lon="4.69579">
        <ele>198</ele>
        <time>2018-03-29T14:11:07Z</time>
      </trkpt>
      <trkpt lat="45.8564" lon="4.69572">
        <ele>198</ele>
        <time>2018-03-29T14:11:08Z</time>
      </trkpt>
      <trkpt lat="45.85639" lon="4.69564">
        <ele>198</ele>
        <time>2018-03-29T14:11:09Z</time>
      </trkpt>
      <trkpt lat="45.85638" lon="4.69556">
        <ele>198</ele>
        <time>2018-03-29T14:11:10Z</time>
      </trkpt>
      <trkpt lat="45.85637" lon="4.69548">
        <ele>198</ele>
        <time>2018-03-29T14:11:11Z</time>
      </trkpt>
      <trkpt lat="45.85636" lon="4.6954">
        <ele>198</ele>
        <time>2018-03-29T14:11:12Z</time>
      </trkpt>
      <trkpt lat="45.85636" lon="4.69532">
        <ele>198</ele>
        <time>2018-03-29T14:11:13Z</time>
      </trkpt>
      <trkpt lat="45.85635" lon="4.69524">
        <ele>198</ele>
        <time>2018-03-29T14:11:14Z</time>
      </trkpt>
      <trkpt lat="45.85633" lon="4.69516">
        <ele>198</ele>
        <time>2018-03-29T14:11:15Z</time>
      </trkpt>
      <trkpt lat="45.85632" lon="4.69508">
        <ele>198</ele>
        <time>2018-03-29T14:11:16Z</time>
      </trkpt>
      <trkpt lat="45.85632" lon="4.695">
        <ele>198</ele>
        <time>2018-03-29T14:11:17Z</time>
      </trkpt>
      <trkpt lat="45.85631" lon="4.69492">
        <ele>198</ele>
        <time>2018-03-29T14:11:18Z</time>
      </trkpt>
      <trkpt lat="45.85632" lon="4.69483">
        <ele>198</ele>
        <time>2018-03-29T14:11:19Z</time>
      </trkpt>
      <trkpt lat="45.85631" lon="4.69475">
        <ele>198</ele>
        <time>2018-03-29T14:11:20Z</time>
      </trkpt>
      <trkpt lat="45.8563" lon="4.69467">
        <ele>198</ele>
        <time>2018-03-29T14:11:21Z</time>
      </trkpt>
      <trkpt lat="45.8563" lon="4.69459">
        <ele>198</ele>
        <time>2018-03-29T14:11:22Z</time>
      </trkpt>
      <trkpt lat="45.85629" lon="4.69451">
        <ele>198</ele>
        <time>2018-03-29T14:11:23Z</time>
      </trkpt>
      <trkpt lat="45.85627" lon="4.69442">
        <ele>198</ele>
        <time>2018-03-29T14:11:24Z</time>
      </trkpt>
      <trkpt lat="45.85626" lon="4.69435">
        <ele>198</ele>
        <time>2018-03-29T14:11:25Z</time>
      </trkpt>
      <trkpt lat="45.85625" lon="4.69427">
        <ele>198</ele>
        <time>2018-03-29T14:11:26Z</time>
      </trkpt>
      <trkpt lat="45.85625" lon="4.69419">
        <ele>198</ele>
        <time>2018-03-29T14:11:27Z</time>
      </trkpt>
      <trkpt lat="45.85625" lon="4.69412">
        <ele>198</ele>
        <time>2018-03-29T14:11:28Z</time>
      </trkpt>
      <trkpt lat="45.85623" lon="4.69405">
        <ele>198</ele>
        <time>2018-03-29T14:11:29Z</time>
      </trkpt>
      <trkpt lat="45.85623" lon="4.69396">
        <ele>198</ele>
        <time>2018-03-29T14:11:30Z</time>
      </trkpt>
      <trkpt lat="45.85622" lon="4.69388">
        <ele>198</ele>
        <time>2018-03-29T14:11:31Z</time>
      </trkpt>
      <trkpt lat="45.85621" lon="4.69381">
        <ele>198</ele>
        <time>2018-03-29T14:11:32Z</time>
      </trkpt>
      <trkpt lat="45.8562" lon="4.69373">
        <ele>198</ele>
        <time>2018-03-29T14:11:33Z</time>
      </trkpt>
      <trkpt lat="45.8562" lon="4.69365">
        <ele>198</ele>
        <time>2018-03-29T14:11:34Z</time>
      </trkpt>
      <trkpt lat="45.85619" lon="4.69358">
        <ele>198</ele>
        <time>2018-03-29T14:11:35Z</time>
      </trkpt>
      <trkpt lat="45.85618" lon="4.69349">
        <ele>198</ele>
        <time>2018-03-29T14:11:36Z</time>
      </trkpt>
      <trkpt lat="45.85618" lon="4.69342">
        <ele>198</ele>
        <time>2018-03-29T14:11:37Z</time>
      </trkpt>
      <trkpt lat="45.85617" lon="4.69335">
        <ele>198</ele>
        <time>2018-03-29T14:11:38Z</time>
      </trkpt>
      <trkpt lat="45.85616" lon="4.69326">
        <ele>198</ele>
        <time>2018-03-29T14:11:39Z</time>
      </trkpt>
      <trkpt lat="45.85614" lon="4.69319">
        <ele>198</ele>
        <time>2018-03-29T14:11:40Z</time>
      </trkpt>
      <trkpt lat="45.85613" lon="4.69312">
        <ele>198</ele>
        <time>2018-03-29T14:11:41Z</time>
      </trkpt>
      <trkpt lat="45.85612" lon="4.69304">
        <ele>198</ele>
        <time>2018-03-29T14:11:42Z</time>
      </trkpt>
      <trkpt lat="45.85612" lon="4.69296">
        <ele>198</ele>
        <time>2018-03-29T14:11:43Z</time>
      </trkpt>
      <trkpt lat="45.85612" lon="4.69289">
        <ele>198</ele>
        <time>2018-03-29T14:11:44Z</time>
      </trkpt>
      <trkpt lat="45.85612" lon="4.69283">
        <ele>198</ele>
        <time>2018-03-29T14:11:45Z</time>
      </trkpt>
      <trkpt lat="45.85613" lon="4.69276">
        <ele>198</ele>
        <time>2018-03-29T14:11:46Z</time>
      </trkpt>
      <trkpt lat="45.85614" lon="4.69269">
        <ele>198</ele>
        <time>2018-03-29T14:11:47Z</time>
      </trkpt>
      <trkpt lat="45.85615" lon="4.69262">
        <ele>198</ele>
        <time>2018-03-29T14:11:48Z</time>
      </trkpt>
      <trkpt lat="45.85614" lon="4.69255">
        <ele>198</ele>
        <time>2018-03-29T14:11:49Z</time>
      </trkpt>
      <trkpt lat="45.85612" lon="4.69248">
        <ele>199</ele>
        <time>2018-03-29T14:11:50Z</time>
      </trkpt>
      <trkpt lat="45.8561" lon="4.69242">
        <ele>199</ele>
        <time>2018-03-29T14:11:51Z</time>
      </trkpt>
      <trkpt lat="45.85606" lon="4.69235">
        <ele>199</ele>
        <time>2018-03-29T14:11:52Z</time>
      </trkpt>
      <trkpt lat="45.85605" lon="4.69227">
        <ele>199</ele>
        <time>2018-03-29T14:11:53Z</time>
      </trkpt>
      <trkpt lat="45.85603" lon="4.6922">
        <ele>199</ele>
        <time>2018-03-29T14:11:54Z</time>
      </trkpt>
      <trkpt lat="45.85603" lon="4.69212">
        <ele>199</ele>
        <time>2018-03-29T14:11:55Z</time>
      </trkpt>
      <trkpt lat="45.85603" lon="4.69204">
        <ele>199</ele>
        <time>2018-03-29T14:11:56Z</time>
      </trkpt>
      <trkpt lat="45.85602" lon="4.69196">
        <ele>199</ele>
        <time>2018-03-29T14:11:57Z</time>
      </trkpt>
      <trkpt lat="45.85601" lon="4.69188">
        <ele>199</ele>
        <time>2018-03-29T14:11:58Z</time>
      </trkpt>
      <trkpt lat="45.85601" lon="4.69179">
        <ele>199</ele>
        <time>2018-03-29T14:11:59Z</time>
      </trkpt>
      <trkpt lat="45.85601" lon="4.69171">
        <ele>199</ele>
        <time>2018-03-29T14:12:00Z</time>
      </trkpt>
      <trkpt lat="45.856" lon="4.69163">
        <ele>199</ele>
        <time>2018-03-29T14:12:01Z</time>
      </trkpt>
      <trkpt lat="45.85599" lon="4.69154">
        <ele>199</ele>
        <time>2018-03-29T14:12:02Z</time>
      </trkpt>
      <trkpt lat="45.85598" lon="4.69147">
        <ele>199</ele>
        <time>2018-03-29T14:12:03Z</time>
      </trkpt>
      <trkpt lat="45.85597" lon="4.69138">
        <ele>199</ele>
        <time>2018-03-29T14:12:04Z</time>
      </trkpt>
      <trkpt lat="45.85597" lon="4.69131">
        <ele>198</ele>
        <time>2018-03-29T14:12:05Z</time>
      </trkpt>
      <trkpt lat="45.85597" lon="4.69123">
        <ele>198</ele>
        <time>2018-03-29T14:12:06Z</time>
      </trkpt>
      <trkpt lat="45.85596" lon="4.69114">
        <ele>198</ele>
        <time>2018-03-29T14:12:07Z</time>
      </trkpt>
      <trkpt lat="45.85595" lon="4.69106">
        <ele>199</ele>
        <time>2018-03-29T14:12:08Z</time>
      </trkpt>
      <trkpt lat="45.85594" lon="4.69098">
        <ele>199</ele>
        <time>2018-03-29T14:12:09Z</time>
      </trkpt>
      <trkpt lat="45.85594" lon="4.69091">
        <ele>199</ele>
        <time>2018-03-29T14:12:10Z</time>
      </trkpt>
      <trkpt lat="45.85593" lon="4.69082">
        <ele>199</ele>
        <time>2018-03-29T14:12:11Z</time>
      </trkpt>
      <trkpt lat="45.85592" lon="4.69074">
        <ele>199</ele>
        <time>2018-03-29T14:12:12Z</time>
      </trkpt>
      <trkpt lat="45.85591" lon="4.69066">
        <ele>199</ele>
        <time>2018-03-29T14:12:13Z</time>
      </trkpt>
      <trkpt lat="45.8559" lon="4.69057">
        <ele>199</ele>
        <time>2018-03-29T14:12:14Z</time>
      </trkpt>
      <trkpt lat="45.85589" lon="4.69048">
        <ele>199</ele>
        <time>2018-03-29T14:12:15Z</time>
      </trkpt>
      <trkpt lat="45.85589" lon="4.6904">
        <ele>199</ele>
        <time>2018-03-29T14:12:16Z</time>
      </trkpt>
      <trkpt lat="45.85588" lon="4.69031">
        <ele>199</ele>
        <time>2018-03-29T14:12:17Z</time>
      </trkpt>
      <trkpt lat="45.85588" lon="4.69022">
        <ele>199</ele>
        <time>2018-03-29T14:12:18Z</time>
      </trkpt>
      <trkpt lat="45.85587" lon="4.69013">
        <ele>199</ele>
        <time>2018-03-29T14:12:19Z</time>
      </trkpt>
      <trkpt lat="45.85586" lon="4.69005">
        <ele>200</ele>
        <time>2018-03-29T14:12:20Z</time>
      </trkpt>
      <trkpt lat="45.85585" lon="4.68996">
        <ele>200</ele>
        <time>2018-03-29T14:12:21Z</time>
      </trkpt>
      <trkpt lat="45.85585" lon="4.68989">
        <ele>200</ele>
        <time>2018-03-29T14:12:22Z</time>
      </trkpt>
      <trkpt lat="45.85584" lon="4.6898">
        <ele>200</ele>
        <time>2018-03-29T14:12:23Z</time>
      </trkpt>
      <trkpt lat="45.85583" lon="4.68972">
        <ele>200</ele>
        <time>2018-03-29T14:12:24Z</time>
      </trkpt>
      <trkpt lat="45.85582" lon="4.68963">
        <ele>200</ele>
        <time>2018-03-29T14:12:25Z</time>
      </trkpt>
      <trkpt lat="45.85581" lon="4.68954">
        <ele>200</ele>
        <time>2018-03-29T14:12:26Z</time>
      </trkpt>
      <trkpt lat="45.8558" lon="4.68945">
        <ele>200</ele>
        <time>2018-03-29T14:12:27Z</time>
      </trkpt>
      <trkpt lat="45.85579" lon="4.68937">
        <ele>200</ele>
        <time>2018-03-29T14:12:28Z</time>
      </trkpt>
      <trkpt lat="45.85578" lon="4.68929">
        <ele>200</ele>
        <time>2018-03-29T14:12:29Z</time>
      </trkpt>
      <trkpt lat="45.85578" lon="4.6892">
        <ele>200</ele>
        <time>2018-03-29T14:12:30Z</time>
      </trkpt>
      <trkpt lat="45.85577" lon="4.68911">
        <ele>200</ele>
        <time>2018-03-29T14:12:31Z</time>
      </trkpt>
      <trkpt lat="45.85576" lon="4.68903">
        <ele>200</ele>
        <time>2018-03-29T14:12:32Z</time>
      </trkpt>
      <trkpt lat="45.85576" lon="4.68894">
        <ele>200</ele>
        <time>2018-03-29T14:12:33Z</time>
      </trkpt>
      <trkpt lat="45.85576" lon="4.68886">
        <ele>200</ele>
        <time>2018-03-29T14:12:34Z</time>
      </trkpt>
      <trkpt lat="45.85574" lon="4.68878">
        <ele>200</ele>
        <time>2018-03-29T14:12:35Z</time>
      </trkpt>
      <trkpt lat="45.85574" lon="4.68869">
        <ele>200</ele>
        <time>2018-03-29T14:12:36Z</time>
      </trkpt>
      <trkpt lat="45.85573" lon="4.68861">
        <ele>200</ele>
        <time>2018-03-29T14:12:37Z</time>
      </trkpt>
      <trkpt lat="45.85573" lon="4.68853">
        <ele>200</ele>
        <time>2018-03-29T14:12:38Z</time>
      </trkpt>
      <trkpt lat="45.85572" lon="4.68844">
        <ele>200</ele>
        <time>2018-03-29T14:12:39Z</time>
      </trkpt>
      <trkpt lat="45.85571" lon="4.68835">
        <ele>200</ele>
        <time>2018-03-29T14:12:40Z</time>
      </trkpt>
      <trkpt lat="45.85571" lon="4.68826">
        <ele>200</ele>
        <time>2018-03-29T14:12:41Z</time>
      </trkpt>
      <trkpt lat="45.85571" lon="4.68819">
        <ele>200</ele>
        <time>2018-03-29T14:12:42Z</time>
      </trkpt>
      <trkpt lat="45.8557" lon="4.68812">
        <ele>200</ele>
        <time>2018-03-29T14:12:43Z</time>
      </trkpt>
      <trkpt lat="45.85568" lon="4.68801">
        <ele>200</ele>
        <time>2018-03-29T14:12:45Z</time>
      </trkpt>
      <trkpt lat="45.85568" lon="4.68798">
        <ele>200</ele>
        <time>2018-03-29T14:12:46Z</time>
      </trkpt>
      <trkpt lat="45.85564" lon="4.68786">
        <ele>200</ele>
        <time>2018-03-29T14:13:01Z</time>
      </trkpt>
      <trkpt lat="45.85564" lon="4.68785">
        <ele>200</ele>
        <time>2018-03-29T14:13:02Z</time>
      </trkpt>
      <trkpt lat="45.85563" lon="4.68775">
        <ele>200</ele>
        <time>2018-03-29T14:13:06Z</time>
      </trkpt>
      <trkpt lat="45.85563" lon="4.68771">
        <ele>200</ele>
        <time>2018-03-29T14:13:07Z</time>
      </trkpt>
      <trkpt lat="45.85563" lon="4.68759">
        <ele>200</ele>
        <time>2018-03-29T14:13:08Z</time>
      </trkpt>
      <trkpt lat="45.85562" lon="4.68754">
        <ele>200</ele>
        <time>2018-03-29T14:13:09Z</time>
      </trkpt>
      <trkpt lat="45.85561" lon="4.68744">
        <ele>200</ele>
        <time>2018-03-29T14:13:11Z</time>
      </trkpt>
      <trkpt lat="45.8556" lon="4.68739">
        <ele>200</ele>
        <time>2018-03-29T14:13:12Z</time>
      </trkpt>
      <trkpt lat="45.85559" lon="4.68727">
        <ele>200</ele>
        <time>2018-03-29T14:13:14Z</time>
      </trkpt>
      <trkpt lat="45.85558" lon="4.68721">
        <ele>200</ele>
        <time>2018-03-29T14:13:15Z</time>
      </trkpt>
      <trkpt lat="45.85557" lon="4.68715">
        <ele>200</ele>
        <time>2018-03-29T14:13:16Z</time>
      </trkpt>
      <trkpt lat="45.85558" lon="4.68708">
        <ele>200</ele>
        <time>2018-03-29T14:13:17Z</time>
      </trkpt>
      <trkpt lat="45.85557" lon="4.68701">
        <ele>200</ele>
        <time>2018-03-29T14:13:18Z</time>
      </trkpt>
      <trkpt lat="45.85557" lon="4.68694">
        <ele>200</ele>
        <time>2018-03-29T14:13:19Z</time>
      </trkpt>
      <trkpt lat="45.85556" lon="4.68687">
        <ele>200</ele>
        <time>2018-03-29T14:13:20Z</time>
      </trkpt>
      <trkpt lat="45.85555" lon="4.6868">
        <ele>200</ele>
        <time>2018-03-29T14:13:21Z</time>
      </trkpt>
      <trkpt lat="45.85554" lon="4.68672">
        <ele>200</ele>
        <time>2018-03-29T14:13:22Z</time>
      </trkpt>
      <trkpt lat="45.85554" lon="4.68665">
        <ele>200</ele>
        <time>2018-03-29T14:13:23Z</time>
      </trkpt>
      <trkpt lat="45.85553" lon="4.68658">
        <ele>200</ele>
        <time>2018-03-29T14:13:24Z</time>
      </trkpt>
      <trkpt lat="45.85552" lon="4.6865">
        <ele>201</ele>
        <time>2018-03-29T14:13:25Z</time>
      </trkpt>
      <trkpt lat="45.85552" lon="4.68642">
        <ele>201</ele>
        <time>2018-03-29T14:13:26Z</time>
      </trkpt>
      <trkpt lat="45.85553" lon="4.68635">
        <ele>201</ele>
        <time>2018-03-29T14:13:27Z</time>
      </trkpt>
      <trkpt lat="45.85553" lon="4.68628">
        <ele>201</ele>
        <time>2018-03-29T14:13:28Z</time>
      </trkpt>
      <trkpt lat="45.85553" lon="4.68622">
        <ele>201</ele>
        <time>2018-03-29T14:13:29Z</time>
      </trkpt>
      <trkpt lat="45.85552" lon="4.68615">
        <ele>201</ele>
        <time>2018-03-29T14:13:30Z</time>
      </trkpt>
      <trkpt lat="45.85551" lon="4.68608">
        <ele>201</ele>
        <time>2018-03-29T14:13:31Z</time>
      </trkpt>
      <trkpt lat="45.85551" lon="4.686">
        <ele>201</ele>
        <time>2018-03-29T14:13:32Z</time>
      </trkpt>
      <trkpt lat="45.85552" lon="4.68594">
        <ele>201</ele>
        <time>2018-03-29T14:13:33Z</time>
      </trkpt>
      <trkpt lat="45.85553" lon="4.68587">
        <ele>201</ele>
        <time>2018-03-29T14:13:34Z</time>
      </trkpt>
      <trkpt lat="45.85554" lon="4.68579">
        <ele>201</ele>
        <time>2018-03-29T14:13:35Z</time>
      </trkpt>
      <trkpt lat="45.85552" lon="4.6857">
        <ele>201</ele>
        <time>2018-03-29T14:13:36Z</time>
      </trkpt>
      <trkpt lat="45.85552" lon="4.68563">
        <ele>201</ele>
        <time>2018-03-29T14:13:37Z</time>
      </trkpt>
      <trkpt lat="45.8555" lon="4.68556">
        <ele>201</ele>
        <time>2018-03-29T14:13:38Z</time>
      </trkpt>
      <trkpt lat="45.85549" lon="4.6855">
        <ele>201</ele>
        <time>2018-03-29T14:13:39Z</time>
      </trkpt>
      <trkpt lat="45.85548" lon="4.68542">
        <ele>201</ele>
        <time>2018-03-29T14:13:40Z</time>
      </trkpt>
      <trkpt lat="45.85547" lon="4.68533">
        <ele>201</ele>
        <time>2018-03-29T14:13:41Z</time>
      </trkpt>
      <trkpt lat="45.85546" lon="4.68526">
        <ele>201</ele>
        <time>2018-03-29T14:13:42Z</time>
      </trkpt>
      <trkpt lat="45.85545" lon="4.68518">
        <ele>201</ele>
        <time>2018-03-29T14:13:43Z</time>
      </trkpt>
      <trkpt lat="45.85544" lon="4.68509">
        <ele>201</ele>
        <time>2018-03-29T14:13:44Z</time>
      </trkpt>
      <trkpt lat="45.85543" lon="4.68502">
        <ele>201</ele>
        <time>2018-03-29T14:13:45Z</time>
      </trkpt>
      <trkpt lat="45.85542" lon="4.68493">
        <ele>200</ele>
        <time>2018-03-29T14:13:46Z</time>
      </trkpt>
      <trkpt lat="45.85541" lon="4.68485">
        <ele>200</ele>
        <time>2018-03-29T14:13:47Z</time>
      </trkpt>
      <trkpt lat="45.85541" lon="4.68476">
        <ele>200</ele>
        <time>2018-03-29T14:13:48Z</time>
      </trkpt>
      <trkpt lat="45.85541" lon="4.68468">
        <ele>200</ele>
        <time>2018-03-29T14:13:49Z</time>
      </trkpt>
      <trkpt lat="45.85539" lon="4.68459">
        <ele>200</ele>
        <time>2018-03-29T14:13:50Z</time>
      </trkpt>
      <trkpt lat="45.85537" lon="4.68451">
        <ele>200</ele>
        <time>2018-03-29T14:13:51Z</time>
      </trkpt>
      <trkpt lat="45.85536" lon="4.68441">
        <ele>200</ele>
        <time>2018-03-29T14:13:52Z</time>
      </trkpt>
      <trkpt lat="45.85536" lon="4.68431">
        <ele>200</ele>
        <time>2018-03-29T14:13:53Z</time>
      </trkpt>
      <trkpt lat="45.85536" lon="4.68423">
        <ele>200</ele>
        <time>2018-03-29T14:13:54Z</time>
      </trkpt>
      <trkpt lat="45.85535" lon="4.68414">
        <ele>200</ele>
        <time>2018-03-29T14:13:55Z</time>
      </trkpt>
      <trkpt lat="45.85535" lon="4.68406">
        <ele>200</ele>
        <time>2018-03-29T14:13:56Z</time>
      </trkpt>
      <trkpt lat="45.85534" lon="4.68397">
        <ele>200</ele>
        <time>2018-03-29T14:13:57Z</time>
      </trkpt>
      <trkpt lat="45.85533" lon="4.68388">
        <ele>200</ele>
        <time>2018-03-29T14:13:58Z</time>
      </trkpt>
      <trkpt lat="45.85532" lon="4.68379">
        <ele>201</ele>
        <time>2018-03-29T14:13:59Z</time>
      </trkpt>
      <trkpt lat="45.85531" lon="4.68372">
        <ele>201</ele>
        <time>2018-03-29T14:14:00Z</time>
      </trkpt>
      <trkpt lat="45.85529" lon="4.68364">
        <ele>201</ele>
        <time>2018-03-29T14:14:01Z</time>
      </trkpt>
      <trkpt lat="45.85529" lon="4.68357">
        <ele>201</ele>
        <time>2018-03-29T14:14:02Z</time>
      </trkpt>
      <trkpt lat="45.85527" lon="4.6835">
        <ele>201</ele>
        <time>2018-03-29T14:14:03Z</time>
      </trkpt>
      <trkpt lat="45.85526" lon="4.68342">
        <ele>201</ele>
        <time>2018-03-29T14:14:04Z</time>
      </trkpt>
      <trkpt lat="45.85525" lon="4.68334">
        <ele>201</ele>
        <time>2018-03-29T14:14:05Z</time>
      </trkpt>
      <trkpt lat="45.85524" lon="4.68326">
        <ele>202</ele>
        <time>2018-03-29T14:14:06Z</time>
      </trkpt>
      <trkpt lat="45.85523" lon="4.68318">
        <ele>202</ele>
        <time>2018-03-29T14:14:07Z</time>
      </trkpt>
      <trkpt lat="45.85523" lon="4.68311">
        <ele>202</ele>
        <time>2018-03-29T14:14:08Z</time>
      </trkpt>
      <trkpt lat="45.85523" lon="4.68303">
        <ele>202</ele>
        <time>2018-03-29T14:14:09Z</time>
      </trkpt>
      <trkpt lat="45.85521" lon="4.68296">
        <ele>202</ele>
        <time>2018-03-29T14:14:10Z</time>
      </trkpt>
      <trkpt lat="45.8552" lon="4.68289">
        <ele>202</ele>
        <time>2018-03-29T14:14:11Z</time>
      </trkpt>
      <trkpt lat="45.85519" lon="4.68281">
        <ele>202</ele>
        <time>2018-03-29T14:14:12Z</time>
      </trkpt>
      <trkpt lat="45.85519" lon="4.68273">
        <ele>202</ele>
        <time>2018-03-29T14:14:13Z</time>
      </trkpt>
      <trkpt lat="45.85518" lon="4.68266">
        <ele>202</ele>
        <time>2018-03-29T14:14:14Z</time>
      </trkpt>
      <trkpt lat="45.85517" lon="4.68259">
        <ele>202</ele>
        <time>2018-03-29T14:14:15Z</time>
      </trkpt>
      <trkpt lat="45.85516" lon="4.68251">
        <ele>203</ele>
        <time>2018-03-29T14:14:16Z</time>
      </trkpt>
      <trkpt lat="45.85515" lon="4.68243">
        <ele>203</ele>
        <time>2018-03-29T14:14:17Z</time>
      </trkpt>
      <trkpt lat="45.85515" lon="4.68236">
        <ele>203</ele>
        <time>2018-03-29T14:14:18Z</time>
      </trkpt>
      <trkpt lat="45.85517" lon="4.68228">
        <ele>203</ele>
        <time>2018-03-29T14:14:19Z</time>
      </trkpt>
      <trkpt lat="45.85515" lon="4.6822">
        <ele>203</ele>
        <time>2018-03-29T14:14:20Z</time>
      </trkpt>
      <trkpt lat="45.85515" lon="4.68213">
        <ele>203</ele>
        <time>2018-03-29T14:14:21Z</time>
      </trkpt>
      <trkpt lat="45.85513" lon="4.68206">
        <ele>203</ele>
        <time>2018-03-29T14:14:22Z</time>
      </trkpt>
      <trkpt lat="45.85513" lon="4.68197">
        <ele>203</ele>
        <time>2018-03-29T14:14:23Z</time>
      </trkpt>
      <trkpt lat="45.85512" lon="4.6819">
        <ele>203</ele>
        <time>2018-03-29T14:14:24Z</time>
      </trkpt>
      <trkpt lat="45.85511" lon="4.68183">
        <ele>203</ele>
        <time>2018-03-29T14:14:25Z</time>
      </trkpt>
      <trkpt lat="45.8551" lon="4.68177">
        <ele>204</ele>
        <time>2018-03-29T14:14:26Z</time>
      </trkpt>
      <trkpt lat="45.8551" lon="4.68169">
        <ele>204</ele>
        <time>2018-03-29T14:14:27Z</time>
      </trkpt>
      <trkpt lat="45.85509" lon="4.68162">
        <ele>204</ele>
        <time>2018-03-29T14:14:28Z</time>
      </trkpt>
      <trkpt lat="45.85509" lon="4.68154">
        <ele>203</ele>
        <time>2018-03-29T14:14:29Z</time>
      </trkpt>
      <trkpt lat="45.85509" lon="4.68147">
        <ele>203</ele>
        <time>2018-03-29T14:14:30Z</time>
      </trkpt>
      <trkpt lat="45.85508" lon="4.68141">
        <ele>203</ele>
        <time>2018-03-29T14:14:31Z</time>
      </trkpt>
      <trkpt lat="45.85508" lon="4.68134">
        <ele>203</ele>
        <time>2018-03-29T14:14:32Z</time>
      </trkpt>
      <trkpt lat="45.85506" lon="4.68127">
        <ele>203</ele>
        <time>2018-03-29T14:14:33Z</time>
      </trkpt>
      <trkpt lat="45.85505" lon="4.6812">
        <ele>203</ele>
        <time>2018-03-29T14:14:34Z</time>
      </trkpt>
      <trkpt lat="45.85505" lon="4.68112">
        <ele>203</ele>
        <time>2018-03-29T14:14:35Z</time>
      </trkpt>
      <trkpt lat="45.85502" lon="4.681">
        <ele>203</ele>
        <time>2018-03-29T14:14:37Z</time>
      </trkpt>
      <trkpt lat="45.85501" lon="4.68094">
        <ele>203</ele>
        <time>2018-03-29T14:14:38Z</time>
      </trkpt>
      <trkpt lat="45.855" lon="4.68088">
        <ele>204</ele>
        <time>2018-03-29T14:14:39Z</time>
      </trkpt>
      <trkpt lat="45.855" lon="4.68081">
        <ele>204</ele>
        <time>2018-03-29T14:14:40Z</time>
      </trkpt>
      <trkpt lat="45.85498" lon="4.68068">
        <ele>205</ele>
        <time>2018-03-29T14:14:42Z</time>
      </trkpt>
      <trkpt lat="45.85498" lon="4.68062">
        <ele>206</ele>
        <time>2018-03-29T14:14:43Z</time>
      </trkpt>
      <trkpt lat="45.85497" lon="4.68055">
        <ele>206</ele>
        <time>2018-03-29T14:14:44Z</time>
      </trkpt>
      <trkpt lat="45.85497" lon="4.68049">
        <ele>206</ele>
        <time>2018-03-29T14:14:45Z</time>
      </trkpt>
      <trkpt lat="45.85496" lon="4.68036">
        <ele>207</ele>
        <time>2018-03-29T14:14:47Z</time>
      </trkpt>
      <trkpt lat="45.85495" lon="4.68031">
        <ele>207</ele>
        <time>2018-03-29T14:14:48Z</time>
      </trkpt>
      <trkpt lat="45.85495" lon="4.68024">
        <ele>207</ele>
        <time>2018-03-29T14:14:49Z</time>
      </trkpt>
      <trkpt lat="45.85497" lon="4.68016">
        <ele>207</ele>
        <time>2018-03-29T14:14:50Z</time>
      </trkpt>
      <trkpt lat="45.85498" lon="4.68009">
        <ele>206</ele>
        <time>2018-03-29T14:14:51Z</time>
      </trkpt>
      <trkpt lat="45.85499" lon="4.68003">
        <ele>206</ele>
        <time>2018-03-29T14:14:52Z</time>
      </trkpt>
      <trkpt lat="45.85503" lon="4.67998">
        <ele>206</ele>
        <time>2018-03-29T14:14:53Z</time>
      </trkpt>
      <trkpt lat="45.85506" lon="4.67993">
        <ele>206</ele>
        <time>2018-03-29T14:14:54Z</time>
      </trkpt>
      <trkpt lat="45.85509" lon="4.67988">
        <ele>206</ele>
        <time>2018-03-29T14:14:55Z</time>
      </trkpt>
      <trkpt lat="45.85514" lon="4.67983">
        <ele>206</ele>
        <time>2018-03-29T14:14:56Z</time>
      </trkpt>
      <trkpt lat="45.85519" lon="4.67978">
        <ele>206</ele>
        <time>2018-03-29T14:14:57Z</time>
      </trkpt>
      <trkpt lat="45.85524" lon="4.67974">
        <ele>205</ele>
        <time>2018-03-29T14:14:58Z</time>
      </trkpt>
      <trkpt lat="45.85529" lon="4.67969">
        <ele>205</ele>
        <time>2018-03-29T14:14:59Z</time>
      </trkpt>
      <trkpt lat="45.85533" lon="4.67962">
        <ele>205</ele>
        <time>2018-03-29T14:15:00Z</time>
      </trkpt>
      <trkpt lat="45.85537" lon="4.67958">
        <ele>205</ele>
        <time>2018-03-29T14:15:01Z</time>
      </trkpt>
      <trkpt lat="45.85542" lon="4.67952">
        <ele>205</ele>
        <time>2018-03-29T14:15:02Z</time>
      </trkpt>
      <trkpt lat="45.85546" lon="4.67949">
        <ele>205</ele>
        <time>2018-03-29T14:15:03Z</time>
      </trkpt>
      <trkpt lat="45.8555" lon="4.67944">
        <ele>205</ele>
        <time>2018-03-29T14:15:04Z</time>
      </trkpt>
      <trkpt lat="45.85554" lon="4.6794">
        <ele>205</ele>
        <time>2018-03-29T14:15:05Z</time>
      </trkpt>
      <trkpt lat="45.85558" lon="4.67935">
        <ele>205</ele>
        <time>2018-03-29T14:15:06Z</time>
      </trkpt>
      <trkpt lat="45.85561" lon="4.67932">
        <ele>205</ele>
        <time>2018-03-29T14:15:07Z</time>
      </trkpt>
      <trkpt lat="45.85566" lon="4.6793">
        <ele>205</ele>
        <time>2018-03-29T14:15:08Z</time>
      </trkpt>
      <trkpt lat="45.85571" lon="4.67926">
        <ele>205</ele>
        <time>2018-03-29T14:15:09Z</time>
      </trkpt>
      <trkpt lat="45.85574" lon="4.67922">
        <ele>204</ele>
        <time>2018-03-29T14:15:10Z</time>
      </trkpt>
      <trkpt lat="45.85574" lon="4.67912">
        <ele>205</ele>
        <time>2018-03-29T14:15:12Z</time>
      </trkpt>
      <trkpt lat="45.85574" lon="4.67904">
        <ele>206</ele>
        <time>2018-03-29T14:15:13Z</time>
      </trkpt>
      <trkpt lat="45.85573" lon="4.67897">
        <ele>206</ele>
        <time>2018-03-29T14:15:14Z</time>
      </trkpt>
      <trkpt lat="45.85574" lon="4.6789">
        <ele>206</ele>
        <time>2018-03-29T14:15:15Z</time>
      </trkpt>
      <trkpt lat="45.85574" lon="4.67883">
        <ele>206</ele>
        <time>2018-03-29T14:15:16Z</time>
      </trkpt>
      <trkpt lat="45.85574" lon="4.67874">
        <ele>207</ele>
        <time>2018-03-29T14:15:17Z</time>
      </trkpt>
      <trkpt lat="45.85574" lon="4.67865">
        <ele>207</ele>
        <time>2018-03-29T14:15:18Z</time>
      </trkpt>
      <trkpt lat="45.85575" lon="4.67857">
        <ele>206</ele>
        <time>2018-03-29T14:15:19Z</time>
      </trkpt>
      <trkpt lat="45.85575" lon="4.6785">
        <ele>206</ele>
        <time>2018-03-29T14:15:20Z</time>
      </trkpt>
      <trkpt lat="45.85576" lon="4.67842">
        <ele>206</ele>
        <time>2018-03-29T14:15:21Z</time>
      </trkpt>
      <trkpt lat="45.85578" lon="4.67834">
        <ele>206</ele>
        <time>2018-03-29T14:15:22Z</time>
      </trkpt>
      <trkpt lat="45.8558" lon="4.67826">
        <ele>206</ele>
        <time>2018-03-29T14:15:23Z</time>
      </trkpt>
      <trkpt lat="45.85582" lon="4.67818">
        <ele>206</ele>
        <time>2018-03-29T14:15:24Z</time>
      </trkpt>
      <trkpt lat="45.85583" lon="4.6781">
        <ele>206</ele>
        <time>2018-03-29T14:15:25Z</time>
      </trkpt>
      <trkpt lat="45.85585" lon="4.67802">
        <ele>209</ele>
        <time>2018-03-29T14:15:26Z</time>
      </trkpt>
      <trkpt lat="45.85587" lon="4.67795">
        <ele>210</ele>
        <time>2018-03-29T14:15:27Z</time>
      </trkpt>
      <trkpt lat="45.8559" lon="4.67787">
        <ele>210</ele>
        <time>2018-03-29T14:15:28Z</time>
      </trkpt>
      <trkpt lat="45.85592" lon="4.6778">
        <ele>209</ele>
        <time>2018-03-29T14:15:29Z</time>
      </trkpt>
      <trkpt lat="45.85595" lon="4.67772">
        <ele>209</ele>
        <time>2018-03-29T14:15:30Z</time>
      </trkpt>
      <trkpt lat="45.85598" lon="4.67765">
        <ele>209</ele>
        <time>2018-03-29T14:15:31Z</time>
      </trkpt>
      <trkpt lat="45.85601" lon="4.67758">
        <ele>208</ele>
        <time>2018-03-29T14:15:32Z</time>
      </trkpt>
      <trkpt lat="45.85604" lon="4.67751">
        <ele>209</ele>
        <time>2018-03-29T14:15:33Z</time>
      </trkpt>
      <trkpt lat="45.85608" lon="4.67744">
        <ele>208</ele>
        <time>2018-03-29T14:15:34Z</time>
      </trkpt>
      <trkpt lat="45.85612" lon="4.67737">
        <ele>208</ele>
        <time>2018-03-29T14:15:35Z</time>
      </trkpt>
      <trkpt lat="45.85616" lon="4.67729">
        <ele>209</ele>
        <time>2018-03-29T14:15:36Z</time>
      </trkpt>
      <trkpt lat="45.8562" lon="4.67722">
        <ele>209</ele>
        <time>2018-03-29T14:15:37Z</time>
      </trkpt>
      <trkpt lat="45.85625" lon="4.67716">
        <ele>209</ele>
        <time>2018-03-29T14:15:38Z</time>
      </trkpt>
      <trkpt lat="45.8563" lon="4.67711">
        <ele>209</ele>
        <time>2018-03-29T14:15:39Z</time>
      </trkpt>
      <trkpt lat="45.85634" lon="4.67706">
        <ele>209</ele>
        <time>2018-03-29T14:15:40Z</time>
      </trkpt>
      <trkpt lat="45.85639" lon="4.67701">
        <ele>210</ele>
        <time>2018-03-29T14:15:41Z</time>
      </trkpt>
      <trkpt lat="45.85643" lon="4.67697">
        <ele>210</ele>
        <time>2018-03-29T14:15:42Z</time>
      </trkpt>
      <trkpt lat="45.85648" lon="4.67693">
        <ele>210</ele>
        <time>2018-03-29T14:15:43Z</time>
      </trkpt>
      <trkpt lat="45.85653" lon="4.67691">
        <ele>210</ele>
        <time>2018-03-29T14:15:44Z</time>
      </trkpt>
      <trkpt lat="45.85659" lon="4.67687">
        <ele>210</ele>
        <time>2018-03-29T14:15:45Z</time>
      </trkpt>
      <trkpt lat="45.85663" lon="4.67682">
        <ele>209</ele>
        <time>2018-03-29T14:15:46Z</time>
      </trkpt>
      <trkpt lat="45.85668" lon="4.67679">
        <ele>214</ele>
        <time>2018-03-29T14:15:47Z</time>
      </trkpt>
      <trkpt lat="45.85673" lon="4.67677">
        <ele>214</ele>
        <time>2018-03-29T14:15:48Z</time>
      </trkpt>
      <trkpt lat="45.85678" lon="4.67673">
        <ele>215</ele>
        <time>2018-03-29T14:15:49Z</time>
      </trkpt>
      <trkpt lat="45.85682" lon="4.6767">
        <ele>215</ele>
        <time>2018-03-29T14:15:50Z</time>
      </trkpt>
      <trkpt lat="45.85687" lon="4.67667">
        <ele>217</ele>
        <time>2018-03-29T14:15:51Z</time>
      </trkpt>
      <trkpt lat="45.85692" lon="4.67663">
        <ele>211</ele>
        <time>2018-03-29T14:15:52Z</time>
      </trkpt>
      <trkpt lat="45.85695" lon="4.67659">
        <ele>211</ele>
        <time>2018-03-29T14:15:53Z</time>
      </trkpt>
      <trkpt lat="45.857" lon="4.67657">
        <ele>211</ele>
        <time>2018-03-29T14:15:54Z</time>
      </trkpt>
      <trkpt lat="45.85706" lon="4.67656">
        <ele>212</ele>
        <time>2018-03-29T14:15:55Z</time>
      </trkpt>
      <trkpt lat="45.85711" lon="4.67653">
        <ele>212</ele>
        <time>2018-03-29T14:15:56Z</time>
      </trkpt>
      <trkpt lat="45.85716" lon="4.6765">
        <ele>213</ele>
        <time>2018-03-29T14:15:57Z</time>
      </trkpt>
      <trkpt lat="45.85721" lon="4.67646">
        <ele>213</ele>
        <time>2018-03-29T14:15:58Z</time>
      </trkpt>
      <trkpt lat="45.85726" lon="4.67643">
        <ele>213</ele>
        <time>2018-03-29T14:15:59Z</time>
      </trkpt>
      <trkpt lat="45.85731" lon="4.6764">
        <ele>213</ele>
        <time>2018-03-29T14:16:00Z</time>
      </trkpt>
      <trkpt lat="45.85736" lon="4.67637">
        <ele>213</ele>
        <time>2018-03-29T14:16:01Z</time>
      </trkpt>
      <trkpt lat="45.8574" lon="4.67634">
        <ele>213</ele>
        <time>2018-03-29T14:16:02Z</time>
      </trkpt>
      <trkpt lat="45.85745" lon="4.6763">
        <ele>213</ele>
        <time>2018-03-29T14:16:03Z</time>
      </trkpt>
      <trkpt lat="45.85749" lon="4.67626">
        <ele>212</ele>
        <time>2018-03-29T14:16:04Z</time>
      </trkpt>
      <trkpt lat="45.85754" lon="4.67623">
        <ele>219</ele>
        <time>2018-03-29T14:16:05Z</time>
      </trkpt>
      <trkpt lat="45.85759" lon="4.67621">
        <ele>219</ele>
        <time>2018-03-29T14:16:06Z</time>
      </trkpt>
      <trkpt lat="45.85763" lon="4.67617">
        <ele>219</ele>
        <time>2018-03-29T14:16:07Z</time>
      </trkpt>
      <trkpt lat="45.85768" lon="4.67614">
        <ele>219</ele>
        <time>2018-03-29T14:16:08Z</time>
      </trkpt>
      <trkpt lat="45.85773" lon="4.67611">
        <ele>219</ele>
        <time>2018-03-29T14:16:09Z</time>
      </trkpt>
      <trkpt lat="45.85779" lon="4.67606">
        <ele>219</ele>
        <time>2018-03-29T14:16:10Z</time>
      </trkpt>
      <trkpt lat="45.85784" lon="4.67601">
        <ele>219</ele>
        <time>2018-03-29T14:16:11Z</time>
      </trkpt>
      <trkpt lat="45.85789" lon="4.67596">
        <ele>219</ele>
        <time>2018-03-29T14:16:12Z</time>
      </trkpt>
      <trkpt lat="45.85794" lon="4.6759">
        <ele>220</ele>
        <time>2018-03-29T14:16:13Z</time>
      </trkpt>
      <trkpt lat="45.85799" lon="4.67585">
        <ele>220</ele>
        <time>2018-03-29T14:16:14Z</time>
      </trkpt>
      <trkpt lat="45.85804" lon="4.6758">
        <ele>213</ele>
        <time>2018-03-29T14:16:15Z</time>
      </trkpt>
      <trkpt lat="45.85808" lon="4.67576">
        <ele>213</ele>
        <time>2018-03-29T14:16:16Z</time>
      </trkpt>
      <trkpt lat="45.85812" lon="4.6757">
        <ele>214</ele>
        <time>2018-03-29T14:16:17Z</time>
      </trkpt>
      <trkpt lat="45.85816" lon="4.67564">
        <ele>213</ele>
        <time>2018-03-29T14:16:18Z</time>
      </trkpt>
      <trkpt lat="45.8582" lon="4.67558">
        <ele>213</ele>
        <time>2018-03-29T14:16:19Z</time>
      </trkpt>
      <trkpt lat="45.85823" lon="4.67552">
        <ele>212</ele>
        <time>2018-03-29T14:16:20Z</time>
      </trkpt>
      <trkpt lat="45.85827" lon="4.67545">
        <ele>211</ele>
        <time>2018-03-29T14:16:21Z</time>
      </trkpt>
      <trkpt lat="45.8583" lon="4.67538">
        <ele>210</ele>
        <time>2018-03-29T14:16:22Z</time>
      </trkpt>
      <trkpt lat="45.85834" lon="4.6753">
        <ele>219</ele>
        <time>2018-03-29T14:16:23Z</time>
      </trkpt>
      <trkpt lat="45.85837" lon="4.67524">
        <ele>218</ele>
        <time>2018-03-29T14:16:24Z</time>
      </trkpt>
      <trkpt lat="45.85842" lon="4.67519">
        <ele>217</ele>
        <time>2018-03-29T14:16:25Z</time>
      </trkpt>
      <trkpt lat="45.85845" lon="4.67514">
        <ele>216</ele>
        <time>2018-03-29T14:16:26Z</time>
      </trkpt>
      <trkpt lat="45.85848" lon="4.67507">
        <ele>216</ele>
        <time>2018-03-29T14:16:27Z</time>
      </trkpt>
      <trkpt lat="45.8585" lon="4.675">
        <ele>216</ele>
        <time>2018-03-29T14:16:28Z</time>
      </trkpt>
      <trkpt lat="45.85853" lon="4.67494">
        <ele>212</ele>
        <time>2018-03-29T14:16:29Z</time>
      </trkpt>
      <trkpt lat="45.85855" lon="4.67488">
        <ele>212</ele>
        <time>2018-03-29T14:16:30Z</time>
      </trkpt>
      <trkpt lat="45.85858" lon="4.67479">
        <ele>213</ele>
        <time>2018-03-29T14:16:31Z</time>
      </trkpt>
      <trkpt lat="45.85861" lon="4.67472">
        <ele>214</ele>
        <time>2018-03-29T14:16:32Z</time>
      </trkpt>
      <trkpt lat="45.85864" lon="4.67465">
        <ele>214</ele>
        <time>2018-03-29T14:16:33Z</time>
      </trkpt>
      <trkpt lat="45.85865" lon="4.67458">
        <ele>214</ele>
        <time>2018-03-29T14:16:34Z</time>
      </trkpt>
      <trkpt lat="45.85865" lon="4.67451">
        <ele>214</ele>
        <time>2018-03-29T14:16:35Z</time>
      </trkpt>
      <trkpt lat="45.85867" lon="4.67444">
        <ele>213</ele>
        <time>2018-03-29T14:16:36Z</time>
      </trkpt>
      <trkpt lat="45.85869" lon="4.67437">
        <ele>214</ele>
        <time>2018-03-29T14:16:37Z</time>
      </trkpt>
      <trkpt lat="45.85871" lon="4.67431">
        <ele>214</ele>
        <time>2018-03-29T14:16:38Z</time>
      </trkpt>
      <trkpt lat="45.85873" lon="4.67424">
        <ele>214</ele>
        <time>2018-03-29T14:16:39Z</time>
      </trkpt>
      <trkpt lat="45.85873" lon="4.67416">
        <ele>210</ele>
        <time>2018-03-29T14:16:40Z</time>
      </trkpt>
      <trkpt lat="45.85872" lon="4.67407">
        <ele>210</ele>
        <time>2018-03-29T14:16:41Z</time>
      </trkpt>
      <trkpt lat="45.85874" lon="4.67398">
        <ele>210</ele>
        <time>2018-03-29T14:16:42Z</time>
      </trkpt>
      <trkpt lat="45.85873" lon="4.67392">
        <ele>210</ele>
        <time>2018-03-29T14:16:43Z</time>
      </trkpt>
      <trkpt lat="45.85874" lon="4.67382">
        <ele>209</ele>
        <time>2018-03-29T14:16:44Z</time>
      </trkpt>
      <trkpt lat="45.85874" lon="4.67375">
        <ele>209</ele>
        <time>2018-03-29T14:16:45Z</time>
      </trkpt>
      <trkpt lat="45.85875" lon="4.67367">
        <ele>209</ele>
        <time>2018-03-29T14:16:46Z</time>
      </trkpt>
      <trkpt lat="45.85876" lon="4.6736">
        <ele>209</ele>
        <time>2018-03-29T14:16:47Z</time>
      </trkpt>
      <trkpt lat="45.85875" lon="4.67351">
        <ele>209</ele>
        <time>2018-03-29T14:16:48Z</time>
      </trkpt>
      <trkpt lat="45.85875" lon="4.67342">
        <ele>208</ele>
        <time>2018-03-29T14:16:49Z</time>
      </trkpt>
      <trkpt lat="45.85874" lon="4.67332">
        <ele>206</ele>
        <time>2018-03-29T14:16:50Z</time>
      </trkpt>
      <trkpt lat="45.85875" lon="4.67324">
        <ele>206</ele>
        <time>2018-03-29T14:16:51Z</time>
      </trkpt>
      <trkpt lat="45.85876" lon="4.67316">
        <ele>206</ele>
        <time>2018-03-29T14:16:52Z</time>
      </trkpt>
      <trkpt lat="45.85879" lon="4.67307">
        <ele>206</ele>
        <time>2018-03-29T14:16:53Z</time>
      </trkpt>
      <trkpt lat="45.85879" lon="4.673">
        <ele>206</ele>
        <time>2018-03-29T14:16:54Z</time>
      </trkpt>
      <trkpt lat="45.85879" lon="4.67292">
        <ele>205</ele>
        <time>2018-03-29T14:16:55Z</time>
      </trkpt>
      <trkpt lat="45.8588" lon="4.67285">
        <ele>205</ele>
        <time>2018-03-29T14:16:56Z</time>
      </trkpt>
      <trkpt lat="45.85881" lon="4.67277">
        <ele>205</ele>
        <time>2018-03-29T14:16:57Z</time>
      </trkpt>
      <trkpt lat="45.85881" lon="4.67269">
        <ele>205</ele>
        <time>2018-03-29T14:16:58Z</time>
      </trkpt>
      <trkpt lat="45.85882" lon="4.67262">
        <ele>205</ele>
        <time>2018-03-29T14:16:59Z</time>
      </trkpt>
      <trkpt lat="45.85883" lon="4.67254">
        <ele>205</ele>
        <time>2018-03-29T14:17:00Z</time>
      </trkpt>
      <trkpt lat="45.85883" lon="4.67245">
        <ele>204</ele>
        <time>2018-03-29T14:17:01Z</time>
      </trkpt>
      <trkpt lat="45.85884" lon="4.67237">
        <ele>204</ele>
        <time>2018-03-29T14:17:02Z</time>
      </trkpt>
      <trkpt lat="45.85885" lon="4.6723">
        <ele>204</ele>
        <time>2018-03-29T14:17:03Z</time>
      </trkpt>
      <trkpt lat="45.85886" lon="4.67224">
        <ele>204</ele>
        <time>2018-03-29T14:17:04Z</time>
      </trkpt>
      <trkpt lat="45.85887" lon="4.67216">
        <ele>204</ele>
        <time>2018-03-29T14:17:05Z</time>
      </trkpt>
      <trkpt lat="45.85888" lon="4.67208">
        <ele>204</ele>
        <time>2018-03-29T14:17:06Z</time>
      </trkpt>
      <trkpt lat="45.85889" lon="4.67199">
        <ele>204</ele>
        <time>2018-03-29T14:17:07Z</time>
      </trkpt>
      <trkpt lat="45.85891" lon="4.67191">
        <ele>204</ele>
        <time>2018-03-29T14:17:08Z</time>
      </trkpt>
      <trkpt lat="45.85891" lon="4.67183">
        <ele>205</ele>
        <time>2018-03-29T14:17:09Z</time>
      </trkpt>
      <trkpt lat="45.85892" lon="4.67175">
        <ele>205</ele>
        <time>2018-03-29T14:17:10Z</time>
      </trkpt>
      <trkpt lat="45.85892" lon="4.67168">
        <ele>205</ele>
        <time>2018-03-29T14:17:11Z</time>
      </trkpt>
      <trkpt lat="45.85894" lon="4.67161">
        <ele>205</ele>
        <time>2018-03-29T14:17:12Z</time>
      </trkpt>
      <trkpt lat="45.85895" lon="4.67153">
        <ele>204</ele>
        <time>2018-03-29T14:17:13Z</time>
      </trkpt>
      <trkpt lat="45.85895" lon="4.67146">
        <ele>204</ele>
        <time>2018-03-29T14:17:14Z</time>
      </trkpt>
      <trkpt lat="45.85896" lon="4.67138">
        <ele>204</ele>
        <time>2018-03-29T14:17:15Z</time>
      </trkpt>
      <trkpt lat="45.85896" lon="4.67131">
        <ele>204</ele>
        <time>2018-03-29T14:17:16Z</time>
      </trkpt>
      <trkpt lat="45.85897" lon="4.67123">
        <ele>204</ele>
        <time>2018-03-29T14:17:17Z</time>
      </trkpt>
      <trkpt lat="45.85897" lon="4.67111">
        <ele>204</ele>
        <time>2018-03-29T14:17:19Z</time>
      </trkpt>
      <trkpt lat="45.85898" lon="4.67105">
        <ele>204</ele>
        <time>2018-03-29T14:17:20Z</time>
      </trkpt>
      <trkpt lat="45.859" lon="4.67097">
        <ele>204</ele>
        <time>2018-03-29T14:17:21Z</time>
      </trkpt>
      <trkpt lat="45.859" lon="4.67089">
        <ele>204</ele>
        <time>2018-03-29T14:17:22Z</time>
      </trkpt>
      <trkpt lat="45.85901" lon="4.67081">
        <ele>204</ele>
        <time>2018-03-29T14:17:23Z</time>
      </trkpt>
      <trkpt lat="45.85902" lon="4.67074">
        <ele>204</ele>
        <time>2018-03-29T14:17:24Z</time>
      </trkpt>
      <trkpt lat="45.85904" lon="4.67061">
        <ele>205</ele>
        <time>2018-03-29T14:17:26Z</time>
      </trkpt>
      <trkpt lat="45.85905" lon="4.67054">
        <ele>205</ele>
        <time>2018-03-29T14:17:27Z</time>
      </trkpt>
      <trkpt lat="45.85907" lon="4.67047">
        <ele>205</ele>
        <time>2018-03-29T14:17:28Z</time>
      </trkpt>
      <trkpt lat="45.85908" lon="4.67041">
        <ele>205</ele>
        <time>2018-03-29T14:17:29Z</time>
      </trkpt>
      <trkpt lat="45.85909" lon="4.67034">
        <ele>205</ele>
        <time>2018-03-29T14:17:30Z</time>
      </trkpt>
      <trkpt lat="45.85911" lon="4.67028">
        <ele>205</ele>
        <time>2018-03-29T14:17:31Z</time>
      </trkpt>
      <trkpt lat="45.85913" lon="4.67016">
        <ele>206</ele>
        <time>2018-03-29T14:17:33Z</time>
      </trkpt>
      <trkpt lat="45.85915" lon="4.6701">
        <ele>206</ele>
        <time>2018-03-29T14:17:34Z</time>
      </trkpt>
      <trkpt lat="45.85919" lon="4.67001">
        <ele>206</ele>
        <time>2018-03-29T14:17:36Z</time>
      </trkpt>
      <trkpt lat="45.85921" lon="4.66995">
        <ele>207</ele>
        <time>2018-03-29T14:17:37Z</time>
      </trkpt>
      <trkpt lat="45.85926" lon="4.66986">
        <ele>208</ele>
        <time>2018-03-29T14:17:39Z</time>
      </trkpt>
      <trkpt lat="45.85928" lon="4.66977">
        <ele>208</ele>
        <time>2018-03-29T14:17:40Z</time>
      </trkpt>
      <trkpt lat="45.85928" lon="4.66969">
        <ele>209</ele>
        <time>2018-03-29T14:17:41Z</time>
      </trkpt>
      <trkpt lat="45.85926" lon="4.6696">
        <ele>209</ele>
        <time>2018-03-29T14:17:42Z</time>
      </trkpt>
      <trkpt lat="45.85925" lon="4.66951">
        <ele>209</ele>
        <time>2018-03-29T14:17:43Z</time>
      </trkpt>
      <trkpt lat="45.85925" lon="4.66941">
        <ele>209</ele>
        <time>2018-03-29T14:17:44Z</time>
      </trkpt>
      <trkpt lat="45.85926" lon="4.66932">
        <ele>208</ele>
        <time>2018-03-29T14:17:45Z</time>
      </trkpt>
      <trkpt lat="45.85927" lon="4.66923">
        <ele>208</ele>
        <time>2018-03-29T14:17:46Z</time>
      </trkpt>
      <trkpt lat="45.85928" lon="4.66915">
        <ele>208</ele>
        <time>2018-03-29T14:17:47Z</time>
      </trkpt>
      <trkpt lat="45.85931" lon="4.66907">
        <ele>209</ele>
        <time>2018-03-29T14:17:48Z</time>
      </trkpt>
      <trkpt lat="45.85933" lon="4.66898">
        <ele>209</ele>
        <time>2018-03-29T14:17:49Z</time>
      </trkpt>
      <trkpt lat="45.85934" lon="4.66891">
        <ele>210</ele>
        <time>2018-03-29T14:17:50Z</time>
      </trkpt>
      <trkpt lat="45.85936" lon="4.66883">
        <ele>210</ele>
        <time>2018-03-29T14:17:51Z</time>
      </trkpt>
      <trkpt lat="45.85938" lon="4.66874">
        <ele>210</ele>
        <time>2018-03-29T14:17:52Z</time>
      </trkpt>
      <trkpt lat="45.8594" lon="4.66868">
        <ele>210</ele>
        <time>2018-03-29T14:17:53Z</time>
      </trkpt>
      <trkpt lat="45.85942" lon="4.6686">
        <ele>210</ele>
        <time>2018-03-29T14:17:54Z</time>
      </trkpt>
      <trkpt lat="45.85943" lon="4.66853">
        <ele>210</ele>
        <time>2018-03-29T14:17:55Z</time>
      </trkpt>
      <trkpt lat="45.85944" lon="4.66846">
        <ele>210</ele>
        <time>2018-03-29T14:17:56Z</time>
      </trkpt>
      <trkpt lat="45.85947" lon="4.66839">
        <ele>211</ele>
        <time>2018-03-29T14:17:57Z</time>
      </trkpt>
      <trkpt lat="45.85949" lon="4.66833">
        <ele>212</ele>
        <time>2018-03-29T14:17:58Z</time>
      </trkpt>
      <trkpt lat="45.8595" lon="4.66827">
        <ele>212</ele>
        <time>2018-03-29T14:17:59Z</time>
      </trkpt>
      <trkpt lat="45.85952" lon="4.6682">
        <ele>212</ele>
        <time>2018-03-29T14:18:00Z</time>
      </trkpt>
      <trkpt lat="45.85956" lon="4.66809">
        <ele>213</ele>
        <time>2018-03-29T14:18:02Z</time>
      </trkpt>
      <trkpt lat="45.85958" lon="4.66803">
        <ele>213</ele>
        <time>2018-03-29T14:18:03Z</time>
      </trkpt>
      <trkpt lat="45.85963" lon="4.66792">
        <ele>213</ele>
        <time>2018-03-29T14:18:05Z</time>
      </trkpt>
      <trkpt lat="45.85965" lon="4.66786">
        <ele>214</ele>
        <time>2018-03-29T14:18:06Z</time>
      </trkpt>
      <trkpt lat="45.85967" lon="4.66781">
        <ele>214</ele>
        <time>2018-03-29T14:18:07Z</time>
      </trkpt>
      <trkpt lat="45.8597" lon="4.66775">
        <ele>214</ele>
        <time>2018-03-29T14:18:08Z</time>
      </trkpt>
      <trkpt lat="45.85973" lon="4.66763">
        <ele>214</ele>
        <time>2018-03-29T14:18:10Z</time>
      </trkpt>
      <trkpt lat="45.85975" lon="4.66757">
        <ele>215</ele>
        <time>2018-03-29T14:18:11Z</time>
      </trkpt>
      <trkpt lat="45.85979" lon="4.66747">
        <ele>216</ele>
        <time>2018-03-29T14:18:13Z</time>
      </trkpt>
      <trkpt lat="45.85982" lon="4.66741">
        <ele>216</ele>
        <time>2018-03-29T14:18:14Z</time>
      </trkpt>
      <trkpt lat="45.85985" lon="4.66736">
        <ele>216</ele>
        <time>2018-03-29T14:18:15Z</time>
      </trkpt>
      <trkpt lat="45.85988" lon="4.6673">
        <ele>216</ele>
        <time>2018-03-29T14:18:16Z</time>
      </trkpt>
      <trkpt lat="45.85993" lon="4.66721">
        <ele>215</ele>
        <time>2018-03-29T14:18:18Z</time>
      </trkpt>
      <trkpt lat="45.85996" lon="4.66715">
        <ele>215</ele>
        <time>2018-03-29T14:18:19Z</time>
      </trkpt>
      <trkpt lat="45.86001" lon="4.66706">
        <ele>219</ele>
        <time>2018-03-29T14:18:21Z</time>
      </trkpt>
      <trkpt lat="45.86004" lon="4.66701">
        <ele>219</ele>
        <time>2018-03-29T14:18:22Z</time>
      </trkpt>
      <trkpt lat="45.86008" lon="4.66696">
        <ele>219</ele>
        <time>2018-03-29T14:18:23Z</time>
      </trkpt>
      <trkpt lat="45.86011" lon="4.66692">
        <ele>218</ele>
        <time>2018-03-29T14:18:24Z</time>
      </trkpt>
      <trkpt lat="45.86015" lon="4.66688">
        <ele>218</ele>
        <time>2018-03-29T14:18:25Z</time>
      </trkpt>
      <trkpt lat="45.86018" lon="4.66683">
        <ele>218</ele>
        <time>2018-03-29T14:18:26Z</time>
      </trkpt>
      <trkpt lat="45.86024" lon="4.66675">
        <ele>218</ele>
        <time>2018-03-29T14:18:28Z</time>
      </trkpt>
      <trkpt lat="45.86028" lon="4.66671">
        <ele>219</ele>
        <time>2018-03-29T14:18:29Z</time>
      </trkpt>
      <trkpt lat="45.86035" lon="4.66663">
        <ele>214</ele>
        <time>2018-03-29T14:18:31Z</time>
      </trkpt>
      <trkpt lat="45.86038" lon="4.6666">
        <ele>214</ele>
        <time>2018-03-29T14:18:32Z</time>
      </trkpt>
      <trkpt lat="45.86041" lon="4.66657">
        <ele>215</ele>
        <time>2018-03-29T14:18:33Z</time>
      </trkpt>
      <trkpt lat="45.86045" lon="4.66652">
        <ele>215</ele>
        <time>2018-03-29T14:18:34Z</time>
      </trkpt>
      <trkpt lat="45.86052" lon="4.66645">
        <ele>215</ele>
        <time>2018-03-29T14:18:36Z</time>
      </trkpt>
      <trkpt lat="45.86056" lon="4.66644">
        <ele>215</ele>
        <time>2018-03-29T14:18:37Z</time>
      </trkpt>
      <trkpt lat="45.8606" lon="4.66638">
        <ele>215</ele>
        <time>2018-03-29T14:18:38Z</time>
      </trkpt>
      <trkpt lat="45.86064" lon="4.66633">
        <ele>215</ele>
        <time>2018-03-29T14:18:39Z</time>
      </trkpt>
      <trkpt lat="45.86068" lon="4.66629">
        <ele>215</ele>
        <time>2018-03-29T14:18:40Z</time>
      </trkpt>
      <trkpt lat="45.86073" lon="4.66628">
        <ele>215</ele>
        <time>2018-03-29T14:18:41Z</time>
      </trkpt>
      <trkpt lat="45.86076" lon="4.66625">
        <ele>214</ele>
        <time>2018-03-29T14:18:42Z</time>
      </trkpt>
      <trkpt lat="45.86081" lon="4.66622">
        <ele>214</ele>
        <time>2018-03-29T14:18:43Z</time>
      </trkpt>
      <trkpt lat="45.86085" lon="4.66619">
        <ele>221</ele>
        <time>2018-03-29T14:18:44Z</time>
      </trkpt>
      <trkpt lat="45.86089" lon="4.66617">
        <ele>221</ele>
        <time>2018-03-29T14:18:45Z</time>
      </trkpt>
      <trkpt lat="45.86097" lon="4.66611">
        <ele>220</ele>
        <time>2018-03-29T14:18:47Z</time>
      </trkpt>
      <trkpt lat="45.86101" lon="4.66609">
        <ele>220</ele>
        <time>2018-03-29T14:18:48Z</time>
      </trkpt>
      <trkpt lat="45.86105" lon="4.66605">
        <ele>220</ele>
        <time>2018-03-29T14:18:49Z</time>
      </trkpt>
      <trkpt lat="45.8611" lon="4.66604">
        <ele>221</ele>
        <time>2018-03-29T14:18:50Z</time>
      </trkpt>
      <trkpt lat="45.86118" lon="4.66598">
        <ele>221</ele>
        <time>2018-03-29T14:18:52Z</time>
      </trkpt>
      <trkpt lat="45.86122" lon="4.66596">
        <ele>221</ele>
        <time>2018-03-29T14:18:53Z</time>
      </trkpt>
      <trkpt lat="45.86127" lon="4.66592">
        <ele>222</ele>
        <time>2018-03-29T14:18:54Z</time>
      </trkpt>
      <trkpt lat="45.8613" lon="4.66587">
        <ele>222</ele>
        <time>2018-03-29T14:18:55Z</time>
      </trkpt>
      <trkpt lat="45.86134" lon="4.66584">
        <ele>222</ele>
        <time>2018-03-29T14:18:56Z</time>
      </trkpt>
      <trkpt lat="45.86138" lon="4.66581">
        <ele>215</ele>
        <time>2018-03-29T14:18:57Z</time>
      </trkpt>
      <trkpt lat="45.86142" lon="4.66577">
        <ele>216</ele>
        <time>2018-03-29T14:18:58Z</time>
      </trkpt>
      <trkpt lat="45.86146" lon="4.66573">
        <ele>216</ele>
        <time>2018-03-29T14:18:59Z</time>
      </trkpt>
      <trkpt lat="45.8615" lon="4.66568">
        <ele>216</ele>
        <time>2018-03-29T14:19:00Z</time>
      </trkpt>
      <trkpt lat="45.86155" lon="4.66564">
        <ele>216</ele>
        <time>2018-03-29T14:19:01Z</time>
      </trkpt>
      <trkpt lat="45.86158" lon="4.66559">
        <ele>216</ele>
        <time>2018-03-29T14:19:02Z</time>
      </trkpt>
      <trkpt lat="45.86162" lon="4.66553">
        <ele>215</ele>
        <time>2018-03-29T14:19:03Z</time>
      </trkpt>
      <trkpt lat="45.86165" lon="4.66548">
        <ele>215</ele>
        <time>2018-03-29T14:19:04Z</time>
      </trkpt>
      <trkpt lat="45.86169" lon="4.66542">
        <ele>220</ele>
        <time>2018-03-29T14:19:05Z</time>
      </trkpt>
      <trkpt lat="45.86172" lon="4.66535">
        <ele>219</ele>
        <time>2018-03-29T14:19:06Z</time>
      </trkpt>
      <trkpt lat="45.86175" lon="4.66528">
        <ele>218</ele>
        <time>2018-03-29T14:19:07Z</time>
      </trkpt>
      <trkpt lat="45.8618" lon="4.66521">
        <ele>217</ele>
        <time>2018-03-29T14:19:08Z</time>
      </trkpt>
      <trkpt lat="45.86184" lon="4.66514">
        <ele>217</ele>
        <time>2018-03-29T14:19:09Z</time>
      </trkpt>
      <trkpt lat="45.86188" lon="4.66507">
        <ele>217</ele>
        <time>2018-03-29T14:19:10Z</time>
      </trkpt>
      <trkpt lat="45.86191" lon="4.665">
        <ele>212</ele>
        <time>2018-03-29T14:19:11Z</time>
      </trkpt>
      <trkpt lat="45.86195" lon="4.66494">
        <ele>213</ele>
        <time>2018-03-29T14:19:12Z</time>
      </trkpt>
      <trkpt lat="45.86198" lon="4.66487">
        <ele>213</ele>
        <time>2018-03-29T14:19:13Z</time>
      </trkpt>
      <trkpt lat="45.86202" lon="4.6648">
        <ele>213</ele>
        <time>2018-03-29T14:19:14Z</time>
      </trkpt>
      <trkpt lat="45.86207" lon="4.66473">
        <ele>213</ele>
        <time>2018-03-29T14:19:15Z</time>
      </trkpt>
      <trkpt lat="45.86212" lon="4.66466">
        <ele>214</ele>
        <time>2018-03-29T14:19:16Z</time>
      </trkpt>
      <trkpt lat="45.86215" lon="4.66459">
        <ele>214</ele>
        <time>2018-03-29T14:19:17Z</time>
      </trkpt>
      <trkpt lat="45.86219" lon="4.66452">
        <ele>214</ele>
        <time>2018-03-29T14:19:18Z</time>
      </trkpt>
      <trkpt lat="45.86222" lon="4.66447">
        <ele>214</ele>
        <time>2018-03-29T14:19:19Z</time>
      </trkpt>
      <trkpt lat="45.86225" lon="4.66441">
        <ele>214</ele>
        <time>2018-03-29T14:19:20Z</time>
      </trkpt>
      <trkpt lat="45.86229" lon="4.66434">
        <ele>214</ele>
        <time>2018-03-29T14:19:21Z</time>
      </trkpt>
      <trkpt lat="45.86231" lon="4.66429">
        <ele>214</ele>
        <time>2018-03-29T14:19:22Z</time>
      </trkpt>
      <trkpt lat="45.86235" lon="4.66423">
        <ele>214</ele>
        <time>2018-03-29T14:19:23Z</time>
      </trkpt>
      <trkpt lat="45.86239" lon="4.66415">
        <ele>213</ele>
        <time>2018-03-29T14:19:24Z</time>
      </trkpt>
      <trkpt lat="45.86243" lon="4.66409">
        <ele>213</ele>
        <time>2018-03-29T14:19:25Z</time>
      </trkpt>
      <trkpt lat="45.86247" lon="4.66403">
        <ele>213</ele>
        <time>2018-03-29T14:19:26Z</time>
      </trkpt>
      <trkpt lat="45.86251" lon="4.66396">
        <ele>216</ele>
        <time>2018-03-29T14:19:27Z</time>
      </trkpt>
      <trkpt lat="45.86254" lon="4.6639">
        <ele>216</ele>
        <time>2018-03-29T14:19:28Z</time>
      </trkpt>
      <trkpt lat="45.86258" lon="4.66385">
        <ele>216</ele>
        <time>2018-03-29T14:19:29Z</time>
      </trkpt>
      <trkpt lat="45.86261" lon="4.66379">
        <ele>216</ele>
        <time>2018-03-29T14:19:30Z</time>
      </trkpt>
      <trkpt lat="45.86264" lon="4.66372">
        <ele>216</ele>
        <time>2018-03-29T14:19:31Z</time>
      </trkpt>
      <trkpt lat="45.86267" lon="4.66366">
        <ele>216</ele>
        <time>2018-03-29T14:19:32Z</time>
      </trkpt>
      <trkpt lat="45.86271" lon="4.6636">
        <ele>216</ele>
        <time>2018-03-29T14:19:33Z</time>
      </trkpt>
      <trkpt lat="45.86273" lon="4.66355">
        <ele>216</ele>
        <time>2018-03-29T14:19:34Z</time>
      </trkpt>
      <trkpt lat="45.86277" lon="4.66349">
        <ele>216</ele>
        <time>2018-03-29T14:19:35Z</time>
      </trkpt>
      <trkpt lat="45.8628" lon="4.66344">
        <ele>216</ele>
        <time>2018-03-29T14:19:36Z</time>
      </trkpt>
      <trkpt lat="45.86284" lon="4.66338">
        <ele>217</ele>
        <time>2018-03-29T14:19:37Z</time>
      </trkpt>
      <trkpt lat="45.86287" lon="4.66333">
        <ele>217</ele>
        <time>2018-03-29T14:19:38Z</time>
      </trkpt>
      <trkpt lat="45.8629" lon="4.66328">
        <ele>214</ele>
        <time>2018-03-29T14:19:39Z</time>
      </trkpt>
      <trkpt lat="45.86294" lon="4.66323">
        <ele>215</ele>
        <time>2018-03-29T14:19:40Z</time>
      </trkpt>
      <trkpt lat="45.86297" lon="4.66318">
        <ele>215</ele>
        <time>2018-03-29T14:19:41Z</time>
      </trkpt>
      <trkpt lat="45.863" lon="4.66314">
        <ele>215</ele>
        <time>2018-03-29T14:19:42Z</time>
      </trkpt>
      <trkpt lat="45.86305" lon="4.6631">
        <ele>215</ele>
        <time>2018-03-29T14:19:43Z</time>
      </trkpt>
      <trkpt lat="45.86309" lon="4.66306">
        <ele>215</ele>
        <time>2018-03-29T14:19:44Z</time>
      </trkpt>
      <trkpt lat="45.86313" lon="4.66302">
        <ele>215</ele>
        <time>2018-03-29T14:19:45Z</time>
      </trkpt>
      <trkpt lat="45.86316" lon="4.66297">
        <ele>215</ele>
        <time>2018-03-29T14:19:46Z</time>
      </trkpt>
      <trkpt lat="45.8632" lon="4.66292">
        <ele>215</ele>
        <time>2018-03-29T14:19:47Z</time>
      </trkpt>
      <trkpt lat="45.86325" lon="4.66288">
        <ele>215</ele>
        <time>2018-03-29T14:19:48Z</time>
      </trkpt>
      <trkpt lat="45.86329" lon="4.66284">
        <ele>214</ele>
        <time>2018-03-29T14:19:49Z</time>
      </trkpt>
      <trkpt lat="45.86333" lon="4.66279">
        <ele>214</ele>
        <time>2018-03-29T14:19:50Z</time>
      </trkpt>
      <trkpt lat="45.86338" lon="4.66276">
        <ele>218</ele>
        <time>2018-03-29T14:19:51Z</time>
      </trkpt>
      <trkpt lat="45.86345" lon="4.66269">
        <ele>218</ele>
        <time>2018-03-29T14:19:53Z</time>
      </trkpt>
      <trkpt lat="45.8635" lon="4.66266">
        <ele>218</ele>
        <time>2018-03-29T14:19:54Z</time>
      </trkpt>
      <trkpt lat="45.86357" lon="4.66261">
        <ele>218</ele>
        <time>2018-03-29T14:19:56Z</time>
      </trkpt>
      <trkpt lat="45.86361" lon="4.66259">
        <ele>218</ele>
        <time>2018-03-29T14:19:57Z</time>
      </trkpt>
      <trkpt lat="45.86366" lon="4.66255">
        <ele>219</ele>
        <time>2018-03-29T14:19:58Z</time>
      </trkpt>
      <trkpt lat="45.86371" lon="4.66253">
        <ele>219</ele>
        <time>2018-03-29T14:19:59Z</time>
      </trkpt>
      <trkpt lat="45.86375" lon="4.6625">
        <ele>219</ele>
        <time>2018-03-29T14:20:00Z</time>
      </trkpt>
      <trkpt lat="45.86379" lon="4.66247">
        <ele>214</ele>
        <time>2018-03-29T14:20:01Z</time>
      </trkpt>
      <trkpt lat="45.86383" lon="4.66245">
        <ele>214</ele>
        <time>2018-03-29T14:20:02Z</time>
      </trkpt>
      <trkpt lat="45.8639" lon="4.6624">
        <ele>215</ele>
        <time>2018-03-29T14:20:03Z</time>
      </trkpt>
      <trkpt lat="45.86395" lon="4.66238">
        <ele>215</ele>
        <time>2018-03-29T14:20:04Z</time>
      </trkpt>
      <trkpt lat="45.86399" lon="4.66237">
        <ele>216</ele>
        <time>2018-03-29T14:20:05Z</time>
      </trkpt>
      <trkpt lat="45.86404" lon="4.66235">
        <ele>216</ele>
        <time>2018-03-29T14:20:06Z</time>
      </trkpt>
      <trkpt lat="45.86408" lon="4.66233">
        <ele>216</ele>
        <time>2018-03-29T14:20:07Z</time>
      </trkpt>
      <trkpt lat="45.86414" lon="4.6623">
        <ele>216</ele>
        <time>2018-03-29T14:20:08Z</time>
      </trkpt>
      <trkpt lat="45.86418" lon="4.66229">
        <ele>219</ele>
        <time>2018-03-29T14:20:09Z</time>
      </trkpt>
      <trkpt lat="45.86425" lon="4.66227">
        <ele>218</ele>
        <time>2018-03-29T14:20:12Z</time>
      </trkpt>
      <trkpt lat="45.8643" lon="4.66227">
        <ele>218</ele>
        <time>2018-03-29T14:20:13Z</time>
      </trkpt>
      <trkpt lat="45.86438" lon="4.66226">
        <ele>218</ele>
        <time>2018-03-29T14:20:15Z</time>
      </trkpt>
      <trkpt lat="45.86443" lon="4.66224">
        <ele>218</ele>
        <time>2018-03-29T14:20:16Z</time>
      </trkpt>
      <trkpt lat="45.86451" lon="4.66221">
        <ele>218</ele>
        <time>2018-03-29T14:20:18Z</time>
      </trkpt>
      <trkpt lat="45.86455" lon="4.6622">
        <ele>218</ele>
        <time>2018-03-29T14:20:19Z</time>
      </trkpt>
      <trkpt lat="45.86461" lon="4.66219">
        <ele>218</ele>
        <time>2018-03-29T14:20:21Z</time>
      </trkpt>
      <trkpt lat="45.86466" lon="4.66217">
        <ele>218</ele>
        <time>2018-03-29T14:20:22Z</time>
      </trkpt>
      <trkpt lat="45.86472" lon="4.66215">
        <ele>218</ele>
        <time>2018-03-29T14:20:24Z</time>
      </trkpt>
      <trkpt lat="45.86476" lon="4.66214">
        <ele>219</ele>
        <time>2018-03-29T14:20:25Z</time>
      </trkpt>
      <trkpt lat="45.86484" lon="4.66212">
        <ele>219</ele>
        <time>2018-03-29T14:20:27Z</time>
      </trkpt>
      <trkpt lat="45.86488" lon="4.6621">
        <ele>219</ele>
        <time>2018-03-29T14:20:28Z</time>
      </trkpt>
      <trkpt lat="45.86493" lon="4.66207">
        <ele>218</ele>
        <time>2018-03-29T14:20:30Z</time>
      </trkpt>
      <trkpt lat="45.86498" lon="4.66205">
        <ele>218</ele>
        <time>2018-03-29T14:20:31Z</time>
      </trkpt>
      <trkpt lat="45.86506" lon="4.66202">
        <ele>224</ele>
        <time>2018-03-29T14:20:33Z</time>
      </trkpt>
      <trkpt lat="45.8651" lon="4.662">
        <ele>224</ele>
        <time>2018-03-29T14:20:34Z</time>
      </trkpt>
      <trkpt lat="45.86517" lon="4.66195">
        <ele>224</ele>
        <time>2018-03-29T14:20:36Z</time>
      </trkpt>
      <trkpt lat="45.8652" lon="4.66193">
        <ele>224</ele>
        <time>2018-03-29T14:20:37Z</time>
      </trkpt>
      <trkpt lat="45.86528" lon="4.66188">
        <ele>224</ele>
        <time>2018-03-29T14:20:39Z</time>
      </trkpt>
      <trkpt lat="45.86532" lon="4.66185">
        <ele>225</ele>
        <time>2018-03-29T14:20:40Z</time>
      </trkpt>
      <trkpt lat="45.86536" lon="4.66182">
        <ele>225</ele>
        <time>2018-03-29T14:20:41Z</time>
      </trkpt>
      <trkpt lat="45.8654" lon="4.66179">
        <ele>225</ele>
        <time>2018-03-29T14:20:42Z</time>
      </trkpt>
      <trkpt lat="45.86548" lon="4.66173">
        <ele>226</ele>
        <time>2018-03-29T14:20:44Z</time>
      </trkpt>
      <trkpt lat="45.86551" lon="4.66169">
        <ele>226</ele>
        <time>2018-03-29T14:20:45Z</time>
      </trkpt>
      <trkpt lat="45.86559" lon="4.66163">
        <ele>220</ele>
        <time>2018-03-29T14:20:47Z</time>
      </trkpt>
      <trkpt lat="45.86563" lon="4.66159">
        <ele>220</ele>
        <time>2018-03-29T14:20:48Z</time>
      </trkpt>
      <trkpt lat="45.86568" lon="4.66155">
        <ele>221</ele>
        <time>2018-03-29T14:20:49Z</time>
      </trkpt>
      <trkpt lat="45.86572" lon="4.66151">
        <ele>221</ele>
        <time>2018-03-29T14:20:50Z</time>
      </trkpt>
      <trkpt lat="45.86577" lon="4.66147">
        <ele>220</ele>
        <time>2018-03-29T14:20:51Z</time>
      </trkpt>
      <trkpt lat="45.86581" lon="4.66143">
        <ele>220</ele>
        <time>2018-03-29T14:20:52Z</time>
      </trkpt>
      <trkpt lat="45.86585" lon="4.66138">
        <ele>225</ele>
        <time>2018-03-29T14:20:53Z</time>
      </trkpt>
      <trkpt lat="45.8659" lon="4.66135">
        <ele>225</ele>
        <time>2018-03-29T14:20:54Z</time>
      </trkpt>
      <trkpt lat="45.86594" lon="4.6613">
        <ele>225</ele>
        <time>2018-03-29T14:20:55Z</time>
      </trkpt>
      <trkpt lat="45.86598" lon="4.66127">
        <ele>224</ele>
        <time>2018-03-29T14:20:56Z</time>
      </trkpt>
      <trkpt lat="45.86603" lon="4.66124">
        <ele>224</ele>
        <time>2018-03-29T14:20:57Z</time>
      </trkpt>
      <trkpt lat="45.86608" lon="4.66121">
        <ele>224</ele>
        <time>2018-03-29T14:20:58Z</time>
      </trkpt>
      <trkpt lat="45.86613" lon="4.66119">
        <ele>224</ele>
        <time>2018-03-29T14:20:59Z</time>
      </trkpt>
      <trkpt lat="45.86617" lon="4.66116">
        <ele>224</ele>
        <time>2018-03-29T14:21:00Z</time>
      </trkpt>
      <trkpt lat="45.86621" lon="4.66113">
        <ele>224</ele>
        <time>2018-03-29T14:21:01Z</time>
      </trkpt>
      <trkpt lat="45.86626" lon="4.6611">
        <ele>224</ele>
        <time>2018-03-29T14:21:02Z</time>
      </trkpt>
      <trkpt lat="45.86631" lon="4.66108">
        <ele>224</ele>
        <time>2018-03-29T14:21:03Z</time>
      </trkpt>
      <trkpt lat="45.86635" lon="4.66105">
        <ele>224</ele>
        <time>2018-03-29T14:21:04Z</time>
      </trkpt>
      <trkpt lat="45.8664" lon="4.66103">
        <ele>224</ele>
        <time>2018-03-29T14:21:05Z</time>
      </trkpt>
      <trkpt lat="45.86644" lon="4.66101">
        <ele>224</ele>
        <time>2018-03-29T14:21:06Z</time>
      </trkpt>
      <trkpt lat="45.86649" lon="4.66099">
        <ele>223</ele>
        <time>2018-03-29T14:21:07Z</time>
      </trkpt>
      <trkpt lat="45.86655" lon="4.66097">
        <ele>223</ele>
        <time>2018-03-29T14:21:08Z</time>
      </trkpt>
      <trkpt lat="45.86659" lon="4.66095">
        <ele>222</ele>
        <time>2018-03-29T14:21:09Z</time>
      </trkpt>
      <trkpt lat="45.86664" lon="4.66092">
        <ele>221</ele>
        <time>2018-03-29T14:21:10Z</time>
      </trkpt>
      <trkpt lat="45.86668" lon="4.6609">
        <ele>224</ele>
        <time>2018-03-29T14:21:11Z</time>
      </trkpt>
      <trkpt lat="45.86672" lon="4.66089">
        <ele>225</ele>
        <time>2018-03-29T14:21:12Z</time>
      </trkpt>
      <trkpt lat="45.86677" lon="4.66089">
        <ele>227</ele>
        <time>2018-03-29T14:21:13Z</time>
      </trkpt>
      <trkpt lat="45.86682" lon="4.66087">
        <ele>229</ele>
        <time>2018-03-29T14:21:14Z</time>
      </trkpt>
      <trkpt lat="45.86686" lon="4.66085">
        <ele>231</ele>
        <time>2018-03-29T14:21:15Z</time>
      </trkpt>
      <trkpt lat="45.86691" lon="4.66083">
        <ele>222</ele>
        <time>2018-03-29T14:21:16Z</time>
      </trkpt>
      <trkpt lat="45.86695" lon="4.6608">
        <ele>222</ele>
        <time>2018-03-29T14:21:17Z</time>
      </trkpt>
      <trkpt lat="45.86699" lon="4.66077">
        <ele>223</ele>
        <time>2018-03-29T14:21:18Z</time>
      </trkpt>
      <trkpt lat="45.86704" lon="4.66075">
        <ele>223</ele>
        <time>2018-03-29T14:21:19Z</time>
      </trkpt>
      <trkpt lat="45.86709" lon="4.66072">
        <ele>224</ele>
        <time>2018-03-29T14:21:20Z</time>
      </trkpt>
      <trkpt lat="45.86713" lon="4.6607">
        <ele>225</ele>
        <time>2018-03-29T14:21:21Z</time>
      </trkpt>
      <trkpt lat="45.86718" lon="4.66068">
        <ele>225</ele>
        <time>2018-03-29T14:21:22Z</time>
      </trkpt>
      <trkpt lat="45.86722" lon="4.66065">
        <ele>226</ele>
        <time>2018-03-29T14:21:23Z</time>
      </trkpt>
      <trkpt lat="45.86726" lon="4.66062">
        <ele>226</ele>
        <time>2018-03-29T14:21:24Z</time>
      </trkpt>
      <trkpt lat="45.8673" lon="4.66058">
        <ele>226</ele>
        <time>2018-03-29T14:21:25Z</time>
      </trkpt>
      <trkpt lat="45.86734" lon="4.66054">
        <ele>226</ele>
        <time>2018-03-29T14:21:26Z</time>
      </trkpt>
      <trkpt lat="45.86739" lon="4.66051">
        <ele>225</ele>
        <time>2018-03-29T14:21:27Z</time>
      </trkpt>
      <trkpt lat="45.86743" lon="4.66047">
        <ele>225</ele>
        <time>2018-03-29T14:21:28Z</time>
      </trkpt>
      <trkpt lat="45.86749" lon="4.66045">
        <ele>224</ele>
        <time>2018-03-29T14:21:29Z</time>
      </trkpt>
      <trkpt lat="45.86753" lon="4.66041">
        <ele>234</ele>
        <time>2018-03-29T14:21:30Z</time>
      </trkpt>
      <trkpt lat="45.86757" lon="4.66036">
        <ele>233</ele>
        <time>2018-03-29T14:21:31Z</time>
      </trkpt>
      <trkpt lat="45.86762" lon="4.66033">
        <ele>233</ele>
        <time>2018-03-29T14:21:32Z</time>
      </trkpt>
      <trkpt lat="45.86766" lon="4.66028">
        <ele>232</ele>
        <time>2018-03-29T14:21:33Z</time>
      </trkpt>
      <trkpt lat="45.8677" lon="4.66024">
        <ele>232</ele>
        <time>2018-03-29T14:21:34Z</time>
      </trkpt>
      <trkpt lat="45.86777" lon="4.66018">
        <ele>232</ele>
        <time>2018-03-29T14:21:36Z</time>
      </trkpt>
      <trkpt lat="45.86781" lon="4.66013">
        <ele>232</ele>
        <time>2018-03-29T14:21:37Z</time>
      </trkpt>
      <trkpt lat="45.86785" lon="4.66008">
        <ele>232</ele>
        <time>2018-03-29T14:21:38Z</time>
      </trkpt>
      <trkpt lat="45.86788" lon="4.66003">
        <ele>233</ele>
        <time>2018-03-29T14:21:39Z</time>
      </trkpt>
      <trkpt lat="45.86791" lon="4.65999">
        <ele>223</ele>
        <time>2018-03-29T14:21:40Z</time>
      </trkpt>
      <trkpt lat="45.86794" lon="4.65994">
        <ele>223</ele>
        <time>2018-03-29T14:21:41Z</time>
      </trkpt>
      <trkpt lat="45.86797" lon="4.65989">
        <ele>224</ele>
        <time>2018-03-29T14:21:42Z</time>
      </trkpt>
      <trkpt lat="45.86801" lon="4.65984">
        <ele>224</ele>
        <time>2018-03-29T14:21:43Z</time>
      </trkpt>
      <trkpt lat="45.86804" lon="4.6598">
        <ele>224</ele>
        <time>2018-03-29T14:21:44Z</time>
      </trkpt>
      <trkpt lat="45.86808" lon="4.65975">
        <ele>224</ele>
        <time>2018-03-29T14:21:45Z</time>
      </trkpt>
      <trkpt lat="45.86812" lon="4.6597">
        <ele>224</ele>
        <time>2018-03-29T14:21:46Z</time>
      </trkpt>
      <trkpt lat="45.86814" lon="4.65964">
        <ele>224</ele>
        <time>2018-03-29T14:21:47Z</time>
      </trkpt>
      <trkpt lat="45.86819" lon="4.65958">
        <ele>223</ele>
        <time>2018-03-29T14:21:48Z</time>
      </trkpt>
      <trkpt lat="45.86822" lon="4.65952">
        <ele>223</ele>
        <time>2018-03-29T14:21:49Z</time>
      </trkpt>
      <trkpt lat="45.86825" lon="4.65946">
        <ele>222</ele>
        <time>2018-03-29T14:21:50Z</time>
      </trkpt>
      <trkpt lat="45.86828" lon="4.6594">
        <ele>222</ele>
        <time>2018-03-29T14:21:51Z</time>
      </trkpt>
      <trkpt lat="45.86831" lon="4.65933">
        <ele>222</ele>
        <time>2018-03-29T14:21:52Z</time>
      </trkpt>
      <trkpt lat="45.86834" lon="4.65927">
        <ele>229</ele>
        <time>2018-03-29T14:21:53Z</time>
      </trkpt>
      <trkpt lat="45.86836" lon="4.65921">
        <ele>226</ele>
        <time>2018-03-29T14:21:54Z</time>
      </trkpt>
      <trkpt lat="45.8684" lon="4.65915">
        <ele>223</ele>
        <time>2018-03-29T14:21:55Z</time>
      </trkpt>
      <trkpt lat="45.86843" lon="4.65909">
        <ele>224</ele>
        <time>2018-03-29T14:21:56Z</time>
      </trkpt>
      <trkpt lat="45.86846" lon="4.65901">
        <ele>226</ele>
        <time>2018-03-29T14:21:57Z</time>
      </trkpt>
      <trkpt lat="45.86849" lon="4.65895">
        <ele>226</ele>
        <time>2018-03-29T14:21:58Z</time>
      </trkpt>
      <trkpt lat="45.86852" lon="4.65888">
        <ele>227</ele>
        <time>2018-03-29T14:21:59Z</time>
      </trkpt>
      <trkpt lat="45.86855" lon="4.65883">
        <ele>227</ele>
        <time>2018-03-29T14:22:00Z</time>
      </trkpt>
      <trkpt lat="45.86858" lon="4.65878">
        <ele>227</ele>
        <time>2018-03-29T14:22:01Z</time>
      </trkpt>
      <trkpt lat="45.8686" lon="4.65871">
        <ele>227</ele>
        <time>2018-03-29T14:22:02Z</time>
      </trkpt>
      <trkpt lat="45.86863" lon="4.65865">
        <ele>227</ele>
        <time>2018-03-29T14:22:03Z</time>
      </trkpt>
      <trkpt lat="45.86867" lon="4.65858">
        <ele>227</ele>
        <time>2018-03-29T14:22:04Z</time>
      </trkpt>
      <trkpt lat="45.86869" lon="4.65852">
        <ele>227</ele>
        <time>2018-03-29T14:22:05Z</time>
      </trkpt>
      <trkpt lat="45.86872" lon="4.65846">
        <ele>227</ele>
        <time>2018-03-29T14:22:06Z</time>
      </trkpt>
      <trkpt lat="45.86874" lon="4.65841">
        <ele>227</ele>
        <time>2018-03-29T14:22:07Z</time>
      </trkpt>
      <trkpt lat="45.86877" lon="4.65834">
        <ele>228</ele>
        <time>2018-03-29T14:22:08Z</time>
      </trkpt>
      <trkpt lat="45.86878" lon="4.65828">
        <ele>223</ele>
        <time>2018-03-29T14:22:09Z</time>
      </trkpt>
      <trkpt lat="45.8688" lon="4.65822">
        <ele>223</ele>
        <time>2018-03-29T14:22:10Z</time>
      </trkpt>
      <trkpt lat="45.86882" lon="4.65816">
        <ele>224</ele>
        <time>2018-03-29T14:22:11Z</time>
      </trkpt>
      <trkpt lat="45.86884" lon="4.65808">
        <ele>224</ele>
        <time>2018-03-29T14:22:12Z</time>
      </trkpt>
      <trkpt lat="45.86887" lon="4.65802">
        <ele>224</ele>
        <time>2018-03-29T14:22:13Z</time>
      </trkpt>
      <trkpt lat="45.86889" lon="4.65795">
        <ele>224</ele>
        <time>2018-03-29T14:22:14Z</time>
      </trkpt>
      <trkpt lat="45.8689" lon="4.65789">
        <ele>224</ele>
        <time>2018-03-29T14:22:15Z</time>
      </trkpt>
      <trkpt lat="45.86892" lon="4.65781">
        <ele>224</ele>
        <time>2018-03-29T14:22:16Z</time>
      </trkpt>
      <trkpt lat="45.86894" lon="4.65773">
        <ele>224</ele>
        <time>2018-03-29T14:22:17Z</time>
      </trkpt>
      <trkpt lat="45.86895" lon="4.65765">
        <ele>225</ele>
        <time>2018-03-29T14:22:18Z</time>
      </trkpt>
      <trkpt lat="45.86897" lon="4.65756">
        <ele>225</ele>
        <time>2018-03-29T14:22:19Z</time>
      </trkpt>
      <trkpt lat="45.86897" lon="4.65748">
        <ele>225</ele>
        <time>2018-03-29T14:22:20Z</time>
      </trkpt>
      <trkpt lat="45.86897" lon="4.65741">
        <ele>225</ele>
        <time>2018-03-29T14:22:21Z</time>
      </trkpt>
      <trkpt lat="45.86898" lon="4.65733">
        <ele>224</ele>
        <time>2018-03-29T14:22:22Z</time>
      </trkpt>
      <trkpt lat="45.86898" lon="4.65726">
        <ele>224</ele>
        <time>2018-03-29T14:22:23Z</time>
      </trkpt>
      <trkpt lat="45.86898" lon="4.65717">
        <ele>223</ele>
        <time>2018-03-29T14:22:24Z</time>
      </trkpt>
      <trkpt lat="45.86899" lon="4.65708">
        <ele>224</ele>
        <time>2018-03-29T14:22:25Z</time>
      </trkpt>
      <trkpt lat="45.86901" lon="4.657">
        <ele>224</ele>
        <time>2018-03-29T14:22:26Z</time>
      </trkpt>
      <trkpt lat="45.86901" lon="4.65691">
        <ele>224</ele>
        <time>2018-03-29T14:22:27Z</time>
      </trkpt>
      <trkpt lat="45.86901" lon="4.65683">
        <ele>225</ele>
        <time>2018-03-29T14:22:28Z</time>
      </trkpt>
      <trkpt lat="45.86899" lon="4.65674">
        <ele>225</ele>
        <time>2018-03-29T14:22:29Z</time>
      </trkpt>
      <trkpt lat="45.86897" lon="4.65665">
        <ele>225</ele>
        <time>2018-03-29T14:22:30Z</time>
      </trkpt>
      <trkpt lat="45.86897" lon="4.65657">
        <ele>225</ele>
        <time>2018-03-29T14:22:31Z</time>
      </trkpt>
      <trkpt lat="45.86901" lon="4.65648">
        <ele>224</ele>
        <time>2018-03-29T14:22:32Z</time>
      </trkpt>
      <trkpt lat="45.86902" lon="4.65638">
        <ele>224</ele>
        <time>2018-03-29T14:22:33Z</time>
      </trkpt>
      <trkpt lat="45.86903" lon="4.6563">
        <ele>223</ele>
        <time>2018-03-29T14:22:34Z</time>
      </trkpt>
      <trkpt lat="45.86904" lon="4.65622">
        <ele>223</ele>
        <time>2018-03-29T14:22:35Z</time>
      </trkpt>
      <trkpt lat="45.86906" lon="4.65613">
        <ele>223</ele>
        <time>2018-03-29T14:22:36Z</time>
      </trkpt>
      <trkpt lat="45.86907" lon="4.65604">
        <ele>223</ele>
        <time>2018-03-29T14:22:37Z</time>
      </trkpt>
      <trkpt lat="45.86911" lon="4.65594">
        <ele>224</ele>
        <time>2018-03-29T14:22:38Z</time>
      </trkpt>
      <trkpt lat="45.86913" lon="4.65586">
        <ele>225</ele>
        <time>2018-03-29T14:22:39Z</time>
      </trkpt>
      <trkpt lat="45.86915" lon="4.65577">
        <ele>224</ele>
        <time>2018-03-29T14:22:40Z</time>
      </trkpt>
      <trkpt lat="45.86917" lon="4.65568">
        <ele>229</ele>
        <time>2018-03-29T14:22:41Z</time>
      </trkpt>
      <trkpt lat="45.8692" lon="4.6556">
        <ele>230</ele>
        <time>2018-03-29T14:22:42Z</time>
      </trkpt>
      <trkpt lat="45.86922" lon="4.65552">
        <ele>230</ele>
        <time>2018-03-29T14:22:43Z</time>
      </trkpt>
      <trkpt lat="45.86925" lon="4.65545">
        <ele>230</ele>
        <time>2018-03-29T14:22:44Z</time>
      </trkpt>
      <trkpt lat="45.86928" lon="4.65537">
        <ele>230</ele>
        <time>2018-03-29T14:22:45Z</time>
      </trkpt>
      <trkpt lat="45.86931" lon="4.6553">
        <ele>229</ele>
        <time>2018-03-29T14:22:46Z</time>
      </trkpt>
      <trkpt lat="45.86933" lon="4.65522">
        <ele>228</ele>
        <time>2018-03-29T14:22:47Z</time>
      </trkpt>
      <trkpt lat="45.86936" lon="4.65515">
        <ele>228</ele>
        <time>2018-03-29T14:22:48Z</time>
      </trkpt>
      <trkpt lat="45.8694" lon="4.65508">
        <ele>228</ele>
        <time>2018-03-29T14:22:49Z</time>
      </trkpt>
      <trkpt lat="45.86943" lon="4.65502">
        <ele>228</ele>
        <time>2018-03-29T14:22:50Z</time>
      </trkpt>
      <trkpt lat="45.86946" lon="4.65495">
        <ele>222</ele>
        <time>2018-03-29T14:22:51Z</time>
      </trkpt>
      <trkpt lat="45.8695" lon="4.65488">
        <ele>222</ele>
        <time>2018-03-29T14:22:52Z</time>
      </trkpt>
      <trkpt lat="45.86954" lon="4.65482">
        <ele>223</ele>
        <time>2018-03-29T14:22:53Z</time>
      </trkpt>
      <trkpt lat="45.86958" lon="4.65477">
        <ele>223</ele>
        <time>2018-03-29T14:22:54Z</time>
      </trkpt>
      <trkpt lat="45.86962" lon="4.6547">
        <ele>223</ele>
        <time>2018-03-29T14:22:55Z</time>
      </trkpt>
      <trkpt lat="45.86966" lon="4.65464">
        <ele>223</ele>
        <time>2018-03-29T14:22:56Z</time>
      </trkpt>
      <trkpt lat="45.8697" lon="4.65459">
        <ele>223</ele>
        <time>2018-03-29T14:22:57Z</time>
      </trkpt>
      <trkpt lat="45.86974" lon="4.65454">
        <ele>223</ele>
        <time>2018-03-29T14:22:58Z</time>
      </trkpt>
      <trkpt lat="45.8698" lon="4.65448">
        <ele>223</ele>
        <time>2018-03-29T14:22:59Z</time>
      </trkpt>
      <trkpt lat="45.86985" lon="4.65443">
        <ele>222</ele>
        <time>2018-03-29T14:23:00Z</time>
      </trkpt>
      <trkpt lat="45.8699" lon="4.65437">
        <ele>222</ele>
        <time>2018-03-29T14:23:01Z</time>
      </trkpt>
      <trkpt lat="45.86995" lon="4.65432">
        <ele>222</ele>
        <time>2018-03-29T14:23:02Z</time>
      </trkpt>
      <trkpt lat="45.87" lon="4.65426">
        <ele>227</ele>
        <time>2018-03-29T14:23:03Z</time>
      </trkpt>
      <trkpt lat="45.87006" lon="4.6542">
        <ele>225</ele>
        <time>2018-03-29T14:23:04Z</time>
      </trkpt>
      <trkpt lat="45.87011" lon="4.65414">
        <ele>223</ele>
        <time>2018-03-29T14:23:05Z</time>
      </trkpt>
      <trkpt lat="45.87015" lon="4.6541">
        <ele>223</ele>
        <time>2018-03-29T14:23:06Z</time>
      </trkpt>
      <trkpt lat="45.87021" lon="4.65404">
        <ele>224</ele>
        <time>2018-03-29T14:23:07Z</time>
      </trkpt>
      <trkpt lat="45.87025" lon="4.65398">
        <ele>224</ele>
        <time>2018-03-29T14:23:08Z</time>
      </trkpt>
      <trkpt lat="45.8703" lon="4.65392">
        <ele>224</ele>
        <time>2018-03-29T14:23:09Z</time>
      </trkpt>
      <trkpt lat="45.87034" lon="4.65386">
        <ele>225</ele>
        <time>2018-03-29T14:23:10Z</time>
      </trkpt>
      <trkpt lat="45.87038" lon="4.6538">
        <ele>224</ele>
        <time>2018-03-29T14:23:11Z</time>
      </trkpt>
      <trkpt lat="45.87042" lon="4.65373">
        <ele>224</ele>
        <time>2018-03-29T14:23:12Z</time>
      </trkpt>
      <trkpt lat="45.87046" lon="4.65366">
        <ele>224</ele>
        <time>2018-03-29T14:23:13Z</time>
      </trkpt>
      <trkpt lat="45.8705" lon="4.65359">
        <ele>224</ele>
        <time>2018-03-29T14:23:14Z</time>
      </trkpt>
      <trkpt lat="45.87053" lon="4.65353">
        <ele>224</ele>
        <time>2018-03-29T14:23:15Z</time>
      </trkpt>
      <trkpt lat="45.87056" lon="4.65347">
        <ele>224</ele>
        <time>2018-03-29T14:23:16Z</time>
      </trkpt>
      <trkpt lat="45.8706" lon="4.6534">
        <ele>224</ele>
        <time>2018-03-29T14:23:17Z</time>
      </trkpt>
      <trkpt lat="45.87063" lon="4.65331">
        <ele>219</ele>
        <time>2018-03-29T14:23:18Z</time>
      </trkpt>
      <trkpt lat="45.87066" lon="4.65325">
        <ele>219</ele>
        <time>2018-03-29T14:23:19Z</time>
      </trkpt>
      <trkpt lat="45.8707" lon="4.65317">
        <ele>219</ele>
        <time>2018-03-29T14:23:20Z</time>
      </trkpt>
      <trkpt lat="45.87073" lon="4.6531">
        <ele>218</ele>
        <time>2018-03-29T14:23:21Z</time>
      </trkpt>
      <trkpt lat="45.87077" lon="4.65302">
        <ele>217</ele>
        <time>2018-03-29T14:23:22Z</time>
      </trkpt>
      <trkpt lat="45.87081" lon="4.65294">
        <ele>217</ele>
        <time>2018-03-29T14:23:23Z</time>
      </trkpt>
      <trkpt lat="45.87084" lon="4.65286">
        <ele>227</ele>
        <time>2018-03-29T14:23:24Z</time>
      </trkpt>
      <trkpt lat="45.87088" lon="4.65278">
        <ele>225</ele>
        <time>2018-03-29T14:23:25Z</time>
      </trkpt>
      <trkpt lat="45.87091" lon="4.65272">
        <ele>224</ele>
        <time>2018-03-29T14:23:26Z</time>
      </trkpt>
      <trkpt lat="45.87094" lon="4.65265">
        <ele>223</ele>
        <time>2018-03-29T14:23:27Z</time>
      </trkpt>
      <trkpt lat="45.87097" lon="4.65258">
        <ele>222</ele>
        <time>2018-03-29T14:23:28Z</time>
      </trkpt>
      <trkpt lat="45.87101" lon="4.65252">
        <ele>223</ele>
        <time>2018-03-29T14:23:29Z</time>
      </trkpt>
      <trkpt lat="45.87105" lon="4.65245">
        <ele>218</ele>
        <time>2018-03-29T14:23:30Z</time>
      </trkpt>
      <trkpt lat="45.87109" lon="4.65238">
        <ele>219</ele>
        <time>2018-03-29T14:23:31Z</time>
      </trkpt>
      <trkpt lat="45.87112" lon="4.65232">
        <ele>220</ele>
        <time>2018-03-29T14:23:32Z</time>
      </trkpt>
      <trkpt lat="45.87117" lon="4.65225">
        <ele>220</ele>
        <time>2018-03-29T14:23:33Z</time>
      </trkpt>
      <trkpt lat="45.87121" lon="4.65221">
        <ele>220</ele>
        <time>2018-03-29T14:23:34Z</time>
      </trkpt>
      <trkpt lat="45.87126" lon="4.65216">
        <ele>221</ele>
        <time>2018-03-29T14:23:35Z</time>
      </trkpt>
      <trkpt lat="45.8713" lon="4.65211">
        <ele>221</ele>
        <time>2018-03-29T14:23:36Z</time>
      </trkpt>
      <trkpt lat="45.87134" lon="4.65205">
        <ele>221</ele>
        <time>2018-03-29T14:23:37Z</time>
      </trkpt>
      <trkpt lat="45.87139" lon="4.652">
        <ele>221</ele>
        <time>2018-03-29T14:23:38Z</time>
      </trkpt>
      <trkpt lat="45.87143" lon="4.65195">
        <ele>221</ele>
        <time>2018-03-29T14:23:39Z</time>
      </trkpt>
      <trkpt lat="45.87148" lon="4.6519">
        <ele>221</ele>
        <time>2018-03-29T14:23:40Z</time>
      </trkpt>
      <trkpt lat="45.87152" lon="4.65186">
        <ele>221</ele>
        <time>2018-03-29T14:23:41Z</time>
      </trkpt>
      <trkpt lat="45.87156" lon="4.65182">
        <ele>221</ele>
        <time>2018-03-29T14:23:42Z</time>
      </trkpt>
      <trkpt lat="45.8716" lon="4.65178">
        <ele>220</ele>
        <time>2018-03-29T14:23:43Z</time>
      </trkpt>
      <trkpt lat="45.87164" lon="4.65173">
        <ele>220</ele>
        <time>2018-03-29T14:23:44Z</time>
      </trkpt>
      <trkpt lat="45.87169" lon="4.65169">
        <ele>223</ele>
        <time>2018-03-29T14:23:45Z</time>
      </trkpt>
      <trkpt lat="45.87174" lon="4.65165">
        <ele>221</ele>
        <time>2018-03-29T14:23:46Z</time>
      </trkpt>
      <trkpt lat="45.87179" lon="4.65161">
        <ele>221</ele>
        <time>2018-03-29T14:23:47Z</time>
      </trkpt>
      <trkpt lat="45.87184" lon="4.65157">
        <ele>222</ele>
        <time>2018-03-29T14:23:48Z</time>
      </trkpt>
      <trkpt lat="45.87189" lon="4.65151">
        <ele>222</ele>
        <time>2018-03-29T14:23:49Z</time>
      </trkpt>
      <trkpt lat="45.87193" lon="4.65148">
        <ele>222</ele>
        <time>2018-03-29T14:23:50Z</time>
      </trkpt>
      <trkpt lat="45.87198" lon="4.65144">
        <ele>223</ele>
        <time>2018-03-29T14:23:51Z</time>
      </trkpt>
      <trkpt lat="45.87204" lon="4.65141">
        <ele>223</ele>
        <time>2018-03-29T14:23:52Z</time>
      </trkpt>
      <trkpt lat="45.87208" lon="4.65137">
        <ele>223</ele>
        <time>2018-03-29T14:23:53Z</time>
      </trkpt>
      <trkpt lat="45.87213" lon="4.65132">
        <ele>223</ele>
        <time>2018-03-29T14:23:54Z</time>
      </trkpt>
      <trkpt lat="45.87216" lon="4.65129">
        <ele>223</ele>
        <time>2018-03-29T14:23:55Z</time>
      </trkpt>
      <trkpt lat="45.87221" lon="4.65124">
        <ele>223</ele>
        <time>2018-03-29T14:23:56Z</time>
      </trkpt>
      <trkpt lat="45.87225" lon="4.6512">
        <ele>223</ele>
        <time>2018-03-29T14:23:57Z</time>
      </trkpt>
      <trkpt lat="45.87229" lon="4.65117">
        <ele>222</ele>
        <time>2018-03-29T14:23:58Z</time>
      </trkpt>
      <trkpt lat="45.87234" lon="4.65113">
        <ele>222</ele>
        <time>2018-03-29T14:23:59Z</time>
      </trkpt>
      <trkpt lat="45.87238" lon="4.65109">
        <ele>222</ele>
        <time>2018-03-29T14:24:00Z</time>
      </trkpt>
      <trkpt lat="45.87242" lon="4.65105">
        <ele>221</ele>
        <time>2018-03-29T14:24:01Z</time>
      </trkpt>
      <trkpt lat="45.87246" lon="4.651">
        <ele>221</ele>
        <time>2018-03-29T14:24:02Z</time>
      </trkpt>
      <trkpt lat="45.8725" lon="4.65095">
        <ele>224</ele>
        <time>2018-03-29T14:24:03Z</time>
      </trkpt>
      <trkpt lat="45.87254" lon="4.65091">
        <ele>223</ele>
        <time>2018-03-29T14:24:04Z</time>
      </trkpt>
      <trkpt lat="45.87259" lon="4.65086">
        <ele>223</ele>
        <time>2018-03-29T14:24:05Z</time>
      </trkpt>
      <trkpt lat="45.87263" lon="4.65083">
        <ele>219</ele>
        <time>2018-03-29T14:24:06Z</time>
      </trkpt>
      <trkpt lat="45.87266" lon="4.65079">
        <ele>219</ele>
        <time>2018-03-29T14:24:07Z</time>
      </trkpt>
      <trkpt lat="45.8727" lon="4.65075">
        <ele>220</ele>
        <time>2018-03-29T14:24:08Z</time>
      </trkpt>
      <trkpt lat="45.87274" lon="4.65071">
        <ele>220</ele>
        <time>2018-03-29T14:24:09Z</time>
      </trkpt>
      <trkpt lat="45.87278" lon="4.65068">
        <ele>220</ele>
        <time>2018-03-29T14:24:10Z</time>
      </trkpt>
      <trkpt lat="45.87282" lon="4.65063">
        <ele>220</ele>
        <time>2018-03-29T14:24:11Z</time>
      </trkpt>
      <trkpt lat="45.87286" lon="4.65059">
        <ele>220</ele>
        <time>2018-03-29T14:24:12Z</time>
      </trkpt>
      <trkpt lat="45.87288" lon="4.65053">
        <ele>220</ele>
        <time>2018-03-29T14:24:13Z</time>
      </trkpt>
      <trkpt lat="45.87292" lon="4.65048">
        <ele>220</ele>
        <time>2018-03-29T14:24:14Z</time>
      </trkpt>
      <trkpt lat="45.87296" lon="4.65042">
        <ele>220</ele>
        <time>2018-03-29T14:24:15Z</time>
      </trkpt>
      <trkpt lat="45.873" lon="4.65036">
        <ele>220</ele>
        <time>2018-03-29T14:24:16Z</time>
      </trkpt>
      <trkpt lat="45.87304" lon="4.65031">
        <ele>220</ele>
        <time>2018-03-29T14:24:17Z</time>
      </trkpt>
      <trkpt lat="45.87309" lon="4.65025">
        <ele>220</ele>
        <time>2018-03-29T14:24:18Z</time>
      </trkpt>
      <trkpt lat="45.87312" lon="4.65019">
        <ele>219</ele>
        <time>2018-03-29T14:24:19Z</time>
      </trkpt>
      <trkpt lat="45.87316" lon="4.65013">
        <ele>219</ele>
        <time>2018-03-29T14:24:20Z</time>
      </trkpt>
      <trkpt lat="45.8732" lon="4.65007">
        <ele>219</ele>
        <time>2018-03-29T14:24:21Z</time>
      </trkpt>
      <trkpt lat="45.87323" lon="4.65001">
        <ele>219</ele>
        <time>2018-03-29T14:24:22Z</time>
      </trkpt>
      <trkpt lat="45.87326" lon="4.64995">
        <ele>216</ele>
        <time>2018-03-29T14:24:23Z</time>
      </trkpt>
      <trkpt lat="45.87329" lon="4.64989">
        <ele>216</ele>
        <time>2018-03-29T14:24:24Z</time>
      </trkpt>
      <trkpt lat="45.87332" lon="4.64984">
        <ele>216</ele>
        <time>2018-03-29T14:24:25Z</time>
      </trkpt>
      <trkpt lat="45.87335" lon="4.64979">
        <ele>219</ele>
        <time>2018-03-29T14:24:26Z</time>
      </trkpt>
      <trkpt lat="45.87338" lon="4.64973">
        <ele>219</ele>
        <time>2018-03-29T14:24:27Z</time>
      </trkpt>
      <trkpt lat="45.87341" lon="4.64966">
        <ele>219</ele>
        <time>2018-03-29T14:24:28Z</time>
      </trkpt>
      <trkpt lat="45.87344" lon="4.6496">
        <ele>219</ele>
        <time>2018-03-29T14:24:29Z</time>
      </trkpt>
      <trkpt lat="45.87346" lon="4.64954">
        <ele>218</ele>
        <time>2018-03-29T14:24:30Z</time>
      </trkpt>
      <trkpt lat="45.8735" lon="4.64948">
        <ele>218</ele>
        <time>2018-03-29T14:24:31Z</time>
      </trkpt>
      <trkpt lat="45.87354" lon="4.64941">
        <ele>218</ele>
        <time>2018-03-29T14:24:32Z</time>
      </trkpt>
      <trkpt lat="45.87358" lon="4.64934">
        <ele>218</ele>
        <time>2018-03-29T14:24:33Z</time>
      </trkpt>
      <trkpt lat="45.87362" lon="4.64927">
        <ele>218</ele>
        <time>2018-03-29T14:24:34Z</time>
      </trkpt>
      <trkpt lat="45.87366" lon="4.64921">
        <ele>218</ele>
        <time>2018-03-29T14:24:35Z</time>
      </trkpt>
      <trkpt lat="45.87371" lon="4.64915">
        <ele>215</ele>
        <time>2018-03-29T14:24:36Z</time>
      </trkpt>
      <trkpt lat="45.87375" lon="4.6491">
        <ele>215</ele>
        <time>2018-03-29T14:24:37Z</time>
      </trkpt>
      <trkpt lat="45.87379" lon="4.64904">
        <ele>215</ele>
        <time>2018-03-29T14:24:38Z</time>
      </trkpt>
      <trkpt lat="45.87384" lon="4.64899">
        <ele>216</ele>
        <time>2018-03-29T14:24:39Z</time>
      </trkpt>
      <trkpt lat="45.87388" lon="4.64894">
        <ele>216</ele>
        <time>2018-03-29T14:24:40Z</time>
      </trkpt>
      <trkpt lat="45.87391" lon="4.6489">
        <ele>216</ele>
        <time>2018-03-29T14:24:41Z</time>
      </trkpt>
      <trkpt lat="45.87396" lon="4.64885">
        <ele>216</ele>
        <time>2018-03-29T14:24:42Z</time>
      </trkpt>
      <trkpt lat="45.87399" lon="4.64879">
        <ele>216</ele>
        <time>2018-03-29T14:24:43Z</time>
      </trkpt>
      <trkpt lat="45.87404" lon="4.64874">
        <ele>216</ele>
        <time>2018-03-29T14:24:44Z</time>
      </trkpt>
      <trkpt lat="45.87407" lon="4.64869">
        <ele>215</ele>
        <time>2018-03-29T14:24:45Z</time>
      </trkpt>
      <trkpt lat="45.87411" lon="4.64863">
        <ele>215</ele>
        <time>2018-03-29T14:24:46Z</time>
      </trkpt>
      <trkpt lat="45.87414" lon="4.64857">
        <ele>215</ele>
        <time>2018-03-29T14:24:47Z</time>
      </trkpt>
      <trkpt lat="45.87418" lon="4.64852">
        <ele>218</ele>
        <time>2018-03-29T14:24:48Z</time>
      </trkpt>
      <trkpt lat="45.87422" lon="4.64847">
        <ele>218</ele>
        <time>2018-03-29T14:24:49Z</time>
      </trkpt>
      <trkpt lat="45.87426" lon="4.64843">
        <ele>218</ele>
        <time>2018-03-29T14:24:50Z</time>
      </trkpt>
      <trkpt lat="45.87431" lon="4.64837">
        <ele>218</ele>
        <time>2018-03-29T14:24:51Z</time>
      </trkpt>
      <trkpt lat="45.87435" lon="4.64832">
        <ele>215</ele>
        <time>2018-03-29T14:24:52Z</time>
      </trkpt>
      <trkpt lat="45.87439" lon="4.64828">
        <ele>215</ele>
        <time>2018-03-29T14:24:53Z</time>
      </trkpt>
      <trkpt lat="45.87444" lon="4.64822">
        <ele>215</ele>
        <time>2018-03-29T14:24:54Z</time>
      </trkpt>
      <trkpt lat="45.87448" lon="4.64817">
        <ele>215</ele>
        <time>2018-03-29T14:24:55Z</time>
      </trkpt>
      <trkpt lat="45.87453" lon="4.64811">
        <ele>215</ele>
        <time>2018-03-29T14:24:56Z</time>
      </trkpt>
      <trkpt lat="45.87459" lon="4.64806">
        <ele>215</ele>
        <time>2018-03-29T14:24:57Z</time>
      </trkpt>
      <trkpt lat="45.87462" lon="4.64801">
        <ele>215</ele>
        <time>2018-03-29T14:24:58Z</time>
      </trkpt>
      <trkpt lat="45.87466" lon="4.64796">
        <ele>214</ele>
        <time>2018-03-29T14:24:59Z</time>
      </trkpt>
      <trkpt lat="45.8747" lon="4.6479">
        <ele>214</ele>
        <time>2018-03-29T14:25:01Z</time>
      </trkpt>
      <trkpt lat="45.87475" lon="4.64783">
        <ele>214</ele>
        <time>2018-03-29T14:25:02Z</time>
      </trkpt>
      <trkpt lat="45.87481" lon="4.64774">
        <ele>214</ele>
        <time>2018-03-29T14:25:04Z</time>
      </trkpt>
      <trkpt lat="45.87484" lon="4.64769">
        <ele>214</ele>
        <time>2018-03-29T14:25:05Z</time>
      </trkpt>
      <trkpt lat="45.87488" lon="4.64764">
        <ele>214</ele>
        <time>2018-03-29T14:25:06Z</time>
      </trkpt>
      <trkpt lat="45.87491" lon="4.64759">
        <ele>214</ele>
        <time>2018-03-29T14:25:07Z</time>
      </trkpt>
      <trkpt lat="45.87495" lon="4.64753">
        <ele>213</ele>
        <time>2018-03-29T14:25:08Z</time>
      </trkpt>
      <trkpt lat="45.87499" lon="4.64749">
        <ele>213</ele>
        <time>2018-03-29T14:25:09Z</time>
      </trkpt>
      <trkpt lat="45.87502" lon="4.64744">
        <ele>213</ele>
        <time>2018-03-29T14:25:10Z</time>
      </trkpt>
      <trkpt lat="45.87506" lon="4.64739">
        <ele>213</ele>
        <time>2018-03-29T14:25:11Z</time>
      </trkpt>
      <trkpt lat="45.8751" lon="4.64734">
        <ele>213</ele>
        <time>2018-03-29T14:25:12Z</time>
      </trkpt>
      <trkpt lat="45.87513" lon="4.6473">
        <ele>213</ele>
        <time>2018-03-29T14:25:13Z</time>
      </trkpt>
      <trkpt lat="45.87516" lon="4.64726">
        <ele>213</ele>
        <time>2018-03-29T14:25:14Z</time>
      </trkpt>
      <trkpt lat="45.8752" lon="4.64722">
        <ele>212</ele>
        <time>2018-03-29T14:25:15Z</time>
      </trkpt>
      <trkpt lat="45.87523" lon="4.64717">
        <ele>212</ele>
        <time>2018-03-29T14:25:16Z</time>
      </trkpt>
      <trkpt lat="45.87526" lon="4.64712">
        <ele>212</ele>
        <time>2018-03-29T14:25:17Z</time>
      </trkpt>
      <trkpt lat="45.87529" lon="4.64706">
        <ele>212</ele>
        <time>2018-03-29T14:25:18Z</time>
      </trkpt>
      <trkpt lat="45.87532" lon="4.64701">
        <ele>212</ele>
        <time>2018-03-29T14:25:19Z</time>
      </trkpt>
      <trkpt lat="45.87536" lon="4.64696">
        <ele>212</ele>
        <time>2018-03-29T14:25:20Z</time>
      </trkpt>
      <trkpt lat="45.87539" lon="4.64692">
        <ele>212</ele>
        <time>2018-03-29T14:25:21Z</time>
      </trkpt>
      <trkpt lat="45.87543" lon="4.64688">
        <ele>212</ele>
        <time>2018-03-29T14:25:22Z</time>
      </trkpt>
      <trkpt lat="45.87547" lon="4.64684">
        <ele>212</ele>
        <time>2018-03-29T14:25:23Z</time>
      </trkpt>
      <trkpt lat="45.87551" lon="4.64676">
        <ele>212</ele>
        <time>2018-03-29T14:25:24Z</time>
      </trkpt>
      <trkpt lat="45.87555" lon="4.64669">
        <ele>212</ele>
        <time>2018-03-29T14:25:25Z</time>
      </trkpt>
      <trkpt lat="45.87562" lon="4.64661">
        <ele>212</ele>
        <time>2018-03-29T14:25:27Z</time>
      </trkpt>
      <trkpt lat="45.87565" lon="4.64657">
        <ele>212</ele>
        <time>2018-03-29T14:25:28Z</time>
      </trkpt>
      <trkpt lat="45.87569" lon="4.64651">
        <ele>212</ele>
        <time>2018-03-29T14:25:29Z</time>
      </trkpt>
      <trkpt lat="45.87572" lon="4.64646">
        <ele>212</ele>
        <time>2018-03-29T14:25:30Z</time>
      </trkpt>
      <trkpt lat="45.87576" lon="4.64641">
        <ele>212</ele>
        <time>2018-03-29T14:25:31Z</time>
      </trkpt>
      <trkpt lat="45.87579" lon="4.64637">
        <ele>212</ele>
        <time>2018-03-29T14:25:32Z</time>
      </trkpt>
      <trkpt lat="45.87585" lon="4.64628">
        <ele>212</ele>
        <time>2018-03-29T14:25:34Z</time>
      </trkpt>
      <trkpt lat="45.87588" lon="4.64624">
        <ele>212</ele>
        <time>2018-03-29T14:25:35Z</time>
      </trkpt>
      <trkpt lat="45.87592" lon="4.64619">
        <ele>212</ele>
        <time>2018-03-29T14:25:36Z</time>
      </trkpt>
      <trkpt lat="45.87596" lon="4.64615">
        <ele>212</ele>
        <time>2018-03-29T14:25:37Z</time>
      </trkpt>
      <trkpt lat="45.876" lon="4.64611">
        <ele>212</ele>
        <time>2018-03-29T14:25:38Z</time>
      </trkpt>
      <trkpt lat="45.87603" lon="4.64607">
        <ele>212</ele>
        <time>2018-03-29T14:25:39Z</time>
      </trkpt>
      <trkpt lat="45.87607" lon="4.64603">
        <ele>212</ele>
        <time>2018-03-29T14:25:40Z</time>
      </trkpt>
      <trkpt lat="45.8761" lon="4.64597">
        <ele>212</ele>
        <time>2018-03-29T14:25:41Z</time>
      </trkpt>
      <trkpt lat="45.87613" lon="4.64593">
        <ele>212</ele>
        <time>2018-03-29T14:25:42Z</time>
      </trkpt>
      <trkpt lat="45.87618" lon="4.64587">
        <ele>212</ele>
        <time>2018-03-29T14:25:43Z</time>
      </trkpt>
      <trkpt lat="45.87621" lon="4.64582">
        <ele>212</ele>
        <time>2018-03-29T14:25:44Z</time>
      </trkpt>
      <trkpt lat="45.87625" lon="4.64577">
        <ele>212</ele>
        <time>2018-03-29T14:25:45Z</time>
      </trkpt>
      <trkpt lat="45.87629" lon="4.64573">
        <ele>212</ele>
        <time>2018-03-29T14:25:46Z</time>
      </trkpt>
      <trkpt lat="45.87633" lon="4.64568">
        <ele>212</ele>
        <time>2018-03-29T14:25:47Z</time>
      </trkpt>
      <trkpt lat="45.87637" lon="4.64563">
        <ele>212</ele>
        <time>2018-03-29T14:25:48Z</time>
      </trkpt>
      <trkpt lat="45.87641" lon="4.64558">
        <ele>212</ele>
        <time>2018-03-29T14:25:49Z</time>
      </trkpt>
      <trkpt lat="45.87647" lon="4.6455">
        <ele>213</ele>
        <time>2018-03-29T14:25:51Z</time>
      </trkpt>
      <trkpt lat="45.8765" lon="4.64545">
        <ele>213</ele>
        <time>2018-03-29T14:25:52Z</time>
      </trkpt>
      <trkpt lat="45.87654" lon="4.64541">
        <ele>213</ele>
        <time>2018-03-29T14:25:53Z</time>
      </trkpt>
      <trkpt lat="45.87657" lon="4.64537">
        <ele>213</ele>
        <time>2018-03-29T14:25:54Z</time>
      </trkpt>
      <trkpt lat="45.87661" lon="4.64533">
        <ele>213</ele>
        <time>2018-03-29T14:25:55Z</time>
      </trkpt>
      <trkpt lat="45.87665" lon="4.64529">
        <ele>213</ele>
        <time>2018-03-29T14:25:56Z</time>
      </trkpt>
      <trkpt lat="45.8767" lon="4.64519">
        <ele>215</ele>
        <time>2018-03-29T14:25:58Z</time>
      </trkpt>
      <trkpt lat="45.87673" lon="4.64516">
        <ele>215</ele>
        <time>2018-03-29T14:25:59Z</time>
      </trkpt>
      <trkpt lat="45.87677" lon="4.64509">
        <ele>215</ele>
        <time>2018-03-29T14:26:01Z</time>
      </trkpt>
      <trkpt lat="45.87681" lon="4.64504">
        <ele>215</ele>
        <time>2018-03-29T14:26:02Z</time>
      </trkpt>
      <trkpt lat="45.87688" lon="4.64512">
        <ele>215</ele>
        <time>2018-03-29T14:26:09Z</time>
      </trkpt>
      <trkpt lat="45.87689" lon="4.64515">
        <ele>215</ele>
        <time>2018-03-29T14:26:10Z</time>
      </trkpt>
      <trkpt lat="45.87695" lon="4.64522">
        <ele>215</ele>
        <time>2018-03-29T14:26:13Z</time>
      </trkpt>
      <trkpt lat="45.87697" lon="4.64524">
        <ele>215</ele>
        <time>2018-03-29T14:26:14Z</time>
      </trkpt>
      <trkpt lat="45.87703" lon="4.64532">
        <ele>216</ele>
        <time>2018-03-29T14:26:17Z</time>
      </trkpt>
      <trkpt lat="45.87705" lon="4.64534">
        <ele>216</ele>
        <time>2018-03-29T14:26:18Z</time>
      </trkpt>
      <trkpt lat="45.87712" lon="4.64542">
        <ele>216</ele>
        <time>2018-03-29T14:26:19Z</time>
      </trkpt>
      <trkpt lat="45.87714" lon="4.64544">
        <ele>216</ele>
        <time>2018-03-29T14:26:20Z</time>
      </trkpt>
      <trkpt lat="45.87715" lon="4.64547">
        <ele>216</ele>
        <time>2018-03-29T14:26:21Z</time>
      </trkpt>
      <trkpt lat="45.8772" lon="4.64554">
        <ele>216</ele>
        <time>2018-03-29T14:26:22Z</time>
      </trkpt>
      <trkpt lat="45.87724" lon="4.64563">
        <ele>217</ele>
        <time>2018-03-29T14:26:24Z</time>
      </trkpt>
      <trkpt lat="45.87724" lon="4.64566">
        <ele>217</ele>
        <time>2018-03-29T14:26:25Z</time>
      </trkpt>
      <trkpt lat="45.87725" lon="4.64574">
        <ele>217</ele>
        <time>2018-03-29T14:26:26Z</time>
      </trkpt>
      <trkpt lat="45.87725" lon="4.6458">
        <ele>217</ele>
        <time>2018-03-29T14:26:27Z</time>
      </trkpt>
      <trkpt lat="45.87725" lon="4.64588">
        <ele>218</ele>
        <time>2018-03-29T14:26:29Z</time>
      </trkpt>
      <trkpt lat="45.87725" lon="4.64596">
        <ele>217</ele>
        <time>2018-03-29T14:26:30Z</time>
      </trkpt>
      <trkpt lat="45.87726" lon="4.64609">
        <ele>217</ele>
        <time>2018-03-29T14:26:32Z</time>
      </trkpt>
      <trkpt lat="45.87726" lon="4.64615">
        <ele>217</ele>
        <time>2018-03-29T14:26:33Z</time>
      </trkpt>
      <trkpt lat="45.87725" lon="4.64627">
        <ele>217</ele>
        <time>2018-03-29T14:26:35Z</time>
      </trkpt>
      <trkpt lat="45.87725" lon="4.64633">
        <ele>217</ele>
        <time>2018-03-29T14:26:36Z</time>
      </trkpt>
      <trkpt lat="45.87726" lon="4.64644">
        <ele>217</ele>
        <time>2018-03-29T14:26:38Z</time>
      </trkpt>
      <trkpt lat="45.87727" lon="4.64649">
        <ele>217</ele>
        <time>2018-03-29T14:26:39Z</time>
      </trkpt>
      <trkpt lat="45.87727" lon="4.6466">
        <ele>217</ele>
        <time>2018-03-29T14:26:41Z</time>
      </trkpt>
      <trkpt lat="45.87726" lon="4.64665">
        <ele>217</ele>
        <time>2018-03-29T14:26:42Z</time>
      </trkpt>
      <trkpt lat="45.87725" lon="4.64677">
        <ele>216</ele>
        <time>2018-03-29T14:26:44Z</time>
      </trkpt>
      <trkpt lat="45.87725" lon="4.64683">
        <ele>216</ele>
        <time>2018-03-29T14:26:45Z</time>
      </trkpt>
      <trkpt lat="45.87724" lon="4.64695">
        <ele>215</ele>
        <time>2018-03-29T14:26:47Z</time>
      </trkpt>
      <trkpt lat="45.87724" lon="4.64701">
        <ele>215</ele>
        <time>2018-03-29T14:26:48Z</time>
      </trkpt>
      <trkpt lat="45.87725" lon="4.64713">
        <ele>215</ele>
        <time>2018-03-29T14:26:50Z</time>
      </trkpt>
      <trkpt lat="45.87725" lon="4.64719">
        <ele>215</ele>
        <time>2018-03-29T14:26:51Z</time>
      </trkpt>
      <trkpt lat="45.87727" lon="4.64732">
        <ele>214</ele>
        <time>2018-03-29T14:26:53Z</time>
      </trkpt>
      <trkpt lat="45.87729" lon="4.64738">
        <ele>214</ele>
        <time>2018-03-29T14:26:54Z</time>
      </trkpt>
      <trkpt lat="45.87732" lon="4.6475">
        <ele>214</ele>
        <time>2018-03-29T14:26:56Z</time>
      </trkpt>
      <trkpt lat="45.87734" lon="4.64756">
        <ele>213</ele>
        <time>2018-03-29T14:26:57Z</time>
      </trkpt>
      <trkpt lat="45.87736" lon="4.64768">
        <ele>213</ele>
        <time>2018-03-29T14:26:59Z</time>
      </trkpt>
      <trkpt lat="45.87736" lon="4.64773">
        <ele>213</ele>
        <time>2018-03-29T14:27:00Z</time>
      </trkpt>
      <trkpt lat="45.87738" lon="4.64785">
        <ele>213</ele>
        <time>2018-03-29T14:27:02Z</time>
      </trkpt>
      <trkpt lat="45.8774" lon="4.6479">
        <ele>213</ele>
        <time>2018-03-29T14:27:03Z</time>
      </trkpt>
      <trkpt lat="45.87744" lon="4.64799">
        <ele>214</ele>
        <time>2018-03-29T14:27:05Z</time>
      </trkpt>
      <trkpt lat="45.87747" lon="4.64803">
        <ele>214</ele>
        <time>2018-03-29T14:27:06Z</time>
      </trkpt>
      <trkpt lat="45.87752" lon="4.64811">
        <ele>214</ele>
        <time>2018-03-29T14:27:08Z</time>
      </trkpt>
      <trkpt lat="45.87753" lon="4.64813">
        <ele>214</ele>
        <time>2018-03-29T14:27:09Z</time>
      </trkpt>
      <trkpt lat="45.87758" lon="4.64823">
        <ele>214</ele>
        <time>2018-03-29T14:27:12Z</time>
      </trkpt>
      <trkpt lat="45.8776" lon="4.64826">
        <ele>214</ele>
        <time>2018-03-29T14:27:13Z</time>
      </trkpt>
      <trkpt lat="45.87766" lon="4.64835">
        <ele>216</ele>
        <time>2018-03-29T14:27:16Z</time>
      </trkpt>
      <trkpt lat="45.87768" lon="4.64838">
        <ele>216</ele>
        <time>2018-03-29T14:27:17Z</time>
      </trkpt>
      <trkpt lat="45.87773" lon="4.64846">
        <ele>217</ele>
        <time>2018-03-29T14:27:20Z</time>
      </trkpt>
      <trkpt lat="45.87774" lon="4.64849">
        <ele>217</ele>
        <time>2018-03-29T14:27:21Z</time>
      </trkpt>
      <trkpt lat="45.8778" lon="4.64858">
        <ele>218</ele>
        <time>2018-03-29T14:27:24Z</time>
      </trkpt>
      <trkpt lat="45.87781" lon="4.64861">
        <ele>218</ele>
        <time>2018-03-29T14:27:25Z</time>
      </trkpt>
      <trkpt lat="45.87786" lon="4.6487">
        <ele>218</ele>
        <time>2018-03-29T14:27:28Z</time>
      </trkpt>
      <trkpt lat="45.87787" lon="4.64873">
        <ele>218</ele>
        <time>2018-03-29T14:27:29Z</time>
      </trkpt>
      <trkpt lat="45.87792" lon="4.64882">
        <ele>219</ele>
        <time>2018-03-29T14:27:32Z</time>
      </trkpt>
      <trkpt lat="45.87794" lon="4.64885">
        <ele>219</ele>
        <time>2018-03-29T14:27:33Z</time>
      </trkpt>
      <trkpt lat="45.87798" lon="4.64894">
        <ele>219</ele>
        <time>2018-03-29T14:27:36Z</time>
      </trkpt>
      <trkpt lat="45.87799" lon="4.64896">
        <ele>219</ele>
        <time>2018-03-29T14:27:37Z</time>
      </trkpt>
      <trkpt lat="45.87803" lon="4.64906">
        <ele>220</ele>
        <time>2018-03-29T14:27:40Z</time>
      </trkpt>
      <trkpt lat="45.87804" lon="4.64909">
        <ele>220</ele>
        <time>2018-03-29T14:27:41Z</time>
      </trkpt>
      <trkpt lat="45.87808" lon="4.64917">
        <ele>224</ele>
        <time>2018-03-29T14:27:44Z</time>
      </trkpt>
      <trkpt lat="45.87809" lon="4.6492">
        <ele>224</ele>
        <time>2018-03-29T14:27:45Z</time>
      </trkpt>
      <trkpt lat="45.87813" lon="4.64928">
        <ele>224</ele>
        <time>2018-03-29T14:27:48Z</time>
      </trkpt>
      <trkpt lat="45.87814" lon="4.64931">
        <ele>224</ele>
        <time>2018-03-29T14:27:49Z</time>
      </trkpt>
      <trkpt lat="45.87819" lon="4.64941">
        <ele>225</ele>
        <time>2018-03-29T14:27:53Z</time>
      </trkpt>
      <trkpt lat="45.87821" lon="4.64943">
        <ele>225</ele>
        <time>2018-03-29T14:27:54Z</time>
      </trkpt>
      <trkpt lat="45.87826" lon="4.6495">
        <ele>225</ele>
        <time>2018-03-29T14:27:57Z</time>
      </trkpt>
      <trkpt lat="45.87827" lon="4.64952">
        <ele>226</ele>
        <time>2018-03-29T14:27:58Z</time>
      </trkpt>
      <trkpt lat="45.87833" lon="4.64958">
        <ele>226</ele>
        <time>2018-03-29T14:28:01Z</time>
      </trkpt>
      <trkpt lat="45.87835" lon="4.6496">
        <ele>228</ele>
        <time>2018-03-29T14:28:02Z</time>
      </trkpt>
      <trkpt lat="45.87842" lon="4.64968">
        <ele>229</ele>
        <time>2018-03-29T14:28:06Z</time>
      </trkpt>
      <trkpt lat="45.87844" lon="4.64969">
        <ele>229</ele>
        <time>2018-03-29T14:28:07Z</time>
      </trkpt>
      <trkpt lat="45.87852" lon="4.64975">
        <ele>229</ele>
        <time>2018-03-29T14:28:11Z</time>
      </trkpt>
      <trkpt lat="45.87853" lon="4.64976">
        <ele>229</ele>
        <time>2018-03-29T14:28:12Z</time>
      </trkpt>
      <trkpt lat="45.87861" lon="4.64982">
        <ele>230</ele>
        <time>2018-03-29T14:28:16Z</time>
      </trkpt>
      <trkpt lat="45.87862" lon="4.64983">
        <ele>230</ele>
        <time>2018-03-29T14:28:17Z</time>
      </trkpt>
      <trkpt lat="45.87869" lon="4.64986">
        <ele>230</ele>
        <time>2018-03-29T14:28:21Z</time>
      </trkpt>
      <trkpt lat="45.87871" lon="4.64988">
        <ele>230</ele>
        <time>2018-03-29T14:28:22Z</time>
      </trkpt>
      <trkpt lat="45.8788" lon="4.64992">
        <ele>231</ele>
        <time>2018-03-29T14:28:26Z</time>
      </trkpt>
      <trkpt lat="45.87882" lon="4.64993">
        <ele>231</ele>
        <time>2018-03-29T14:28:27Z</time>
      </trkpt>
      <trkpt lat="45.8789" lon="4.64996">
        <ele>232</ele>
        <time>2018-03-29T14:28:31Z</time>
      </trkpt>
      <trkpt lat="45.87892" lon="4.64996">
        <ele>232</ele>
        <time>2018-03-29T14:28:32Z</time>
      </trkpt>
      <trkpt lat="45.87899" lon="4.64996">
        <ele>233</ele>
        <time>2018-03-29T14:28:36Z</time>
      </trkpt>
      <trkpt lat="45.87901" lon="4.64996">
        <ele>233</ele>
        <time>2018-03-29T14:28:37Z</time>
      </trkpt>
      <trkpt lat="45.87909" lon="4.64995">
        <ele>234</ele>
        <time>2018-03-29T14:28:41Z</time>
      </trkpt>
      <trkpt lat="45.87911" lon="4.64994">
        <ele>235</ele>
        <time>2018-03-29T14:28:42Z</time>
      </trkpt>
      <trkpt lat="45.87919" lon="4.64993">
        <ele>237</ele>
        <time>2018-03-29T14:28:46Z</time>
      </trkpt>
      <trkpt lat="45.87921" lon="4.64992">
        <ele>237</ele>
        <time>2018-03-29T14:28:47Z</time>
      </trkpt>
      <trkpt lat="45.87928" lon="4.64989">
        <ele>237</ele>
        <time>2018-03-29T14:28:51Z</time>
      </trkpt>
      <trkpt lat="45.8793" lon="4.64989">
        <ele>237</ele>
        <time>2018-03-29T14:28:52Z</time>
      </trkpt>
      <trkpt lat="45.87938" lon="4.64986">
        <ele>237</ele>
        <time>2018-03-29T14:28:56Z</time>
      </trkpt>
      <trkpt lat="45.8794" lon="4.64985">
        <ele>237</ele>
        <time>2018-03-29T14:28:57Z</time>
      </trkpt>
      <trkpt lat="45.87947" lon="4.64981">
        <ele>238</ele>
        <time>2018-03-29T14:29:01Z</time>
      </trkpt>
      <trkpt lat="45.87949" lon="4.6498">
        <ele>238</ele>
        <time>2018-03-29T14:29:02Z</time>
      </trkpt>
      <trkpt lat="45.87957" lon="4.64977">
        <ele>238</ele>
        <time>2018-03-29T14:29:06Z</time>
      </trkpt>
      <trkpt lat="45.87958" lon="4.64975">
        <ele>238</ele>
        <time>2018-03-29T14:29:07Z</time>
      </trkpt>
      <trkpt lat="45.87965" lon="4.6497">
        <ele>238</ele>
        <time>2018-03-29T14:29:11Z</time>
      </trkpt>
      <trkpt lat="45.87967" lon="4.64969">
        <ele>238</ele>
        <time>2018-03-29T14:29:12Z</time>
      </trkpt>
      <trkpt lat="45.87974" lon="4.64964">
        <ele>238</ele>
        <time>2018-03-29T14:29:16Z</time>
      </trkpt>
      <trkpt lat="45.87975" lon="4.64963">
        <ele>238</ele>
        <time>2018-03-29T14:29:17Z</time>
      </trkpt>
      <trkpt lat="45.87983" lon="4.64958">
        <ele>238</ele>
        <time>2018-03-29T14:29:21Z</time>
      </trkpt>
      <trkpt lat="45.87985" lon="4.64956">
        <ele>238</ele>
        <time>2018-03-29T14:29:22Z</time>
      </trkpt>
      <trkpt lat="45.87991" lon="4.64951">
        <ele>238</ele>
        <time>2018-03-29T14:29:25Z</time>
      </trkpt>
      <trkpt lat="45.87993" lon="4.64949">
        <ele>238</ele>
        <time>2018-03-29T14:29:26Z</time>
      </trkpt>
      <trkpt lat="45.88001" lon="4.64943">
        <ele>246</ele>
        <time>2018-03-29T14:29:30Z</time>
      </trkpt>
      <trkpt lat="45.88003" lon="4.64941">
        <ele>245</ele>
        <time>2018-03-29T14:29:31Z</time>
      </trkpt>
      <trkpt lat="45.88009" lon="4.64935">
        <ele>244</ele>
        <time>2018-03-29T14:29:35Z</time>
      </trkpt>
      <trkpt lat="45.88011" lon="4.64933">
        <ele>244</ele>
        <time>2018-03-29T14:29:36Z</time>
      </trkpt>
      <trkpt lat="45.88018" lon="4.64926">
        <ele>244</ele>
        <time>2018-03-29T14:29:40Z</time>
      </trkpt>
      <trkpt lat="45.88019" lon="4.64925">
        <ele>245</ele>
        <time>2018-03-29T14:29:41Z</time>
      </trkpt>
      <trkpt lat="45.88026" lon="4.64918">
        <ele>246</ele>
        <time>2018-03-29T14:29:46Z</time>
      </trkpt>
      <trkpt lat="45.88028" lon="4.64916">
        <ele>238</ele>
        <time>2018-03-29T14:29:47Z</time>
      </trkpt>
      <trkpt lat="45.88035" lon="4.64912">
        <ele>239</ele>
        <time>2018-03-29T14:29:51Z</time>
      </trkpt>
      <trkpt lat="45.88036" lon="4.64911">
        <ele>239</ele>
        <time>2018-03-29T14:29:52Z</time>
      </trkpt>
      <trkpt lat="45.88042" lon="4.64904">
        <ele>240</ele>
        <time>2018-03-29T14:29:56Z</time>
      </trkpt>
      <trkpt lat="45.88044" lon="4.64902">
        <ele>240</ele>
        <time>2018-03-29T14:29:57Z</time>
      </trkpt>
      <trkpt lat="45.8805" lon="4.64896">
        <ele>241</ele>
        <time>2018-03-29T14:30:01Z</time>
      </trkpt>
      <trkpt lat="45.88052" lon="4.64895">
        <ele>241</ele>
        <time>2018-03-29T14:30:02Z</time>
      </trkpt>
      <trkpt lat="45.88059" lon="4.6489">
        <ele>241</ele>
        <time>2018-03-29T14:30:06Z</time>
      </trkpt>
      <trkpt lat="45.88061" lon="4.64889">
        <ele>241</ele>
        <time>2018-03-29T14:30:07Z</time>
      </trkpt>
      <trkpt lat="45.88067" lon="4.64883">
        <ele>241</ele>
        <time>2018-03-29T14:30:11Z</time>
      </trkpt>
      <trkpt lat="45.88069" lon="4.64882">
        <ele>241</ele>
        <time>2018-03-29T14:30:12Z</time>
      </trkpt>
      <trkpt lat="45.88076" lon="4.64877">
        <ele>241</ele>
        <time>2018-03-29T14:30:16Z</time>
      </trkpt>
      <trkpt lat="45.88077" lon="4.64876">
        <ele>240</ele>
        <time>2018-03-29T14:30:17Z</time>
      </trkpt>
      <trkpt lat="45.88085" lon="4.64871">
        <ele>247</ele>
        <time>2018-03-29T14:30:21Z</time>
      </trkpt>
      <trkpt lat="45.88087" lon="4.6487">
        <ele>247</ele>
        <time>2018-03-29T14:30:22Z</time>
      </trkpt>
      <trkpt lat="45.88095" lon="4.64867">
        <ele>247</ele>
        <time>2018-03-29T14:30:26Z</time>
      </trkpt>
      <trkpt lat="45.88097" lon="4.64867">
        <ele>247</ele>
        <time>2018-03-29T14:30:27Z</time>
      </trkpt>
      <trkpt lat="45.88105" lon="4.64865">
        <ele>247</ele>
        <time>2018-03-29T14:30:31Z</time>
      </trkpt>
      <trkpt lat="45.88107" lon="4.64864">
        <ele>247</ele>
        <time>2018-03-29T14:30:32Z</time>
      </trkpt>
      <trkpt lat="45.88115" lon="4.6486">
        <ele>247</ele>
        <time>2018-03-29T14:30:36Z</time>
      </trkpt>
      <trkpt lat="45.88117" lon="4.64859">
        <ele>247</ele>
        <time>2018-03-29T14:30:37Z</time>
      </trkpt>
      <trkpt lat="45.88125" lon="4.64859">
        <ele>248</ele>
        <time>2018-03-29T14:30:41Z</time>
      </trkpt>
      <trkpt lat="45.88127" lon="4.64859">
        <ele>248</ele>
        <time>2018-03-29T14:30:42Z</time>
      </trkpt>
      <trkpt lat="45.88135" lon="4.64855">
        <ele>248</ele>
        <time>2018-03-29T14:30:46Z</time>
      </trkpt>
      <trkpt lat="45.88136" lon="4.64855">
        <ele>248</ele>
        <time>2018-03-29T14:30:47Z</time>
      </trkpt>
      <trkpt lat="45.88144" lon="4.64854">
        <ele>248</ele>
        <time>2018-03-29T14:30:51Z</time>
      </trkpt>
      <trkpt lat="45.88146" lon="4.64853">
        <ele>248</ele>
        <time>2018-03-29T14:30:52Z</time>
      </trkpt>
      <trkpt lat="45.88154" lon="4.64853">
        <ele>248</ele>
        <time>2018-03-29T14:30:56Z</time>
      </trkpt>
      <trkpt lat="45.88156" lon="4.64852">
        <ele>248</ele>
        <time>2018-03-29T14:30:57Z</time>
      </trkpt>
      <trkpt lat="45.88164" lon="4.6485">
        <ele>248</ele>
        <time>2018-03-29T14:31:01Z</time>
      </trkpt>
      <trkpt lat="45.88166" lon="4.6485">
        <ele>248</ele>
        <time>2018-03-29T14:31:02Z</time>
      </trkpt>
      <trkpt lat="45.88173" lon="4.64848">
        <ele>251</ele>
        <time>2018-03-29T14:31:06Z</time>
      </trkpt>
      <trkpt lat="45.88175" lon="4.64847">
        <ele>251</ele>
        <time>2018-03-29T14:31:07Z</time>
      </trkpt>
      <trkpt lat="45.88184" lon="4.64845">
        <ele>252</ele>
        <time>2018-03-29T14:31:11Z</time>
      </trkpt>
      <trkpt lat="45.88186" lon="4.64845">
        <ele>253</ele>
        <time>2018-03-29T14:31:12Z</time>
      </trkpt>
      <trkpt lat="45.88194" lon="4.64844">
        <ele>254</ele>
        <time>2018-03-29T14:31:16Z</time>
      </trkpt>
      <trkpt lat="45.88196" lon="4.64844">
        <ele>254</ele>
        <time>2018-03-29T14:31:17Z</time>
      </trkpt>
      <trkpt lat="45.88204" lon="4.64842">
        <ele>255</ele>
        <time>2018-03-29T14:31:21Z</time>
      </trkpt>
      <trkpt lat="45.88207" lon="4.64841">
        <ele>256</ele>
        <time>2018-03-29T14:31:22Z</time>
      </trkpt>
      <trkpt lat="45.88215" lon="4.64839">
        <ele>256</ele>
        <time>2018-03-29T14:31:26Z</time>
      </trkpt>
      <trkpt lat="45.88217" lon="4.64838">
        <ele>256</ele>
        <time>2018-03-29T14:31:27Z</time>
      </trkpt>
      <trkpt lat="45.88224" lon="4.64838">
        <ele>257</ele>
        <time>2018-03-29T14:31:31Z</time>
      </trkpt>
      <trkpt lat="45.88226" lon="4.64837">
        <ele>257</ele>
        <time>2018-03-29T14:31:32Z</time>
      </trkpt>
      <trkpt lat="45.88233" lon="4.64835">
        <ele>257</ele>
        <time>2018-03-29T14:31:36Z</time>
      </trkpt>
      <trkpt lat="45.88235" lon="4.64835">
        <ele>257</ele>
        <time>2018-03-29T14:31:37Z</time>
      </trkpt>
      <trkpt lat="45.88243" lon="4.64831">
        <ele>254</ele>
        <time>2018-03-29T14:31:43Z</time>
      </trkpt>
      <trkpt lat="45.88245" lon="4.64831">
        <ele>254</ele>
        <time>2018-03-29T14:31:44Z</time>
      </trkpt>
      <trkpt lat="45.88252" lon="4.64828">
        <ele>257</ele>
        <time>2018-03-29T14:31:50Z</time>
      </trkpt>
      <trkpt lat="45.88254" lon="4.64828">
        <ele>257</ele>
        <time>2018-03-29T14:31:51Z</time>
      </trkpt>
      <trkpt lat="45.88261" lon="4.64826">
        <ele>257</ele>
        <time>2018-03-29T14:31:55Z</time>
      </trkpt>
      <trkpt lat="45.88263" lon="4.64825">
        <ele>257</ele>
        <time>2018-03-29T14:31:56Z</time>
      </trkpt>
      <trkpt lat="45.8827" lon="4.64824">
        <ele>258</ele>
        <time>2018-03-29T14:32:01Z</time>
      </trkpt>
      <trkpt lat="45.88272" lon="4.64823">
        <ele>258</ele>
        <time>2018-03-29T14:32:02Z</time>
      </trkpt>
      <trkpt lat="45.88279" lon="4.64822">
        <ele>258</ele>
        <time>2018-03-29T14:32:07Z</time>
      </trkpt>
      <trkpt lat="45.88281" lon="4.64821">
        <ele>258</ele>
        <time>2018-03-29T14:32:08Z</time>
      </trkpt>
      <trkpt lat="45.88289" lon="4.64821">
        <ele>259</ele>
        <time>2018-03-29T14:32:13Z</time>
      </trkpt>
      <trkpt lat="45.88291" lon="4.64821">
        <ele>259</ele>
        <time>2018-03-29T14:32:14Z</time>
      </trkpt>
      <trkpt lat="45.88298" lon="4.64819">
        <ele>260</ele>
        <time>2018-03-29T14:32:19Z</time>
      </trkpt>
      <trkpt lat="45.883" lon="4.64818">
        <ele>261</ele>
        <time>2018-03-29T14:32:20Z</time>
      </trkpt>
      <trkpt lat="45.88308" lon="4.64815">
        <ele>262</ele>
        <time>2018-03-29T14:32:25Z</time>
      </trkpt>
      <trkpt lat="45.8831" lon="4.64814">
        <ele>262</ele>
        <time>2018-03-29T14:32:26Z</time>
      </trkpt>
      <trkpt lat="45.88318" lon="4.64812">
        <ele>263</ele>
        <time>2018-03-29T14:32:31Z</time>
      </trkpt>
      <trkpt lat="45.8832" lon="4.64812">
        <ele>263</ele>
        <time>2018-03-29T14:32:32Z</time>
      </trkpt>
      <trkpt lat="45.88327" lon="4.6481">
        <ele>263</ele>
        <time>2018-03-29T14:32:37Z</time>
      </trkpt>
      <trkpt lat="45.88329" lon="4.6481">
        <ele>263</ele>
        <time>2018-03-29T14:32:38Z</time>
      </trkpt>
      <trkpt lat="45.88337" lon="4.64807">
        <ele>269</ele>
        <time>2018-03-29T14:32:43Z</time>
      </trkpt>
      <trkpt lat="45.88339" lon="4.64806">
        <ele>269</ele>
        <time>2018-03-29T14:32:44Z</time>
      </trkpt>
      <trkpt lat="45.88347" lon="4.64802">
        <ele>268</ele>
        <time>2018-03-29T14:32:49Z</time>
      </trkpt>
      <trkpt lat="45.88349" lon="4.64802">
        <ele>268</ele>
        <time>2018-03-29T14:32:50Z</time>
      </trkpt>
      <trkpt lat="45.88356" lon="4.64798">
        <ele>268</ele>
        <time>2018-03-29T14:32:55Z</time>
      </trkpt>
      <trkpt lat="45.88358" lon="4.64798">
        <ele>268</ele>
        <time>2018-03-29T14:32:56Z</time>
      </trkpt>
      <trkpt lat="45.88366" lon="4.64795">
        <ele>268</ele>
        <time>2018-03-29T14:33:01Z</time>
      </trkpt>
      <trkpt lat="45.88367" lon="4.64795">
        <ele>268</ele>
        <time>2018-03-29T14:33:02Z</time>
      </trkpt>
      <trkpt lat="45.88375" lon="4.64794">
        <ele>268</ele>
        <time>2018-03-29T14:33:07Z</time>
      </trkpt>
      <trkpt lat="45.88377" lon="4.64794">
        <ele>268</ele>
        <time>2018-03-29T14:33:08Z</time>
      </trkpt>
      <trkpt lat="45.88384" lon="4.64795">
        <ele>268</ele>
        <time>2018-03-29T14:33:13Z</time>
      </trkpt>
      <trkpt lat="45.88386" lon="4.64795">
        <ele>268</ele>
        <time>2018-03-29T14:33:14Z</time>
      </trkpt>
      <trkpt lat="45.88395" lon="4.64792">
        <ele>268</ele>
        <time>2018-03-29T14:33:19Z</time>
      </trkpt>
      <trkpt lat="45.88396" lon="4.64791">
        <ele>268</ele>
        <time>2018-03-29T14:33:20Z</time>
      </trkpt>
      <trkpt lat="45.88404" lon="4.64789">
        <ele>268</ele>
        <time>2018-03-29T14:33:24Z</time>
      </trkpt>
      <trkpt lat="45.88406" lon="4.64789">
        <ele>268</ele>
        <time>2018-03-29T14:33:25Z</time>
      </trkpt>
      <trkpt lat="45.88414" lon="4.64789">
        <ele>268</ele>
        <time>2018-03-29T14:33:29Z</time>
      </trkpt>
      <trkpt lat="45.88416" lon="4.64789">
        <ele>268</ele>
        <time>2018-03-29T14:33:30Z</time>
      </trkpt>
      <trkpt lat="45.88423" lon="4.64788">
        <ele>271</ele>
        <time>2018-03-29T14:33:34Z</time>
      </trkpt>
      <trkpt lat="45.88425" lon="4.64788">
        <ele>271</ele>
        <time>2018-03-29T14:33:35Z</time>
      </trkpt>
      <trkpt lat="45.88432" lon="4.64785">
        <ele>271</ele>
        <time>2018-03-29T14:33:40Z</time>
      </trkpt>
      <trkpt lat="45.88434" lon="4.64785">
        <ele>271</ele>
        <time>2018-03-29T14:33:41Z</time>
      </trkpt>
      <trkpt lat="45.88441" lon="4.64784">
        <ele>271</ele>
        <time>2018-03-29T14:33:46Z</time>
      </trkpt>
      <trkpt lat="45.88443" lon="4.64783">
        <ele>271</ele>
        <time>2018-03-29T14:33:47Z</time>
      </trkpt>
      <trkpt lat="45.88451" lon="4.64781">
        <ele>271</ele>
        <time>2018-03-29T14:33:52Z</time>
      </trkpt>
      <trkpt lat="45.88453" lon="4.64781">
        <ele>271</ele>
        <time>2018-03-29T14:33:53Z</time>
      </trkpt>
      <trkpt lat="45.88462" lon="4.6478">
        <ele>271</ele>
        <time>2018-03-29T14:33:58Z</time>
      </trkpt>
      <trkpt lat="45.88464" lon="4.6478">
        <ele>271</ele>
        <time>2018-03-29T14:33:59Z</time>
      </trkpt>
      <trkpt lat="45.88471" lon="4.64779">
        <ele>271</ele>
        <time>2018-03-29T14:34:03Z</time>
      </trkpt>
      <trkpt lat="45.88473" lon="4.64779">
        <ele>271</ele>
        <time>2018-03-29T14:34:04Z</time>
      </trkpt>
      <trkpt lat="45.88481" lon="4.64778">
        <ele>271</ele>
        <time>2018-03-29T14:34:08Z</time>
      </trkpt>
      <trkpt lat="45.88483" lon="4.64778">
        <ele>271</ele>
        <time>2018-03-29T14:34:09Z</time>
      </trkpt>
      <trkpt lat="45.88491" lon="4.64776">
        <ele>271</ele>
        <time>2018-03-29T14:34:13Z</time>
      </trkpt>
      <trkpt lat="45.88493" lon="4.64776">
        <ele>271</ele>
        <time>2018-03-29T14:34:14Z</time>
      </trkpt>
      <trkpt lat="45.885" lon="4.64774">
        <ele>271</ele>
        <time>2018-03-29T14:34:18Z</time>
      </trkpt>
      <trkpt lat="45.88502" lon="4.64774">
        <ele>271</ele>
        <time>2018-03-29T14:34:19Z</time>
      </trkpt>
      <trkpt lat="45.8851" lon="4.64774">
        <ele>271</ele>
        <time>2018-03-29T14:34:23Z</time>
      </trkpt>
      <trkpt lat="45.88512" lon="4.64774">
        <ele>271</ele>
        <time>2018-03-29T14:34:24Z</time>
      </trkpt>
      <trkpt lat="45.8852" lon="4.64778">
        <ele>271</ele>
        <time>2018-03-29T14:34:28Z</time>
      </trkpt>
      <trkpt lat="45.88521" lon="4.64779">
        <ele>271</ele>
        <time>2018-03-29T14:34:29Z</time>
      </trkpt>
      <trkpt lat="45.88529" lon="4.64784">
        <ele>272</ele>
        <time>2018-03-29T14:34:34Z</time>
      </trkpt>
      <trkpt lat="45.88531" lon="4.64785">
        <ele>272</ele>
        <time>2018-03-29T14:34:35Z</time>
      </trkpt>
      <trkpt lat="45.88537" lon="4.64792">
        <ele>272</ele>
        <time>2018-03-29T14:34:39Z</time>
      </trkpt>
      <trkpt lat="45.88538" lon="4.64794">
        <ele>272</ele>
        <time>2018-03-29T14:34:40Z</time>
      </trkpt>
      <trkpt lat="45.88544" lon="4.64802">
        <ele>272</ele>
        <time>2018-03-29T14:34:44Z</time>
      </trkpt>
      <trkpt lat="45.88545" lon="4.64804">
        <ele>272</ele>
        <time>2018-03-29T14:34:45Z</time>
      </trkpt>
      <trkpt lat="45.88549" lon="4.64814">
        <ele>273</ele>
        <time>2018-03-29T14:34:49Z</time>
      </trkpt>
      <trkpt lat="45.88549" lon="4.64816">
        <ele>273</ele>
        <time>2018-03-29T14:34:50Z</time>
      </trkpt>
      <trkpt lat="45.8855" lon="4.64827">
        <ele>273</ele>
        <time>2018-03-29T14:34:54Z</time>
      </trkpt>
      <trkpt lat="45.8855" lon="4.64829">
        <ele>273</ele>
        <time>2018-03-29T14:34:55Z</time>
      </trkpt>
      <trkpt lat="45.8855" lon="4.64841">
        <ele>276</ele>
        <time>2018-03-29T14:34:59Z</time>
      </trkpt>
      <trkpt lat="45.8855" lon="4.64844">
        <ele>276</ele>
        <time>2018-03-29T14:35:00Z</time>
      </trkpt>
      <trkpt lat="45.88549" lon="4.64855">
        <ele>277</ele>
        <time>2018-03-29T14:35:04Z</time>
      </trkpt>
      <trkpt lat="45.88548" lon="4.64857">
        <ele>277</ele>
        <time>2018-03-29T14:35:05Z</time>
      </trkpt>
      <trkpt lat="45.88548" lon="4.64868">
        <ele>277</ele>
        <time>2018-03-29T14:35:09Z</time>
      </trkpt>
      <trkpt lat="45.88547" lon="4.6487">
        <ele>277</ele>
        <time>2018-03-29T14:35:10Z</time>
      </trkpt>
      <trkpt lat="45.88546" lon="4.6488">
        <ele>277</ele>
        <time>2018-03-29T14:35:14Z</time>
      </trkpt>
      <trkpt lat="45.88545" lon="4.64883">
        <ele>277</ele>
        <time>2018-03-29T14:35:15Z</time>
      </trkpt>
      <trkpt lat="45.88543" lon="4.64893">
        <ele>277</ele>
        <time>2018-03-29T14:35:19Z</time>
      </trkpt>
      <trkpt lat="45.88543" lon="4.64896">
        <ele>277</ele>
        <time>2018-03-29T14:35:20Z</time>
      </trkpt>
      <trkpt lat="45.88542" lon="4.64908">
        <ele>278</ele>
        <time>2018-03-29T14:35:25Z</time>
      </trkpt>
      <trkpt lat="45.88541" lon="4.64911">
        <ele>278</ele>
        <time>2018-03-29T14:35:26Z</time>
      </trkpt>
      <trkpt lat="45.8854" lon="4.64921">
        <ele>280</ele>
        <time>2018-03-29T14:35:30Z</time>
      </trkpt>
      <trkpt lat="45.88539" lon="4.64924">
        <ele>280</ele>
        <time>2018-03-29T14:35:31Z</time>
      </trkpt>
      <trkpt lat="45.88537" lon="4.64935">
        <ele>280</ele>
        <time>2018-03-29T14:35:35Z</time>
      </trkpt>
      <trkpt lat="45.88537" lon="4.64937">
        <ele>280</ele>
        <time>2018-03-29T14:35:36Z</time>
      </trkpt>
      <trkpt lat="45.88535" lon="4.64948">
        <ele>281</ele>
        <time>2018-03-29T14:35:40Z</time>
      </trkpt>
      <trkpt lat="45.88535" lon="4.6495">
        <ele>281</ele>
        <time>2018-03-29T14:35:41Z</time>
      </trkpt>
      <trkpt lat="45.88533" lon="4.64963">
        <ele>281</ele>
        <time>2018-03-29T14:35:46Z</time>
      </trkpt>
      <trkpt lat="45.88532" lon="4.64965">
        <ele>281</ele>
        <time>2018-03-29T14:35:47Z</time>
      </trkpt>
      <trkpt lat="45.88531" lon="4.64977">
        <ele>282</ele>
        <time>2018-03-29T14:35:52Z</time>
      </trkpt>
      <trkpt lat="45.8853" lon="4.64979">
        <ele>282</ele>
        <time>2018-03-29T14:35:53Z</time>
      </trkpt>
      <trkpt lat="45.88529" lon="4.64991">
        <ele>283</ele>
        <time>2018-03-29T14:35:58Z</time>
      </trkpt>
      <trkpt lat="45.88529" lon="4.64993">
        <ele>283</ele>
        <time>2018-03-29T14:35:59Z</time>
      </trkpt>
      <trkpt lat="45.88526" lon="4.65003">
        <ele>285</ele>
        <time>2018-03-29T14:36:04Z</time>
      </trkpt>
      <trkpt lat="45.88525" lon="4.65005">
        <ele>285</ele>
        <time>2018-03-29T14:36:05Z</time>
      </trkpt>
      <trkpt lat="45.88524" lon="4.65018">
        <ele>285</ele>
        <time>2018-03-29T14:36:11Z</time>
      </trkpt>
      <trkpt lat="45.88524" lon="4.6502">
        <ele>285</ele>
        <time>2018-03-29T14:36:12Z</time>
      </trkpt>
      <trkpt lat="45.88522" lon="4.65032">
        <ele>285</ele>
        <time>2018-03-29T14:36:17Z</time>
      </trkpt>
      <trkpt lat="45.88522" lon="4.65034">
        <ele>285</ele>
        <time>2018-03-29T14:36:18Z</time>
      </trkpt>
      <trkpt lat="45.88519" lon="4.65045">
        <ele>285</ele>
        <time>2018-03-29T14:36:23Z</time>
      </trkpt>
      <trkpt lat="45.88518" lon="4.65047">
        <ele>285</ele>
        <time>2018-03-29T14:36:24Z</time>
      </trkpt>
      <trkpt lat="45.88515" lon="4.65057">
        <ele>286</ele>
        <time>2018-03-29T14:36:29Z</time>
      </trkpt>
      <trkpt lat="45.88514" lon="4.65059">
        <ele>286</ele>
        <time>2018-03-29T14:36:30Z</time>
      </trkpt>
      <trkpt lat="45.8851" lon="4.65069">
        <ele>287</ele>
        <time>2018-03-29T14:36:35Z</time>
      </trkpt>
      <trkpt lat="45.88509" lon="4.65071">
        <ele>287</ele>
        <time>2018-03-29T14:36:36Z</time>
      </trkpt>
      <trkpt lat="45.88504" lon="4.65081">
        <ele>289</ele>
        <time>2018-03-29T14:36:41Z</time>
      </trkpt>
      <trkpt lat="45.88503" lon="4.65083">
        <ele>289</ele>
        <time>2018-03-29T14:36:42Z</time>
      </trkpt>
      <trkpt lat="45.88497" lon="4.65093">
        <ele>291</ele>
        <time>2018-03-29T14:36:47Z</time>
      </trkpt>
      <trkpt lat="45.88496" lon="4.65094">
        <ele>291</ele>
        <time>2018-03-29T14:36:48Z</time>
      </trkpt>
      <trkpt lat="45.88491" lon="4.65104">
        <ele>292</ele>
        <time>2018-03-29T14:36:53Z</time>
      </trkpt>
      <trkpt lat="45.8849" lon="4.65106">
        <ele>292</ele>
        <time>2018-03-29T14:36:54Z</time>
      </trkpt>
      <trkpt lat="45.88485" lon="4.65114">
        <ele>293</ele>
        <time>2018-03-29T14:36:59Z</time>
      </trkpt>
      <trkpt lat="45.88484" lon="4.65116">
        <ele>293</ele>
        <time>2018-03-29T14:37:00Z</time>
      </trkpt>
      <trkpt lat="45.88479" lon="4.65126">
        <ele>293</ele>
        <time>2018-03-29T14:37:06Z</time>
      </trkpt>
      <trkpt lat="45.88479" lon="4.65128">
        <ele>293</ele>
        <time>2018-03-29T14:37:07Z</time>
      </trkpt>
      <trkpt lat="45.88472" lon="4.65135">
        <ele>294</ele>
        <time>2018-03-29T14:37:53Z</time>
      </trkpt>
      <trkpt lat="45.88472" lon="4.65136">
        <ele>294</ele>
        <time>2018-03-29T14:37:54Z</time>
      </trkpt>
      <trkpt lat="45.88465" lon="4.65144">
        <ele>294</ele>
        <time>2018-03-29T14:38:00Z</time>
      </trkpt>
      <trkpt lat="45.88464" lon="4.65146">
        <ele>294</ele>
        <time>2018-03-29T14:38:01Z</time>
      </trkpt>
      <trkpt lat="45.88457" lon="4.65153">
        <ele>295</ele>
        <time>2018-03-29T14:38:06Z</time>
      </trkpt>
      <trkpt lat="45.88455" lon="4.65155">
        <ele>295</ele>
        <time>2018-03-29T14:38:07Z</time>
      </trkpt>
      <trkpt lat="45.88449" lon="4.65162">
        <ele>295</ele>
        <time>2018-03-29T14:38:11Z</time>
      </trkpt>
      <trkpt lat="45.88448" lon="4.65163">
        <ele>295</ele>
        <time>2018-03-29T14:38:12Z</time>
      </trkpt>
      <trkpt lat="45.88442" lon="4.65171">
        <ele>297</ele>
        <time>2018-03-29T14:38:17Z</time>
      </trkpt>
      <trkpt lat="45.8844" lon="4.65172">
        <ele>297</ele>
        <time>2018-03-29T14:38:18Z</time>
      </trkpt>
      <trkpt lat="45.88433" lon="4.65179">
        <ele>298</ele>
        <time>2018-03-29T14:38:23Z</time>
      </trkpt>
      <trkpt lat="45.88431" lon="4.6518">
        <ele>298</ele>
        <time>2018-03-29T14:38:24Z</time>
      </trkpt>
      <trkpt lat="45.88425" lon="4.65188">
        <ele>298</ele>
        <time>2018-03-29T14:38:29Z</time>
      </trkpt>
      <trkpt lat="45.88424" lon="4.6519">
        <ele>298</ele>
        <time>2018-03-29T14:38:30Z</time>
      </trkpt>
      <trkpt lat="45.88416" lon="4.65196">
        <ele>299</ele>
        <time>2018-03-29T14:38:36Z</time>
      </trkpt>
      <trkpt lat="45.88415" lon="4.65197">
        <ele>299</ele>
        <time>2018-03-29T14:38:37Z</time>
      </trkpt>
      <trkpt lat="45.88407" lon="4.65203">
        <ele>299</ele>
        <time>2018-03-29T14:38:43Z</time>
      </trkpt>
      <trkpt lat="45.88406" lon="4.65205">
        <ele>300</ele>
        <time>2018-03-29T14:38:44Z</time>
      </trkpt>
      <trkpt lat="45.884" lon="4.65213">
        <ele>300</ele>
        <time>2018-03-29T14:38:49Z</time>
      </trkpt>
      <trkpt lat="45.88398" lon="4.65214">
        <ele>300</ele>
        <time>2018-03-29T14:38:50Z</time>
      </trkpt>
      <trkpt lat="45.88391" lon="4.65221">
        <ele>300</ele>
        <time>2018-03-29T14:40:25Z</time>
      </trkpt>
      <trkpt lat="45.8839" lon="4.65221">
        <ele>300</ele>
        <time>2018-03-29T14:40:26Z</time>
      </trkpt>
      <trkpt lat="45.88385" lon="4.65229">
        <ele>300</ele>
        <time>2018-03-29T14:40:33Z</time>
      </trkpt>
      <trkpt lat="45.88384" lon="4.65231">
        <ele>300</ele>
        <time>2018-03-29T14:40:34Z</time>
      </trkpt>
      <trkpt lat="45.88376" lon="4.65237">
        <ele>300</ele>
        <time>2018-03-29T14:40:39Z</time>
      </trkpt>
      <trkpt lat="45.88375" lon="4.65238">
        <ele>300</ele>
        <time>2018-03-29T14:40:40Z</time>
      </trkpt>
      <trkpt lat="45.88368" lon="4.65245">
        <ele>300</ele>
        <time>2018-03-29T14:40:45Z</time>
      </trkpt>
      <trkpt lat="45.88366" lon="4.65247">
        <ele>300</ele>
        <time>2018-03-29T14:40:46Z</time>
      </trkpt>
      <trkpt lat="45.8836" lon="4.65252">
        <ele>301</ele>
        <time>2018-03-29T14:40:50Z</time>
      </trkpt>
      <trkpt lat="45.88358" lon="4.65254">
        <ele>301</ele>
        <time>2018-03-29T14:40:51Z</time>
      </trkpt>
      <trkpt lat="45.88352" lon="4.6526">
        <ele>301</ele>
        <time>2018-03-29T14:40:55Z</time>
      </trkpt>
      <trkpt lat="45.8835" lon="4.65262">
        <ele>301</ele>
        <time>2018-03-29T14:40:56Z</time>
      </trkpt>
      <trkpt lat="45.88344" lon="4.6527">
        <ele>301</ele>
        <time>2018-03-29T14:41:01Z</time>
      </trkpt>
      <trkpt lat="45.88342" lon="4.65272">
        <ele>301</ele>
        <time>2018-03-29T14:41:02Z</time>
      </trkpt>
      <trkpt lat="45.88335" lon="4.65278">
        <ele>302</ele>
        <time>2018-03-29T14:41:06Z</time>
      </trkpt>
      <trkpt lat="45.88334" lon="4.6528">
        <ele>302</ele>
        <time>2018-03-29T14:41:07Z</time>
      </trkpt>
      <trkpt lat="45.88327" lon="4.65286">
        <ele>304</ele>
        <time>2018-03-29T14:41:11Z</time>
      </trkpt>
      <trkpt lat="45.88326" lon="4.65288">
        <ele>304</ele>
        <time>2018-03-29T14:41:12Z</time>
      </trkpt>
      <trkpt lat="45.8832" lon="4.65296">
        <ele>304</ele>
        <time>2018-03-29T14:41:16Z</time>
      </trkpt>
      <trkpt lat="45.88319" lon="4.65298">
        <ele>304</ele>
        <time>2018-03-29T14:41:17Z</time>
      </trkpt>
      <trkpt lat="45.88313" lon="4.65308">
        <ele>305</ele>
        <time>2018-03-29T14:41:22Z</time>
      </trkpt>
      <trkpt lat="45.88312" lon="4.6531">
        <ele>305</ele>
        <time>2018-03-29T14:41:23Z</time>
      </trkpt>
      <trkpt lat="45.88308" lon="4.6532">
        <ele>305</ele>
        <time>2018-03-29T14:41:27Z</time>
      </trkpt>
      <trkpt lat="45.88307" lon="4.65322">
        <ele>305</ele>
        <time>2018-03-29T14:41:28Z</time>
      </trkpt>
      <trkpt lat="45.88303" lon="4.65332">
        <ele>305</ele>
        <time>2018-03-29T14:41:32Z</time>
      </trkpt>
      <trkpt lat="45.88302" lon="4.65334">
        <ele>307</ele>
        <time>2018-03-29T14:41:33Z</time>
      </trkpt>
      <trkpt lat="45.88298" lon="4.65343">
        <ele>307</ele>
        <time>2018-03-29T14:41:37Z</time>
      </trkpt>
      <trkpt lat="45.88297" lon="4.65345">
        <ele>307</ele>
        <time>2018-03-29T14:41:38Z</time>
      </trkpt>
      <trkpt lat="45.88293" lon="4.65357">
        <ele>307</ele>
        <time>2018-03-29T14:41:43Z</time>
      </trkpt>
      <trkpt lat="45.88292" lon="4.65359">
        <ele>308</ele>
        <time>2018-03-29T14:41:44Z</time>
      </trkpt>
      <trkpt lat="45.88289" lon="4.6537">
        <ele>308</ele>
        <time>2018-03-29T14:41:49Z</time>
      </trkpt>
      <trkpt lat="45.88288" lon="4.65372">
        <ele>308</ele>
        <time>2018-03-29T14:41:50Z</time>
      </trkpt>
      <trkpt lat="45.88285" lon="4.65384">
        <ele>308</ele>
        <time>2018-03-29T14:41:55Z</time>
      </trkpt>
      <trkpt lat="45.88285" lon="4.65386">
        <ele>308</ele>
        <time>2018-03-29T14:41:56Z</time>
      </trkpt>
      <trkpt lat="45.8828" lon="4.65396">
        <ele>308</ele>
        <time>2018-03-29T14:42:01Z</time>
      </trkpt>
      <trkpt lat="45.88279" lon="4.65398">
        <ele>308</ele>
        <time>2018-03-29T14:42:02Z</time>
      </trkpt>
      <trkpt lat="45.88276" lon="4.65409">
        <ele>309</ele>
        <time>2018-03-29T14:42:07Z</time>
      </trkpt>
      <trkpt lat="45.88275" lon="4.65411">
        <ele>309</ele>
        <time>2018-03-29T14:42:08Z</time>
      </trkpt>
      <trkpt lat="45.88271" lon="4.65421">
        <ele>310</ele>
        <time>2018-03-29T14:42:12Z</time>
      </trkpt>
      <trkpt lat="45.88271" lon="4.65423">
        <ele>310</ele>
        <time>2018-03-29T14:42:13Z</time>
      </trkpt>
      <trkpt lat="45.88268" lon="4.65433">
        <ele>311</ele>
        <time>2018-03-29T14:42:17Z</time>
      </trkpt>
      <trkpt lat="45.88267" lon="4.65435">
        <ele>311</ele>
        <time>2018-03-29T14:42:18Z</time>
      </trkpt>
      <trkpt lat="45.88264" lon="4.65446">
        <ele>311</ele>
        <time>2018-03-29T14:42:23Z</time>
      </trkpt>
      <trkpt lat="45.88263" lon="4.65449">
        <ele>311</ele>
        <time>2018-03-29T14:42:24Z</time>
      </trkpt>
      <trkpt lat="45.8826" lon="4.65459">
        <ele>311</ele>
        <time>2018-03-29T14:42:29Z</time>
      </trkpt>
      <trkpt lat="45.88259" lon="4.65461">
        <ele>311</ele>
        <time>2018-03-29T14:42:30Z</time>
      </trkpt>
      <trkpt lat="45.88255" lon="4.65472">
        <ele>312</ele>
        <time>2018-03-29T14:42:35Z</time>
      </trkpt>
      <trkpt lat="45.88254" lon="4.65474">
        <ele>312</ele>
        <time>2018-03-29T14:42:36Z</time>
      </trkpt>
      <trkpt lat="45.8825" lon="4.65485">
        <ele>313</ele>
        <time>2018-03-29T14:42:41Z</time>
      </trkpt>
      <trkpt lat="45.88249" lon="4.65488">
        <ele>316</ele>
        <time>2018-03-29T14:42:42Z</time>
      </trkpt>
      <trkpt lat="45.88246" lon="4.65497">
        <ele>315</ele>
        <time>2018-03-29T14:42:46Z</time>
      </trkpt>
      <trkpt lat="45.88245" lon="4.655">
        <ele>315</ele>
        <time>2018-03-29T14:42:47Z</time>
      </trkpt>
      <trkpt lat="45.88242" lon="4.6551">
        <ele>317</ele>
        <time>2018-03-29T14:42:51Z</time>
      </trkpt>
      <trkpt lat="45.88241" lon="4.65513">
        <ele>318</ele>
        <time>2018-03-29T14:42:52Z</time>
      </trkpt>
      <trkpt lat="45.88238" lon="4.65522">
        <ele>319</ele>
        <time>2018-03-29T14:42:56Z</time>
      </trkpt>
      <trkpt lat="45.88237" lon="4.65525">
        <ele>319</ele>
        <time>2018-03-29T14:42:57Z</time>
      </trkpt>
      <trkpt lat="45.88234" lon="4.65536">
        <ele>319</ele>
        <time>2018-03-29T14:43:02Z</time>
      </trkpt>
      <trkpt lat="45.88233" lon="4.65539">
        <ele>320</ele>
        <time>2018-03-29T14:43:03Z</time>
      </trkpt>
      <trkpt lat="45.8823" lon="4.6555">
        <ele>320</ele>
        <time>2018-03-29T14:43:08Z</time>
      </trkpt>
      <trkpt lat="45.88229" lon="4.65552">
        <ele>320</ele>
        <time>2018-03-29T14:43:09Z</time>
      </trkpt>
      <trkpt lat="45.88225" lon="4.65563">
        <ele>320</ele>
        <time>2018-03-29T14:43:14Z</time>
      </trkpt>
      <trkpt lat="45.88225" lon="4.65566">
        <ele>320</ele>
        <time>2018-03-29T14:43:15Z</time>
      </trkpt>
      <trkpt lat="45.8822" lon="4.65577">
        <ele>320</ele>
        <time>2018-03-29T14:43:20Z</time>
      </trkpt>
      <trkpt lat="45.8822" lon="4.65579">
        <ele>320</ele>
        <time>2018-03-29T14:43:21Z</time>
      </trkpt>
      <trkpt lat="45.88217" lon="4.65591">
        <ele>321</ele>
        <time>2018-03-29T14:43:26Z</time>
      </trkpt>
      <trkpt lat="45.88217" lon="4.65593">
        <ele>321</ele>
        <time>2018-03-29T14:43:27Z</time>
      </trkpt>
      <trkpt lat="45.88212" lon="4.65603">
        <ele>321</ele>
        <time>2018-03-29T14:43:32Z</time>
      </trkpt>
      <trkpt lat="45.88212" lon="4.65605">
        <ele>321</ele>
        <time>2018-03-29T14:43:33Z</time>
      </trkpt>
      <trkpt lat="45.88208" lon="4.65615">
        <ele>321</ele>
        <time>2018-03-29T14:43:38Z</time>
      </trkpt>
      <trkpt lat="45.88207" lon="4.65617">
        <ele>321</ele>
        <time>2018-03-29T14:43:39Z</time>
      </trkpt>
      <trkpt lat="45.88204" lon="4.65628">
        <ele>321</ele>
        <time>2018-03-29T14:43:44Z</time>
      </trkpt>
      <trkpt lat="45.88204" lon="4.6563">
        <ele>321</ele>
        <time>2018-03-29T14:43:45Z</time>
      </trkpt>
      <trkpt lat="45.88201" lon="4.6564">
        <ele>321</ele>
        <time>2018-03-29T14:43:50Z</time>
      </trkpt>
      <trkpt lat="45.882" lon="4.65643">
        <ele>321</ele>
        <time>2018-03-29T14:43:51Z</time>
      </trkpt>
      <trkpt lat="45.88197" lon="4.65653">
        <ele>322</ele>
        <time>2018-03-29T14:43:56Z</time>
      </trkpt>
      <trkpt lat="45.88196" lon="4.65654">
        <ele>322</ele>
        <time>2018-03-29T14:43:57Z</time>
      </trkpt>
      <trkpt lat="45.8819" lon="4.65664">
        <ele>322</ele>
        <time>2018-03-29T14:44:02Z</time>
      </trkpt>
      <trkpt lat="45.88189" lon="4.65666">
        <ele>322</ele>
        <time>2018-03-29T14:44:03Z</time>
      </trkpt>
      <trkpt lat="45.88185" lon="4.65677">
        <ele>322</ele>
        <time>2018-03-29T14:44:08Z</time>
      </trkpt>
      <trkpt lat="45.88184" lon="4.65679">
        <ele>322</ele>
        <time>2018-03-29T14:44:09Z</time>
      </trkpt>
      <trkpt lat="45.88178" lon="4.65686">
        <ele>322</ele>
        <time>2018-03-29T14:44:14Z</time>
      </trkpt>
      <trkpt lat="45.88177" lon="4.65688">
        <ele>322</ele>
        <time>2018-03-29T14:44:15Z</time>
      </trkpt>
      <trkpt lat="45.88173" lon="4.65698">
        <ele>322</ele>
        <time>2018-03-29T14:44:20Z</time>
      </trkpt>
      <trkpt lat="45.88173" lon="4.657">
        <ele>322</ele>
        <time>2018-03-29T14:44:21Z</time>
      </trkpt>
      <trkpt lat="45.88167" lon="4.65708">
        <ele>322</ele>
        <time>2018-03-29T14:44:26Z</time>
      </trkpt>
      <trkpt lat="45.88166" lon="4.6571">
        <ele>331</ele>
        <time>2018-03-29T14:44:27Z</time>
      </trkpt>
      <trkpt lat="45.88159" lon="4.65717">
        <ele>331</ele>
        <time>2018-03-29T14:44:33Z</time>
      </trkpt>
      <trkpt lat="45.88158" lon="4.65718">
        <ele>331</ele>
        <time>2018-03-29T14:44:34Z</time>
      </trkpt>
      <trkpt lat="45.88153" lon="4.65726">
        <ele>331</ele>
        <time>2018-03-29T14:44:39Z</time>
      </trkpt>
      <trkpt lat="45.88152" lon="4.65728">
        <ele>331</ele>
        <time>2018-03-29T14:44:40Z</time>
      </trkpt>
      <trkpt lat="45.88148" lon="4.65737">
        <ele>331</ele>
        <time>2018-03-29T14:44:45Z</time>
      </trkpt>
      <trkpt lat="45.88146" lon="4.65738">
        <ele>331</ele>
        <time>2018-03-29T14:44:46Z</time>
      </trkpt>
      <trkpt lat="45.88139" lon="4.65745">
        <ele>332</ele>
        <time>2018-03-29T14:44:52Z</time>
      </trkpt>
      <trkpt lat="45.88138" lon="4.65746">
        <ele>332</ele>
        <time>2018-03-29T14:44:53Z</time>
      </trkpt>
      <trkpt lat="45.88133" lon="4.65755">
        <ele>332</ele>
        <time>2018-03-29T14:44:58Z</time>
      </trkpt>
      <trkpt lat="45.88132" lon="4.65757">
        <ele>332</ele>
        <time>2018-03-29T14:44:59Z</time>
      </trkpt>
      <trkpt lat="45.88126" lon="4.65764">
        <ele>333</ele>
        <time>2018-03-29T14:45:04Z</time>
      </trkpt>
      <trkpt lat="45.88125" lon="4.65766">
        <ele>333</ele>
        <time>2018-03-29T14:45:05Z</time>
      </trkpt>
      <trkpt lat="45.88118" lon="4.65772">
        <ele>333</ele>
        <time>2018-03-29T14:45:10Z</time>
      </trkpt>
      <trkpt lat="45.88116" lon="4.65773">
        <ele>334</ele>
        <time>2018-03-29T14:45:11Z</time>
      </trkpt>
      <trkpt lat="45.8811" lon="4.65778">
        <ele>334</ele>
        <time>2018-03-29T14:45:16Z</time>
      </trkpt>
      <trkpt lat="45.88108" lon="4.6578">
        <ele>334</ele>
        <time>2018-03-29T14:45:17Z</time>
      </trkpt>
      <trkpt lat="45.88101" lon="4.65788">
        <ele>334</ele>
        <time>2018-03-29T14:45:22Z</time>
      </trkpt>
      <trkpt lat="45.881" lon="4.65789">
        <ele>334</ele>
        <time>2018-03-29T14:45:23Z</time>
      </trkpt>
      <trkpt lat="45.88093" lon="4.65796">
        <ele>334</ele>
        <time>2018-03-29T14:45:28Z</time>
      </trkpt>
      <trkpt lat="45.88091" lon="4.65797">
        <ele>334</ele>
        <time>2018-03-29T14:45:29Z</time>
      </trkpt>
      <trkpt lat="45.88084" lon="4.65801">
        <ele>334</ele>
        <time>2018-03-29T14:45:34Z</time>
      </trkpt>
      <trkpt lat="45.88082" lon="4.65803">
        <ele>341</ele>
        <time>2018-03-29T14:45:35Z</time>
      </trkpt>
      <trkpt lat="45.88076" lon="4.6581">
        <ele>340</ele>
        <time>2018-03-29T14:45:40Z</time>
      </trkpt>
      <trkpt lat="45.88075" lon="4.65811">
        <ele>340</ele>
        <time>2018-03-29T14:45:41Z</time>
      </trkpt>
      <trkpt lat="45.88067" lon="4.65815">
        <ele>340</ele>
        <time>2018-03-29T14:45:45Z</time>
      </trkpt>
      <trkpt lat="45.88065" lon="4.65816">
        <ele>341</ele>
        <time>2018-03-29T14:45:46Z</time>
      </trkpt>
      <trkpt lat="45.88058" lon="4.65819">
        <ele>341</ele>
        <time>2018-03-29T14:45:49Z</time>
      </trkpt>
      <trkpt lat="45.88056" lon="4.6582">
        <ele>341</ele>
        <time>2018-03-29T14:45:50Z</time>
      </trkpt>
      <trkpt lat="45.88048" lon="4.65825">
        <ele>342</ele>
        <time>2018-03-29T14:45:53Z</time>
      </trkpt>
      <trkpt lat="45.88046" lon="4.65826">
        <ele>342</ele>
        <time>2018-03-29T14:45:54Z</time>
      </trkpt>
      <trkpt lat="45.8804" lon="4.65831">
        <ele>343</ele>
        <time>2018-03-29T14:45:57Z</time>
      </trkpt>
      <trkpt lat="45.88038" lon="4.65832">
        <ele>343</ele>
        <time>2018-03-29T14:45:58Z</time>
      </trkpt>
      <trkpt lat="45.88031" lon="4.65836">
        <ele>338</ele>
        <time>2018-03-29T14:46:01Z</time>
      </trkpt>
      <trkpt lat="45.88029" lon="4.65838">
        <ele>339</ele>
        <time>2018-03-29T14:46:02Z</time>
      </trkpt>
      <trkpt lat="45.88021" lon="4.65844">
        <ele>339</ele>
        <time>2018-03-29T14:46:05Z</time>
      </trkpt>
      <trkpt lat="45.88018" lon="4.65846">
        <ele>340</ele>
        <time>2018-03-29T14:46:06Z</time>
      </trkpt>
      <trkpt lat="45.88011" lon="4.6585">
        <ele>340</ele>
        <time>2018-03-29T14:46:09Z</time>
      </trkpt>
      <trkpt lat="45.88009" lon="4.65851">
        <ele>340</ele>
        <time>2018-03-29T14:46:10Z</time>
      </trkpt>
      <trkpt lat="45.88003" lon="4.65856">
        <ele>340</ele>
        <time>2018-03-29T14:46:13Z</time>
      </trkpt>
      <trkpt lat="45.88" lon="4.65858">
        <ele>339</ele>
        <time>2018-03-29T14:46:14Z</time>
      </trkpt>
      <trkpt lat="45.87995" lon="4.65863">
        <ele>344</ele>
        <time>2018-03-29T14:46:16Z</time>
      </trkpt>
      <trkpt lat="45.87993" lon="4.65866">
        <ele>343</ele>
        <time>2018-03-29T14:46:17Z</time>
      </trkpt>
      <trkpt lat="45.87986" lon="4.65874">
        <ele>343</ele>
        <time>2018-03-29T14:46:20Z</time>
      </trkpt>
      <trkpt lat="45.87984" lon="4.65876">
        <ele>343</ele>
        <time>2018-03-29T14:46:21Z</time>
      </trkpt>
      <trkpt lat="45.87982" lon="4.6588">
        <ele>343</ele>
        <time>2018-03-29T14:46:22Z</time>
      </trkpt>
      <trkpt lat="45.87976" lon="4.65888">
        <ele>342</ele>
        <time>2018-03-29T14:46:23Z</time>
      </trkpt>
      <trkpt lat="45.8797" lon="4.65896">
        <ele>342</ele>
        <time>2018-03-29T14:46:26Z</time>
      </trkpt>
      <trkpt lat="45.87968" lon="4.65898">
        <ele>342</ele>
        <time>2018-03-29T14:46:27Z</time>
      </trkpt>
      <trkpt lat="45.87961" lon="4.65905">
        <ele>343</ele>
        <time>2018-03-29T14:46:30Z</time>
      </trkpt>
      <trkpt lat="45.8796" lon="4.65908">
        <ele>343</ele>
        <time>2018-03-29T14:46:31Z</time>
      </trkpt>
      <trkpt lat="45.87954" lon="4.65914">
        <ele>343</ele>
        <time>2018-03-29T14:46:34Z</time>
      </trkpt>
      <trkpt lat="45.87952" lon="4.65917">
        <ele>340</ele>
        <time>2018-03-29T14:46:35Z</time>
      </trkpt>
      <trkpt lat="45.87948" lon="4.65925">
        <ele>341</ele>
        <time>2018-03-29T14:46:38Z</time>
      </trkpt>
      <trkpt lat="45.87947" lon="4.65928">
        <ele>341</ele>
        <time>2018-03-29T14:46:39Z</time>
      </trkpt>
      <trkpt lat="45.87942" lon="4.65936">
        <ele>341</ele>
        <time>2018-03-29T14:46:42Z</time>
      </trkpt>
      <trkpt lat="45.87941" lon="4.65939">
        <ele>341</ele>
        <time>2018-03-29T14:46:43Z</time>
      </trkpt>
      <trkpt lat="45.87937" lon="4.65947">
        <ele>341</ele>
        <time>2018-03-29T14:46:46Z</time>
      </trkpt>
      <trkpt lat="45.87935" lon="4.6595">
        <ele>341</ele>
        <time>2018-03-29T14:46:47Z</time>
      </trkpt>
      <trkpt lat="45.87933" lon="4.6596">
        <ele>341</ele>
        <time>2018-03-29T14:46:51Z</time>
      </trkpt>
      <trkpt lat="45.87932" lon="4.65963">
        <ele>341</ele>
        <time>2018-03-29T14:46:52Z</time>
      </trkpt>
      <trkpt lat="45.8793" lon="4.65973">
        <ele>341</ele>
        <time>2018-03-29T14:46:55Z</time>
      </trkpt>
      <trkpt lat="45.87929" lon="4.65976">
        <ele>341</ele>
        <time>2018-03-29T14:46:56Z</time>
      </trkpt>
      <trkpt lat="45.87927" lon="4.65986">
        <ele>341</ele>
        <time>2018-03-29T14:46:59Z</time>
      </trkpt>
      <trkpt lat="45.87927" lon="4.65989">
        <ele>342</ele>
        <time>2018-03-29T14:47:00Z</time>
      </trkpt>
      <trkpt lat="45.87926" lon="4.66">
        <ele>342</ele>
        <time>2018-03-29T14:47:03Z</time>
      </trkpt>
      <trkpt lat="45.87926" lon="4.66003">
        <ele>342</ele>
        <time>2018-03-29T14:47:04Z</time>
      </trkpt>
      <trkpt lat="45.87924" lon="4.66015">
        <ele>342</ele>
        <time>2018-03-29T14:47:08Z</time>
      </trkpt>
      <trkpt lat="45.87924" lon="4.66017">
        <ele>342</ele>
        <time>2018-03-29T14:47:09Z</time>
      </trkpt>
      <trkpt lat="45.87924" lon="4.66028">
        <ele>342</ele>
        <time>2018-03-29T14:47:13Z</time>
      </trkpt>
      <trkpt lat="45.87924" lon="4.66031">
        <ele>342</ele>
        <time>2018-03-29T14:47:14Z</time>
      </trkpt>
      <trkpt lat="45.87924" lon="4.66042">
        <ele>342</ele>
        <time>2018-03-29T14:47:18Z</time>
      </trkpt>
      <trkpt lat="45.87924" lon="4.66045">
        <ele>342</ele>
        <time>2018-03-29T14:47:19Z</time>
      </trkpt>
      <trkpt lat="45.87924" lon="4.66056">
        <ele>342</ele>
        <time>2018-03-29T14:47:23Z</time>
      </trkpt>
      <trkpt lat="45.87923" lon="4.66058">
        <ele>342</ele>
        <time>2018-03-29T14:47:24Z</time>
      </trkpt>
      <trkpt lat="45.87924" lon="4.66069">
        <ele>343</ele>
        <time>2018-03-29T14:47:28Z</time>
      </trkpt>
      <trkpt lat="45.87925" lon="4.66072">
        <ele>343</ele>
        <time>2018-03-29T14:47:29Z</time>
      </trkpt>
      <trkpt lat="45.87926" lon="4.66082">
        <ele>343</ele>
        <time>2018-03-29T14:47:33Z</time>
      </trkpt>
      <trkpt lat="45.87926" lon="4.66085">
        <ele>345</ele>
        <time>2018-03-29T14:47:34Z</time>
      </trkpt>
      <trkpt lat="45.87926" lon="4.66095">
        <ele>346</ele>
        <time>2018-03-29T14:47:38Z</time>
      </trkpt>
      <trkpt lat="45.87925" lon="4.66097">
        <ele>346</ele>
        <time>2018-03-29T14:47:39Z</time>
      </trkpt>
      <trkpt lat="45.87924" lon="4.66108">
        <ele>347</ele>
        <time>2018-03-29T14:47:43Z</time>
      </trkpt>
      <trkpt lat="45.87924" lon="4.6611">
        <ele>347</ele>
        <time>2018-03-29T14:47:44Z</time>
      </trkpt>
      <trkpt lat="45.87924" lon="4.66123">
        <ele>348</ele>
        <time>2018-03-29T14:47:49Z</time>
      </trkpt>
      <trkpt lat="45.87925" lon="4.66125">
        <ele>348</ele>
        <time>2018-03-29T14:47:50Z</time>
      </trkpt>
      <trkpt lat="45.87929" lon="4.66135">
        <ele>349</ele>
        <time>2018-03-29T14:47:54Z</time>
      </trkpt>
      <trkpt lat="45.87931" lon="4.66137">
        <ele>349</ele>
        <time>2018-03-29T14:47:55Z</time>
      </trkpt>
      <trkpt lat="45.87937" lon="4.66141">
        <ele>349</ele>
        <time>2018-03-29T14:47:58Z</time>
      </trkpt>
      <trkpt lat="45.87939" lon="4.66142">
        <ele>349</ele>
        <time>2018-03-29T14:47:59Z</time>
      </trkpt>
      <trkpt lat="45.87947" lon="4.66144">
        <ele>349</ele>
        <time>2018-03-29T14:48:02Z</time>
      </trkpt>
      <trkpt lat="45.87949" lon="4.66144">
        <ele>349</ele>
        <time>2018-03-29T14:48:03Z</time>
      </trkpt>
      <trkpt lat="45.87958" lon="4.66144">
        <ele>348</ele>
        <time>2018-03-29T14:48:06Z</time>
      </trkpt>
      <trkpt lat="45.87961" lon="4.66144">
        <ele>348</ele>
        <time>2018-03-29T14:48:07Z</time>
      </trkpt>
      <trkpt lat="45.8797" lon="4.66145">
        <ele>348</ele>
        <time>2018-03-29T14:48:10Z</time>
      </trkpt>
      <trkpt lat="45.87973" lon="4.66145">
        <ele>348</ele>
        <time>2018-03-29T14:48:11Z</time>
      </trkpt>
      <trkpt lat="45.87979" lon="4.66146">
        <ele>349</ele>
        <time>2018-03-29T14:48:13Z</time>
      </trkpt>
      <trkpt lat="45.87982" lon="4.66146">
        <ele>349</ele>
        <time>2018-03-29T14:48:14Z</time>
      </trkpt>
      <trkpt lat="45.87989" lon="4.66146">
        <ele>349</ele>
        <time>2018-03-29T14:48:16Z</time>
      </trkpt>
      <trkpt lat="45.87992" lon="4.66147">
        <ele>349</ele>
        <time>2018-03-29T14:48:17Z</time>
      </trkpt>
      <trkpt lat="45.87999" lon="4.66147">
        <ele>349</ele>
        <time>2018-03-29T14:48:19Z</time>
      </trkpt>
      <trkpt lat="45.88002" lon="4.66147">
        <ele>349</ele>
        <time>2018-03-29T14:48:20Z</time>
      </trkpt>
      <trkpt lat="45.88006" lon="4.66148">
        <ele>349</ele>
        <time>2018-03-29T14:48:21Z</time>
      </trkpt>
      <trkpt lat="45.88014" lon="4.66148">
        <ele>348</ele>
        <time>2018-03-29T14:48:22Z</time>
      </trkpt>
      <trkpt lat="45.88022" lon="4.66148">
        <ele>348</ele>
        <time>2018-03-29T14:48:24Z</time>
      </trkpt>
      <trkpt lat="45.88026" lon="4.66148">
        <ele>348</ele>
        <time>2018-03-29T14:48:25Z</time>
      </trkpt>
      <trkpt lat="45.88034" lon="4.66147">
        <ele>348</ele>
        <time>2018-03-29T14:48:27Z</time>
      </trkpt>
      <trkpt lat="45.88039" lon="4.66147">
        <ele>348</ele>
        <time>2018-03-29T14:48:28Z</time>
      </trkpt>
      <trkpt lat="45.88046" lon="4.66147">
        <ele>348</ele>
        <time>2018-03-29T14:48:30Z</time>
      </trkpt>
      <trkpt lat="45.88048" lon="4.66147">
        <ele>348</ele>
        <time>2018-03-29T14:48:31Z</time>
      </trkpt>
      <trkpt lat="45.88056" lon="4.66146">
        <ele>348</ele>
        <time>2018-03-29T14:48:34Z</time>
      </trkpt>
      <trkpt lat="45.88059" lon="4.66146">
        <ele>348</ele>
        <time>2018-03-29T14:48:35Z</time>
      </trkpt>
      <trkpt lat="45.88066" lon="4.66146">
        <ele>348</ele>
        <time>2018-03-29T14:48:36Z</time>
      </trkpt>
      <trkpt lat="45.8807" lon="4.66145">
        <ele>348</ele>
        <time>2018-03-29T14:48:37Z</time>
      </trkpt>
      <trkpt lat="45.88078" lon="4.66145">
        <ele>349</ele>
        <time>2018-03-29T14:48:39Z</time>
      </trkpt>
      <trkpt lat="45.8808" lon="4.66145">
        <ele>349</ele>
        <time>2018-03-29T14:48:40Z</time>
      </trkpt>
      <trkpt lat="45.88086" lon="4.66144">
        <ele>349</ele>
        <time>2018-03-29T14:48:41Z</time>
      </trkpt>
      <trkpt lat="45.8809" lon="4.66144">
        <ele>349</ele>
        <time>2018-03-29T14:48:42Z</time>
      </trkpt>
      <trkpt lat="45.88098" lon="4.66143">
        <ele>349</ele>
        <time>2018-03-29T14:48:45Z</time>
      </trkpt>
      <trkpt lat="45.88101" lon="4.66142">
        <ele>349</ele>
        <time>2018-03-29T14:48:46Z</time>
      </trkpt>
      <trkpt lat="45.88107" lon="4.66141">
        <ele>349</ele>
        <time>2018-03-29T14:48:48Z</time>
      </trkpt>
      <trkpt lat="45.8811" lon="4.6614">
        <ele>349</ele>
        <time>2018-03-29T14:48:49Z</time>
      </trkpt>
      <trkpt lat="45.88116" lon="4.66139">
        <ele>349</ele>
        <time>2018-03-29T14:48:51Z</time>
      </trkpt>
      <trkpt lat="45.88119" lon="4.66138">
        <ele>349</ele>
        <time>2018-03-29T14:48:52Z</time>
      </trkpt>
      <trkpt lat="45.88128" lon="4.66137">
        <ele>349</ele>
        <time>2018-03-29T14:48:53Z</time>
      </trkpt>
      <trkpt lat="45.88132" lon="4.66137">
        <ele>349</ele>
        <time>2018-03-29T14:48:54Z</time>
      </trkpt>
      <trkpt lat="45.8814" lon="4.66136">
        <ele>349</ele>
        <time>2018-03-29T14:48:56Z</time>
      </trkpt>
      <trkpt lat="45.88143" lon="4.66136">
        <ele>349</ele>
        <time>2018-03-29T14:48:57Z</time>
      </trkpt>
      <trkpt lat="45.88151" lon="4.66136">
        <ele>350</ele>
        <time>2018-03-29T14:49:00Z</time>
      </trkpt>
      <trkpt lat="45.88153" lon="4.66135">
        <ele>350</ele>
        <time>2018-03-29T14:49:01Z</time>
      </trkpt>
      <trkpt lat="45.88162" lon="4.66134">
        <ele>350</ele>
        <time>2018-03-29T14:49:02Z</time>
      </trkpt>
      <trkpt lat="45.88165" lon="4.66133">
        <ele>350</ele>
        <time>2018-03-29T14:49:03Z</time>
      </trkpt>
      <trkpt lat="45.88172" lon="4.66132">
        <ele>350</ele>
        <time>2018-03-29T14:49:05Z</time>
      </trkpt>
      <trkpt lat="45.88176" lon="4.66132">
        <ele>350</ele>
        <time>2018-03-29T14:49:06Z</time>
      </trkpt>
      <trkpt lat="45.88184" lon="4.66135">
        <ele>350</ele>
        <time>2018-03-29T14:49:10Z</time>
      </trkpt>
      <trkpt lat="45.88187" lon="4.66135">
        <ele>350</ele>
        <time>2018-03-29T14:49:11Z</time>
      </trkpt>
      <trkpt lat="45.88195" lon="4.66137">
        <ele>350</ele>
        <time>2018-03-29T14:49:14Z</time>
      </trkpt>
      <trkpt lat="45.88197" lon="4.66137">
        <ele>350</ele>
        <time>2018-03-29T14:49:15Z</time>
      </trkpt>
      <trkpt lat="45.88206" lon="4.66137">
        <ele>350</ele>
        <time>2018-03-29T14:49:18Z</time>
      </trkpt>
      <trkpt lat="45.88208" lon="4.66137">
        <ele>350</ele>
        <time>2018-03-29T14:49:19Z</time>
      </trkpt>
      <trkpt lat="45.88215" lon="4.66137">
        <ele>350</ele>
        <time>2018-03-29T14:49:21Z</time>
      </trkpt>
      <trkpt lat="45.88218" lon="4.66137">
        <ele>350</ele>
        <time>2018-03-29T14:49:22Z</time>
      </trkpt>
      <trkpt lat="45.88224" lon="4.66138">
        <ele>350</ele>
        <time>2018-03-29T14:49:24Z</time>
      </trkpt>
      <trkpt lat="45.88227" lon="4.66138">
        <ele>350</ele>
        <time>2018-03-29T14:49:25Z</time>
      </trkpt>
      <trkpt lat="45.88236" lon="4.66138">
        <ele>350</ele>
        <time>2018-03-29T14:49:28Z</time>
      </trkpt>
      <trkpt lat="45.88238" lon="4.66138">
        <ele>350</ele>
        <time>2018-03-29T14:49:29Z</time>
      </trkpt>
      <trkpt lat="45.88247" lon="4.66138">
        <ele>351</ele>
        <time>2018-03-29T14:49:32Z</time>
      </trkpt>
      <trkpt lat="45.8825" lon="4.66138">
        <ele>351</ele>
        <time>2018-03-29T14:49:33Z</time>
      </trkpt>
      <trkpt lat="45.88258" lon="4.66139">
        <ele>352</ele>
        <time>2018-03-29T14:49:36Z</time>
      </trkpt>
      <trkpt lat="45.88261" lon="4.6614">
        <ele>352</ele>
        <time>2018-03-29T14:49:37Z</time>
      </trkpt>
      <trkpt lat="45.88269" lon="4.66141">
        <ele>352</ele>
        <time>2018-03-29T14:49:40Z</time>
      </trkpt>
      <trkpt lat="45.88272" lon="4.66141">
        <ele>352</ele>
        <time>2018-03-29T14:49:41Z</time>
      </trkpt>
      <trkpt lat="45.8828" lon="4.66142">
        <ele>352</ele>
        <time>2018-03-29T14:49:44Z</time>
      </trkpt>
      <trkpt lat="45.88283" lon="4.66142">
        <ele>352</ele>
        <time>2018-03-29T14:49:45Z</time>
      </trkpt>
      <trkpt lat="45.88292" lon="4.66143">
        <ele>353</ele>
        <time>2018-03-29T14:49:48Z</time>
      </trkpt>
      <trkpt lat="45.88295" lon="4.66143">
        <ele>353</ele>
        <time>2018-03-29T14:49:49Z</time>
      </trkpt>
      <trkpt lat="45.88303" lon="4.66144">
        <ele>353</ele>
        <time>2018-03-29T14:49:52Z</time>
      </trkpt>
      <trkpt lat="45.88306" lon="4.66144">
        <ele>353</ele>
        <time>2018-03-29T14:49:53Z</time>
      </trkpt>
      <trkpt lat="45.88314" lon="4.66146">
        <ele>354</ele>
        <time>2018-03-29T14:49:56Z</time>
      </trkpt>
      <trkpt lat="45.88317" lon="4.66146">
        <ele>354</ele>
        <time>2018-03-29T14:49:57Z</time>
      </trkpt>
      <trkpt lat="45.88324" lon="4.66146">
        <ele>355</ele>
        <time>2018-03-29T14:50:00Z</time>
      </trkpt>
      <trkpt lat="45.88327" lon="4.66147">
        <ele>355</ele>
        <time>2018-03-29T14:50:01Z</time>
      </trkpt>
      <trkpt lat="45.88335" lon="4.66146">
        <ele>357</ele>
        <time>2018-03-29T14:50:05Z</time>
      </trkpt>
      <trkpt lat="45.88338" lon="4.66146">
        <ele>357</ele>
        <time>2018-03-29T14:50:06Z</time>
      </trkpt>
      <trkpt lat="45.88344" lon="4.66145">
        <ele>357</ele>
        <time>2018-03-29T14:50:09Z</time>
      </trkpt>
      <trkpt lat="45.88347" lon="4.66146">
        <ele>357</ele>
        <time>2018-03-29T14:50:10Z</time>
      </trkpt>
      <trkpt lat="45.88353" lon="4.66147">
        <ele>357</ele>
        <time>2018-03-29T14:50:13Z</time>
      </trkpt>
      <trkpt lat="45.88356" lon="4.66147">
        <ele>357</ele>
        <time>2018-03-29T14:50:14Z</time>
      </trkpt>
      <trkpt lat="45.88363" lon="4.66149">
        <ele>357</ele>
        <time>2018-03-29T14:50:17Z</time>
      </trkpt>
      <trkpt lat="45.88365" lon="4.66149">
        <ele>357</ele>
        <time>2018-03-29T14:50:18Z</time>
      </trkpt>
      <trkpt lat="45.88373" lon="4.6615">
        <ele>357</ele>
        <time>2018-03-29T14:50:22Z</time>
      </trkpt>
      <trkpt lat="45.88375" lon="4.6615">
        <ele>357</ele>
        <time>2018-03-29T14:50:23Z</time>
      </trkpt>
      <trkpt lat="45.88383" lon="4.6615">
        <ele>358</ele>
        <time>2018-03-29T14:50:27Z</time>
      </trkpt>
      <trkpt lat="45.88385" lon="4.6615">
        <ele>358</ele>
        <time>2018-03-29T14:50:28Z</time>
      </trkpt>
      <trkpt lat="45.88392" lon="4.6615">
        <ele>358</ele>
        <time>2018-03-29T14:50:32Z</time>
      </trkpt>
      <trkpt lat="45.88394" lon="4.66151">
        <ele>358</ele>
        <time>2018-03-29T14:50:33Z</time>
      </trkpt>
      <trkpt lat="45.88401" lon="4.66151">
        <ele>359</ele>
        <time>2018-03-29T14:50:37Z</time>
      </trkpt>
      <trkpt lat="45.88403" lon="4.66151">
        <ele>359</ele>
        <time>2018-03-29T14:50:38Z</time>
      </trkpt>
      <trkpt lat="45.88411" lon="4.66151">
        <ele>360</ele>
        <time>2018-03-29T14:50:43Z</time>
      </trkpt>
      <trkpt lat="45.88413" lon="4.66151">
        <ele>360</ele>
        <time>2018-03-29T14:50:44Z</time>
      </trkpt>
      <trkpt lat="45.88421" lon="4.66152">
        <ele>362</ele>
        <time>2018-03-29T14:50:49Z</time>
      </trkpt>
      <trkpt lat="45.88422" lon="4.66152">
        <ele>362</ele>
        <time>2018-03-29T14:50:50Z</time>
      </trkpt>
      <trkpt lat="45.88431" lon="4.66154">
        <ele>362</ele>
        <time>2018-03-29T14:50:56Z</time>
      </trkpt>
      <trkpt lat="45.88433" lon="4.66154">
        <ele>362</ele>
        <time>2018-03-29T14:50:57Z</time>
      </trkpt>
      <trkpt lat="45.88441" lon="4.66155">
        <ele>361</ele>
        <time>2018-03-29T14:51:02Z</time>
      </trkpt>
      <trkpt lat="45.88442" lon="4.66155">
        <ele>361</ele>
        <time>2018-03-29T14:51:03Z</time>
      </trkpt>
      <trkpt lat="45.88451" lon="4.66155">
        <ele>361</ele>
        <time>2018-03-29T14:51:08Z</time>
      </trkpt>
      <trkpt lat="45.88452" lon="4.66155">
        <ele>361</ele>
        <time>2018-03-29T14:51:09Z</time>
      </trkpt>
      <trkpt lat="45.88461" lon="4.66155">
        <ele>362</ele>
        <time>2018-03-29T14:51:14Z</time>
      </trkpt>
      <trkpt lat="45.88463" lon="4.66155">
        <ele>362</ele>
        <time>2018-03-29T14:51:15Z</time>
      </trkpt>
      <trkpt lat="45.88472" lon="4.66157">
        <ele>362</ele>
        <time>2018-03-29T14:51:20Z</time>
      </trkpt>
      <trkpt lat="45.88474" lon="4.66158">
        <ele>362</ele>
        <time>2018-03-29T14:51:21Z</time>
      </trkpt>
      <trkpt lat="45.88481" lon="4.66163">
        <ele>363</ele>
        <time>2018-03-29T14:51:27Z</time>
      </trkpt>
      <trkpt lat="45.88482" lon="4.66163">
        <ele>364</ele>
        <time>2018-03-29T14:51:28Z</time>
      </trkpt>
      <trkpt lat="45.8849" lon="4.66169">
        <ele>369</ele>
        <time>2018-03-29T14:51:34Z</time>
      </trkpt>
      <trkpt lat="45.88491" lon="4.6617">
        <ele>368</ele>
        <time>2018-03-29T14:51:35Z</time>
      </trkpt>
      <trkpt lat="45.88499" lon="4.66175">
        <ele>368</ele>
        <time>2018-03-29T14:51:41Z</time>
      </trkpt>
      <trkpt lat="45.88501" lon="4.66176">
        <ele>368</ele>
        <time>2018-03-29T14:51:42Z</time>
      </trkpt>
      <trkpt lat="45.88507" lon="4.66181">
        <ele>369</ele>
        <time>2018-03-29T14:51:47Z</time>
      </trkpt>
      <trkpt lat="45.88508" lon="4.66182">
        <ele>369</ele>
        <time>2018-03-29T14:51:48Z</time>
      </trkpt>
      <trkpt lat="45.88515" lon="4.66189">
        <ele>369</ele>
        <time>2018-03-29T14:51:53Z</time>
      </trkpt>
      <trkpt lat="45.88516" lon="4.6619">
        <ele>369</ele>
        <time>2018-03-29T14:51:54Z</time>
      </trkpt>
      <trkpt lat="45.88522" lon="4.66196">
        <ele>370</ele>
        <time>2018-03-29T14:51:59Z</time>
      </trkpt>
      <trkpt lat="45.88524" lon="4.66197">
        <ele>370</ele>
        <time>2018-03-29T14:52:00Z</time>
      </trkpt>
      <trkpt lat="45.88532" lon="4.66202">
        <ele>370</ele>
        <time>2018-03-29T14:52:06Z</time>
      </trkpt>
      <trkpt lat="45.88533" lon="4.66202">
        <ele>370</ele>
        <time>2018-03-29T14:52:07Z</time>
      </trkpt>
      <trkpt lat="45.8854" lon="4.66208">
        <ele>370</ele>
        <time>2018-03-29T14:52:12Z</time>
      </trkpt>
      <trkpt lat="45.88542" lon="4.66209">
        <ele>370</ele>
        <time>2018-03-29T14:52:13Z</time>
      </trkpt>
      <trkpt lat="45.88549" lon="4.66217">
        <ele>370</ele>
        <time>2018-03-29T14:52:18Z</time>
      </trkpt>
      <trkpt lat="45.8855" lon="4.66218">
        <ele>370</ele>
        <time>2018-03-29T14:52:19Z</time>
      </trkpt>
      <trkpt lat="45.88556" lon="4.66223">
        <ele>370</ele>
        <time>2018-03-29T14:52:23Z</time>
      </trkpt>
      <trkpt lat="45.88558" lon="4.66225">
        <ele>370</ele>
        <time>2018-03-29T14:52:24Z</time>
      </trkpt>
      <trkpt lat="45.88564" lon="4.66232">
        <ele>370</ele>
        <time>2018-03-29T14:52:28Z</time>
      </trkpt>
      <trkpt lat="45.88565" lon="4.66234">
        <ele>371</ele>
        <time>2018-03-29T14:52:29Z</time>
      </trkpt>
      <trkpt lat="45.88572" lon="4.66241">
        <ele>371</ele>
        <time>2018-03-29T14:52:33Z</time>
      </trkpt>
      <trkpt lat="45.88573" lon="4.66244">
        <ele>371</ele>
        <time>2018-03-29T14:52:34Z</time>
      </trkpt>
      <trkpt lat="45.88578" lon="4.66251">
        <ele>373</ele>
        <time>2018-03-29T14:52:37Z</time>
      </trkpt>
      <trkpt lat="45.8858" lon="4.66253">
        <ele>373</ele>
        <time>2018-03-29T14:52:38Z</time>
      </trkpt>
      <trkpt lat="45.88585" lon="4.66261">
        <ele>371</ele>
        <time>2018-03-29T14:52:41Z</time>
      </trkpt>
      <trkpt lat="45.88586" lon="4.66263">
        <ele>372</ele>
        <time>2018-03-29T14:52:42Z</time>
      </trkpt>
      <trkpt lat="45.88591" lon="4.6627">
        <ele>372</ele>
        <time>2018-03-29T14:52:45Z</time>
      </trkpt>
      <trkpt lat="45.88593" lon="4.66272">
        <ele>372</ele>
        <time>2018-03-29T14:52:46Z</time>
      </trkpt>
      <trkpt lat="45.88597" lon="4.6628">
        <ele>372</ele>
        <time>2018-03-29T14:52:49Z</time>
      </trkpt>
      <trkpt lat="45.88599" lon="4.66283">
        <ele>373</ele>
        <time>2018-03-29T14:52:50Z</time>
      </trkpt>
      <trkpt lat="45.88603" lon="4.66292">
        <ele>373</ele>
        <time>2018-03-29T14:52:53Z</time>
      </trkpt>
      <trkpt lat="45.88605" lon="4.66295">
        <ele>373</ele>
        <time>2018-03-29T14:52:54Z</time>
      </trkpt>
      <trkpt lat="45.88609" lon="4.66303">
        <ele>374</ele>
        <time>2018-03-29T14:52:57Z</time>
      </trkpt>
      <trkpt lat="45.88611" lon="4.66305">
        <ele>374</ele>
        <time>2018-03-29T14:52:58Z</time>
      </trkpt>
      <trkpt lat="45.88616" lon="4.66314">
        <ele>374</ele>
        <time>2018-03-29T14:53:01Z</time>
      </trkpt>
      <trkpt lat="45.88617" lon="4.66316">
        <ele>374</ele>
        <time>2018-03-29T14:53:02Z</time>
      </trkpt>
      <trkpt lat="45.88622" lon="4.66325">
        <ele>374</ele>
        <time>2018-03-29T14:53:05Z</time>
      </trkpt>
      <trkpt lat="45.88623" lon="4.66328">
        <ele>374</ele>
        <time>2018-03-29T14:53:06Z</time>
      </trkpt>
      <trkpt lat="45.88628" lon="4.66336">
        <ele>380</ele>
        <time>2018-03-29T14:53:09Z</time>
      </trkpt>
      <trkpt lat="45.88629" lon="4.66338">
        <ele>380</ele>
        <time>2018-03-29T14:53:10Z</time>
      </trkpt>
      <trkpt lat="45.88634" lon="4.66346">
        <ele>380</ele>
        <time>2018-03-29T14:53:13Z</time>
      </trkpt>
      <trkpt lat="45.88635" lon="4.66349">
        <ele>380</ele>
        <time>2018-03-29T14:53:14Z</time>
      </trkpt>
      <trkpt lat="45.8864" lon="4.66357">
        <ele>380</ele>
        <time>2018-03-29T14:53:17Z</time>
      </trkpt>
      <trkpt lat="45.88642" lon="4.6636">
        <ele>380</ele>
        <time>2018-03-29T14:53:18Z</time>
      </trkpt>
      <trkpt lat="45.88647" lon="4.66368">
        <ele>380</ele>
        <time>2018-03-29T14:53:21Z</time>
      </trkpt>
      <trkpt lat="45.88649" lon="4.6637">
        <ele>381</ele>
        <time>2018-03-29T14:53:22Z</time>
      </trkpt>
      <trkpt lat="45.88654" lon="4.66378">
        <ele>381</ele>
        <time>2018-03-29T14:53:25Z</time>
      </trkpt>
      <trkpt lat="45.88656" lon="4.6638">
        <ele>381</ele>
        <time>2018-03-29T14:53:26Z</time>
      </trkpt>
      <trkpt lat="45.88661" lon="4.66387">
        <ele>382</ele>
        <time>2018-03-29T14:53:29Z</time>
      </trkpt>
      <trkpt lat="45.88663" lon="4.66389">
        <ele>382</ele>
        <time>2018-03-29T14:53:30Z</time>
      </trkpt>
      <trkpt lat="45.88669" lon="4.66395">
        <ele>379</ele>
        <time>2018-03-29T14:53:33Z</time>
      </trkpt>
      <trkpt lat="45.88671" lon="4.66397">
        <ele>379</ele>
        <time>2018-03-29T14:53:34Z</time>
      </trkpt>
      <trkpt lat="45.88677" lon="4.66402">
        <ele>379</ele>
        <time>2018-03-29T14:53:37Z</time>
      </trkpt>
      <trkpt lat="45.88679" lon="4.66404">
        <ele>379</ele>
        <time>2018-03-29T14:53:38Z</time>
      </trkpt>
      <trkpt lat="45.88685" lon="4.6641">
        <ele>379</ele>
        <time>2018-03-29T14:53:41Z</time>
      </trkpt>
      <trkpt lat="45.88687" lon="4.66411">
        <ele>379</ele>
        <time>2018-03-29T14:53:42Z</time>
      </trkpt>
      <trkpt lat="45.88694" lon="4.66416">
        <ele>378</ele>
        <time>2018-03-29T14:53:45Z</time>
      </trkpt>
      <trkpt lat="45.88696" lon="4.66418">
        <ele>384</ele>
        <time>2018-03-29T14:53:46Z</time>
      </trkpt>
      <trkpt lat="45.88702" lon="4.66423">
        <ele>383</ele>
        <time>2018-03-29T14:53:49Z</time>
      </trkpt>
      <trkpt lat="45.88704" lon="4.66425">
        <ele>383</ele>
        <time>2018-03-29T14:53:50Z</time>
      </trkpt>
      <trkpt lat="45.88709" lon="4.66431">
        <ele>383</ele>
        <time>2018-03-29T14:53:53Z</time>
      </trkpt>
      <trkpt lat="45.88711" lon="4.66433">
        <ele>383</ele>
        <time>2018-03-29T14:53:54Z</time>
      </trkpt>
      <trkpt lat="45.88717" lon="4.6644">
        <ele>384</ele>
        <time>2018-03-29T14:53:58Z</time>
      </trkpt>
      <trkpt lat="45.88719" lon="4.66442">
        <ele>384</ele>
        <time>2018-03-29T14:53:59Z</time>
      </trkpt>
      <trkpt lat="45.88725" lon="4.66448">
        <ele>384</ele>
        <time>2018-03-29T14:54:03Z</time>
      </trkpt>
      <trkpt lat="45.88727" lon="4.6645">
        <ele>384</ele>
        <time>2018-03-29T14:54:04Z</time>
      </trkpt>
      <trkpt lat="45.88733" lon="4.66455">
        <ele>384</ele>
        <time>2018-03-29T14:54:08Z</time>
      </trkpt>
      <trkpt lat="45.88735" lon="4.66456">
        <ele>384</ele>
        <time>2018-03-29T14:54:09Z</time>
      </trkpt>
      <trkpt lat="45.8874" lon="4.66463">
        <ele>384</ele>
        <time>2018-03-29T14:54:13Z</time>
      </trkpt>
      <trkpt lat="45.88741" lon="4.66466">
        <ele>385</ele>
        <time>2018-03-29T14:54:14Z</time>
      </trkpt>
      <trkpt lat="45.88747" lon="4.66474">
        <ele>385</ele>
        <time>2018-03-29T14:54:18Z</time>
      </trkpt>
      <trkpt lat="45.88748" lon="4.66476">
        <ele>385</ele>
        <time>2018-03-29T14:54:19Z</time>
      </trkpt>
      <trkpt lat="45.88753" lon="4.66483">
        <ele>384</ele>
        <time>2018-03-29T14:54:23Z</time>
      </trkpt>
      <trkpt lat="45.88754" lon="4.66485">
        <ele>384</ele>
        <time>2018-03-29T14:54:24Z</time>
      </trkpt>
      <trkpt lat="45.8876" lon="4.66493">
        <ele>385</ele>
        <time>2018-03-29T14:54:29Z</time>
      </trkpt>
      <trkpt lat="45.88761" lon="4.66495">
        <ele>385</ele>
        <time>2018-03-29T14:54:30Z</time>
      </trkpt>
      <trkpt lat="45.88768" lon="4.66503">
        <ele>389</ele>
        <time>2018-03-29T14:54:35Z</time>
      </trkpt>
      <trkpt lat="45.88769" lon="4.66504">
        <ele>389</ele>
        <time>2018-03-29T14:54:36Z</time>
      </trkpt>
      <trkpt lat="45.88774" lon="4.66512">
        <ele>390</ele>
        <time>2018-03-29T14:54:40Z</time>
      </trkpt>
      <trkpt lat="45.88776" lon="4.66514">
        <ele>390</ele>
        <time>2018-03-29T14:54:41Z</time>
      </trkpt>
      <trkpt lat="45.88783" lon="4.66522">
        <ele>390</ele>
        <time>2018-03-29T14:54:46Z</time>
      </trkpt>
      <trkpt lat="45.88784" lon="4.66524">
        <ele>391</ele>
        <time>2018-03-29T14:54:47Z</time>
      </trkpt>
      <trkpt lat="45.8879" lon="4.66531">
        <ele>391</ele>
        <time>2018-03-29T14:54:52Z</time>
      </trkpt>
      <trkpt lat="45.88792" lon="4.66533">
        <ele>391</ele>
        <time>2018-03-29T14:54:53Z</time>
      </trkpt>
      <trkpt lat="45.88799" lon="4.66538">
        <ele>391</ele>
        <time>2018-03-29T14:54:58Z</time>
      </trkpt>
      <trkpt lat="45.88801" lon="4.6654">
        <ele>391</ele>
        <time>2018-03-29T14:54:59Z</time>
      </trkpt>
      <trkpt lat="45.88809" lon="4.66545">
        <ele>392</ele>
        <time>2018-03-29T14:55:04Z</time>
      </trkpt>
      <trkpt lat="45.8881" lon="4.66546">
        <ele>392</ele>
        <time>2018-03-29T14:55:05Z</time>
      </trkpt>
      <trkpt lat="45.88818" lon="4.66552">
        <ele>392</ele>
        <time>2018-03-29T14:55:10Z</time>
      </trkpt>
      <trkpt lat="45.88819" lon="4.66553">
        <ele>392</ele>
        <time>2018-03-29T14:55:11Z</time>
      </trkpt>
      <trkpt lat="45.88827" lon="4.66557">
        <ele>393</ele>
        <time>2018-03-29T14:55:16Z</time>
      </trkpt>
      <trkpt lat="45.88829" lon="4.66557">
        <ele>393</ele>
        <time>2018-03-29T14:55:17Z</time>
      </trkpt>
      <trkpt lat="45.88836" lon="4.66562">
        <ele>392</ele>
        <time>2018-03-29T14:55:22Z</time>
      </trkpt>
      <trkpt lat="45.88838" lon="4.66563">
        <ele>392</ele>
        <time>2018-03-29T14:55:23Z</time>
      </trkpt>
      <trkpt lat="45.88845" lon="4.66568">
        <ele>393</ele>
        <time>2018-03-29T14:55:28Z</time>
      </trkpt>
      <trkpt lat="45.88847" lon="4.6657">
        <ele>393</ele>
        <time>2018-03-29T14:55:29Z</time>
      </trkpt>
      <trkpt lat="45.88854" lon="4.66575">
        <ele>392</ele>
        <time>2018-03-29T14:55:34Z</time>
      </trkpt>
      <trkpt lat="45.88855" lon="4.66577">
        <ele>392</ele>
        <time>2018-03-29T14:55:35Z</time>
      </trkpt>
      <trkpt lat="45.88861" lon="4.66582">
        <ele>392</ele>
        <time>2018-03-29T14:55:39Z</time>
      </trkpt>
      <trkpt lat="45.88863" lon="4.66584">
        <ele>399</ele>
        <time>2018-03-29T14:55:40Z</time>
      </trkpt>
      <trkpt lat="45.88868" lon="4.66591">
        <ele>399</ele>
        <time>2018-03-29T14:55:44Z</time>
      </trkpt>
      <trkpt lat="45.88869" lon="4.66593">
        <ele>399</ele>
        <time>2018-03-29T14:55:45Z</time>
      </trkpt>
      <trkpt lat="45.88875" lon="4.66602">
        <ele>400</ele>
        <time>2018-03-29T14:55:50Z</time>
      </trkpt>
      <trkpt lat="45.88876" lon="4.66604">
        <ele>400</ele>
        <time>2018-03-29T14:55:51Z</time>
      </trkpt>
      <trkpt lat="45.88883" lon="4.66612">
        <ele>400</ele>
        <time>2018-03-29T14:55:56Z</time>
      </trkpt>
      <trkpt lat="45.88884" lon="4.66613">
        <ele>400</ele>
        <time>2018-03-29T14:55:57Z</time>
      </trkpt>
      <trkpt lat="45.8889" lon="4.66623">
        <ele>401</ele>
        <time>2018-03-29T14:56:02Z</time>
      </trkpt>
      <trkpt lat="45.88891" lon="4.66625">
        <ele>401</ele>
        <time>2018-03-29T14:56:03Z</time>
      </trkpt>
      <trkpt lat="45.88896" lon="4.66635">
        <ele>402</ele>
        <time>2018-03-29T14:56:08Z</time>
      </trkpt>
      <trkpt lat="45.88897" lon="4.66636">
        <ele>402</ele>
        <time>2018-03-29T14:56:09Z</time>
      </trkpt>
      <trkpt lat="45.88903" lon="4.66645">
        <ele>403</ele>
        <time>2018-03-29T14:56:15Z</time>
      </trkpt>
      <trkpt lat="45.88904" lon="4.66647">
        <ele>403</ele>
        <time>2018-03-29T14:56:16Z</time>
      </trkpt>
      <trkpt lat="45.88909" lon="4.66653">
        <ele>404</ele>
        <time>2018-03-29T14:56:20Z</time>
      </trkpt>
      <trkpt lat="45.88911" lon="4.66655">
        <ele>404</ele>
        <time>2018-03-29T14:56:21Z</time>
      </trkpt>
      <trkpt lat="45.88918" lon="4.66661">
        <ele>405</ele>
        <time>2018-03-29T14:56:25Z</time>
      </trkpt>
      <trkpt lat="45.88919" lon="4.66663">
        <ele>405</ele>
        <time>2018-03-29T14:56:26Z</time>
      </trkpt>
      <trkpt lat="45.88927" lon="4.66669">
        <ele>407</ele>
        <time>2018-03-29T14:56:31Z</time>
      </trkpt>
      <trkpt lat="45.88928" lon="4.66671">
        <ele>407</ele>
        <time>2018-03-29T14:56:32Z</time>
      </trkpt>
      <trkpt lat="45.88934" lon="4.66676">
        <ele>408</ele>
        <time>2018-03-29T14:56:36Z</time>
      </trkpt>
      <trkpt lat="45.88936" lon="4.66678">
        <ele>408</ele>
        <time>2018-03-29T14:56:37Z</time>
      </trkpt>
      <trkpt lat="45.88942" lon="4.66683">
        <ele>408</ele>
        <time>2018-03-29T14:56:41Z</time>
      </trkpt>
      <trkpt lat="45.88944" lon="4.66684">
        <ele>408</ele>
        <time>2018-03-29T14:56:42Z</time>
      </trkpt>
      <trkpt lat="45.8895" lon="4.66689">
        <ele>409</ele>
        <time>2018-03-29T14:56:46Z</time>
      </trkpt>
      <trkpt lat="45.88951" lon="4.6669">
        <ele>409</ele>
        <time>2018-03-29T14:56:47Z</time>
      </trkpt>
      <trkpt lat="45.88958" lon="4.66696">
        <ele>409</ele>
        <time>2018-03-29T14:56:51Z</time>
      </trkpt>
      <trkpt lat="45.8896" lon="4.66697">
        <ele>409</ele>
        <time>2018-03-29T14:56:52Z</time>
      </trkpt>
      <trkpt lat="45.88967" lon="4.66701">
        <ele>409</ele>
        <time>2018-03-29T14:56:56Z</time>
      </trkpt>
      <trkpt lat="45.88969" lon="4.66702">
        <ele>409</ele>
        <time>2018-03-29T14:56:57Z</time>
      </trkpt>
      <trkpt lat="45.88977" lon="4.66707">
        <ele>409</ele>
        <time>2018-03-29T14:57:01Z</time>
      </trkpt>
      <trkpt lat="45.88979" lon="4.66708">
        <ele>409</ele>
        <time>2018-03-29T14:57:02Z</time>
      </trkpt>
      <trkpt lat="45.88988" lon="4.6671">
        <ele>410</ele>
        <time>2018-03-29T14:57:06Z</time>
      </trkpt>
      <trkpt lat="45.8899" lon="4.66711">
        <ele>410</ele>
        <time>2018-03-29T14:57:07Z</time>
      </trkpt>
      <trkpt lat="45.88997" lon="4.66713">
        <ele>410</ele>
        <time>2018-03-29T14:57:10Z</time>
      </trkpt>
      <trkpt lat="45.89" lon="4.66714">
        <ele>410</ele>
        <time>2018-03-29T14:57:11Z</time>
      </trkpt>
      <trkpt lat="45.89008" lon="4.66717">
        <ele>407</ele>
        <time>2018-03-29T14:57:15Z</time>
      </trkpt>
      <trkpt lat="45.8901" lon="4.66717">
        <ele>407</ele>
        <time>2018-03-29T14:57:16Z</time>
      </trkpt>
      <trkpt lat="45.89017" lon="4.66721">
        <ele>408</ele>
        <time>2018-03-29T14:57:19Z</time>
      </trkpt>
      <trkpt lat="45.89019" lon="4.66722">
        <ele>408</ele>
        <time>2018-03-29T14:57:20Z</time>
      </trkpt>
      <trkpt lat="45.89027" lon="4.66723">
        <ele>407</ele>
        <time>2018-03-29T14:57:24Z</time>
      </trkpt>
      <trkpt lat="45.89029" lon="4.66722">
        <ele>407</ele>
        <time>2018-03-29T14:57:25Z</time>
      </trkpt>
      <trkpt lat="45.89037" lon="4.66722">
        <ele>407</ele>
        <time>2018-03-29T14:57:28Z</time>
      </trkpt>
      <trkpt lat="45.89039" lon="4.66723">
        <ele>407</ele>
        <time>2018-03-29T14:57:29Z</time>
      </trkpt>
      <trkpt lat="45.89046" lon="4.66729">
        <ele>407</ele>
        <time>2018-03-29T14:57:32Z</time>
      </trkpt>
      <trkpt lat="45.89048" lon="4.66731">
        <ele>407</ele>
        <time>2018-03-29T14:57:33Z</time>
      </trkpt>
      <trkpt lat="45.89055" lon="4.66737">
        <ele>407</ele>
        <time>2018-03-29T14:57:36Z</time>
      </trkpt>
      <trkpt lat="45.89062" lon="4.66745">
        <ele>407</ele>
        <time>2018-03-29T14:57:37Z</time>
      </trkpt>
      <trkpt lat="45.89067" lon="4.66754">
        <ele>411</ele>
        <time>2018-03-29T14:57:42Z</time>
      </trkpt>
      <trkpt lat="45.89069" lon="4.66756">
        <ele>411</ele>
        <time>2018-03-29T14:57:43Z</time>
      </trkpt>
      <trkpt lat="45.89075" lon="4.66765">
        <ele>412</ele>
        <time>2018-03-29T14:57:47Z</time>
      </trkpt>
      <trkpt lat="45.89076" lon="4.66767">
        <ele>412</ele>
        <time>2018-03-29T14:57:48Z</time>
      </trkpt>
      <trkpt lat="45.89083" lon="4.66774">
        <ele>412</ele>
        <time>2018-03-29T14:57:52Z</time>
      </trkpt>
      <trkpt lat="45.89085" lon="4.66775">
        <ele>410</ele>
        <time>2018-03-29T14:57:53Z</time>
      </trkpt>
      <trkpt lat="45.89091" lon="4.66779">
        <ele>410</ele>
        <time>2018-03-29T14:57:56Z</time>
      </trkpt>
      <trkpt lat="45.89093" lon="4.66781">
        <ele>410</ele>
        <time>2018-03-29T14:57:57Z</time>
      </trkpt>
      <trkpt lat="45.89099" lon="4.66788">
        <ele>410</ele>
        <time>2018-03-29T14:58:00Z</time>
      </trkpt>
      <trkpt lat="45.89101" lon="4.6679">
        <ele>410</ele>
        <time>2018-03-29T14:58:01Z</time>
      </trkpt>
      <trkpt lat="45.89107" lon="4.66797">
        <ele>410</ele>
        <time>2018-03-29T14:58:04Z</time>
      </trkpt>
      <trkpt lat="45.89109" lon="4.66799">
        <ele>411</ele>
        <time>2018-03-29T14:58:05Z</time>
      </trkpt>
      <trkpt lat="45.89117" lon="4.66804">
        <ele>411</ele>
        <time>2018-03-29T14:58:09Z</time>
      </trkpt>
      <trkpt lat="45.89119" lon="4.66806">
        <ele>411</ele>
        <time>2018-03-29T14:58:10Z</time>
      </trkpt>
      <trkpt lat="45.89125" lon="4.66811">
        <ele>411</ele>
        <time>2018-03-29T14:58:13Z</time>
      </trkpt>
      <trkpt lat="45.89126" lon="4.66813">
        <ele>411</ele>
        <time>2018-03-29T14:58:14Z</time>
      </trkpt>
      <trkpt lat="45.89126" lon="4.66826">
        <ele>411</ele>
        <time>2018-03-29T14:58:31Z</time>
      </trkpt>
      <trkpt lat="45.89126" lon="4.66826">
        <ele>411</ele>
        <time>2018-03-29T14:58:32Z</time>
      </trkpt>
      <trkpt lat="45.89126" lon="4.66826">
        <ele>411</ele>
        <time>2018-03-29T14:58:33Z</time>
      </trkpt>
      <trkpt lat="45.89125" lon="4.66835">
        <ele>414</ele>
        <time>2018-03-29T15:04:50Z</time>
      </trkpt>
      <trkpt lat="45.89125" lon="4.66835">
        <ele>414</ele>
        <time>2018-03-29T15:04:51Z</time>
      </trkpt>
      <trkpt lat="45.89127" lon="4.66838">
        <ele>414</ele>
        <time>2018-03-29T15:05:04Z</time>
      </trkpt>
      <trkpt lat="45.89127" lon="4.66837">
        <ele>414</ele>
        <time>2018-03-29T15:05:05Z</time>
      </trkpt>
      <trkpt lat="45.8913" lon="4.66828">
        <ele>411</ele>
        <time>2018-03-29T15:10:48Z</time>
      </trkpt>
      <trkpt lat="45.89132" lon="4.66825">
        <ele>411</ele>
        <time>2018-03-29T15:10:49Z</time>
      </trkpt>
      <trkpt lat="45.8914" lon="4.66818">
        <ele>411</ele>
        <time>2018-03-29T15:10:51Z</time>
      </trkpt>
      <trkpt lat="45.89142" lon="4.66819">
        <ele>411</ele>
        <time>2018-03-29T15:10:52Z</time>
      </trkpt>
      <trkpt lat="45.89147" lon="4.66823">
        <ele>411</ele>
        <time>2018-03-29T15:10:54Z</time>
      </trkpt>
      <trkpt lat="45.89153" lon="4.66828">
        <ele>412</ele>
        <time>2018-03-29T15:10:55Z</time>
      </trkpt>
      <trkpt lat="45.89155" lon="4.6684">
        <ele>414</ele>
        <time>2018-03-29T15:11:00Z</time>
      </trkpt>
      <trkpt lat="45.89155" lon="4.66843">
        <ele>414</ele>
        <time>2018-03-29T15:11:01Z</time>
      </trkpt>
      <trkpt lat="45.89153" lon="4.66853">
        <ele>414</ele>
        <time>2018-03-29T15:11:04Z</time>
      </trkpt>
      <trkpt lat="45.89153" lon="4.66856">
        <ele>414</ele>
        <time>2018-03-29T15:11:05Z</time>
      </trkpt>
      <trkpt lat="45.89151" lon="4.66865">
        <ele>414</ele>
        <time>2018-03-29T15:11:07Z</time>
      </trkpt>
      <trkpt lat="45.8915" lon="4.66879">
        <ele>414</ele>
        <time>2018-03-29T15:11:08Z</time>
      </trkpt>
      <trkpt lat="45.89151" lon="4.6689">
        <ele>414</ele>
        <time>2018-03-29T15:11:10Z</time>
      </trkpt>
      <trkpt lat="45.89152" lon="4.66896">
        <ele>414</ele>
        <time>2018-03-29T15:11:11Z</time>
      </trkpt>
      <trkpt lat="45.89155" lon="4.66907">
        <ele>415</ele>
        <time>2018-03-29T15:11:13Z</time>
      </trkpt>
      <trkpt lat="45.89157" lon="4.66912">
        <ele>415</ele>
        <time>2018-03-29T15:11:14Z</time>
      </trkpt>
      <trkpt lat="45.8916" lon="4.66922">
        <ele>414</ele>
        <time>2018-03-29T15:11:17Z</time>
      </trkpt>
      <trkpt lat="45.89161" lon="4.66925">
        <ele>414</ele>
        <time>2018-03-29T15:11:18Z</time>
      </trkpt>
      <trkpt lat="45.89164" lon="4.66935">
        <ele>413</ele>
        <time>2018-03-29T15:11:19Z</time>
      </trkpt>
      <trkpt lat="45.89165" lon="4.6694">
        <ele>413</ele>
        <time>2018-03-29T15:11:20Z</time>
      </trkpt>
      <trkpt lat="45.89168" lon="4.66949">
        <ele>415</ele>
        <time>2018-03-29T15:11:22Z</time>
      </trkpt>
      <trkpt lat="45.89169" lon="4.66954">
        <ele>415</ele>
        <time>2018-03-29T15:11:23Z</time>
      </trkpt>
      <trkpt lat="45.89172" lon="4.66965">
        <ele>415</ele>
        <time>2018-03-29T15:11:26Z</time>
      </trkpt>
      <trkpt lat="45.89173" lon="4.66968">
        <ele>415</ele>
        <time>2018-03-29T15:11:27Z</time>
      </trkpt>
      <trkpt lat="45.89176" lon="4.66978">
        <ele>414</ele>
        <time>2018-03-29T15:11:30Z</time>
      </trkpt>
      <trkpt lat="45.89177" lon="4.66982">
        <ele>414</ele>
        <time>2018-03-29T15:11:31Z</time>
      </trkpt>
      <trkpt lat="45.89179" lon="4.6699">
        <ele>414</ele>
        <time>2018-03-29T15:11:33Z</time>
      </trkpt>
      <trkpt lat="45.89181" lon="4.66995">
        <ele>413</ele>
        <time>2018-03-29T15:11:34Z</time>
      </trkpt>
      <trkpt lat="45.89184" lon="4.67003">
        <ele>412</ele>
        <time>2018-03-29T15:11:36Z</time>
      </trkpt>
      <trkpt lat="45.89185" lon="4.67007">
        <ele>412</ele>
        <time>2018-03-29T15:11:37Z</time>
      </trkpt>
      <trkpt lat="45.89187" lon="4.67012">
        <ele>413</ele>
        <time>2018-03-29T15:11:38Z</time>
      </trkpt>
      <trkpt lat="45.8919" lon="4.67025">
        <ele>413</ele>
        <time>2018-03-29T15:11:39Z</time>
      </trkpt>
      <trkpt lat="45.89193" lon="4.67035">
        <ele>413</ele>
        <time>2018-03-29T15:11:41Z</time>
      </trkpt>
      <trkpt lat="45.89194" lon="4.67038">
        <ele>413</ele>
        <time>2018-03-29T15:11:42Z</time>
      </trkpt>
      <trkpt lat="45.89196" lon="4.67048">
        <ele>412</ele>
        <time>2018-03-29T15:11:44Z</time>
      </trkpt>
      <trkpt lat="45.89199" lon="4.67055">
        <ele>412</ele>
        <time>2018-03-29T15:11:45Z</time>
      </trkpt>
      <trkpt lat="45.89202" lon="4.67065">
        <ele>412</ele>
        <time>2018-03-29T15:11:47Z</time>
      </trkpt>
      <trkpt lat="45.89204" lon="4.6707">
        <ele>412</ele>
        <time>2018-03-29T15:11:48Z</time>
      </trkpt>
      <trkpt lat="45.89207" lon="4.6708">
        <ele>412</ele>
        <time>2018-03-29T15:11:50Z</time>
      </trkpt>
      <trkpt lat="45.89209" lon="4.67086">
        <ele>410</ele>
        <time>2018-03-29T15:11:51Z</time>
      </trkpt>
      <trkpt lat="45.89214" lon="4.67096">
        <ele>410</ele>
        <time>2018-03-29T15:11:53Z</time>
      </trkpt>
      <trkpt lat="45.89216" lon="4.67101">
        <ele>410</ele>
        <time>2018-03-29T15:11:54Z</time>
      </trkpt>
      <trkpt lat="45.89221" lon="4.67111">
        <ele>411</ele>
        <time>2018-03-29T15:11:56Z</time>
      </trkpt>
      <trkpt lat="45.89223" lon="4.67117">
        <ele>411</ele>
        <time>2018-03-29T15:11:57Z</time>
      </trkpt>
      <trkpt lat="45.89226" lon="4.67123">
        <ele>411</ele>
        <time>2018-03-29T15:11:58Z</time>
      </trkpt>
      <trkpt lat="45.89229" lon="4.67129">
        <ele>411</ele>
        <time>2018-03-29T15:11:59Z</time>
      </trkpt>
      <trkpt lat="45.89232" lon="4.67135">
        <ele>411</ele>
        <time>2018-03-29T15:12:00Z</time>
      </trkpt>
      <trkpt lat="45.89235" lon="4.6714">
        <ele>411</ele>
        <time>2018-03-29T15:12:01Z</time>
      </trkpt>
      <trkpt lat="45.89237" lon="4.67146">
        <ele>411</ele>
        <time>2018-03-29T15:12:02Z</time>
      </trkpt>
      <trkpt lat="45.89241" lon="4.67151">
        <ele>411</ele>
        <time>2018-03-29T15:12:03Z</time>
      </trkpt>
      <trkpt lat="45.89244" lon="4.67155">
        <ele>412</ele>
        <time>2018-03-29T15:12:04Z</time>
      </trkpt>
      <trkpt lat="45.89248" lon="4.6716">
        <ele>412</ele>
        <time>2018-03-29T15:12:05Z</time>
      </trkpt>
      <trkpt lat="45.89251" lon="4.67164">
        <ele>413</ele>
        <time>2018-03-29T15:12:06Z</time>
      </trkpt>
      <trkpt lat="45.89255" lon="4.67169">
        <ele>413</ele>
        <time>2018-03-29T15:12:07Z</time>
      </trkpt>
      <trkpt lat="45.89259" lon="4.67173">
        <ele>412</ele>
        <time>2018-03-29T15:12:08Z</time>
      </trkpt>
      <trkpt lat="45.89264" lon="4.67177">
        <ele>412</ele>
        <time>2018-03-29T15:12:09Z</time>
      </trkpt>
      <trkpt lat="45.89269" lon="4.6718">
        <ele>412</ele>
        <time>2018-03-29T15:12:10Z</time>
      </trkpt>
      <trkpt lat="45.89273" lon="4.67184">
        <ele>412</ele>
        <time>2018-03-29T15:12:11Z</time>
      </trkpt>
      <trkpt lat="45.89278" lon="4.67187">
        <ele>412</ele>
        <time>2018-03-29T15:12:12Z</time>
      </trkpt>
      <trkpt lat="45.89284" lon="4.67188">
        <ele>412</ele>
        <time>2018-03-29T15:12:13Z</time>
      </trkpt>
      <trkpt lat="45.89289" lon="4.67191">
        <ele>412</ele>
        <time>2018-03-29T15:12:14Z</time>
      </trkpt>
      <trkpt lat="45.89295" lon="4.67194">
        <ele>412</ele>
        <time>2018-03-29T15:12:15Z</time>
      </trkpt>
      <trkpt lat="45.893" lon="4.67197">
        <ele>412</ele>
        <time>2018-03-29T15:12:16Z</time>
      </trkpt>
      <trkpt lat="45.89305" lon="4.67201">
        <ele>412</ele>
        <time>2018-03-29T15:12:17Z</time>
      </trkpt>
      <trkpt lat="45.8931" lon="4.67204">
        <ele>412</ele>
        <time>2018-03-29T15:12:18Z</time>
      </trkpt>
      <trkpt lat="45.89315" lon="4.67206">
        <ele>412</ele>
        <time>2018-03-29T15:12:19Z</time>
      </trkpt>
      <trkpt lat="45.8932" lon="4.6721">
        <ele>412</ele>
        <time>2018-03-29T15:12:20Z</time>
      </trkpt>
      <trkpt lat="45.89325" lon="4.67212">
        <ele>411</ele>
        <time>2018-03-29T15:12:21Z</time>
      </trkpt>
      <trkpt lat="45.89329" lon="4.67215">
        <ele>411</ele>
        <time>2018-03-29T15:12:22Z</time>
      </trkpt>
      <trkpt lat="45.89333" lon="4.6722">
        <ele>411</ele>
        <time>2018-03-29T15:12:23Z</time>
      </trkpt>
      <trkpt lat="45.89337" lon="4.67222">
        <ele>415</ele>
        <time>2018-03-29T15:12:24Z</time>
      </trkpt>
      <trkpt lat="45.89341" lon="4.67226">
        <ele>414</ele>
        <time>2018-03-29T15:12:25Z</time>
      </trkpt>
      <trkpt lat="45.89347" lon="4.67231">
        <ele>414</ele>
        <time>2018-03-29T15:12:26Z</time>
      </trkpt>
      <trkpt lat="45.89351" lon="4.67235">
        <ele>414</ele>
        <time>2018-03-29T15:12:27Z</time>
      </trkpt>
      <trkpt lat="45.89355" lon="4.6724">
        <ele>414</ele>
        <time>2018-03-29T15:12:28Z</time>
      </trkpt>
      <trkpt lat="45.89358" lon="4.67246">
        <ele>414</ele>
        <time>2018-03-29T15:12:29Z</time>
      </trkpt>
      <trkpt lat="45.89361" lon="4.67252">
        <ele>409</ele>
        <time>2018-03-29T15:12:30Z</time>
      </trkpt>
      <trkpt lat="45.89365" lon="4.67256">
        <ele>409</ele>
        <time>2018-03-29T15:12:31Z</time>
      </trkpt>
      <trkpt lat="45.89368" lon="4.67263">
        <ele>409</ele>
        <time>2018-03-29T15:12:32Z</time>
      </trkpt>
      <trkpt lat="45.89372" lon="4.67269">
        <ele>409</ele>
        <time>2018-03-29T15:12:33Z</time>
      </trkpt>
      <trkpt lat="45.89375" lon="4.67276">
        <ele>408</ele>
        <time>2018-03-29T15:12:34Z</time>
      </trkpt>
      <trkpt lat="45.89379" lon="4.67283">
        <ele>408</ele>
        <time>2018-03-29T15:12:35Z</time>
      </trkpt>
      <trkpt lat="45.89382" lon="4.67289">
        <ele>408</ele>
        <time>2018-03-29T15:12:36Z</time>
      </trkpt>
      <trkpt lat="45.89384" lon="4.67296">
        <ele>408</ele>
        <time>2018-03-29T15:12:37Z</time>
      </trkpt>
      <trkpt lat="45.89389" lon="4.67301">
        <ele>408</ele>
        <time>2018-03-29T15:12:38Z</time>
      </trkpt>
      <trkpt lat="45.89393" lon="4.67307">
        <ele>407</ele>
        <time>2018-03-29T15:12:39Z</time>
      </trkpt>
      <trkpt lat="45.89396" lon="4.67312">
        <ele>407</ele>
        <time>2018-03-29T15:12:40Z</time>
      </trkpt>
      <trkpt lat="45.89401" lon="4.67317">
        <ele>407</ele>
        <time>2018-03-29T15:12:41Z</time>
      </trkpt>
      <trkpt lat="45.89405" lon="4.67323">
        <ele>407</ele>
        <time>2018-03-29T15:12:42Z</time>
      </trkpt>
      <trkpt lat="45.89411" lon="4.67329">
        <ele>407</ele>
        <time>2018-03-29T15:12:43Z</time>
      </trkpt>
      <trkpt lat="45.89415" lon="4.67334">
        <ele>406</ele>
        <time>2018-03-29T15:12:44Z</time>
      </trkpt>
      <trkpt lat="45.8942" lon="4.67339">
        <ele>407</ele>
        <time>2018-03-29T15:12:45Z</time>
      </trkpt>
      <trkpt lat="45.89424" lon="4.67343">
        <ele>407</ele>
        <time>2018-03-29T15:12:46Z</time>
      </trkpt>
      <trkpt lat="45.89429" lon="4.67349">
        <ele>407</ele>
        <time>2018-03-29T15:12:47Z</time>
      </trkpt>
      <trkpt lat="45.89434" lon="4.67355">
        <ele>407</ele>
        <time>2018-03-29T15:12:48Z</time>
      </trkpt>
      <trkpt lat="45.89439" lon="4.67359">
        <ele>407</ele>
        <time>2018-03-29T15:12:49Z</time>
      </trkpt>
      <trkpt lat="45.89443" lon="4.67363">
        <ele>407</ele>
        <time>2018-03-29T15:12:50Z</time>
      </trkpt>
      <trkpt lat="45.89448" lon="4.67368">
        <ele>407</ele>
        <time>2018-03-29T15:12:51Z</time>
      </trkpt>
      <trkpt lat="45.89453" lon="4.67373">
        <ele>407</ele>
        <time>2018-03-29T15:12:52Z</time>
      </trkpt>
      <trkpt lat="45.89459" lon="4.67377">
        <ele>407</ele>
        <time>2018-03-29T15:12:53Z</time>
      </trkpt>
      <trkpt lat="45.89465" lon="4.67382">
        <ele>407</ele>
        <time>2018-03-29T15:12:54Z</time>
      </trkpt>
      <trkpt lat="45.8947" lon="4.67387">
        <ele>407</ele>
        <time>2018-03-29T15:12:55Z</time>
      </trkpt>
      <trkpt lat="45.89476" lon="4.67391">
        <ele>407</ele>
        <time>2018-03-29T15:12:56Z</time>
      </trkpt>
      <trkpt lat="45.89482" lon="4.67395">
        <ele>406</ele>
        <time>2018-03-29T15:12:57Z</time>
      </trkpt>
      <trkpt lat="45.89489" lon="4.67399">
        <ele>406</ele>
        <time>2018-03-29T15:12:58Z</time>
      </trkpt>
      <trkpt lat="45.89495" lon="4.67404">
        <ele>406</ele>
        <time>2018-03-29T15:12:59Z</time>
      </trkpt>
      <trkpt lat="45.89501" lon="4.67408">
        <ele>407</ele>
        <time>2018-03-29T15:13:00Z</time>
      </trkpt>
      <trkpt lat="45.89508" lon="4.67413">
        <ele>407</ele>
        <time>2018-03-29T15:13:01Z</time>
      </trkpt>
      <trkpt lat="45.89513" lon="4.67417">
        <ele>403</ele>
        <time>2018-03-29T15:13:02Z</time>
      </trkpt>
      <trkpt lat="45.89518" lon="4.67422">
        <ele>402</ele>
        <time>2018-03-29T15:13:03Z</time>
      </trkpt>
      <trkpt lat="45.89525" lon="4.67425">
        <ele>402</ele>
        <time>2018-03-29T15:13:04Z</time>
      </trkpt>
      <trkpt lat="45.89532" lon="4.67428">
        <ele>402</ele>
        <time>2018-03-29T15:13:05Z</time>
      </trkpt>
      <trkpt lat="45.89538" lon="4.6743">
        <ele>402</ele>
        <time>2018-03-29T15:13:06Z</time>
      </trkpt>
      <trkpt lat="45.89545" lon="4.67432">
        <ele>402</ele>
        <time>2018-03-29T15:13:07Z</time>
      </trkpt>
      <trkpt lat="45.89549" lon="4.67437">
        <ele>402</ele>
        <time>2018-03-29T15:13:08Z</time>
      </trkpt>
      <trkpt lat="45.89555" lon="4.67439">
        <ele>402</ele>
        <time>2018-03-29T15:13:09Z</time>
      </trkpt>
      <trkpt lat="45.8956" lon="4.67441">
        <ele>402</ele>
        <time>2018-03-29T15:13:10Z</time>
      </trkpt>
      <trkpt lat="45.89566" lon="4.67442">
        <ele>402</ele>
        <time>2018-03-29T15:13:11Z</time>
      </trkpt>
      <trkpt lat="45.89572" lon="4.67444">
        <ele>402</ele>
        <time>2018-03-29T15:13:12Z</time>
      </trkpt>
      <trkpt lat="45.89578" lon="4.67447">
        <ele>402</ele>
        <time>2018-03-29T15:13:13Z</time>
      </trkpt>
      <trkpt lat="45.89585" lon="4.67449">
        <ele>404</ele>
        <time>2018-03-29T15:13:14Z</time>
      </trkpt>
      <trkpt lat="45.89591" lon="4.6745">
        <ele>404</ele>
        <time>2018-03-29T15:13:15Z</time>
      </trkpt>
      <trkpt lat="45.89598" lon="4.67453">
        <ele>404</ele>
        <time>2018-03-29T15:13:16Z</time>
      </trkpt>
      <trkpt lat="45.89605" lon="4.67455">
        <ele>403</ele>
        <time>2018-03-29T15:13:17Z</time>
      </trkpt>
      <trkpt lat="45.89613" lon="4.67457">
        <ele>403</ele>
        <time>2018-03-29T15:13:18Z</time>
      </trkpt>
      <trkpt lat="45.89619" lon="4.67459">
        <ele>403</ele>
        <time>2018-03-29T15:13:19Z</time>
      </trkpt>
      <trkpt lat="45.89627" lon="4.6746">
        <ele>403</ele>
        <time>2018-03-29T15:13:20Z</time>
      </trkpt>
      <trkpt lat="45.89634" lon="4.67462">
        <ele>403</ele>
        <time>2018-03-29T15:13:21Z</time>
      </trkpt>
      <trkpt lat="45.89641" lon="4.67464">
        <ele>403</ele>
        <time>2018-03-29T15:13:22Z</time>
      </trkpt>
      <trkpt lat="45.89647" lon="4.67466">
        <ele>403</ele>
        <time>2018-03-29T15:13:23Z</time>
      </trkpt>
      <trkpt lat="45.89654" lon="4.67469">
        <ele>403</ele>
        <time>2018-03-29T15:13:24Z</time>
      </trkpt>
      <trkpt lat="45.8966" lon="4.67469">
        <ele>403</ele>
        <time>2018-03-29T15:13:25Z</time>
      </trkpt>
      <trkpt lat="45.89667" lon="4.67472">
        <ele>403</ele>
        <time>2018-03-29T15:13:26Z</time>
      </trkpt>
      <trkpt lat="45.89675" lon="4.67473">
        <ele>403</ele>
        <time>2018-03-29T15:13:27Z</time>
      </trkpt>
      <trkpt lat="45.89681" lon="4.67476">
        <ele>402</ele>
        <time>2018-03-29T15:13:28Z</time>
      </trkpt>
      <trkpt lat="45.89688" lon="4.67479">
        <ele>402</ele>
        <time>2018-03-29T15:13:29Z</time>
      </trkpt>
      <trkpt lat="45.89695" lon="4.6748">
        <ele>402</ele>
        <time>2018-03-29T15:13:30Z</time>
      </trkpt>
      <trkpt lat="45.89703" lon="4.67484">
        <ele>402</ele>
        <time>2018-03-29T15:13:31Z</time>
      </trkpt>
      <trkpt lat="45.8971" lon="4.67486">
        <ele>402</ele>
        <time>2018-03-29T15:13:32Z</time>
      </trkpt>
      <trkpt lat="45.89718" lon="4.67489">
        <ele>402</ele>
        <time>2018-03-29T15:13:33Z</time>
      </trkpt>
      <trkpt lat="45.89724" lon="4.6749">
        <ele>402</ele>
        <time>2018-03-29T15:13:34Z</time>
      </trkpt>
      <trkpt lat="45.8973" lon="4.67492">
        <ele>402</ele>
        <time>2018-03-29T15:13:35Z</time>
      </trkpt>
      <trkpt lat="45.89737" lon="4.67493">
        <ele>401</ele>
        <time>2018-03-29T15:13:36Z</time>
      </trkpt>
      <trkpt lat="45.89744" lon="4.67494">
        <ele>400</ele>
        <time>2018-03-29T15:13:37Z</time>
      </trkpt>
      <trkpt lat="45.89753" lon="4.67492">
        <ele>399</ele>
        <time>2018-03-29T15:13:38Z</time>
      </trkpt>
      <trkpt lat="45.8976" lon="4.67492">
        <ele>399</ele>
        <time>2018-03-29T15:13:39Z</time>
      </trkpt>
      <trkpt lat="45.89767" lon="4.67491">
        <ele>399</ele>
        <time>2018-03-29T15:13:40Z</time>
      </trkpt>
      <trkpt lat="45.89774" lon="4.67491">
        <ele>399</ele>
        <time>2018-03-29T15:13:41Z</time>
      </trkpt>
      <trkpt lat="45.89782" lon="4.6749">
        <ele>399</ele>
        <time>2018-03-29T15:13:42Z</time>
      </trkpt>
      <trkpt lat="45.8979" lon="4.67488">
        <ele>399</ele>
        <time>2018-03-29T15:13:43Z</time>
      </trkpt>
      <trkpt lat="45.89799" lon="4.67486">
        <ele>398</ele>
        <time>2018-03-29T15:13:44Z</time>
      </trkpt>
      <trkpt lat="45.89805" lon="4.67481">
        <ele>398</ele>
        <time>2018-03-29T15:13:45Z</time>
      </trkpt>
      <trkpt lat="45.89811" lon="4.67472">
        <ele>398</ele>
        <time>2018-03-29T15:13:46Z</time>
      </trkpt>
      <trkpt lat="45.89817" lon="4.6746">
        <ele>399</ele>
        <time>2018-03-29T15:13:47Z</time>
      </trkpt>
      <trkpt lat="45.8982" lon="4.67449">
        <ele>399</ele>
        <time>2018-03-29T15:13:48Z</time>
      </trkpt>
      <trkpt lat="45.89821" lon="4.67437">
        <ele>399</ele>
        <time>2018-03-29T15:13:49Z</time>
      </trkpt>
      <trkpt lat="45.89824" lon="4.67426">
        <ele>398</ele>
        <time>2018-03-29T15:13:50Z</time>
      </trkpt>
      <trkpt lat="45.89826" lon="4.67416">
        <ele>399</ele>
        <time>2018-03-29T15:13:51Z</time>
      </trkpt>
      <trkpt lat="45.89828" lon="4.67406">
        <ele>401</ele>
        <time>2018-03-29T15:13:52Z</time>
      </trkpt>
      <trkpt lat="45.89832" lon="4.67396">
        <ele>402</ele>
        <time>2018-03-29T15:13:53Z</time>
      </trkpt>
      <trkpt lat="45.89837" lon="4.67386">
        <ele>398</ele>
        <time>2018-03-29T15:13:54Z</time>
      </trkpt>
      <trkpt lat="45.89842" lon="4.67377">
        <ele>398</ele>
        <time>2018-03-29T15:13:55Z</time>
      </trkpt>
      <trkpt lat="45.89847" lon="4.67369">
        <ele>398</ele>
        <time>2018-03-29T15:13:56Z</time>
      </trkpt>
      <trkpt lat="45.89852" lon="4.67363">
        <ele>399</ele>
        <time>2018-03-29T15:13:57Z</time>
      </trkpt>
      <trkpt lat="45.89859" lon="4.67357">
        <ele>399</ele>
        <time>2018-03-29T15:13:58Z</time>
      </trkpt>
      <trkpt lat="45.89865" lon="4.67352">
        <ele>399</ele>
        <time>2018-03-29T15:13:59Z</time>
      </trkpt>
      <trkpt lat="45.89872" lon="4.67349">
        <ele>399</ele>
        <time>2018-03-29T15:14:00Z</time>
      </trkpt>
      <trkpt lat="45.8988" lon="4.67347">
        <ele>398</ele>
        <time>2018-03-29T15:14:01Z</time>
      </trkpt>
      <trkpt lat="45.89888" lon="4.67347">
        <ele>398</ele>
        <time>2018-03-29T15:14:02Z</time>
      </trkpt>
      <trkpt lat="45.89896" lon="4.67346">
        <ele>398</ele>
        <time>2018-03-29T15:14:03Z</time>
      </trkpt>
      <trkpt lat="45.89903" lon="4.67348">
        <ele>398</ele>
        <time>2018-03-29T15:14:04Z</time>
      </trkpt>
      <trkpt lat="45.89912" lon="4.67351">
        <ele>398</ele>
        <time>2018-03-29T15:14:05Z</time>
      </trkpt>
      <trkpt lat="45.89919" lon="4.67354">
        <ele>397</ele>
        <time>2018-03-29T15:14:06Z</time>
      </trkpt>
      <trkpt lat="45.89927" lon="4.67356">
        <ele>396</ele>
        <time>2018-03-29T15:14:07Z</time>
      </trkpt>
      <trkpt lat="45.89936" lon="4.67356">
        <ele>396</ele>
        <time>2018-03-29T15:14:08Z</time>
      </trkpt>
      <trkpt lat="45.89943" lon="4.67361">
        <ele>395</ele>
        <time>2018-03-29T15:14:09Z</time>
      </trkpt>
      <trkpt lat="45.89952" lon="4.67364">
        <ele>395</ele>
        <time>2018-03-29T15:14:10Z</time>
      </trkpt>
      <trkpt lat="45.8996" lon="4.67367">
        <ele>394</ele>
        <time>2018-03-29T15:14:11Z</time>
      </trkpt>
      <trkpt lat="45.89968" lon="4.67369">
        <ele>394</ele>
        <time>2018-03-29T15:14:12Z</time>
      </trkpt>
      <trkpt lat="45.89977" lon="4.67373">
        <ele>394</ele>
        <time>2018-03-29T15:14:13Z</time>
      </trkpt>
      <trkpt lat="45.89986" lon="4.67378">
        <ele>393</ele>
        <time>2018-03-29T15:14:14Z</time>
      </trkpt>
      <trkpt lat="45.89993" lon="4.67382">
        <ele>393</ele>
        <time>2018-03-29T15:14:15Z</time>
      </trkpt>
      <trkpt lat="45.90003" lon="4.67388">
        <ele>394</ele>
        <time>2018-03-29T15:14:16Z</time>
      </trkpt>
      <trkpt lat="45.9001" lon="4.67394">
        <ele>394</ele>
        <time>2018-03-29T15:14:17Z</time>
      </trkpt>
      <trkpt lat="45.90018" lon="4.67399">
        <ele>394</ele>
        <time>2018-03-29T15:14:18Z</time>
      </trkpt>
      <trkpt lat="45.90024" lon="4.67404">
        <ele>394</ele>
        <time>2018-03-29T15:14:19Z</time>
      </trkpt>
      <trkpt lat="45.90033" lon="4.67411">
        <ele>394</ele>
        <time>2018-03-29T15:14:20Z</time>
      </trkpt>
      <trkpt lat="45.90041" lon="4.67419">
        <ele>385</ele>
        <time>2018-03-29T15:14:21Z</time>
      </trkpt>
      <trkpt lat="45.90048" lon="4.67427">
        <ele>385</ele>
        <time>2018-03-29T15:14:22Z</time>
      </trkpt>
      <trkpt lat="45.90055" lon="4.67436">
        <ele>385</ele>
        <time>2018-03-29T15:14:23Z</time>
      </trkpt>
      <trkpt lat="45.90061" lon="4.67443">
        <ele>385</ele>
        <time>2018-03-29T15:14:24Z</time>
      </trkpt>
      <trkpt lat="45.90068" lon="4.67451">
        <ele>384</ele>
        <time>2018-03-29T15:14:25Z</time>
      </trkpt>
      <trkpt lat="45.90075" lon="4.67459">
        <ele>383</ele>
        <time>2018-03-29T15:14:26Z</time>
      </trkpt>
      <trkpt lat="45.90082" lon="4.67466">
        <ele>382</ele>
        <time>2018-03-29T15:14:27Z</time>
      </trkpt>
      <trkpt lat="45.90089" lon="4.67475">
        <ele>385</ele>
        <time>2018-03-29T15:14:28Z</time>
      </trkpt>
      <trkpt lat="45.90096" lon="4.67483">
        <ele>384</ele>
        <time>2018-03-29T15:14:29Z</time>
      </trkpt>
      <trkpt lat="45.90103" lon="4.67491">
        <ele>384</ele>
        <time>2018-03-29T15:14:30Z</time>
      </trkpt>
      <trkpt lat="45.90109" lon="4.675">
        <ele>385</ele>
        <time>2018-03-29T15:14:31Z</time>
      </trkpt>
      <trkpt lat="45.90114" lon="4.67509">
        <ele>377</ele>
        <time>2018-03-29T15:14:32Z</time>
      </trkpt>
      <trkpt lat="45.9012" lon="4.67517">
        <ele>378</ele>
        <time>2018-03-29T15:14:33Z</time>
      </trkpt>
      <trkpt lat="45.90125" lon="4.67527">
        <ele>377</ele>
        <time>2018-03-29T15:14:34Z</time>
      </trkpt>
      <trkpt lat="45.9013" lon="4.67537">
        <ele>377</ele>
        <time>2018-03-29T15:14:35Z</time>
      </trkpt>
      <trkpt lat="45.90136" lon="4.67544">
        <ele>377</ele>
        <time>2018-03-29T15:14:36Z</time>
      </trkpt>
      <trkpt lat="45.90143" lon="4.67553">
        <ele>377</ele>
        <time>2018-03-29T15:14:37Z</time>
      </trkpt>
      <trkpt lat="45.90149" lon="4.6756">
        <ele>377</ele>
        <time>2018-03-29T15:14:38Z</time>
      </trkpt>
      <trkpt lat="45.90154" lon="4.67569">
        <ele>376</ele>
        <time>2018-03-29T15:14:39Z</time>
      </trkpt>
      <trkpt lat="45.9016" lon="4.67578">
        <ele>376</ele>
        <time>2018-03-29T15:14:40Z</time>
      </trkpt>
      <trkpt lat="45.90166" lon="4.67586">
        <ele>375</ele>
        <time>2018-03-29T15:14:41Z</time>
      </trkpt>
      <trkpt lat="45.90173" lon="4.67593">
        <ele>376</ele>
        <time>2018-03-29T15:14:42Z</time>
      </trkpt>
      <trkpt lat="45.90179" lon="4.67601">
        <ele>376</ele>
        <time>2018-03-29T15:14:43Z</time>
      </trkpt>
      <trkpt lat="45.90186" lon="4.67609">
        <ele>376</ele>
        <time>2018-03-29T15:14:44Z</time>
      </trkpt>
      <trkpt lat="45.90192" lon="4.67616">
        <ele>376</ele>
        <time>2018-03-29T15:14:45Z</time>
      </trkpt>
      <trkpt lat="45.90199" lon="4.67624">
        <ele>376</ele>
        <time>2018-03-29T15:14:46Z</time>
      </trkpt>
      <trkpt lat="45.90206" lon="4.67632">
        <ele>376</ele>
        <time>2018-03-29T15:14:47Z</time>
      </trkpt>
      <trkpt lat="45.90212" lon="4.67639">
        <ele>375</ele>
        <time>2018-03-29T15:14:48Z</time>
      </trkpt>
      <trkpt lat="45.90219" lon="4.67646">
        <ele>375</ele>
        <time>2018-03-29T15:14:49Z</time>
      </trkpt>
      <trkpt lat="45.90225" lon="4.67654">
        <ele>375</ele>
        <time>2018-03-29T15:14:50Z</time>
      </trkpt>
      <trkpt lat="45.90232" lon="4.6766">
        <ele>375</ele>
        <time>2018-03-29T15:14:51Z</time>
      </trkpt>
      <trkpt lat="45.9024" lon="4.67666">
        <ele>375</ele>
        <time>2018-03-29T15:14:52Z</time>
      </trkpt>
      <trkpt lat="45.90247" lon="4.67671">
        <ele>374</ele>
        <time>2018-03-29T15:14:53Z</time>
      </trkpt>
      <trkpt lat="45.90254" lon="4.67674">
        <ele>374</ele>
        <time>2018-03-29T15:14:54Z</time>
      </trkpt>
      <trkpt lat="45.9026" lon="4.67678">
        <ele>374</ele>
        <time>2018-03-29T15:14:55Z</time>
      </trkpt>
      <trkpt lat="45.90267" lon="4.67682">
        <ele>374</ele>
        <time>2018-03-29T15:14:56Z</time>
      </trkpt>
      <trkpt lat="45.90274" lon="4.67685">
        <ele>374</ele>
        <time>2018-03-29T15:14:57Z</time>
      </trkpt>
      <trkpt lat="45.90281" lon="4.67688">
        <ele>374</ele>
        <time>2018-03-29T15:14:58Z</time>
      </trkpt>
      <trkpt lat="45.90288" lon="4.67691">
        <ele>374</ele>
        <time>2018-03-29T15:14:59Z</time>
      </trkpt>
      <trkpt lat="45.90295" lon="4.67694">
        <ele>374</ele>
        <time>2018-03-29T15:15:00Z</time>
      </trkpt>
      <trkpt lat="45.90302" lon="4.67696">
        <ele>374</ele>
        <time>2018-03-29T15:15:01Z</time>
      </trkpt>
      <trkpt lat="45.9031" lon="4.677">
        <ele>374</ele>
        <time>2018-03-29T15:15:02Z</time>
      </trkpt>
      <trkpt lat="45.90317" lon="4.67703">
        <ele>374</ele>
        <time>2018-03-29T15:15:03Z</time>
      </trkpt>
      <trkpt lat="45.90325" lon="4.67705">
        <ele>374</ele>
        <time>2018-03-29T15:15:04Z</time>
      </trkpt>
      <trkpt lat="45.90332" lon="4.67707">
        <ele>374</ele>
        <time>2018-03-29T15:15:05Z</time>
      </trkpt>
      <trkpt lat="45.90339" lon="4.6771">
        <ele>372</ele>
        <time>2018-03-29T15:15:06Z</time>
      </trkpt>
      <trkpt lat="45.90347" lon="4.67712">
        <ele>372</ele>
        <time>2018-03-29T15:15:07Z</time>
      </trkpt>
      <trkpt lat="45.90354" lon="4.67714">
        <ele>371</ele>
        <time>2018-03-29T15:15:08Z</time>
      </trkpt>
      <trkpt lat="45.90362" lon="4.67716">
        <ele>371</ele>
        <time>2018-03-29T15:15:09Z</time>
      </trkpt>
      <trkpt lat="45.90369" lon="4.67719">
        <ele>371</ele>
        <time>2018-03-29T15:15:10Z</time>
      </trkpt>
      <trkpt lat="45.90377" lon="4.67721">
        <ele>370</ele>
        <time>2018-03-29T15:15:11Z</time>
      </trkpt>
      <trkpt lat="45.90385" lon="4.67725">
        <ele>370</ele>
        <time>2018-03-29T15:15:12Z</time>
      </trkpt>
      <trkpt lat="45.90393" lon="4.67727">
        <ele>370</ele>
        <time>2018-03-29T15:15:13Z</time>
      </trkpt>
      <trkpt lat="45.904" lon="4.6773">
        <ele>369</ele>
        <time>2018-03-29T15:15:14Z</time>
      </trkpt>
      <trkpt lat="45.90408" lon="4.67733">
        <ele>368</ele>
        <time>2018-03-29T15:15:15Z</time>
      </trkpt>
      <trkpt lat="45.90414" lon="4.67738">
        <ele>367</ele>
        <time>2018-03-29T15:15:16Z</time>
      </trkpt>
      <trkpt lat="45.90422" lon="4.67743">
        <ele>366</ele>
        <time>2018-03-29T15:15:17Z</time>
      </trkpt>
      <trkpt lat="45.9043" lon="4.67746">
        <ele>366</ele>
        <time>2018-03-29T15:15:18Z</time>
      </trkpt>
      <trkpt lat="45.90438" lon="4.67749">
        <ele>366</ele>
        <time>2018-03-29T15:15:19Z</time>
      </trkpt>
      <trkpt lat="45.90446" lon="4.67751">
        <ele>364</ele>
        <time>2018-03-29T15:15:20Z</time>
      </trkpt>
      <trkpt lat="45.90455" lon="4.67754">
        <ele>364</ele>
        <time>2018-03-29T15:15:21Z</time>
      </trkpt>
      <trkpt lat="45.90462" lon="4.67756">
        <ele>364</ele>
        <time>2018-03-29T15:15:22Z</time>
      </trkpt>
      <trkpt lat="45.9047" lon="4.67758">
        <ele>364</ele>
        <time>2018-03-29T15:15:23Z</time>
      </trkpt>
      <trkpt lat="45.90478" lon="4.67761">
        <ele>364</ele>
        <time>2018-03-29T15:15:24Z</time>
      </trkpt>
      <trkpt lat="45.90486" lon="4.67764">
        <ele>364</ele>
        <time>2018-03-29T15:15:25Z</time>
      </trkpt>
      <trkpt lat="45.90494" lon="4.67767">
        <ele>364</ele>
        <time>2018-03-29T15:15:26Z</time>
      </trkpt>
      <trkpt lat="45.90503" lon="4.67769">
        <ele>364</ele>
        <time>2018-03-29T15:15:27Z</time>
      </trkpt>
      <trkpt lat="45.90511" lon="4.67771">
        <ele>365</ele>
        <time>2018-03-29T15:15:28Z</time>
      </trkpt>
      <trkpt lat="45.90518" lon="4.67774">
        <ele>365</ele>
        <time>2018-03-29T15:15:29Z</time>
      </trkpt>
      <trkpt lat="45.90525" lon="4.67775">
        <ele>365</ele>
        <time>2018-03-29T15:15:30Z</time>
      </trkpt>
      <trkpt lat="45.90532" lon="4.67778">
        <ele>365</ele>
        <time>2018-03-29T15:15:31Z</time>
      </trkpt>
      <trkpt lat="45.9054" lon="4.67781">
        <ele>365</ele>
        <time>2018-03-29T15:15:32Z</time>
      </trkpt>
      <trkpt lat="45.90547" lon="4.67782">
        <ele>365</ele>
        <time>2018-03-29T15:15:33Z</time>
      </trkpt>
      <trkpt lat="45.90554" lon="4.67784">
        <ele>365</ele>
        <time>2018-03-29T15:15:34Z</time>
      </trkpt>
      <trkpt lat="45.90561" lon="4.67785">
        <ele>365</ele>
        <time>2018-03-29T15:15:35Z</time>
      </trkpt>
      <trkpt lat="45.90568" lon="4.67787">
        <ele>365</ele>
        <time>2018-03-29T15:15:36Z</time>
      </trkpt>
      <trkpt lat="45.90574" lon="4.67788">
        <ele>365</ele>
        <time>2018-03-29T15:15:37Z</time>
      </trkpt>
      <trkpt lat="45.90581" lon="4.67789">
        <ele>366</ele>
        <time>2018-03-29T15:15:38Z</time>
      </trkpt>
      <trkpt lat="45.90588" lon="4.6779">
        <ele>367</ele>
        <time>2018-03-29T15:15:39Z</time>
      </trkpt>
      <trkpt lat="45.90594" lon="4.67791">
        <ele>367</ele>
        <time>2018-03-29T15:15:40Z</time>
      </trkpt>
      <trkpt lat="45.90601" lon="4.67791">
        <ele>367</ele>
        <time>2018-03-29T15:15:41Z</time>
      </trkpt>
      <trkpt lat="45.90607" lon="4.67792">
        <ele>367</ele>
        <time>2018-03-29T15:15:42Z</time>
      </trkpt>
      <trkpt lat="45.90612" lon="4.67793">
        <ele>367</ele>
        <time>2018-03-29T15:15:43Z</time>
      </trkpt>
      <trkpt lat="45.90619" lon="4.67794">
        <ele>367</ele>
        <time>2018-03-29T15:15:44Z</time>
      </trkpt>
      <trkpt lat="45.90624" lon="4.67794">
        <ele>367</ele>
        <time>2018-03-29T15:15:45Z</time>
      </trkpt>
      <trkpt lat="45.9063" lon="4.67797">
        <ele>367</ele>
        <time>2018-03-29T15:15:46Z</time>
      </trkpt>
      <trkpt lat="45.90635" lon="4.67797">
        <ele>367</ele>
        <time>2018-03-29T15:15:47Z</time>
      </trkpt>
      <trkpt lat="45.90641" lon="4.67796">
        <ele>367</ele>
        <time>2018-03-29T15:15:48Z</time>
      </trkpt>
      <trkpt lat="45.90646" lon="4.67796">
        <ele>367</ele>
        <time>2018-03-29T15:15:49Z</time>
      </trkpt>
      <trkpt lat="45.9065" lon="4.67796">
        <ele>368</ele>
        <time>2018-03-29T15:15:50Z</time>
      </trkpt>
      <trkpt lat="45.90656" lon="4.67797">
        <ele>368</ele>
        <time>2018-03-29T15:15:51Z</time>
      </trkpt>
      <trkpt lat="45.90661" lon="4.67796">
        <ele>368</ele>
        <time>2018-03-29T15:15:52Z</time>
      </trkpt>
      <trkpt lat="45.90666" lon="4.67796">
        <ele>368</ele>
        <time>2018-03-29T15:15:53Z</time>
      </trkpt>
      <trkpt lat="45.9067" lon="4.67797">
        <ele>368</ele>
        <time>2018-03-29T15:15:54Z</time>
      </trkpt>
      <trkpt lat="45.90675" lon="4.67797">
        <ele>368</ele>
        <time>2018-03-29T15:15:55Z</time>
      </trkpt>
      <trkpt lat="45.90683" lon="4.67798">
        <ele>368</ele>
        <time>2018-03-29T15:15:57Z</time>
      </trkpt>
      <trkpt lat="45.90687" lon="4.67799">
        <ele>368</ele>
        <time>2018-03-29T15:15:58Z</time>
      </trkpt>
      <trkpt lat="45.90695" lon="4.67803">
        <ele>368</ele>
        <time>2018-03-29T15:16:00Z</time>
      </trkpt>
      <trkpt lat="45.907" lon="4.67804">
        <ele>368</ele>
        <time>2018-03-29T15:16:01Z</time>
      </trkpt>
      <trkpt lat="45.90708" lon="4.67808">
        <ele>368</ele>
        <time>2018-03-29T15:16:03Z</time>
      </trkpt>
      <trkpt lat="45.90711" lon="4.6781">
        <ele>368</ele>
        <time>2018-03-29T15:16:04Z</time>
      </trkpt>
      <trkpt lat="45.9072" lon="4.67812">
        <ele>369</ele>
        <time>2018-03-29T15:16:06Z</time>
      </trkpt>
      <trkpt lat="45.90724" lon="4.67814">
        <ele>369</ele>
        <time>2018-03-29T15:16:07Z</time>
      </trkpt>
      <trkpt lat="45.90732" lon="4.67818">
        <ele>369</ele>
        <time>2018-03-29T15:16:09Z</time>
      </trkpt>
      <trkpt lat="45.90736" lon="4.6782">
        <ele>369</ele>
        <time>2018-03-29T15:16:10Z</time>
      </trkpt>
      <trkpt lat="45.90745" lon="4.67823">
        <ele>370</ele>
        <time>2018-03-29T15:16:12Z</time>
      </trkpt>
      <trkpt lat="45.90749" lon="4.67825">
        <ele>370</ele>
        <time>2018-03-29T15:16:13Z</time>
      </trkpt>
      <trkpt lat="45.90757" lon="4.67828">
        <ele>370</ele>
        <time>2018-03-29T15:16:15Z</time>
      </trkpt>
      <trkpt lat="45.90762" lon="4.6783">
        <ele>370</ele>
        <time>2018-03-29T15:16:16Z</time>
      </trkpt>
      <trkpt lat="45.90766" lon="4.67832">
        <ele>369</ele>
        <time>2018-03-29T15:16:17Z</time>
      </trkpt>
      <trkpt lat="45.9077" lon="4.67834">
        <ele>371</ele>
        <time>2018-03-29T15:16:18Z</time>
      </trkpt>
      <trkpt lat="45.90778" lon="4.67838">
        <ele>371</ele>
        <time>2018-03-29T15:16:20Z</time>
      </trkpt>
      <trkpt lat="45.90782" lon="4.6784">
        <ele>371</ele>
        <time>2018-03-29T15:16:21Z</time>
      </trkpt>
      <trkpt lat="45.9079" lon="4.67844">
        <ele>371</ele>
        <time>2018-03-29T15:16:23Z</time>
      </trkpt>
      <trkpt lat="45.90794" lon="4.67845">
        <ele>371</ele>
        <time>2018-03-29T15:16:24Z</time>
      </trkpt>
      <trkpt lat="45.90802" lon="4.67849">
        <ele>371</ele>
        <time>2018-03-29T15:16:26Z</time>
      </trkpt>
      <trkpt lat="45.90806" lon="4.67851">
        <ele>371</ele>
        <time>2018-03-29T15:16:27Z</time>
      </trkpt>
      <trkpt lat="45.90811" lon="4.67852">
        <ele>371</ele>
        <time>2018-03-29T15:16:28Z</time>
      </trkpt>
      <trkpt lat="45.90815" lon="4.67853">
        <ele>371</ele>
        <time>2018-03-29T15:16:29Z</time>
      </trkpt>
      <trkpt lat="45.9082" lon="4.67854">
        <ele>371</ele>
        <time>2018-03-29T15:16:30Z</time>
      </trkpt>
      <trkpt lat="45.90825" lon="4.67855">
        <ele>371</ele>
        <time>2018-03-29T15:16:31Z</time>
      </trkpt>
      <trkpt lat="45.90833" lon="4.67859">
        <ele>371</ele>
        <time>2018-03-29T15:16:33Z</time>
      </trkpt>
      <trkpt lat="45.90838" lon="4.6786">
        <ele>370</ele>
        <time>2018-03-29T15:16:34Z</time>
      </trkpt>
      <trkpt lat="45.90843" lon="4.67861">
        <ele>370</ele>
        <time>2018-03-29T15:16:35Z</time>
      </trkpt>
      <trkpt lat="45.90848" lon="4.67862">
        <ele>370</ele>
        <time>2018-03-29T15:16:36Z</time>
      </trkpt>
      <trkpt lat="45.90853" lon="4.67863">
        <ele>370</ele>
        <time>2018-03-29T15:16:37Z</time>
      </trkpt>
      <trkpt lat="45.90858" lon="4.67865">
        <ele>370</ele>
        <time>2018-03-29T15:16:38Z</time>
      </trkpt>
      <trkpt lat="45.90863" lon="4.67866">
        <ele>370</ele>
        <time>2018-03-29T15:16:39Z</time>
      </trkpt>
      <trkpt lat="45.90868" lon="4.67869">
        <ele>370</ele>
        <time>2018-03-29T15:16:40Z</time>
      </trkpt>
      <trkpt lat="45.90873" lon="4.6787">
        <ele>370</ele>
        <time>2018-03-29T15:16:41Z</time>
      </trkpt>
      <trkpt lat="45.90878" lon="4.67871">
        <ele>370</ele>
        <time>2018-03-29T15:16:42Z</time>
      </trkpt>
      <trkpt lat="45.90882" lon="4.67872">
        <ele>370</ele>
        <time>2018-03-29T15:16:43Z</time>
      </trkpt>
      <trkpt lat="45.90887" lon="4.67874">
        <ele>370</ele>
        <time>2018-03-29T15:16:44Z</time>
      </trkpt>
      <trkpt lat="45.90892" lon="4.67875">
        <ele>370</ele>
        <time>2018-03-29T15:16:45Z</time>
      </trkpt>
      <trkpt lat="45.90896" lon="4.67876">
        <ele>370</ele>
        <time>2018-03-29T15:16:46Z</time>
      </trkpt>
      <trkpt lat="45.90905" lon="4.67878">
        <ele>370</ele>
        <time>2018-03-29T15:16:48Z</time>
      </trkpt>
      <trkpt lat="45.90909" lon="4.6788">
        <ele>370</ele>
        <time>2018-03-29T15:16:49Z</time>
      </trkpt>
      <trkpt lat="45.90914" lon="4.67882">
        <ele>370</ele>
        <time>2018-03-29T15:16:50Z</time>
      </trkpt>
      <trkpt lat="45.90918" lon="4.67883">
        <ele>369</ele>
        <time>2018-03-29T15:16:51Z</time>
      </trkpt>
      <trkpt lat="45.90926" lon="4.67885">
        <ele>370</ele>
        <time>2018-03-29T15:16:53Z</time>
      </trkpt>
      <trkpt lat="45.90931" lon="4.67886">
        <ele>370</ele>
        <time>2018-03-29T15:16:54Z</time>
      </trkpt>
      <trkpt lat="45.90939" lon="4.67891">
        <ele>370</ele>
        <time>2018-03-29T15:16:56Z</time>
      </trkpt>
      <trkpt lat="45.90942" lon="4.67893">
        <ele>370</ele>
        <time>2018-03-29T15:16:57Z</time>
      </trkpt>
      <trkpt lat="45.90947" lon="4.67895">
        <ele>370</ele>
        <time>2018-03-29T15:16:58Z</time>
      </trkpt>
      <trkpt lat="45.90951" lon="4.67898">
        <ele>370</ele>
        <time>2018-03-29T15:16:59Z</time>
      </trkpt>
      <trkpt lat="45.90959" lon="4.67902">
        <ele>370</ele>
        <time>2018-03-29T15:17:01Z</time>
      </trkpt>
      <trkpt lat="45.90964" lon="4.67904">
        <ele>370</ele>
        <time>2018-03-29T15:17:02Z</time>
      </trkpt>
      <trkpt lat="45.90972" lon="4.67908">
        <ele>370</ele>
        <time>2018-03-29T15:17:04Z</time>
      </trkpt>
      <trkpt lat="45.90976" lon="4.67909">
        <ele>370</ele>
        <time>2018-03-29T15:17:05Z</time>
      </trkpt>
      <trkpt lat="45.90984" lon="4.67914">
        <ele>371</ele>
        <time>2018-03-29T15:17:07Z</time>
      </trkpt>
      <trkpt lat="45.90988" lon="4.67916">
        <ele>371</ele>
        <time>2018-03-29T15:17:08Z</time>
      </trkpt>
      <trkpt lat="45.90995" lon="4.67921">
        <ele>372</ele>
        <time>2018-03-29T15:17:10Z</time>
      </trkpt>
      <trkpt lat="45.90998" lon="4.67923">
        <ele>372</ele>
        <time>2018-03-29T15:17:11Z</time>
      </trkpt>
      <trkpt lat="45.91005" lon="4.67928">
        <ele>373</ele>
        <time>2018-03-29T15:17:13Z</time>
      </trkpt>
      <trkpt lat="45.91009" lon="4.6793">
        <ele>373</ele>
        <time>2018-03-29T15:17:14Z</time>
      </trkpt>
      <trkpt lat="45.91016" lon="4.67933">
        <ele>374</ele>
        <time>2018-03-29T15:17:16Z</time>
      </trkpt>
      <trkpt lat="45.9102" lon="4.67935">
        <ele>374</ele>
        <time>2018-03-29T15:17:17Z</time>
      </trkpt>
      <trkpt lat="45.91027" lon="4.67938">
        <ele>374</ele>
        <time>2018-03-29T15:17:19Z</time>
      </trkpt>
      <trkpt lat="45.91031" lon="4.67939">
        <ele>374</ele>
        <time>2018-03-29T15:17:20Z</time>
      </trkpt>
      <trkpt lat="45.91037" lon="4.67942">
        <ele>374</ele>
        <time>2018-03-29T15:17:22Z</time>
      </trkpt>
      <trkpt lat="45.91041" lon="4.67944">
        <ele>374</ele>
        <time>2018-03-29T15:17:23Z</time>
      </trkpt>
      <trkpt lat="45.91048" lon="4.67947">
        <ele>374</ele>
        <time>2018-03-29T15:17:26Z</time>
      </trkpt>
      <trkpt lat="45.9105" lon="4.67947">
        <ele>375</ele>
        <time>2018-03-29T15:17:27Z</time>
      </trkpt>
      <trkpt lat="45.91058" lon="4.67949">
        <ele>375</ele>
        <time>2018-03-29T15:17:28Z</time>
      </trkpt>
      <trkpt lat="45.91062" lon="4.6795">
        <ele>375</ele>
        <time>2018-03-29T15:17:29Z</time>
      </trkpt>
      <trkpt lat="45.9107" lon="4.67952">
        <ele>375</ele>
        <time>2018-03-29T15:17:32Z</time>
      </trkpt>
      <trkpt lat="45.91072" lon="4.67952">
        <ele>375</ele>
        <time>2018-03-29T15:17:33Z</time>
      </trkpt>
      <trkpt lat="45.91079" lon="4.67954">
        <ele>375</ele>
        <time>2018-03-29T15:17:34Z</time>
      </trkpt>
      <trkpt lat="45.91081" lon="4.67955">
        <ele>375</ele>
        <time>2018-03-29T15:17:35Z</time>
      </trkpt>
      <trkpt lat="45.91087" lon="4.67956">
        <ele>376</ele>
        <time>2018-03-29T15:17:36Z</time>
      </trkpt>
      <trkpt lat="45.9109" lon="4.67957">
        <ele>376</ele>
        <time>2018-03-29T15:17:37Z</time>
      </trkpt>
      <trkpt lat="45.91098" lon="4.67959">
        <ele>377</ele>
        <time>2018-03-29T15:17:39Z</time>
      </trkpt>
      <trkpt lat="45.911" lon="4.6796">
        <ele>377</ele>
        <time>2018-03-29T15:17:40Z</time>
      </trkpt>
      <trkpt lat="45.91107" lon="4.67962">
        <ele>377</ele>
        <time>2018-03-29T15:17:42Z</time>
      </trkpt>
      <trkpt lat="45.91109" lon="4.67963">
        <ele>377</ele>
        <time>2018-03-29T15:17:43Z</time>
      </trkpt>
      <trkpt lat="45.91118" lon="4.67965">
        <ele>377</ele>
        <time>2018-03-29T15:17:46Z</time>
      </trkpt>
      <trkpt lat="45.9112" lon="4.67966">
        <ele>377</ele>
        <time>2018-03-29T15:17:47Z</time>
      </trkpt>
      <trkpt lat="45.91129" lon="4.67969">
        <ele>377</ele>
        <time>2018-03-29T15:17:50Z</time>
      </trkpt>
      <trkpt lat="45.91132" lon="4.6797">
        <ele>377</ele>
        <time>2018-03-29T15:17:51Z</time>
      </trkpt>
      <trkpt lat="45.91138" lon="4.67971">
        <ele>377</ele>
        <time>2018-03-29T15:17:53Z</time>
      </trkpt>
      <trkpt lat="45.91141" lon="4.67973">
        <ele>377</ele>
        <time>2018-03-29T15:17:54Z</time>
      </trkpt>
      <trkpt lat="45.91148" lon="4.67976">
        <ele>378</ele>
        <time>2018-03-29T15:17:56Z</time>
      </trkpt>
      <trkpt lat="45.91151" lon="4.67977">
        <ele>378</ele>
        <time>2018-03-29T15:17:57Z</time>
      </trkpt>
      <trkpt lat="45.91154" lon="4.67979">
        <ele>378</ele>
        <time>2018-03-29T15:17:58Z</time>
      </trkpt>
      <trkpt lat="45.91163" lon="4.67983">
        <ele>379</ele>
        <time>2018-03-29T15:17:59Z</time>
      </trkpt>
      <trkpt lat="45.91169" lon="4.67987">
        <ele>380</ele>
        <time>2018-03-29T15:18:02Z</time>
      </trkpt>
      <trkpt lat="45.91172" lon="4.67989">
        <ele>380</ele>
        <time>2018-03-29T15:18:03Z</time>
      </trkpt>
      <trkpt lat="45.91177" lon="4.67992">
        <ele>380</ele>
        <time>2018-03-29T15:18:05Z</time>
      </trkpt>
      <trkpt lat="45.9118" lon="4.67994">
        <ele>380</ele>
        <time>2018-03-29T15:18:06Z</time>
      </trkpt>
      <trkpt lat="45.91185" lon="4.67998">
        <ele>380</ele>
        <time>2018-03-29T15:18:08Z</time>
      </trkpt>
      <trkpt lat="45.91188" lon="4.68">
        <ele>382</ele>
        <time>2018-03-29T15:18:09Z</time>
      </trkpt>
      <trkpt lat="45.91194" lon="4.68004">
        <ele>383</ele>
        <time>2018-03-29T15:18:11Z</time>
      </trkpt>
      <trkpt lat="45.91197" lon="4.68005">
        <ele>383</ele>
        <time>2018-03-29T15:18:12Z</time>
      </trkpt>
      <trkpt lat="45.91203" lon="4.68009">
        <ele>383</ele>
        <time>2018-03-29T15:18:14Z</time>
      </trkpt>
      <trkpt lat="45.91206" lon="4.6801">
        <ele>383</ele>
        <time>2018-03-29T15:18:15Z</time>
      </trkpt>
      <trkpt lat="45.91211" lon="4.68013">
        <ele>383</ele>
        <time>2018-03-29T15:18:17Z</time>
      </trkpt>
      <trkpt lat="45.91215" lon="4.68015">
        <ele>383</ele>
        <time>2018-03-29T15:18:18Z</time>
      </trkpt>
      <trkpt lat="45.9122" lon="4.68018">
        <ele>384</ele>
        <time>2018-03-29T15:18:20Z</time>
      </trkpt>
      <trkpt lat="45.91223" lon="4.68019">
        <ele>384</ele>
        <time>2018-03-29T15:18:21Z</time>
      </trkpt>
      <trkpt lat="45.91229" lon="4.68022">
        <ele>384</ele>
        <time>2018-03-29T15:18:23Z</time>
      </trkpt>
      <trkpt lat="45.91232" lon="4.68024">
        <ele>384</ele>
        <time>2018-03-29T15:18:24Z</time>
      </trkpt>
      <trkpt lat="45.91238" lon="4.68027">
        <ele>384</ele>
        <time>2018-03-29T15:18:26Z</time>
      </trkpt>
      <trkpt lat="45.91241" lon="4.68029">
        <ele>384</ele>
        <time>2018-03-29T15:18:27Z</time>
      </trkpt>
      <trkpt lat="45.91244" lon="4.68031">
        <ele>384</ele>
        <time>2018-03-29T15:18:28Z</time>
      </trkpt>
      <trkpt lat="45.91253" lon="4.68036">
        <ele>385</ele>
        <time>2018-03-29T15:18:29Z</time>
      </trkpt>
      <trkpt lat="45.91259" lon="4.68039">
        <ele>385</ele>
        <time>2018-03-29T15:18:32Z</time>
      </trkpt>
      <trkpt lat="45.91261" lon="4.6804">
        <ele>385</ele>
        <time>2018-03-29T15:18:33Z</time>
      </trkpt>
      <trkpt lat="45.91267" lon="4.68043">
        <ele>385</ele>
        <time>2018-03-29T15:18:35Z</time>
      </trkpt>
      <trkpt lat="45.91276" lon="4.68047">
        <ele>385</ele>
        <time>2018-03-29T15:18:36Z</time>
      </trkpt>
      <trkpt lat="45.91282" lon="4.6805">
        <ele>385</ele>
        <time>2018-03-29T15:18:38Z</time>
      </trkpt>
      <trkpt lat="45.91286" lon="4.68051">
        <ele>385</ele>
        <time>2018-03-29T15:18:39Z</time>
      </trkpt>
      <trkpt lat="45.91293" lon="4.68054">
        <ele>385</ele>
        <time>2018-03-29T15:18:41Z</time>
      </trkpt>
      <trkpt lat="45.91296" lon="4.68055">
        <ele>385</ele>
        <time>2018-03-29T15:18:42Z</time>
      </trkpt>
      <trkpt lat="45.91303" lon="4.68059">
        <ele>385</ele>
        <time>2018-03-29T15:18:44Z</time>
      </trkpt>
      <trkpt lat="45.91306" lon="4.6806">
        <ele>385</ele>
        <time>2018-03-29T15:18:45Z</time>
      </trkpt>
      <trkpt lat="45.91313" lon="4.68063">
        <ele>385</ele>
        <time>2018-03-29T15:18:47Z</time>
      </trkpt>
      <trkpt lat="45.91317" lon="4.68065">
        <ele>385</ele>
        <time>2018-03-29T15:18:48Z</time>
      </trkpt>
      <trkpt lat="45.91325" lon="4.68068">
        <ele>385</ele>
        <time>2018-03-29T15:18:50Z</time>
      </trkpt>
      <trkpt lat="45.91329" lon="4.6807">
        <ele>385</ele>
        <time>2018-03-29T15:18:51Z</time>
      </trkpt>
      <trkpt lat="45.91337" lon="4.68073">
        <ele>385</ele>
        <time>2018-03-29T15:18:53Z</time>
      </trkpt>
      <trkpt lat="45.91341" lon="4.68075">
        <ele>385</ele>
        <time>2018-03-29T15:18:54Z</time>
      </trkpt>
      <trkpt lat="45.91349" lon="4.68078">
        <ele>385</ele>
        <time>2018-03-29T15:18:56Z</time>
      </trkpt>
      <trkpt lat="45.91353" lon="4.6808">
        <ele>385</ele>
        <time>2018-03-29T15:18:57Z</time>
      </trkpt>
      <trkpt lat="45.91361" lon="4.68083">
        <ele>385</ele>
        <time>2018-03-29T15:18:59Z</time>
      </trkpt>
      <trkpt lat="45.91366" lon="4.68085">
        <ele>386</ele>
        <time>2018-03-29T15:19:00Z</time>
      </trkpt>
      <trkpt lat="45.91371" lon="4.68086">
        <ele>386</ele>
        <time>2018-03-29T15:19:01Z</time>
      </trkpt>
      <trkpt lat="45.91376" lon="4.68087">
        <ele>386</ele>
        <time>2018-03-29T15:19:02Z</time>
      </trkpt>
      <trkpt lat="45.91385" lon="4.68088">
        <ele>386</ele>
        <time>2018-03-29T15:19:04Z</time>
      </trkpt>
      <trkpt lat="45.9139" lon="4.68088">
        <ele>386</ele>
        <time>2018-03-29T15:19:05Z</time>
      </trkpt>
      <trkpt lat="45.91397" lon="4.68089">
        <ele>386</ele>
        <time>2018-03-29T15:19:07Z</time>
      </trkpt>
      <trkpt lat="45.91401" lon="4.68088">
        <ele>386</ele>
        <time>2018-03-29T15:19:08Z</time>
      </trkpt>
      <trkpt lat="45.9141" lon="4.68088">
        <ele>386</ele>
        <time>2018-03-29T15:19:10Z</time>
      </trkpt>
      <trkpt lat="45.91415" lon="4.68088">
        <ele>386</ele>
        <time>2018-03-29T15:19:11Z</time>
      </trkpt>
      <trkpt lat="45.91423" lon="4.68088">
        <ele>385</ele>
        <time>2018-03-29T15:19:13Z</time>
      </trkpt>
      <trkpt lat="45.91427" lon="4.68088">
        <ele>385</ele>
        <time>2018-03-29T15:19:14Z</time>
      </trkpt>
      <trkpt lat="45.91432" lon="4.68089">
        <ele>385</ele>
        <time>2018-03-29T15:19:15Z</time>
      </trkpt>
      <trkpt lat="45.91437" lon="4.6809">
        <ele>385</ele>
        <time>2018-03-29T15:19:16Z</time>
      </trkpt>
      <trkpt lat="45.91442" lon="4.68091">
        <ele>385</ele>
        <time>2018-03-29T15:19:17Z</time>
      </trkpt>
      <trkpt lat="45.91446" lon="4.68092">
        <ele>384</ele>
        <time>2018-03-29T15:19:18Z</time>
      </trkpt>
      <trkpt lat="45.91452" lon="4.68094">
        <ele>384</ele>
        <time>2018-03-29T15:19:19Z</time>
      </trkpt>
      <trkpt lat="45.91457" lon="4.68097">
        <ele>384</ele>
        <time>2018-03-29T15:19:20Z</time>
      </trkpt>
      <trkpt lat="45.91462" lon="4.681">
        <ele>384</ele>
        <time>2018-03-29T15:19:21Z</time>
      </trkpt>
      <trkpt lat="45.91468" lon="4.68102">
        <ele>384</ele>
        <time>2018-03-29T15:19:22Z</time>
      </trkpt>
      <trkpt lat="45.91473" lon="4.68107">
        <ele>384</ele>
        <time>2018-03-29T15:19:23Z</time>
      </trkpt>
      <trkpt lat="45.9148" lon="4.68111">
        <ele>383</ele>
        <time>2018-03-29T15:19:24Z</time>
      </trkpt>
      <trkpt lat="45.91486" lon="4.68115">
        <ele>383</ele>
        <time>2018-03-29T15:19:25Z</time>
      </trkpt>
      <trkpt lat="45.91491" lon="4.68119">
        <ele>383</ele>
        <time>2018-03-29T15:19:26Z</time>
      </trkpt>
      <trkpt lat="45.91497" lon="4.68123">
        <ele>383</ele>
        <time>2018-03-29T15:19:27Z</time>
      </trkpt>
      <trkpt lat="45.91503" lon="4.68126">
        <ele>380</ele>
        <time>2018-03-29T15:19:28Z</time>
      </trkpt>
      <trkpt lat="45.9151" lon="4.6813">
        <ele>380</ele>
        <time>2018-03-29T15:19:29Z</time>
      </trkpt>
      <trkpt lat="45.91517" lon="4.68134">
        <ele>380</ele>
        <time>2018-03-29T15:19:30Z</time>
      </trkpt>
      <trkpt lat="45.91523" lon="4.68138">
        <ele>380</ele>
        <time>2018-03-29T15:19:31Z</time>
      </trkpt>
      <trkpt lat="45.9153" lon="4.68142">
        <ele>379</ele>
        <time>2018-03-29T15:19:32Z</time>
      </trkpt>
      <trkpt lat="45.91537" lon="4.68146">
        <ele>379</ele>
        <time>2018-03-29T15:19:33Z</time>
      </trkpt>
      <trkpt lat="45.91545" lon="4.68149">
        <ele>379</ele>
        <time>2018-03-29T15:19:34Z</time>
      </trkpt>
      <trkpt lat="45.91552" lon="4.68154">
        <ele>379</ele>
        <time>2018-03-29T15:19:35Z</time>
      </trkpt>
      <trkpt lat="45.91559" lon="4.68158">
        <ele>379</ele>
        <time>2018-03-29T15:19:36Z</time>
      </trkpt>
      <trkpt lat="45.91567" lon="4.68163">
        <ele>378</ele>
        <time>2018-03-29T15:19:37Z</time>
      </trkpt>
      <trkpt lat="45.91575" lon="4.68167">
        <ele>379</ele>
        <time>2018-03-29T15:19:38Z</time>
      </trkpt>
      <trkpt lat="45.91583" lon="4.68172">
        <ele>378</ele>
        <time>2018-03-29T15:19:39Z</time>
      </trkpt>
      <trkpt lat="45.91591" lon="4.68176">
        <ele>377</ele>
        <time>2018-03-29T15:19:40Z</time>
      </trkpt>
      <trkpt lat="45.91598" lon="4.68182">
        <ele>376</ele>
        <time>2018-03-29T15:19:41Z</time>
      </trkpt>
      <trkpt lat="45.91606" lon="4.68188">
        <ele>376</ele>
        <time>2018-03-29T15:19:42Z</time>
      </trkpt>
      <trkpt lat="45.91614" lon="4.68194">
        <ele>375</ele>
        <time>2018-03-29T15:19:43Z</time>
      </trkpt>
      <trkpt lat="45.91621" lon="4.68201">
        <ele>375</ele>
        <time>2018-03-29T15:19:44Z</time>
      </trkpt>
      <trkpt lat="45.91629" lon="4.68207">
        <ele>375</ele>
        <time>2018-03-29T15:19:45Z</time>
      </trkpt>
      <trkpt lat="45.91639" lon="4.68212">
        <ele>375</ele>
        <time>2018-03-29T15:19:46Z</time>
      </trkpt>
      <trkpt lat="45.91647" lon="4.68215">
        <ele>374</ele>
        <time>2018-03-29T15:19:47Z</time>
      </trkpt>
      <trkpt lat="45.91655" lon="4.6822">
        <ele>374</ele>
        <time>2018-03-29T15:19:48Z</time>
      </trkpt>
      <trkpt lat="45.91666" lon="4.68221">
        <ele>374</ele>
        <time>2018-03-29T15:19:49Z</time>
      </trkpt>
      <trkpt lat="45.91676" lon="4.68229">
        <ele>371</ele>
        <time>2018-03-29T15:19:50Z</time>
      </trkpt>
      <trkpt lat="45.91684" lon="4.68235">
        <ele>371</ele>
        <time>2018-03-29T15:19:51Z</time>
      </trkpt>
      <trkpt lat="45.91692" lon="4.68241">
        <ele>371</ele>
        <time>2018-03-29T15:19:52Z</time>
      </trkpt>
      <trkpt lat="45.91701" lon="4.68247">
        <ele>370</ele>
        <time>2018-03-29T15:19:53Z</time>
      </trkpt>
      <trkpt lat="45.91709" lon="4.68251">
        <ele>373</ele>
        <time>2018-03-29T15:19:54Z</time>
      </trkpt>
      <trkpt lat="45.91718" lon="4.68255">
        <ele>372</ele>
        <time>2018-03-29T15:19:55Z</time>
      </trkpt>
      <trkpt lat="45.91726" lon="4.68258">
        <ele>372</ele>
        <time>2018-03-29T15:19:56Z</time>
      </trkpt>
      <trkpt lat="45.91733" lon="4.68258">
        <ele>372</ele>
        <time>2018-03-29T15:19:57Z</time>
      </trkpt>
      <trkpt lat="45.91741" lon="4.6826">
        <ele>371</ele>
        <time>2018-03-29T15:19:58Z</time>
      </trkpt>
      <trkpt lat="45.91748" lon="4.68262">
        <ele>371</ele>
        <time>2018-03-29T15:19:59Z</time>
      </trkpt>
      <trkpt lat="45.91754" lon="4.68264">
        <ele>371</ele>
        <time>2018-03-29T15:20:00Z</time>
      </trkpt>
      <trkpt lat="45.91761" lon="4.68266">
        <ele>372</ele>
        <time>2018-03-29T15:20:01Z</time>
      </trkpt>
      <trkpt lat="45.91766" lon="4.68268">
        <ele>372</ele>
        <time>2018-03-29T15:20:02Z</time>
      </trkpt>
      <trkpt lat="45.91772" lon="4.6827">
        <ele>372</ele>
        <time>2018-03-29T15:20:03Z</time>
      </trkpt>
      <trkpt lat="45.9178" lon="4.68274">
        <ele>372</ele>
        <time>2018-03-29T15:20:05Z</time>
      </trkpt>
      <trkpt lat="45.91786" lon="4.68275">
        <ele>372</ele>
        <time>2018-03-29T15:20:06Z</time>
      </trkpt>
      <trkpt lat="45.9179" lon="4.68277">
        <ele>372</ele>
        <time>2018-03-29T15:20:07Z</time>
      </trkpt>
      <trkpt lat="45.91795" lon="4.68278">
        <ele>373</ele>
        <time>2018-03-29T15:20:08Z</time>
      </trkpt>
      <trkpt lat="45.91804" lon="4.6828">
        <ele>373</ele>
        <time>2018-03-29T15:20:10Z</time>
      </trkpt>
      <trkpt lat="45.91809" lon="4.6828">
        <ele>373</ele>
        <time>2018-03-29T15:20:11Z</time>
      </trkpt>
      <trkpt lat="45.91817" lon="4.68282">
        <ele>373</ele>
        <time>2018-03-29T15:20:13Z</time>
      </trkpt>
      <trkpt lat="45.9182" lon="4.68281">
        <ele>373</ele>
        <time>2018-03-29T15:20:14Z</time>
      </trkpt>
      <trkpt lat="45.91827" lon="4.68282">
        <ele>373</ele>
        <time>2018-03-29T15:20:16Z</time>
      </trkpt>
      <trkpt lat="45.9183" lon="4.68284">
        <ele>373</ele>
        <time>2018-03-29T15:20:17Z</time>
      </trkpt>
      <trkpt lat="45.91838" lon="4.68286">
        <ele>375</ele>
        <time>2018-03-29T15:20:19Z</time>
      </trkpt>
      <trkpt lat="45.9184" lon="4.68286">
        <ele>375</ele>
        <time>2018-03-29T15:20:20Z</time>
      </trkpt>
      <trkpt lat="45.91847" lon="4.68287">
        <ele>375</ele>
        <time>2018-03-29T15:20:22Z</time>
      </trkpt>
      <trkpt lat="45.91849" lon="4.68288">
        <ele>375</ele>
        <time>2018-03-29T15:20:23Z</time>
      </trkpt>
      <trkpt lat="45.91856" lon="4.68288">
        <ele>375</ele>
        <time>2018-03-29T15:20:24Z</time>
      </trkpt>
      <trkpt lat="45.9186" lon="4.68289">
        <ele>375</ele>
        <time>2018-03-29T15:20:25Z</time>
      </trkpt>
      <trkpt lat="45.91867" lon="4.6829">
        <ele>375</ele>
        <time>2018-03-29T15:20:28Z</time>
      </trkpt>
      <trkpt lat="45.91875" lon="4.68292">
        <ele>376</ele>
        <time>2018-03-29T15:20:29Z</time>
      </trkpt>
      <trkpt lat="45.91879" lon="4.68292">
        <ele>376</ele>
        <time>2018-03-29T15:20:31Z</time>
      </trkpt>
      <trkpt lat="45.91886" lon="4.68292">
        <ele>376</ele>
        <time>2018-03-29T15:20:32Z</time>
      </trkpt>
      <trkpt lat="45.91894" lon="4.68293">
        <ele>376</ele>
        <time>2018-03-29T15:20:35Z</time>
      </trkpt>
      <trkpt lat="45.91896" lon="4.68294">
        <ele>376</ele>
        <time>2018-03-29T15:20:36Z</time>
      </trkpt>
      <trkpt lat="45.91903" lon="4.68295">
        <ele>377</ele>
        <time>2018-03-29T15:20:38Z</time>
      </trkpt>
      <trkpt lat="45.9191" lon="4.68295">
        <ele>377</ele>
        <time>2018-03-29T15:20:39Z</time>
      </trkpt>
      <trkpt lat="45.91917" lon="4.68296">
        <ele>379</ele>
        <time>2018-03-29T15:20:42Z</time>
      </trkpt>
      <trkpt lat="45.9192" lon="4.68297">
        <ele>379</ele>
        <time>2018-03-29T15:20:43Z</time>
      </trkpt>
      <trkpt lat="45.91926" lon="4.68298">
        <ele>379</ele>
        <time>2018-03-29T15:20:45Z</time>
      </trkpt>
      <trkpt lat="45.91929" lon="4.68299">
        <ele>379</ele>
        <time>2018-03-29T15:20:46Z</time>
      </trkpt>
      <trkpt lat="45.91935" lon="4.683">
        <ele>379</ele>
        <time>2018-03-29T15:20:48Z</time>
      </trkpt>
      <trkpt lat="45.91938" lon="4.68301">
        <ele>379</ele>
        <time>2018-03-29T15:20:49Z</time>
      </trkpt>
      <trkpt lat="45.91944" lon="4.68304">
        <ele>379</ele>
        <time>2018-03-29T15:20:51Z</time>
      </trkpt>
      <trkpt lat="45.91947" lon="4.68305">
        <ele>379</ele>
        <time>2018-03-29T15:20:52Z</time>
      </trkpt>
      <trkpt lat="45.91953" lon="4.68307">
        <ele>379</ele>
        <time>2018-03-29T15:20:54Z</time>
      </trkpt>
      <trkpt lat="45.91957" lon="4.68307">
        <ele>380</ele>
        <time>2018-03-29T15:20:55Z</time>
      </trkpt>
      <trkpt lat="45.91964" lon="4.68308">
        <ele>380</ele>
        <time>2018-03-29T15:20:57Z</time>
      </trkpt>
      <trkpt lat="45.91967" lon="4.68308">
        <ele>380</ele>
        <time>2018-03-29T15:20:58Z</time>
      </trkpt>
      <trkpt lat="45.91974" lon="4.6831">
        <ele>380</ele>
        <time>2018-03-29T15:21:00Z</time>
      </trkpt>
      <trkpt lat="45.91977" lon="4.6831">
        <ele>380</ele>
        <time>2018-03-29T15:21:01Z</time>
      </trkpt>
      <trkpt lat="45.91984" lon="4.68312">
        <ele>380</ele>
        <time>2018-03-29T15:21:03Z</time>
      </trkpt>
      <trkpt lat="45.91987" lon="4.68313">
        <ele>380</ele>
        <time>2018-03-29T15:21:04Z</time>
      </trkpt>
      <trkpt lat="45.91994" lon="4.68315">
        <ele>381</ele>
        <time>2018-03-29T15:21:06Z</time>
      </trkpt>
      <trkpt lat="45.91997" lon="4.68316">
        <ele>381</ele>
        <time>2018-03-29T15:21:07Z</time>
      </trkpt>
      <trkpt lat="45.92003" lon="4.68317">
        <ele>381</ele>
        <time>2018-03-29T15:21:09Z</time>
      </trkpt>
      <trkpt lat="45.92013" lon="4.68319">
        <ele>381</ele>
        <time>2018-03-29T15:21:10Z</time>
      </trkpt>
      <trkpt lat="45.9202" lon="4.68318">
        <ele>380</ele>
        <time>2018-03-29T15:21:12Z</time>
      </trkpt>
      <trkpt lat="45.92024" lon="4.68317">
        <ele>380</ele>
        <time>2018-03-29T15:21:13Z</time>
      </trkpt>
      <trkpt lat="45.92032" lon="4.68318">
        <ele>380</ele>
        <time>2018-03-29T15:21:15Z</time>
      </trkpt>
      <trkpt lat="45.92036" lon="4.68319">
        <ele>380</ele>
        <time>2018-03-29T15:21:16Z</time>
      </trkpt>
      <trkpt lat="45.92043" lon="4.68321">
        <ele>380</ele>
        <time>2018-03-29T15:21:18Z</time>
      </trkpt>
      <trkpt lat="45.92047" lon="4.68322">
        <ele>380</ele>
        <time>2018-03-29T15:21:19Z</time>
      </trkpt>
      <trkpt lat="45.92056" lon="4.68323">
        <ele>380</ele>
        <time>2018-03-29T15:21:21Z</time>
      </trkpt>
      <trkpt lat="45.92061" lon="4.68323">
        <ele>380</ele>
        <time>2018-03-29T15:21:22Z</time>
      </trkpt>
      <trkpt lat="45.92069" lon="4.68325">
        <ele>380</ele>
        <time>2018-03-29T15:21:24Z</time>
      </trkpt>
      <trkpt lat="45.92074" lon="4.68327">
        <ele>381</ele>
        <time>2018-03-29T15:21:25Z</time>
      </trkpt>
      <trkpt lat="45.92078" lon="4.68328">
        <ele>381</ele>
        <time>2018-03-29T15:21:26Z</time>
      </trkpt>
      <trkpt lat="45.92083" lon="4.6833">
        <ele>381</ele>
        <time>2018-03-29T15:21:27Z</time>
      </trkpt>
      <trkpt lat="45.92087" lon="4.68331">
        <ele>381</ele>
        <time>2018-03-29T15:21:28Z</time>
      </trkpt>
      <trkpt lat="45.92093" lon="4.68332">
        <ele>380</ele>
        <time>2018-03-29T15:21:29Z</time>
      </trkpt>
      <trkpt lat="45.92101" lon="4.68335">
        <ele>383</ele>
        <time>2018-03-29T15:21:31Z</time>
      </trkpt>
      <trkpt lat="45.92105" lon="4.68337">
        <ele>383</ele>
        <time>2018-03-29T15:21:32Z</time>
      </trkpt>
      <trkpt lat="45.92113" lon="4.68341">
        <ele>383</ele>
        <time>2018-03-29T15:21:34Z</time>
      </trkpt>
      <trkpt lat="45.92118" lon="4.68342">
        <ele>383</ele>
        <time>2018-03-29T15:21:35Z</time>
      </trkpt>
      <trkpt lat="45.92125" lon="4.68348">
        <ele>383</ele>
        <time>2018-03-29T15:21:37Z</time>
      </trkpt>
      <trkpt lat="45.92129" lon="4.68352">
        <ele>383</ele>
        <time>2018-03-29T15:21:38Z</time>
      </trkpt>
      <trkpt lat="45.92137" lon="4.68356">
        <ele>383</ele>
        <time>2018-03-29T15:21:40Z</time>
      </trkpt>
      <trkpt lat="45.92141" lon="4.68359">
        <ele>383</ele>
        <time>2018-03-29T15:21:41Z</time>
      </trkpt>
      <trkpt lat="45.92144" lon="4.68364">
        <ele>383</ele>
        <time>2018-03-29T15:21:42Z</time>
      </trkpt>
      <trkpt lat="45.92149" lon="4.68367">
        <ele>383</ele>
        <time>2018-03-29T15:21:43Z</time>
      </trkpt>
      <trkpt lat="45.92155" lon="4.68375">
        <ele>383</ele>
        <time>2018-03-29T15:21:45Z</time>
      </trkpt>
      <trkpt lat="45.92158" lon="4.68379">
        <ele>384</ele>
        <time>2018-03-29T15:21:46Z</time>
      </trkpt>
      <trkpt lat="45.92166" lon="4.68385">
        <ele>384</ele>
        <time>2018-03-29T15:21:48Z</time>
      </trkpt>
      <trkpt lat="45.92168" lon="4.6839">
        <ele>383</ele>
        <time>2018-03-29T15:21:49Z</time>
      </trkpt>
      <trkpt lat="45.92172" lon="4.68396">
        <ele>383</ele>
        <time>2018-03-29T15:21:50Z</time>
      </trkpt>
      <trkpt lat="45.92174" lon="4.68401">
        <ele>384</ele>
        <time>2018-03-29T15:21:51Z</time>
      </trkpt>
      <trkpt lat="45.92177" lon="4.68406">
        <ele>384</ele>
        <time>2018-03-29T15:21:52Z</time>
      </trkpt>
      <trkpt lat="45.92181" lon="4.6841">
        <ele>384</ele>
        <time>2018-03-29T15:21:53Z</time>
      </trkpt>
      <trkpt lat="45.92185" lon="4.68414">
        <ele>384</ele>
        <time>2018-03-29T15:21:54Z</time>
      </trkpt>
      <trkpt lat="45.92189" lon="4.68416">
        <ele>383</ele>
        <time>2018-03-29T15:21:55Z</time>
      </trkpt>
      <trkpt lat="45.92194" lon="4.68419">
        <ele>386</ele>
        <time>2018-03-29T15:21:56Z</time>
      </trkpt>
      <trkpt lat="45.92198" lon="4.68421">
        <ele>386</ele>
        <time>2018-03-29T15:21:57Z</time>
      </trkpt>
      <trkpt lat="45.92202" lon="4.68423">
        <ele>386</ele>
        <time>2018-03-29T15:21:58Z</time>
      </trkpt>
      <trkpt lat="45.92207" lon="4.68426">
        <ele>386</ele>
        <time>2018-03-29T15:21:59Z</time>
      </trkpt>
      <trkpt lat="45.92211" lon="4.6843">
        <ele>386</ele>
        <time>2018-03-29T15:22:00Z</time>
      </trkpt>
      <trkpt lat="45.92215" lon="4.68433">
        <ele>386</ele>
        <time>2018-03-29T15:22:01Z</time>
      </trkpt>
      <trkpt lat="45.92222" lon="4.68441">
        <ele>386</ele>
        <time>2018-03-29T15:22:03Z</time>
      </trkpt>
      <trkpt lat="45.92226" lon="4.68444">
        <ele>386</ele>
        <time>2018-03-29T15:22:04Z</time>
      </trkpt>
      <trkpt lat="45.92233" lon="4.68451">
        <ele>386</ele>
        <time>2018-03-29T15:22:06Z</time>
      </trkpt>
      <trkpt lat="45.92237" lon="4.68455">
        <ele>386</ele>
        <time>2018-03-29T15:22:07Z</time>
      </trkpt>
      <trkpt lat="45.9224" lon="4.68459">
        <ele>386</ele>
        <time>2018-03-29T15:22:08Z</time>
      </trkpt>
      <trkpt lat="45.92244" lon="4.68463">
        <ele>386</ele>
        <time>2018-03-29T15:22:09Z</time>
      </trkpt>
      <trkpt lat="45.92248" lon="4.68467">
        <ele>386</ele>
        <time>2018-03-29T15:22:10Z</time>
      </trkpt>
      <trkpt lat="45.92251" lon="4.68471">
        <ele>384</ele>
        <time>2018-03-29T15:22:11Z</time>
      </trkpt>
      <trkpt lat="45.92255" lon="4.68475">
        <ele>384</ele>
        <time>2018-03-29T15:22:12Z</time>
      </trkpt>
      <trkpt lat="45.92258" lon="4.68479">
        <ele>384</ele>
        <time>2018-03-29T15:22:13Z</time>
      </trkpt>
      <trkpt lat="45.92265" lon="4.68486">
        <ele>384</ele>
        <time>2018-03-29T15:22:15Z</time>
      </trkpt>
      <trkpt lat="45.92268" lon="4.68491">
        <ele>384</ele>
        <time>2018-03-29T15:22:16Z</time>
      </trkpt>
      <trkpt lat="45.92275" lon="4.68497">
        <ele>384</ele>
        <time>2018-03-29T15:22:18Z</time>
      </trkpt>
      <trkpt lat="45.92278" lon="4.685">
        <ele>387</ele>
        <time>2018-03-29T15:22:19Z</time>
      </trkpt>
      <trkpt lat="45.92284" lon="4.68508">
        <ele>387</ele>
        <time>2018-03-29T15:22:21Z</time>
      </trkpt>
      <trkpt lat="45.92287" lon="4.68511">
        <ele>387</ele>
        <time>2018-03-29T15:22:22Z</time>
      </trkpt>
      <trkpt lat="45.92294" lon="4.68516">
        <ele>387</ele>
        <time>2018-03-29T15:22:24Z</time>
      </trkpt>
      <trkpt lat="45.92298" lon="4.6852">
        <ele>387</ele>
        <time>2018-03-29T15:22:25Z</time>
      </trkpt>
      <trkpt lat="45.92301" lon="4.68524">
        <ele>387</ele>
        <time>2018-03-29T15:22:26Z</time>
      </trkpt>
      <trkpt lat="45.92305" lon="4.68527">
        <ele>387</ele>
        <time>2018-03-29T15:22:27Z</time>
      </trkpt>
      <trkpt lat="45.92309" lon="4.68532">
        <ele>388</ele>
        <time>2018-03-29T15:22:28Z</time>
      </trkpt>
      <trkpt lat="45.92313" lon="4.68536">
        <ele>388</ele>
        <time>2018-03-29T15:22:29Z</time>
      </trkpt>
      <trkpt lat="45.92317" lon="4.68539">
        <ele>388</ele>
        <time>2018-03-29T15:22:30Z</time>
      </trkpt>
      <trkpt lat="45.92321" lon="4.68542">
        <ele>388</ele>
        <time>2018-03-29T15:22:31Z</time>
      </trkpt>
      <trkpt lat="45.92329" lon="4.68549">
        <ele>388</ele>
        <time>2018-03-29T15:22:33Z</time>
      </trkpt>
      <trkpt lat="45.92333" lon="4.68552">
        <ele>389</ele>
        <time>2018-03-29T15:22:34Z</time>
      </trkpt>
      <trkpt lat="45.92337" lon="4.68555">
        <ele>385</ele>
        <time>2018-03-29T15:22:35Z</time>
      </trkpt>
      <trkpt lat="45.92341" lon="4.68558">
        <ele>386</ele>
        <time>2018-03-29T15:22:36Z</time>
      </trkpt>
      <trkpt lat="45.92345" lon="4.6856">
        <ele>386</ele>
        <time>2018-03-29T15:22:37Z</time>
      </trkpt>
      <trkpt lat="45.9235" lon="4.68564">
        <ele>386</ele>
        <time>2018-03-29T15:22:38Z</time>
      </trkpt>
      <trkpt lat="45.92355" lon="4.68567">
        <ele>385</ele>
        <time>2018-03-29T15:22:39Z</time>
      </trkpt>
      <trkpt lat="45.92359" lon="4.6857">
        <ele>385</ele>
        <time>2018-03-29T15:22:40Z</time>
      </trkpt>
      <trkpt lat="45.92364" lon="4.68574">
        <ele>385</ele>
        <time>2018-03-29T15:22:41Z</time>
      </trkpt>
      <trkpt lat="45.92369" lon="4.68577">
        <ele>385</ele>
        <time>2018-03-29T15:22:42Z</time>
      </trkpt>
      <trkpt lat="45.92375" lon="4.6858">
        <ele>384</ele>
        <time>2018-03-29T15:22:43Z</time>
      </trkpt>
      <trkpt lat="45.9238" lon="4.68584">
        <ele>387</ele>
        <time>2018-03-29T15:22:44Z</time>
      </trkpt>
      <trkpt lat="45.92385" lon="4.68588">
        <ele>387</ele>
        <time>2018-03-29T15:22:45Z</time>
      </trkpt>
      <trkpt lat="45.92391" lon="4.68592">
        <ele>386</ele>
        <time>2018-03-29T15:22:46Z</time>
      </trkpt>
      <trkpt lat="45.92396" lon="4.68596">
        <ele>386</ele>
        <time>2018-03-29T15:22:47Z</time>
      </trkpt>
      <trkpt lat="45.92402" lon="4.68598">
        <ele>386</ele>
        <time>2018-03-29T15:22:48Z</time>
      </trkpt>
      <trkpt lat="45.92407" lon="4.686">
        <ele>385</ele>
        <time>2018-03-29T15:22:49Z</time>
      </trkpt>
      <trkpt lat="45.92413" lon="4.68602">
        <ele>385</ele>
        <time>2018-03-29T15:22:50Z</time>
      </trkpt>
      <trkpt lat="45.9242" lon="4.68606">
        <ele>381</ele>
        <time>2018-03-29T15:22:51Z</time>
      </trkpt>
      <trkpt lat="45.92426" lon="4.68609">
        <ele>381</ele>
        <time>2018-03-29T15:22:52Z</time>
      </trkpt>
      <trkpt lat="45.92433" lon="4.68612">
        <ele>381</ele>
        <time>2018-03-29T15:22:53Z</time>
      </trkpt>
      <trkpt lat="45.9244" lon="4.68616">
        <ele>381</ele>
        <time>2018-03-29T15:22:54Z</time>
      </trkpt>
      <trkpt lat="45.92447" lon="4.68619">
        <ele>380</ele>
        <time>2018-03-29T15:22:55Z</time>
      </trkpt>
      <trkpt lat="45.92454" lon="4.68623">
        <ele>380</ele>
        <time>2018-03-29T15:22:56Z</time>
      </trkpt>
      <trkpt lat="45.92461" lon="4.68626">
        <ele>380</ele>
        <time>2018-03-29T15:22:57Z</time>
      </trkpt>
      <trkpt lat="45.92468" lon="4.68629">
        <ele>380</ele>
        <time>2018-03-29T15:22:58Z</time>
      </trkpt>
      <trkpt lat="45.92476" lon="4.68632">
        <ele>379</ele>
        <time>2018-03-29T15:22:59Z</time>
      </trkpt>
      <trkpt lat="45.92484" lon="4.68635">
        <ele>379</ele>
        <time>2018-03-29T15:23:00Z</time>
      </trkpt>
      <trkpt lat="45.92491" lon="4.68638">
        <ele>379</ele>
        <time>2018-03-29T15:23:01Z</time>
      </trkpt>
      <trkpt lat="45.92497" lon="4.6864">
        <ele>379</ele>
        <time>2018-03-29T15:23:02Z</time>
      </trkpt>
      <trkpt lat="45.92506" lon="4.68642">
        <ele>375</ele>
        <time>2018-03-29T15:23:03Z</time>
      </trkpt>
      <trkpt lat="45.92513" lon="4.68644">
        <ele>375</ele>
        <time>2018-03-29T15:23:04Z</time>
      </trkpt>
      <trkpt lat="45.92521" lon="4.68646">
        <ele>375</ele>
        <time>2018-03-29T15:23:05Z</time>
      </trkpt>
      <trkpt lat="45.92529" lon="4.68648">
        <ele>375</ele>
        <time>2018-03-29T15:23:06Z</time>
      </trkpt>
      <trkpt lat="45.92535" lon="4.6865">
        <ele>375</ele>
        <time>2018-03-29T15:23:07Z</time>
      </trkpt>
      <trkpt lat="45.92542" lon="4.68652">
        <ele>374</ele>
        <time>2018-03-29T15:23:08Z</time>
      </trkpt>
      <trkpt lat="45.92549" lon="4.68654">
        <ele>374</ele>
        <time>2018-03-29T15:23:09Z</time>
      </trkpt>
      <trkpt lat="45.92555" lon="4.68654">
        <ele>374</ele>
        <time>2018-03-29T15:23:10Z</time>
      </trkpt>
      <trkpt lat="45.92561" lon="4.68653">
        <ele>374</ele>
        <time>2018-03-29T15:23:11Z</time>
      </trkpt>
      <trkpt lat="45.92566" lon="4.6865">
        <ele>374</ele>
        <time>2018-03-29T15:23:12Z</time>
      </trkpt>
      <trkpt lat="45.92571" lon="4.68647">
        <ele>374</ele>
        <time>2018-03-29T15:23:13Z</time>
      </trkpt>
      <trkpt lat="45.92579" lon="4.68642">
        <ele>373</ele>
        <time>2018-03-29T15:23:15Z</time>
      </trkpt>
      <trkpt lat="45.92584" lon="4.6864">
        <ele>370</ele>
        <time>2018-03-29T15:23:16Z</time>
      </trkpt>
      <trkpt lat="45.92592" lon="4.68637">
        <ele>370</ele>
        <time>2018-03-29T15:23:18Z</time>
      </trkpt>
      <trkpt lat="45.92595" lon="4.68637">
        <ele>370</ele>
        <time>2018-03-29T15:23:19Z</time>
      </trkpt>
      <trkpt lat="45.92602" lon="4.68633">
        <ele>369</ele>
        <time>2018-03-29T15:23:22Z</time>
      </trkpt>
      <trkpt lat="45.92605" lon="4.68632">
        <ele>369</ele>
        <time>2018-03-29T15:23:23Z</time>
      </trkpt>
      <trkpt lat="45.92613" lon="4.68631">
        <ele>369</ele>
        <time>2018-03-29T15:23:24Z</time>
      </trkpt>
      <trkpt lat="45.92615" lon="4.68631">
        <ele>369</ele>
        <time>2018-03-29T15:23:25Z</time>
      </trkpt>
      <trkpt lat="45.92623" lon="4.68626">
        <ele>368</ele>
        <time>2018-03-29T15:23:27Z</time>
      </trkpt>
      <trkpt lat="45.92626" lon="4.68623">
        <ele>368</ele>
        <time>2018-03-29T15:23:28Z</time>
      </trkpt>
      <trkpt lat="45.92633" lon="4.6862">
        <ele>368</ele>
        <time>2018-03-29T15:23:30Z</time>
      </trkpt>
      <trkpt lat="45.92638" lon="4.68619">
        <ele>368</ele>
        <time>2018-03-29T15:23:31Z</time>
      </trkpt>
      <trkpt lat="45.92644" lon="4.68616">
        <ele>367</ele>
        <time>2018-03-29T15:23:32Z</time>
      </trkpt>
      <trkpt lat="45.92649" lon="4.68613">
        <ele>367</ele>
        <time>2018-03-29T15:23:33Z</time>
      </trkpt>
      <trkpt lat="45.92654" lon="4.68611">
        <ele>367</ele>
        <time>2018-03-29T15:23:34Z</time>
      </trkpt>
      <trkpt lat="45.92661" lon="4.68609">
        <ele>367</ele>
        <time>2018-03-29T15:23:35Z</time>
      </trkpt>
      <trkpt lat="45.92666" lon="4.68607">
        <ele>367</ele>
        <time>2018-03-29T15:23:36Z</time>
      </trkpt>
      <trkpt lat="45.92671" lon="4.68603">
        <ele>364</ele>
        <time>2018-03-29T15:23:37Z</time>
      </trkpt>
      <trkpt lat="45.92676" lon="4.68599">
        <ele>364</ele>
        <time>2018-03-29T15:23:38Z</time>
      </trkpt>
      <trkpt lat="45.92681" lon="4.68595">
        <ele>364</ele>
        <time>2018-03-29T15:23:39Z</time>
      </trkpt>
      <trkpt lat="45.92687" lon="4.68592">
        <ele>364</ele>
        <time>2018-03-29T15:23:40Z</time>
      </trkpt>
      <trkpt lat="45.92693" lon="4.68589">
        <ele>364</ele>
        <time>2018-03-29T15:23:41Z</time>
      </trkpt>
      <trkpt lat="45.92697" lon="4.68588">
        <ele>364</ele>
        <time>2018-03-29T15:23:42Z</time>
      </trkpt>
      <trkpt lat="45.92702" lon="4.68586">
        <ele>364</ele>
        <time>2018-03-29T15:23:43Z</time>
      </trkpt>
      <trkpt lat="45.92707" lon="4.68583">
        <ele>366</ele>
        <time>2018-03-29T15:23:44Z</time>
      </trkpt>
      <trkpt lat="45.92712" lon="4.68581">
        <ele>366</ele>
        <time>2018-03-29T15:23:45Z</time>
      </trkpt>
      <trkpt lat="45.92718" lon="4.68578">
        <ele>366</ele>
        <time>2018-03-29T15:23:46Z</time>
      </trkpt>
      <trkpt lat="45.92722" lon="4.68576">
        <ele>366</ele>
        <time>2018-03-29T15:23:47Z</time>
      </trkpt>
      <trkpt lat="45.92729" lon="4.68574">
        <ele>366</ele>
        <time>2018-03-29T15:23:48Z</time>
      </trkpt>
      <trkpt lat="45.92733" lon="4.68572">
        <ele>366</ele>
        <time>2018-03-29T15:23:49Z</time>
      </trkpt>
      <trkpt lat="45.92739" lon="4.68572">
        <ele>366</ele>
        <time>2018-03-29T15:23:50Z</time>
      </trkpt>
      <trkpt lat="45.92744" lon="4.6857">
        <ele>366</ele>
        <time>2018-03-29T15:23:51Z</time>
      </trkpt>
      <trkpt lat="45.92749" lon="4.6857">
        <ele>366</ele>
        <time>2018-03-29T15:23:52Z</time>
      </trkpt>
      <trkpt lat="45.92756" lon="4.6857">
        <ele>366</ele>
        <time>2018-03-29T15:23:53Z</time>
      </trkpt>
      <trkpt lat="45.92762" lon="4.6857">
        <ele>365</ele>
        <time>2018-03-29T15:23:54Z</time>
      </trkpt>
      <trkpt lat="45.92768" lon="4.68571">
        <ele>365</ele>
        <time>2018-03-29T15:23:55Z</time>
      </trkpt>
      <trkpt lat="45.92774" lon="4.6857">
        <ele>365</ele>
        <time>2018-03-29T15:23:56Z</time>
      </trkpt>
      <trkpt lat="45.92781" lon="4.68572">
        <ele>365</ele>
        <time>2018-03-29T15:23:57Z</time>
      </trkpt>
      <trkpt lat="45.92787" lon="4.68573">
        <ele>365</ele>
        <time>2018-03-29T15:23:58Z</time>
      </trkpt>
      <trkpt lat="45.92793" lon="4.68574">
        <ele>364</ele>
        <time>2018-03-29T15:23:59Z</time>
      </trkpt>
      <trkpt lat="45.928" lon="4.68575">
        <ele>364</ele>
        <time>2018-03-29T15:24:00Z</time>
      </trkpt>
      <trkpt lat="45.92807" lon="4.68576">
        <ele>364</ele>
        <time>2018-03-29T15:24:01Z</time>
      </trkpt>
      <trkpt lat="45.92814" lon="4.68576">
        <ele>363</ele>
        <time>2018-03-29T15:24:02Z</time>
      </trkpt>
      <trkpt lat="45.9282" lon="4.68577">
        <ele>363</ele>
        <time>2018-03-29T15:24:03Z</time>
      </trkpt>
      <trkpt lat="45.92827" lon="4.68578">
        <ele>362</ele>
        <time>2018-03-29T15:24:04Z</time>
      </trkpt>
      <trkpt lat="45.92834" lon="4.68579">
        <ele>361</ele>
        <time>2018-03-29T15:24:05Z</time>
      </trkpt>
      <trkpt lat="45.92841" lon="4.68581">
        <ele>361</ele>
        <time>2018-03-29T15:24:06Z</time>
      </trkpt>
      <trkpt lat="45.92847" lon="4.68581">
        <ele>361</ele>
        <time>2018-03-29T15:24:07Z</time>
      </trkpt>
      <trkpt lat="45.92854" lon="4.68583">
        <ele>361</ele>
        <time>2018-03-29T15:24:08Z</time>
      </trkpt>
      <trkpt lat="45.92861" lon="4.68584">
        <ele>359</ele>
        <time>2018-03-29T15:24:09Z</time>
      </trkpt>
      <trkpt lat="45.92869" lon="4.68586">
        <ele>359</ele>
        <time>2018-03-29T15:24:10Z</time>
      </trkpt>
      <trkpt lat="45.92876" lon="4.68587">
        <ele>359</ele>
        <time>2018-03-29T15:24:11Z</time>
      </trkpt>
      <trkpt lat="45.92883" lon="4.68589">
        <ele>358</ele>
        <time>2018-03-29T15:24:12Z</time>
      </trkpt>
      <trkpt lat="45.9289" lon="4.68589">
        <ele>358</ele>
        <time>2018-03-29T15:24:13Z</time>
      </trkpt>
      <trkpt lat="45.92898" lon="4.68591">
        <ele>358</ele>
        <time>2018-03-29T15:24:14Z</time>
      </trkpt>
      <trkpt lat="45.92905" lon="4.68593">
        <ele>359</ele>
        <time>2018-03-29T15:24:15Z</time>
      </trkpt>
      <trkpt lat="45.92912" lon="4.68595">
        <ele>359</ele>
        <time>2018-03-29T15:24:16Z</time>
      </trkpt>
      <trkpt lat="45.92919" lon="4.68597">
        <ele>359</ele>
        <time>2018-03-29T15:24:17Z</time>
      </trkpt>
      <trkpt lat="45.92927" lon="4.68598">
        <ele>359</ele>
        <time>2018-03-29T15:24:18Z</time>
      </trkpt>
      <trkpt lat="45.92934" lon="4.68599">
        <ele>358</ele>
        <time>2018-03-29T15:24:19Z</time>
      </trkpt>
      <trkpt lat="45.92942" lon="4.686">
        <ele>358</ele>
        <time>2018-03-29T15:24:20Z</time>
      </trkpt>
      <trkpt lat="45.9295" lon="4.68601">
        <ele>358</ele>
        <time>2018-03-29T15:24:21Z</time>
      </trkpt>
      <trkpt lat="45.92957" lon="4.68602">
        <ele>358</ele>
        <time>2018-03-29T15:24:22Z</time>
      </trkpt>
      <trkpt lat="45.92965" lon="4.68604">
        <ele>358</ele>
        <time>2018-03-29T15:24:23Z</time>
      </trkpt>
      <trkpt lat="45.92971" lon="4.68604">
        <ele>358</ele>
        <time>2018-03-29T15:24:24Z</time>
      </trkpt>
      <trkpt lat="45.92979" lon="4.68606">
        <ele>358</ele>
        <time>2018-03-29T15:24:25Z</time>
      </trkpt>
      <trkpt lat="45.92986" lon="4.68607">
        <ele>358</ele>
        <time>2018-03-29T15:24:26Z</time>
      </trkpt>
      <trkpt lat="45.92994" lon="4.6861">
        <ele>358</ele>
        <time>2018-03-29T15:24:27Z</time>
      </trkpt>
      <trkpt lat="45.93003" lon="4.68611">
        <ele>356</ele>
        <time>2018-03-29T15:24:28Z</time>
      </trkpt>
      <trkpt lat="45.9301" lon="4.68613">
        <ele>356</ele>
        <time>2018-03-29T15:24:29Z</time>
      </trkpt>
      <trkpt lat="45.93018" lon="4.68614">
        <ele>356</ele>
        <time>2018-03-29T15:24:30Z</time>
      </trkpt>
      <trkpt lat="45.93025" lon="4.68614">
        <ele>355</ele>
        <time>2018-03-29T15:24:31Z</time>
      </trkpt>
      <trkpt lat="45.93033" lon="4.68617">
        <ele>355</ele>
        <time>2018-03-29T15:24:32Z</time>
      </trkpt>
      <trkpt lat="45.93041" lon="4.68619">
        <ele>355</ele>
        <time>2018-03-29T15:24:33Z</time>
      </trkpt>
      <trkpt lat="45.93049" lon="4.68621">
        <ele>354</ele>
        <time>2018-03-29T15:24:34Z</time>
      </trkpt>
      <trkpt lat="45.93058" lon="4.68623">
        <ele>354</ele>
        <time>2018-03-29T15:24:35Z</time>
      </trkpt>
      <trkpt lat="45.93067" lon="4.68625">
        <ele>354</ele>
        <time>2018-03-29T15:24:36Z</time>
      </trkpt>
      <trkpt lat="45.93076" lon="4.68627">
        <ele>354</ele>
        <time>2018-03-29T15:24:37Z</time>
      </trkpt>
      <trkpt lat="45.93083" lon="4.68628">
        <ele>353</ele>
        <time>2018-03-29T15:24:38Z</time>
      </trkpt>
      <trkpt lat="45.93092" lon="4.68631">
        <ele>349</ele>
        <time>2018-03-29T15:24:39Z</time>
      </trkpt>
      <trkpt lat="45.931" lon="4.68632">
        <ele>349</ele>
        <time>2018-03-29T15:24:40Z</time>
      </trkpt>
      <trkpt lat="45.9311" lon="4.68634">
        <ele>348</ele>
        <time>2018-03-29T15:24:41Z</time>
      </trkpt>
      <trkpt lat="45.93119" lon="4.68636">
        <ele>348</ele>
        <time>2018-03-29T15:24:42Z</time>
      </trkpt>
      <trkpt lat="45.93128" lon="4.68639">
        <ele>348</ele>
        <time>2018-03-29T15:24:43Z</time>
      </trkpt>
      <trkpt lat="45.93138" lon="4.6864">
        <ele>347</ele>
        <time>2018-03-29T15:24:44Z</time>
      </trkpt>
      <trkpt lat="45.93147" lon="4.68643">
        <ele>347</ele>
        <time>2018-03-29T15:24:45Z</time>
      </trkpt>
      <trkpt lat="45.93158" lon="4.68645">
        <ele>347</ele>
        <time>2018-03-29T15:24:46Z</time>
      </trkpt>
      <trkpt lat="45.93167" lon="4.68648">
        <ele>345</ele>
        <time>2018-03-29T15:24:47Z</time>
      </trkpt>
      <trkpt lat="45.93177" lon="4.6865">
        <ele>345</ele>
        <time>2018-03-29T15:24:48Z</time>
      </trkpt>
      <trkpt lat="45.93187" lon="4.68652">
        <ele>345</ele>
        <time>2018-03-29T15:24:49Z</time>
      </trkpt>
      <trkpt lat="45.93197" lon="4.68655">
        <ele>345</ele>
        <time>2018-03-29T15:24:50Z</time>
      </trkpt>
      <trkpt lat="45.93207" lon="4.68657">
        <ele>344</ele>
        <time>2018-03-29T15:24:51Z</time>
      </trkpt>
      <trkpt lat="45.93217" lon="4.68659">
        <ele>344</ele>
        <time>2018-03-29T15:24:52Z</time>
      </trkpt>
      <trkpt lat="45.93225" lon="4.68661">
        <ele>344</ele>
        <time>2018-03-29T15:24:53Z</time>
      </trkpt>
      <trkpt lat="45.93235" lon="4.68663">
        <ele>344</ele>
        <time>2018-03-29T15:24:54Z</time>
      </trkpt>
      <trkpt lat="45.93245" lon="4.68666">
        <ele>344</ele>
        <time>2018-03-29T15:24:55Z</time>
      </trkpt>
      <trkpt lat="45.93253" lon="4.68668">
        <ele>344</ele>
        <time>2018-03-29T15:24:56Z</time>
      </trkpt>
      <trkpt lat="45.93261" lon="4.6867">
        <ele>344</ele>
        <time>2018-03-29T15:24:57Z</time>
      </trkpt>
      <trkpt lat="45.9327" lon="4.68673">
        <ele>344</ele>
        <time>2018-03-29T15:24:58Z</time>
      </trkpt>
      <trkpt lat="45.93278" lon="4.68675">
        <ele>344</ele>
        <time>2018-03-29T15:24:59Z</time>
      </trkpt>
      <trkpt lat="45.93287" lon="4.68677">
        <ele>344</ele>
        <time>2018-03-29T15:25:00Z</time>
      </trkpt>
      <trkpt lat="45.93295" lon="4.68679">
        <ele>344</ele>
        <time>2018-03-29T15:25:01Z</time>
      </trkpt>
      <trkpt lat="45.93302" lon="4.68681">
        <ele>344</ele>
        <time>2018-03-29T15:25:02Z</time>
      </trkpt>
      <trkpt lat="45.9331" lon="4.68684">
        <ele>344</ele>
        <time>2018-03-29T15:25:03Z</time>
      </trkpt>
      <trkpt lat="45.93318" lon="4.68686">
        <ele>344</ele>
        <time>2018-03-29T15:25:04Z</time>
      </trkpt>
      <trkpt lat="45.93325" lon="4.68688">
        <ele>344</ele>
        <time>2018-03-29T15:25:05Z</time>
      </trkpt>
      <trkpt lat="45.93333" lon="4.6869">
        <ele>344</ele>
        <time>2018-03-29T15:25:06Z</time>
      </trkpt>
      <trkpt lat="45.93341" lon="4.68691">
        <ele>344</ele>
        <time>2018-03-29T15:25:07Z</time>
      </trkpt>
      <trkpt lat="45.93348" lon="4.68694">
        <ele>344</ele>
        <time>2018-03-29T15:25:08Z</time>
      </trkpt>
      <trkpt lat="45.93355" lon="4.68697">
        <ele>344</ele>
        <time>2018-03-29T15:25:09Z</time>
      </trkpt>
      <trkpt lat="45.93362" lon="4.68699">
        <ele>344</ele>
        <time>2018-03-29T15:25:10Z</time>
      </trkpt>
      <trkpt lat="45.9337" lon="4.68701">
        <ele>344</ele>
        <time>2018-03-29T15:25:11Z</time>
      </trkpt>
      <trkpt lat="45.93377" lon="4.68703">
        <ele>344</ele>
        <time>2018-03-29T15:25:12Z</time>
      </trkpt>
      <trkpt lat="45.93385" lon="4.68704">
        <ele>344</ele>
        <time>2018-03-29T15:25:13Z</time>
      </trkpt>
      <trkpt lat="45.93393" lon="4.68706">
        <ele>344</ele>
        <time>2018-03-29T15:25:14Z</time>
      </trkpt>
      <trkpt lat="45.934" lon="4.68708">
        <ele>344</ele>
        <time>2018-03-29T15:25:15Z</time>
      </trkpt>
      <trkpt lat="45.93407" lon="4.68709">
        <ele>343</ele>
        <time>2018-03-29T15:25:16Z</time>
      </trkpt>
      <trkpt lat="45.93414" lon="4.6871">
        <ele>343</ele>
        <time>2018-03-29T15:25:17Z</time>
      </trkpt>
      <trkpt lat="45.93421" lon="4.6871">
        <ele>343</ele>
        <time>2018-03-29T15:25:18Z</time>
      </trkpt>
      <trkpt lat="45.93428" lon="4.68712">
        <ele>343</ele>
        <time>2018-03-29T15:25:19Z</time>
      </trkpt>
      <trkpt lat="45.93434" lon="4.68714">
        <ele>343</ele>
        <time>2018-03-29T15:25:20Z</time>
      </trkpt>
      <trkpt lat="45.9344" lon="4.68716">
        <ele>343</ele>
        <time>2018-03-29T15:25:21Z</time>
      </trkpt>
      <trkpt lat="45.93447" lon="4.68717">
        <ele>343</ele>
        <time>2018-03-29T15:25:22Z</time>
      </trkpt>
      <trkpt lat="45.93453" lon="4.68718">
        <ele>342</ele>
        <time>2018-03-29T15:25:23Z</time>
      </trkpt>
      <trkpt lat="45.93458" lon="4.68721">
        <ele>342</ele>
        <time>2018-03-29T15:25:24Z</time>
      </trkpt>
      <trkpt lat="45.93465" lon="4.68722">
        <ele>342</ele>
        <time>2018-03-29T15:25:25Z</time>
      </trkpt>
      <trkpt lat="45.93471" lon="4.68724">
        <ele>342</ele>
        <time>2018-03-29T15:25:26Z</time>
      </trkpt>
      <trkpt lat="45.93478" lon="4.68725">
        <ele>342</ele>
        <time>2018-03-29T15:25:27Z</time>
      </trkpt>
      <trkpt lat="45.93483" lon="4.68727">
        <ele>342</ele>
        <time>2018-03-29T15:25:28Z</time>
      </trkpt>
      <trkpt lat="45.93489" lon="4.68729">
        <ele>342</ele>
        <time>2018-03-29T15:25:29Z</time>
      </trkpt>
      <trkpt lat="45.93496" lon="4.6873">
        <ele>342</ele>
        <time>2018-03-29T15:25:30Z</time>
      </trkpt>
      <trkpt lat="45.93502" lon="4.68731">
        <ele>342</ele>
        <time>2018-03-29T15:25:31Z</time>
      </trkpt>
      <trkpt lat="45.93508" lon="4.68732">
        <ele>342</ele>
        <time>2018-03-29T15:25:32Z</time>
      </trkpt>
      <trkpt lat="45.93515" lon="4.68733">
        <ele>342</ele>
        <time>2018-03-29T15:25:33Z</time>
      </trkpt>
      <trkpt lat="45.9352" lon="4.68735">
        <ele>342</ele>
        <time>2018-03-29T15:25:34Z</time>
      </trkpt>
      <trkpt lat="45.93526" lon="4.68736">
        <ele>342</ele>
        <time>2018-03-29T15:25:35Z</time>
      </trkpt>
      <trkpt lat="45.93532" lon="4.68737">
        <ele>342</ele>
        <time>2018-03-29T15:25:36Z</time>
      </trkpt>
      <trkpt lat="45.93539" lon="4.6874">
        <ele>342</ele>
        <time>2018-03-29T15:25:37Z</time>
      </trkpt>
      <trkpt lat="45.93545" lon="4.68741">
        <ele>342</ele>
        <time>2018-03-29T15:25:38Z</time>
      </trkpt>
      <trkpt lat="45.9355" lon="4.68742">
        <ele>342</ele>
        <time>2018-03-29T15:25:39Z</time>
      </trkpt>
      <trkpt lat="45.93556" lon="4.68744">
        <ele>342</ele>
        <time>2018-03-29T15:25:40Z</time>
      </trkpt>
      <trkpt lat="45.93562" lon="4.68745">
        <ele>343</ele>
        <time>2018-03-29T15:25:41Z</time>
      </trkpt>
      <trkpt lat="45.93567" lon="4.68747">
        <ele>343</ele>
        <time>2018-03-29T15:25:42Z</time>
      </trkpt>
      <trkpt lat="45.93574" lon="4.68748">
        <ele>343</ele>
        <time>2018-03-29T15:25:43Z</time>
      </trkpt>
      <trkpt lat="45.93579" lon="4.6875">
        <ele>344</ele>
        <time>2018-03-29T15:25:44Z</time>
      </trkpt>
      <trkpt lat="45.93585" lon="4.68752">
        <ele>344</ele>
        <time>2018-03-29T15:25:45Z</time>
      </trkpt>
      <trkpt lat="45.93591" lon="4.68754">
        <ele>344</ele>
        <time>2018-03-29T15:25:46Z</time>
      </trkpt>
      <trkpt lat="45.93597" lon="4.68756">
        <ele>344</ele>
        <time>2018-03-29T15:25:47Z</time>
      </trkpt>
      <trkpt lat="45.93603" lon="4.68758">
        <ele>344</ele>
        <time>2018-03-29T15:25:48Z</time>
      </trkpt>
      <trkpt lat="45.93608" lon="4.68759">
        <ele>344</ele>
        <time>2018-03-29T15:25:49Z</time>
      </trkpt>
      <trkpt lat="45.93614" lon="4.6876">
        <ele>343</ele>
        <time>2018-03-29T15:25:50Z</time>
      </trkpt>
      <trkpt lat="45.9362" lon="4.68761">
        <ele>343</ele>
        <time>2018-03-29T15:25:51Z</time>
      </trkpt>
      <trkpt lat="45.93626" lon="4.68765">
        <ele>343</ele>
        <time>2018-03-29T15:25:52Z</time>
      </trkpt>
      <trkpt lat="45.93632" lon="4.68769">
        <ele>343</ele>
        <time>2018-03-29T15:25:53Z</time>
      </trkpt>
      <trkpt lat="45.93638" lon="4.68771">
        <ele>343</ele>
        <time>2018-03-29T15:25:54Z</time>
      </trkpt>
      <trkpt lat="45.93644" lon="4.68774">
        <ele>343</ele>
        <time>2018-03-29T15:25:55Z</time>
      </trkpt>
      <trkpt lat="45.9365" lon="4.68776">
        <ele>343</ele>
        <time>2018-03-29T15:25:56Z</time>
      </trkpt>
      <trkpt lat="45.93656" lon="4.68776">
        <ele>343</ele>
        <time>2018-03-29T15:25:57Z</time>
      </trkpt>
      <trkpt lat="45.93663" lon="4.68776">
        <ele>343</ele>
        <time>2018-03-29T15:25:58Z</time>
      </trkpt>
      <trkpt lat="45.93669" lon="4.68777">
        <ele>342</ele>
        <time>2018-03-29T15:25:59Z</time>
      </trkpt>
      <trkpt lat="45.93675" lon="4.68779">
        <ele>342</ele>
        <time>2018-03-29T15:26:00Z</time>
      </trkpt>
      <trkpt lat="45.93682" lon="4.68781">
        <ele>342</ele>
        <time>2018-03-29T15:26:01Z</time>
      </trkpt>
      <trkpt lat="45.93688" lon="4.68783">
        <ele>342</ele>
        <time>2018-03-29T15:26:02Z</time>
      </trkpt>
      <trkpt lat="45.93694" lon="4.68785">
        <ele>342</ele>
        <time>2018-03-29T15:26:03Z</time>
      </trkpt>
      <trkpt lat="45.93701" lon="4.68787">
        <ele>342</ele>
        <time>2018-03-29T15:26:04Z</time>
      </trkpt>
      <trkpt lat="45.93707" lon="4.68789">
        <ele>342</ele>
        <time>2018-03-29T15:26:05Z</time>
      </trkpt>
      <trkpt lat="45.93714" lon="4.68791">
        <ele>342</ele>
        <time>2018-03-29T15:26:06Z</time>
      </trkpt>
      <trkpt lat="45.9372" lon="4.68792">
        <ele>342</ele>
        <time>2018-03-29T15:26:07Z</time>
      </trkpt>
      <trkpt lat="45.93727" lon="4.68793">
        <ele>342</ele>
        <time>2018-03-29T15:26:08Z</time>
      </trkpt>
      <trkpt lat="45.93732" lon="4.68797">
        <ele>342</ele>
        <time>2018-03-29T15:26:09Z</time>
      </trkpt>
      <trkpt lat="45.93739" lon="4.68798">
        <ele>342</ele>
        <time>2018-03-29T15:26:10Z</time>
      </trkpt>
      <trkpt lat="45.93745" lon="4.68801">
        <ele>342</ele>
        <time>2018-03-29T15:26:11Z</time>
      </trkpt>
      <trkpt lat="45.93752" lon="4.68802">
        <ele>341</ele>
        <time>2018-03-29T15:26:12Z</time>
      </trkpt>
      <trkpt lat="45.93759" lon="4.68804">
        <ele>341</ele>
        <time>2018-03-29T15:26:13Z</time>
      </trkpt>
      <trkpt lat="45.93765" lon="4.68805">
        <ele>341</ele>
        <time>2018-03-29T15:26:14Z</time>
      </trkpt>
      <trkpt lat="45.93773" lon="4.68807">
        <ele>341</ele>
        <time>2018-03-29T15:26:15Z</time>
      </trkpt>
      <trkpt lat="45.9378" lon="4.68809">
        <ele>341</ele>
        <time>2018-03-29T15:26:16Z</time>
      </trkpt>
      <trkpt lat="45.93787" lon="4.68811">
        <ele>341</ele>
        <time>2018-03-29T15:26:17Z</time>
      </trkpt>
      <trkpt lat="45.93794" lon="4.68815">
        <ele>341</ele>
        <time>2018-03-29T15:26:18Z</time>
      </trkpt>
      <trkpt lat="45.93801" lon="4.68819">
        <ele>341</ele>
        <time>2018-03-29T15:26:19Z</time>
      </trkpt>
      <trkpt lat="45.93807" lon="4.68822">
        <ele>341</ele>
        <time>2018-03-29T15:26:20Z</time>
      </trkpt>
      <trkpt lat="45.93813" lon="4.68826">
        <ele>341</ele>
        <time>2018-03-29T15:26:21Z</time>
      </trkpt>
      <trkpt lat="45.93819" lon="4.68831">
        <ele>341</ele>
        <time>2018-03-29T15:26:22Z</time>
      </trkpt>
      <trkpt lat="45.93825" lon="4.68835">
        <ele>342</ele>
        <time>2018-03-29T15:26:23Z</time>
      </trkpt>
      <trkpt lat="45.9383" lon="4.68839">
        <ele>342</ele>
        <time>2018-03-29T15:26:24Z</time>
      </trkpt>
      <trkpt lat="45.93836" lon="4.68842">
        <ele>342</ele>
        <time>2018-03-29T15:26:25Z</time>
      </trkpt>
      <trkpt lat="45.93841" lon="4.68846">
        <ele>342</ele>
        <time>2018-03-29T15:26:26Z</time>
      </trkpt>
      <trkpt lat="45.93846" lon="4.68849">
        <ele>342</ele>
        <time>2018-03-29T15:26:27Z</time>
      </trkpt>
      <trkpt lat="45.93851" lon="4.68852">
        <ele>342</ele>
        <time>2018-03-29T15:26:28Z</time>
      </trkpt>
      <trkpt lat="45.93857" lon="4.68852">
        <ele>342</ele>
        <time>2018-03-29T15:26:29Z</time>
      </trkpt>
      <trkpt lat="45.93862" lon="4.68856">
        <ele>342</ele>
        <time>2018-03-29T15:26:30Z</time>
      </trkpt>
      <trkpt lat="45.93867" lon="4.6886">
        <ele>342</ele>
        <time>2018-03-29T15:26:31Z</time>
      </trkpt>
      <trkpt lat="45.93872" lon="4.68865">
        <ele>342</ele>
        <time>2018-03-29T15:26:32Z</time>
      </trkpt>
      <trkpt lat="45.93876" lon="4.68867">
        <ele>343</ele>
        <time>2018-03-29T15:26:33Z</time>
      </trkpt>
      <trkpt lat="45.93882" lon="4.6887">
        <ele>343</ele>
        <time>2018-03-29T15:26:34Z</time>
      </trkpt>
      <trkpt lat="45.93887" lon="4.68873">
        <ele>343</ele>
        <time>2018-03-29T15:26:35Z</time>
      </trkpt>
      <trkpt lat="45.93892" lon="4.68876">
        <ele>342</ele>
        <time>2018-03-29T15:26:36Z</time>
      </trkpt>
      <trkpt lat="45.93897" lon="4.68878">
        <ele>342</ele>
        <time>2018-03-29T15:26:37Z</time>
      </trkpt>
      <trkpt lat="45.93903" lon="4.68881">
        <ele>342</ele>
        <time>2018-03-29T15:26:38Z</time>
      </trkpt>
      <trkpt lat="45.93908" lon="4.68882">
        <ele>342</ele>
        <time>2018-03-29T15:26:39Z</time>
      </trkpt>
      <trkpt lat="45.93914" lon="4.68883">
        <ele>342</ele>
        <time>2018-03-29T15:26:40Z</time>
      </trkpt>
      <trkpt lat="45.9392" lon="4.68885">
        <ele>342</ele>
        <time>2018-03-29T15:26:41Z</time>
      </trkpt>
      <trkpt lat="45.93925" lon="4.68886">
        <ele>342</ele>
        <time>2018-03-29T15:26:42Z</time>
      </trkpt>
      <trkpt lat="45.9393" lon="4.68887">
        <ele>342</ele>
        <time>2018-03-29T15:26:43Z</time>
      </trkpt>
      <trkpt lat="45.93936" lon="4.68889">
        <ele>342</ele>
        <time>2018-03-29T15:26:44Z</time>
      </trkpt>
      <trkpt lat="45.9394" lon="4.68891">
        <ele>342</ele>
        <time>2018-03-29T15:26:45Z</time>
      </trkpt>
      <trkpt lat="45.93946" lon="4.68893">
        <ele>342</ele>
        <time>2018-03-29T15:26:46Z</time>
      </trkpt>
      <trkpt lat="45.93952" lon="4.68894">
        <ele>342</ele>
        <time>2018-03-29T15:26:47Z</time>
      </trkpt>
      <trkpt lat="45.93957" lon="4.68896">
        <ele>342</ele>
        <time>2018-03-29T15:26:48Z</time>
      </trkpt>
      <trkpt lat="45.93962" lon="4.68898">
        <ele>342</ele>
        <time>2018-03-29T15:26:49Z</time>
      </trkpt>
      <trkpt lat="45.93969" lon="4.68898">
        <ele>342</ele>
        <time>2018-03-29T15:26:50Z</time>
      </trkpt>
      <trkpt lat="45.93974" lon="4.689">
        <ele>342</ele>
        <time>2018-03-29T15:26:51Z</time>
      </trkpt>
      <trkpt lat="45.9398" lon="4.68903">
        <ele>342</ele>
        <time>2018-03-29T15:26:52Z</time>
      </trkpt>
      <trkpt lat="45.93985" lon="4.68905">
        <ele>342</ele>
        <time>2018-03-29T15:26:53Z</time>
      </trkpt>
      <trkpt lat="45.9399" lon="4.68907">
        <ele>342</ele>
        <time>2018-03-29T15:26:54Z</time>
      </trkpt>
      <trkpt lat="45.93995" lon="4.68909">
        <ele>342</ele>
        <time>2018-03-29T15:26:55Z</time>
      </trkpt>
      <trkpt lat="45.94001" lon="4.68911">
        <ele>342</ele>
        <time>2018-03-29T15:26:56Z</time>
      </trkpt>
      <trkpt lat="45.94006" lon="4.68913">
        <ele>341</ele>
        <time>2018-03-29T15:26:57Z</time>
      </trkpt>
      <trkpt lat="45.94012" lon="4.68915">
        <ele>341</ele>
        <time>2018-03-29T15:26:58Z</time>
      </trkpt>
      <trkpt lat="45.94018" lon="4.68917">
        <ele>341</ele>
        <time>2018-03-29T15:26:59Z</time>
      </trkpt>
      <trkpt lat="45.94024" lon="4.6892">
        <ele>341</ele>
        <time>2018-03-29T15:27:00Z</time>
      </trkpt>
      <trkpt lat="45.94029" lon="4.68922">
        <ele>341</ele>
        <time>2018-03-29T15:27:01Z</time>
      </trkpt>
      <trkpt lat="45.94036" lon="4.68925">
        <ele>341</ele>
        <time>2018-03-29T15:27:02Z</time>
      </trkpt>
      <trkpt lat="45.94042" lon="4.68927">
        <ele>341</ele>
        <time>2018-03-29T15:27:03Z</time>
      </trkpt>
      <trkpt lat="45.94049" lon="4.6893">
        <ele>341</ele>
        <time>2018-03-29T15:27:04Z</time>
      </trkpt>
      <trkpt lat="45.94054" lon="4.68934">
        <ele>341</ele>
        <time>2018-03-29T15:27:05Z</time>
      </trkpt>
      <trkpt lat="45.9406" lon="4.68939">
        <ele>341</ele>
        <time>2018-03-29T15:27:06Z</time>
      </trkpt>
      <trkpt lat="45.94066" lon="4.68943">
        <ele>341</ele>
        <time>2018-03-29T15:27:07Z</time>
      </trkpt>
      <trkpt lat="45.94072" lon="4.68945">
        <ele>341</ele>
        <time>2018-03-29T15:27:08Z</time>
      </trkpt>
      <trkpt lat="45.94078" lon="4.68946">
        <ele>341</ele>
        <time>2018-03-29T15:27:09Z</time>
      </trkpt>
      <trkpt lat="45.94085" lon="4.68946">
        <ele>340</ele>
        <time>2018-03-29T15:27:10Z</time>
      </trkpt>
      <trkpt lat="45.94092" lon="4.68947">
        <ele>340</ele>
        <time>2018-03-29T15:27:11Z</time>
      </trkpt>
      <trkpt lat="45.94099" lon="4.68949">
        <ele>340</ele>
        <time>2018-03-29T15:27:12Z</time>
      </trkpt>
      <trkpt lat="45.94105" lon="4.68951">
        <ele>340</ele>
        <time>2018-03-29T15:27:13Z</time>
      </trkpt>
      <trkpt lat="45.94111" lon="4.68953">
        <ele>340</ele>
        <time>2018-03-29T15:27:14Z</time>
      </trkpt>
      <trkpt lat="45.94117" lon="4.68956">
        <ele>340</ele>
        <time>2018-03-29T15:27:15Z</time>
      </trkpt>
      <trkpt lat="45.94123" lon="4.6896">
        <ele>340</ele>
        <time>2018-03-29T15:27:16Z</time>
      </trkpt>
      <trkpt lat="45.94129" lon="4.68962">
        <ele>340</ele>
        <time>2018-03-29T15:27:17Z</time>
      </trkpt>
      <trkpt lat="45.94135" lon="4.68965">
        <ele>340</ele>
        <time>2018-03-29T15:27:18Z</time>
      </trkpt>
      <trkpt lat="45.94142" lon="4.68967">
        <ele>340</ele>
        <time>2018-03-29T15:27:19Z</time>
      </trkpt>
      <trkpt lat="45.94148" lon="4.68969">
        <ele>340</ele>
        <time>2018-03-29T15:27:20Z</time>
      </trkpt>
      <trkpt lat="45.94154" lon="4.68972">
        <ele>340</ele>
        <time>2018-03-29T15:27:21Z</time>
      </trkpt>
      <trkpt lat="45.94161" lon="4.68975">
        <ele>340</ele>
        <time>2018-03-29T15:27:22Z</time>
      </trkpt>
      <trkpt lat="45.94167" lon="4.68978">
        <ele>340</ele>
        <time>2018-03-29T15:27:23Z</time>
      </trkpt>
      <trkpt lat="45.94173" lon="4.6898">
        <ele>339</ele>
        <time>2018-03-29T15:27:24Z</time>
      </trkpt>
      <trkpt lat="45.94179" lon="4.68981">
        <ele>339</ele>
        <time>2018-03-29T15:27:25Z</time>
      </trkpt>
      <trkpt lat="45.94186" lon="4.68984">
        <ele>339</ele>
        <time>2018-03-29T15:27:26Z</time>
      </trkpt>
      <trkpt lat="45.94192" lon="4.68986">
        <ele>338</ele>
        <time>2018-03-29T15:27:27Z</time>
      </trkpt>
      <trkpt lat="45.94198" lon="4.68988">
        <ele>338</ele>
        <time>2018-03-29T15:27:28Z</time>
      </trkpt>
      <trkpt lat="45.94205" lon="4.6899">
        <ele>338</ele>
        <time>2018-03-29T15:27:29Z</time>
      </trkpt>
      <trkpt lat="45.94211" lon="4.68991">
        <ele>338</ele>
        <time>2018-03-29T15:27:30Z</time>
      </trkpt>
      <trkpt lat="45.94218" lon="4.68993">
        <ele>338</ele>
        <time>2018-03-29T15:27:31Z</time>
      </trkpt>
      <trkpt lat="45.94224" lon="4.68995">
        <ele>338</ele>
        <time>2018-03-29T15:27:32Z</time>
      </trkpt>
      <trkpt lat="45.94231" lon="4.68997">
        <ele>338</ele>
        <time>2018-03-29T15:27:33Z</time>
      </trkpt>
      <trkpt lat="45.94237" lon="4.68999">
        <ele>338</ele>
        <time>2018-03-29T15:27:34Z</time>
      </trkpt>
      <trkpt lat="45.94244" lon="4.69">
        <ele>338</ele>
        <time>2018-03-29T15:27:35Z</time>
      </trkpt>
      <trkpt lat="45.9425" lon="4.69003">
        <ele>338</ele>
        <time>2018-03-29T15:27:36Z</time>
      </trkpt>
      <trkpt lat="45.94256" lon="4.69004">
        <ele>338</ele>
        <time>2018-03-29T15:27:37Z</time>
      </trkpt>
      <trkpt lat="45.94262" lon="4.69005">
        <ele>338</ele>
        <time>2018-03-29T15:27:38Z</time>
      </trkpt>
      <trkpt lat="45.94269" lon="4.69006">
        <ele>337</ele>
        <time>2018-03-29T15:27:39Z</time>
      </trkpt>
      <trkpt lat="45.94275" lon="4.69007">
        <ele>337</ele>
        <time>2018-03-29T15:27:40Z</time>
      </trkpt>
      <trkpt lat="45.94281" lon="4.69007">
        <ele>337</ele>
        <time>2018-03-29T15:27:41Z</time>
      </trkpt>
      <trkpt lat="45.94288" lon="4.69007">
        <ele>337</ele>
        <time>2018-03-29T15:27:42Z</time>
      </trkpt>
      <trkpt lat="45.94294" lon="4.69008">
        <ele>337</ele>
        <time>2018-03-29T15:27:43Z</time>
      </trkpt>
      <trkpt lat="45.943" lon="4.69008">
        <ele>337</ele>
        <time>2018-03-29T15:27:44Z</time>
      </trkpt>
      <trkpt lat="45.94306" lon="4.69006">
        <ele>337</ele>
        <time>2018-03-29T15:27:45Z</time>
      </trkpt>
      <trkpt lat="45.94312" lon="4.69007">
        <ele>337</ele>
        <time>2018-03-29T15:27:46Z</time>
      </trkpt>
      <trkpt lat="45.94318" lon="4.69008">
        <ele>337</ele>
        <time>2018-03-29T15:27:47Z</time>
      </trkpt>
      <trkpt lat="45.94325" lon="4.69007">
        <ele>337</ele>
        <time>2018-03-29T15:27:48Z</time>
      </trkpt>
      <trkpt lat="45.94331" lon="4.69007">
        <ele>337</ele>
        <time>2018-03-29T15:27:49Z</time>
      </trkpt>
      <trkpt lat="45.94337" lon="4.69007">
        <ele>337</ele>
        <time>2018-03-29T15:27:50Z</time>
      </trkpt>
      <trkpt lat="45.94343" lon="4.69006">
        <ele>337</ele>
        <time>2018-03-29T15:27:51Z</time>
      </trkpt>
      <trkpt lat="45.94349" lon="4.69007">
        <ele>338</ele>
        <time>2018-03-29T15:27:52Z</time>
      </trkpt>
      <trkpt lat="45.94354" lon="4.69004">
        <ele>338</ele>
        <time>2018-03-29T15:27:53Z</time>
      </trkpt>
      <trkpt lat="45.94359" lon="4.69005">
        <ele>338</ele>
        <time>2018-03-29T15:27:54Z</time>
      </trkpt>
      <trkpt lat="45.94365" lon="4.69006">
        <ele>338</ele>
        <time>2018-03-29T15:27:55Z</time>
      </trkpt>
      <trkpt lat="45.94371" lon="4.69007">
        <ele>338</ele>
        <time>2018-03-29T15:27:56Z</time>
      </trkpt>
      <trkpt lat="45.94376" lon="4.69007">
        <ele>338</ele>
        <time>2018-03-29T15:27:57Z</time>
      </trkpt>
      <trkpt lat="45.94382" lon="4.69007">
        <ele>338</ele>
        <time>2018-03-29T15:27:58Z</time>
      </trkpt>
      <trkpt lat="45.94387" lon="4.69007">
        <ele>338</ele>
        <time>2018-03-29T15:27:59Z</time>
      </trkpt>
      <trkpt lat="45.94393" lon="4.69007">
        <ele>338</ele>
        <time>2018-03-29T15:28:00Z</time>
      </trkpt>
      <trkpt lat="45.94399" lon="4.69008">
        <ele>339</ele>
        <time>2018-03-29T15:28:01Z</time>
      </trkpt>
      <trkpt lat="45.94403" lon="4.69007">
        <ele>339</ele>
        <time>2018-03-29T15:28:02Z</time>
      </trkpt>
      <trkpt lat="45.94409" lon="4.69007">
        <ele>339</ele>
        <time>2018-03-29T15:28:03Z</time>
      </trkpt>
      <trkpt lat="45.94414" lon="4.69007">
        <ele>339</ele>
        <time>2018-03-29T15:28:04Z</time>
      </trkpt>
      <trkpt lat="45.94418" lon="4.69007">
        <ele>339</ele>
        <time>2018-03-29T15:28:05Z</time>
      </trkpt>
      <trkpt lat="45.94424" lon="4.69007">
        <ele>340</ele>
        <time>2018-03-29T15:28:06Z</time>
      </trkpt>
      <trkpt lat="45.94429" lon="4.69008">
        <ele>340</ele>
        <time>2018-03-29T15:28:07Z</time>
      </trkpt>
      <trkpt lat="45.94434" lon="4.69008">
        <ele>340</ele>
        <time>2018-03-29T15:28:08Z</time>
      </trkpt>
      <trkpt lat="45.94439" lon="4.69008">
        <ele>340</ele>
        <time>2018-03-29T15:28:09Z</time>
      </trkpt>
      <trkpt lat="45.94444" lon="4.69008">
        <ele>340</ele>
        <time>2018-03-29T15:28:10Z</time>
      </trkpt>
      <trkpt lat="45.94449" lon="4.69007">
        <ele>340</ele>
        <time>2018-03-29T15:28:11Z</time>
      </trkpt>
      <trkpt lat="45.94454" lon="4.69009">
        <ele>340</ele>
        <time>2018-03-29T15:28:12Z</time>
      </trkpt>
      <trkpt lat="45.94459" lon="4.6901">
        <ele>341</ele>
        <time>2018-03-29T15:28:13Z</time>
      </trkpt>
      <trkpt lat="45.94464" lon="4.69011">
        <ele>341</ele>
        <time>2018-03-29T15:28:14Z</time>
      </trkpt>
      <trkpt lat="45.9447" lon="4.69012">
        <ele>341</ele>
        <time>2018-03-29T15:28:15Z</time>
      </trkpt>
      <trkpt lat="45.94475" lon="4.69012">
        <ele>341</ele>
        <time>2018-03-29T15:28:16Z</time>
      </trkpt>
      <trkpt lat="45.94479" lon="4.69013">
        <ele>341</ele>
        <time>2018-03-29T15:28:17Z</time>
      </trkpt>
      <trkpt lat="45.94484" lon="4.69014">
        <ele>341</ele>
        <time>2018-03-29T15:28:18Z</time>
      </trkpt>
      <trkpt lat="45.9449" lon="4.69014">
        <ele>341</ele>
        <time>2018-03-29T15:28:19Z</time>
      </trkpt>
      <trkpt lat="45.94494" lon="4.69015">
        <ele>341</ele>
        <time>2018-03-29T15:28:20Z</time>
      </trkpt>
      <trkpt lat="45.94499" lon="4.69016">
        <ele>341</ele>
        <time>2018-03-29T15:28:21Z</time>
      </trkpt>
      <trkpt lat="45.94504" lon="4.69017">
        <ele>342</ele>
        <time>2018-03-29T15:28:22Z</time>
      </trkpt>
      <trkpt lat="45.94509" lon="4.69019">
        <ele>342</ele>
        <time>2018-03-29T15:28:23Z</time>
      </trkpt>
      <trkpt lat="45.94517" lon="4.69021">
        <ele>342</ele>
        <time>2018-03-29T15:28:25Z</time>
      </trkpt>
      <trkpt lat="45.94524" lon="4.69024">
        <ele>342</ele>
        <time>2018-03-29T15:28:26Z</time>
      </trkpt>
      <trkpt lat="45.94529" lon="4.69026">
        <ele>342</ele>
        <time>2018-03-29T15:28:27Z</time>
      </trkpt>
      <trkpt lat="45.94534" lon="4.69027">
        <ele>342</ele>
        <time>2018-03-29T15:28:28Z</time>
      </trkpt>
      <trkpt lat="45.94539" lon="4.69029">
        <ele>342</ele>
        <time>2018-03-29T15:28:29Z</time>
      </trkpt>
      <trkpt lat="45.94544" lon="4.6903">
        <ele>342</ele>
        <time>2018-03-29T15:28:30Z</time>
      </trkpt>
      <trkpt lat="45.9455" lon="4.69031">
        <ele>342</ele>
        <time>2018-03-29T15:28:31Z</time>
      </trkpt>
      <trkpt lat="45.94555" lon="4.69032">
        <ele>342</ele>
        <time>2018-03-29T15:28:32Z</time>
      </trkpt>
      <trkpt lat="45.9456" lon="4.69032">
        <ele>342</ele>
        <time>2018-03-29T15:28:33Z</time>
      </trkpt>
      <trkpt lat="45.94565" lon="4.69034">
        <ele>342</ele>
        <time>2018-03-29T15:28:34Z</time>
      </trkpt>
      <trkpt lat="45.9457" lon="4.69036">
        <ele>342</ele>
        <time>2018-03-29T15:28:35Z</time>
      </trkpt>
      <trkpt lat="45.94575" lon="4.69037">
        <ele>342</ele>
        <time>2018-03-29T15:28:36Z</time>
      </trkpt>
      <trkpt lat="45.9458" lon="4.69038">
        <ele>342</ele>
        <time>2018-03-29T15:28:37Z</time>
      </trkpt>
      <trkpt lat="45.94585" lon="4.69041">
        <ele>342</ele>
        <time>2018-03-29T15:28:38Z</time>
      </trkpt>
      <trkpt lat="45.9459" lon="4.69042">
        <ele>342</ele>
        <time>2018-03-29T15:28:39Z</time>
      </trkpt>
      <trkpt lat="45.94594" lon="4.69043">
        <ele>342</ele>
        <time>2018-03-29T15:28:40Z</time>
      </trkpt>
      <trkpt lat="45.946" lon="4.69044">
        <ele>342</ele>
        <time>2018-03-29T15:28:41Z</time>
      </trkpt>
      <trkpt lat="45.94605" lon="4.69046">
        <ele>342</ele>
        <time>2018-03-29T15:28:42Z</time>
      </trkpt>
      <trkpt lat="45.9461" lon="4.69047">
        <ele>342</ele>
        <time>2018-03-29T15:28:43Z</time>
      </trkpt>
      <trkpt lat="45.94615" lon="4.69049">
        <ele>342</ele>
        <time>2018-03-29T15:28:44Z</time>
      </trkpt>
      <trkpt lat="45.9462" lon="4.69051">
        <ele>342</ele>
        <time>2018-03-29T15:28:45Z</time>
      </trkpt>
      <trkpt lat="45.94625" lon="4.69053">
        <ele>342</ele>
        <time>2018-03-29T15:28:46Z</time>
      </trkpt>
      <trkpt lat="45.9463" lon="4.69054">
        <ele>342</ele>
        <time>2018-03-29T15:28:47Z</time>
      </trkpt>
      <trkpt lat="45.94635" lon="4.69056">
        <ele>342</ele>
        <time>2018-03-29T15:28:48Z</time>
      </trkpt>
      <trkpt lat="45.9464" lon="4.69057">
        <ele>342</ele>
        <time>2018-03-29T15:28:49Z</time>
      </trkpt>
      <trkpt lat="45.94645" lon="4.69059">
        <ele>342</ele>
        <time>2018-03-29T15:28:50Z</time>
      </trkpt>
      <trkpt lat="45.9465" lon="4.6906">
        <ele>342</ele>
        <time>2018-03-29T15:28:51Z</time>
      </trkpt>
      <trkpt lat="45.94655" lon="4.6906">
        <ele>342</ele>
        <time>2018-03-29T15:28:52Z</time>
      </trkpt>
      <trkpt lat="45.94661" lon="4.69062">
        <ele>342</ele>
        <time>2018-03-29T15:28:53Z</time>
      </trkpt>
      <trkpt lat="45.94666" lon="4.69063">
        <ele>342</ele>
        <time>2018-03-29T15:28:54Z</time>
      </trkpt>
      <trkpt lat="45.94671" lon="4.69065">
        <ele>342</ele>
        <time>2018-03-29T15:28:55Z</time>
      </trkpt>
      <trkpt lat="45.94675" lon="4.69067">
        <ele>342</ele>
        <time>2018-03-29T15:28:56Z</time>
      </trkpt>
      <trkpt lat="45.9468" lon="4.69069">
        <ele>342</ele>
        <time>2018-03-29T15:28:57Z</time>
      </trkpt>
      <trkpt lat="45.94686" lon="4.6907">
        <ele>342</ele>
        <time>2018-03-29T15:28:58Z</time>
      </trkpt>
      <trkpt lat="45.94691" lon="4.69072">
        <ele>342</ele>
        <time>2018-03-29T15:28:59Z</time>
      </trkpt>
      <trkpt lat="45.94695" lon="4.69074">
        <ele>342</ele>
        <time>2018-03-29T15:29:00Z</time>
      </trkpt>
      <trkpt lat="45.94701" lon="4.69076">
        <ele>342</ele>
        <time>2018-03-29T15:29:01Z</time>
      </trkpt>
      <trkpt lat="45.94706" lon="4.69078">
        <ele>342</ele>
        <time>2018-03-29T15:29:02Z</time>
      </trkpt>
      <trkpt lat="45.9471" lon="4.69079">
        <ele>343</ele>
        <time>2018-03-29T15:29:03Z</time>
      </trkpt>
      <trkpt lat="45.94715" lon="4.69081">
        <ele>343</ele>
        <time>2018-03-29T15:29:04Z</time>
      </trkpt>
      <trkpt lat="45.9472" lon="4.69082">
        <ele>343</ele>
        <time>2018-03-29T15:29:05Z</time>
      </trkpt>
      <trkpt lat="45.94725" lon="4.69084">
        <ele>344</ele>
        <time>2018-03-29T15:29:06Z</time>
      </trkpt>
      <trkpt lat="45.9473" lon="4.69085">
        <ele>344</ele>
        <time>2018-03-29T15:29:07Z</time>
      </trkpt>
      <trkpt lat="45.94734" lon="4.69086">
        <ele>344</ele>
        <time>2018-03-29T15:29:08Z</time>
      </trkpt>
      <trkpt lat="45.9474" lon="4.69088">
        <ele>345</ele>
        <time>2018-03-29T15:29:09Z</time>
      </trkpt>
      <trkpt lat="45.94744" lon="4.69088">
        <ele>345</ele>
        <time>2018-03-29T15:29:10Z</time>
      </trkpt>
      <trkpt lat="45.94751" lon="4.69087">
        <ele>345</ele>
        <time>2018-03-29T15:29:11Z</time>
      </trkpt>
      <trkpt lat="45.94756" lon="4.69089">
        <ele>345</ele>
        <time>2018-03-29T15:29:12Z</time>
      </trkpt>
      <trkpt lat="45.94761" lon="4.69091">
        <ele>345</ele>
        <time>2018-03-29T15:29:13Z</time>
      </trkpt>
      <trkpt lat="45.94765" lon="4.69093">
        <ele>344</ele>
        <time>2018-03-29T15:29:14Z</time>
      </trkpt>
      <trkpt lat="45.94771" lon="4.69095">
        <ele>344</ele>
        <time>2018-03-29T15:29:15Z</time>
      </trkpt>
      <trkpt lat="45.94776" lon="4.69096">
        <ele>344</ele>
        <time>2018-03-29T15:29:16Z</time>
      </trkpt>
      <trkpt lat="45.94781" lon="4.69098">
        <ele>344</ele>
        <time>2018-03-29T15:29:17Z</time>
      </trkpt>
      <trkpt lat="45.94786" lon="4.691">
        <ele>344</ele>
        <time>2018-03-29T15:29:18Z</time>
      </trkpt>
      <trkpt lat="45.94792" lon="4.69101">
        <ele>344</ele>
        <time>2018-03-29T15:29:19Z</time>
      </trkpt>
      <trkpt lat="45.94798" lon="4.69101">
        <ele>344</ele>
        <time>2018-03-29T15:29:20Z</time>
      </trkpt>
      <trkpt lat="45.94804" lon="4.69103">
        <ele>344</ele>
        <time>2018-03-29T15:29:21Z</time>
      </trkpt>
      <trkpt lat="45.9481" lon="4.69105">
        <ele>344</ele>
        <time>2018-03-29T15:29:22Z</time>
      </trkpt>
      <trkpt lat="45.94816" lon="4.69108">
        <ele>344</ele>
        <time>2018-03-29T15:29:23Z</time>
      </trkpt>
      <trkpt lat="45.94823" lon="4.6911">
        <ele>344</ele>
        <time>2018-03-29T15:29:24Z</time>
      </trkpt>
      <trkpt lat="45.94831" lon="4.69109">
        <ele>344</ele>
        <time>2018-03-29T15:29:25Z</time>
      </trkpt>
      <trkpt lat="45.94837" lon="4.69111">
        <ele>342</ele>
        <time>2018-03-29T15:29:26Z</time>
      </trkpt>
      <trkpt lat="45.94844" lon="4.69114">
        <ele>342</ele>
        <time>2018-03-29T15:29:27Z</time>
      </trkpt>
      <trkpt lat="45.9485" lon="4.69116">
        <ele>342</ele>
        <time>2018-03-29T15:29:28Z</time>
      </trkpt>
      <trkpt lat="45.94856" lon="4.69118">
        <ele>342</ele>
        <time>2018-03-29T15:29:29Z</time>
      </trkpt>
      <trkpt lat="45.94862" lon="4.69122">
        <ele>342</ele>
        <time>2018-03-29T15:29:30Z</time>
      </trkpt>
      <trkpt lat="45.94868" lon="4.69125">
        <ele>342</ele>
        <time>2018-03-29T15:29:31Z</time>
      </trkpt>
      <trkpt lat="45.94874" lon="4.69129">
        <ele>342</ele>
        <time>2018-03-29T15:29:32Z</time>
      </trkpt>
      <trkpt lat="45.94881" lon="4.69132">
        <ele>342</ele>
        <time>2018-03-29T15:29:33Z</time>
      </trkpt>
      <trkpt lat="45.94886" lon="4.69135">
        <ele>342</ele>
        <time>2018-03-29T15:29:34Z</time>
      </trkpt>
      <trkpt lat="45.94892" lon="4.69138">
        <ele>342</ele>
        <time>2018-03-29T15:29:35Z</time>
      </trkpt>
      <trkpt lat="45.94898" lon="4.69142">
        <ele>342</ele>
        <time>2018-03-29T15:29:36Z</time>
      </trkpt>
      <trkpt lat="45.94904" lon="4.69146">
        <ele>342</ele>
        <time>2018-03-29T15:29:37Z</time>
      </trkpt>
      <trkpt lat="45.9491" lon="4.69149">
        <ele>342</ele>
        <time>2018-03-29T15:29:38Z</time>
      </trkpt>
      <trkpt lat="45.94917" lon="4.69153">
        <ele>340</ele>
        <time>2018-03-29T15:29:39Z</time>
      </trkpt>
      <trkpt lat="45.94923" lon="4.69158">
        <ele>340</ele>
        <time>2018-03-29T15:29:40Z</time>
      </trkpt>
      <trkpt lat="45.94929" lon="4.69162">
        <ele>340</ele>
        <time>2018-03-29T15:29:41Z</time>
      </trkpt>
      <trkpt lat="45.94935" lon="4.69166">
        <ele>340</ele>
        <time>2018-03-29T15:29:42Z</time>
      </trkpt>
      <trkpt lat="45.94942" lon="4.69171">
        <ele>341</ele>
        <time>2018-03-29T15:29:43Z</time>
      </trkpt>
      <trkpt lat="45.94948" lon="4.69175">
        <ele>340</ele>
        <time>2018-03-29T15:29:44Z</time>
      </trkpt>
      <trkpt lat="45.94955" lon="4.69181">
        <ele>340</ele>
        <time>2018-03-29T15:29:45Z</time>
      </trkpt>
      <trkpt lat="45.94961" lon="4.69186">
        <ele>340</ele>
        <time>2018-03-29T15:29:46Z</time>
      </trkpt>
      <trkpt lat="45.94968" lon="4.69192">
        <ele>340</ele>
        <time>2018-03-29T15:29:47Z</time>
      </trkpt>
      <trkpt lat="45.94974" lon="4.692">
        <ele>340</ele>
        <time>2018-03-29T15:29:48Z</time>
      </trkpt>
      <trkpt lat="45.94981" lon="4.69206">
        <ele>340</ele>
        <time>2018-03-29T15:29:49Z</time>
      </trkpt>
      <trkpt lat="45.94989" lon="4.6921">
        <ele>340</ele>
        <time>2018-03-29T15:29:50Z</time>
      </trkpt>
      <trkpt lat="45.94997" lon="4.69213">
        <ele>340</ele>
        <time>2018-03-29T15:29:51Z</time>
      </trkpt>
      <trkpt lat="45.95004" lon="4.69216">
        <ele>337</ele>
        <time>2018-03-29T15:29:52Z</time>
      </trkpt>
      <trkpt lat="45.95012" lon="4.69221">
        <ele>337</ele>
        <time>2018-03-29T15:29:53Z</time>
      </trkpt>
      <trkpt lat="45.95019" lon="4.69226">
        <ele>337</ele>
        <time>2018-03-29T15:29:54Z</time>
      </trkpt>
      <trkpt lat="45.95027" lon="4.69232">
        <ele>337</ele>
        <time>2018-03-29T15:29:55Z</time>
      </trkpt>
      <trkpt lat="45.95033" lon="4.69239">
        <ele>336</ele>
        <time>2018-03-29T15:29:56Z</time>
      </trkpt>
      <trkpt lat="45.9504" lon="4.69246">
        <ele>336</ele>
        <time>2018-03-29T15:29:57Z</time>
      </trkpt>
      <trkpt lat="45.95047" lon="4.69253">
        <ele>337</ele>
        <time>2018-03-29T15:29:58Z</time>
      </trkpt>
      <trkpt lat="45.95055" lon="4.6926">
        <ele>336</ele>
        <time>2018-03-29T15:29:59Z</time>
      </trkpt>
      <trkpt lat="45.95062" lon="4.69268">
        <ele>336</ele>
        <time>2018-03-29T15:30:00Z</time>
      </trkpt>
      <trkpt lat="45.95068" lon="4.69275">
        <ele>336</ele>
        <time>2018-03-29T15:30:01Z</time>
      </trkpt>
      <trkpt lat="45.95075" lon="4.69283">
        <ele>336</ele>
        <time>2018-03-29T15:30:02Z</time>
      </trkpt>
      <trkpt lat="45.95082" lon="4.6929">
        <ele>336</ele>
        <time>2018-03-29T15:30:03Z</time>
      </trkpt>
      <trkpt lat="45.95088" lon="4.69298">
        <ele>334</ele>
        <time>2018-03-29T15:30:04Z</time>
      </trkpt>
      <trkpt lat="45.95096" lon="4.69303">
        <ele>334</ele>
        <time>2018-03-29T15:30:05Z</time>
      </trkpt>
      <trkpt lat="45.95103" lon="4.6931">
        <ele>334</ele>
        <time>2018-03-29T15:30:06Z</time>
      </trkpt>
      <trkpt lat="45.95109" lon="4.69316">
        <ele>334</ele>
        <time>2018-03-29T15:30:07Z</time>
      </trkpt>
      <trkpt lat="45.95115" lon="4.69322">
        <ele>334</ele>
        <time>2018-03-29T15:30:08Z</time>
      </trkpt>
      <trkpt lat="45.95121" lon="4.69329">
        <ele>334</ele>
        <time>2018-03-29T15:30:09Z</time>
      </trkpt>
      <trkpt lat="45.95126" lon="4.69334">
        <ele>336</ele>
        <time>2018-03-29T15:30:10Z</time>
      </trkpt>
      <trkpt lat="45.95133" lon="4.6934">
        <ele>337</ele>
        <time>2018-03-29T15:30:11Z</time>
      </trkpt>
      <trkpt lat="45.9514" lon="4.69345">
        <ele>337</ele>
        <time>2018-03-29T15:30:12Z</time>
      </trkpt>
      <trkpt lat="45.95146" lon="4.6935">
        <ele>337</ele>
        <time>2018-03-29T15:30:13Z</time>
      </trkpt>
      <trkpt lat="45.9515" lon="4.69356">
        <ele>337</ele>
        <time>2018-03-29T15:30:14Z</time>
      </trkpt>
      <trkpt lat="45.95156" lon="4.69362">
        <ele>337</ele>
        <time>2018-03-29T15:30:15Z</time>
      </trkpt>
      <trkpt lat="45.9516" lon="4.69367">
        <ele>337</ele>
        <time>2018-03-29T15:30:16Z</time>
      </trkpt>
      <trkpt lat="45.95166" lon="4.69373">
        <ele>337</ele>
        <time>2018-03-29T15:30:17Z</time>
      </trkpt>
      <trkpt lat="45.9517" lon="4.69378">
        <ele>337</ele>
        <time>2018-03-29T15:30:18Z</time>
      </trkpt>
      <trkpt lat="45.95175" lon="4.69382">
        <ele>337</ele>
        <time>2018-03-29T15:30:19Z</time>
      </trkpt>
      <trkpt lat="45.9518" lon="4.69387">
        <ele>337</ele>
        <time>2018-03-29T15:30:20Z</time>
      </trkpt>
      <trkpt lat="45.95184" lon="4.69392">
        <ele>337</ele>
        <time>2018-03-29T15:30:21Z</time>
      </trkpt>
      <trkpt lat="45.95189" lon="4.69396">
        <ele>337</ele>
        <time>2018-03-29T15:30:22Z</time>
      </trkpt>
      <trkpt lat="45.95194" lon="4.694">
        <ele>337</ele>
        <time>2018-03-29T15:30:23Z</time>
      </trkpt>
      <trkpt lat="45.95199" lon="4.69404">
        <ele>337</ele>
        <time>2018-03-29T15:30:24Z</time>
      </trkpt>
      <trkpt lat="45.95204" lon="4.69407">
        <ele>337</ele>
        <time>2018-03-29T15:30:25Z</time>
      </trkpt>
      <trkpt lat="45.95209" lon="4.6941">
        <ele>337</ele>
        <time>2018-03-29T15:30:26Z</time>
      </trkpt>
      <trkpt lat="45.95215" lon="4.69412">
        <ele>337</ele>
        <time>2018-03-29T15:30:27Z</time>
      </trkpt>
      <trkpt lat="45.9522" lon="4.69415">
        <ele>337</ele>
        <time>2018-03-29T15:30:28Z</time>
      </trkpt>
      <trkpt lat="45.95224" lon="4.69419">
        <ele>340</ele>
        <time>2018-03-29T15:30:29Z</time>
      </trkpt>
      <trkpt lat="45.9523" lon="4.69421">
        <ele>340</ele>
        <time>2018-03-29T15:30:30Z</time>
      </trkpt>
      <trkpt lat="45.95235" lon="4.69424">
        <ele>339</ele>
        <time>2018-03-29T15:30:31Z</time>
      </trkpt>
      <trkpt lat="45.9524" lon="4.69426">
        <ele>339</ele>
        <time>2018-03-29T15:30:32Z</time>
      </trkpt>
      <trkpt lat="45.95245" lon="4.69429">
        <ele>339</ele>
        <time>2018-03-29T15:30:33Z</time>
      </trkpt>
      <trkpt lat="45.95249" lon="4.6943">
        <ele>339</ele>
        <time>2018-03-29T15:30:34Z</time>
      </trkpt>
      <trkpt lat="45.95255" lon="4.69432">
        <ele>338</ele>
        <time>2018-03-29T15:30:35Z</time>
      </trkpt>
      <trkpt lat="45.9526" lon="4.69435">
        <ele>338</ele>
        <time>2018-03-29T15:30:36Z</time>
      </trkpt>
      <trkpt lat="45.95266" lon="4.69437">
        <ele>338</ele>
        <time>2018-03-29T15:30:37Z</time>
      </trkpt>
      <trkpt lat="45.95272" lon="4.6944">
        <ele>339</ele>
        <time>2018-03-29T15:30:38Z</time>
      </trkpt>
      <trkpt lat="45.95277" lon="4.69442">
        <ele>338</ele>
        <time>2018-03-29T15:30:39Z</time>
      </trkpt>
      <trkpt lat="45.95282" lon="4.69445">
        <ele>338</ele>
        <time>2018-03-29T15:30:40Z</time>
      </trkpt>
      <trkpt lat="45.95286" lon="4.69447">
        <ele>338</ele>
        <time>2018-03-29T15:30:41Z</time>
      </trkpt>
      <trkpt lat="45.95291" lon="4.6945">
        <ele>338</ele>
        <time>2018-03-29T15:30:42Z</time>
      </trkpt>
      <trkpt lat="45.95296" lon="4.69452">
        <ele>338</ele>
        <time>2018-03-29T15:30:43Z</time>
      </trkpt>
      <trkpt lat="45.95302" lon="4.69454">
        <ele>338</ele>
        <time>2018-03-29T15:30:44Z</time>
      </trkpt>
      <trkpt lat="45.95306" lon="4.69457">
        <ele>338</ele>
        <time>2018-03-29T15:30:45Z</time>
      </trkpt>
      <trkpt lat="45.95312" lon="4.6946">
        <ele>338</ele>
        <time>2018-03-29T15:30:46Z</time>
      </trkpt>
      <trkpt lat="45.95317" lon="4.69463">
        <ele>339</ele>
        <time>2018-03-29T15:30:47Z</time>
      </trkpt>
      <trkpt lat="45.95322" lon="4.69465">
        <ele>339</ele>
        <time>2018-03-29T15:30:48Z</time>
      </trkpt>
      <trkpt lat="45.95328" lon="4.69468">
        <ele>339</ele>
        <time>2018-03-29T15:30:49Z</time>
      </trkpt>
      <trkpt lat="45.95333" lon="4.6947">
        <ele>339</ele>
        <time>2018-03-29T15:30:50Z</time>
      </trkpt>
      <trkpt lat="45.95339" lon="4.69473">
        <ele>337</ele>
        <time>2018-03-29T15:30:51Z</time>
      </trkpt>
      <trkpt lat="45.95343" lon="4.69478">
        <ele>337</ele>
        <time>2018-03-29T15:30:52Z</time>
      </trkpt>
      <trkpt lat="45.95349" lon="4.69481">
        <ele>337</ele>
        <time>2018-03-29T15:30:53Z</time>
      </trkpt>
      <trkpt lat="45.95355" lon="4.69486">
        <ele>337</ele>
        <time>2018-03-29T15:30:54Z</time>
      </trkpt>
      <trkpt lat="45.9536" lon="4.6949">
        <ele>337</ele>
        <time>2018-03-29T15:30:55Z</time>
      </trkpt>
      <trkpt lat="45.95366" lon="4.69494">
        <ele>337</ele>
        <time>2018-03-29T15:30:56Z</time>
      </trkpt>
      <trkpt lat="45.95373" lon="4.69498">
        <ele>337</ele>
        <time>2018-03-29T15:30:57Z</time>
      </trkpt>
      <trkpt lat="45.95378" lon="4.69501">
        <ele>340</ele>
        <time>2018-03-29T15:30:58Z</time>
      </trkpt>
      <trkpt lat="45.95384" lon="4.69505">
        <ele>340</ele>
        <time>2018-03-29T15:30:59Z</time>
      </trkpt>
      <trkpt lat="45.95389" lon="4.69509">
        <ele>340</ele>
        <time>2018-03-29T15:31:00Z</time>
      </trkpt>
      <trkpt lat="45.95395" lon="4.69512">
        <ele>339</ele>
        <time>2018-03-29T15:31:01Z</time>
      </trkpt>
      <trkpt lat="45.954" lon="4.69517">
        <ele>339</ele>
        <time>2018-03-29T15:31:02Z</time>
      </trkpt>
      <trkpt lat="45.95406" lon="4.6952">
        <ele>339</ele>
        <time>2018-03-29T15:31:03Z</time>
      </trkpt>
      <trkpt lat="45.95413" lon="4.69524">
        <ele>339</ele>
        <time>2018-03-29T15:31:04Z</time>
      </trkpt>
      <trkpt lat="45.95418" lon="4.69528">
        <ele>337</ele>
        <time>2018-03-29T15:31:05Z</time>
      </trkpt>
      <trkpt lat="45.95425" lon="4.69532">
        <ele>337</ele>
        <time>2018-03-29T15:31:06Z</time>
      </trkpt>
      <trkpt lat="45.9543" lon="4.69535">
        <ele>337</ele>
        <time>2018-03-29T15:31:07Z</time>
      </trkpt>
      <trkpt lat="45.95435" lon="4.69538">
        <ele>337</ele>
        <time>2018-03-29T15:31:08Z</time>
      </trkpt>
      <trkpt lat="45.95442" lon="4.6954">
        <ele>337</ele>
        <time>2018-03-29T15:31:09Z</time>
      </trkpt>
      <trkpt lat="45.95448" lon="4.69543">
        <ele>337</ele>
        <time>2018-03-29T15:31:10Z</time>
      </trkpt>
      <trkpt lat="45.95454" lon="4.69547">
        <ele>337</ele>
        <time>2018-03-29T15:31:11Z</time>
      </trkpt>
      <trkpt lat="45.9546" lon="4.6955">
        <ele>337</ele>
        <time>2018-03-29T15:31:12Z</time>
      </trkpt>
      <trkpt lat="45.95467" lon="4.69553">
        <ele>337</ele>
        <time>2018-03-29T15:31:13Z</time>
      </trkpt>
      <trkpt lat="45.95473" lon="4.69557">
        <ele>336</ele>
        <time>2018-03-29T15:31:14Z</time>
      </trkpt>
      <trkpt lat="45.9548" lon="4.6956">
        <ele>336</ele>
        <time>2018-03-29T15:31:15Z</time>
      </trkpt>
      <trkpt lat="45.95486" lon="4.69564">
        <ele>337</ele>
        <time>2018-03-29T15:31:16Z</time>
      </trkpt>
      <trkpt lat="45.95493" lon="4.69567">
        <ele>337</ele>
        <time>2018-03-29T15:31:17Z</time>
      </trkpt>
      <trkpt lat="45.955" lon="4.6957">
        <ele>335</ele>
        <time>2018-03-29T15:31:18Z</time>
      </trkpt>
      <trkpt lat="45.95507" lon="4.69573">
        <ele>335</ele>
        <time>2018-03-29T15:31:19Z</time>
      </trkpt>
      <trkpt lat="45.95515" lon="4.69576">
        <ele>334</ele>
        <time>2018-03-29T15:31:20Z</time>
      </trkpt>
      <trkpt lat="45.95523" lon="4.69579">
        <ele>333</ele>
        <time>2018-03-29T15:31:21Z</time>
      </trkpt>
      <trkpt lat="45.95531" lon="4.69582">
        <ele>332</ele>
        <time>2018-03-29T15:31:22Z</time>
      </trkpt>
      <trkpt lat="45.95538" lon="4.69585">
        <ele>332</ele>
        <time>2018-03-29T15:31:23Z</time>
      </trkpt>
      <trkpt lat="45.95546" lon="4.69588">
        <ele>331</ele>
        <time>2018-03-29T15:31:24Z</time>
      </trkpt>
      <trkpt lat="45.95554" lon="4.69592">
        <ele>331</ele>
        <time>2018-03-29T15:31:25Z</time>
      </trkpt>
      <trkpt lat="45.95562" lon="4.69595">
        <ele>330</ele>
        <time>2018-03-29T15:31:26Z</time>
      </trkpt>
      <trkpt lat="45.9557" lon="4.69599">
        <ele>330</ele>
        <time>2018-03-29T15:31:27Z</time>
      </trkpt>
      <trkpt lat="45.95578" lon="4.69601">
        <ele>330</ele>
        <time>2018-03-29T15:31:28Z</time>
      </trkpt>
      <trkpt lat="45.95586" lon="4.69606">
        <ele>328</ele>
        <time>2018-03-29T15:31:29Z</time>
      </trkpt>
      <trkpt lat="45.95594" lon="4.69609">
        <ele>328</ele>
        <time>2018-03-29T15:31:30Z</time>
      </trkpt>
      <trkpt lat="45.95602" lon="4.69614">
        <ele>328</ele>
        <time>2018-03-29T15:31:31Z</time>
      </trkpt>
      <trkpt lat="45.95611" lon="4.69618">
        <ele>328</ele>
        <time>2018-03-29T15:31:32Z</time>
      </trkpt>
      <trkpt lat="45.95618" lon="4.69621">
        <ele>328</ele>
        <time>2018-03-29T15:31:33Z</time>
      </trkpt>
      <trkpt lat="45.95625" lon="4.69625">
        <ele>328</ele>
        <time>2018-03-29T15:31:34Z</time>
      </trkpt>
      <trkpt lat="45.95634" lon="4.69628">
        <ele>328</ele>
        <time>2018-03-29T15:31:35Z</time>
      </trkpt>
      <trkpt lat="45.95641" lon="4.69632">
        <ele>328</ele>
        <time>2018-03-29T15:31:36Z</time>
      </trkpt>
      <trkpt lat="45.95649" lon="4.69636">
        <ele>328</ele>
        <time>2018-03-29T15:31:37Z</time>
      </trkpt>
      <trkpt lat="45.95657" lon="4.6964">
        <ele>327</ele>
        <time>2018-03-29T15:31:38Z</time>
      </trkpt>
      <trkpt lat="45.95665" lon="4.69643">
        <ele>327</ele>
        <time>2018-03-29T15:31:39Z</time>
      </trkpt>
      <trkpt lat="45.95673" lon="4.69646">
        <ele>326</ele>
        <time>2018-03-29T15:31:40Z</time>
      </trkpt>
      <trkpt lat="45.95681" lon="4.69649">
        <ele>326</ele>
        <time>2018-03-29T15:31:41Z</time>
      </trkpt>
      <trkpt lat="45.95689" lon="4.69653">
        <ele>326</ele>
        <time>2018-03-29T15:31:42Z</time>
      </trkpt>
      <trkpt lat="45.95697" lon="4.69655">
        <ele>326</ele>
        <time>2018-03-29T15:31:43Z</time>
      </trkpt>
      <trkpt lat="45.95705" lon="4.69658">
        <ele>326</ele>
        <time>2018-03-29T15:31:44Z</time>
      </trkpt>
      <trkpt lat="45.95712" lon="4.69661">
        <ele>326</ele>
        <time>2018-03-29T15:31:45Z</time>
      </trkpt>
      <trkpt lat="45.95719" lon="4.69663">
        <ele>326</ele>
        <time>2018-03-29T15:31:46Z</time>
      </trkpt>
      <trkpt lat="45.95727" lon="4.69666">
        <ele>326</ele>
        <time>2018-03-29T15:31:47Z</time>
      </trkpt>
      <trkpt lat="45.95734" lon="4.69671">
        <ele>326</ele>
        <time>2018-03-29T15:31:48Z</time>
      </trkpt>
      <trkpt lat="45.95741" lon="4.69675">
        <ele>326</ele>
        <time>2018-03-29T15:31:49Z</time>
      </trkpt>
      <trkpt lat="45.95748" lon="4.69678">
        <ele>326</ele>
        <time>2018-03-29T15:31:50Z</time>
      </trkpt>
      <trkpt lat="45.95755" lon="4.69682">
        <ele>326</ele>
        <time>2018-03-29T15:31:51Z</time>
      </trkpt>
      <trkpt lat="45.95761" lon="4.69684">
        <ele>326</ele>
        <time>2018-03-29T15:31:52Z</time>
      </trkpt>
      <trkpt lat="45.95768" lon="4.69685">
        <ele>326</ele>
        <time>2018-03-29T15:31:53Z</time>
      </trkpt>
      <trkpt lat="45.95774" lon="4.69689">
        <ele>326</ele>
        <time>2018-03-29T15:31:54Z</time>
      </trkpt>
      <trkpt lat="45.9578" lon="4.69695">
        <ele>326</ele>
        <time>2018-03-29T15:31:55Z</time>
      </trkpt>
      <trkpt lat="45.95785" lon="4.69701">
        <ele>326</ele>
        <time>2018-03-29T15:31:56Z</time>
      </trkpt>
      <trkpt lat="45.95789" lon="4.69707">
        <ele>326</ele>
        <time>2018-03-29T15:31:57Z</time>
      </trkpt>
      <trkpt lat="45.95793" lon="4.69714">
        <ele>326</ele>
        <time>2018-03-29T15:31:58Z</time>
      </trkpt>
      <trkpt lat="45.95797" lon="4.69719">
        <ele>326</ele>
        <time>2018-03-29T15:31:59Z</time>
      </trkpt>
      <trkpt lat="45.95801" lon="4.69725">
        <ele>326</ele>
        <time>2018-03-29T15:32:00Z</time>
      </trkpt>
      <trkpt lat="45.95805" lon="4.69731">
        <ele>326</ele>
        <time>2018-03-29T15:32:01Z</time>
      </trkpt>
      <trkpt lat="45.95809" lon="4.69737">
        <ele>327</ele>
        <time>2018-03-29T15:32:02Z</time>
      </trkpt>
      <trkpt lat="45.95814" lon="4.69743">
        <ele>327</ele>
        <time>2018-03-29T15:32:03Z</time>
      </trkpt>
      <trkpt lat="45.95818" lon="4.69749">
        <ele>327</ele>
        <time>2018-03-29T15:32:04Z</time>
      </trkpt>
      <trkpt lat="45.9582" lon="4.69754">
        <ele>328</ele>
        <time>2018-03-29T15:32:05Z</time>
      </trkpt>
      <trkpt lat="45.95824" lon="4.6976">
        <ele>328</ele>
        <time>2018-03-29T15:32:06Z</time>
      </trkpt>
      <trkpt lat="45.95827" lon="4.69767">
        <ele>328</ele>
        <time>2018-03-29T15:32:07Z</time>
      </trkpt>
      <trkpt lat="45.9583" lon="4.69772">
        <ele>328</ele>
        <time>2018-03-29T15:32:08Z</time>
      </trkpt>
      <trkpt lat="45.95834" lon="4.69777">
        <ele>327</ele>
        <time>2018-03-29T15:32:09Z</time>
      </trkpt>
      <trkpt lat="45.95837" lon="4.69783">
        <ele>327</ele>
        <time>2018-03-29T15:32:10Z</time>
      </trkpt>
      <trkpt lat="45.9584" lon="4.69788">
        <ele>327</ele>
        <time>2018-03-29T15:32:11Z</time>
      </trkpt>
      <trkpt lat="45.95843" lon="4.69794">
        <ele>327</ele>
        <time>2018-03-29T15:32:12Z</time>
      </trkpt>
      <trkpt lat="45.95846" lon="4.69799">
        <ele>327</ele>
        <time>2018-03-29T15:32:13Z</time>
      </trkpt>
      <trkpt lat="45.95849" lon="4.69804">
        <ele>327</ele>
        <time>2018-03-29T15:32:14Z</time>
      </trkpt>
      <trkpt lat="45.95851" lon="4.6981">
        <ele>328</ele>
        <time>2018-03-29T15:32:15Z</time>
      </trkpt>
      <trkpt lat="45.95856" lon="4.6982">
        <ele>328</ele>
        <time>2018-03-29T15:32:17Z</time>
      </trkpt>
      <trkpt lat="45.95858" lon="4.69826">
        <ele>328</ele>
        <time>2018-03-29T15:32:18Z</time>
      </trkpt>
      <trkpt lat="45.9586" lon="4.69832">
        <ele>328</ele>
        <time>2018-03-29T15:32:19Z</time>
      </trkpt>
      <trkpt lat="45.95862" lon="4.69837">
        <ele>329</ele>
        <time>2018-03-29T15:32:20Z</time>
      </trkpt>
      <trkpt lat="45.95867" lon="4.69847">
        <ele>329</ele>
        <time>2018-03-29T15:32:22Z</time>
      </trkpt>
      <trkpt lat="45.95868" lon="4.69853">
        <ele>329</ele>
        <time>2018-03-29T15:32:23Z</time>
      </trkpt>
      <trkpt lat="45.95871" lon="4.69858">
        <ele>329</ele>
        <time>2018-03-29T15:32:24Z</time>
      </trkpt>
      <trkpt lat="45.95872" lon="4.69865">
        <ele>329</ele>
        <time>2018-03-29T15:32:25Z</time>
      </trkpt>
      <trkpt lat="45.95874" lon="4.69871">
        <ele>329</ele>
        <time>2018-03-29T15:32:26Z</time>
      </trkpt>
      <trkpt lat="45.95876" lon="4.69878">
        <ele>329</ele>
        <time>2018-03-29T15:32:27Z</time>
      </trkpt>
      <trkpt lat="45.95877" lon="4.69885">
        <ele>329</ele>
        <time>2018-03-29T15:32:28Z</time>
      </trkpt>
      <trkpt lat="45.95879" lon="4.69893">
        <ele>329</ele>
        <time>2018-03-29T15:32:29Z</time>
      </trkpt>
      <trkpt lat="45.9588" lon="4.699">
        <ele>329</ele>
        <time>2018-03-29T15:32:30Z</time>
      </trkpt>
      <trkpt lat="45.95882" lon="4.69907">
        <ele>329</ele>
        <time>2018-03-29T15:32:31Z</time>
      </trkpt>
      <trkpt lat="45.95884" lon="4.69915">
        <ele>329</ele>
        <time>2018-03-29T15:32:32Z</time>
      </trkpt>
      <trkpt lat="45.95885" lon="4.69922">
        <ele>328</ele>
        <time>2018-03-29T15:32:33Z</time>
      </trkpt>
      <trkpt lat="45.95887" lon="4.6993">
        <ele>328</ele>
        <time>2018-03-29T15:32:34Z</time>
      </trkpt>
      <trkpt lat="45.95889" lon="4.69936">
        <ele>328</ele>
        <time>2018-03-29T15:32:35Z</time>
      </trkpt>
      <trkpt lat="45.95892" lon="4.69943">
        <ele>328</ele>
        <time>2018-03-29T15:32:36Z</time>
      </trkpt>
      <trkpt lat="45.95893" lon="4.69949">
        <ele>328</ele>
        <time>2018-03-29T15:32:37Z</time>
      </trkpt>
      <trkpt lat="45.95895" lon="4.69956">
        <ele>328</ele>
        <time>2018-03-29T15:32:38Z</time>
      </trkpt>
      <trkpt lat="45.95897" lon="4.69963">
        <ele>328</ele>
        <time>2018-03-29T15:32:39Z</time>
      </trkpt>
      <trkpt lat="45.95898" lon="4.6997">
        <ele>328</ele>
        <time>2018-03-29T15:32:40Z</time>
      </trkpt>
      <trkpt lat="45.95901" lon="4.69976">
        <ele>328</ele>
        <time>2018-03-29T15:32:41Z</time>
      </trkpt>
      <trkpt lat="45.95902" lon="4.69982">
        <ele>328</ele>
        <time>2018-03-29T15:32:42Z</time>
      </trkpt>
      <trkpt lat="45.95905" lon="4.69989">
        <ele>328</ele>
        <time>2018-03-29T15:32:43Z</time>
      </trkpt>
      <trkpt lat="45.95909" lon="4.7">
        <ele>328</ele>
        <time>2018-03-29T15:32:45Z</time>
      </trkpt>
      <trkpt lat="45.95912" lon="4.70005">
        <ele>328</ele>
        <time>2018-03-29T15:32:46Z</time>
      </trkpt>
      <trkpt lat="45.95915" lon="4.7001">
        <ele>328</ele>
        <time>2018-03-29T15:32:47Z</time>
      </trkpt>
      <trkpt lat="45.95918" lon="4.70017">
        <ele>328</ele>
        <time>2018-03-29T15:32:48Z</time>
      </trkpt>
      <trkpt lat="45.95921" lon="4.70023">
        <ele>328</ele>
        <time>2018-03-29T15:32:49Z</time>
      </trkpt>
      <trkpt lat="45.95924" lon="4.70029">
        <ele>328</ele>
        <time>2018-03-29T15:32:50Z</time>
      </trkpt>
      <trkpt lat="45.95927" lon="4.70035">
        <ele>328</ele>
        <time>2018-03-29T15:32:51Z</time>
      </trkpt>
      <trkpt lat="45.9593" lon="4.70041">
        <ele>328</ele>
        <time>2018-03-29T15:32:52Z</time>
      </trkpt>
      <trkpt lat="45.95933" lon="4.70046">
        <ele>328</ele>
        <time>2018-03-29T15:32:53Z</time>
      </trkpt>
      <trkpt lat="45.95936" lon="4.70052">
        <ele>328</ele>
        <time>2018-03-29T15:32:54Z</time>
      </trkpt>
      <trkpt lat="45.9594" lon="4.70056">
        <ele>328</ele>
        <time>2018-03-29T15:32:55Z</time>
      </trkpt>
      <trkpt lat="45.95943" lon="4.70062">
        <ele>328</ele>
        <time>2018-03-29T15:32:56Z</time>
      </trkpt>
      <trkpt lat="45.95946" lon="4.70067">
        <ele>328</ele>
        <time>2018-03-29T15:32:57Z</time>
      </trkpt>
      <trkpt lat="45.9595" lon="4.70072">
        <ele>328</ele>
        <time>2018-03-29T15:32:58Z</time>
      </trkpt>
      <trkpt lat="45.95954" lon="4.70076">
        <ele>328</ele>
        <time>2018-03-29T15:32:59Z</time>
      </trkpt>
      <trkpt lat="45.95958" lon="4.70081">
        <ele>328</ele>
        <time>2018-03-29T15:33:00Z</time>
      </trkpt>
      <trkpt lat="45.95961" lon="4.70085">
        <ele>328</ele>
        <time>2018-03-29T15:33:01Z</time>
      </trkpt>
      <trkpt lat="45.95965" lon="4.70089">
        <ele>328</ele>
        <time>2018-03-29T15:33:02Z</time>
      </trkpt>
      <trkpt lat="45.95969" lon="4.70094">
        <ele>328</ele>
        <time>2018-03-29T15:33:03Z</time>
      </trkpt>
      <trkpt lat="45.95972" lon="4.70098">
        <ele>328</ele>
        <time>2018-03-29T15:33:04Z</time>
      </trkpt>
      <trkpt lat="45.95976" lon="4.70101">
        <ele>328</ele>
        <time>2018-03-29T15:33:05Z</time>
      </trkpt>
      <trkpt lat="45.9598" lon="4.70106">
        <ele>328</ele>
        <time>2018-03-29T15:33:06Z</time>
      </trkpt>
      <trkpt lat="45.95984" lon="4.7011">
        <ele>328</ele>
        <time>2018-03-29T15:33:07Z</time>
      </trkpt>
      <trkpt lat="45.95988" lon="4.70114">
        <ele>328</ele>
        <time>2018-03-29T15:33:08Z</time>
      </trkpt>
      <trkpt lat="45.95995" lon="4.70121">
        <ele>328</ele>
        <time>2018-03-29T15:33:10Z</time>
      </trkpt>
      <trkpt lat="45.95999" lon="4.70125">
        <ele>328</ele>
        <time>2018-03-29T15:33:11Z</time>
      </trkpt>
      <trkpt lat="45.96003" lon="4.70128">
        <ele>328</ele>
        <time>2018-03-29T15:33:12Z</time>
      </trkpt>
      <trkpt lat="45.96006" lon="4.70132">
        <ele>328</ele>
        <time>2018-03-29T15:33:13Z</time>
      </trkpt>
      <trkpt lat="45.96012" lon="4.70139">
        <ele>328</ele>
        <time>2018-03-29T15:33:15Z</time>
      </trkpt>
      <trkpt lat="45.96016" lon="4.70141">
        <ele>329</ele>
        <time>2018-03-29T15:33:16Z</time>
      </trkpt>
      <trkpt lat="45.9602" lon="4.70146">
        <ele>329</ele>
        <time>2018-03-29T15:33:17Z</time>
      </trkpt>
      <trkpt lat="45.96025" lon="4.7015">
        <ele>329</ele>
        <time>2018-03-29T15:33:18Z</time>
      </trkpt>
      <trkpt lat="45.96029" lon="4.70154">
        <ele>329</ele>
        <time>2018-03-29T15:33:19Z</time>
      </trkpt>
      <trkpt lat="45.96034" lon="4.70159">
        <ele>329</ele>
        <time>2018-03-29T15:33:20Z</time>
      </trkpt>
      <trkpt lat="45.9604" lon="4.70163">
        <ele>329</ele>
        <time>2018-03-29T15:33:21Z</time>
      </trkpt>
      <trkpt lat="45.96046" lon="4.70167">
        <ele>327</ele>
        <time>2018-03-29T15:33:22Z</time>
      </trkpt>
      <trkpt lat="45.96051" lon="4.70172">
        <ele>327</ele>
        <time>2018-03-29T15:33:23Z</time>
      </trkpt>
      <trkpt lat="45.96056" lon="4.70177">
        <ele>327</ele>
        <time>2018-03-29T15:33:24Z</time>
      </trkpt>
      <trkpt lat="45.96062" lon="4.70182">
        <ele>327</ele>
        <time>2018-03-29T15:33:25Z</time>
      </trkpt>
      <trkpt lat="45.96067" lon="4.70187">
        <ele>327</ele>
        <time>2018-03-29T15:33:26Z</time>
      </trkpt>
      <trkpt lat="45.96073" lon="4.70192">
        <ele>327</ele>
        <time>2018-03-29T15:33:27Z</time>
      </trkpt>
      <trkpt lat="45.96078" lon="4.70196">
        <ele>327</ele>
        <time>2018-03-29T15:33:28Z</time>
      </trkpt>
      <trkpt lat="45.96084" lon="4.70201">
        <ele>327</ele>
        <time>2018-03-29T15:33:29Z</time>
      </trkpt>
      <trkpt lat="45.96089" lon="4.70206">
        <ele>327</ele>
        <time>2018-03-29T15:33:30Z</time>
      </trkpt>
      <trkpt lat="45.96095" lon="4.70211">
        <ele>327</ele>
        <time>2018-03-29T15:33:31Z</time>
      </trkpt>
      <trkpt lat="45.961" lon="4.70217">
        <ele>327</ele>
        <time>2018-03-29T15:33:32Z</time>
      </trkpt>
      <trkpt lat="45.96106" lon="4.70222">
        <ele>327</ele>
        <time>2018-03-29T15:33:33Z</time>
      </trkpt>
      <trkpt lat="45.96111" lon="4.70227">
        <ele>327</ele>
        <time>2018-03-29T15:33:34Z</time>
      </trkpt>
      <trkpt lat="45.96117" lon="4.70233">
        <ele>327</ele>
        <time>2018-03-29T15:33:35Z</time>
      </trkpt>
      <trkpt lat="45.96123" lon="4.70238">
        <ele>327</ele>
        <time>2018-03-29T15:33:36Z</time>
      </trkpt>
      <trkpt lat="45.96129" lon="4.70243">
        <ele>327</ele>
        <time>2018-03-29T15:33:37Z</time>
      </trkpt>
      <trkpt lat="45.96134" lon="4.70249">
        <ele>327</ele>
        <time>2018-03-29T15:33:38Z</time>
      </trkpt>
      <trkpt lat="45.9614" lon="4.70255">
        <ele>324</ele>
        <time>2018-03-29T15:33:39Z</time>
      </trkpt>
      <trkpt lat="45.96146" lon="4.70261">
        <ele>324</ele>
        <time>2018-03-29T15:33:40Z</time>
      </trkpt>
      <trkpt lat="45.96152" lon="4.70267">
        <ele>324</ele>
        <time>2018-03-29T15:33:41Z</time>
      </trkpt>
      <trkpt lat="45.96157" lon="4.70273">
        <ele>324</ele>
        <time>2018-03-29T15:33:42Z</time>
      </trkpt>
      <trkpt lat="45.96162" lon="4.70279">
        <ele>323</ele>
        <time>2018-03-29T15:33:43Z</time>
      </trkpt>
      <trkpt lat="45.96167" lon="4.70285">
        <ele>326</ele>
        <time>2018-03-29T15:33:44Z</time>
      </trkpt>
      <trkpt lat="45.96173" lon="4.70292">
        <ele>326</ele>
        <time>2018-03-29T15:33:45Z</time>
      </trkpt>
      <trkpt lat="45.96178" lon="4.70299">
        <ele>325</ele>
        <time>2018-03-29T15:33:46Z</time>
      </trkpt>
      <trkpt lat="45.96183" lon="4.70306">
        <ele>325</ele>
        <time>2018-03-29T15:33:47Z</time>
      </trkpt>
      <trkpt lat="45.96188" lon="4.70313">
        <ele>325</ele>
        <time>2018-03-29T15:33:48Z</time>
      </trkpt>
      <trkpt lat="45.96193" lon="4.7032">
        <ele>325</ele>
        <time>2018-03-29T15:33:49Z</time>
      </trkpt>
      <trkpt lat="45.96197" lon="4.70328">
        <ele>325</ele>
        <time>2018-03-29T15:33:50Z</time>
      </trkpt>
      <trkpt lat="45.96202" lon="4.70336">
        <ele>320</ele>
        <time>2018-03-29T15:33:51Z</time>
      </trkpt>
      <trkpt lat="45.96207" lon="4.70343">
        <ele>321</ele>
        <time>2018-03-29T15:33:52Z</time>
      </trkpt>
      <trkpt lat="45.96211" lon="4.70351">
        <ele>321</ele>
        <time>2018-03-29T15:33:53Z</time>
      </trkpt>
      <trkpt lat="45.96216" lon="4.70358">
        <ele>321</ele>
        <time>2018-03-29T15:33:54Z</time>
      </trkpt>
      <trkpt lat="45.96221" lon="4.70365">
        <ele>321</ele>
        <time>2018-03-29T15:33:55Z</time>
      </trkpt>
      <trkpt lat="45.96226" lon="4.70373">
        <ele>320</ele>
        <time>2018-03-29T15:33:56Z</time>
      </trkpt>
      <trkpt lat="45.9623" lon="4.7038">
        <ele>320</ele>
        <time>2018-03-29T15:33:57Z</time>
      </trkpt>
      <trkpt lat="45.96236" lon="4.70388">
        <ele>320</ele>
        <time>2018-03-29T15:33:58Z</time>
      </trkpt>
      <trkpt lat="45.9624" lon="4.70396">
        <ele>320</ele>
        <time>2018-03-29T15:33:59Z</time>
      </trkpt>
      <trkpt lat="45.96246" lon="4.70403">
        <ele>320</ele>
        <time>2018-03-29T15:34:00Z</time>
      </trkpt>
      <trkpt lat="45.96251" lon="4.7041">
        <ele>322</ele>
        <time>2018-03-29T15:34:01Z</time>
      </trkpt>
      <trkpt lat="45.96256" lon="4.70418">
        <ele>320</ele>
        <time>2018-03-29T15:34:02Z</time>
      </trkpt>
      <trkpt lat="45.96261" lon="4.70425">
        <ele>320</ele>
        <time>2018-03-29T15:34:03Z</time>
      </trkpt>
      <trkpt lat="45.96267" lon="4.70433">
        <ele>321</ele>
        <time>2018-03-29T15:34:04Z</time>
      </trkpt>
      <trkpt lat="45.9627" lon="4.70441">
        <ele>321</ele>
        <time>2018-03-29T15:34:05Z</time>
      </trkpt>
      <trkpt lat="45.96275" lon="4.70449">
        <ele>320</ele>
        <time>2018-03-29T15:34:06Z</time>
      </trkpt>
      <trkpt lat="45.9628" lon="4.70457">
        <ele>320</ele>
        <time>2018-03-29T15:34:07Z</time>
      </trkpt>
      <trkpt lat="45.96285" lon="4.70464">
        <ele>320</ele>
        <time>2018-03-29T15:34:08Z</time>
      </trkpt>
      <trkpt lat="45.96291" lon="4.70472">
        <ele>320</ele>
        <time>2018-03-29T15:34:09Z</time>
      </trkpt>
      <trkpt lat="45.96296" lon="4.7048">
        <ele>320</ele>
        <time>2018-03-29T15:34:10Z</time>
      </trkpt>
      <trkpt lat="45.96301" lon="4.70488">
        <ele>320</ele>
        <time>2018-03-29T15:34:11Z</time>
      </trkpt>
      <trkpt lat="45.96307" lon="4.70494">
        <ele>320</ele>
        <time>2018-03-29T15:34:12Z</time>
      </trkpt>
      <trkpt lat="45.96312" lon="4.70502">
        <ele>316</ele>
        <time>2018-03-29T15:34:13Z</time>
      </trkpt>
      <trkpt lat="45.96318" lon="4.70508">
        <ele>316</ele>
        <time>2018-03-29T15:34:14Z</time>
      </trkpt>
      <trkpt lat="45.96325" lon="4.70515">
        <ele>316</ele>
        <time>2018-03-29T15:34:15Z</time>
      </trkpt>
      <trkpt lat="45.9633" lon="4.70522">
        <ele>315</ele>
        <time>2018-03-29T15:34:16Z</time>
      </trkpt>
      <trkpt lat="45.96337" lon="4.7053">
        <ele>319</ele>
        <time>2018-03-29T15:34:17Z</time>
      </trkpt>
      <trkpt lat="45.96343" lon="4.70539">
        <ele>318</ele>
        <time>2018-03-29T15:34:18Z</time>
      </trkpt>
      <trkpt lat="45.96349" lon="4.70547">
        <ele>318</ele>
        <time>2018-03-29T15:34:19Z</time>
      </trkpt>
      <trkpt lat="45.96356" lon="4.70555">
        <ele>318</ele>
        <time>2018-03-29T15:34:20Z</time>
      </trkpt>
      <trkpt lat="45.96362" lon="4.70564">
        <ele>317</ele>
        <time>2018-03-29T15:34:21Z</time>
      </trkpt>
      <trkpt lat="45.96369" lon="4.70573">
        <ele>317</ele>
        <time>2018-03-29T15:34:22Z</time>
      </trkpt>
      <trkpt lat="45.96375" lon="4.70582">
        <ele>318</ele>
        <time>2018-03-29T15:34:23Z</time>
      </trkpt>
      <trkpt lat="45.96383" lon="4.70589">
        <ele>312</ele>
        <time>2018-03-29T15:34:24Z</time>
      </trkpt>
      <trkpt lat="45.9639" lon="4.70597">
        <ele>312</ele>
        <time>2018-03-29T15:34:25Z</time>
      </trkpt>
      <trkpt lat="45.96397" lon="4.70605">
        <ele>312</ele>
        <time>2018-03-29T15:34:26Z</time>
      </trkpt>
      <trkpt lat="45.96404" lon="4.70614">
        <ele>312</ele>
        <time>2018-03-29T15:34:27Z</time>
      </trkpt>
      <trkpt lat="45.96412" lon="4.70622">
        <ele>311</ele>
        <time>2018-03-29T15:34:28Z</time>
      </trkpt>
      <trkpt lat="45.96419" lon="4.7063">
        <ele>313</ele>
        <time>2018-03-29T15:34:29Z</time>
      </trkpt>
      <trkpt lat="45.96427" lon="4.70636">
        <ele>313</ele>
        <time>2018-03-29T15:34:30Z</time>
      </trkpt>
      <trkpt lat="45.96434" lon="4.70645">
        <ele>312</ele>
        <time>2018-03-29T15:34:31Z</time>
      </trkpt>
      <trkpt lat="45.96441" lon="4.70652">
        <ele>312</ele>
        <time>2018-03-29T15:34:32Z</time>
      </trkpt>
      <trkpt lat="45.96447" lon="4.7066">
        <ele>312</ele>
        <time>2018-03-29T15:34:33Z</time>
      </trkpt>
      <trkpt lat="45.96455" lon="4.70666">
        <ele>312</ele>
        <time>2018-03-29T15:34:34Z</time>
      </trkpt>
      <trkpt lat="45.96461" lon="4.70671">
        <ele>305</ele>
        <time>2018-03-29T15:34:35Z</time>
      </trkpt>
      <trkpt lat="45.96468" lon="4.70677">
        <ele>305</ele>
        <time>2018-03-29T15:34:36Z</time>
      </trkpt>
      <trkpt lat="45.96475" lon="4.70683">
        <ele>305</ele>
        <time>2018-03-29T15:34:37Z</time>
      </trkpt>
      <trkpt lat="45.96483" lon="4.7069">
        <ele>305</ele>
        <time>2018-03-29T15:34:38Z</time>
      </trkpt>
      <trkpt lat="45.96491" lon="4.70696">
        <ele>305</ele>
        <time>2018-03-29T15:34:39Z</time>
      </trkpt>
      <trkpt lat="45.96498" lon="4.70702">
        <ele>305</ele>
        <time>2018-03-29T15:34:40Z</time>
      </trkpt>
      <trkpt lat="45.96506" lon="4.70709">
        <ele>306</ele>
        <time>2018-03-29T15:34:41Z</time>
      </trkpt>
      <trkpt lat="45.96513" lon="4.70716">
        <ele>305</ele>
        <time>2018-03-29T15:34:42Z</time>
      </trkpt>
      <trkpt lat="45.9652" lon="4.70722">
        <ele>305</ele>
        <time>2018-03-29T15:34:43Z</time>
      </trkpt>
      <trkpt lat="45.96528" lon="4.70727">
        <ele>305</ele>
        <time>2018-03-29T15:34:44Z</time>
      </trkpt>
      <trkpt lat="45.96534" lon="4.70734">
        <ele>305</ele>
        <time>2018-03-29T15:34:45Z</time>
      </trkpt>
      <trkpt lat="45.96542" lon="4.7074">
        <ele>305</ele>
        <time>2018-03-29T15:34:46Z</time>
      </trkpt>
      <trkpt lat="45.9655" lon="4.70747">
        <ele>305</ele>
        <time>2018-03-29T15:34:47Z</time>
      </trkpt>
      <trkpt lat="45.96558" lon="4.70753">
        <ele>299</ele>
        <time>2018-03-29T15:34:48Z</time>
      </trkpt>
      <trkpt lat="45.96566" lon="4.70759">
        <ele>299</ele>
        <time>2018-03-29T15:34:49Z</time>
      </trkpt>
      <trkpt lat="45.96574" lon="4.70764">
        <ele>299</ele>
        <time>2018-03-29T15:34:50Z</time>
      </trkpt>
      <trkpt lat="45.96581" lon="4.7077">
        <ele>299</ele>
        <time>2018-03-29T15:34:51Z</time>
      </trkpt>
      <trkpt lat="45.96588" lon="4.70775">
        <ele>300</ele>
        <time>2018-03-29T15:34:52Z</time>
      </trkpt>
      <trkpt lat="45.96595" lon="4.70781">
        <ele>299</ele>
        <time>2018-03-29T15:34:53Z</time>
      </trkpt>
      <trkpt lat="45.96603" lon="4.70785">
        <ele>299</ele>
        <time>2018-03-29T15:34:54Z</time>
      </trkpt>
      <trkpt lat="45.96611" lon="4.70792">
        <ele>298</ele>
        <time>2018-03-29T15:34:55Z</time>
      </trkpt>
      <trkpt lat="45.96619" lon="4.70798">
        <ele>298</ele>
        <time>2018-03-29T15:34:56Z</time>
      </trkpt>
      <trkpt lat="45.96626" lon="4.70803">
        <ele>298</ele>
        <time>2018-03-29T15:34:57Z</time>
      </trkpt>
      <trkpt lat="45.96634" lon="4.70809">
        <ele>298</ele>
        <time>2018-03-29T15:34:58Z</time>
      </trkpt>
      <trkpt lat="45.96642" lon="4.70814">
        <ele>297</ele>
        <time>2018-03-29T15:34:59Z</time>
      </trkpt>
      <trkpt lat="45.9665" lon="4.7082">
        <ele>297</ele>
        <time>2018-03-29T15:35:00Z</time>
      </trkpt>
      <trkpt lat="45.96658" lon="4.70826">
        <ele>296</ele>
        <time>2018-03-29T15:35:01Z</time>
      </trkpt>
      <trkpt lat="45.96667" lon="4.70831">
        <ele>295</ele>
        <time>2018-03-29T15:35:02Z</time>
      </trkpt>
      <trkpt lat="45.96674" lon="4.70836">
        <ele>293</ele>
        <time>2018-03-29T15:35:03Z</time>
      </trkpt>
      <trkpt lat="45.96683" lon="4.70842">
        <ele>292</ele>
        <time>2018-03-29T15:35:04Z</time>
      </trkpt>
      <trkpt lat="45.9669" lon="4.70847">
        <ele>291</ele>
        <time>2018-03-29T15:35:05Z</time>
      </trkpt>
      <trkpt lat="45.96697" lon="4.70852">
        <ele>290</ele>
        <time>2018-03-29T15:35:06Z</time>
      </trkpt>
      <trkpt lat="45.96705" lon="4.70857">
        <ele>290</ele>
        <time>2018-03-29T15:35:07Z</time>
      </trkpt>
      <trkpt lat="45.96712" lon="4.70862">
        <ele>289</ele>
        <time>2018-03-29T15:35:08Z</time>
      </trkpt>
      <trkpt lat="45.9672" lon="4.70868">
        <ele>289</ele>
        <time>2018-03-29T15:35:09Z</time>
      </trkpt>
      <trkpt lat="45.96728" lon="4.70872">
        <ele>289</ele>
        <time>2018-03-29T15:35:10Z</time>
      </trkpt>
      <trkpt lat="45.96735" lon="4.70876">
        <ele>288</ele>
        <time>2018-03-29T15:35:11Z</time>
      </trkpt>
      <trkpt lat="45.96743" lon="4.70881">
        <ele>288</ele>
        <time>2018-03-29T15:35:12Z</time>
      </trkpt>
      <trkpt lat="45.96751" lon="4.70886">
        <ele>288</ele>
        <time>2018-03-29T15:35:13Z</time>
      </trkpt>
      <trkpt lat="45.96757" lon="4.70891">
        <ele>288</ele>
        <time>2018-03-29T15:35:14Z</time>
      </trkpt>
      <trkpt lat="45.96765" lon="4.70896">
        <ele>288</ele>
        <time>2018-03-29T15:35:15Z</time>
      </trkpt>
      <trkpt lat="45.96772" lon="4.70901">
        <ele>288</ele>
        <time>2018-03-29T15:35:16Z</time>
      </trkpt>
      <trkpt lat="45.96778" lon="4.70906">
        <ele>288</ele>
        <time>2018-03-29T15:35:17Z</time>
      </trkpt>
      <trkpt lat="45.96784" lon="4.70909">
        <ele>288</ele>
        <time>2018-03-29T15:35:18Z</time>
      </trkpt>
      <trkpt lat="45.96789" lon="4.70912">
        <ele>288</ele>
        <time>2018-03-29T15:35:19Z</time>
      </trkpt>
      <trkpt lat="45.96794" lon="4.70914">
        <ele>288</ele>
        <time>2018-03-29T15:35:20Z</time>
      </trkpt>
      <trkpt lat="45.96799" lon="4.70918">
        <ele>280</ele>
        <time>2018-03-29T15:35:21Z</time>
      </trkpt>
      <trkpt lat="45.96804" lon="4.70921">
        <ele>280</ele>
        <time>2018-03-29T15:35:22Z</time>
      </trkpt>
      <trkpt lat="45.96811" lon="4.70928">
        <ele>281</ele>
        <time>2018-03-29T15:35:24Z</time>
      </trkpt>
      <trkpt lat="45.96812" lon="4.7093">
        <ele>281</ele>
        <time>2018-03-29T15:35:25Z</time>
      </trkpt>
      <trkpt lat="45.96819" lon="4.70935">
        <ele>281</ele>
        <time>2018-03-29T15:35:28Z</time>
      </trkpt>
      <trkpt lat="45.9682" lon="4.70937">
        <ele>281</ele>
        <time>2018-03-29T15:35:29Z</time>
      </trkpt>
      <trkpt lat="45.96828" lon="4.70942">
        <ele>280</ele>
        <time>2018-03-29T15:36:56Z</time>
      </trkpt>
      <trkpt lat="45.96829" lon="4.70943">
        <ele>280</ele>
        <time>2018-03-29T15:36:57Z</time>
      </trkpt>
      <trkpt lat="45.96835" lon="4.70947">
        <ele>281</ele>
        <time>2018-03-29T15:37:00Z</time>
      </trkpt>
      <trkpt lat="45.96844" lon="4.70952">
        <ele>280</ele>
        <time>2018-03-29T15:37:01Z</time>
      </trkpt>
      <trkpt lat="45.96852" lon="4.70957">
        <ele>279</ele>
        <time>2018-03-29T15:37:05Z</time>
      </trkpt>
      <trkpt lat="45.96854" lon="4.70958">
        <ele>279</ele>
        <time>2018-03-29T15:37:06Z</time>
      </trkpt>
      <trkpt lat="45.96861" lon="4.70963">
        <ele>279</ele>
        <time>2018-03-29T15:37:09Z</time>
      </trkpt>
      <trkpt lat="45.96864" lon="4.70964">
        <ele>279</ele>
        <time>2018-03-29T15:37:10Z</time>
      </trkpt>
      <trkpt lat="45.96871" lon="4.70968">
        <ele>278</ele>
        <time>2018-03-29T15:37:13Z</time>
      </trkpt>
      <trkpt lat="45.96874" lon="4.70969">
        <ele>278</ele>
        <time>2018-03-29T15:37:14Z</time>
      </trkpt>
      <trkpt lat="45.96882" lon="4.70972">
        <ele>278</ele>
        <time>2018-03-29T15:37:18Z</time>
      </trkpt>
      <trkpt lat="45.96883" lon="4.70973">
        <ele>278</ele>
        <time>2018-03-29T15:37:19Z</time>
      </trkpt>
      <trkpt lat="45.9689" lon="4.7098">
        <ele>277</ele>
        <time>2018-03-29T15:37:34Z</time>
      </trkpt>
      <trkpt lat="45.9689" lon="4.70981">
        <ele>277</ele>
        <time>2018-03-29T15:37:35Z</time>
      </trkpt>
      <trkpt lat="45.96896" lon="4.70972">
        <ele>278</ele>
        <time>2018-03-29T15:39:28Z</time>
      </trkpt>
      <trkpt lat="45.96897" lon="4.70971">
        <ele>278</ele>
        <time>2018-03-29T15:39:29Z</time>
      </trkpt>
      <trkpt lat="45.96901" lon="4.70971">
        <ele>278</ele>
        <time>2018-03-29T15:39:31Z</time>
      </trkpt>
      <trkpt lat="45.96907" lon="4.70972">
        <ele>278</ele>
        <time>2018-03-29T15:39:32Z</time>
      </trkpt>
      <trkpt lat="45.96916" lon="4.70975">
        <ele>277</ele>
        <time>2018-03-29T15:39:34Z</time>
      </trkpt>
      <trkpt lat="45.96921" lon="4.70975">
        <ele>276</ele>
        <time>2018-03-29T15:39:35Z</time>
      </trkpt>
      <trkpt lat="45.96927" lon="4.70976">
        <ele>276</ele>
        <time>2018-03-29T15:39:36Z</time>
      </trkpt>
      <trkpt lat="45.96933" lon="4.70977">
        <ele>276</ele>
        <time>2018-03-29T15:39:37Z</time>
      </trkpt>
      <trkpt lat="45.96939" lon="4.7098">
        <ele>275</ele>
        <time>2018-03-29T15:39:38Z</time>
      </trkpt>
      <trkpt lat="45.96946" lon="4.70982">
        <ele>275</ele>
        <time>2018-03-29T15:39:39Z</time>
      </trkpt>
      <trkpt lat="45.96952" lon="4.70984">
        <ele>275</ele>
        <time>2018-03-29T15:39:40Z</time>
      </trkpt>
      <trkpt lat="45.96959" lon="4.70985">
        <ele>275</ele>
        <time>2018-03-29T15:39:41Z</time>
      </trkpt>
      <trkpt lat="45.96968" lon="4.70986">
        <ele>274</ele>
        <time>2018-03-29T15:39:42Z</time>
      </trkpt>
      <trkpt lat="45.96975" lon="4.70986">
        <ele>273</ele>
        <time>2018-03-29T15:39:43Z</time>
      </trkpt>
      <trkpt lat="45.96983" lon="4.70987">
        <ele>273</ele>
        <time>2018-03-29T15:39:44Z</time>
      </trkpt>
      <trkpt lat="45.96992" lon="4.70987">
        <ele>272</ele>
        <time>2018-03-29T15:39:45Z</time>
      </trkpt>
      <trkpt lat="45.97001" lon="4.70988">
        <ele>269</ele>
        <time>2018-03-29T15:39:46Z</time>
      </trkpt>
      <trkpt lat="45.9701" lon="4.70988">
        <ele>269</ele>
        <time>2018-03-29T15:39:47Z</time>
      </trkpt>
      <trkpt lat="45.97018" lon="4.70988">
        <ele>269</ele>
        <time>2018-03-29T15:39:48Z</time>
      </trkpt>
      <trkpt lat="45.97028" lon="4.70987">
        <ele>269</ele>
        <time>2018-03-29T15:39:49Z</time>
      </trkpt>
      <trkpt lat="45.97036" lon="4.70987">
        <ele>269</ele>
        <time>2018-03-29T15:39:50Z</time>
      </trkpt>
      <trkpt lat="45.97045" lon="4.70987">
        <ele>269</ele>
        <time>2018-03-29T15:39:51Z</time>
      </trkpt>
      <trkpt lat="45.97054" lon="4.70986">
        <ele>269</ele>
        <time>2018-03-29T15:39:52Z</time>
      </trkpt>
      <trkpt lat="45.97064" lon="4.70985">
        <ele>268</ele>
        <time>2018-03-29T15:39:53Z</time>
      </trkpt>
      <trkpt lat="45.97073" lon="4.70982">
        <ele>268</ele>
        <time>2018-03-29T15:39:54Z</time>
      </trkpt>
      <trkpt lat="45.97083" lon="4.70979">
        <ele>268</ele>
        <time>2018-03-29T15:39:55Z</time>
      </trkpt>
      <trkpt lat="45.97093" lon="4.70976">
        <ele>264</ele>
        <time>2018-03-29T15:39:56Z</time>
      </trkpt>
      <trkpt lat="45.97103" lon="4.70972">
        <ele>264</ele>
        <time>2018-03-29T15:39:57Z</time>
      </trkpt>
      <trkpt lat="45.97113" lon="4.70968">
        <ele>264</ele>
        <time>2018-03-29T15:39:58Z</time>
      </trkpt>
      <trkpt lat="45.97123" lon="4.70964">
        <ele>264</ele>
        <time>2018-03-29T15:39:59Z</time>
      </trkpt>
      <trkpt lat="45.97133" lon="4.70959">
        <ele>264</ele>
        <time>2018-03-29T15:40:00Z</time>
      </trkpt>
      <trkpt lat="45.97144" lon="4.70955">
        <ele>263</ele>
        <time>2018-03-29T15:40:01Z</time>
      </trkpt>
      <trkpt lat="45.97152" lon="4.70951">
        <ele>263</ele>
        <time>2018-03-29T15:40:02Z</time>
      </trkpt>
      <trkpt lat="45.97162" lon="4.70946">
        <ele>263</ele>
        <time>2018-03-29T15:40:03Z</time>
      </trkpt>
      <trkpt lat="45.9717" lon="4.70941">
        <ele>258</ele>
        <time>2018-03-29T15:40:04Z</time>
      </trkpt>
      <trkpt lat="45.97179" lon="4.70935">
        <ele>259</ele>
        <time>2018-03-29T15:40:05Z</time>
      </trkpt>
      <trkpt lat="45.97188" lon="4.7093">
        <ele>258</ele>
        <time>2018-03-29T15:40:06Z</time>
      </trkpt>
      <trkpt lat="45.97196" lon="4.70924">
        <ele>257</ele>
        <time>2018-03-29T15:40:07Z</time>
      </trkpt>
      <trkpt lat="45.97203" lon="4.70917">
        <ele>257</ele>
        <time>2018-03-29T15:40:08Z</time>
      </trkpt>
      <trkpt lat="45.97211" lon="4.7091">
        <ele>260</ele>
        <time>2018-03-29T15:40:09Z</time>
      </trkpt>
      <trkpt lat="45.97218" lon="4.70902">
        <ele>259</ele>
        <time>2018-03-29T15:40:10Z</time>
      </trkpt>
      <trkpt lat="45.97226" lon="4.70893">
        <ele>259</ele>
        <time>2018-03-29T15:40:11Z</time>
      </trkpt>
      <trkpt lat="45.97233" lon="4.70884">
        <ele>259</ele>
        <time>2018-03-29T15:40:12Z</time>
      </trkpt>
      <trkpt lat="45.97241" lon="4.70874">
        <ele>259</ele>
        <time>2018-03-29T15:40:13Z</time>
      </trkpt>
      <trkpt lat="45.97248" lon="4.70862">
        <ele>259</ele>
        <time>2018-03-29T15:40:14Z</time>
      </trkpt>
      <trkpt lat="45.97256" lon="4.70852">
        <ele>254</ele>
        <time>2018-03-29T15:40:15Z</time>
      </trkpt>
      <trkpt lat="45.97263" lon="4.70841">
        <ele>254</ele>
        <time>2018-03-29T15:40:16Z</time>
      </trkpt>
      <trkpt lat="45.9727" lon="4.7083">
        <ele>255</ele>
        <time>2018-03-29T15:40:17Z</time>
      </trkpt>
      <trkpt lat="45.97278" lon="4.70819">
        <ele>255</ele>
        <time>2018-03-29T15:40:18Z</time>
      </trkpt>
      <trkpt lat="45.97285" lon="4.70809">
        <ele>254</ele>
        <time>2018-03-29T15:40:19Z</time>
      </trkpt>
      <trkpt lat="45.97292" lon="4.708">
        <ele>254</ele>
        <time>2018-03-29T15:40:20Z</time>
      </trkpt>
      <trkpt lat="45.973" lon="4.70792">
        <ele>253</ele>
        <time>2018-03-29T15:40:21Z</time>
      </trkpt>
      <trkpt lat="45.97307" lon="4.70785">
        <ele>253</ele>
        <time>2018-03-29T15:40:22Z</time>
      </trkpt>
      <trkpt lat="45.97313" lon="4.70778">
        <ele>252</ele>
        <time>2018-03-29T15:40:23Z</time>
      </trkpt>
      <trkpt lat="45.9732" lon="4.70773">
        <ele>252</ele>
        <time>2018-03-29T15:40:24Z</time>
      </trkpt>
      <trkpt lat="45.97328" lon="4.70768">
        <ele>251</ele>
        <time>2018-03-29T15:40:25Z</time>
      </trkpt>
      <trkpt lat="45.97336" lon="4.70764">
        <ele>247</ele>
        <time>2018-03-29T15:40:26Z</time>
      </trkpt>
      <trkpt lat="45.97346" lon="4.7076">
        <ele>246</ele>
        <time>2018-03-29T15:40:27Z</time>
      </trkpt>
      <trkpt lat="45.97356" lon="4.70756">
        <ele>246</ele>
        <time>2018-03-29T15:40:28Z</time>
      </trkpt>
      <trkpt lat="45.97364" lon="4.70752">
        <ele>245</ele>
        <time>2018-03-29T15:40:29Z</time>
      </trkpt>
      <trkpt lat="45.97374" lon="4.70749">
        <ele>244</ele>
        <time>2018-03-29T15:40:30Z</time>
      </trkpt>
      <trkpt lat="45.97381" lon="4.70747">
        <ele>244</ele>
        <time>2018-03-29T15:40:31Z</time>
      </trkpt>
      <trkpt lat="45.97389" lon="4.70746">
        <ele>243</ele>
        <time>2018-03-29T15:40:32Z</time>
      </trkpt>
      <trkpt lat="45.97396" lon="4.70746">
        <ele>242</ele>
        <time>2018-03-29T15:40:33Z</time>
      </trkpt>
      <trkpt lat="45.97403" lon="4.70747">
        <ele>242</ele>
        <time>2018-03-29T15:40:34Z</time>
      </trkpt>
      <trkpt lat="45.97412" lon="4.70747">
        <ele>241</ele>
        <time>2018-03-29T15:40:35Z</time>
      </trkpt>
      <trkpt lat="45.9742" lon="4.70747">
        <ele>240</ele>
        <time>2018-03-29T15:40:36Z</time>
      </trkpt>
      <trkpt lat="45.97427" lon="4.70748">
        <ele>239</ele>
        <time>2018-03-29T15:40:37Z</time>
      </trkpt>
      <trkpt lat="45.97435" lon="4.7075">
        <ele>239</ele>
        <time>2018-03-29T15:40:38Z</time>
      </trkpt>
      <trkpt lat="45.97442" lon="4.70751">
        <ele>238</ele>
        <time>2018-03-29T15:40:39Z</time>
      </trkpt>
      <trkpt lat="45.9745" lon="4.70752">
        <ele>238</ele>
        <time>2018-03-29T15:40:40Z</time>
      </trkpt>
      <trkpt lat="45.97458" lon="4.70751">
        <ele>237</ele>
        <time>2018-03-29T15:40:41Z</time>
      </trkpt>
      <trkpt lat="45.97465" lon="4.7075">
        <ele>238</ele>
        <time>2018-03-29T15:40:42Z</time>
      </trkpt>
      <trkpt lat="45.97471" lon="4.70749">
        <ele>238</ele>
        <time>2018-03-29T15:40:43Z</time>
      </trkpt>
      <trkpt lat="45.97478" lon="4.70748">
        <ele>237</ele>
        <time>2018-03-29T15:40:44Z</time>
      </trkpt>
      <trkpt lat="45.97484" lon="4.70746">
        <ele>237</ele>
        <time>2018-03-29T15:40:45Z</time>
      </trkpt>
      <trkpt lat="45.97491" lon="4.70745">
        <ele>237</ele>
        <time>2018-03-29T15:40:46Z</time>
      </trkpt>
      <trkpt lat="45.97498" lon="4.70743">
        <ele>237</ele>
        <time>2018-03-29T15:40:47Z</time>
      </trkpt>
      <trkpt lat="45.97506" lon="4.70741">
        <ele>235</ele>
        <time>2018-03-29T15:40:48Z</time>
      </trkpt>
      <trkpt lat="45.97512" lon="4.70739">
        <ele>235</ele>
        <time>2018-03-29T15:40:49Z</time>
      </trkpt>
      <trkpt lat="45.97518" lon="4.70738">
        <ele>235</ele>
        <time>2018-03-29T15:40:50Z</time>
      </trkpt>
      <trkpt lat="45.97525" lon="4.70739">
        <ele>234</ele>
        <time>2018-03-29T15:40:51Z</time>
      </trkpt>
      <trkpt lat="45.97532" lon="4.70738">
        <ele>234</ele>
        <time>2018-03-29T15:40:52Z</time>
      </trkpt>
      <trkpt lat="45.9754" lon="4.70735">
        <ele>234</ele>
        <time>2018-03-29T15:40:53Z</time>
      </trkpt>
      <trkpt lat="45.97546" lon="4.70735">
        <ele>233</ele>
        <time>2018-03-29T15:40:54Z</time>
      </trkpt>
      <trkpt lat="45.97554" lon="4.70735">
        <ele>233</ele>
        <time>2018-03-29T15:40:55Z</time>
      </trkpt>
      <trkpt lat="45.97561" lon="4.70734">
        <ele>233</ele>
        <time>2018-03-29T15:40:56Z</time>
      </trkpt>
      <trkpt lat="45.97569" lon="4.70731">
        <ele>232</ele>
        <time>2018-03-29T15:40:57Z</time>
      </trkpt>
      <trkpt lat="45.97575" lon="4.70731">
        <ele>232</ele>
        <time>2018-03-29T15:40:58Z</time>
      </trkpt>
      <trkpt lat="45.97583" lon="4.7073">
        <ele>232</ele>
        <time>2018-03-29T15:41:00Z</time>
      </trkpt>
      <trkpt lat="45.9759" lon="4.7073">
        <ele>229</ele>
        <time>2018-03-29T15:41:01Z</time>
      </trkpt>
      <trkpt lat="45.97596" lon="4.70731">
        <ele>229</ele>
        <time>2018-03-29T15:41:02Z</time>
      </trkpt>
      <trkpt lat="45.97603" lon="4.70733">
        <ele>229</ele>
        <time>2018-03-29T15:41:03Z</time>
      </trkpt>
      <trkpt lat="45.9761" lon="4.70734">
        <ele>229</ele>
        <time>2018-03-29T15:41:04Z</time>
      </trkpt>
      <trkpt lat="45.97617" lon="4.70737">
        <ele>228</ele>
        <time>2018-03-29T15:41:05Z</time>
      </trkpt>
      <trkpt lat="45.97625" lon="4.70739">
        <ele>228</ele>
        <time>2018-03-29T15:41:06Z</time>
      </trkpt>
      <trkpt lat="45.97633" lon="4.70743">
        <ele>227</ele>
        <time>2018-03-29T15:41:07Z</time>
      </trkpt>
      <trkpt lat="45.97641" lon="4.70746">
        <ele>227</ele>
        <time>2018-03-29T15:41:08Z</time>
      </trkpt>
      <trkpt lat="45.97647" lon="4.70748">
        <ele>226</ele>
        <time>2018-03-29T15:41:09Z</time>
      </trkpt>
      <trkpt lat="45.97655" lon="4.70751">
        <ele>225</ele>
        <time>2018-03-29T15:41:10Z</time>
      </trkpt>
      <trkpt lat="45.97663" lon="4.70755">
        <ele>225</ele>
        <time>2018-03-29T15:41:11Z</time>
      </trkpt>
      <trkpt lat="45.97672" lon="4.70758">
        <ele>224</ele>
        <time>2018-03-29T15:41:12Z</time>
      </trkpt>
      <trkpt lat="45.9768" lon="4.70761">
        <ele>223</ele>
        <time>2018-03-29T15:41:13Z</time>
      </trkpt>
      <trkpt lat="45.97689" lon="4.70762">
        <ele>223</ele>
        <time>2018-03-29T15:41:14Z</time>
      </trkpt>
      <trkpt lat="45.97698" lon="4.70765">
        <ele>223</ele>
        <time>2018-03-29T15:41:15Z</time>
      </trkpt>
      <trkpt lat="45.97707" lon="4.70768">
        <ele>223</ele>
        <time>2018-03-29T15:41:16Z</time>
      </trkpt>
      <trkpt lat="45.97714" lon="4.70771">
        <ele>223</ele>
        <time>2018-03-29T15:41:17Z</time>
      </trkpt>
      <trkpt lat="45.97723" lon="4.70774">
        <ele>222</ele>
        <time>2018-03-29T15:41:18Z</time>
      </trkpt>
      <trkpt lat="45.97732" lon="4.70777">
        <ele>222</ele>
        <time>2018-03-29T15:41:19Z</time>
      </trkpt>
      <trkpt lat="45.9774" lon="4.70781">
        <ele>222</ele>
        <time>2018-03-29T15:41:20Z</time>
      </trkpt>
      <trkpt lat="45.97748" lon="4.70783">
        <ele>222</ele>
        <time>2018-03-29T15:41:21Z</time>
      </trkpt>
      <trkpt lat="45.97755" lon="4.70785">
        <ele>221</ele>
        <time>2018-03-29T15:41:22Z</time>
      </trkpt>
      <trkpt lat="45.97762" lon="4.70787">
        <ele>221</ele>
        <time>2018-03-29T15:41:23Z</time>
      </trkpt>
      <trkpt lat="45.97767" lon="4.70788">
        <ele>221</ele>
        <time>2018-03-29T15:41:24Z</time>
      </trkpt>
      <trkpt lat="45.97774" lon="4.70789">
        <ele>221</ele>
        <time>2018-03-29T15:41:25Z</time>
      </trkpt>
      <trkpt lat="45.97779" lon="4.70792">
        <ele>221</ele>
        <time>2018-03-29T15:41:26Z</time>
      </trkpt>
      <trkpt lat="45.97784" lon="4.70796">
        <ele>221</ele>
        <time>2018-03-29T15:41:27Z</time>
      </trkpt>
      <trkpt lat="45.97789" lon="4.708">
        <ele>221</ele>
        <time>2018-03-29T15:41:28Z</time>
      </trkpt>
      <trkpt lat="45.97794" lon="4.70805">
        <ele>221</ele>
        <time>2018-03-29T15:41:29Z</time>
      </trkpt>
      <trkpt lat="45.97798" lon="4.7081">
        <ele>221</ele>
        <time>2018-03-29T15:41:30Z</time>
      </trkpt>
      <trkpt lat="45.97802" lon="4.70816">
        <ele>221</ele>
        <time>2018-03-29T15:41:31Z</time>
      </trkpt>
      <trkpt lat="45.97806" lon="4.70824">
        <ele>221</ele>
        <time>2018-03-29T15:41:32Z</time>
      </trkpt>
      <trkpt lat="45.97809" lon="4.70831">
        <ele>221</ele>
        <time>2018-03-29T15:41:33Z</time>
      </trkpt>
      <trkpt lat="45.97811" lon="4.70839">
        <ele>220</ele>
        <time>2018-03-29T15:41:34Z</time>
      </trkpt>
      <trkpt lat="45.97813" lon="4.70847">
        <ele>220</ele>
        <time>2018-03-29T15:41:35Z</time>
      </trkpt>
      <trkpt lat="45.97814" lon="4.70856">
        <ele>220</ele>
        <time>2018-03-29T15:41:36Z</time>
      </trkpt>
      <trkpt lat="45.97815" lon="4.70866">
        <ele>220</ele>
        <time>2018-03-29T15:41:37Z</time>
      </trkpt>
      <trkpt lat="45.97816" lon="4.70875">
        <ele>220</ele>
        <time>2018-03-29T15:41:38Z</time>
      </trkpt>
      <trkpt lat="45.97816" lon="4.70884">
        <ele>220</ele>
        <time>2018-03-29T15:41:39Z</time>
      </trkpt>
      <trkpt lat="45.97817" lon="4.70892">
        <ele>220</ele>
        <time>2018-03-29T15:41:40Z</time>
      </trkpt>
      <trkpt lat="45.97817" lon="4.70899">
        <ele>220</ele>
        <time>2018-03-29T15:41:41Z</time>
      </trkpt>
      <trkpt lat="45.97817" lon="4.70906">
        <ele>220</ele>
        <time>2018-03-29T15:41:42Z</time>
      </trkpt>
      <trkpt lat="45.97817" lon="4.70912">
        <ele>219</ele>
        <time>2018-03-29T15:41:43Z</time>
      </trkpt>
      <trkpt lat="45.97818" lon="4.70919">
        <ele>219</ele>
        <time>2018-03-29T15:41:44Z</time>
      </trkpt>
      <trkpt lat="45.97818" lon="4.70926">
        <ele>219</ele>
        <time>2018-03-29T15:41:45Z</time>
      </trkpt>
      <trkpt lat="45.97819" lon="4.70935">
        <ele>218</ele>
        <time>2018-03-29T15:41:46Z</time>
      </trkpt>
      <trkpt lat="45.97823" lon="4.70941">
        <ele>218</ele>
        <time>2018-03-29T15:41:47Z</time>
      </trkpt>
      <trkpt lat="45.97826" lon="4.70948">
        <ele>218</ele>
        <time>2018-03-29T15:41:48Z</time>
      </trkpt>
      <trkpt lat="45.97829" lon="4.70955">
        <ele>218</ele>
        <time>2018-03-29T15:41:49Z</time>
      </trkpt>
      <trkpt lat="45.97831" lon="4.70964">
        <ele>218</ele>
        <time>2018-03-29T15:41:50Z</time>
      </trkpt>
      <trkpt lat="45.97832" lon="4.70973">
        <ele>218</ele>
        <time>2018-03-29T15:41:51Z</time>
      </trkpt>
      <trkpt lat="45.97833" lon="4.70981">
        <ele>217</ele>
        <time>2018-03-29T15:41:52Z</time>
      </trkpt>
      <trkpt lat="45.97833" lon="4.70989">
        <ele>217</ele>
        <time>2018-03-29T15:41:53Z</time>
      </trkpt>
      <trkpt lat="45.97833" lon="4.70997">
        <ele>216</ele>
        <time>2018-03-29T15:41:54Z</time>
      </trkpt>
      <trkpt lat="45.97834" lon="4.71004">
        <ele>216</ele>
        <time>2018-03-29T15:41:55Z</time>
      </trkpt>
      <trkpt lat="45.97835" lon="4.71009">
        <ele>216</ele>
        <time>2018-03-29T15:41:56Z</time>
      </trkpt>
      <trkpt lat="45.97836" lon="4.71016">
        <ele>216</ele>
        <time>2018-03-29T15:41:58Z</time>
      </trkpt>
      <trkpt lat="45.97838" lon="4.71025">
        <ele>216</ele>
        <time>2018-03-29T15:41:59Z</time>
      </trkpt>
      <trkpt lat="45.9784" lon="4.71035">
        <ele>216</ele>
        <time>2018-03-29T15:42:02Z</time>
      </trkpt>
      <trkpt lat="45.9784" lon="4.7104">
        <ele>216</ele>
        <time>2018-03-29T15:42:03Z</time>
      </trkpt>
      <trkpt lat="45.97841" lon="4.71051">
        <ele>215</ele>
        <time>2018-03-29T15:42:04Z</time>
      </trkpt>
      <trkpt lat="45.97841" lon="4.71056">
        <ele>215</ele>
        <time>2018-03-29T15:42:05Z</time>
      </trkpt>
      <trkpt lat="45.97842" lon="4.71069">
        <ele>215</ele>
        <time>2018-03-29T15:42:07Z</time>
      </trkpt>
      <trkpt lat="45.97843" lon="4.71076">
        <ele>215</ele>
        <time>2018-03-29T15:42:08Z</time>
      </trkpt>
      <trkpt lat="45.97843" lon="4.71083">
        <ele>215</ele>
        <time>2018-03-29T15:42:09Z</time>
      </trkpt>
      <trkpt lat="45.97843" lon="4.7109">
        <ele>214</ele>
        <time>2018-03-29T15:42:10Z</time>
      </trkpt>
      <trkpt lat="45.97844" lon="4.71097">
        <ele>213</ele>
        <time>2018-03-29T15:42:11Z</time>
      </trkpt>
      <trkpt lat="45.97845" lon="4.71104">
        <ele>213</ele>
        <time>2018-03-29T15:42:12Z</time>
      </trkpt>
      <trkpt lat="45.97846" lon="4.71116">
        <ele>213</ele>
        <time>2018-03-29T15:42:14Z</time>
      </trkpt>
      <trkpt lat="45.97847" lon="4.71122">
        <ele>213</ele>
        <time>2018-03-29T15:42:15Z</time>
      </trkpt>
      <trkpt lat="45.97849" lon="4.71133">
        <ele>212</ele>
        <time>2018-03-29T15:42:17Z</time>
      </trkpt>
      <trkpt lat="45.97849" lon="4.71138">
        <ele>212</ele>
        <time>2018-03-29T15:42:18Z</time>
      </trkpt>
      <trkpt lat="45.97851" lon="4.7115">
        <ele>212</ele>
        <time>2018-03-29T15:42:20Z</time>
      </trkpt>
      <trkpt lat="45.97851" lon="4.71157">
        <ele>212</ele>
        <time>2018-03-29T15:42:21Z</time>
      </trkpt>
      <trkpt lat="45.97851" lon="4.71163">
        <ele>212</ele>
        <time>2018-03-29T15:42:22Z</time>
      </trkpt>
      <trkpt lat="45.97852" lon="4.7117">
        <ele>210</ele>
        <time>2018-03-29T15:42:23Z</time>
      </trkpt>
      <trkpt lat="45.97852" lon="4.71178">
        <ele>209</ele>
        <time>2018-03-29T15:42:24Z</time>
      </trkpt>
      <trkpt lat="45.97852" lon="4.71185">
        <ele>209</ele>
        <time>2018-03-29T15:42:25Z</time>
      </trkpt>
      <trkpt lat="45.97853" lon="4.71192">
        <ele>209</ele>
        <time>2018-03-29T15:42:26Z</time>
      </trkpt>
      <trkpt lat="45.97853" lon="4.71199">
        <ele>209</ele>
        <time>2018-03-29T15:42:27Z</time>
      </trkpt>
      <trkpt lat="45.97853" lon="4.71211">
        <ele>208</ele>
        <time>2018-03-29T15:42:29Z</time>
      </trkpt>
      <trkpt lat="45.97853" lon="4.71214">
        <ele>208</ele>
        <time>2018-03-29T15:42:30Z</time>
      </trkpt>
      <trkpt lat="45.97853" lon="4.71222">
        <ele>208</ele>
        <time>2018-03-29T15:42:31Z</time>
      </trkpt>
      <trkpt lat="45.97852" lon="4.71227">
        <ele>208</ele>
        <time>2018-03-29T15:42:32Z</time>
      </trkpt>
      <trkpt lat="45.97853" lon="4.71239">
        <ele>208</ele>
        <time>2018-03-29T15:42:34Z</time>
      </trkpt>
      <trkpt lat="45.97852" lon="4.71247">
        <ele>208</ele>
        <time>2018-03-29T15:42:35Z</time>
      </trkpt>
      <trkpt lat="45.97852" lon="4.71252">
        <ele>207</ele>
        <time>2018-03-29T15:42:36Z</time>
      </trkpt>
      <trkpt lat="45.97852" lon="4.7126">
        <ele>207</ele>
        <time>2018-03-29T15:42:37Z</time>
      </trkpt>
      <trkpt lat="45.97852" lon="4.71267">
        <ele>206</ele>
        <time>2018-03-29T15:42:38Z</time>
      </trkpt>
      <trkpt lat="45.97852" lon="4.71276">
        <ele>206</ele>
        <time>2018-03-29T15:42:39Z</time>
      </trkpt>
      <trkpt lat="45.97852" lon="4.71285">
        <ele>206</ele>
        <time>2018-03-29T15:42:40Z</time>
      </trkpt>
      <trkpt lat="45.97851" lon="4.71293">
        <ele>206</ele>
        <time>2018-03-29T15:42:41Z</time>
      </trkpt>
      <trkpt lat="45.97851" lon="4.71304">
        <ele>206</ele>
        <time>2018-03-29T15:42:42Z</time>
      </trkpt>
      <trkpt lat="45.9785" lon="4.71313">
        <ele>205</ele>
        <time>2018-03-29T15:42:43Z</time>
      </trkpt>
      <trkpt lat="45.9785" lon="4.71323">
        <ele>205</ele>
        <time>2018-03-29T15:42:44Z</time>
      </trkpt>
      <trkpt lat="45.97849" lon="4.71332">
        <ele>205</ele>
        <time>2018-03-29T15:42:45Z</time>
      </trkpt>
      <trkpt lat="45.97848" lon="4.71341">
        <ele>204</ele>
        <time>2018-03-29T15:42:46Z</time>
      </trkpt>
      <trkpt lat="45.97848" lon="4.7135">
        <ele>204</ele>
        <time>2018-03-29T15:42:47Z</time>
      </trkpt>
      <trkpt lat="45.97848" lon="4.71357">
        <ele>204</ele>
        <time>2018-03-29T15:42:48Z</time>
      </trkpt>
      <trkpt lat="45.97848" lon="4.71364">
        <ele>204</ele>
        <time>2018-03-29T15:42:49Z</time>
      </trkpt>
      <trkpt lat="45.97849" lon="4.7137">
        <ele>203</ele>
        <time>2018-03-29T15:42:50Z</time>
      </trkpt>
      <trkpt lat="45.97848" lon="4.71377">
        <ele>203</ele>
        <time>2018-03-29T15:42:51Z</time>
      </trkpt>
      <trkpt lat="45.97848" lon="4.71384">
        <ele>203</ele>
        <time>2018-03-29T15:42:52Z</time>
      </trkpt>
      <trkpt lat="45.97848" lon="4.7139">
        <ele>203</ele>
        <time>2018-03-29T15:42:53Z</time>
      </trkpt>
      <trkpt lat="45.97849" lon="4.71397">
        <ele>203</ele>
        <time>2018-03-29T15:42:54Z</time>
      </trkpt>
      <trkpt lat="45.9785" lon="4.71404">
        <ele>203</ele>
        <time>2018-03-29T15:42:55Z</time>
      </trkpt>
      <trkpt lat="45.97852" lon="4.71411">
        <ele>203</ele>
        <time>2018-03-29T15:42:56Z</time>
      </trkpt>
      <trkpt lat="45.97853" lon="4.71418">
        <ele>202</ele>
        <time>2018-03-29T15:42:57Z</time>
      </trkpt>
      <trkpt lat="45.97854" lon="4.71427">
        <ele>201</ele>
        <time>2018-03-29T15:42:58Z</time>
      </trkpt>
      <trkpt lat="45.97855" lon="4.71436">
        <ele>201</ele>
        <time>2018-03-29T15:42:59Z</time>
      </trkpt>
      <trkpt lat="45.97857" lon="4.71445">
        <ele>201</ele>
        <time>2018-03-29T15:43:00Z</time>
      </trkpt>
      <trkpt lat="45.97859" lon="4.71454">
        <ele>201</ele>
        <time>2018-03-29T15:43:01Z</time>
      </trkpt>
      <trkpt lat="45.97861" lon="4.71464">
        <ele>201</ele>
        <time>2018-03-29T15:43:02Z</time>
      </trkpt>
      <trkpt lat="45.97863" lon="4.71475">
        <ele>201</ele>
        <time>2018-03-29T15:43:03Z</time>
      </trkpt>
      <trkpt lat="45.97865" lon="4.71484">
        <ele>201</ele>
        <time>2018-03-29T15:43:04Z</time>
      </trkpt>
      <trkpt lat="45.97866" lon="4.71495">
        <ele>201</ele>
        <time>2018-03-29T15:43:05Z</time>
      </trkpt>
      <trkpt lat="45.97868" lon="4.71505">
        <ele>199</ele>
        <time>2018-03-29T15:43:06Z</time>
      </trkpt>
      <trkpt lat="45.9787" lon="4.71515">
        <ele>199</ele>
        <time>2018-03-29T15:43:07Z</time>
      </trkpt>
      <trkpt lat="45.97872" lon="4.71524">
        <ele>199</ele>
        <time>2018-03-29T15:43:08Z</time>
      </trkpt>
      <trkpt lat="45.97875" lon="4.71534">
        <ele>199</ele>
        <time>2018-03-29T15:43:09Z</time>
      </trkpt>
      <trkpt lat="45.97876" lon="4.71544">
        <ele>199</ele>
        <time>2018-03-29T15:43:10Z</time>
      </trkpt>
      <trkpt lat="45.97878" lon="4.71554">
        <ele>199</ele>
        <time>2018-03-29T15:43:11Z</time>
      </trkpt>
      <trkpt lat="45.97878" lon="4.71564">
        <ele>198</ele>
        <time>2018-03-29T15:43:12Z</time>
      </trkpt>
      <trkpt lat="45.97879" lon="4.71574">
        <ele>198</ele>
        <time>2018-03-29T15:43:13Z</time>
      </trkpt>
      <trkpt lat="45.9788" lon="4.71584">
        <ele>197</ele>
        <time>2018-03-29T15:43:14Z</time>
      </trkpt>
      <trkpt lat="45.97881" lon="4.71594">
        <ele>197</ele>
        <time>2018-03-29T15:43:15Z</time>
      </trkpt>
      <trkpt lat="45.97881" lon="4.71604">
        <ele>197</ele>
        <time>2018-03-29T15:43:16Z</time>
      </trkpt>
      <trkpt lat="45.97881" lon="4.71615">
        <ele>197</ele>
        <time>2018-03-29T15:43:17Z</time>
      </trkpt>
      <trkpt lat="45.97881" lon="4.71625">
        <ele>197</ele>
        <time>2018-03-29T15:43:18Z</time>
      </trkpt>
      <trkpt lat="45.97881" lon="4.71635">
        <ele>197</ele>
        <time>2018-03-29T15:43:19Z</time>
      </trkpt>
      <trkpt lat="45.97881" lon="4.71645">
        <ele>197</ele>
        <time>2018-03-29T15:43:20Z</time>
      </trkpt>
      <trkpt lat="45.97879" lon="4.71655">
        <ele>197</ele>
        <time>2018-03-29T15:43:21Z</time>
      </trkpt>
      <trkpt lat="45.97877" lon="4.71663">
        <ele>197</ele>
        <time>2018-03-29T15:43:22Z</time>
      </trkpt>
      <trkpt lat="45.97874" lon="4.7167">
        <ele>196</ele>
        <time>2018-03-29T15:43:23Z</time>
      </trkpt>
      <trkpt lat="45.97871" lon="4.71681">
        <ele>196</ele>
        <time>2018-03-29T15:43:26Z</time>
      </trkpt>
      <trkpt lat="45.9787" lon="4.71685">
        <ele>196</ele>
        <time>2018-03-29T15:43:27Z</time>
      </trkpt>
      <trkpt lat="45.97867" lon="4.71696">
        <ele>196</ele>
        <time>2018-03-29T15:43:36Z</time>
      </trkpt>
      <trkpt lat="45.97866" lon="4.71696">
        <ele>196</ele>
        <time>2018-03-29T15:43:37Z</time>
      </trkpt>
      <trkpt lat="45.97864" lon="4.71708">
        <ele>196</ele>
        <time>2018-03-29T15:43:43Z</time>
      </trkpt>
      <trkpt lat="45.97862" lon="4.71711">
        <ele>196</ele>
        <time>2018-03-29T15:43:44Z</time>
      </trkpt>
      <trkpt lat="45.97858" lon="4.71717">
        <ele>196</ele>
        <time>2018-03-29T15:43:46Z</time>
      </trkpt>
      <trkpt lat="45.97856" lon="4.71721">
        <ele>196</ele>
        <time>2018-03-29T15:43:47Z</time>
      </trkpt>
      <trkpt lat="45.97851" lon="4.71731">
        <ele>196</ele>
        <time>2018-03-29T15:43:48Z</time>
      </trkpt>
      <trkpt lat="45.97848" lon="4.71735">
        <ele>196</ele>
        <time>2018-03-29T15:43:49Z</time>
      </trkpt>
      <trkpt lat="45.97845" lon="4.71741">
        <ele>195</ele>
        <time>2018-03-29T15:43:50Z</time>
      </trkpt>
      <trkpt lat="45.9784" lon="4.71743">
        <ele>195</ele>
        <time>2018-03-29T15:43:51Z</time>
      </trkpt>
      <trkpt lat="45.97835" lon="4.71744">
        <ele>195</ele>
        <time>2018-03-29T15:43:52Z</time>
      </trkpt>
      <trkpt lat="45.9783" lon="4.71743">
        <ele>195</ele>
        <time>2018-03-29T15:43:53Z</time>
      </trkpt>
      <trkpt lat="45.97826" lon="4.71742">
        <ele>196</ele>
        <time>2018-03-29T15:43:54Z</time>
      </trkpt>
      <trkpt lat="45.97821" lon="4.71743">
        <ele>196</ele>
        <time>2018-03-29T15:43:55Z</time>
      </trkpt>
      <trkpt lat="45.97816" lon="4.71742">
        <ele>196</ele>
        <time>2018-03-29T15:43:56Z</time>
      </trkpt>
      <trkpt lat="45.97811" lon="4.71741">
        <ele>196</ele>
        <time>2018-03-29T15:43:57Z</time>
      </trkpt>
      <trkpt lat="45.97806" lon="4.71741">
        <ele>196</ele>
        <time>2018-03-29T15:43:58Z</time>
      </trkpt>
      <trkpt lat="45.978" lon="4.7174">
        <ele>196</ele>
        <time>2018-03-29T15:43:59Z</time>
      </trkpt>
      <trkpt lat="45.97795" lon="4.7174">
        <ele>196</ele>
        <time>2018-03-29T15:44:00Z</time>
      </trkpt>
      <trkpt lat="45.9779" lon="4.71741">
        <ele>196</ele>
        <time>2018-03-29T15:44:01Z</time>
      </trkpt>
      <trkpt lat="45.97784" lon="4.7174">
        <ele>196</ele>
        <time>2018-03-29T15:44:02Z</time>
      </trkpt>
      <trkpt lat="45.97779" lon="4.71739">
        <ele>196</ele>
        <time>2018-03-29T15:44:03Z</time>
      </trkpt>
      <trkpt lat="45.97774" lon="4.71739">
        <ele>196</ele>
        <time>2018-03-29T15:44:04Z</time>
      </trkpt>
      <trkpt lat="45.97768" lon="4.71738">
        <ele>196</ele>
        <time>2018-03-29T15:44:05Z</time>
      </trkpt>
      <trkpt lat="45.97763" lon="4.71739">
        <ele>196</ele>
        <time>2018-03-29T15:44:06Z</time>
      </trkpt>
      <trkpt lat="45.97757" lon="4.71739">
        <ele>196</ele>
        <time>2018-03-29T15:44:07Z</time>
      </trkpt>
      <trkpt lat="45.97752" lon="4.71739">
        <ele>196</ele>
        <time>2018-03-29T15:44:08Z</time>
      </trkpt>
      <trkpt lat="45.97747" lon="4.71738">
        <ele>196</ele>
        <time>2018-03-29T15:44:09Z</time>
      </trkpt>
      <trkpt lat="45.97742" lon="4.71738">
        <ele>196</ele>
        <time>2018-03-29T15:44:10Z</time>
      </trkpt>
      <trkpt lat="45.97736" lon="4.71737">
        <ele>196</ele>
        <time>2018-03-29T15:44:11Z</time>
      </trkpt>
      <trkpt lat="45.97731" lon="4.71736">
        <ele>196</ele>
        <time>2018-03-29T15:44:12Z</time>
      </trkpt>
      <trkpt lat="45.97726" lon="4.71735">
        <ele>196</ele>
        <time>2018-03-29T15:44:13Z</time>
      </trkpt>
      <trkpt lat="45.9772" lon="4.71734">
        <ele>196</ele>
        <time>2018-03-29T15:44:14Z</time>
      </trkpt>
      <trkpt lat="45.97714" lon="4.71733">
        <ele>196</ele>
        <time>2018-03-29T15:44:15Z</time>
      </trkpt>
      <trkpt lat="45.97706" lon="4.7173">
        <ele>196</ele>
        <time>2018-03-29T15:44:17Z</time>
      </trkpt>
      <trkpt lat="45.977" lon="4.71731">
        <ele>196</ele>
        <time>2018-03-29T15:44:18Z</time>
      </trkpt>
      <trkpt lat="45.97695" lon="4.71731">
        <ele>196</ele>
        <time>2018-03-29T15:44:19Z</time>
      </trkpt>
      <trkpt lat="45.97689" lon="4.7173">
        <ele>196</ele>
        <time>2018-03-29T15:44:20Z</time>
      </trkpt>
      <trkpt lat="45.97683" lon="4.7173">
        <ele>196</ele>
        <time>2018-03-29T15:44:21Z</time>
      </trkpt>
      <trkpt lat="45.97678" lon="4.71729">
        <ele>196</ele>
        <time>2018-03-29T15:44:22Z</time>
      </trkpt>
      <trkpt lat="45.97673" lon="4.71729">
        <ele>196</ele>
        <time>2018-03-29T15:44:23Z</time>
      </trkpt>
      <trkpt lat="45.97667" lon="4.71728">
        <ele>196</ele>
        <time>2018-03-29T15:44:24Z</time>
      </trkpt>
      <trkpt lat="45.97662" lon="4.71727">
        <ele>196</ele>
        <time>2018-03-29T15:44:25Z</time>
      </trkpt>
      <trkpt lat="45.97657" lon="4.71727">
        <ele>196</ele>
        <time>2018-03-29T15:44:26Z</time>
      </trkpt>
      <trkpt lat="45.97651" lon="4.71726">
        <ele>196</ele>
        <time>2018-03-29T15:44:27Z</time>
      </trkpt>
      <trkpt lat="45.97645" lon="4.71725">
        <ele>196</ele>
        <time>2018-03-29T15:44:28Z</time>
      </trkpt>
      <trkpt lat="45.9764" lon="4.71722">
        <ele>196</ele>
        <time>2018-03-29T15:44:29Z</time>
      </trkpt>
      <trkpt lat="45.97635" lon="4.71721">
        <ele>197</ele>
        <time>2018-03-29T15:44:30Z</time>
      </trkpt>
      <trkpt lat="45.9763" lon="4.71718">
        <ele>197</ele>
        <time>2018-03-29T15:44:31Z</time>
      </trkpt>
      <trkpt lat="45.97626" lon="4.71714">
        <ele>197</ele>
        <time>2018-03-29T15:44:32Z</time>
      </trkpt>
      <trkpt lat="45.97619" lon="4.71709">
        <ele>197</ele>
        <time>2018-03-29T15:44:34Z</time>
      </trkpt>
      <trkpt lat="45.97614" lon="4.7171">
        <ele>197</ele>
        <time>2018-03-29T15:44:35Z</time>
      </trkpt>
      <trkpt lat="45.9761" lon="4.71712">
        <ele>197</ele>
        <time>2018-03-29T15:44:36Z</time>
      </trkpt>
      <trkpt lat="45.97605" lon="4.71715">
        <ele>197</ele>
        <time>2018-03-29T15:44:37Z</time>
      </trkpt>
      <trkpt lat="45.976" lon="4.71718">
        <ele>197</ele>
        <time>2018-03-29T15:44:38Z</time>
      </trkpt>
      <trkpt lat="45.97595" lon="4.7172">
        <ele>197</ele>
        <time>2018-03-29T15:44:39Z</time>
      </trkpt>
      <trkpt lat="45.9759" lon="4.71721">
        <ele>197</ele>
        <time>2018-03-29T15:44:40Z</time>
      </trkpt>
      <trkpt lat="45.97585" lon="4.7172">
        <ele>197</ele>
        <time>2018-03-29T15:44:41Z</time>
      </trkpt>
      <trkpt lat="45.97579" lon="4.71719">
        <ele>198</ele>
        <time>2018-03-29T15:44:42Z</time>
      </trkpt>
      <trkpt lat="45.97574" lon="4.71718">
        <ele>198</ele>
        <time>2018-03-29T15:44:43Z</time>
      </trkpt>
      <trkpt lat="45.97568" lon="4.71717">
        <ele>198</ele>
        <time>2018-03-29T15:44:44Z</time>
      </trkpt>
      <trkpt lat="45.97564" lon="4.71717">
        <ele>198</ele>
        <time>2018-03-29T15:44:45Z</time>
      </trkpt>
      <trkpt lat="45.97555" lon="4.71717">
        <ele>198</ele>
        <time>2018-03-29T15:44:47Z</time>
      </trkpt>
      <trkpt lat="45.97549" lon="4.71717">
        <ele>198</ele>
        <time>2018-03-29T15:44:48Z</time>
      </trkpt>
      <trkpt lat="45.97545" lon="4.71716">
        <ele>198</ele>
        <time>2018-03-29T15:44:49Z</time>
      </trkpt>
      <trkpt lat="45.9754" lon="4.71715">
        <ele>198</ele>
        <time>2018-03-29T15:44:50Z</time>
      </trkpt>
      <trkpt lat="45.97534" lon="4.71716">
        <ele>198</ele>
        <time>2018-03-29T15:44:51Z</time>
      </trkpt>
      <trkpt lat="45.97528" lon="4.71715">
        <ele>198</ele>
        <time>2018-03-29T15:44:52Z</time>
      </trkpt>
      <trkpt lat="45.97523" lon="4.71714">
        <ele>198</ele>
        <time>2018-03-29T15:44:53Z</time>
      </trkpt>
      <trkpt lat="45.97517" lon="4.71714">
        <ele>198</ele>
        <time>2018-03-29T15:44:54Z</time>
      </trkpt>
      <trkpt lat="45.97512" lon="4.71715">
        <ele>198</ele>
        <time>2018-03-29T15:44:55Z</time>
      </trkpt>
      <trkpt lat="45.97505" lon="4.71715">
        <ele>198</ele>
        <time>2018-03-29T15:44:56Z</time>
      </trkpt>
      <trkpt lat="45.975" lon="4.71715">
        <ele>198</ele>
        <time>2018-03-29T15:44:57Z</time>
      </trkpt>
      <trkpt lat="45.97494" lon="4.71715">
        <ele>198</ele>
        <time>2018-03-29T15:44:58Z</time>
      </trkpt>
      <trkpt lat="45.97489" lon="4.71714">
        <ele>198</ele>
        <time>2018-03-29T15:44:59Z</time>
      </trkpt>
      <trkpt lat="45.97484" lon="4.71713">
        <ele>198</ele>
        <time>2018-03-29T15:45:00Z</time>
      </trkpt>
      <trkpt lat="45.97478" lon="4.71713">
        <ele>198</ele>
        <time>2018-03-29T15:45:01Z</time>
      </trkpt>
      <trkpt lat="45.97472" lon="4.71712">
        <ele>197</ele>
        <time>2018-03-29T15:45:02Z</time>
      </trkpt>
      <trkpt lat="45.97466" lon="4.71712">
        <ele>197</ele>
        <time>2018-03-29T15:45:03Z</time>
      </trkpt>
      <trkpt lat="45.97461" lon="4.71712">
        <ele>197</ele>
        <time>2018-03-29T15:45:04Z</time>
      </trkpt>
      <trkpt lat="45.97456" lon="4.71712">
        <ele>197</ele>
        <time>2018-03-29T15:45:05Z</time>
      </trkpt>
      <trkpt lat="45.97451" lon="4.71712">
        <ele>197</ele>
        <time>2018-03-29T15:45:06Z</time>
      </trkpt>
      <trkpt lat="45.97445" lon="4.71712">
        <ele>197</ele>
        <time>2018-03-29T15:45:07Z</time>
      </trkpt>
      <trkpt lat="45.97439" lon="4.71712">
        <ele>197</ele>
        <time>2018-03-29T15:45:08Z</time>
      </trkpt>
      <trkpt lat="45.97433" lon="4.71711">
        <ele>197</ele>
        <time>2018-03-29T15:45:09Z</time>
      </trkpt>
      <trkpt lat="45.97427" lon="4.7171">
        <ele>196</ele>
        <time>2018-03-29T15:45:10Z</time>
      </trkpt>
      <trkpt lat="45.97421" lon="4.7171">
        <ele>196</ele>
        <time>2018-03-29T15:45:11Z</time>
      </trkpt>
      <trkpt lat="45.97415" lon="4.71709">
        <ele>195</ele>
        <time>2018-03-29T15:45:12Z</time>
      </trkpt>
      <trkpt lat="45.9741" lon="4.71708">
        <ele>195</ele>
        <time>2018-03-29T15:45:13Z</time>
      </trkpt>
      <trkpt lat="45.97404" lon="4.71708">
        <ele>195</ele>
        <time>2018-03-29T15:45:14Z</time>
      </trkpt>
      <trkpt lat="45.97398" lon="4.71708">
        <ele>195</ele>
        <time>2018-03-29T15:45:15Z</time>
      </trkpt>
      <trkpt lat="45.97392" lon="4.71707">
        <ele>195</ele>
        <time>2018-03-29T15:45:16Z</time>
      </trkpt>
      <trkpt lat="45.97387" lon="4.71706">
        <ele>195</ele>
        <time>2018-03-29T15:45:17Z</time>
      </trkpt>
      <trkpt lat="45.97381" lon="4.71705">
        <ele>195</ele>
        <time>2018-03-29T15:45:18Z</time>
      </trkpt>
      <trkpt lat="45.97376" lon="4.71704">
        <ele>195</ele>
        <time>2018-03-29T15:45:19Z</time>
      </trkpt>
      <trkpt lat="45.97369" lon="4.71704">
        <ele>195</ele>
        <time>2018-03-29T15:45:20Z</time>
      </trkpt>
      <trkpt lat="45.97364" lon="4.71704">
        <ele>195</ele>
        <time>2018-03-29T15:45:21Z</time>
      </trkpt>
      <trkpt lat="45.97358" lon="4.71704">
        <ele>195</ele>
        <time>2018-03-29T15:45:22Z</time>
      </trkpt>
      <trkpt lat="45.9735" lon="4.71704">
        <ele>195</ele>
        <time>2018-03-29T15:45:23Z</time>
      </trkpt>
      <trkpt lat="45.97345" lon="4.71703">
        <ele>195</ele>
        <time>2018-03-29T15:45:24Z</time>
      </trkpt>
      <trkpt lat="45.97338" lon="4.71703">
        <ele>195</ele>
        <time>2018-03-29T15:45:25Z</time>
      </trkpt>
      <trkpt lat="45.97332" lon="4.71702">
        <ele>196</ele>
        <time>2018-03-29T15:45:26Z</time>
      </trkpt>
      <trkpt lat="45.97327" lon="4.71702">
        <ele>196</ele>
        <time>2018-03-29T15:45:27Z</time>
      </trkpt>
      <trkpt lat="45.97322" lon="4.71699">
        <ele>196</ele>
        <time>2018-03-29T15:45:28Z</time>
      </trkpt>
      <trkpt lat="45.97318" lon="4.71696">
        <ele>196</ele>
        <time>2018-03-29T15:45:29Z</time>
      </trkpt>
      <trkpt lat="45.97313" lon="4.71693">
        <ele>196</ele>
        <time>2018-03-29T15:45:30Z</time>
      </trkpt>
      <trkpt lat="45.97308" lon="4.7169">
        <ele>196</ele>
        <time>2018-03-29T15:45:31Z</time>
      </trkpt>
      <trkpt lat="45.97303" lon="4.71689">
        <ele>197</ele>
        <time>2018-03-29T15:45:32Z</time>
      </trkpt>
      <trkpt lat="45.97296" lon="4.7169">
        <ele>197</ele>
        <time>2018-03-29T15:45:33Z</time>
      </trkpt>
      <trkpt lat="45.9729" lon="4.71692">
        <ele>197</ele>
        <time>2018-03-29T15:45:34Z</time>
      </trkpt>
      <trkpt lat="45.97285" lon="4.71695">
        <ele>197</ele>
        <time>2018-03-29T15:45:35Z</time>
      </trkpt>
      <trkpt lat="45.9728" lon="4.71697">
        <ele>197</ele>
        <time>2018-03-29T15:45:36Z</time>
      </trkpt>
      <trkpt lat="45.97275" lon="4.71698">
        <ele>197</ele>
        <time>2018-03-29T15:45:37Z</time>
      </trkpt>
      <trkpt lat="45.97269" lon="4.71697">
        <ele>197</ele>
        <time>2018-03-29T15:45:38Z</time>
      </trkpt>
      <trkpt lat="45.97264" lon="4.71696">
        <ele>197</ele>
        <time>2018-03-29T15:45:39Z</time>
      </trkpt>
      <trkpt lat="45.97258" lon="4.71695">
        <ele>197</ele>
        <time>2018-03-29T15:45:40Z</time>
      </trkpt>
      <trkpt lat="45.97252" lon="4.71694">
        <ele>197</ele>
        <time>2018-03-29T15:45:41Z</time>
      </trkpt>
      <trkpt lat="45.97246" lon="4.71694">
        <ele>197</ele>
        <time>2018-03-29T15:45:42Z</time>
      </trkpt>
      <trkpt lat="45.97241" lon="4.71694">
        <ele>197</ele>
        <time>2018-03-29T15:45:43Z</time>
      </trkpt>
      <trkpt lat="45.97234" lon="4.71693">
        <ele>197</ele>
        <time>2018-03-29T15:45:44Z</time>
      </trkpt>
      <trkpt lat="45.97228" lon="4.71693">
        <ele>197</ele>
        <time>2018-03-29T15:45:45Z</time>
      </trkpt>
      <trkpt lat="45.97222" lon="4.71692">
        <ele>197</ele>
        <time>2018-03-29T15:45:46Z</time>
      </trkpt>
      <trkpt lat="45.97216" lon="4.71691">
        <ele>197</ele>
        <time>2018-03-29T15:45:47Z</time>
      </trkpt>
      <trkpt lat="45.9721" lon="4.71689">
        <ele>197</ele>
        <time>2018-03-29T15:45:48Z</time>
      </trkpt>
      <trkpt lat="45.97204" lon="4.71689">
        <ele>197</ele>
        <time>2018-03-29T15:45:49Z</time>
      </trkpt>
      <trkpt lat="45.97197" lon="4.71689">
        <ele>197</ele>
        <time>2018-03-29T15:45:50Z</time>
      </trkpt>
      <trkpt lat="45.9719" lon="4.71689">
        <ele>197</ele>
        <time>2018-03-29T15:45:51Z</time>
      </trkpt>
      <trkpt lat="45.97183" lon="4.71688">
        <ele>197</ele>
        <time>2018-03-29T15:45:52Z</time>
      </trkpt>
      <trkpt lat="45.97177" lon="4.71688">
        <ele>197</ele>
        <time>2018-03-29T15:45:53Z</time>
      </trkpt>
      <trkpt lat="45.9717" lon="4.71687">
        <ele>197</ele>
        <time>2018-03-29T15:45:54Z</time>
      </trkpt>
      <trkpt lat="45.97164" lon="4.71686">
        <ele>196</ele>
        <time>2018-03-29T15:45:55Z</time>
      </trkpt>
      <trkpt lat="45.97157" lon="4.71685">
        <ele>196</ele>
        <time>2018-03-29T15:45:56Z</time>
      </trkpt>
      <trkpt lat="45.9715" lon="4.71685">
        <ele>195</ele>
        <time>2018-03-29T15:45:57Z</time>
      </trkpt>
      <trkpt lat="45.97144" lon="4.71686">
        <ele>195</ele>
        <time>2018-03-29T15:45:58Z</time>
      </trkpt>
      <trkpt lat="45.97139" lon="4.71685">
        <ele>195</ele>
        <time>2018-03-29T15:45:59Z</time>
      </trkpt>
      <trkpt lat="45.97131" lon="4.71685">
        <ele>195</ele>
        <time>2018-03-29T15:46:00Z</time>
      </trkpt>
      <trkpt lat="45.97124" lon="4.71685">
        <ele>195</ele>
        <time>2018-03-29T15:46:01Z</time>
      </trkpt>
      <trkpt lat="45.97118" lon="4.71684">
        <ele>195</ele>
        <time>2018-03-29T15:46:02Z</time>
      </trkpt>
      <trkpt lat="45.97112" lon="4.71684">
        <ele>194</ele>
        <time>2018-03-29T15:46:03Z</time>
      </trkpt>
      <trkpt lat="45.97106" lon="4.71684">
        <ele>194</ele>
        <time>2018-03-29T15:46:04Z</time>
      </trkpt>
      <trkpt lat="45.97099" lon="4.71684">
        <ele>194</ele>
        <time>2018-03-29T15:46:05Z</time>
      </trkpt>
      <trkpt lat="45.97093" lon="4.71682">
        <ele>194</ele>
        <time>2018-03-29T15:46:06Z</time>
      </trkpt>
      <trkpt lat="45.97086" lon="4.71681">
        <ele>194</ele>
        <time>2018-03-29T15:46:07Z</time>
      </trkpt>
      <trkpt lat="45.97079" lon="4.71679">
        <ele>194</ele>
        <time>2018-03-29T15:46:08Z</time>
      </trkpt>
      <trkpt lat="45.97073" lon="4.71678">
        <ele>194</ele>
        <time>2018-03-29T15:46:09Z</time>
      </trkpt>
      <trkpt lat="45.97065" lon="4.71676">
        <ele>193</ele>
        <time>2018-03-29T15:46:10Z</time>
      </trkpt>
      <trkpt lat="45.97058" lon="4.71675">
        <ele>193</ele>
        <time>2018-03-29T15:46:11Z</time>
      </trkpt>
      <trkpt lat="45.97051" lon="4.71674">
        <ele>193</ele>
        <time>2018-03-29T15:46:12Z</time>
      </trkpt>
      <trkpt lat="45.97045" lon="4.71674">
        <ele>193</ele>
        <time>2018-03-29T15:46:13Z</time>
      </trkpt>
      <trkpt lat="45.97038" lon="4.71673">
        <ele>193</ele>
        <time>2018-03-29T15:46:14Z</time>
      </trkpt>
      <trkpt lat="45.97032" lon="4.71672">
        <ele>193</ele>
        <time>2018-03-29T15:46:15Z</time>
      </trkpt>
      <trkpt lat="45.97025" lon="4.71672">
        <ele>193</ele>
        <time>2018-03-29T15:46:16Z</time>
      </trkpt>
      <trkpt lat="45.97019" lon="4.71672">
        <ele>193</ele>
        <time>2018-03-29T15:46:17Z</time>
      </trkpt>
      <trkpt lat="45.97012" lon="4.71671">
        <ele>193</ele>
        <time>2018-03-29T15:46:18Z</time>
      </trkpt>
      <trkpt lat="45.97004" lon="4.71671">
        <ele>194</ele>
        <time>2018-03-29T15:46:19Z</time>
      </trkpt>
      <trkpt lat="45.96998" lon="4.71671">
        <ele>193</ele>
        <time>2018-03-29T15:46:20Z</time>
      </trkpt>
      <trkpt lat="45.96991" lon="4.71672">
        <ele>193</ele>
        <time>2018-03-29T15:46:21Z</time>
      </trkpt>
      <trkpt lat="45.96986" lon="4.71671">
        <ele>193</ele>
        <time>2018-03-29T15:46:22Z</time>
      </trkpt>
      <trkpt lat="45.9698" lon="4.71671">
        <ele>192</ele>
        <time>2018-03-29T15:46:23Z</time>
      </trkpt>
      <trkpt lat="45.96973" lon="4.71671">
        <ele>192</ele>
        <time>2018-03-29T15:46:24Z</time>
      </trkpt>
      <trkpt lat="45.96967" lon="4.7167">
        <ele>192</ele>
        <time>2018-03-29T15:46:25Z</time>
      </trkpt>
      <trkpt lat="45.96961" lon="4.71669">
        <ele>192</ele>
        <time>2018-03-29T15:46:26Z</time>
      </trkpt>
      <trkpt lat="45.96954" lon="4.71669">
        <ele>192</ele>
        <time>2018-03-29T15:46:27Z</time>
      </trkpt>
      <trkpt lat="45.96948" lon="4.71669">
        <ele>192</ele>
        <time>2018-03-29T15:46:28Z</time>
      </trkpt>
      <trkpt lat="45.96941" lon="4.71668">
        <ele>192</ele>
        <time>2018-03-29T15:46:29Z</time>
      </trkpt>
      <trkpt lat="45.96935" lon="4.71668">
        <ele>193</ele>
        <time>2018-03-29T15:46:30Z</time>
      </trkpt>
      <trkpt lat="45.96929" lon="4.71668">
        <ele>193</ele>
        <time>2018-03-29T15:46:31Z</time>
      </trkpt>
      <trkpt lat="45.96923" lon="4.71667">
        <ele>194</ele>
        <time>2018-03-29T15:46:32Z</time>
      </trkpt>
      <trkpt lat="45.96917" lon="4.71667">
        <ele>195</ele>
        <time>2018-03-29T15:46:33Z</time>
      </trkpt>
      <trkpt lat="45.96911" lon="4.71666">
        <ele>195</ele>
        <time>2018-03-29T15:46:34Z</time>
      </trkpt>
      <trkpt lat="45.96906" lon="4.71666">
        <ele>195</ele>
        <time>2018-03-29T15:46:35Z</time>
      </trkpt>
      <trkpt lat="45.96899" lon="4.71666">
        <ele>195</ele>
        <time>2018-03-29T15:46:36Z</time>
      </trkpt>
      <trkpt lat="45.96893" lon="4.71665">
        <ele>195</ele>
        <time>2018-03-29T15:46:37Z</time>
      </trkpt>
      <trkpt lat="45.96886" lon="4.71663">
        <ele>195</ele>
        <time>2018-03-29T15:46:38Z</time>
      </trkpt>
      <trkpt lat="45.96879" lon="4.71663">
        <ele>195</ele>
        <time>2018-03-29T15:46:39Z</time>
      </trkpt>
      <trkpt lat="45.96869" lon="4.71663">
        <ele>195</ele>
        <time>2018-03-29T15:46:40Z</time>
      </trkpt>
      <trkpt lat="45.96862" lon="4.71662">
        <ele>195</ele>
        <time>2018-03-29T15:46:41Z</time>
      </trkpt>
      <trkpt lat="45.96854" lon="4.71661">
        <ele>194</ele>
        <time>2018-03-29T15:46:42Z</time>
      </trkpt>
      <trkpt lat="45.96847" lon="4.71659">
        <ele>194</ele>
        <time>2018-03-29T15:46:43Z</time>
      </trkpt>
      <trkpt lat="45.9684" lon="4.71659">
        <ele>193</ele>
        <time>2018-03-29T15:46:44Z</time>
      </trkpt>
      <trkpt lat="45.96832" lon="4.71658">
        <ele>192</ele>
        <time>2018-03-29T15:46:45Z</time>
      </trkpt>
      <trkpt lat="45.96824" lon="4.71657">
        <ele>193</ele>
        <time>2018-03-29T15:46:46Z</time>
      </trkpt>
      <trkpt lat="45.96817" lon="4.71656">
        <ele>193</ele>
        <time>2018-03-29T15:46:47Z</time>
      </trkpt>
      <trkpt lat="45.9681" lon="4.71655">
        <ele>193</ele>
        <time>2018-03-29T15:46:48Z</time>
      </trkpt>
      <trkpt lat="45.96804" lon="4.71653">
        <ele>193</ele>
        <time>2018-03-29T15:46:49Z</time>
      </trkpt>
      <trkpt lat="45.96797" lon="4.71652">
        <ele>193</ele>
        <time>2018-03-29T15:46:50Z</time>
      </trkpt>
      <trkpt lat="45.9679" lon="4.71651">
        <ele>192</ele>
        <time>2018-03-29T15:46:51Z</time>
      </trkpt>
      <trkpt lat="45.96784" lon="4.71651">
        <ele>192</ele>
        <time>2018-03-29T15:46:52Z</time>
      </trkpt>
      <trkpt lat="45.96777" lon="4.71651">
        <ele>192</ele>
        <time>2018-03-29T15:46:53Z</time>
      </trkpt>
      <trkpt lat="45.96771" lon="4.71649">
        <ele>192</ele>
        <time>2018-03-29T15:46:54Z</time>
      </trkpt>
      <trkpt lat="45.96765" lon="4.71647">
        <ele>192</ele>
        <time>2018-03-29T15:46:55Z</time>
      </trkpt>
      <trkpt lat="45.96759" lon="4.71646">
        <ele>192</ele>
        <time>2018-03-29T15:46:56Z</time>
      </trkpt>
      <trkpt lat="45.96753" lon="4.71644">
        <ele>192</ele>
        <time>2018-03-29T15:46:57Z</time>
      </trkpt>
      <trkpt lat="45.96747" lon="4.71644">
        <ele>190</ele>
        <time>2018-03-29T15:46:58Z</time>
      </trkpt>
      <trkpt lat="45.96741" lon="4.71643">
        <ele>190</ele>
        <time>2018-03-29T15:46:59Z</time>
      </trkpt>
      <trkpt lat="45.96735" lon="4.71642">
        <ele>190</ele>
        <time>2018-03-29T15:47:00Z</time>
      </trkpt>
      <trkpt lat="45.96728" lon="4.71641">
        <ele>190</ele>
        <time>2018-03-29T15:47:01Z</time>
      </trkpt>
      <trkpt lat="45.96721" lon="4.71639">
        <ele>190</ele>
        <time>2018-03-29T15:47:02Z</time>
      </trkpt>
      <trkpt lat="45.96715" lon="4.71639">
        <ele>190</ele>
        <time>2018-03-29T15:47:03Z</time>
      </trkpt>
      <trkpt lat="45.96708" lon="4.71638">
        <ele>190</ele>
        <time>2018-03-29T15:47:04Z</time>
      </trkpt>
      <trkpt lat="45.96702" lon="4.71636">
        <ele>190</ele>
        <time>2018-03-29T15:47:05Z</time>
      </trkpt>
      <trkpt lat="45.96695" lon="4.71635">
        <ele>190</ele>
        <time>2018-03-29T15:47:06Z</time>
      </trkpt>
      <trkpt lat="45.96689" lon="4.71634">
        <ele>190</ele>
        <time>2018-03-29T15:47:07Z</time>
      </trkpt>
      <trkpt lat="45.96683" lon="4.71633">
        <ele>190</ele>
        <time>2018-03-29T15:47:08Z</time>
      </trkpt>
      <trkpt lat="45.96676" lon="4.71633">
        <ele>190</ele>
        <time>2018-03-29T15:47:09Z</time>
      </trkpt>
      <trkpt lat="45.96669" lon="4.71631">
        <ele>190</ele>
        <time>2018-03-29T15:47:10Z</time>
      </trkpt>
      <trkpt lat="45.96663" lon="4.71631">
        <ele>188</ele>
        <time>2018-03-29T15:47:11Z</time>
      </trkpt>
      <trkpt lat="45.96657" lon="4.7163">
        <ele>188</ele>
        <time>2018-03-29T15:47:12Z</time>
      </trkpt>
      <trkpt lat="45.9665" lon="4.71629">
        <ele>188</ele>
        <time>2018-03-29T15:47:13Z</time>
      </trkpt>
      <trkpt lat="45.96644" lon="4.71629">
        <ele>188</ele>
        <time>2018-03-29T15:47:14Z</time>
      </trkpt>
      <trkpt lat="45.96638" lon="4.71627">
        <ele>188</ele>
        <time>2018-03-29T15:47:15Z</time>
      </trkpt>
      <trkpt lat="45.96631" lon="4.71625">
        <ele>188</ele>
        <time>2018-03-29T15:47:16Z</time>
      </trkpt>
      <trkpt lat="45.96624" lon="4.71624">
        <ele>188</ele>
        <time>2018-03-29T15:47:17Z</time>
      </trkpt>
      <trkpt lat="45.96618" lon="4.71623">
        <ele>188</ele>
        <time>2018-03-29T15:47:18Z</time>
      </trkpt>
      <trkpt lat="45.96611" lon="4.71623">
        <ele>188</ele>
        <time>2018-03-29T15:47:19Z</time>
      </trkpt>
      <trkpt lat="45.96605" lon="4.71622">
        <ele>187</ele>
        <time>2018-03-29T15:47:20Z</time>
      </trkpt>
      <trkpt lat="45.966" lon="4.71619">
        <ele>188</ele>
        <time>2018-03-29T15:47:21Z</time>
      </trkpt>
      <trkpt lat="45.96594" lon="4.7162">
        <ele>187</ele>
        <time>2018-03-29T15:47:22Z</time>
      </trkpt>
      <trkpt lat="45.96587" lon="4.71619">
        <ele>187</ele>
        <time>2018-03-29T15:47:23Z</time>
      </trkpt>
      <trkpt lat="45.96581" lon="4.71618">
        <ele>185</ele>
        <time>2018-03-29T15:47:24Z</time>
      </trkpt>
      <trkpt lat="45.96575" lon="4.71617">
        <ele>185</ele>
        <time>2018-03-29T15:47:25Z</time>
      </trkpt>
      <trkpt lat="45.96568" lon="4.71616">
        <ele>185</ele>
        <time>2018-03-29T15:47:26Z</time>
      </trkpt>
      <trkpt lat="45.96561" lon="4.71615">
        <ele>185</ele>
        <time>2018-03-29T15:47:27Z</time>
      </trkpt>
      <trkpt lat="45.96555" lon="4.71614">
        <ele>185</ele>
        <time>2018-03-29T15:47:28Z</time>
      </trkpt>
      <trkpt lat="45.96551" lon="4.71609">
        <ele>185</ele>
        <time>2018-03-29T15:47:29Z</time>
      </trkpt>
      <trkpt lat="45.96546" lon="4.71604">
        <ele>185</ele>
        <time>2018-03-29T15:47:30Z</time>
      </trkpt>
      <trkpt lat="45.96541" lon="4.71599">
        <ele>185</ele>
        <time>2018-03-29T15:47:31Z</time>
      </trkpt>
      <trkpt lat="45.96535" lon="4.71597">
        <ele>185</ele>
        <time>2018-03-29T15:47:32Z</time>
      </trkpt>
      <trkpt lat="45.96529" lon="4.71599">
        <ele>185</ele>
        <time>2018-03-29T15:47:33Z</time>
      </trkpt>
      <trkpt lat="45.96523" lon="4.71601">
        <ele>185</ele>
        <time>2018-03-29T15:47:34Z</time>
      </trkpt>
      <trkpt lat="45.96517" lon="4.71605">
        <ele>184</ele>
        <time>2018-03-29T15:47:35Z</time>
      </trkpt>
      <trkpt lat="45.9651" lon="4.71606">
        <ele>184</ele>
        <time>2018-03-29T15:47:36Z</time>
      </trkpt>
      <trkpt lat="45.96504" lon="4.71606">
        <ele>184</ele>
        <time>2018-03-29T15:47:37Z</time>
      </trkpt>
      <trkpt lat="45.96497" lon="4.71604">
        <ele>183</ele>
        <time>2018-03-29T15:47:38Z</time>
      </trkpt>
      <trkpt lat="45.96489" lon="4.71602">
        <ele>183</ele>
        <time>2018-03-29T15:47:39Z</time>
      </trkpt>
      <trkpt lat="45.96483" lon="4.716">
        <ele>183</ele>
        <time>2018-03-29T15:47:40Z</time>
      </trkpt>
      <trkpt lat="45.96476" lon="4.71599">
        <ele>183</ele>
        <time>2018-03-29T15:47:41Z</time>
      </trkpt>
      <trkpt lat="45.96469" lon="4.71598">
        <ele>183</ele>
        <time>2018-03-29T15:47:42Z</time>
      </trkpt>
      <trkpt lat="45.96461" lon="4.71597">
        <ele>183</ele>
        <time>2018-03-29T15:47:43Z</time>
      </trkpt>
      <trkpt lat="45.96454" lon="4.71596">
        <ele>183</ele>
        <time>2018-03-29T15:47:44Z</time>
      </trkpt>
      <trkpt lat="45.96448" lon="4.71595">
        <ele>183</ele>
        <time>2018-03-29T15:47:45Z</time>
      </trkpt>
      <trkpt lat="45.96441" lon="4.71594">
        <ele>183</ele>
        <time>2018-03-29T15:47:46Z</time>
      </trkpt>
      <trkpt lat="45.96435" lon="4.71594">
        <ele>184</ele>
        <time>2018-03-29T15:47:47Z</time>
      </trkpt>
      <trkpt lat="45.96428" lon="4.71593">
        <ele>184</ele>
        <time>2018-03-29T15:47:48Z</time>
      </trkpt>
      <trkpt lat="45.96421" lon="4.71593">
        <ele>184</ele>
        <time>2018-03-29T15:47:49Z</time>
      </trkpt>
      <trkpt lat="45.96414" lon="4.71592">
        <ele>184</ele>
        <time>2018-03-29T15:47:50Z</time>
      </trkpt>
      <trkpt lat="45.96407" lon="4.71591">
        <ele>184</ele>
        <time>2018-03-29T15:47:51Z</time>
      </trkpt>
      <trkpt lat="45.96401" lon="4.7159">
        <ele>183</ele>
        <time>2018-03-29T15:47:52Z</time>
      </trkpt>
      <trkpt lat="45.96395" lon="4.7159">
        <ele>183</ele>
        <time>2018-03-29T15:47:53Z</time>
      </trkpt>
      <trkpt lat="45.9639" lon="4.71589">
        <ele>183</ele>
        <time>2018-03-29T15:47:54Z</time>
      </trkpt>
      <trkpt lat="45.96384" lon="4.71588">
        <ele>183</ele>
        <time>2018-03-29T15:47:55Z</time>
      </trkpt>
      <trkpt lat="45.96378" lon="4.71586">
        <ele>182</ele>
        <time>2018-03-29T15:47:56Z</time>
      </trkpt>
      <trkpt lat="45.96371" lon="4.71584">
        <ele>182</ele>
        <time>2018-03-29T15:47:57Z</time>
      </trkpt>
      <trkpt lat="45.96366" lon="4.71583">
        <ele>185</ele>
        <time>2018-03-29T15:47:58Z</time>
      </trkpt>
      <trkpt lat="45.96359" lon="4.71582">
        <ele>185</ele>
        <time>2018-03-29T15:47:59Z</time>
      </trkpt>
      <trkpt lat="45.96352" lon="4.71581">
        <ele>185</ele>
        <time>2018-03-29T15:48:00Z</time>
      </trkpt>
      <trkpt lat="45.96346" lon="4.7158">
        <ele>184</ele>
        <time>2018-03-29T15:48:01Z</time>
      </trkpt>
      <trkpt lat="45.9634" lon="4.7158">
        <ele>184</ele>
        <time>2018-03-29T15:48:02Z</time>
      </trkpt>
      <trkpt lat="45.96334" lon="4.71578">
        <ele>184</ele>
        <time>2018-03-29T15:48:03Z</time>
      </trkpt>
      <trkpt lat="45.96328" lon="4.71577">
        <ele>184</ele>
        <time>2018-03-29T15:48:04Z</time>
      </trkpt>
      <trkpt lat="45.96323" lon="4.71577">
        <ele>184</ele>
        <time>2018-03-29T15:48:05Z</time>
      </trkpt>
      <trkpt lat="45.96317" lon="4.71575">
        <ele>184</ele>
        <time>2018-03-29T15:48:06Z</time>
      </trkpt>
      <trkpt lat="45.96311" lon="4.71573">
        <ele>184</ele>
        <time>2018-03-29T15:48:07Z</time>
      </trkpt>
      <trkpt lat="45.96304" lon="4.71573">
        <ele>184</ele>
        <time>2018-03-29T15:48:08Z</time>
      </trkpt>
      <trkpt lat="45.96298" lon="4.71572">
        <ele>184</ele>
        <time>2018-03-29T15:48:09Z</time>
      </trkpt>
      <trkpt lat="45.96292" lon="4.7157">
        <ele>184</ele>
        <time>2018-03-29T15:48:10Z</time>
      </trkpt>
      <trkpt lat="45.96285" lon="4.7157">
        <ele>184</ele>
        <time>2018-03-29T15:48:11Z</time>
      </trkpt>
      <trkpt lat="45.96279" lon="4.71569">
        <ele>184</ele>
        <time>2018-03-29T15:48:12Z</time>
      </trkpt>
      <trkpt lat="45.96272" lon="4.71568">
        <ele>184</ele>
        <time>2018-03-29T15:48:13Z</time>
      </trkpt>
      <trkpt lat="45.96266" lon="4.71568">
        <ele>184</ele>
        <time>2018-03-29T15:48:14Z</time>
      </trkpt>
      <trkpt lat="45.9626" lon="4.71567">
        <ele>183</ele>
        <time>2018-03-29T15:48:15Z</time>
      </trkpt>
      <trkpt lat="45.96254" lon="4.71565">
        <ele>183</ele>
        <time>2018-03-29T15:48:16Z</time>
      </trkpt>
      <trkpt lat="45.96248" lon="4.71564">
        <ele>183</ele>
        <time>2018-03-29T15:48:17Z</time>
      </trkpt>
      <trkpt lat="45.96241" lon="4.71563">
        <ele>183</ele>
        <time>2018-03-29T15:48:18Z</time>
      </trkpt>
      <trkpt lat="45.96236" lon="4.71561">
        <ele>183</ele>
        <time>2018-03-29T15:48:19Z</time>
      </trkpt>
      <trkpt lat="45.96231" lon="4.7156">
        <ele>183</ele>
        <time>2018-03-29T15:48:20Z</time>
      </trkpt>
      <trkpt lat="45.96225" lon="4.7156">
        <ele>183</ele>
        <time>2018-03-29T15:48:21Z</time>
      </trkpt>
      <trkpt lat="45.96219" lon="4.71559">
        <ele>184</ele>
        <time>2018-03-29T15:48:22Z</time>
      </trkpt>
      <trkpt lat="45.96214" lon="4.71558">
        <ele>184</ele>
        <time>2018-03-29T15:48:23Z</time>
      </trkpt>
      <trkpt lat="45.96209" lon="4.71557">
        <ele>184</ele>
        <time>2018-03-29T15:48:24Z</time>
      </trkpt>
      <trkpt lat="45.96204" lon="4.71557">
        <ele>184</ele>
        <time>2018-03-29T15:48:25Z</time>
      </trkpt>
      <trkpt lat="45.96198" lon="4.71556">
        <ele>184</ele>
        <time>2018-03-29T15:48:26Z</time>
      </trkpt>
      <trkpt lat="45.96193" lon="4.71554">
        <ele>184</ele>
        <time>2018-03-29T15:48:27Z</time>
      </trkpt>
      <trkpt lat="45.96187" lon="4.71554">
        <ele>183</ele>
        <time>2018-03-29T15:48:28Z</time>
      </trkpt>
      <trkpt lat="45.96182" lon="4.71554">
        <ele>183</ele>
        <time>2018-03-29T15:48:29Z</time>
      </trkpt>
      <trkpt lat="45.96177" lon="4.71553">
        <ele>183</ele>
        <time>2018-03-29T15:48:30Z</time>
      </trkpt>
      <trkpt lat="45.96173" lon="4.71552">
        <ele>183</ele>
        <time>2018-03-29T15:48:31Z</time>
      </trkpt>
      <trkpt lat="45.96167" lon="4.7155">
        <ele>184</ele>
        <time>2018-03-29T15:48:32Z</time>
      </trkpt>
      <trkpt lat="45.96162" lon="4.71548">
        <ele>184</ele>
        <time>2018-03-29T15:48:33Z</time>
      </trkpt>
      <trkpt lat="45.96156" lon="4.71548">
        <ele>184</ele>
        <time>2018-03-29T15:48:34Z</time>
      </trkpt>
      <trkpt lat="45.96151" lon="4.71548">
        <ele>184</ele>
        <time>2018-03-29T15:48:35Z</time>
      </trkpt>
      <trkpt lat="45.96146" lon="4.71546">
        <ele>184</ele>
        <time>2018-03-29T15:48:36Z</time>
      </trkpt>
      <trkpt lat="45.96141" lon="4.71545">
        <ele>184</ele>
        <time>2018-03-29T15:48:37Z</time>
      </trkpt>
      <trkpt lat="45.96136" lon="4.71543">
        <ele>185</ele>
        <time>2018-03-29T15:48:38Z</time>
      </trkpt>
      <trkpt lat="45.96131" lon="4.71543">
        <ele>185</ele>
        <time>2018-03-29T15:48:39Z</time>
      </trkpt>
      <trkpt lat="45.96126" lon="4.71542">
        <ele>185</ele>
        <time>2018-03-29T15:48:40Z</time>
      </trkpt>
      <trkpt lat="45.96121" lon="4.71541">
        <ele>185</ele>
        <time>2018-03-29T15:48:41Z</time>
      </trkpt>
      <trkpt lat="45.96116" lon="4.71541">
        <ele>185</ele>
        <time>2018-03-29T15:48:42Z</time>
      </trkpt>
      <trkpt lat="45.96111" lon="4.71539">
        <ele>185</ele>
        <time>2018-03-29T15:48:43Z</time>
      </trkpt>
      <trkpt lat="45.96106" lon="4.71539">
        <ele>185</ele>
        <time>2018-03-29T15:48:44Z</time>
      </trkpt>
      <trkpt lat="45.96101" lon="4.71538">
        <ele>185</ele>
        <time>2018-03-29T15:48:45Z</time>
      </trkpt>
      <trkpt lat="45.96097" lon="4.71537">
        <ele>185</ele>
        <time>2018-03-29T15:48:46Z</time>
      </trkpt>
      <trkpt lat="45.96092" lon="4.71536">
        <ele>185</ele>
        <time>2018-03-29T15:48:47Z</time>
      </trkpt>
      <trkpt lat="45.96087" lon="4.71534">
        <ele>185</ele>
        <time>2018-03-29T15:48:48Z</time>
      </trkpt>
      <trkpt lat="45.96082" lon="4.71534">
        <ele>186</ele>
        <time>2018-03-29T15:48:49Z</time>
      </trkpt>
      <trkpt lat="45.96077" lon="4.71534">
        <ele>186</ele>
        <time>2018-03-29T15:48:50Z</time>
      </trkpt>
      <trkpt lat="45.96072" lon="4.71533">
        <ele>186</ele>
        <time>2018-03-29T15:48:51Z</time>
      </trkpt>
      <trkpt lat="45.96068" lon="4.71532">
        <ele>186</ele>
        <time>2018-03-29T15:48:52Z</time>
      </trkpt>
      <trkpt lat="45.96059" lon="4.71531">
        <ele>186</ele>
        <time>2018-03-29T15:48:54Z</time>
      </trkpt>
      <trkpt lat="45.96055" lon="4.71531">
        <ele>186</ele>
        <time>2018-03-29T15:48:55Z</time>
      </trkpt>
      <trkpt lat="45.96046" lon="4.71528">
        <ele>186</ele>
        <time>2018-03-29T15:48:57Z</time>
      </trkpt>
      <trkpt lat="45.96042" lon="4.71527">
        <ele>186</ele>
        <time>2018-03-29T15:48:58Z</time>
      </trkpt>
      <trkpt lat="45.96036" lon="4.71526">
        <ele>186</ele>
        <time>2018-03-29T15:48:59Z</time>
      </trkpt>
      <trkpt lat="45.96031" lon="4.71526">
        <ele>186</ele>
        <time>2018-03-29T15:49:00Z</time>
      </trkpt>
      <trkpt lat="45.96023" lon="4.71524">
        <ele>186</ele>
        <time>2018-03-29T15:49:02Z</time>
      </trkpt>
      <trkpt lat="45.96018" lon="4.71524">
        <ele>186</ele>
        <time>2018-03-29T15:49:03Z</time>
      </trkpt>
      <trkpt lat="45.9601" lon="4.71522">
        <ele>186</ele>
        <time>2018-03-29T15:49:05Z</time>
      </trkpt>
      <trkpt lat="45.96006" lon="4.71519">
        <ele>186</ele>
        <time>2018-03-29T15:49:06Z</time>
      </trkpt>
      <trkpt lat="45.95998" lon="4.71514">
        <ele>186</ele>
        <time>2018-03-29T15:49:08Z</time>
      </trkpt>
      <trkpt lat="45.95995" lon="4.71511">
        <ele>186</ele>
        <time>2018-03-29T15:49:09Z</time>
      </trkpt>
      <trkpt lat="45.95986" lon="4.71508">
        <ele>186</ele>
        <time>2018-03-29T15:49:11Z</time>
      </trkpt>
      <trkpt lat="45.95981" lon="4.71509">
        <ele>185</ele>
        <time>2018-03-29T15:49:12Z</time>
      </trkpt>
      <trkpt lat="45.95977" lon="4.7151">
        <ele>185</ele>
        <time>2018-03-29T15:49:13Z</time>
      </trkpt>
      <trkpt lat="45.95971" lon="4.71513">
        <ele>185</ele>
        <time>2018-03-29T15:49:14Z</time>
      </trkpt>
      <trkpt lat="45.95966" lon="4.71515">
        <ele>184</ele>
        <time>2018-03-29T15:49:15Z</time>
      </trkpt>
      <trkpt lat="45.95961" lon="4.71516">
        <ele>184</ele>
        <time>2018-03-29T15:49:16Z</time>
      </trkpt>
      <trkpt lat="45.95956" lon="4.71517">
        <ele>184</ele>
        <time>2018-03-29T15:49:17Z</time>
      </trkpt>
      <trkpt lat="45.9595" lon="4.71518">
        <ele>184</ele>
        <time>2018-03-29T15:49:18Z</time>
      </trkpt>
      <trkpt lat="45.95944" lon="4.71518">
        <ele>184</ele>
        <time>2018-03-29T15:49:19Z</time>
      </trkpt>
      <trkpt lat="45.95938" lon="4.71518">
        <ele>184</ele>
        <time>2018-03-29T15:49:20Z</time>
      </trkpt>
      <trkpt lat="45.95932" lon="4.71518">
        <ele>184</ele>
        <time>2018-03-29T15:49:21Z</time>
      </trkpt>
      <trkpt lat="45.95925" lon="4.71518">
        <ele>184</ele>
        <time>2018-03-29T15:49:22Z</time>
      </trkpt>
      <trkpt lat="45.9592" lon="4.71518">
        <ele>184</ele>
        <time>2018-03-29T15:49:23Z</time>
      </trkpt>
      <trkpt lat="45.95914" lon="4.71518">
        <ele>183</ele>
        <time>2018-03-29T15:49:24Z</time>
      </trkpt>
      <trkpt lat="45.95909" lon="4.71518">
        <ele>183</ele>
        <time>2018-03-29T15:49:25Z</time>
      </trkpt>
      <trkpt lat="45.95904" lon="4.71518">
        <ele>183</ele>
        <time>2018-03-29T15:49:26Z</time>
      </trkpt>
      <trkpt lat="45.95897" lon="4.71517">
        <ele>183</ele>
        <time>2018-03-29T15:49:27Z</time>
      </trkpt>
      <trkpt lat="45.95891" lon="4.71517">
        <ele>182</ele>
        <time>2018-03-29T15:49:28Z</time>
      </trkpt>
      <trkpt lat="45.95886" lon="4.71517">
        <ele>182</ele>
        <time>2018-03-29T15:49:29Z</time>
      </trkpt>
      <trkpt lat="45.95881" lon="4.71517">
        <ele>182</ele>
        <time>2018-03-29T15:49:30Z</time>
      </trkpt>
      <trkpt lat="45.95875" lon="4.71518">
        <ele>182</ele>
        <time>2018-03-29T15:49:31Z</time>
      </trkpt>
      <trkpt lat="45.9587" lon="4.71517">
        <ele>182</ele>
        <time>2018-03-29T15:49:32Z</time>
      </trkpt>
      <trkpt lat="45.95864" lon="4.71517">
        <ele>182</ele>
        <time>2018-03-29T15:49:33Z</time>
      </trkpt>
      <trkpt lat="45.95858" lon="4.71517">
        <ele>182</ele>
        <time>2018-03-29T15:49:34Z</time>
      </trkpt>
      <trkpt lat="45.95852" lon="4.71517">
        <ele>182</ele>
        <time>2018-03-29T15:49:35Z</time>
      </trkpt>
      <trkpt lat="45.95846" lon="4.71516">
        <ele>182</ele>
        <time>2018-03-29T15:49:36Z</time>
      </trkpt>
      <trkpt lat="45.9584" lon="4.71516">
        <ele>183</ele>
        <time>2018-03-29T15:49:37Z</time>
      </trkpt>
      <trkpt lat="45.95834" lon="4.71515">
        <ele>183</ele>
        <time>2018-03-29T15:49:38Z</time>
      </trkpt>
      <trkpt lat="45.95828" lon="4.71515">
        <ele>182</ele>
        <time>2018-03-29T15:49:39Z</time>
      </trkpt>
      <trkpt lat="45.95822" lon="4.71515">
        <ele>182</ele>
        <time>2018-03-29T15:49:40Z</time>
      </trkpt>
      <trkpt lat="45.95817" lon="4.71515">
        <ele>182</ele>
        <time>2018-03-29T15:49:41Z</time>
      </trkpt>
      <trkpt lat="45.95811" lon="4.71515">
        <ele>182</ele>
        <time>2018-03-29T15:49:42Z</time>
      </trkpt>
      <trkpt lat="45.95805" lon="4.71516">
        <ele>181</ele>
        <time>2018-03-29T15:49:43Z</time>
      </trkpt>
      <trkpt lat="45.95799" lon="4.71514">
        <ele>181</ele>
        <time>2018-03-29T15:49:44Z</time>
      </trkpt>
      <trkpt lat="45.95793" lon="4.71514">
        <ele>181</ele>
        <time>2018-03-29T15:49:45Z</time>
      </trkpt>
      <trkpt lat="45.95787" lon="4.71513">
        <ele>181</ele>
        <time>2018-03-29T15:49:46Z</time>
      </trkpt>
      <trkpt lat="45.95781" lon="4.71512">
        <ele>181</ele>
        <time>2018-03-29T15:49:47Z</time>
      </trkpt>
      <trkpt lat="45.95774" lon="4.71513">
        <ele>181</ele>
        <time>2018-03-29T15:49:48Z</time>
      </trkpt>
      <trkpt lat="45.95767" lon="4.71513">
        <ele>181</ele>
        <time>2018-03-29T15:49:49Z</time>
      </trkpt>
      <trkpt lat="45.9576" lon="4.71513">
        <ele>181</ele>
        <time>2018-03-29T15:49:50Z</time>
      </trkpt>
      <trkpt lat="45.95753" lon="4.71512">
        <ele>181</ele>
        <time>2018-03-29T15:49:51Z</time>
      </trkpt>
      <trkpt lat="45.95746" lon="4.71513">
        <ele>181</ele>
        <time>2018-03-29T15:49:52Z</time>
      </trkpt>
      <trkpt lat="45.95739" lon="4.71512">
        <ele>181</ele>
        <time>2018-03-29T15:49:53Z</time>
      </trkpt>
      <trkpt lat="45.95731" lon="4.71513">
        <ele>181</ele>
        <time>2018-03-29T15:49:54Z</time>
      </trkpt>
      <trkpt lat="45.95724" lon="4.71512">
        <ele>180</ele>
        <time>2018-03-29T15:49:55Z</time>
      </trkpt>
      <trkpt lat="45.95717" lon="4.71511">
        <ele>180</ele>
        <time>2018-03-29T15:49:56Z</time>
      </trkpt>
      <trkpt lat="45.95709" lon="4.71511">
        <ele>180</ele>
        <time>2018-03-29T15:49:57Z</time>
      </trkpt>
      <trkpt lat="45.95702" lon="4.7151">
        <ele>180</ele>
        <time>2018-03-29T15:49:58Z</time>
      </trkpt>
      <trkpt lat="45.95695" lon="4.71509">
        <ele>180</ele>
        <time>2018-03-29T15:49:59Z</time>
      </trkpt>
      <trkpt lat="45.95689" lon="4.71509">
        <ele>181</ele>
        <time>2018-03-29T15:50:00Z</time>
      </trkpt>
      <trkpt lat="45.95682" lon="4.71508">
        <ele>181</ele>
        <time>2018-03-29T15:50:01Z</time>
      </trkpt>
      <trkpt lat="45.95675" lon="4.71508">
        <ele>181</ele>
        <time>2018-03-29T15:50:02Z</time>
      </trkpt>
      <trkpt lat="45.95668" lon="4.71507">
        <ele>181</ele>
        <time>2018-03-29T15:50:03Z</time>
      </trkpt>
      <trkpt lat="45.95661" lon="4.71507">
        <ele>181</ele>
        <time>2018-03-29T15:50:04Z</time>
      </trkpt>
      <trkpt lat="45.95654" lon="4.71507">
        <ele>181</ele>
        <time>2018-03-29T15:50:05Z</time>
      </trkpt>
      <trkpt lat="45.95647" lon="4.71507">
        <ele>180</ele>
        <time>2018-03-29T15:50:06Z</time>
      </trkpt>
      <trkpt lat="45.9564" lon="4.71506">
        <ele>180</ele>
        <time>2018-03-29T15:50:07Z</time>
      </trkpt>
      <trkpt lat="45.95634" lon="4.71505">
        <ele>180</ele>
        <time>2018-03-29T15:50:08Z</time>
      </trkpt>
      <trkpt lat="45.95627" lon="4.71506">
        <ele>180</ele>
        <time>2018-03-29T15:50:09Z</time>
      </trkpt>
      <trkpt lat="45.95621" lon="4.71506">
        <ele>179</ele>
        <time>2018-03-29T15:50:10Z</time>
      </trkpt>
      <trkpt lat="45.95614" lon="4.71506">
        <ele>179</ele>
        <time>2018-03-29T15:50:11Z</time>
      </trkpt>
      <trkpt lat="45.95608" lon="4.71504">
        <ele>179</ele>
        <time>2018-03-29T15:50:12Z</time>
      </trkpt>
      <trkpt lat="45.95601" lon="4.71503">
        <ele>179</ele>
        <time>2018-03-29T15:50:13Z</time>
      </trkpt>
      <trkpt lat="45.95593" lon="4.71504">
        <ele>180</ele>
        <time>2018-03-29T15:50:14Z</time>
      </trkpt>
      <trkpt lat="45.95586" lon="4.71504">
        <ele>180</ele>
        <time>2018-03-29T15:50:15Z</time>
      </trkpt>
      <trkpt lat="45.95578" lon="4.71504">
        <ele>179</ele>
        <time>2018-03-29T15:50:16Z</time>
      </trkpt>
      <trkpt lat="45.95571" lon="4.71503">
        <ele>179</ele>
        <time>2018-03-29T15:50:17Z</time>
      </trkpt>
      <trkpt lat="45.95564" lon="4.71503">
        <ele>178</ele>
        <time>2018-03-29T15:50:18Z</time>
      </trkpt>
      <trkpt lat="45.95556" lon="4.71503">
        <ele>178</ele>
        <time>2018-03-29T15:50:19Z</time>
      </trkpt>
      <trkpt lat="45.95549" lon="4.71502">
        <ele>178</ele>
        <time>2018-03-29T15:50:20Z</time>
      </trkpt>
      <trkpt lat="45.95541" lon="4.71502">
        <ele>178</ele>
        <time>2018-03-29T15:50:21Z</time>
      </trkpt>
      <trkpt lat="45.95534" lon="4.71501">
        <ele>177</ele>
        <time>2018-03-29T15:50:22Z</time>
      </trkpt>
      <trkpt lat="45.95527" lon="4.715">
        <ele>178</ele>
        <time>2018-03-29T15:50:23Z</time>
      </trkpt>
      <trkpt lat="45.95519" lon="4.71499">
        <ele>178</ele>
        <time>2018-03-29T15:50:24Z</time>
      </trkpt>
      <trkpt lat="45.95513" lon="4.71499">
        <ele>178</ele>
        <time>2018-03-29T15:50:25Z</time>
      </trkpt>
      <trkpt lat="45.95506" lon="4.71498">
        <ele>177</ele>
        <time>2018-03-29T15:50:26Z</time>
      </trkpt>
      <trkpt lat="45.955" lon="4.71498">
        <ele>177</ele>
        <time>2018-03-29T15:50:27Z</time>
      </trkpt>
      <trkpt lat="45.95493" lon="4.71498">
        <ele>177</ele>
        <time>2018-03-29T15:50:28Z</time>
      </trkpt>
      <trkpt lat="45.95486" lon="4.71496">
        <ele>177</ele>
        <time>2018-03-29T15:50:29Z</time>
      </trkpt>
      <trkpt lat="45.95479" lon="4.71496">
        <ele>176</ele>
        <time>2018-03-29T15:50:30Z</time>
      </trkpt>
      <trkpt lat="45.95471" lon="4.71496">
        <ele>176</ele>
        <time>2018-03-29T15:50:31Z</time>
      </trkpt>
      <trkpt lat="45.95464" lon="4.71494">
        <ele>176</ele>
        <time>2018-03-29T15:50:32Z</time>
      </trkpt>
      <trkpt lat="45.95456" lon="4.71494">
        <ele>176</ele>
        <time>2018-03-29T15:50:33Z</time>
      </trkpt>
      <trkpt lat="45.95449" lon="4.71493">
        <ele>176</ele>
        <time>2018-03-29T15:50:34Z</time>
      </trkpt>
      <trkpt lat="45.95442" lon="4.71492">
        <ele>176</ele>
        <time>2018-03-29T15:50:35Z</time>
      </trkpt>
      <trkpt lat="45.95435" lon="4.71492">
        <ele>175</ele>
        <time>2018-03-29T15:50:36Z</time>
      </trkpt>
      <trkpt lat="45.95428" lon="4.7149">
        <ele>175</ele>
        <time>2018-03-29T15:50:37Z</time>
      </trkpt>
      <trkpt lat="45.95421" lon="4.71489">
        <ele>175</ele>
        <time>2018-03-29T15:50:38Z</time>
      </trkpt>
      <trkpt lat="45.95414" lon="4.71489">
        <ele>174</ele>
        <time>2018-03-29T15:50:39Z</time>
      </trkpt>
      <trkpt lat="45.95406" lon="4.71489">
        <ele>175</ele>
        <time>2018-03-29T15:50:40Z</time>
      </trkpt>
      <trkpt lat="45.95399" lon="4.71489">
        <ele>175</ele>
        <time>2018-03-29T15:50:41Z</time>
      </trkpt>
      <trkpt lat="45.95391" lon="4.71488">
        <ele>175</ele>
        <time>2018-03-29T15:50:42Z</time>
      </trkpt>
      <trkpt lat="45.95384" lon="4.71488">
        <ele>175</ele>
        <time>2018-03-29T15:50:43Z</time>
      </trkpt>
      <trkpt lat="45.95377" lon="4.71487">
        <ele>175</ele>
        <time>2018-03-29T15:50:44Z</time>
      </trkpt>
      <trkpt lat="45.95369" lon="4.71486">
        <ele>175</ele>
        <time>2018-03-29T15:50:45Z</time>
      </trkpt>
      <trkpt lat="45.95362" lon="4.71485">
        <ele>175</ele>
        <time>2018-03-29T15:50:46Z</time>
      </trkpt>
      <trkpt lat="45.95354" lon="4.71486">
        <ele>175</ele>
        <time>2018-03-29T15:50:47Z</time>
      </trkpt>
      <trkpt lat="45.95347" lon="4.71485">
        <ele>175</ele>
        <time>2018-03-29T15:50:48Z</time>
      </trkpt>
      <trkpt lat="45.9534" lon="4.71484">
        <ele>175</ele>
        <time>2018-03-29T15:50:49Z</time>
      </trkpt>
      <trkpt lat="45.95332" lon="4.71484">
        <ele>175</ele>
        <time>2018-03-29T15:50:50Z</time>
      </trkpt>
      <trkpt lat="45.95324" lon="4.71483">
        <ele>175</ele>
        <time>2018-03-29T15:50:51Z</time>
      </trkpt>
      <trkpt lat="45.95316" lon="4.71482">
        <ele>175</ele>
        <time>2018-03-29T15:50:52Z</time>
      </trkpt>
      <trkpt lat="45.95308" lon="4.71481">
        <ele>175</ele>
        <time>2018-03-29T15:50:53Z</time>
      </trkpt>
      <trkpt lat="45.95301" lon="4.71481">
        <ele>176</ele>
        <time>2018-03-29T15:50:54Z</time>
      </trkpt>
      <trkpt lat="45.95293" lon="4.71481">
        <ele>176</ele>
        <time>2018-03-29T15:50:55Z</time>
      </trkpt>
      <trkpt lat="45.95285" lon="4.7148">
        <ele>176</ele>
        <time>2018-03-29T15:50:56Z</time>
      </trkpt>
      <trkpt lat="45.95277" lon="4.7148">
        <ele>176</ele>
        <time>2018-03-29T15:50:57Z</time>
      </trkpt>
      <trkpt lat="45.9527" lon="4.7148">
        <ele>176</ele>
        <time>2018-03-29T15:50:58Z</time>
      </trkpt>
      <trkpt lat="45.95263" lon="4.7148">
        <ele>176</ele>
        <time>2018-03-29T15:50:59Z</time>
      </trkpt>
      <trkpt lat="45.95256" lon="4.71479">
        <ele>176</ele>
        <time>2018-03-29T15:51:00Z</time>
      </trkpt>
      <trkpt lat="45.95248" lon="4.71479">
        <ele>177</ele>
        <time>2018-03-29T15:51:01Z</time>
      </trkpt>
      <trkpt lat="45.95241" lon="4.71478">
        <ele>177</ele>
        <time>2018-03-29T15:51:02Z</time>
      </trkpt>
      <trkpt lat="45.95234" lon="4.71478">
        <ele>177</ele>
        <time>2018-03-29T15:51:03Z</time>
      </trkpt>
      <trkpt lat="45.95228" lon="4.71478">
        <ele>177</ele>
        <time>2018-03-29T15:51:04Z</time>
      </trkpt>
      <trkpt lat="45.95221" lon="4.71477">
        <ele>177</ele>
        <time>2018-03-29T15:51:05Z</time>
      </trkpt>
      <trkpt lat="45.95214" lon="4.71476">
        <ele>177</ele>
        <time>2018-03-29T15:51:06Z</time>
      </trkpt>
      <trkpt lat="45.95207" lon="4.71477">
        <ele>177</ele>
        <time>2018-03-29T15:51:07Z</time>
      </trkpt>
      <trkpt lat="45.95201" lon="4.71476">
        <ele>177</ele>
        <time>2018-03-29T15:51:08Z</time>
      </trkpt>
      <trkpt lat="45.95194" lon="4.71476">
        <ele>177</ele>
        <time>2018-03-29T15:51:09Z</time>
      </trkpt>
      <trkpt lat="45.95188" lon="4.71475">
        <ele>177</ele>
        <time>2018-03-29T15:51:10Z</time>
      </trkpt>
      <trkpt lat="45.95181" lon="4.71476">
        <ele>177</ele>
        <time>2018-03-29T15:51:11Z</time>
      </trkpt>
      <trkpt lat="45.95175" lon="4.71474">
        <ele>177</ele>
        <time>2018-03-29T15:51:12Z</time>
      </trkpt>
      <trkpt lat="45.95168" lon="4.71473">
        <ele>177</ele>
        <time>2018-03-29T15:51:13Z</time>
      </trkpt>
      <trkpt lat="45.95161" lon="4.71472">
        <ele>178</ele>
        <time>2018-03-29T15:51:14Z</time>
      </trkpt>
      <trkpt lat="45.95155" lon="4.71471">
        <ele>178</ele>
        <time>2018-03-29T15:51:15Z</time>
      </trkpt>
      <trkpt lat="45.9515" lon="4.71471">
        <ele>178</ele>
        <time>2018-03-29T15:51:16Z</time>
      </trkpt>
      <trkpt lat="45.95144" lon="4.71471">
        <ele>178</ele>
        <time>2018-03-29T15:51:17Z</time>
      </trkpt>
      <trkpt lat="45.95138" lon="4.71471">
        <ele>178</ele>
        <time>2018-03-29T15:51:18Z</time>
      </trkpt>
      <trkpt lat="45.95132" lon="4.7147">
        <ele>178</ele>
        <time>2018-03-29T15:51:19Z</time>
      </trkpt>
      <trkpt lat="45.95127" lon="4.7147">
        <ele>178</ele>
        <time>2018-03-29T15:51:20Z</time>
      </trkpt>
      <trkpt lat="45.95121" lon="4.71468">
        <ele>179</ele>
        <time>2018-03-29T15:51:21Z</time>
      </trkpt>
      <trkpt lat="45.95116" lon="4.71468">
        <ele>179</ele>
        <time>2018-03-29T15:51:22Z</time>
      </trkpt>
      <trkpt lat="45.9511" lon="4.71467">
        <ele>179</ele>
        <time>2018-03-29T15:51:23Z</time>
      </trkpt>
      <trkpt lat="45.95105" lon="4.71467">
        <ele>179</ele>
        <time>2018-03-29T15:51:24Z</time>
      </trkpt>
      <trkpt lat="45.951" lon="4.71466">
        <ele>179</ele>
        <time>2018-03-29T15:51:25Z</time>
      </trkpt>
      <trkpt lat="45.95095" lon="4.71467">
        <ele>179</ele>
        <time>2018-03-29T15:51:26Z</time>
      </trkpt>
      <trkpt lat="45.95089" lon="4.71466">
        <ele>179</ele>
        <time>2018-03-29T15:51:27Z</time>
      </trkpt>
      <trkpt lat="45.95084" lon="4.71466">
        <ele>179</ele>
        <time>2018-03-29T15:51:28Z</time>
      </trkpt>
      <trkpt lat="45.95079" lon="4.71465">
        <ele>181</ele>
        <time>2018-03-29T15:51:29Z</time>
      </trkpt>
      <trkpt lat="45.95074" lon="4.71465">
        <ele>181</ele>
        <time>2018-03-29T15:51:30Z</time>
      </trkpt>
      <trkpt lat="45.95069" lon="4.71465">
        <ele>181</ele>
        <time>2018-03-29T15:51:31Z</time>
      </trkpt>
      <trkpt lat="45.95065" lon="4.71465">
        <ele>181</ele>
        <time>2018-03-29T15:51:32Z</time>
      </trkpt>
      <trkpt lat="45.95056" lon="4.71465">
        <ele>181</ele>
        <time>2018-03-29T15:51:34Z</time>
      </trkpt>
      <trkpt lat="45.95052" lon="4.71465">
        <ele>181</ele>
        <time>2018-03-29T15:51:35Z</time>
      </trkpt>
      <trkpt lat="45.95043" lon="4.71464">
        <ele>182</ele>
        <time>2018-03-29T15:51:37Z</time>
      </trkpt>
      <trkpt lat="45.95039" lon="4.71464">
        <ele>182</ele>
        <time>2018-03-29T15:51:38Z</time>
      </trkpt>
      <trkpt lat="45.95031" lon="4.71462">
        <ele>182</ele>
        <time>2018-03-29T15:51:40Z</time>
      </trkpt>
      <trkpt lat="45.95028" lon="4.71461">
        <ele>182</ele>
        <time>2018-03-29T15:51:41Z</time>
      </trkpt>
      <trkpt lat="45.95019" lon="4.71461">
        <ele>182</ele>
        <time>2018-03-29T15:51:43Z</time>
      </trkpt>
      <trkpt lat="45.95015" lon="4.71461">
        <ele>182</ele>
        <time>2018-03-29T15:51:44Z</time>
      </trkpt>
      <trkpt lat="45.95008" lon="4.71461">
        <ele>182</ele>
        <time>2018-03-29T15:51:46Z</time>
      </trkpt>
      <trkpt lat="45.95004" lon="4.7146">
        <ele>182</ele>
        <time>2018-03-29T15:51:47Z</time>
      </trkpt>
      <trkpt lat="45.94996" lon="4.71457">
        <ele>184</ele>
        <time>2018-03-29T15:51:49Z</time>
      </trkpt>
      <trkpt lat="45.94992" lon="4.71451">
        <ele>184</ele>
        <time>2018-03-29T15:51:50Z</time>
      </trkpt>
      <trkpt lat="45.94986" lon="4.71442">
        <ele>184</ele>
        <time>2018-03-29T15:51:52Z</time>
      </trkpt>
      <trkpt lat="45.94983" lon="4.71438">
        <ele>185</ele>
        <time>2018-03-29T15:51:53Z</time>
      </trkpt>
      <trkpt lat="45.94976" lon="4.71432">
        <ele>185</ele>
        <time>2018-03-29T15:51:55Z</time>
      </trkpt>
      <trkpt lat="45.94971" lon="4.7143">
        <ele>185</ele>
        <time>2018-03-29T15:51:56Z</time>
      </trkpt>
      <trkpt lat="45.94962" lon="4.71431">
        <ele>185</ele>
        <time>2018-03-29T15:51:58Z</time>
      </trkpt>
      <trkpt lat="45.94958" lon="4.71433">
        <ele>184</ele>
        <time>2018-03-29T15:51:59Z</time>
      </trkpt>
      <trkpt lat="45.94954" lon="4.71437">
        <ele>184</ele>
        <time>2018-03-29T15:52:00Z</time>
      </trkpt>
      <trkpt lat="45.94951" lon="4.71442">
        <ele>184</ele>
        <time>2018-03-29T15:52:01Z</time>
      </trkpt>
      <trkpt lat="45.94947" lon="4.71447">
        <ele>184</ele>
        <time>2018-03-29T15:52:02Z</time>
      </trkpt>
      <trkpt lat="45.94942" lon="4.71451">
        <ele>184</ele>
        <time>2018-03-29T15:52:03Z</time>
      </trkpt>
      <trkpt lat="45.94938" lon="4.71454">
        <ele>184</ele>
        <time>2018-03-29T15:52:04Z</time>
      </trkpt>
      <trkpt lat="45.94933" lon="4.71455">
        <ele>184</ele>
        <time>2018-03-29T15:52:05Z</time>
      </trkpt>
      <trkpt lat="45.94927" lon="4.71456">
        <ele>184</ele>
        <time>2018-03-29T15:52:06Z</time>
      </trkpt>
      <trkpt lat="45.94922" lon="4.71456">
        <ele>184</ele>
        <time>2018-03-29T15:52:07Z</time>
      </trkpt>
      <trkpt lat="45.94916" lon="4.71457">
        <ele>184</ele>
        <time>2018-03-29T15:52:08Z</time>
      </trkpt>
      <trkpt lat="45.94911" lon="4.71456">
        <ele>184</ele>
        <time>2018-03-29T15:52:09Z</time>
      </trkpt>
      <trkpt lat="45.94906" lon="4.71455">
        <ele>184</ele>
        <time>2018-03-29T15:52:10Z</time>
      </trkpt>
      <trkpt lat="45.94901" lon="4.71455">
        <ele>184</ele>
        <time>2018-03-29T15:52:11Z</time>
      </trkpt>
      <trkpt lat="45.94896" lon="4.71455">
        <ele>184</ele>
        <time>2018-03-29T15:52:12Z</time>
      </trkpt>
      <trkpt lat="45.94891" lon="4.71454">
        <ele>184</ele>
        <time>2018-03-29T15:52:13Z</time>
      </trkpt>
      <trkpt lat="45.94887" lon="4.71453">
        <ele>184</ele>
        <time>2018-03-29T15:52:14Z</time>
      </trkpt>
      <trkpt lat="45.94882" lon="4.71453">
        <ele>184</ele>
        <time>2018-03-29T15:52:15Z</time>
      </trkpt>
      <trkpt lat="45.94876" lon="4.71452">
        <ele>184</ele>
        <time>2018-03-29T15:52:16Z</time>
      </trkpt>
      <trkpt lat="45.94872" lon="4.71452">
        <ele>184</ele>
        <time>2018-03-29T15:52:17Z</time>
      </trkpt>
      <trkpt lat="45.94867" lon="4.71452">
        <ele>184</ele>
        <time>2018-03-29T15:52:18Z</time>
      </trkpt>
      <trkpt lat="45.94863" lon="4.71451">
        <ele>184</ele>
        <time>2018-03-29T15:52:19Z</time>
      </trkpt>
      <trkpt lat="45.94858" lon="4.7145">
        <ele>184</ele>
        <time>2018-03-29T15:52:20Z</time>
      </trkpt>
      <trkpt lat="45.94853" lon="4.7145">
        <ele>184</ele>
        <time>2018-03-29T15:52:21Z</time>
      </trkpt>
      <trkpt lat="45.94848" lon="4.71449">
        <ele>184</ele>
        <time>2018-03-29T15:52:22Z</time>
      </trkpt>
      <trkpt lat="45.94844" lon="4.71449">
        <ele>184</ele>
        <time>2018-03-29T15:52:23Z</time>
      </trkpt>
      <trkpt lat="45.94839" lon="4.71449">
        <ele>184</ele>
        <time>2018-03-29T15:52:24Z</time>
      </trkpt>
      <trkpt lat="45.94834" lon="4.71449">
        <ele>184</ele>
        <time>2018-03-29T15:52:25Z</time>
      </trkpt>
      <trkpt lat="45.94829" lon="4.71449">
        <ele>184</ele>
        <time>2018-03-29T15:52:26Z</time>
      </trkpt>
      <trkpt lat="45.94824" lon="4.71449">
        <ele>184</ele>
        <time>2018-03-29T15:52:27Z</time>
      </trkpt>
      <trkpt lat="45.9482" lon="4.71449">
        <ele>184</ele>
        <time>2018-03-29T15:52:28Z</time>
      </trkpt>
      <trkpt lat="45.94815" lon="4.71449">
        <ele>184</ele>
        <time>2018-03-29T15:52:29Z</time>
      </trkpt>
      <trkpt lat="45.94806" lon="4.71448">
        <ele>183</ele>
        <time>2018-03-29T15:52:31Z</time>
      </trkpt>
      <trkpt lat="45.94801" lon="4.71447">
        <ele>183</ele>
        <time>2018-03-29T15:52:32Z</time>
      </trkpt>
      <trkpt lat="45.94797" lon="4.71447">
        <ele>183</ele>
        <time>2018-03-29T15:52:33Z</time>
      </trkpt>
      <trkpt lat="45.94792" lon="4.71447">
        <ele>183</ele>
        <time>2018-03-29T15:52:34Z</time>
      </trkpt>
      <trkpt lat="45.94784" lon="4.71446">
        <ele>183</ele>
        <time>2018-03-29T15:52:36Z</time>
      </trkpt>
      <trkpt lat="45.9478" lon="4.71444">
        <ele>183</ele>
        <time>2018-03-29T15:52:37Z</time>
      </trkpt>
      <trkpt lat="45.94771" lon="4.71445">
        <ele>184</ele>
        <time>2018-03-29T15:52:39Z</time>
      </trkpt>
      <trkpt lat="45.94767" lon="4.71445">
        <ele>184</ele>
        <time>2018-03-29T15:52:40Z</time>
      </trkpt>
      <trkpt lat="45.94762" lon="4.71445">
        <ele>184</ele>
        <time>2018-03-29T15:52:41Z</time>
      </trkpt>
      <trkpt lat="45.94757" lon="4.71444">
        <ele>184</ele>
        <time>2018-03-29T15:52:42Z</time>
      </trkpt>
      <trkpt lat="45.94753" lon="4.71443">
        <ele>184</ele>
        <time>2018-03-29T15:52:43Z</time>
      </trkpt>
      <trkpt lat="45.94748" lon="4.71442">
        <ele>183</ele>
        <time>2018-03-29T15:52:44Z</time>
      </trkpt>
      <trkpt lat="45.94743" lon="4.71442">
        <ele>183</ele>
        <time>2018-03-29T15:52:45Z</time>
      </trkpt>
      <trkpt lat="45.94739" lon="4.71442">
        <ele>183</ele>
        <time>2018-03-29T15:52:46Z</time>
      </trkpt>
      <trkpt lat="45.94733" lon="4.71443">
        <ele>183</ele>
        <time>2018-03-29T15:52:47Z</time>
      </trkpt>
      <trkpt lat="45.94729" lon="4.71442">
        <ele>183</ele>
        <time>2018-03-29T15:52:48Z</time>
      </trkpt>
      <trkpt lat="45.94724" lon="4.71441">
        <ele>183</ele>
        <time>2018-03-29T15:52:49Z</time>
      </trkpt>
      <trkpt lat="45.94719" lon="4.71441">
        <ele>182</ele>
        <time>2018-03-29T15:52:50Z</time>
      </trkpt>
      <trkpt lat="45.9471" lon="4.7144">
        <ele>182</ele>
        <time>2018-03-29T15:52:52Z</time>
      </trkpt>
      <trkpt lat="45.94705" lon="4.7144">
        <ele>182</ele>
        <time>2018-03-29T15:52:53Z</time>
      </trkpt>
      <trkpt lat="45.947" lon="4.7144">
        <ele>182</ele>
        <time>2018-03-29T15:52:54Z</time>
      </trkpt>
      <trkpt lat="45.94694" lon="4.71439">
        <ele>182</ele>
        <time>2018-03-29T15:52:55Z</time>
      </trkpt>
      <trkpt lat="45.94685" lon="4.71439">
        <ele>182</ele>
        <time>2018-03-29T15:52:57Z</time>
      </trkpt>
      <trkpt lat="45.9468" lon="4.71437">
        <ele>182</ele>
        <time>2018-03-29T15:52:58Z</time>
      </trkpt>
      <trkpt lat="45.94675" lon="4.71437">
        <ele>182</ele>
        <time>2018-03-29T15:52:59Z</time>
      </trkpt>
      <trkpt lat="45.9467" lon="4.71437">
        <ele>182</ele>
        <time>2018-03-29T15:53:00Z</time>
      </trkpt>
      <trkpt lat="45.94665" lon="4.71437">
        <ele>182</ele>
        <time>2018-03-29T15:53:01Z</time>
      </trkpt>
      <trkpt lat="45.9466" lon="4.71435">
        <ele>182</ele>
        <time>2018-03-29T15:53:02Z</time>
      </trkpt>
      <trkpt lat="45.94655" lon="4.71435">
        <ele>182</ele>
        <time>2018-03-29T15:53:03Z</time>
      </trkpt>
      <trkpt lat="45.9465" lon="4.71435">
        <ele>182</ele>
        <time>2018-03-29T15:53:04Z</time>
      </trkpt>
      <trkpt lat="45.94645" lon="4.71435">
        <ele>182</ele>
        <time>2018-03-29T15:53:05Z</time>
      </trkpt>
      <trkpt lat="45.9464" lon="4.71435">
        <ele>182</ele>
        <time>2018-03-29T15:53:06Z</time>
      </trkpt>
      <trkpt lat="45.94635" lon="4.71435">
        <ele>182</ele>
        <time>2018-03-29T15:53:07Z</time>
      </trkpt>
      <trkpt lat="45.9463" lon="4.71433">
        <ele>182</ele>
        <time>2018-03-29T15:53:08Z</time>
      </trkpt>
      <trkpt lat="45.94625" lon="4.71433">
        <ele>182</ele>
        <time>2018-03-29T15:53:09Z</time>
      </trkpt>
      <trkpt lat="45.94621" lon="4.71433">
        <ele>182</ele>
        <time>2018-03-29T15:53:10Z</time>
      </trkpt>
      <trkpt lat="45.94616" lon="4.71432">
        <ele>182</ele>
        <time>2018-03-29T15:53:11Z</time>
      </trkpt>
      <trkpt lat="45.94608" lon="4.7143">
        <ele>182</ele>
        <time>2018-03-29T15:53:12Z</time>
      </trkpt>
      <trkpt lat="45.94603" lon="4.7143">
        <ele>182</ele>
        <time>2018-03-29T15:53:13Z</time>
      </trkpt>
      <trkpt lat="45.94599" lon="4.7143">
        <ele>182</ele>
        <time>2018-03-29T15:53:14Z</time>
      </trkpt>
      <trkpt lat="45.94593" lon="4.71431">
        <ele>183</ele>
        <time>2018-03-29T15:53:15Z</time>
      </trkpt>
      <trkpt lat="45.94588" lon="4.71431">
        <ele>183</ele>
        <time>2018-03-29T15:53:16Z</time>
      </trkpt>
      <trkpt lat="45.94582" lon="4.71432">
        <ele>183</ele>
        <time>2018-03-29T15:53:17Z</time>
      </trkpt>
      <trkpt lat="45.94577" lon="4.71432">
        <ele>182</ele>
        <time>2018-03-29T15:53:18Z</time>
      </trkpt>
      <trkpt lat="45.94571" lon="4.71434">
        <ele>182</ele>
        <time>2018-03-29T15:53:19Z</time>
      </trkpt>
      <trkpt lat="45.94565" lon="4.71436">
        <ele>182</ele>
        <time>2018-03-29T15:53:20Z</time>
      </trkpt>
      <trkpt lat="45.94558" lon="4.71437">
        <ele>181</ele>
        <time>2018-03-29T15:53:21Z</time>
      </trkpt>
      <trkpt lat="45.94551" lon="4.71438">
        <ele>181</ele>
        <time>2018-03-29T15:53:22Z</time>
      </trkpt>
      <trkpt lat="45.94545" lon="4.71441">
        <ele>181</ele>
        <time>2018-03-29T15:53:23Z</time>
      </trkpt>
      <trkpt lat="45.94539" lon="4.71442">
        <ele>181</ele>
        <time>2018-03-29T15:53:24Z</time>
      </trkpt>
      <trkpt lat="45.94532" lon="4.71445">
        <ele>180</ele>
        <time>2018-03-29T15:53:25Z</time>
      </trkpt>
      <trkpt lat="45.94526" lon="4.71448">
        <ele>180</ele>
        <time>2018-03-29T15:53:26Z</time>
      </trkpt>
      <trkpt lat="45.94519" lon="4.71452">
        <ele>180</ele>
        <time>2018-03-29T15:53:27Z</time>
      </trkpt>
      <trkpt lat="45.94512" lon="4.71455">
        <ele>180</ele>
        <time>2018-03-29T15:53:28Z</time>
      </trkpt>
      <trkpt lat="45.94504" lon="4.71458">
        <ele>180</ele>
        <time>2018-03-29T15:53:29Z</time>
      </trkpt>
      <trkpt lat="45.94496" lon="4.71461">
        <ele>179</ele>
        <time>2018-03-29T15:53:30Z</time>
      </trkpt>
      <trkpt lat="45.9449" lon="4.71464">
        <ele>179</ele>
        <time>2018-03-29T15:53:31Z</time>
      </trkpt>
      <trkpt lat="45.94483" lon="4.71466">
        <ele>179</ele>
        <time>2018-03-29T15:53:32Z</time>
      </trkpt>
      <trkpt lat="45.94476" lon="4.71469">
        <ele>179</ele>
        <time>2018-03-29T15:53:33Z</time>
      </trkpt>
      <trkpt lat="45.9447" lon="4.71472">
        <ele>179</ele>
        <time>2018-03-29T15:53:34Z</time>
      </trkpt>
      <trkpt lat="45.94461" lon="4.71476">
        <ele>179</ele>
        <time>2018-03-29T15:53:35Z</time>
      </trkpt>
      <trkpt lat="45.94454" lon="4.7148">
        <ele>179</ele>
        <time>2018-03-29T15:53:36Z</time>
      </trkpt>
      <trkpt lat="45.94447" lon="4.71482">
        <ele>179</ele>
        <time>2018-03-29T15:53:37Z</time>
      </trkpt>
      <trkpt lat="45.94441" lon="4.71485">
        <ele>179</ele>
        <time>2018-03-29T15:53:38Z</time>
      </trkpt>
      <trkpt lat="45.94433" lon="4.71487">
        <ele>178</ele>
        <time>2018-03-29T15:53:39Z</time>
      </trkpt>
      <trkpt lat="45.94426" lon="4.7149">
        <ele>178</ele>
        <time>2018-03-29T15:53:40Z</time>
      </trkpt>
      <trkpt lat="45.94419" lon="4.71493">
        <ele>178</ele>
        <time>2018-03-29T15:53:41Z</time>
      </trkpt>
      <trkpt lat="45.94411" lon="4.71497">
        <ele>178</ele>
        <time>2018-03-29T15:53:42Z</time>
      </trkpt>
      <trkpt lat="45.94404" lon="4.71499">
        <ele>178</ele>
        <time>2018-03-29T15:53:43Z</time>
      </trkpt>
      <trkpt lat="45.94397" lon="4.71502">
        <ele>177</ele>
        <time>2018-03-29T15:53:44Z</time>
      </trkpt>
      <trkpt lat="45.94391" lon="4.71503">
        <ele>177</ele>
        <time>2018-03-29T15:53:45Z</time>
      </trkpt>
      <trkpt lat="45.94384" lon="4.71506">
        <ele>177</ele>
        <time>2018-03-29T15:53:46Z</time>
      </trkpt>
      <trkpt lat="45.94378" lon="4.71508">
        <ele>177</ele>
        <time>2018-03-29T15:53:47Z</time>
      </trkpt>
      <trkpt lat="45.94371" lon="4.71509">
        <ele>176</ele>
        <time>2018-03-29T15:53:48Z</time>
      </trkpt>
      <trkpt lat="45.94365" lon="4.71512">
        <ele>176</ele>
        <time>2018-03-29T15:53:49Z</time>
      </trkpt>
      <trkpt lat="45.94357" lon="4.71515">
        <ele>176</ele>
        <time>2018-03-29T15:53:50Z</time>
      </trkpt>
      <trkpt lat="45.9435" lon="4.71517">
        <ele>176</ele>
        <time>2018-03-29T15:53:51Z</time>
      </trkpt>
      <trkpt lat="45.94345" lon="4.71522">
        <ele>176</ele>
        <time>2018-03-29T15:53:52Z</time>
      </trkpt>
      <trkpt lat="45.94337" lon="4.71525">
        <ele>176</ele>
        <time>2018-03-29T15:53:53Z</time>
      </trkpt>
      <trkpt lat="45.9433" lon="4.71528">
        <ele>176</ele>
        <time>2018-03-29T15:53:54Z</time>
      </trkpt>
      <trkpt lat="45.94323" lon="4.71531">
        <ele>176</ele>
        <time>2018-03-29T15:53:55Z</time>
      </trkpt>
      <trkpt lat="45.94315" lon="4.71533">
        <ele>175</ele>
        <time>2018-03-29T15:53:56Z</time>
      </trkpt>
      <trkpt lat="45.94308" lon="4.71536">
        <ele>175</ele>
        <time>2018-03-29T15:53:57Z</time>
      </trkpt>
      <trkpt lat="45.94301" lon="4.71539">
        <ele>175</ele>
        <time>2018-03-29T15:53:58Z</time>
      </trkpt>
      <trkpt lat="45.94294" lon="4.71541">
        <ele>175</ele>
        <time>2018-03-29T15:53:59Z</time>
      </trkpt>
      <trkpt lat="45.94287" lon="4.71543">
        <ele>175</ele>
        <time>2018-03-29T15:54:00Z</time>
      </trkpt>
      <trkpt lat="45.94279" lon="4.71546">
        <ele>175</ele>
        <time>2018-03-29T15:54:01Z</time>
      </trkpt>
      <trkpt lat="45.94273" lon="4.71548">
        <ele>175</ele>
        <time>2018-03-29T15:54:02Z</time>
      </trkpt>
      <trkpt lat="45.94266" lon="4.71551">
        <ele>175</ele>
        <time>2018-03-29T15:54:03Z</time>
      </trkpt>
      <trkpt lat="45.94259" lon="4.71553">
        <ele>175</ele>
        <time>2018-03-29T15:54:04Z</time>
      </trkpt>
      <trkpt lat="45.94252" lon="4.71556">
        <ele>175</ele>
        <time>2018-03-29T15:54:05Z</time>
      </trkpt>
      <trkpt lat="45.94247" lon="4.71557">
        <ele>174</ele>
        <time>2018-03-29T15:54:06Z</time>
      </trkpt>
      <trkpt lat="45.94241" lon="4.71559">
        <ele>174</ele>
        <time>2018-03-29T15:54:07Z</time>
      </trkpt>
      <trkpt lat="45.94235" lon="4.71562">
        <ele>174</ele>
        <time>2018-03-29T15:54:08Z</time>
      </trkpt>
      <trkpt lat="45.94229" lon="4.71565">
        <ele>174</ele>
        <time>2018-03-29T15:54:09Z</time>
      </trkpt>
      <trkpt lat="45.94223" lon="4.71568">
        <ele>174</ele>
        <time>2018-03-29T15:54:10Z</time>
      </trkpt>
      <trkpt lat="45.94218" lon="4.7157">
        <ele>174</ele>
        <time>2018-03-29T15:54:11Z</time>
      </trkpt>
      <trkpt lat="45.94212" lon="4.71572">
        <ele>174</ele>
        <time>2018-03-29T15:54:12Z</time>
      </trkpt>
      <trkpt lat="45.94205" lon="4.71574">
        <ele>174</ele>
        <time>2018-03-29T15:54:13Z</time>
      </trkpt>
      <trkpt lat="45.94199" lon="4.71577">
        <ele>174</ele>
        <time>2018-03-29T15:54:14Z</time>
      </trkpt>
      <trkpt lat="45.94194" lon="4.7158">
        <ele>174</ele>
        <time>2018-03-29T15:54:15Z</time>
      </trkpt>
      <trkpt lat="45.94188" lon="4.71582">
        <ele>174</ele>
        <time>2018-03-29T15:54:16Z</time>
      </trkpt>
      <trkpt lat="45.94182" lon="4.71584">
        <ele>173</ele>
        <time>2018-03-29T15:54:17Z</time>
      </trkpt>
      <trkpt lat="45.94176" lon="4.71586">
        <ele>174</ele>
        <time>2018-03-29T15:54:18Z</time>
      </trkpt>
      <trkpt lat="45.9417" lon="4.71589">
        <ele>174</ele>
        <time>2018-03-29T15:54:19Z</time>
      </trkpt>
      <trkpt lat="45.94163" lon="4.71591">
        <ele>174</ele>
        <time>2018-03-29T15:54:20Z</time>
      </trkpt>
      <trkpt lat="45.94157" lon="4.71594">
        <ele>173</ele>
        <time>2018-03-29T15:54:21Z</time>
      </trkpt>
      <trkpt lat="45.94149" lon="4.71596">
        <ele>173</ele>
        <time>2018-03-29T15:54:22Z</time>
      </trkpt>
      <trkpt lat="45.94142" lon="4.71599">
        <ele>173</ele>
        <time>2018-03-29T15:54:23Z</time>
      </trkpt>
      <trkpt lat="45.94136" lon="4.71602">
        <ele>173</ele>
        <time>2018-03-29T15:54:24Z</time>
      </trkpt>
      <trkpt lat="45.94129" lon="4.71605">
        <ele>173</ele>
        <time>2018-03-29T15:54:25Z</time>
      </trkpt>
      <trkpt lat="45.94123" lon="4.71607">
        <ele>173</ele>
        <time>2018-03-29T15:54:26Z</time>
      </trkpt>
      <trkpt lat="45.94117" lon="4.7161">
        <ele>173</ele>
        <time>2018-03-29T15:54:27Z</time>
      </trkpt>
      <trkpt lat="45.94111" lon="4.71612">
        <ele>173</ele>
        <time>2018-03-29T15:54:28Z</time>
      </trkpt>
      <trkpt lat="45.94105" lon="4.71613">
        <ele>173</ele>
        <time>2018-03-29T15:54:29Z</time>
      </trkpt>
      <trkpt lat="45.94099" lon="4.71616">
        <ele>173</ele>
        <time>2018-03-29T15:54:30Z</time>
      </trkpt>
      <trkpt lat="45.94093" lon="4.71618">
        <ele>173</ele>
        <time>2018-03-29T15:54:31Z</time>
      </trkpt>
      <trkpt lat="45.94087" lon="4.71621">
        <ele>173</ele>
        <time>2018-03-29T15:54:32Z</time>
      </trkpt>
      <trkpt lat="45.9408" lon="4.71622">
        <ele>174</ele>
        <time>2018-03-29T15:54:33Z</time>
      </trkpt>
      <trkpt lat="45.94073" lon="4.71625">
        <ele>174</ele>
        <time>2018-03-29T15:54:34Z</time>
      </trkpt>
      <trkpt lat="45.94067" lon="4.71627">
        <ele>174</ele>
        <time>2018-03-29T15:54:35Z</time>
      </trkpt>
      <trkpt lat="45.9406" lon="4.71629">
        <ele>174</ele>
        <time>2018-03-29T15:54:36Z</time>
      </trkpt>
      <trkpt lat="45.94055" lon="4.71632">
        <ele>174</ele>
        <time>2018-03-29T15:54:37Z</time>
      </trkpt>
      <trkpt lat="45.94048" lon="4.71633">
        <ele>175</ele>
        <time>2018-03-29T15:54:38Z</time>
      </trkpt>
      <trkpt lat="45.94041" lon="4.71637">
        <ele>175</ele>
        <time>2018-03-29T15:54:39Z</time>
      </trkpt>
      <trkpt lat="45.94036" lon="4.71639">
        <ele>175</ele>
        <time>2018-03-29T15:54:40Z</time>
      </trkpt>
      <trkpt lat="45.94031" lon="4.7164">
        <ele>175</ele>
        <time>2018-03-29T15:54:41Z</time>
      </trkpt>
      <trkpt lat="45.94025" lon="4.71643">
        <ele>175</ele>
        <time>2018-03-29T15:54:42Z</time>
      </trkpt>
      <trkpt lat="45.9402" lon="4.71646">
        <ele>175</ele>
        <time>2018-03-29T15:54:43Z</time>
      </trkpt>
      <trkpt lat="45.94016" lon="4.7165">
        <ele>176</ele>
        <time>2018-03-29T15:54:44Z</time>
      </trkpt>
      <trkpt lat="45.94011" lon="4.71654">
        <ele>176</ele>
        <time>2018-03-29T15:54:45Z</time>
      </trkpt>
      <trkpt lat="45.94006" lon="4.71656">
        <ele>176</ele>
        <time>2018-03-29T15:54:46Z</time>
      </trkpt>
      <trkpt lat="45.94002" lon="4.71658">
        <ele>176</ele>
        <time>2018-03-29T15:54:47Z</time>
      </trkpt>
      <trkpt lat="45.93997" lon="4.71658">
        <ele>177</ele>
        <time>2018-03-29T15:54:48Z</time>
      </trkpt>
      <trkpt lat="45.93991" lon="4.71659">
        <ele>177</ele>
        <time>2018-03-29T15:54:49Z</time>
      </trkpt>
      <trkpt lat="45.93986" lon="4.71658">
        <ele>177</ele>
        <time>2018-03-29T15:54:50Z</time>
      </trkpt>
      <trkpt lat="45.93982" lon="4.71661">
        <ele>177</ele>
        <time>2018-03-29T15:54:51Z</time>
      </trkpt>
      <trkpt lat="45.93978" lon="4.71663">
        <ele>177</ele>
        <time>2018-03-29T15:54:52Z</time>
      </trkpt>
      <trkpt lat="45.93973" lon="4.71665">
        <ele>177</ele>
        <time>2018-03-29T15:54:53Z</time>
      </trkpt>
      <trkpt lat="45.93967" lon="4.71667">
        <ele>175</ele>
        <time>2018-03-29T15:54:54Z</time>
      </trkpt>
      <trkpt lat="45.93962" lon="4.71669">
        <ele>175</ele>
        <time>2018-03-29T15:54:55Z</time>
      </trkpt>
      <trkpt lat="45.93956" lon="4.7167">
        <ele>175</ele>
        <time>2018-03-29T15:54:56Z</time>
      </trkpt>
      <trkpt lat="45.9395" lon="4.71672">
        <ele>175</ele>
        <time>2018-03-29T15:54:57Z</time>
      </trkpt>
      <trkpt lat="45.93944" lon="4.71674">
        <ele>175</ele>
        <time>2018-03-29T15:54:58Z</time>
      </trkpt>
      <trkpt lat="45.93938" lon="4.71676">
        <ele>175</ele>
        <time>2018-03-29T15:54:59Z</time>
      </trkpt>
      <trkpt lat="45.93932" lon="4.71678">
        <ele>175</ele>
        <time>2018-03-29T15:55:00Z</time>
      </trkpt>
      <trkpt lat="45.93927" lon="4.7168">
        <ele>175</ele>
        <time>2018-03-29T15:55:01Z</time>
      </trkpt>
      <trkpt lat="45.93921" lon="4.71682">
        <ele>175</ele>
        <time>2018-03-29T15:55:02Z</time>
      </trkpt>
      <trkpt lat="45.93917" lon="4.71685">
        <ele>175</ele>
        <time>2018-03-29T15:55:03Z</time>
      </trkpt>
      <trkpt lat="45.93913" lon="4.71686">
        <ele>174</ele>
        <time>2018-03-29T15:55:04Z</time>
      </trkpt>
      <trkpt lat="45.93908" lon="4.71688">
        <ele>174</ele>
        <time>2018-03-29T15:55:05Z</time>
      </trkpt>
      <trkpt lat="45.93902" lon="4.71692">
        <ele>174</ele>
        <time>2018-03-29T15:55:06Z</time>
      </trkpt>
      <trkpt lat="45.93894" lon="4.71695">
        <ele>174</ele>
        <time>2018-03-29T15:55:08Z</time>
      </trkpt>
      <trkpt lat="45.93889" lon="4.71697">
        <ele>174</ele>
        <time>2018-03-29T15:55:09Z</time>
      </trkpt>
      <trkpt lat="45.93882" lon="4.717">
        <ele>174</ele>
        <time>2018-03-29T15:55:11Z</time>
      </trkpt>
      <trkpt lat="45.93878" lon="4.71701">
        <ele>174</ele>
        <time>2018-03-29T15:55:12Z</time>
      </trkpt>
      <trkpt lat="45.93873" lon="4.71703">
        <ele>174</ele>
        <time>2018-03-29T15:55:13Z</time>
      </trkpt>
      <trkpt lat="45.93868" lon="4.71705">
        <ele>174</ele>
        <time>2018-03-29T15:55:14Z</time>
      </trkpt>
      <trkpt lat="45.93863" lon="4.71707">
        <ele>174</ele>
        <time>2018-03-29T15:55:15Z</time>
      </trkpt>
      <trkpt lat="45.93858" lon="4.71708">
        <ele>174</ele>
        <time>2018-03-29T15:55:16Z</time>
      </trkpt>
      <trkpt lat="45.93853" lon="4.7171">
        <ele>174</ele>
        <time>2018-03-29T15:55:17Z</time>
      </trkpt>
      <trkpt lat="45.93848" lon="4.71712">
        <ele>174</ele>
        <time>2018-03-29T15:55:18Z</time>
      </trkpt>
      <trkpt lat="45.93842" lon="4.71715">
        <ele>174</ele>
        <time>2018-03-29T15:55:19Z</time>
      </trkpt>
      <trkpt lat="45.93838" lon="4.71717">
        <ele>175</ele>
        <time>2018-03-29T15:55:20Z</time>
      </trkpt>
      <trkpt lat="45.93832" lon="4.71718">
        <ele>175</ele>
        <time>2018-03-29T15:55:21Z</time>
      </trkpt>
      <trkpt lat="45.93827" lon="4.7172">
        <ele>175</ele>
        <time>2018-03-29T15:55:22Z</time>
      </trkpt>
      <trkpt lat="45.93822" lon="4.71722">
        <ele>175</ele>
        <time>2018-03-29T15:55:23Z</time>
      </trkpt>
      <trkpt lat="45.93816" lon="4.71723">
        <ele>175</ele>
        <time>2018-03-29T15:55:24Z</time>
      </trkpt>
      <trkpt lat="45.93812" lon="4.71726">
        <ele>175</ele>
        <time>2018-03-29T15:55:25Z</time>
      </trkpt>
      <trkpt lat="45.93807" lon="4.71729">
        <ele>175</ele>
        <time>2018-03-29T15:55:26Z</time>
      </trkpt>
      <trkpt lat="45.93801" lon="4.71731">
        <ele>175</ele>
        <time>2018-03-29T15:55:27Z</time>
      </trkpt>
      <trkpt lat="45.93796" lon="4.71734">
        <ele>175</ele>
        <time>2018-03-29T15:55:28Z</time>
      </trkpt>
      <trkpt lat="45.93789" lon="4.71736">
        <ele>175</ele>
        <time>2018-03-29T15:55:29Z</time>
      </trkpt>
      <trkpt lat="45.93783" lon="4.71738">
        <ele>175</ele>
        <time>2018-03-29T15:55:30Z</time>
      </trkpt>
      <trkpt lat="45.93778" lon="4.71739">
        <ele>175</ele>
        <time>2018-03-29T15:55:31Z</time>
      </trkpt>
      <trkpt lat="45.93772" lon="4.71741">
        <ele>175</ele>
        <time>2018-03-29T15:55:32Z</time>
      </trkpt>
      <trkpt lat="45.93766" lon="4.71743">
        <ele>175</ele>
        <time>2018-03-29T15:55:33Z</time>
      </trkpt>
      <trkpt lat="45.9376" lon="4.71746">
        <ele>175</ele>
        <time>2018-03-29T15:55:34Z</time>
      </trkpt>
      <trkpt lat="45.93755" lon="4.71747">
        <ele>175</ele>
        <time>2018-03-29T15:55:35Z</time>
      </trkpt>
      <trkpt lat="45.93749" lon="4.71749">
        <ele>175</ele>
        <time>2018-03-29T15:55:36Z</time>
      </trkpt>
      <trkpt lat="45.93743" lon="4.71752">
        <ele>175</ele>
        <time>2018-03-29T15:55:37Z</time>
      </trkpt>
      <trkpt lat="45.93736" lon="4.71756">
        <ele>176</ele>
        <time>2018-03-29T15:55:38Z</time>
      </trkpt>
      <trkpt lat="45.93731" lon="4.71759">
        <ele>176</ele>
        <time>2018-03-29T15:55:39Z</time>
      </trkpt>
      <trkpt lat="45.93727" lon="4.71766">
        <ele>176</ele>
        <time>2018-03-29T15:55:40Z</time>
      </trkpt>
      <trkpt lat="45.93723" lon="4.71773">
        <ele>176</ele>
        <time>2018-03-29T15:55:41Z</time>
      </trkpt>
      <trkpt lat="45.9372" lon="4.71781">
        <ele>176</ele>
        <time>2018-03-29T15:55:42Z</time>
      </trkpt>
      <trkpt lat="45.93716" lon="4.71788">
        <ele>176</ele>
        <time>2018-03-29T15:55:43Z</time>
      </trkpt>
      <trkpt lat="45.93714" lon="4.71796">
        <ele>176</ele>
        <time>2018-03-29T15:55:44Z</time>
      </trkpt>
      <trkpt lat="45.93711" lon="4.71805">
        <ele>176</ele>
        <time>2018-03-29T15:55:45Z</time>
      </trkpt>
      <trkpt lat="45.93709" lon="4.7181">
        <ele>176</ele>
        <time>2018-03-29T15:55:46Z</time>
      </trkpt>
      <trkpt lat="45.93706" lon="4.71819">
        <ele>176</ele>
        <time>2018-03-29T15:55:47Z</time>
      </trkpt>
      <trkpt lat="45.93704" lon="4.71826">
        <ele>176</ele>
        <time>2018-03-29T15:55:48Z</time>
      </trkpt>
      <trkpt lat="45.93699" lon="4.71834">
        <ele>175</ele>
        <time>2018-03-29T15:55:49Z</time>
      </trkpt>
      <trkpt lat="45.93696" lon="4.71843">
        <ele>175</ele>
        <time>2018-03-29T15:55:50Z</time>
      </trkpt>
      <trkpt lat="45.93693" lon="4.7185">
        <ele>175</ele>
        <time>2018-03-29T15:55:51Z</time>
      </trkpt>
      <trkpt lat="45.9369" lon="4.71858">
        <ele>175</ele>
        <time>2018-03-29T15:55:52Z</time>
      </trkpt>
      <trkpt lat="45.93687" lon="4.71866">
        <ele>175</ele>
        <time>2018-03-29T15:55:53Z</time>
      </trkpt>
      <trkpt lat="45.93684" lon="4.71873">
        <ele>175</ele>
        <time>2018-03-29T15:55:54Z</time>
      </trkpt>
      <trkpt lat="45.93683" lon="4.7188">
        <ele>175</ele>
        <time>2018-03-29T15:55:55Z</time>
      </trkpt>
      <trkpt lat="45.93681" lon="4.71887">
        <ele>175</ele>
        <time>2018-03-29T15:55:56Z</time>
      </trkpt>
      <trkpt lat="45.93677" lon="4.71894">
        <ele>175</ele>
        <time>2018-03-29T15:55:57Z</time>
      </trkpt>
      <trkpt lat="45.93674" lon="4.71901">
        <ele>175</ele>
        <time>2018-03-29T15:55:58Z</time>
      </trkpt>
      <trkpt lat="45.93671" lon="4.71908">
        <ele>175</ele>
        <time>2018-03-29T15:55:59Z</time>
      </trkpt>
      <trkpt lat="45.93669" lon="4.71913">
        <ele>175</ele>
        <time>2018-03-29T15:56:00Z</time>
      </trkpt>
      <trkpt lat="45.93668" lon="4.71925">
        <ele>174</ele>
        <time>2018-03-29T15:56:05Z</time>
      </trkpt>
      <trkpt lat="45.93668" lon="4.71926">
        <ele>174</ele>
        <time>2018-03-29T15:56:06Z</time>
      </trkpt>
      <trkpt lat="45.93662" lon="4.71933">
        <ele>175</ele>
        <time>2018-03-29T15:56:25Z</time>
      </trkpt>
      <trkpt lat="45.9366" lon="4.71933">
        <ele>175</ele>
        <time>2018-03-29T15:56:26Z</time>
      </trkpt>
      <trkpt lat="45.93655" lon="4.7194">
        <ele>175</ele>
        <time>2018-03-29T15:56:29Z</time>
      </trkpt>
      <trkpt lat="45.93649" lon="4.71951">
        <ele>175</ele>
        <time>2018-03-29T15:56:30Z</time>
      </trkpt>
      <trkpt lat="45.93646" lon="4.71963">
        <ele>175</ele>
        <time>2018-03-29T15:56:32Z</time>
      </trkpt>
      <trkpt lat="45.93644" lon="4.71969">
        <ele>175</ele>
        <time>2018-03-29T15:56:33Z</time>
      </trkpt>
      <trkpt lat="45.93642" lon="4.71975">
        <ele>175</ele>
        <time>2018-03-29T15:56:34Z</time>
      </trkpt>
      <trkpt lat="45.93639" lon="4.71982">
        <ele>175</ele>
        <time>2018-03-29T15:56:35Z</time>
      </trkpt>
      <trkpt lat="45.93637" lon="4.71988">
        <ele>175</ele>
        <time>2018-03-29T15:56:36Z</time>
      </trkpt>
      <trkpt lat="45.93635" lon="4.71994">
        <ele>175</ele>
        <time>2018-03-29T15:56:37Z</time>
      </trkpt>
      <trkpt lat="45.93632" lon="4.72001">
        <ele>174</ele>
        <time>2018-03-29T15:56:38Z</time>
      </trkpt>
      <trkpt lat="45.93629" lon="4.72007">
        <ele>175</ele>
        <time>2018-03-29T15:56:39Z</time>
      </trkpt>
      <trkpt lat="45.93627" lon="4.72013">
        <ele>175</ele>
        <time>2018-03-29T15:56:40Z</time>
      </trkpt>
      <trkpt lat="45.93624" lon="4.7202">
        <ele>175</ele>
        <time>2018-03-29T15:56:41Z</time>
      </trkpt>
      <trkpt lat="45.93621" lon="4.72027">
        <ele>175</ele>
        <time>2018-03-29T15:56:42Z</time>
      </trkpt>
      <trkpt lat="45.93618" lon="4.72034">
        <ele>175</ele>
        <time>2018-03-29T15:56:43Z</time>
      </trkpt>
      <trkpt lat="45.93616" lon="4.72041">
        <ele>175</ele>
        <time>2018-03-29T15:56:44Z</time>
      </trkpt>
      <trkpt lat="45.93615" lon="4.72046">
        <ele>175</ele>
        <time>2018-03-29T15:56:45Z</time>
      </trkpt>
      <trkpt lat="45.93613" lon="4.72052">
        <ele>175</ele>
        <time>2018-03-29T15:56:46Z</time>
      </trkpt>
      <trkpt lat="45.93608" lon="4.72059">
        <ele>175</ele>
        <time>2018-03-29T15:56:47Z</time>
      </trkpt>
      <trkpt lat="45.93607" lon="4.72066">
        <ele>175</ele>
        <time>2018-03-29T15:56:48Z</time>
      </trkpt>
      <trkpt lat="45.93605" lon="4.72072">
        <ele>175</ele>
        <time>2018-03-29T15:56:49Z</time>
      </trkpt>
      <trkpt lat="45.93603" lon="4.72079">
        <ele>175</ele>
        <time>2018-03-29T15:56:50Z</time>
      </trkpt>
      <trkpt lat="45.93599" lon="4.72086">
        <ele>175</ele>
        <time>2018-03-29T15:56:51Z</time>
      </trkpt>
      <trkpt lat="45.93596" lon="4.72092">
        <ele>175</ele>
        <time>2018-03-29T15:56:52Z</time>
      </trkpt>
      <trkpt lat="45.93593" lon="4.72097">
        <ele>175</ele>
        <time>2018-03-29T15:56:53Z</time>
      </trkpt>
      <trkpt lat="45.9359" lon="4.72108">
        <ele>174</ele>
        <time>2018-03-29T15:56:55Z</time>
      </trkpt>
      <trkpt lat="45.93588" lon="4.72113">
        <ele>174</ele>
        <time>2018-03-29T15:56:56Z</time>
      </trkpt>
      <trkpt lat="45.93583" lon="4.7212">
        <ele>175</ele>
        <time>2018-03-29T15:56:58Z</time>
      </trkpt>
      <trkpt lat="45.9358" lon="4.72124">
        <ele>175</ele>
        <time>2018-03-29T15:56:59Z</time>
      </trkpt>
      <trkpt lat="45.93577" lon="4.72129">
        <ele>174</ele>
        <time>2018-03-29T15:57:00Z</time>
      </trkpt>
      <trkpt lat="45.93576" lon="4.72135">
        <ele>174</ele>
        <time>2018-03-29T15:57:01Z</time>
      </trkpt>
      <trkpt lat="45.93573" lon="4.72143">
        <ele>174</ele>
        <time>2018-03-29T15:57:02Z</time>
      </trkpt>
      <trkpt lat="45.93572" lon="4.72151">
        <ele>174</ele>
        <time>2018-03-29T15:57:03Z</time>
      </trkpt>
      <trkpt lat="45.93569" lon="4.72159">
        <ele>174</ele>
        <time>2018-03-29T15:57:04Z</time>
      </trkpt>
      <trkpt lat="45.93567" lon="4.72167">
        <ele>173</ele>
        <time>2018-03-29T15:57:05Z</time>
      </trkpt>
      <trkpt lat="45.93565" lon="4.72175">
        <ele>173</ele>
        <time>2018-03-29T15:57:06Z</time>
      </trkpt>
      <trkpt lat="45.93562" lon="4.72181">
        <ele>173</ele>
        <time>2018-03-29T15:57:07Z</time>
      </trkpt>
      <trkpt lat="45.93559" lon="4.72188">
        <ele>173</ele>
        <time>2018-03-29T15:57:08Z</time>
      </trkpt>
      <trkpt lat="45.93556" lon="4.72196">
        <ele>173</ele>
        <time>2018-03-29T15:57:09Z</time>
      </trkpt>
      <trkpt lat="45.93555" lon="4.722">
        <ele>173</ele>
        <time>2018-03-29T15:57:10Z</time>
      </trkpt>
      <trkpt lat="45.93551" lon="4.72207">
        <ele>173</ele>
        <time>2018-03-29T15:57:11Z</time>
      </trkpt>
      <trkpt lat="45.93548" lon="4.72214">
        <ele>173</ele>
        <time>2018-03-29T15:57:12Z</time>
      </trkpt>
      <trkpt lat="45.93545" lon="4.72221">
        <ele>172</ele>
        <time>2018-03-29T15:57:13Z</time>
      </trkpt>
      <trkpt lat="45.93542" lon="4.72227">
        <ele>172</ele>
        <time>2018-03-29T15:57:14Z</time>
      </trkpt>
      <trkpt lat="45.93541" lon="4.72234">
        <ele>172</ele>
        <time>2018-03-29T15:57:15Z</time>
      </trkpt>
      <trkpt lat="45.93536" lon="4.72241">
        <ele>172</ele>
        <time>2018-03-29T15:57:16Z</time>
      </trkpt>
      <trkpt lat="45.93533" lon="4.72248">
        <ele>172</ele>
        <time>2018-03-29T15:57:17Z</time>
      </trkpt>
      <trkpt lat="45.93532" lon="4.72254">
        <ele>172</ele>
        <time>2018-03-29T15:57:18Z</time>
      </trkpt>
      <trkpt lat="45.93529" lon="4.7226">
        <ele>172</ele>
        <time>2018-03-29T15:57:19Z</time>
      </trkpt>
      <trkpt lat="45.93526" lon="4.72267">
        <ele>172</ele>
        <time>2018-03-29T15:57:20Z</time>
      </trkpt>
      <trkpt lat="45.93523" lon="4.72273">
        <ele>172</ele>
        <time>2018-03-29T15:57:21Z</time>
      </trkpt>
      <trkpt lat="45.93521" lon="4.7228">
        <ele>172</ele>
        <time>2018-03-29T15:57:22Z</time>
      </trkpt>
      <trkpt lat="45.93518" lon="4.72286">
        <ele>172</ele>
        <time>2018-03-29T15:57:23Z</time>
      </trkpt>
      <trkpt lat="45.93516" lon="4.72292">
        <ele>172</ele>
        <time>2018-03-29T15:57:24Z</time>
      </trkpt>
      <trkpt lat="45.93513" lon="4.72298">
        <ele>172</ele>
        <time>2018-03-29T15:57:25Z</time>
      </trkpt>
      <trkpt lat="45.93509" lon="4.72304">
        <ele>173</ele>
        <time>2018-03-29T15:57:26Z</time>
      </trkpt>
      <trkpt lat="45.93506" lon="4.7231">
        <ele>173</ele>
        <time>2018-03-29T15:57:27Z</time>
      </trkpt>
      <trkpt lat="45.93502" lon="4.72316">
        <ele>173</ele>
        <time>2018-03-29T15:57:28Z</time>
      </trkpt>
      <trkpt lat="45.93498" lon="4.72324">
        <ele>173</ele>
        <time>2018-03-29T15:57:29Z</time>
      </trkpt>
      <trkpt lat="45.93494" lon="4.7233">
        <ele>173</ele>
        <time>2018-03-29T15:57:30Z</time>
      </trkpt>
      <trkpt lat="45.9349" lon="4.72337">
        <ele>173</ele>
        <time>2018-03-29T15:57:31Z</time>
      </trkpt>
      <trkpt lat="45.93486" lon="4.72343">
        <ele>173</ele>
        <time>2018-03-29T15:57:32Z</time>
      </trkpt>
      <trkpt lat="45.93482" lon="4.72349">
        <ele>173</ele>
        <time>2018-03-29T15:57:33Z</time>
      </trkpt>
      <trkpt lat="45.93479" lon="4.72354">
        <ele>173</ele>
        <time>2018-03-29T15:57:34Z</time>
      </trkpt>
      <trkpt lat="45.93475" lon="4.72359">
        <ele>173</ele>
        <time>2018-03-29T15:57:35Z</time>
      </trkpt>
      <trkpt lat="45.93471" lon="4.72365">
        <ele>173</ele>
        <time>2018-03-29T15:57:36Z</time>
      </trkpt>
      <trkpt lat="45.93467" lon="4.7237">
        <ele>173</ele>
        <time>2018-03-29T15:57:37Z</time>
      </trkpt>
      <trkpt lat="45.93464" lon="4.72375">
        <ele>173</ele>
        <time>2018-03-29T15:57:38Z</time>
      </trkpt>
      <trkpt lat="45.93457" lon="4.7238">
        <ele>173</ele>
        <time>2018-03-29T15:57:39Z</time>
      </trkpt>
      <trkpt lat="45.93453" lon="4.72385">
        <ele>173</ele>
        <time>2018-03-29T15:57:40Z</time>
      </trkpt>
      <trkpt lat="45.93448" lon="4.72389">
        <ele>173</ele>
        <time>2018-03-29T15:57:41Z</time>
      </trkpt>
      <trkpt lat="45.93444" lon="4.72392">
        <ele>173</ele>
        <time>2018-03-29T15:57:42Z</time>
      </trkpt>
      <trkpt lat="45.93438" lon="4.72395">
        <ele>173</ele>
        <time>2018-03-29T15:57:43Z</time>
      </trkpt>
      <trkpt lat="45.93433" lon="4.72399">
        <ele>174</ele>
        <time>2018-03-29T15:57:44Z</time>
      </trkpt>
      <trkpt lat="45.93429" lon="4.724">
        <ele>174</ele>
        <time>2018-03-29T15:57:45Z</time>
      </trkpt>
      <trkpt lat="45.93424" lon="4.72402">
        <ele>174</ele>
        <time>2018-03-29T15:57:46Z</time>
      </trkpt>
      <trkpt lat="45.93419" lon="4.72405">
        <ele>174</ele>
        <time>2018-03-29T15:57:47Z</time>
      </trkpt>
      <trkpt lat="45.93414" lon="4.72406">
        <ele>174</ele>
        <time>2018-03-29T15:57:48Z</time>
      </trkpt>
      <trkpt lat="45.93408" lon="4.72407">
        <ele>174</ele>
        <time>2018-03-29T15:57:49Z</time>
      </trkpt>
      <trkpt lat="45.93403" lon="4.72406">
        <ele>174</ele>
        <time>2018-03-29T15:57:50Z</time>
      </trkpt>
      <trkpt lat="45.93398" lon="4.72405">
        <ele>174</ele>
        <time>2018-03-29T15:57:51Z</time>
      </trkpt>
      <trkpt lat="45.93392" lon="4.72405">
        <ele>174</ele>
        <time>2018-03-29T15:57:52Z</time>
      </trkpt>
      <trkpt lat="45.93387" lon="4.72408">
        <ele>174</ele>
        <time>2018-03-29T15:57:53Z</time>
      </trkpt>
      <trkpt lat="45.93384" lon="4.72413">
        <ele>174</ele>
        <time>2018-03-29T15:57:54Z</time>
      </trkpt>
      <trkpt lat="45.93382" lon="4.7242">
        <ele>173</ele>
        <time>2018-03-29T15:57:55Z</time>
      </trkpt>
      <trkpt lat="45.93383" lon="4.72427">
        <ele>173</ele>
        <time>2018-03-29T15:57:56Z</time>
      </trkpt>
      <trkpt lat="45.93384" lon="4.72433">
        <ele>173</ele>
        <time>2018-03-29T15:57:57Z</time>
      </trkpt>
      <trkpt lat="45.93386" lon="4.7244">
        <ele>173</ele>
        <time>2018-03-29T15:57:58Z</time>
      </trkpt>
      <trkpt lat="45.93388" lon="4.72449">
        <ele>173</ele>
        <time>2018-03-29T15:57:59Z</time>
      </trkpt>
      <trkpt lat="45.93389" lon="4.72456">
        <ele>173</ele>
        <time>2018-03-29T15:58:00Z</time>
      </trkpt>
      <trkpt lat="45.93387" lon="4.72464">
        <ele>173</ele>
        <time>2018-03-29T15:58:01Z</time>
      </trkpt>
      <trkpt lat="45.93383" lon="4.72469">
        <ele>173</ele>
        <time>2018-03-29T15:58:02Z</time>
      </trkpt>
      <trkpt lat="45.93379" lon="4.72475">
        <ele>173</ele>
        <time>2018-03-29T15:58:03Z</time>
      </trkpt>
      <trkpt lat="45.93375" lon="4.72478">
        <ele>173</ele>
        <time>2018-03-29T15:58:04Z</time>
      </trkpt>
      <trkpt lat="45.93371" lon="4.72481">
        <ele>173</ele>
        <time>2018-03-29T15:58:05Z</time>
      </trkpt>
      <trkpt lat="45.93367" lon="4.72488">
        <ele>173</ele>
        <time>2018-03-29T15:58:06Z</time>
      </trkpt>
      <trkpt lat="45.93363" lon="4.72493">
        <ele>173</ele>
        <time>2018-03-29T15:58:07Z</time>
      </trkpt>
      <trkpt lat="45.93359" lon="4.72498">
        <ele>173</ele>
        <time>2018-03-29T15:58:08Z</time>
      </trkpt>
      <trkpt lat="45.93357" lon="4.72503">
        <ele>172</ele>
        <time>2018-03-29T15:58:09Z</time>
      </trkpt>
      <trkpt lat="45.93353" lon="4.72507">
        <ele>172</ele>
        <time>2018-03-29T15:58:10Z</time>
      </trkpt>
      <trkpt lat="45.9335" lon="4.72513">
        <ele>172</ele>
        <time>2018-03-29T15:58:11Z</time>
      </trkpt>
      <trkpt lat="45.93345" lon="4.72517">
        <ele>172</ele>
        <time>2018-03-29T15:58:12Z</time>
      </trkpt>
      <trkpt lat="45.9334" lon="4.72522">
        <ele>172</ele>
        <time>2018-03-29T15:58:13Z</time>
      </trkpt>
      <trkpt lat="45.93335" lon="4.72528">
        <ele>172</ele>
        <time>2018-03-29T15:58:14Z</time>
      </trkpt>
      <trkpt lat="45.93331" lon="4.72533">
        <ele>172</ele>
        <time>2018-03-29T15:58:15Z</time>
      </trkpt>
      <trkpt lat="45.93327" lon="4.72538">
        <ele>172</ele>
        <time>2018-03-29T15:58:16Z</time>
      </trkpt>
      <trkpt lat="45.93322" lon="4.72544">
        <ele>172</ele>
        <time>2018-03-29T15:58:17Z</time>
      </trkpt>
      <trkpt lat="45.93318" lon="4.72549">
        <ele>172</ele>
        <time>2018-03-29T15:58:18Z</time>
      </trkpt>
      <trkpt lat="45.93313" lon="4.72553">
        <ele>172</ele>
        <time>2018-03-29T15:58:19Z</time>
      </trkpt>
      <trkpt lat="45.93308" lon="4.72558">
        <ele>172</ele>
        <time>2018-03-29T15:58:20Z</time>
      </trkpt>
      <trkpt lat="45.93303" lon="4.72563">
        <ele>172</ele>
        <time>2018-03-29T15:58:21Z</time>
      </trkpt>
      <trkpt lat="45.93299" lon="4.72568">
        <ele>172</ele>
        <time>2018-03-29T15:58:22Z</time>
      </trkpt>
      <trkpt lat="45.93295" lon="4.72573">
        <ele>171</ele>
        <time>2018-03-29T15:58:23Z</time>
      </trkpt>
      <trkpt lat="45.9329" lon="4.72579">
        <ele>171</ele>
        <time>2018-03-29T15:58:24Z</time>
      </trkpt>
      <trkpt lat="45.93286" lon="4.72583">
        <ele>171</ele>
        <time>2018-03-29T15:58:25Z</time>
      </trkpt>
      <trkpt lat="45.93282" lon="4.7259">
        <ele>170</ele>
        <time>2018-03-29T15:58:26Z</time>
      </trkpt>
      <trkpt lat="45.93278" lon="4.72595">
        <ele>170</ele>
        <time>2018-03-29T15:58:27Z</time>
      </trkpt>
      <trkpt lat="45.93275" lon="4.726">
        <ele>170</ele>
        <time>2018-03-29T15:58:28Z</time>
      </trkpt>
      <trkpt lat="45.93269" lon="4.72604">
        <ele>170</ele>
        <time>2018-03-29T15:58:29Z</time>
      </trkpt>
      <trkpt lat="45.93265" lon="4.72608">
        <ele>170</ele>
        <time>2018-03-29T15:58:30Z</time>
      </trkpt>
      <trkpt lat="45.93261" lon="4.72613">
        <ele>170</ele>
        <time>2018-03-29T15:58:31Z</time>
      </trkpt>
      <trkpt lat="45.93257" lon="4.72617">
        <ele>170</ele>
        <time>2018-03-29T15:58:32Z</time>
      </trkpt>
      <trkpt lat="45.93253" lon="4.72621">
        <ele>170</ele>
        <time>2018-03-29T15:58:33Z</time>
      </trkpt>
      <trkpt lat="45.93247" lon="4.7263">
        <ele>170</ele>
        <time>2018-03-29T15:58:35Z</time>
      </trkpt>
      <trkpt lat="45.93243" lon="4.72634">
        <ele>170</ele>
        <time>2018-03-29T15:58:36Z</time>
      </trkpt>
      <trkpt lat="45.93239" lon="4.72639">
        <ele>170</ele>
        <time>2018-03-29T15:58:37Z</time>
      </trkpt>
      <trkpt lat="45.93234" lon="4.72644">
        <ele>170</ele>
        <time>2018-03-29T15:58:38Z</time>
      </trkpt>
      <trkpt lat="45.93229" lon="4.72649">
        <ele>170</ele>
        <time>2018-03-29T15:58:39Z</time>
      </trkpt>
      <trkpt lat="45.93225" lon="4.72654">
        <ele>170</ele>
        <time>2018-03-29T15:58:40Z</time>
      </trkpt>
      <trkpt lat="45.93222" lon="4.72659">
        <ele>170</ele>
        <time>2018-03-29T15:58:41Z</time>
      </trkpt>
      <trkpt lat="45.93218" lon="4.72664">
        <ele>170</ele>
        <time>2018-03-29T15:58:42Z</time>
      </trkpt>
      <trkpt lat="45.93211" lon="4.72672">
        <ele>169</ele>
        <time>2018-03-29T15:58:44Z</time>
      </trkpt>
      <trkpt lat="45.93207" lon="4.72677">
        <ele>169</ele>
        <time>2018-03-29T15:58:45Z</time>
      </trkpt>
      <trkpt lat="45.93202" lon="4.72682">
        <ele>169</ele>
        <time>2018-03-29T15:58:46Z</time>
      </trkpt>
      <trkpt lat="45.93198" lon="4.72687">
        <ele>169</ele>
        <time>2018-03-29T15:58:47Z</time>
      </trkpt>
      <trkpt lat="45.93194" lon="4.72691">
        <ele>169</ele>
        <time>2018-03-29T15:58:48Z</time>
      </trkpt>
      <trkpt lat="45.9319" lon="4.72698">
        <ele>169</ele>
        <time>2018-03-29T15:58:49Z</time>
      </trkpt>
      <trkpt lat="45.93186" lon="4.72702">
        <ele>169</ele>
        <time>2018-03-29T15:58:50Z</time>
      </trkpt>
      <trkpt lat="45.93182" lon="4.72707">
        <ele>169</ele>
        <time>2018-03-29T15:58:51Z</time>
      </trkpt>
      <trkpt lat="45.93178" lon="4.72711">
        <ele>169</ele>
        <time>2018-03-29T15:58:52Z</time>
      </trkpt>
      <trkpt lat="45.93174" lon="4.72716">
        <ele>170</ele>
        <time>2018-03-29T15:58:53Z</time>
      </trkpt>
      <trkpt lat="45.9317" lon="4.72721">
        <ele>170</ele>
        <time>2018-03-29T15:58:54Z</time>
      </trkpt>
      <trkpt lat="45.93165" lon="4.72726">
        <ele>170</ele>
        <time>2018-03-29T15:58:55Z</time>
      </trkpt>
      <trkpt lat="45.93161" lon="4.72731">
        <ele>170</ele>
        <time>2018-03-29T15:58:56Z</time>
      </trkpt>
      <trkpt lat="45.93156" lon="4.72736">
        <ele>170</ele>
        <time>2018-03-29T15:58:57Z</time>
      </trkpt>
      <trkpt lat="45.93151" lon="4.72742">
        <ele>170</ele>
        <time>2018-03-29T15:58:58Z</time>
      </trkpt>
      <trkpt lat="45.93147" lon="4.72747">
        <ele>170</ele>
        <time>2018-03-29T15:58:59Z</time>
      </trkpt>
      <trkpt lat="45.93143" lon="4.72752">
        <ele>171</ele>
        <time>2018-03-29T15:59:00Z</time>
      </trkpt>
      <trkpt lat="45.93138" lon="4.72758">
        <ele>171</ele>
        <time>2018-03-29T15:59:01Z</time>
      </trkpt>
      <trkpt lat="45.93134" lon="4.72763">
        <ele>171</ele>
        <time>2018-03-29T15:59:02Z</time>
      </trkpt>
      <trkpt lat="45.93129" lon="4.72769">
        <ele>171</ele>
        <time>2018-03-29T15:59:03Z</time>
      </trkpt>
      <trkpt lat="45.93124" lon="4.72775">
        <ele>171</ele>
        <time>2018-03-29T15:59:04Z</time>
      </trkpt>
      <trkpt lat="45.9312" lon="4.7278">
        <ele>171</ele>
        <time>2018-03-29T15:59:05Z</time>
      </trkpt>
      <trkpt lat="45.93116" lon="4.72785">
        <ele>171</ele>
        <time>2018-03-29T15:59:06Z</time>
      </trkpt>
      <trkpt lat="45.93111" lon="4.7279">
        <ele>171</ele>
        <time>2018-03-29T15:59:07Z</time>
      </trkpt>
      <trkpt lat="45.93107" lon="4.72795">
        <ele>171</ele>
        <time>2018-03-29T15:59:08Z</time>
      </trkpt>
      <trkpt lat="45.93102" lon="4.728">
        <ele>171</ele>
        <time>2018-03-29T15:59:09Z</time>
      </trkpt>
      <trkpt lat="45.93098" lon="4.72805">
        <ele>171</ele>
        <time>2018-03-29T15:59:10Z</time>
      </trkpt>
      <trkpt lat="45.93093" lon="4.72811">
        <ele>172</ele>
        <time>2018-03-29T15:59:11Z</time>
      </trkpt>
      <trkpt lat="45.93088" lon="4.72816">
        <ele>172</ele>
        <time>2018-03-29T15:59:12Z</time>
      </trkpt>
      <trkpt lat="45.93083" lon="4.7282">
        <ele>173</ele>
        <time>2018-03-29T15:59:13Z</time>
      </trkpt>
      <trkpt lat="45.9308" lon="4.72826">
        <ele>173</ele>
        <time>2018-03-29T15:59:14Z</time>
      </trkpt>
      <trkpt lat="45.93075" lon="4.72831">
        <ele>173</ele>
        <time>2018-03-29T15:59:15Z</time>
      </trkpt>
      <trkpt lat="45.93073" lon="4.72838">
        <ele>173</ele>
        <time>2018-03-29T15:59:16Z</time>
      </trkpt>
      <trkpt lat="45.93069" lon="4.72844">
        <ele>173</ele>
        <time>2018-03-29T15:59:17Z</time>
      </trkpt>
      <trkpt lat="45.93066" lon="4.72849">
        <ele>172</ele>
        <time>2018-03-29T15:59:18Z</time>
      </trkpt>
      <trkpt lat="45.93061" lon="4.72854">
        <ele>172</ele>
        <time>2018-03-29T15:59:19Z</time>
      </trkpt>
      <trkpt lat="45.93051" lon="4.72858">
        <ele>172</ele>
        <time>2018-03-29T15:59:20Z</time>
      </trkpt>
      <trkpt lat="45.93047" lon="4.72859">
        <ele>172</ele>
        <time>2018-03-29T15:59:21Z</time>
      </trkpt>
      <trkpt lat="45.93042" lon="4.72861">
        <ele>172</ele>
        <time>2018-03-29T15:59:22Z</time>
      </trkpt>
      <trkpt lat="45.9304" lon="4.72865">
        <ele>172</ele>
        <time>2018-03-29T15:59:23Z</time>
      </trkpt>
      <trkpt lat="45.93036" lon="4.72871">
        <ele>172</ele>
        <time>2018-03-29T15:59:24Z</time>
      </trkpt>
      <trkpt lat="45.93033" lon="4.72876">
        <ele>172</ele>
        <time>2018-03-29T15:59:25Z</time>
      </trkpt>
      <trkpt lat="45.93029" lon="4.72882">
        <ele>172</ele>
        <time>2018-03-29T15:59:26Z</time>
      </trkpt>
      <trkpt lat="45.93026" lon="4.72887">
        <ele>172</ele>
        <time>2018-03-29T15:59:27Z</time>
      </trkpt>
      <trkpt lat="45.9302" lon="4.72891">
        <ele>172</ele>
        <time>2018-03-29T15:59:28Z</time>
      </trkpt>
      <trkpt lat="45.93014" lon="4.72896">
        <ele>172</ele>
        <time>2018-03-29T15:59:29Z</time>
      </trkpt>
      <trkpt lat="45.9301" lon="4.72902">
        <ele>172</ele>
        <time>2018-03-29T15:59:30Z</time>
      </trkpt>
      <trkpt lat="45.93005" lon="4.72907">
        <ele>171</ele>
        <time>2018-03-29T15:59:31Z</time>
      </trkpt>
      <trkpt lat="45.93002" lon="4.72912">
        <ele>171</ele>
        <time>2018-03-29T15:59:32Z</time>
      </trkpt>
      <trkpt lat="45.92997" lon="4.72918">
        <ele>171</ele>
        <time>2018-03-29T15:59:33Z</time>
      </trkpt>
      <trkpt lat="45.92993" lon="4.72924">
        <ele>171</ele>
        <time>2018-03-29T15:59:34Z</time>
      </trkpt>
      <trkpt lat="45.92989" lon="4.72929">
        <ele>171</ele>
        <time>2018-03-29T15:59:35Z</time>
      </trkpt>
      <trkpt lat="45.92985" lon="4.72935">
        <ele>171</ele>
        <time>2018-03-29T15:59:36Z</time>
      </trkpt>
      <trkpt lat="45.9298" lon="4.7294">
        <ele>171</ele>
        <time>2018-03-29T15:59:37Z</time>
      </trkpt>
      <trkpt lat="45.92976" lon="4.72945">
        <ele>171</ele>
        <time>2018-03-29T15:59:38Z</time>
      </trkpt>
      <trkpt lat="45.92972" lon="4.72949">
        <ele>171</ele>
        <time>2018-03-29T15:59:39Z</time>
      </trkpt>
      <trkpt lat="45.92968" lon="4.72954">
        <ele>171</ele>
        <time>2018-03-29T15:59:40Z</time>
      </trkpt>
      <trkpt lat="45.92964" lon="4.72959">
        <ele>171</ele>
        <time>2018-03-29T15:59:41Z</time>
      </trkpt>
      <trkpt lat="45.9296" lon="4.72964">
        <ele>171</ele>
        <time>2018-03-29T15:59:42Z</time>
      </trkpt>
      <trkpt lat="45.92956" lon="4.7297">
        <ele>171</ele>
        <time>2018-03-29T15:59:43Z</time>
      </trkpt>
      <trkpt lat="45.9295" lon="4.72975">
        <ele>171</ele>
        <time>2018-03-29T15:59:44Z</time>
      </trkpt>
      <trkpt lat="45.92947" lon="4.72981">
        <ele>171</ele>
        <time>2018-03-29T15:59:45Z</time>
      </trkpt>
      <trkpt lat="45.92943" lon="4.72986">
        <ele>171</ele>
        <time>2018-03-29T15:59:46Z</time>
      </trkpt>
      <trkpt lat="45.92939" lon="4.72991">
        <ele>171</ele>
        <time>2018-03-29T15:59:47Z</time>
      </trkpt>
      <trkpt lat="45.92935" lon="4.72996">
        <ele>172</ele>
        <time>2018-03-29T15:59:48Z</time>
      </trkpt>
      <trkpt lat="45.92931" lon="4.73">
        <ele>172</ele>
        <time>2018-03-29T15:59:49Z</time>
      </trkpt>
      <trkpt lat="45.92928" lon="4.73005">
        <ele>172</ele>
        <time>2018-03-29T15:59:50Z</time>
      </trkpt>
      <trkpt lat="45.92923" lon="4.7301">
        <ele>172</ele>
        <time>2018-03-29T15:59:51Z</time>
      </trkpt>
      <trkpt lat="45.92919" lon="4.73015">
        <ele>172</ele>
        <time>2018-03-29T15:59:52Z</time>
      </trkpt>
      <trkpt lat="45.92915" lon="4.73021">
        <ele>172</ele>
        <time>2018-03-29T15:59:53Z</time>
      </trkpt>
      <trkpt lat="45.92911" lon="4.73026">
        <ele>172</ele>
        <time>2018-03-29T15:59:54Z</time>
      </trkpt>
      <trkpt lat="45.92907" lon="4.73032">
        <ele>172</ele>
        <time>2018-03-29T15:59:55Z</time>
      </trkpt>
      <trkpt lat="45.92903" lon="4.73037">
        <ele>172</ele>
        <time>2018-03-29T15:59:56Z</time>
      </trkpt>
      <trkpt lat="45.92899" lon="4.73043">
        <ele>172</ele>
        <time>2018-03-29T15:59:57Z</time>
      </trkpt>
      <trkpt lat="45.92895" lon="4.73049">
        <ele>172</ele>
        <time>2018-03-29T15:59:58Z</time>
      </trkpt>
      <trkpt lat="45.92892" lon="4.73053">
        <ele>172</ele>
        <time>2018-03-29T15:59:59Z</time>
      </trkpt>
      <trkpt lat="45.92888" lon="4.7306">
        <ele>172</ele>
        <time>2018-03-29T16:00:00Z</time>
      </trkpt>
      <trkpt lat="45.92884" lon="4.73065">
        <ele>172</ele>
        <time>2018-03-29T16:00:01Z</time>
      </trkpt>
      <trkpt lat="45.92881" lon="4.7307">
        <ele>172</ele>
        <time>2018-03-29T16:00:02Z</time>
      </trkpt>
      <trkpt lat="45.92878" lon="4.73075">
        <ele>172</ele>
        <time>2018-03-29T16:00:03Z</time>
      </trkpt>
      <trkpt lat="45.92874" lon="4.7308">
        <ele>172</ele>
        <time>2018-03-29T16:00:04Z</time>
      </trkpt>
      <trkpt lat="45.92871" lon="4.73086">
        <ele>172</ele>
        <time>2018-03-29T16:00:05Z</time>
      </trkpt>
      <trkpt lat="45.92868" lon="4.73092">
        <ele>172</ele>
        <time>2018-03-29T16:00:06Z</time>
      </trkpt>
      <trkpt lat="45.92864" lon="4.73098">
        <ele>171</ele>
        <time>2018-03-29T16:00:07Z</time>
      </trkpt>
      <trkpt lat="45.92861" lon="4.73103">
        <ele>171</ele>
        <time>2018-03-29T16:00:08Z</time>
      </trkpt>
      <trkpt lat="45.92853" lon="4.73103">
        <ele>171</ele>
        <time>2018-03-29T16:00:12Z</time>
      </trkpt>
      <trkpt lat="45.92852" lon="4.73101">
        <ele>171</ele>
        <time>2018-03-29T16:00:13Z</time>
      </trkpt>
      <trkpt lat="45.9285" lon="4.73098">
        <ele>171</ele>
        <time>2018-03-29T16:00:14Z</time>
      </trkpt>
      <trkpt lat="45.92847" lon="4.73089">
        <ele>171</ele>
        <time>2018-03-29T16:00:15Z</time>
      </trkpt>
      <trkpt lat="45.92845" lon="4.73077">
        <ele>171</ele>
        <time>2018-03-29T16:00:17Z</time>
      </trkpt>
      <trkpt lat="45.92845" lon="4.7307">
        <ele>171</ele>
        <time>2018-03-29T16:00:18Z</time>
      </trkpt>
      <trkpt lat="45.92844" lon="4.73064">
        <ele>171</ele>
        <time>2018-03-29T16:00:19Z</time>
      </trkpt>
      <trkpt lat="45.92843" lon="4.73058">
        <ele>171</ele>
        <time>2018-03-29T16:00:20Z</time>
      </trkpt>
      <trkpt lat="45.92842" lon="4.73051">
        <ele>171</ele>
        <time>2018-03-29T16:00:21Z</time>
      </trkpt>
      <trkpt lat="45.92841" lon="4.73044">
        <ele>171</ele>
        <time>2018-03-29T16:00:22Z</time>
      </trkpt>
      <trkpt lat="45.9284" lon="4.73037">
        <ele>171</ele>
        <time>2018-03-29T16:00:23Z</time>
      </trkpt>
      <trkpt lat="45.92838" lon="4.7303">
        <ele>171</ele>
        <time>2018-03-29T16:00:24Z</time>
      </trkpt>
      <trkpt lat="45.92838" lon="4.73023">
        <ele>171</ele>
        <time>2018-03-29T16:00:25Z</time>
      </trkpt>
      <trkpt lat="45.92837" lon="4.73017">
        <ele>171</ele>
        <time>2018-03-29T16:00:26Z</time>
      </trkpt>
      <trkpt lat="45.92836" lon="4.7301">
        <ele>171</ele>
        <time>2018-03-29T16:00:27Z</time>
      </trkpt>
      <trkpt lat="45.92836" lon="4.73002">
        <ele>170</ele>
        <time>2018-03-29T16:00:28Z</time>
      </trkpt>
      <trkpt lat="45.92835" lon="4.72995">
        <ele>170</ele>
        <time>2018-03-29T16:00:29Z</time>
      </trkpt>
      <trkpt lat="45.92835" lon="4.72988">
        <ele>170</ele>
        <time>2018-03-29T16:00:30Z</time>
      </trkpt>
      <trkpt lat="45.92834" lon="4.72981">
        <ele>171</ele>
        <time>2018-03-29T16:00:31Z</time>
      </trkpt>
      <trkpt lat="45.92832" lon="4.72973">
        <ele>170</ele>
        <time>2018-03-29T16:00:32Z</time>
      </trkpt>
      <trkpt lat="45.92831" lon="4.72967">
        <ele>170</ele>
        <time>2018-03-29T16:00:33Z</time>
      </trkpt>
      <trkpt lat="45.92831" lon="4.7296">
        <ele>170</ele>
        <time>2018-03-29T16:00:34Z</time>
      </trkpt>
      <trkpt lat="45.92831" lon="4.72953">
        <ele>170</ele>
        <time>2018-03-29T16:00:35Z</time>
      </trkpt>
      <trkpt lat="45.9283" lon="4.72946">
        <ele>170</ele>
        <time>2018-03-29T16:00:36Z</time>
      </trkpt>
      <trkpt lat="45.92829" lon="4.72939">
        <ele>170</ele>
        <time>2018-03-29T16:00:37Z</time>
      </trkpt>
      <trkpt lat="45.9283" lon="4.72932">
        <ele>170</ele>
        <time>2018-03-29T16:00:38Z</time>
      </trkpt>
      <trkpt lat="45.92829" lon="4.72925">
        <ele>170</ele>
        <time>2018-03-29T16:00:39Z</time>
      </trkpt>
      <trkpt lat="45.92828" lon="4.72918">
        <ele>170</ele>
        <time>2018-03-29T16:00:40Z</time>
      </trkpt>
      <trkpt lat="45.92826" lon="4.72906">
        <ele>170</ele>
        <time>2018-03-29T16:00:42Z</time>
      </trkpt>
      <trkpt lat="45.92824" lon="4.72899">
        <ele>170</ele>
        <time>2018-03-29T16:00:43Z</time>
      </trkpt>
      <trkpt lat="45.92824" lon="4.72893">
        <ele>170</ele>
        <time>2018-03-29T16:00:44Z</time>
      </trkpt>
      <trkpt lat="45.92823" lon="4.72886">
        <ele>170</ele>
        <time>2018-03-29T16:00:45Z</time>
      </trkpt>
      <trkpt lat="45.92821" lon="4.72879">
        <ele>170</ele>
        <time>2018-03-29T16:00:46Z</time>
      </trkpt>
      <trkpt lat="45.9282" lon="4.72872">
        <ele>170</ele>
        <time>2018-03-29T16:00:47Z</time>
      </trkpt>
      <trkpt lat="45.92818" lon="4.72865">
        <ele>170</ele>
        <time>2018-03-29T16:00:48Z</time>
      </trkpt>
      <trkpt lat="45.92816" lon="4.72859">
        <ele>170</ele>
        <time>2018-03-29T16:00:49Z</time>
      </trkpt>
      <trkpt lat="45.92816" lon="4.72852">
        <ele>170</ele>
        <time>2018-03-29T16:00:50Z</time>
      </trkpt>
      <trkpt lat="45.92814" lon="4.72845">
        <ele>170</ele>
        <time>2018-03-29T16:00:51Z</time>
      </trkpt>
      <trkpt lat="45.92813" lon="4.72839">
        <ele>170</ele>
        <time>2018-03-29T16:00:52Z</time>
      </trkpt>
      <trkpt lat="45.92811" lon="4.72832">
        <ele>171</ele>
        <time>2018-03-29T16:00:53Z</time>
      </trkpt>
      <trkpt lat="45.92808" lon="4.72821">
        <ele>171</ele>
        <time>2018-03-29T16:00:55Z</time>
      </trkpt>
      <trkpt lat="45.92807" lon="4.72815">
        <ele>171</ele>
        <time>2018-03-29T16:00:56Z</time>
      </trkpt>
      <trkpt lat="45.92807" lon="4.72808">
        <ele>171</ele>
        <time>2018-03-29T16:00:57Z</time>
      </trkpt>
      <trkpt lat="45.92807" lon="4.72802">
        <ele>171</ele>
        <time>2018-03-29T16:00:58Z</time>
      </trkpt>
      <trkpt lat="45.92803" lon="4.72791">
        <ele>171</ele>
        <time>2018-03-29T16:01:00Z</time>
      </trkpt>
      <trkpt lat="45.928" lon="4.72788">
        <ele>171</ele>
        <time>2018-03-29T16:01:01Z</time>
      </trkpt>
      <trkpt lat="45.92794" lon="4.72789">
        <ele>171</ele>
        <time>2018-03-29T16:01:03Z</time>
      </trkpt>
      <trkpt lat="45.92786" lon="4.72791">
        <ele>170</ele>
        <time>2018-03-29T16:01:04Z</time>
      </trkpt>
      <trkpt lat="45.92784" lon="4.72792">
        <ele>170</ele>
        <time>2018-03-29T16:01:05Z</time>
      </trkpt>
      <trkpt lat="45.92778" lon="4.72796">
        <ele>170</ele>
        <time>2018-03-29T16:01:06Z</time>
      </trkpt>
      <trkpt lat="45.92771" lon="4.72801">
        <ele>170</ele>
        <time>2018-03-29T16:01:08Z</time>
      </trkpt>
      <trkpt lat="45.92767" lon="4.72804">
        <ele>170</ele>
        <time>2018-03-29T16:01:09Z</time>
      </trkpt>
      <trkpt lat="45.92763" lon="4.72807">
        <ele>170</ele>
        <time>2018-03-29T16:01:10Z</time>
      </trkpt>
      <trkpt lat="45.92758" lon="4.72811">
        <ele>170</ele>
        <time>2018-03-29T16:01:11Z</time>
      </trkpt>
      <trkpt lat="45.92754" lon="4.72813">
        <ele>170</ele>
        <time>2018-03-29T16:01:12Z</time>
      </trkpt>
      <trkpt lat="45.92749" lon="4.72817">
        <ele>170</ele>
        <time>2018-03-29T16:01:13Z</time>
      </trkpt>
      <trkpt lat="45.92745" lon="4.72821">
        <ele>169</ele>
        <time>2018-03-29T16:01:14Z</time>
      </trkpt>
      <trkpt lat="45.92741" lon="4.72825">
        <ele>169</ele>
        <time>2018-03-29T16:01:15Z</time>
      </trkpt>
      <trkpt lat="45.92736" lon="4.72828">
        <ele>169</ele>
        <time>2018-03-29T16:01:16Z</time>
      </trkpt>
      <trkpt lat="45.92732" lon="4.72831">
        <ele>169</ele>
        <time>2018-03-29T16:01:17Z</time>
      </trkpt>
      <trkpt lat="45.92728" lon="4.72835">
        <ele>169</ele>
        <time>2018-03-29T16:01:18Z</time>
      </trkpt>
      <trkpt lat="45.92723" lon="4.72839">
        <ele>169</ele>
        <time>2018-03-29T16:01:19Z</time>
      </trkpt>
      <trkpt lat="45.92719" lon="4.72842">
        <ele>169</ele>
        <time>2018-03-29T16:01:20Z</time>
      </trkpt>
      <trkpt lat="45.92715" lon="4.72845">
        <ele>169</ele>
        <time>2018-03-29T16:01:21Z</time>
      </trkpt>
      <trkpt lat="45.92711" lon="4.72848">
        <ele>169</ele>
        <time>2018-03-29T16:01:22Z</time>
      </trkpt>
      <trkpt lat="45.92707" lon="4.72852">
        <ele>169</ele>
        <time>2018-03-29T16:01:23Z</time>
      </trkpt>
      <trkpt lat="45.92702" lon="4.72855">
        <ele>169</ele>
        <time>2018-03-29T16:01:24Z</time>
      </trkpt>
      <trkpt lat="45.92699" lon="4.72857">
        <ele>169</ele>
        <time>2018-03-29T16:01:25Z</time>
      </trkpt>
      <trkpt lat="45.92692" lon="4.72861">
        <ele>169</ele>
        <time>2018-03-29T16:01:26Z</time>
      </trkpt>
      <trkpt lat="45.92688" lon="4.72863">
        <ele>169</ele>
        <time>2018-03-29T16:01:27Z</time>
      </trkpt>
      <trkpt lat="45.92681" lon="4.7287">
        <ele>169</ele>
        <time>2018-03-29T16:01:29Z</time>
      </trkpt>
      <trkpt lat="45.92677" lon="4.72873">
        <ele>169</ele>
        <time>2018-03-29T16:01:30Z</time>
      </trkpt>
      <trkpt lat="45.9267" lon="4.72879">
        <ele>170</ele>
        <time>2018-03-29T16:01:32Z</time>
      </trkpt>
      <trkpt lat="45.92666" lon="4.72882">
        <ele>169</ele>
        <time>2018-03-29T16:01:33Z</time>
      </trkpt>
      <trkpt lat="45.92662" lon="4.72886">
        <ele>169</ele>
        <time>2018-03-29T16:01:34Z</time>
      </trkpt>
      <trkpt lat="45.92658" lon="4.72888">
        <ele>169</ele>
        <time>2018-03-29T16:01:35Z</time>
      </trkpt>
      <trkpt lat="45.92652" lon="4.72891">
        <ele>169</ele>
        <time>2018-03-29T16:01:36Z</time>
      </trkpt>
      <trkpt lat="45.92648" lon="4.72895">
        <ele>169</ele>
        <time>2018-03-29T16:01:37Z</time>
      </trkpt>
      <trkpt lat="45.9264" lon="4.72901">
        <ele>169</ele>
        <time>2018-03-29T16:01:39Z</time>
      </trkpt>
      <trkpt lat="45.92637" lon="4.72906">
        <ele>169</ele>
        <time>2018-03-29T16:01:40Z</time>
      </trkpt>
      <trkpt lat="45.92633" lon="4.72909">
        <ele>169</ele>
        <time>2018-03-29T16:01:41Z</time>
      </trkpt>
      <trkpt lat="45.92629" lon="4.72913">
        <ele>169</ele>
        <time>2018-03-29T16:01:42Z</time>
      </trkpt>
      <trkpt lat="45.92625" lon="4.72916">
        <ele>169</ele>
        <time>2018-03-29T16:01:43Z</time>
      </trkpt>
      <trkpt lat="45.9262" lon="4.72919">
        <ele>169</ele>
        <time>2018-03-29T16:01:44Z</time>
      </trkpt>
      <trkpt lat="45.92616" lon="4.72923">
        <ele>169</ele>
        <time>2018-03-29T16:01:45Z</time>
      </trkpt>
      <trkpt lat="45.92611" lon="4.72927">
        <ele>169</ele>
        <time>2018-03-29T16:01:46Z</time>
      </trkpt>
      <trkpt lat="45.92607" lon="4.72932">
        <ele>169</ele>
        <time>2018-03-29T16:01:47Z</time>
      </trkpt>
      <trkpt lat="45.92602" lon="4.72937">
        <ele>169</ele>
        <time>2018-03-29T16:01:48Z</time>
      </trkpt>
      <trkpt lat="45.92597" lon="4.72942">
        <ele>169</ele>
        <time>2018-03-29T16:01:49Z</time>
      </trkpt>
      <trkpt lat="45.92593" lon="4.72946">
        <ele>169</ele>
        <time>2018-03-29T16:01:50Z</time>
      </trkpt>
      <trkpt lat="45.92589" lon="4.72951">
        <ele>169</ele>
        <time>2018-03-29T16:01:51Z</time>
      </trkpt>
      <trkpt lat="45.92586" lon="4.72955">
        <ele>169</ele>
        <time>2018-03-29T16:01:52Z</time>
      </trkpt>
      <trkpt lat="45.92582" lon="4.7296">
        <ele>169</ele>
        <time>2018-03-29T16:01:53Z</time>
      </trkpt>
      <trkpt lat="45.92578" lon="4.72965">
        <ele>169</ele>
        <time>2018-03-29T16:01:54Z</time>
      </trkpt>
      <trkpt lat="45.9257" lon="4.72971">
        <ele>169</ele>
        <time>2018-03-29T16:01:56Z</time>
      </trkpt>
      <trkpt lat="45.92568" lon="4.72975">
        <ele>169</ele>
        <time>2018-03-29T16:01:57Z</time>
      </trkpt>
      <trkpt lat="45.92561" lon="4.72983">
        <ele>169</ele>
        <time>2018-03-29T16:01:59Z</time>
      </trkpt>
      <trkpt lat="45.92557" lon="4.72987">
        <ele>169</ele>
        <time>2018-03-29T16:02:00Z</time>
      </trkpt>
      <trkpt lat="45.92553" lon="4.72993">
        <ele>169</ele>
        <time>2018-03-29T16:02:01Z</time>
      </trkpt>
      <trkpt lat="45.92549" lon="4.72996">
        <ele>169</ele>
        <time>2018-03-29T16:02:02Z</time>
      </trkpt>
      <trkpt lat="45.92546" lon="4.73002">
        <ele>169</ele>
        <time>2018-03-29T16:02:03Z</time>
      </trkpt>
      <trkpt lat="45.92542" lon="4.73007">
        <ele>169</ele>
        <time>2018-03-29T16:02:04Z</time>
      </trkpt>
      <trkpt lat="45.92538" lon="4.7301">
        <ele>169</ele>
        <time>2018-03-29T16:02:05Z</time>
      </trkpt>
      <trkpt lat="45.92534" lon="4.73014">
        <ele>169</ele>
        <time>2018-03-29T16:02:06Z</time>
      </trkpt>
      <trkpt lat="45.9253" lon="4.73017">
        <ele>169</ele>
        <time>2018-03-29T16:02:07Z</time>
      </trkpt>
      <trkpt lat="45.92526" lon="4.73021">
        <ele>169</ele>
        <time>2018-03-29T16:02:08Z</time>
      </trkpt>
      <trkpt lat="45.92519" lon="4.73029">
        <ele>169</ele>
        <time>2018-03-29T16:02:10Z</time>
      </trkpt>
      <trkpt lat="45.92515" lon="4.73033">
        <ele>169</ele>
        <time>2018-03-29T16:02:11Z</time>
      </trkpt>
      <trkpt lat="45.92511" lon="4.73037">
        <ele>169</ele>
        <time>2018-03-29T16:02:12Z</time>
      </trkpt>
      <trkpt lat="45.92507" lon="4.73041">
        <ele>169</ele>
        <time>2018-03-29T16:02:13Z</time>
      </trkpt>
      <trkpt lat="45.92503" lon="4.73045">
        <ele>170</ele>
        <time>2018-03-29T16:02:14Z</time>
      </trkpt>
      <trkpt lat="45.92498" lon="4.73048">
        <ele>170</ele>
        <time>2018-03-29T16:02:15Z</time>
      </trkpt>
      <trkpt lat="45.92494" lon="4.73053">
        <ele>170</ele>
        <time>2018-03-29T16:02:16Z</time>
      </trkpt>
      <trkpt lat="45.92489" lon="4.73058">
        <ele>170</ele>
        <time>2018-03-29T16:02:17Z</time>
      </trkpt>
      <trkpt lat="45.92481" lon="4.73064">
        <ele>170</ele>
        <time>2018-03-29T16:02:19Z</time>
      </trkpt>
      <trkpt lat="45.92477" lon="4.73067">
        <ele>170</ele>
        <time>2018-03-29T16:02:20Z</time>
      </trkpt>
      <trkpt lat="45.92473" lon="4.73072">
        <ele>170</ele>
        <time>2018-03-29T16:02:21Z</time>
      </trkpt>
      <trkpt lat="45.92468" lon="4.73075">
        <ele>170</ele>
        <time>2018-03-29T16:02:22Z</time>
      </trkpt>
      <trkpt lat="45.92464" lon="4.73079">
        <ele>170</ele>
        <time>2018-03-29T16:02:23Z</time>
      </trkpt>
      <trkpt lat="45.92459" lon="4.73083">
        <ele>170</ele>
        <time>2018-03-29T16:02:24Z</time>
      </trkpt>
      <trkpt lat="45.92455" lon="4.73087">
        <ele>170</ele>
        <time>2018-03-29T16:02:25Z</time>
      </trkpt>
      <trkpt lat="45.92451" lon="4.73091">
        <ele>170</ele>
        <time>2018-03-29T16:02:26Z</time>
      </trkpt>
      <trkpt lat="45.92445" lon="4.73094">
        <ele>170</ele>
        <time>2018-03-29T16:02:27Z</time>
      </trkpt>
      <trkpt lat="45.92441" lon="4.73097">
        <ele>170</ele>
        <time>2018-03-29T16:02:28Z</time>
      </trkpt>
      <trkpt lat="45.92436" lon="4.73101">
        <ele>170</ele>
        <time>2018-03-29T16:02:29Z</time>
      </trkpt>
      <trkpt lat="45.92431" lon="4.73104">
        <ele>170</ele>
        <time>2018-03-29T16:02:30Z</time>
      </trkpt>
      <trkpt lat="45.92427" lon="4.7311">
        <ele>170</ele>
        <time>2018-03-29T16:02:31Z</time>
      </trkpt>
      <trkpt lat="45.92422" lon="4.73114">
        <ele>170</ele>
        <time>2018-03-29T16:02:32Z</time>
      </trkpt>
      <trkpt lat="45.92418" lon="4.73118">
        <ele>170</ele>
        <time>2018-03-29T16:02:33Z</time>
      </trkpt>
      <trkpt lat="45.92415" lon="4.73121">
        <ele>171</ele>
        <time>2018-03-29T16:02:34Z</time>
      </trkpt>
      <trkpt lat="45.92412" lon="4.73126">
        <ele>171</ele>
        <time>2018-03-29T16:02:35Z</time>
      </trkpt>
      <trkpt lat="45.92409" lon="4.73133">
        <ele>171</ele>
        <time>2018-03-29T16:02:36Z</time>
      </trkpt>
      <trkpt lat="45.92408" lon="4.7314">
        <ele>171</ele>
        <time>2018-03-29T16:02:37Z</time>
      </trkpt>
      <trkpt lat="45.92408" lon="4.73147">
        <ele>171</ele>
        <time>2018-03-29T16:02:38Z</time>
      </trkpt>
      <trkpt lat="45.92408" lon="4.73155">
        <ele>170</ele>
        <time>2018-03-29T16:02:39Z</time>
      </trkpt>
      <trkpt lat="45.92408" lon="4.73162">
        <ele>170</ele>
        <time>2018-03-29T16:02:40Z</time>
      </trkpt>
      <trkpt lat="45.92407" lon="4.73169">
        <ele>170</ele>
        <time>2018-03-29T16:02:41Z</time>
      </trkpt>
      <trkpt lat="45.92407" lon="4.73176">
        <ele>171</ele>
        <time>2018-03-29T16:02:42Z</time>
      </trkpt>
      <trkpt lat="45.92408" lon="4.73183">
        <ele>171</ele>
        <time>2018-03-29T16:02:43Z</time>
      </trkpt>
      <trkpt lat="45.92408" lon="4.7319">
        <ele>171</ele>
        <time>2018-03-29T16:02:44Z</time>
      </trkpt>
      <trkpt lat="45.92408" lon="4.73196">
        <ele>171</ele>
        <time>2018-03-29T16:02:45Z</time>
      </trkpt>
      <trkpt lat="45.92408" lon="4.73203">
        <ele>171</ele>
        <time>2018-03-29T16:02:46Z</time>
      </trkpt>
      <trkpt lat="45.92408" lon="4.7321">
        <ele>171</ele>
        <time>2018-03-29T16:02:47Z</time>
      </trkpt>
      <trkpt lat="45.92408" lon="4.73217">
        <ele>171</ele>
        <time>2018-03-29T16:02:48Z</time>
      </trkpt>
      <trkpt lat="45.9241" lon="4.73229">
        <ele>171</ele>
        <time>2018-03-29T16:02:50Z</time>
      </trkpt>
      <trkpt lat="45.92411" lon="4.73235">
        <ele>171</ele>
        <time>2018-03-29T16:02:51Z</time>
      </trkpt>
      <trkpt lat="45.92412" lon="4.73242">
        <ele>171</ele>
        <time>2018-03-29T16:02:52Z</time>
      </trkpt>
      <trkpt lat="45.92412" lon="4.73249">
        <ele>171</ele>
        <time>2018-03-29T16:02:53Z</time>
      </trkpt>
      <trkpt lat="45.92412" lon="4.73261">
        <ele>171</ele>
        <time>2018-03-29T16:02:55Z</time>
      </trkpt>
      <trkpt lat="45.92412" lon="4.73266">
        <ele>171</ele>
        <time>2018-03-29T16:02:56Z</time>
      </trkpt>
      <trkpt lat="45.92413" lon="4.73279">
        <ele>171</ele>
        <time>2018-03-29T16:02:58Z</time>
      </trkpt>
      <trkpt lat="45.92413" lon="4.73285">
        <ele>171</ele>
        <time>2018-03-29T16:02:59Z</time>
      </trkpt>
      <trkpt lat="45.92414" lon="4.73291">
        <ele>171</ele>
        <time>2018-03-29T16:03:00Z</time>
      </trkpt>
      <trkpt lat="45.92414" lon="4.73298">
        <ele>171</ele>
        <time>2018-03-29T16:03:01Z</time>
      </trkpt>
      <trkpt lat="45.92415" lon="4.73304">
        <ele>171</ele>
        <time>2018-03-29T16:03:02Z</time>
      </trkpt>
      <trkpt lat="45.92415" lon="4.73312">
        <ele>171</ele>
        <time>2018-03-29T16:03:03Z</time>
      </trkpt>
      <trkpt lat="45.92415" lon="4.73319">
        <ele>171</ele>
        <time>2018-03-29T16:03:04Z</time>
      </trkpt>
      <trkpt lat="45.92415" lon="4.73325">
        <ele>171</ele>
        <time>2018-03-29T16:03:05Z</time>
      </trkpt>
      <trkpt lat="45.92415" lon="4.73332">
        <ele>171</ele>
        <time>2018-03-29T16:03:06Z</time>
      </trkpt>
      <trkpt lat="45.92416" lon="4.7334">
        <ele>171</ele>
        <time>2018-03-29T16:03:07Z</time>
      </trkpt>
      <trkpt lat="45.92416" lon="4.73346">
        <ele>171</ele>
        <time>2018-03-29T16:03:08Z</time>
      </trkpt>
      <trkpt lat="45.92418" lon="4.73353">
        <ele>171</ele>
        <time>2018-03-29T16:03:09Z</time>
      </trkpt>
      <trkpt lat="45.92418" lon="4.73359">
        <ele>171</ele>
        <time>2018-03-29T16:03:10Z</time>
      </trkpt>
      <trkpt lat="45.92419" lon="4.73367">
        <ele>172</ele>
        <time>2018-03-29T16:03:11Z</time>
      </trkpt>
      <trkpt lat="45.9242" lon="4.73373">
        <ele>172</ele>
        <time>2018-03-29T16:03:12Z</time>
      </trkpt>
      <trkpt lat="45.92421" lon="4.7338">
        <ele>172</ele>
        <time>2018-03-29T16:03:13Z</time>
      </trkpt>
      <trkpt lat="45.92422" lon="4.73386">
        <ele>172</ele>
        <time>2018-03-29T16:03:14Z</time>
      </trkpt>
      <trkpt lat="45.92423" lon="4.73392">
        <ele>172</ele>
        <time>2018-03-29T16:03:15Z</time>
      </trkpt>
      <trkpt lat="45.92427" lon="4.73402">
        <ele>172</ele>
        <time>2018-03-29T16:03:17Z</time>
      </trkpt>
      <trkpt lat="45.92429" lon="4.73407">
        <ele>172</ele>
        <time>2018-03-29T16:03:18Z</time>
      </trkpt>
      <trkpt lat="45.92435" lon="4.73415">
        <ele>172</ele>
        <time>2018-03-29T16:03:20Z</time>
      </trkpt>
      <trkpt lat="45.92439" lon="4.73418">
        <ele>173</ele>
        <time>2018-03-29T16:03:21Z</time>
      </trkpt>
      <trkpt lat="45.92448" lon="4.73422">
        <ele>173</ele>
        <time>2018-03-29T16:03:23Z</time>
      </trkpt>
      <trkpt lat="45.92451" lon="4.73426">
        <ele>173</ele>
        <time>2018-03-29T16:03:24Z</time>
      </trkpt>
      <trkpt lat="45.92454" lon="4.7343">
        <ele>173</ele>
        <time>2018-03-29T16:03:25Z</time>
      </trkpt>
      <trkpt lat="45.9246" lon="4.73434">
        <ele>173</ele>
        <time>2018-03-29T16:03:26Z</time>
      </trkpt>
      <trkpt lat="45.92463" lon="4.73439">
        <ele>173</ele>
        <time>2018-03-29T16:03:27Z</time>
      </trkpt>
      <trkpt lat="45.92465" lon="4.73445">
        <ele>173</ele>
        <time>2018-03-29T16:03:28Z</time>
      </trkpt>
      <trkpt lat="45.92466" lon="4.73457">
        <ele>173</ele>
        <time>2018-03-29T16:03:30Z</time>
      </trkpt>
      <trkpt lat="45.92466" lon="4.73463">
        <ele>173</ele>
        <time>2018-03-29T16:03:31Z</time>
      </trkpt>
      <trkpt lat="45.92465" lon="4.73475">
        <ele>173</ele>
        <time>2018-03-29T16:03:33Z</time>
      </trkpt>
      <trkpt lat="45.92463" lon="4.73482">
        <ele>173</ele>
        <time>2018-03-29T16:03:34Z</time>
      </trkpt>
      <trkpt lat="45.92461" lon="4.73489">
        <ele>173</ele>
        <time>2018-03-29T16:03:35Z</time>
      </trkpt>
      <trkpt lat="45.92462" lon="4.73495">
        <ele>173</ele>
        <time>2018-03-29T16:03:36Z</time>
      </trkpt>
      <trkpt lat="45.92466" lon="4.73507">
        <ele>174</ele>
        <time>2018-03-29T16:03:38Z</time>
      </trkpt>
      <trkpt lat="45.92466" lon="4.73513">
        <ele>174</ele>
        <time>2018-03-29T16:03:39Z</time>
      </trkpt>
      <trkpt lat="45.92467" lon="4.73526">
        <ele>174</ele>
        <time>2018-03-29T16:03:41Z</time>
      </trkpt>
      <trkpt lat="45.92466" lon="4.73531">
        <ele>174</ele>
        <time>2018-03-29T16:03:42Z</time>
      </trkpt>
      <trkpt lat="45.92465" lon="4.73542">
        <ele>173</ele>
        <time>2018-03-29T16:03:44Z</time>
      </trkpt>
      <trkpt lat="45.92465" lon="4.73547">
        <ele>173</ele>
        <time>2018-03-29T16:03:45Z</time>
      </trkpt>
      <trkpt lat="45.92464" lon="4.73559">
        <ele>173</ele>
        <time>2018-03-29T16:03:47Z</time>
      </trkpt>
      <trkpt lat="45.92464" lon="4.73566">
        <ele>173</ele>
        <time>2018-03-29T16:03:48Z</time>
      </trkpt>
      <trkpt lat="45.92465" lon="4.73573">
        <ele>173</ele>
        <time>2018-03-29T16:03:49Z</time>
      </trkpt>
      <trkpt lat="45.92465" lon="4.7358">
        <ele>173</ele>
        <time>2018-03-29T16:03:50Z</time>
      </trkpt>
      <trkpt lat="45.92465" lon="4.73587">
        <ele>174</ele>
        <time>2018-03-29T16:03:51Z</time>
      </trkpt>
      <trkpt lat="45.92465" lon="4.73594">
        <ele>174</ele>
        <time>2018-03-29T16:03:52Z</time>
      </trkpt>
      <trkpt lat="45.92465" lon="4.73601">
        <ele>174</ele>
        <time>2018-03-29T16:03:53Z</time>
      </trkpt>
      <trkpt lat="45.92466" lon="4.73609">
        <ele>174</ele>
        <time>2018-03-29T16:03:54Z</time>
      </trkpt>
      <trkpt lat="45.92467" lon="4.73615">
        <ele>174</ele>
        <time>2018-03-29T16:03:55Z</time>
      </trkpt>
      <trkpt lat="45.92467" lon="4.73622">
        <ele>174</ele>
        <time>2018-03-29T16:03:56Z</time>
      </trkpt>
      <trkpt lat="45.92468" lon="4.73629">
        <ele>174</ele>
        <time>2018-03-29T16:03:57Z</time>
      </trkpt>
      <trkpt lat="45.92468" lon="4.73636">
        <ele>174</ele>
        <time>2018-03-29T16:03:58Z</time>
      </trkpt>
      <trkpt lat="45.92466" lon="4.73642">
        <ele>174</ele>
        <time>2018-03-29T16:03:59Z</time>
      </trkpt>
      <trkpt lat="45.92465" lon="4.73649">
        <ele>174</ele>
        <time>2018-03-29T16:04:00Z</time>
      </trkpt>
      <trkpt lat="45.92465" lon="4.73661">
        <ele>174</ele>
        <time>2018-03-29T16:04:02Z</time>
      </trkpt>
      <trkpt lat="45.92466" lon="4.73668">
        <ele>174</ele>
        <time>2018-03-29T16:04:03Z</time>
      </trkpt>
      <trkpt lat="45.92466" lon="4.73678">
        <ele>174</ele>
        <time>2018-03-29T16:04:05Z</time>
      </trkpt>
      <trkpt lat="45.92466" lon="4.73683">
        <ele>174</ele>
        <time>2018-03-29T16:04:06Z</time>
      </trkpt>
      <trkpt lat="45.92464" lon="4.73696">
        <ele>174</ele>
        <time>2018-03-29T16:04:08Z</time>
      </trkpt>
      <trkpt lat="45.92464" lon="4.73701">
        <ele>174</ele>
        <time>2018-03-29T16:04:09Z</time>
      </trkpt>
      <trkpt lat="45.92462" lon="4.7371">
        <ele>174</ele>
        <time>2018-03-29T16:05:01.866Z</time>
      </trkpt>
    </trkseg>
  </trk>
</gpx>